<?xml version="1.0"?>
<gpx xmlns="http://www.topografix.com/GPX/1/1" xmlns:xsi="http://www.w3.org/2001/XMLSchema-instance" version="1.1" creator="GPX RubyGem 1.0.0 -- http://dougfales.github.io/gpx/" xsi:schemaLocation="http://www.topografix.com/GPX/1/1 http://www.topografix.com/GPX/1/1/gpx.xsd">
  <metadata>
    <name/>
    <time>2026-05-08T08:13:05+00:00</time>
    <bound minlat="90.0" minlon="180.0" maxlat="-90.0" maxlon="-180.0"/>
  </metadata>
  <trk>
    <name/>
    <trkseg>
      <trkpt lat="44.7904169652611" lon="6.519630113616586">
        <time>2022-01-25T07:15:17+00:00</time>
        <ele>1317.0</ele>
      </trkpt>
      <trkpt lat="44.79042015038431" lon="6.519628437235951">
        <time>2022-01-25T07:15:18+00:00</time>
        <ele>1317.0</ele>
      </trkpt>
      <trkpt lat="44.790455773472786" lon="6.519615864381194">
        <time>2022-01-25T07:15:25+00:00</time>
        <ele>1315.0</ele>
      </trkpt>
      <trkpt lat="44.79044244624674" lon="6.519622569903731">
        <time>2022-01-25T07:15:28+00:00</time>
        <ele>1316.0</ele>
      </trkpt>
      <trkpt lat="44.79039399884641" lon="6.519609158858657">
        <time>2022-01-25T07:15:47+00:00</time>
        <ele>1317.0</ele>
      </trkpt>
      <trkpt lat="44.790400955826044" lon="6.51961812749505">
        <time>2022-01-25T07:15:54+00:00</time>
        <ele>1317.0</ele>
      </trkpt>
      <trkpt lat="44.790407326072454" lon="6.519648637622595">
        <time>2022-01-25T07:16:07+00:00</time>
        <ele>1317.0</ele>
      </trkpt>
      <trkpt lat="44.79042601771653" lon="6.519675627350807">
        <time>2022-01-25T07:16:20+00:00</time>
        <ele>1316.0</ele>
      </trkpt>
      <trkpt lat="44.79043951258063" lon="6.519678058102727">
        <time>2022-01-25T07:16:37+00:00</time>
        <ele>1316.0</ele>
      </trkpt>
      <trkpt lat="44.79044001549482" lon="6.519677387550473">
        <time>2022-01-25T07:16:38+00:00</time>
        <ele>1316.0</ele>
      </trkpt>
      <trkpt lat="44.79044018313289" lon="6.51967721991241">
        <time>2022-01-25T07:16:39+00:00</time>
        <ele>1316.0</ele>
      </trkpt>
      <trkpt lat="44.79043674655259" lon="6.5196552593261">
        <time>2022-01-25T07:16:53+00:00</time>
        <ele>1316.0</ele>
      </trkpt>
      <trkpt lat="44.790428783744574" lon="6.519650984555483">
        <time>2022-01-25T07:16:56+00:00</time>
        <ele>1316.0</ele>
      </trkpt>
      <trkpt lat="44.7904343996197" lon="6.5196319576352835">
        <time>2022-01-25T07:17:08+00:00</time>
        <ele>1316.0</ele>
      </trkpt>
      <trkpt lat="44.79044437408447" lon="6.519616870209575">
        <time>2022-01-25T07:17:19+00:00</time>
        <ele>1316.0</ele>
      </trkpt>
      <trkpt lat="44.79044864885509" lon="6.519615696743131">
        <time>2022-01-25T07:17:22+00:00</time>
        <ele>1316.0</ele>
      </trkpt>
      <trkpt lat="44.790458120405674" lon="6.519613768905401">
        <time>2022-01-25T07:17:25+00:00</time>
        <ele>1315.0</ele>
      </trkpt>
      <trkpt lat="44.7904618922621" lon="6.519612343981862">
        <time>2022-01-25T07:17:28+00:00</time>
        <ele>1315.0</ele>
      </trkpt>
      <trkpt lat="44.79049030691385" lon="6.519612930715084">
        <time>2022-01-25T07:17:37+00:00</time>
        <ele>1314.0</ele>
      </trkpt>
      <trkpt lat="44.790490390732884" lon="6.519610416144133">
        <time>2022-01-25T07:17:46+00:00</time>
        <ele>1314.0</ele>
      </trkpt>
      <trkpt lat="44.79045024141669" lon="6.5195076540112495">
        <time>2022-01-25T07:17:54+00:00</time>
        <ele>1316.0</ele>
      </trkpt>
      <trkpt lat="44.79040757752955" lon="6.519424002617598">
        <time>2022-01-25T07:17:59+00:00</time>
        <ele>1318.0</ele>
      </trkpt>
      <trkpt lat="44.790411768481135" lon="6.51939919218421">
        <time>2022-01-25T07:18:01+00:00</time>
        <ele>1318.0</ele>
      </trkpt>
      <trkpt lat="44.79041981510818" lon="6.519374046474695">
        <time>2022-01-25T07:18:03+00:00</time>
        <ele>1318.0</ele>
      </trkpt>
      <trkpt lat="44.790448900312185" lon="6.51930489577353">
        <time>2022-01-25T07:18:07+00:00</time>
        <ele>1318.0</ele>
      </trkpt>
      <trkpt lat="44.79044831357896" lon="6.5192891377955675">
        <time>2022-01-25T07:18:10+00:00</time>
        <ele>1319.0</ele>
      </trkpt>
      <trkpt lat="44.79045736603439" lon="6.519243456423283">
        <time>2022-01-25T07:18:13+00:00</time>
        <ele>1319.0</ele>
      </trkpt>
      <trkpt lat="44.79048326611519" lon="6.519196098670363">
        <time>2022-01-25T07:18:17+00:00</time>
        <ele>1319.0</ele>
      </trkpt>
      <trkpt lat="44.790484523400664" lon="6.5191819332540035">
        <time>2022-01-25T07:18:18+00:00</time>
        <ele>1319.0</ele>
      </trkpt>
      <trkpt lat="44.790490893647075" lon="6.519157458096743">
        <time>2022-01-25T07:18:20+00:00</time>
        <ele>1320.0</ele>
      </trkpt>
      <trkpt lat="44.79049500077963" lon="6.5191439632326365">
        <time>2022-01-25T07:18:21+00:00</time>
        <ele>1320.0</ele>
      </trkpt>
      <trkpt lat="44.79049801826477" lon="6.519131641834974">
        <time>2022-01-25T07:18:22+00:00</time>
        <ele>1320.0</ele>
      </trkpt>
      <trkpt lat="44.79050631634891" lon="6.519071459770203">
        <time>2022-01-25T07:18:28+00:00</time>
        <ele>1321.0</ele>
      </trkpt>
      <trkpt lat="44.790504556149244" lon="6.51906156912446">
        <time>2022-01-25T07:18:29+00:00</time>
        <ele>1321.0</ele>
      </trkpt>
      <trkpt lat="44.7905379999429" lon="6.518933996558189">
        <time>2022-01-25T07:18:36+00:00</time>
        <ele>1322.0</ele>
      </trkpt>
      <trkpt lat="44.790544705465436" lon="6.5189168974757195">
        <time>2022-01-25T07:18:37+00:00</time>
        <ele>1322.0</ele>
      </trkpt>
      <trkpt lat="44.790605725720525" lon="6.518819835036993">
        <time>2022-01-25T07:18:44+00:00</time>
        <ele>1322.0</ele>
      </trkpt>
      <trkpt lat="44.790599942207336" lon="6.518812458962202">
        <time>2022-01-25T07:18:45+00:00</time>
        <ele>1323.0</ele>
      </trkpt>
      <trkpt lat="44.79059466160834" lon="6.518801059573889">
        <time>2022-01-25T07:18:47+00:00</time>
        <ele>1323.0</ele>
      </trkpt>
      <trkpt lat="44.79061578400433" lon="6.518774321302772">
        <time>2022-01-25T07:18:50+00:00</time>
        <ele>1323.0</ele>
      </trkpt>
      <trkpt lat="44.79064277373254" lon="6.518739704042673">
        <time>2022-01-25T07:18:56+00:00</time>
        <ele>1323.0</ele>
      </trkpt>
      <trkpt lat="44.79064746759832" lon="6.51873073540628">
        <time>2022-01-25T07:18:57+00:00</time>
        <ele>1323.0</ele>
      </trkpt>
      <trkpt lat="44.7906587831676" lon="6.518687065690756">
        <time>2022-01-25T07:19:01+00:00</time>
        <ele>1324.0</ele>
      </trkpt>
      <trkpt lat="44.790655598044395" lon="6.518660914152861">
        <time>2022-01-25T07:19:03+00:00</time>
        <ele>1325.0</ele>
      </trkpt>
      <trkpt lat="44.79066071100533" lon="6.518642054870725">
        <time>2022-01-25T07:19:05+00:00</time>
        <ele>1326.0</ele>
      </trkpt>
      <trkpt lat="44.790658531710505" lon="6.518619507551193">
        <time>2022-01-25T07:19:07+00:00</time>
        <ele>1326.0</ele>
      </trkpt>
      <trkpt lat="44.790675630792975" lon="6.518571395426989">
        <time>2022-01-25T07:19:11+00:00</time>
        <ele>1327.0</ele>
      </trkpt>
      <trkpt lat="44.79067973792553" lon="6.51855924166739">
        <time>2022-01-25T07:19:12+00:00</time>
        <ele>1327.0</ele>
      </trkpt>
      <trkpt lat="44.7906812466681" lon="6.518546920269728">
        <time>2022-01-25T07:19:13+00:00</time>
        <ele>1328.0</ele>
      </trkpt>
      <trkpt lat="44.79070169851184" lon="6.518523450940847">
        <time>2022-01-25T07:19:16+00:00</time>
        <ele>1328.0</ele>
      </trkpt>
      <trkpt lat="44.790717121213675" lon="6.518504004925489">
        <time>2022-01-25T07:19:18+00:00</time>
        <ele>1328.0</ele>
      </trkpt>
      <trkpt lat="44.79073639959097" lon="6.518485564738512">
        <time>2022-01-25T07:19:20+00:00</time>
        <ele>1328.0</ele>
      </trkpt>
      <trkpt lat="44.79074620641768" lon="6.51843024417758">
        <time>2022-01-25T07:19:25+00:00</time>
        <ele>1329.0</ele>
      </trkpt>
      <trkpt lat="44.79075517505407" lon="6.518409289419651">
        <time>2022-01-25T07:19:27+00:00</time>
        <ele>1329.0</ele>
      </trkpt>
      <trkpt lat="44.79076095856726" lon="6.518397135660052">
        <time>2022-01-25T07:19:28+00:00</time>
        <ele>1329.0</ele>
      </trkpt>
      <trkpt lat="44.79076724499464" lon="6.51838724501431">
        <time>2022-01-25T07:19:29+00:00</time>
        <ele>1330.0</ele>
      </trkpt>
      <trkpt lat="44.790790379047394" lon="6.518331002444029">
        <time>2022-01-25T07:19:34+00:00</time>
        <ele>1331.0</ele>
      </trkpt>
      <trkpt lat="44.790796330198646" lon="6.518319770693779">
        <time>2022-01-25T07:19:35+00:00</time>
        <ele>1331.0</ele>
      </trkpt>
      <trkpt lat="44.7908020298928" lon="6.51830954477191">
        <time>2022-01-25T07:19:36+00:00</time>
        <ele>1331.0</ele>
      </trkpt>
      <trkpt lat="44.790808483958244" lon="6.518297977745533">
        <time>2022-01-25T07:19:37+00:00</time>
        <ele>1331.0</ele>
      </trkpt>
      <trkpt lat="44.79083555750549" lon="6.518267383798957">
        <time>2022-01-25T07:19:41+00:00</time>
        <ele>1331.0</ele>
      </trkpt>
      <trkpt lat="44.79087294079363" lon="6.518233520910144">
        <time>2022-01-25T07:19:46+00:00</time>
        <ele>1330.0</ele>
      </trkpt>
      <trkpt lat="44.79087419807911" lon="6.518218768760562">
        <time>2022-01-25T07:19:47+00:00</time>
        <ele>1331.0</ele>
      </trkpt>
      <trkpt lat="44.790880819782615" lon="6.518206782639027">
        <time>2022-01-25T07:19:48+00:00</time>
        <ele>1331.0</ele>
      </trkpt>
      <trkpt lat="44.79092733934522" lon="6.518173590302467">
        <time>2022-01-25T07:19:53+00:00</time>
        <ele>1330.0</ele>
      </trkpt>
      <trkpt lat="44.79093538597226" lon="6.518160263076425">
        <time>2022-01-25T07:19:54+00:00</time>
        <ele>1330.0</ele>
      </trkpt>
      <trkpt lat="44.79095030575991" lon="6.518147606402636">
        <time>2022-01-25T07:19:57+00:00</time>
        <ele>1330.0</ele>
      </trkpt>
      <trkpt lat="44.790957598015666" lon="6.518142828717828">
        <time>2022-01-25T07:19:58+00:00</time>
        <ele>1330.0</ele>
      </trkpt>
      <trkpt lat="44.790976122021675" lon="6.518131094053388">
        <time>2022-01-25T07:20:00+00:00</time>
        <ele>1329.0</ele>
      </trkpt>
      <trkpt lat="44.79098157025874" lon="6.518095303326845">
        <time>2022-01-25T07:20:04+00:00</time>
        <ele>1330.0</ele>
      </trkpt>
      <trkpt lat="44.79096623137593" lon="6.518066385760903">
        <time>2022-01-25T07:20:09+00:00</time>
        <ele>1331.0</ele>
      </trkpt>
      <trkpt lat="44.790967740118504" lon="6.518046436831355">
        <time>2022-01-25T07:20:11+00:00</time>
        <ele>1332.0</ele>
      </trkpt>
      <trkpt lat="44.79098509065807" lon="6.518006874248385">
        <time>2022-01-25T07:20:15+00:00</time>
        <ele>1332.0</ele>
      </trkpt>
      <trkpt lat="44.79100193828344" lon="6.517989607527852">
        <time>2022-01-25T07:20:17+00:00</time>
        <ele>1332.0</ele>
      </trkpt>
      <trkpt lat="44.791005374863744" lon="6.517979381605983">
        <time>2022-01-25T07:20:18+00:00</time>
        <ele>1332.0</ele>
      </trkpt>
      <trkpt lat="44.7910491283983" lon="6.517918528988957">
        <time>2022-01-25T07:20:23+00:00</time>
        <ele>1332.0</ele>
      </trkpt>
      <trkpt lat="44.79106320999563" lon="6.517885169014335">
        <time>2022-01-25T07:20:26+00:00</time>
        <ele>1332.0</ele>
      </trkpt>
      <trkpt lat="44.79107930324972" lon="6.51781995780766">
        <time>2022-01-25T07:20:33+00:00</time>
        <ele>1333.0</ele>
      </trkpt>
      <trkpt lat="44.79103261604905" lon="6.5178269147872925">
        <time>2022-01-25T07:20:39+00:00</time>
        <ele>1335.0</ele>
      </trkpt>
      <trkpt lat="44.79102046228945" lon="6.517829932272434">
        <time>2022-01-25T07:20:41+00:00</time>
        <ele>1335.0</ele>
      </trkpt>
      <trkpt lat="44.79098550975323" lon="6.517873937264085">
        <time>2022-01-25T07:20:47+00:00</time>
        <ele>1336.0</ele>
      </trkpt>
      <trkpt lat="44.79098559357226" lon="6.517894975841045">
        <time>2022-01-25T07:20:49+00:00</time>
        <ele>1335.0</ele>
      </trkpt>
      <trkpt lat="44.79098165407777" lon="6.517905788496137">
        <time>2022-01-25T07:20:50+00:00</time>
        <ele>1335.0</ele>
      </trkpt>
      <trkpt lat="44.79097545146942" lon="6.5179146733134985">
        <time>2022-01-25T07:20:51+00:00</time>
        <ele>1335.0</ele>
      </trkpt>
      <trkpt lat="44.79094854556024" lon="6.517945351079106">
        <time>2022-01-25T07:20:54+00:00</time>
        <ele>1335.0</ele>
      </trkpt>
      <trkpt lat="44.79094569571316" lon="6.517962031066418">
        <time>2022-01-25T07:20:57+00:00</time>
        <ele>1335.0</ele>
      </trkpt>
      <trkpt lat="44.79093320667744" lon="6.517975777387619">
        <time>2022-01-25T07:20:59+00:00</time>
        <ele>1335.0</ele>
      </trkpt>
      <trkpt lat="44.790926752611995" lon="6.517980890348554">
        <time>2022-01-25T07:21:00+00:00</time>
        <ele>1335.0</ele>
      </trkpt>
      <trkpt lat="44.79091828688979" lon="6.517987512052059">
        <time>2022-01-25T07:21:01+00:00</time>
        <ele>1335.0</ele>
      </trkpt>
      <trkpt lat="44.79087805375457" lon="6.5180201176553965">
        <time>2022-01-25T07:21:06+00:00</time>
        <ele>1336.0</ele>
      </trkpt>
      <trkpt lat="44.790867157280445" lon="6.518049454316497">
        <time>2022-01-25T07:21:09+00:00</time>
        <ele>1336.0</ele>
      </trkpt>
      <trkpt lat="44.790858356282115" lon="6.51806915178895">
        <time>2022-01-25T07:21:11+00:00</time>
        <ele>1336.0</ele>
      </trkpt>
      <trkpt lat="44.79084947146475" lon="6.518076276406646">
        <time>2022-01-25T07:21:12+00:00</time>
        <ele>1336.0</ele>
      </trkpt>
      <trkpt lat="44.790835892781615" lon="6.518092704936862">
        <time>2022-01-25T07:21:14+00:00</time>
        <ele>1336.0</ele>
      </trkpt>
      <trkpt lat="44.79079641401768" lon="6.518131764605641">
        <time>2022-01-25T07:21:18+00:00</time>
        <ele>1336.0</ele>
      </trkpt>
      <trkpt lat="44.79077244177461" lon="6.518189096823335">
        <time>2022-01-25T07:21:22+00:00</time>
        <ele>1336.0</ele>
      </trkpt>
      <trkpt lat="44.790744027122855" lon="6.518214577808976">
        <time>2022-01-25T07:21:25+00:00</time>
        <ele>1336.0</ele>
      </trkpt>
      <trkpt lat="44.790723491460085" lon="6.518233185634017">
        <time>2022-01-25T07:21:27+00:00</time>
        <ele>1336.0</ele>
      </trkpt>
      <trkpt lat="44.79070664383471" lon="6.518259420990944">
        <time>2022-01-25T07:21:30+00:00</time>
        <ele>1336.0</ele>
      </trkpt>
      <trkpt lat="44.79069968685508" lon="6.5182724967598915">
        <time>2022-01-25T07:21:33+00:00</time>
        <ele>1336.0</ele>
      </trkpt>
      <trkpt lat="44.790668254718184" lon="6.5183134842664">
        <time>2022-01-25T07:21:38+00:00</time>
        <ele>1337.0</ele>
      </trkpt>
      <trkpt lat="44.79064906015992" lon="6.5183246321976185">
        <time>2022-01-25T07:21:40+00:00</time>
        <ele>1337.0</ele>
      </trkpt>
      <trkpt lat="44.79063045233488" lon="6.518339468166232">
        <time>2022-01-25T07:21:42+00:00</time>
        <ele>1337.0</ele>
      </trkpt>
      <trkpt lat="44.7906209807843" lon="6.5183475986123085">
        <time>2022-01-25T07:21:43+00:00</time>
        <ele>1338.0</ele>
      </trkpt>
      <trkpt lat="44.790572533383965" lon="6.518382718786597">
        <time>2022-01-25T07:21:48+00:00</time>
        <ele>1338.0</ele>
      </trkpt>
      <trkpt lat="44.790561804547906" lon="6.518384395167232">
        <time>2022-01-25T07:21:49+00:00</time>
        <ele>1339.0</ele>
      </trkpt>
      <trkpt lat="44.790556859225035" lon="6.518391352146864">
        <time>2022-01-25T07:21:50+00:00</time>
        <ele>1339.0</ele>
      </trkpt>
      <trkpt lat="44.7905464656651" lon="6.518412558361888">
        <time>2022-01-25T07:21:52+00:00</time>
        <ele>1339.0</ele>
      </trkpt>
      <trkpt lat="44.79052232578397" lon="6.518434518948197">
        <time>2022-01-25T07:21:55+00:00</time>
        <ele>1339.0</ele>
      </trkpt>
      <trkpt lat="44.79051277041435" lon="6.518454551696777">
        <time>2022-01-25T07:21:59+00:00</time>
        <ele>1339.0</ele>
      </trkpt>
      <trkpt lat="44.790494833141565" lon="6.518476847559214">
        <time>2022-01-25T07:22:01+00:00</time>
        <ele>1339.0</ele>
      </trkpt>
      <trkpt lat="44.79046314954758" lon="6.5184910129755735">
        <time>2022-01-25T07:22:06+00:00</time>
        <ele>1340.0</ele>
      </trkpt>
      <trkpt lat="44.79045602492988" lon="6.518499311059713">
        <time>2022-01-25T07:22:07+00:00</time>
        <ele>1340.0</ele>
      </trkpt>
      <trkpt lat="44.79043775238097" lon="6.518549518659711">
        <time>2022-01-25T07:22:12+00:00</time>
        <ele>1339.0</ele>
      </trkpt>
      <trkpt lat="44.79043398052454" lon="6.518572568893433">
        <time>2022-01-25T07:22:14+00:00</time>
        <ele>1338.0</ele>
      </trkpt>
      <trkpt lat="44.790383437648416" lon="6.51861640624702">
        <time>2022-01-25T07:22:20+00:00</time>
        <ele>1339.0</ele>
      </trkpt>
      <trkpt lat="44.7903601359576" lon="6.518624369055033">
        <time>2022-01-25T07:22:22+00:00</time>
        <ele>1340.0</ele>
      </trkpt>
      <trkpt lat="44.790337001904845" lon="6.518649011850357">
        <time>2022-01-25T07:22:25+00:00</time>
        <ele>1340.0</ele>
      </trkpt>
      <trkpt lat="44.79030297137797" lon="6.518659824505448">
        <time>2022-01-25T07:22:27+00:00</time>
        <ele>1341.0</ele>
      </trkpt>
      <trkpt lat="44.79028000496328" lon="6.5186865627765656">
        <time>2022-01-25T07:22:30+00:00</time>
        <ele>1341.0</ele>
      </trkpt>
      <trkpt lat="44.79026977904141" lon="6.518699722364545">
        <time>2022-01-25T07:22:32+00:00</time>
        <ele>1341.0</ele>
      </trkpt>
      <trkpt lat="44.790261313319206" lon="6.51870533823967">
        <time>2022-01-25T07:22:33+00:00</time>
        <ele>1342.0</ele>
      </trkpt>
      <trkpt lat="44.7902459744364" lon="6.518719419836998">
        <time>2022-01-25T07:22:35+00:00</time>
        <ele>1342.0</ele>
      </trkpt>
      <trkpt lat="44.790245639160275" lon="6.518730483949184">
        <time>2022-01-25T07:22:36+00:00</time>
        <ele>1341.0</ele>
      </trkpt>
      <trkpt lat="44.79024773463607" lon="6.518752695992589">
        <time>2022-01-25T07:22:38+00:00</time>
        <ele>1340.0</ele>
      </trkpt>
      <trkpt lat="44.790224181488156" lon="6.518807010725141">
        <time>2022-01-25T07:22:44+00:00</time>
        <ele>1339.0</ele>
      </trkpt>
      <trkpt lat="44.79022342711687" lon="6.518814219161868">
        <time>2022-01-25T07:22:45+00:00</time>
        <ele>1339.0</ele>
      </trkpt>
      <trkpt lat="44.79021051898599" lon="6.5188264567404985">
        <time>2022-01-25T07:22:47+00:00</time>
        <ele>1339.0</ele>
      </trkpt>
      <trkpt lat="44.79017120786011" lon="6.518862834200263">
        <time>2022-01-25T07:22:52+00:00</time>
        <ele>1340.0</ele>
      </trkpt>
      <trkpt lat="44.79016123339534" lon="6.518903486430645">
        <time>2022-01-25T07:22:55+00:00</time>
        <ele>1339.0</ele>
      </trkpt>
      <trkpt lat="44.79015360586345" lon="6.518922597169876">
        <time>2022-01-25T07:22:57+00:00</time>
        <ele>1339.0</ele>
      </trkpt>
      <trkpt lat="44.79015192948282" lon="6.518934667110443">
        <time>2022-01-25T07:22:58+00:00</time>
        <ele>1339.0</ele>
      </trkpt>
      <trkpt lat="44.79013684205711" lon="6.518954783678055">
        <time>2022-01-25T07:23:00+00:00</time>
        <ele>1339.0</ele>
      </trkpt>
      <trkpt lat="44.790079006925225" lon="6.5189887303858995">
        <time>2022-01-25T07:23:05+00:00</time>
        <ele>1340.0</ele>
      </trkpt>
      <trkpt lat="44.79005721397698" lon="6.5190184861421585">
        <time>2022-01-25T07:23:08+00:00</time>
        <ele>1340.0</ele>
      </trkpt>
      <trkpt lat="44.79005880653858" lon="6.519046984612942">
        <time>2022-01-25T07:23:10+00:00</time>
        <ele>1339.0</ele>
      </trkpt>
      <trkpt lat="44.79004363529384" lon="6.519068190827966">
        <time>2022-01-25T07:23:12+00:00</time>
        <ele>1339.0</ele>
      </trkpt>
      <trkpt lat="44.79002200998366" lon="6.519097778946161">
        <time>2022-01-25T07:23:15+00:00</time>
        <ele>1339.0</ele>
      </trkpt>
      <trkpt lat="44.789992086589336" lon="6.519121751189232">
        <time>2022-01-25T07:23:18+00:00</time>
        <ele>1339.0</ele>
      </trkpt>
      <trkpt lat="44.78992888703942" lon="6.5191789995878935">
        <time>2022-01-25T07:23:25+00:00</time>
        <ele>1340.0</ele>
      </trkpt>
      <trkpt lat="44.78990432806313" lon="6.519197691231966">
        <time>2022-01-25T07:23:28+00:00</time>
        <ele>1340.0</ele>
      </trkpt>
      <trkpt lat="44.789884546771646" lon="6.519207581877708">
        <time>2022-01-25T07:23:30+00:00</time>
        <ele>1340.0</ele>
      </trkpt>
      <trkpt lat="44.78987532667816" lon="6.519212611019611">
        <time>2022-01-25T07:23:31+00:00</time>
        <ele>1340.0</ele>
      </trkpt>
      <trkpt lat="44.78986627422273" lon="6.519217975437641">
        <time>2022-01-25T07:23:33+00:00</time>
        <ele>1340.0</ele>
      </trkpt>
      <trkpt lat="44.78984288871288" lon="6.519234571605921">
        <time>2022-01-25T07:23:36+00:00</time>
        <ele>1340.0</ele>
      </trkpt>
      <trkpt lat="44.7898159828037" lon="6.519241528585553">
        <time>2022-01-25T07:23:39+00:00</time>
        <ele>1341.0</ele>
      </trkpt>
      <trkpt lat="44.78980324231088" lon="6.519249156117439">
        <time>2022-01-25T07:23:41+00:00</time>
        <ele>1341.0</ele>
      </trkpt>
      <trkpt lat="44.78978564031422" lon="6.519300956279039">
        <time>2022-01-25T07:23:44+00:00</time>
        <ele>1340.0</ele>
      </trkpt>
      <trkpt lat="44.789773570373654" lon="6.519319312646985">
        <time>2022-01-25T07:23:46+00:00</time>
        <ele>1339.0</ele>
      </trkpt>
      <trkpt lat="44.78970643132925" lon="6.519361641258001">
        <time>2022-01-25T07:23:53+00:00</time>
        <ele>1339.0</ele>
      </trkpt>
      <trkpt lat="44.78969452902675" lon="6.519358288496733">
        <time>2022-01-25T07:23:55+00:00</time>
        <ele>1340.0</ele>
      </trkpt>
      <trkpt lat="44.789632335305214" lon="6.5193286165595055">
        <time>2022-01-25T07:24:01+00:00</time>
        <ele>1342.0</ele>
      </trkpt>
      <trkpt lat="44.78961456567049" lon="6.519329538568854">
        <time>2022-01-25T07:24:03+00:00</time>
        <ele>1342.0</ele>
      </trkpt>
      <trkpt lat="44.789589336141944" lon="6.519326521083713">
        <time>2022-01-25T07:24:05+00:00</time>
        <ele>1343.0</ele>
      </trkpt>
      <trkpt lat="44.78956804610789" lon="6.519327610731125">
        <time>2022-01-25T07:24:07+00:00</time>
        <ele>1343.0</ele>
      </trkpt>
      <trkpt lat="44.78956167586148" lon="6.51932735927403">
        <time>2022-01-25T07:24:08+00:00</time>
        <ele>1343.0</ele>
      </trkpt>
      <trkpt lat="44.78956360369921" lon="6.519292406737804">
        <time>2022-01-25T07:24:14+00:00</time>
        <ele>1345.0</ele>
      </trkpt>
      <trkpt lat="44.78957215324044" lon="6.519267512485385">
        <time>2022-01-25T07:24:16+00:00</time>
        <ele>1346.0</ele>
      </trkpt>
      <trkpt lat="44.789581540971994" lon="6.519248150289059">
        <time>2022-01-25T07:24:20+00:00</time>
        <ele>1346.0</ele>
      </trkpt>
      <trkpt lat="44.789559580385685" lon="6.519246557727456">
        <time>2022-01-25T07:24:26+00:00</time>
        <ele>1347.0</ele>
      </trkpt>
      <trkpt lat="44.789546336978674" lon="6.519256280735135">
        <time>2022-01-25T07:24:31+00:00</time>
        <ele>1347.0</ele>
      </trkpt>
      <trkpt lat="44.789528315886855" lon="6.519249994307756">
        <time>2022-01-25T07:24:33+00:00</time>
        <ele>1347.0</ele>
      </trkpt>
      <trkpt lat="44.78951037861407" lon="6.519245384261012">
        <time>2022-01-25T07:24:36+00:00</time>
        <ele>1348.0</ele>
      </trkpt>
      <trkpt lat="44.78948900476098" lon="6.519242115318775">
        <time>2022-01-25T07:24:38+00:00</time>
        <ele>1348.0</ele>
      </trkpt>
      <trkpt lat="44.78947718627751" lon="6.519241696223617">
        <time>2022-01-25T07:24:40+00:00</time>
        <ele>1349.0</ele>
      </trkpt>
      <trkpt lat="44.789468720555305" lon="6.519242869690061">
        <time>2022-01-25T07:24:42+00:00</time>
        <ele>1349.0</ele>
      </trkpt>
      <trkpt lat="44.78946536779404" lon="6.519236583262682">
        <time>2022-01-25T07:24:43+00:00</time>
        <ele>1349.0</ele>
      </trkpt>
      <trkpt lat="44.78946511633694" lon="6.519192745909095">
        <time>2022-01-25T07:24:47+00:00</time>
        <ele>1351.0</ele>
      </trkpt>
      <trkpt lat="44.789455980062485" lon="6.519171288236976">
        <time>2022-01-25T07:24:49+00:00</time>
        <ele>1352.0</ele>
      </trkpt>
      <trkpt lat="44.78945371694863" lon="6.519159050658345">
        <time>2022-01-25T07:24:52+00:00</time>
        <ele>1353.0</ele>
      </trkpt>
      <trkpt lat="44.78946905583143" lon="6.519146645441651">
        <time>2022-01-25T07:24:57+00:00</time>
        <ele>1353.0</ele>
      </trkpt>
      <trkpt lat="44.78948858566582" lon="6.51911336928606">
        <time>2022-01-25T07:25:02+00:00</time>
        <ele>1354.0</ele>
      </trkpt>
      <trkpt lat="44.7894914355129" lon="6.519107837229967">
        <time>2022-01-25T07:25:03+00:00</time>
        <ele>1354.0</ele>
      </trkpt>
      <trkpt lat="44.789509708061814" lon="6.519095599651337">
        <time>2022-01-25T07:25:07+00:00</time>
        <ele>1354.0</ele>
      </trkpt>
      <trkpt lat="44.78951884433627" lon="6.519078249111772">
        <time>2022-01-25T07:25:09+00:00</time>
        <ele>1355.0</ele>
      </trkpt>
      <trkpt lat="44.7895278967917" lon="6.519052851945162">
        <time>2022-01-25T07:25:13+00:00</time>
        <ele>1356.0</ele>
      </trkpt>
      <trkpt lat="44.78954533115029" lon="6.519015468657017">
        <time>2022-01-25T07:25:18+00:00</time>
        <ele>1358.0</ele>
      </trkpt>
      <trkpt lat="44.78958246298134" lon="6.518981354311109">
        <time>2022-01-25T07:25:23+00:00</time>
        <ele>1359.0</ele>
      </trkpt>
      <trkpt lat="44.78957726620138" lon="6.518951095640659">
        <time>2022-01-25T07:25:26+00:00</time>
        <ele>1361.0</ele>
      </trkpt>
      <trkpt lat="44.789589419960976" lon="6.5189438033849">
        <time>2022-01-25T07:25:27+00:00</time>
        <ele>1361.0</ele>
      </trkpt>
      <trkpt lat="44.78962671943009" lon="6.518926033750176">
        <time>2022-01-25T07:25:31+00:00</time>
        <ele>1361.0</ele>
      </trkpt>
      <trkpt lat="44.789644572883844" lon="6.518919495865703">
        <time>2022-01-25T07:25:32+00:00</time>
        <ele>1360.0</ele>
      </trkpt>
      <trkpt lat="44.789666533470154" lon="6.518911616876721">
        <time>2022-01-25T07:25:34+00:00</time>
        <ele>1360.0</ele>
      </trkpt>
      <trkpt lat="44.7896761726588" lon="6.518904576078057">
        <time>2022-01-25T07:25:35+00:00</time>
        <ele>1359.0</ele>
      </trkpt>
      <trkpt lat="44.78968690149486" lon="6.51889787055552">
        <time>2022-01-25T07:25:36+00:00</time>
        <ele>1359.0</ele>
      </trkpt>
      <trkpt lat="44.78969855234027" lon="6.518895775079727">
        <time>2022-01-25T07:25:37+00:00</time>
        <ele>1359.0</ele>
      </trkpt>
      <trkpt lat="44.78971682488918" lon="6.518881693482399">
        <time>2022-01-25T07:25:41+00:00</time>
        <ele>1359.0</ele>
      </trkpt>
      <trkpt lat="44.78971288539469" lon="6.518858140334487">
        <time>2022-01-25T07:25:50+00:00</time>
        <ele>1360.0</ele>
      </trkpt>
      <trkpt lat="44.789741802960634" lon="6.518843639642">
        <time>2022-01-25T07:25:56+00:00</time>
        <ele>1359.0</ele>
      </trkpt>
      <trkpt lat="44.78976619429886" lon="6.518826875835657">
        <time>2022-01-25T07:26:00+00:00</time>
        <ele>1359.0</ele>
      </trkpt>
      <trkpt lat="44.789772648364305" lon="6.5188235230743885">
        <time>2022-01-25T07:26:01+00:00</time>
        <ele>1359.0</ele>
      </trkpt>
      <trkpt lat="44.78977231308818" lon="6.518815057352185">
        <time>2022-01-25T07:26:02+00:00</time>
        <ele>1359.0</ele>
      </trkpt>
      <trkpt lat="44.78976929560304" lon="6.518816985189915">
        <time>2022-01-25T07:26:05+00:00</time>
        <ele>1360.0</ele>
      </trkpt>
      <trkpt lat="44.789785305038095" lon="6.51882260106504">
        <time>2022-01-25T07:26:08+00:00</time>
        <ele>1358.0</ele>
      </trkpt>
      <trkpt lat="44.78977340273559" lon="6.518816649913788">
        <time>2022-01-25T07:26:10+00:00</time>
        <ele>1359.0</ele>
      </trkpt>
      <trkpt lat="44.78975588455796" lon="6.518812794238329">
        <time>2022-01-25T07:26:12+00:00</time>
        <ele>1360.0</ele>
      </trkpt>
      <trkpt lat="44.789732582867146" lon="6.51880550198257">
        <time>2022-01-25T07:26:14+00:00</time>
        <ele>1362.0</ele>
      </trkpt>
      <trkpt lat="44.7897142264992" lon="6.518792845308781">
        <time>2022-01-25T07:26:16+00:00</time>
        <ele>1364.0</ele>
      </trkpt>
      <trkpt lat="44.789704252034426" lon="6.518792510032654">
        <time>2022-01-25T07:26:17+00:00</time>
        <ele>1364.0</ele>
      </trkpt>
      <trkpt lat="44.789683632552624" lon="6.5188005566596985">
        <time>2022-01-25T07:26:19+00:00</time>
        <ele>1365.0</ele>
      </trkpt>
      <trkpt lat="44.78966879658401" lon="6.518826205283403">
        <time>2022-01-25T07:26:24+00:00</time>
        <ele>1364.0</ele>
      </trkpt>
      <trkpt lat="44.78967173025012" lon="6.5188303124159575">
        <time>2022-01-25T07:26:25+00:00</time>
        <ele>1363.0</ele>
      </trkpt>
      <trkpt lat="44.78967449627817" lon="6.518849171698093">
        <time>2022-01-25T07:26:28+00:00</time>
        <ele>1362.0</ele>
      </trkpt>
      <trkpt lat="44.789642225950956" lon="6.518860151991248">
        <time>2022-01-25T07:26:32+00:00</time>
        <ele>1363.0</ele>
      </trkpt>
      <trkpt lat="44.78962420485914" lon="6.518864594399929">
        <time>2022-01-25T07:26:35+00:00</time>
        <ele>1364.0</ele>
      </trkpt>
      <trkpt lat="44.78960568085313" lon="6.518836095929146">
        <time>2022-01-25T07:26:39+00:00</time>
        <ele>1366.0</ele>
      </trkpt>
      <trkpt lat="44.78960249572992" lon="6.518827378749847">
        <time>2022-01-25T07:26:40+00:00</time>
        <ele>1367.0</ele>
      </trkpt>
      <trkpt lat="44.78960635140538" lon="6.518812878057361">
        <time>2022-01-25T07:26:41+00:00</time>
        <ele>1367.0</ele>
      </trkpt>
      <trkpt lat="44.78961464948952" lon="6.51880357414484">
        <time>2022-01-25T07:26:42+00:00</time>
        <ele>1368.0</ele>
      </trkpt>
      <trkpt lat="44.789622612297535" lon="6.518792510032654">
        <time>2022-01-25T07:26:44+00:00</time>
        <ele>1368.0</ele>
      </trkpt>
      <trkpt lat="44.78962529450655" lon="6.5187884867191315">
        <time>2022-01-25T07:26:45+00:00</time>
        <ele>1368.0</ele>
      </trkpt>
      <trkpt lat="44.7896312456578" lon="6.518775746226311">
        <time>2022-01-25T07:26:50+00:00</time>
        <ele>1369.0</ele>
      </trkpt>
      <trkpt lat="44.78963736444712" lon="6.518770884722471">
        <time>2022-01-25T07:26:54+00:00</time>
        <ele>1369.0</ele>
      </trkpt>
      <trkpt lat="44.789639711380005" lon="6.518762754276395">
        <time>2022-01-25T07:26:56+00:00</time>
        <ele>1369.0</ele>
      </trkpt>
      <trkpt lat="44.78966829366982" lon="6.518744565546513">
        <time>2022-01-25T07:27:00+00:00</time>
        <ele>1369.0</ele>
      </trkpt>
      <trkpt lat="44.78966678492725" lon="6.518734255805612">
        <time>2022-01-25T07:27:04+00:00</time>
        <ele>1369.0</ele>
      </trkpt>
      <trkpt lat="44.78965069167316" lon="6.518720090389252">
        <time>2022-01-25T07:27:06+00:00</time>
        <ele>1371.0</ele>
      </trkpt>
      <trkpt lat="44.78965748101473" lon="6.518715983256698">
        <time>2022-01-25T07:27:08+00:00</time>
        <ele>1371.0</ele>
      </trkpt>
      <trkpt lat="44.789664186537266" lon="6.51871707290411">
        <time>2022-01-25T07:27:10+00:00</time>
        <ele>1371.0</ele>
      </trkpt>
      <trkpt lat="44.78965798392892" lon="6.518697207793593">
        <time>2022-01-25T07:27:16+00:00</time>
        <ele>1372.0</ele>
      </trkpt>
      <trkpt lat="44.789657732471824" lon="6.518700812011957">
        <time>2022-01-25T07:27:27+00:00</time>
        <ele>1372.0</ele>
      </trkpt>
      <trkpt lat="44.7896589897573" lon="6.518700812011957">
        <time>2022-01-25T07:27:30+00:00</time>
        <ele>1372.0</ele>
      </trkpt>
      <trkpt lat="44.789664102718234" lon="6.518702069297433">
        <time>2022-01-25T07:27:33+00:00</time>
        <ele>1372.0</ele>
      </trkpt>
      <trkpt lat="44.78967122733593" lon="6.518702823668718">
        <time>2022-01-25T07:27:36+00:00</time>
        <ele>1371.0</ele>
      </trkpt>
      <trkpt lat="44.78967122733593" lon="6.518700979650021">
        <time>2022-01-25T07:27:37+00:00</time>
        <ele>1371.0</ele>
      </trkpt>
      <trkpt lat="44.78972755372524" lon="6.518728556111455">
        <time>2022-01-25T07:27:44+00:00</time>
        <ele>1366.0</ele>
      </trkpt>
      <trkpt lat="44.78973912075162" lon="6.518734423443675">
        <time>2022-01-25T07:27:49+00:00</time>
        <ele>1366.0</ele>
      </trkpt>
      <trkpt lat="44.789727637544274" lon="6.518744062632322">
        <time>2022-01-25T07:27:54+00:00</time>
        <ele>1366.0</ele>
      </trkpt>
      <trkpt lat="44.789721351116896" lon="6.5187404584139585">
        <time>2022-01-25T07:27:59+00:00</time>
        <ele>1366.0</ele>
      </trkpt>
      <trkpt lat="44.78972931392491" lon="6.518731657415628">
        <time>2022-01-25T07:28:06+00:00</time>
        <ele>1366.0</ele>
      </trkpt>
      <trkpt lat="44.789687655866146" lon="6.518711289390922">
        <time>2022-01-25T07:28:13+00:00</time>
        <ele>1370.0</ele>
      </trkpt>
      <trkpt lat="44.78964876383543" lon="6.518710451200604">
        <time>2022-01-25T07:28:18+00:00</time>
        <ele>1372.0</ele>
      </trkpt>
      <trkpt lat="44.78964197449386" lon="6.518700057640672">
        <time>2022-01-25T07:28:19+00:00</time>
        <ele>1373.0</ele>
      </trkpt>
      <trkpt lat="44.789644153788686" lon="6.518637947738171">
        <time>2022-01-25T07:28:24+00:00</time>
        <ele>1377.0</ele>
      </trkpt>
      <trkpt lat="44.789650440216064" lon="6.518622441217303">
        <time>2022-01-25T07:28:26+00:00</time>
        <ele>1377.0</ele>
      </trkpt>
      <trkpt lat="44.78967650793493" lon="6.518588243052363">
        <time>2022-01-25T07:28:31+00:00</time>
        <ele>1378.0</ele>
      </trkpt>
      <trkpt lat="44.78968053124845" lon="6.518539125099778">
        <time>2022-01-25T07:28:36+00:00</time>
        <ele>1380.0</ele>
      </trkpt>
      <trkpt lat="44.78967223316431" lon="6.518549853935838">
        <time>2022-01-25T07:28:38+00:00</time>
        <ele>1380.0</ele>
      </trkpt>
      <trkpt lat="44.78964281268418" lon="6.5185814537107944">
        <time>2022-01-25T07:28:42+00:00</time>
        <ele>1380.0</ele>
      </trkpt>
      <trkpt lat="44.78964323177934" lon="6.518570724874735">
        <time>2022-01-25T07:28:43+00:00</time>
        <ele>1381.0</ele>
      </trkpt>
      <trkpt lat="44.789644656702876" lon="6.518559912219644">
        <time>2022-01-25T07:28:44+00:00</time>
        <ele>1381.0</ele>
      </trkpt>
      <trkpt lat="44.789655553177" lon="6.518540382385254">
        <time>2022-01-25T07:28:46+00:00</time>
        <ele>1382.0</ele>
      </trkpt>
      <trkpt lat="44.789663599804044" lon="6.51853040792048">
        <time>2022-01-25T07:28:48+00:00</time>
        <ele>1382.0</ele>
      </trkpt>
      <trkpt lat="44.78967566974461" lon="6.518527222797275">
        <time>2022-01-25T07:28:49+00:00</time>
        <ele>1381.0</ele>
      </trkpt>
      <trkpt lat="44.78968899697065" lon="6.5184913482517">
        <time>2022-01-25T07:28:54+00:00</time>
        <ele>1382.0</ele>
      </trkpt>
      <trkpt lat="44.78968740440905" lon="6.518444325774908">
        <time>2022-01-25T07:28:58+00:00</time>
        <ele>1385.0</ele>
      </trkpt>
      <trkpt lat="44.78968061506748" lon="6.518424125388265">
        <time>2022-01-25T07:29:00+00:00</time>
        <ele>1387.0</ele>
      </trkpt>
      <trkpt lat="44.789686566218734" lon="6.518418677151203">
        <time>2022-01-25T07:29:01+00:00</time>
        <ele>1386.0</ele>
      </trkpt>
      <trkpt lat="44.78969402611256" lon="6.518371319398284">
        <time>2022-01-25T07:29:06+00:00</time>
        <ele>1389.0</ele>
      </trkpt>
      <trkpt lat="44.7896967921406" lon="6.518376851454377">
        <time>2022-01-25T07:29:09+00:00</time>
        <ele>1388.0</ele>
      </trkpt>
      <trkpt lat="44.78968254290521" lon="6.518385065719485">
        <time>2022-01-25T07:29:12+00:00</time>
        <ele>1389.0</ele>
      </trkpt>
      <trkpt lat="44.78969763033092" lon="6.518423119559884">
        <time>2022-01-25T07:29:21+00:00</time>
        <ele>1386.0</ele>
      </trkpt>
      <trkpt lat="44.78969871997833" lon="6.518433848395944">
        <time>2022-01-25T07:29:28+00:00</time>
        <ele>1385.0</ele>
      </trkpt>
      <trkpt lat="44.789694864302874" lon="6.518436446785927">
        <time>2022-01-25T07:29:29+00:00</time>
        <ele>1385.0</ele>
      </trkpt>
      <trkpt lat="44.78965806774795" lon="6.518412893638015">
        <time>2022-01-25T07:29:35+00:00</time>
        <ele>1389.0</ele>
      </trkpt>
      <trkpt lat="44.78964968584478" lon="6.518414989113808">
        <time>2022-01-25T07:29:36+00:00</time>
        <ele>1389.0</ele>
      </trkpt>
      <trkpt lat="44.78963200002909" lon="6.518418593332171">
        <time>2022-01-25T07:29:38+00:00</time>
        <ele>1390.0</ele>
      </trkpt>
      <trkpt lat="44.78962973691523" lon="6.518416665494442">
        <time>2022-01-25T07:29:41+00:00</time>
        <ele>1390.0</ele>
      </trkpt>
      <trkpt lat="44.78961490094662" lon="6.518429573625326">
        <time>2022-01-25T07:29:44+00:00</time>
        <ele>1390.0</ele>
      </trkpt>
      <trkpt lat="44.78960584849119" lon="6.518441056832671">
        <time>2022-01-25T07:29:47+00:00</time>
        <ele>1390.0</ele>
      </trkpt>
      <trkpt lat="44.78959755040705" lon="6.518442397937179">
        <time>2022-01-25T07:29:49+00:00</time>
        <ele>1390.0</ele>
      </trkpt>
      <trkpt lat="44.789564441889524" lon="6.518442062661052">
        <time>2022-01-25T07:29:53+00:00</time>
        <ele>1392.0</ele>
      </trkpt>
      <trkpt lat="44.789576176553965" lon="6.518413983285427">
        <time>2022-01-25T07:29:57+00:00</time>
        <ele>1393.0</ele>
      </trkpt>
      <trkpt lat="44.78958003222942" lon="6.5184100437909365">
        <time>2022-01-25T07:29:58+00:00</time>
        <ele>1393.0</ele>
      </trkpt>
      <trkpt lat="44.78958615101874" lon="6.51839311234653">
        <time>2022-01-25T07:30:00+00:00</time>
        <ele>1394.0</ele>
      </trkpt>
      <trkpt lat="44.78958715684712" lon="6.51836964301765">
        <time>2022-01-25T07:30:03+00:00</time>
        <ele>1395.0</ele>
      </trkpt>
      <trkpt lat="44.78960283100605" lon="6.518337037414312">
        <time>2022-01-25T07:30:07+00:00</time>
        <ele>1396.0</ele>
      </trkpt>
      <trkpt lat="44.78961297310889" lon="6.518327901139855">
        <time>2022-01-25T07:30:08+00:00</time>
        <ele>1396.0</ele>
      </trkpt>
      <trkpt lat="44.78962579742074" lon="6.518301498144865">
        <time>2022-01-25T07:30:11+00:00</time>
        <ele>1397.0</ele>
      </trkpt>
      <trkpt lat="44.78963568806648" lon="6.51827777735889">
        <time>2022-01-25T07:30:14+00:00</time>
        <ele>1397.0</ele>
      </trkpt>
      <trkpt lat="44.78963409550488" lon="6.518270568922162">
        <time>2022-01-25T07:30:15+00:00</time>
        <ele>1397.0</ele>
      </trkpt>
      <trkpt lat="44.78963417932391" lon="6.518262354657054">
        <time>2022-01-25T07:30:16+00:00</time>
        <ele>1398.0</ele>
      </trkpt>
      <trkpt lat="44.789635771885514" lon="6.518254308030009">
        <time>2022-01-25T07:30:17+00:00</time>
        <ele>1398.0</ele>
      </trkpt>
      <trkpt lat="44.78963937610388" lon="6.5182477701455355">
        <time>2022-01-25T07:30:18+00:00</time>
        <ele>1398.0</ele>
      </trkpt>
      <trkpt lat="44.78964784182608" lon="6.51822941377759">
        <time>2022-01-25T07:30:21+00:00</time>
        <ele>1398.0</ele>
      </trkpt>
      <trkpt lat="44.789650524035096" lon="6.518220528960228">
        <time>2022-01-25T07:30:22+00:00</time>
        <ele>1398.0</ele>
      </trkpt>
      <trkpt lat="44.78965404443443" lon="6.518214410170913">
        <time>2022-01-25T07:30:23+00:00</time>
        <ele>1398.0</ele>
      </trkpt>
      <trkpt lat="44.7897176630795" lon="6.518144253641367">
        <time>2022-01-25T07:30:30+00:00</time>
        <ele>1396.0</ele>
      </trkpt>
      <trkpt lat="44.78974850848317" lon="6.518121538683772">
        <time>2022-01-25T07:30:33+00:00</time>
        <ele>1395.0</ele>
      </trkpt>
      <trkpt lat="44.78975420817733" lon="6.518073175102472">
        <time>2022-01-25T07:30:38+00:00</time>
        <ele>1396.0</ele>
      </trkpt>
      <trkpt lat="44.78980081155896" lon="6.518029002472758">
        <time>2022-01-25T07:30:45+00:00</time>
        <ele>1395.0</ele>
      </trkpt>
      <trkpt lat="44.78980718180537" lon="6.518023554235697">
        <time>2022-01-25T07:30:46+00:00</time>
        <ele>1395.0</ele>
      </trkpt>
      <trkpt lat="44.78982947766781" lon="6.517976280301809">
        <time>2022-01-25T07:30:53+00:00</time>
        <ele>1395.0</ele>
      </trkpt>
      <trkpt lat="44.789827382192016" lon="6.517961109057069">
        <time>2022-01-25T07:30:54+00:00</time>
        <ele>1395.0</ele>
      </trkpt>
      <trkpt lat="44.78982721455395" lon="6.517878798767924">
        <time>2022-01-25T07:31:02+00:00</time>
        <ele>1398.0</ele>
      </trkpt>
      <trkpt lat="44.78982168249786" lon="6.517871422693133">
        <time>2022-01-25T07:31:03+00:00</time>
        <ele>1398.0</ele>
      </trkpt>
      <trkpt lat="44.78982411324978" lon="6.51787469163537">
        <time>2022-01-25T07:31:08+00:00</time>
        <ele>1398.0</ele>
      </trkpt>
      <trkpt lat="44.78982277214527" lon="6.517878714948893">
        <time>2022-01-25T07:31:09+00:00</time>
        <ele>1398.0</ele>
      </trkpt>
      <trkpt lat="44.78979444131255" lon="6.517912577837706">
        <time>2022-01-25T07:31:15+00:00</time>
        <ele>1399.0</ele>
      </trkpt>
      <trkpt lat="44.789767703041434" lon="6.517914589494467">
        <time>2022-01-25T07:31:19+00:00</time>
        <ele>1400.0</ele>
      </trkpt>
      <trkpt lat="44.78976166807115" lon="6.51791081763804">
        <time>2022-01-25T07:31:20+00:00</time>
        <ele>1401.0</ele>
      </trkpt>
      <trkpt lat="44.78974448516965" lon="6.517903441563249">
        <time>2022-01-25T07:31:22+00:00</time>
        <ele>1402.0</ele>
      </trkpt>
      <trkpt lat="44.789728140458465" lon="6.517890701070428">
        <time>2022-01-25T07:31:27+00:00</time>
        <ele>1403.0</ele>
      </trkpt>
      <trkpt lat="44.78972160257399" lon="6.51788785122335">
        <time>2022-01-25T07:31:28+00:00</time>
        <ele>1404.0</ele>
      </trkpt>
      <trkpt lat="44.78970064781606" lon="6.5179008431732655">
        <time>2022-01-25T07:31:33+00:00</time>
        <ele>1404.0</ele>
      </trkpt>
      <trkpt lat="44.789686147123575" lon="6.517904531210661">
        <time>2022-01-25T07:31:34+00:00</time>
        <ele>1405.0</ele>
      </trkpt>
      <trkpt lat="44.78965806774795" lon="6.517915092408657">
        <time>2022-01-25T07:31:39+00:00</time>
        <ele>1406.0</ele>
      </trkpt>
      <trkpt lat="44.78962470777333" lon="6.517923725768924">
        <time>2022-01-25T07:31:42+00:00</time>
        <ele>1408.0</ele>
      </trkpt>
      <trkpt lat="44.78955899365246" lon="6.5179461892694235">
        <time>2022-01-25T07:31:50+00:00</time>
        <ele>1410.0</ele>
      </trkpt>
      <trkpt lat="44.78955069556832" lon="6.517950631678104">
        <time>2022-01-25T07:31:51+00:00</time>
        <ele>1411.0</ele>
      </trkpt>
      <trkpt lat="44.789509708061814" lon="6.517957337200642">
        <time>2022-01-25T07:31:58+00:00</time>
        <ele>1412.0</ele>
      </trkpt>
      <trkpt lat="44.789482802152634" lon="6.517964126542211">
        <time>2022-01-25T07:32:03+00:00</time>
        <ele>1414.0</ele>
      </trkpt>
      <trkpt lat="44.78947224095464" lon="6.517968652769923">
        <time>2022-01-25T07:32:05+00:00</time>
        <ele>1414.0</ele>
      </trkpt>
      <trkpt lat="44.789471654221416" lon="6.517996648326516">
        <time>2022-01-25T07:32:11+00:00</time>
        <ele>1413.0</ele>
      </trkpt>
      <trkpt lat="44.78945807553828" lon="6.518012406304479">
        <time>2022-01-25T07:32:13+00:00</time>
        <ele>1414.0</ele>
      </trkpt>
      <trkpt lat="44.789430582895875" lon="6.517986338585615">
        <time>2022-01-25T07:32:17+00:00</time>
        <ele>1415.0</ele>
      </trkpt>
      <trkpt lat="44.78942940942943" lon="6.517977872863412">
        <time>2022-01-25T07:32:18+00:00</time>
        <ele>1416.0</ele>
      </trkpt>
      <trkpt lat="44.789427146315575" lon="6.5179158467799425">
        <time>2022-01-25T07:32:24+00:00</time>
        <ele>1417.0</ele>
      </trkpt>
      <trkpt lat="44.78942781686783" lon="6.517904279753566">
        <time>2022-01-25T07:32:25+00:00</time>
        <ele>1418.0</ele>
      </trkpt>
      <trkpt lat="44.78943360038102" lon="6.517848875373602">
        <time>2022-01-25T07:32:31+00:00</time>
        <ele>1419.0</ele>
      </trkpt>
      <trkpt lat="44.789432091638446" lon="6.517841499298811">
        <time>2022-01-25T07:32:32+00:00</time>
        <ele>1419.0</ele>
      </trkpt>
      <trkpt lat="44.789428655058146" lon="6.5177995059639215">
        <time>2022-01-25T07:32:36+00:00</time>
        <ele>1420.0</ele>
      </trkpt>
      <trkpt lat="44.78943628259003" lon="6.517793806269765">
        <time>2022-01-25T07:32:37+00:00</time>
        <ele>1420.0</ele>
      </trkpt>
      <trkpt lat="44.78944902308285" lon="6.517776036635041">
        <time>2022-01-25T07:32:39+00:00</time>
        <ele>1420.0</ele>
      </trkpt>
      <trkpt lat="44.78948213160038" lon="6.517715351656079">
        <time>2022-01-25T07:32:45+00:00</time>
        <ele>1420.0</ele>
      </trkpt>
      <trkpt lat="44.78948548436165" lon="6.517701270058751">
        <time>2022-01-25T07:32:46+00:00</time>
        <ele>1420.0</ele>
      </trkpt>
      <trkpt lat="44.78950325399637" lon="6.517655840143561">
        <time>2022-01-25T07:32:52+00:00</time>
        <ele>1420.0</ele>
      </trkpt>
      <trkpt lat="44.78950593620539" lon="6.517582833766937">
        <time>2022-01-25T07:32:59+00:00</time>
        <ele>1422.0</ele>
      </trkpt>
      <trkpt lat="44.789506271481514" lon="6.517488034442067">
        <time>2022-01-25T07:33:08+00:00</time>
        <ele>1424.0</ele>
      </trkpt>
      <trkpt lat="44.78948741219938" lon="6.51742366142571">
        <time>2022-01-25T07:33:15+00:00</time>
        <ele>1426.0</ele>
      </trkpt>
      <trkpt lat="44.78948154486716" lon="6.517396839335561">
        <time>2022-01-25T07:33:19+00:00</time>
        <ele>1426.0</ele>
      </trkpt>
      <trkpt lat="44.7894671279937" lon="6.517367418855429">
        <time>2022-01-25T07:33:22+00:00</time>
        <ele>1428.0</ele>
      </trkpt>
      <trkpt lat="44.789458913728595" lon="6.51733523234725">
        <time>2022-01-25T07:33:25+00:00</time>
        <ele>1428.0</ele>
      </trkpt>
      <trkpt lat="44.78945623151958" lon="6.517292065545917">
        <time>2022-01-25T07:33:31+00:00</time>
        <ele>1429.0</ele>
      </trkpt>
      <trkpt lat="44.789450196549296" lon="6.517275050282478">
        <time>2022-01-25T07:33:33+00:00</time>
        <ele>1430.0</ele>
      </trkpt>
      <trkpt lat="44.789459835737944" lon="6.517245294526219">
        <time>2022-01-25T07:33:37+00:00</time>
        <ele>1430.0</ele>
      </trkpt>
      <trkpt lat="44.78944315575063" lon="6.517206486314535">
        <time>2022-01-25T07:33:41+00:00</time>
        <ele>1431.0</ele>
      </trkpt>
      <trkpt lat="44.78943318128586" lon="6.517200954258442">
        <time>2022-01-25T07:33:42+00:00</time>
        <ele>1432.0</ele>
      </trkpt>
      <trkpt lat="44.78941633366048" lon="6.517162397503853">
        <time>2022-01-25T07:33:47+00:00</time>
        <ele>1433.0</ele>
      </trkpt>
      <trkpt lat="44.789402252063155" lon="6.5171577874571085">
        <time>2022-01-25T07:33:48+00:00</time>
        <ele>1434.0</ele>
      </trkpt>
      <trkpt lat="44.789389511570334" lon="6.517122080549598">
        <time>2022-01-25T07:33:55+00:00</time>
        <ele>1435.0</ele>
      </trkpt>
      <trkpt lat="44.78939328342676" lon="6.517110094428062">
        <time>2022-01-25T07:33:57+00:00</time>
        <ele>1435.0</ele>
      </trkpt>
      <trkpt lat="44.789405604824424" lon="6.517065418884158">
        <time>2022-01-25T07:34:01+00:00</time>
        <ele>1435.0</ele>
      </trkpt>
      <trkpt lat="44.78942513465881" lon="6.5170046500861645">
        <time>2022-01-25T07:34:05+00:00</time>
        <ele>1435.0</ele>
      </trkpt>
      <trkpt lat="44.789434019476175" lon="6.516970871016383">
        <time>2022-01-25T07:34:07+00:00</time>
        <ele>1435.0</ele>
      </trkpt>
      <trkpt lat="44.78941138833761" lon="6.516955364495516">
        <time>2022-01-25T07:34:11+00:00</time>
        <ele>1436.0</ele>
      </trkpt>
      <trkpt lat="44.78940476663411" lon="6.516941534355283">
        <time>2022-01-25T07:34:14+00:00</time>
        <ele>1437.0</ele>
      </trkpt>
      <trkpt lat="44.78939034976065" lon="6.516930805519223">
        <time>2022-01-25T07:34:17+00:00</time>
        <ele>1437.0</ele>
      </trkpt>
      <trkpt lat="44.789368556812406" lon="6.516906665638089">
        <time>2022-01-25T07:34:20+00:00</time>
        <ele>1439.0</ele>
      </trkpt>
      <trkpt lat="44.789358330890536" lon="6.516882441937923">
        <time>2022-01-25T07:34:24+00:00</time>
        <ele>1439.0</ele>
      </trkpt>
      <trkpt lat="44.78935221210122" lon="6.516868192702532">
        <time>2022-01-25T07:34:26+00:00</time>
        <ele>1440.0</ele>
      </trkpt>
      <trkpt lat="44.789354810491204" lon="6.516840113326907">
        <time>2022-01-25T07:34:30+00:00</time>
        <ele>1440.0</ele>
      </trkpt>
      <trkpt lat="44.78933595120907" lon="6.516820918768644">
        <time>2022-01-25T07:34:32+00:00</time>
        <ele>1441.0</ele>
      </trkpt>
      <trkpt lat="44.789327904582024" lon="6.516811111941934">
        <time>2022-01-25T07:34:33+00:00</time>
        <ele>1442.0</ele>
      </trkpt>
      <trkpt lat="44.78932622820139" lon="6.516797784715891">
        <time>2022-01-25T07:34:34+00:00</time>
        <ele>1442.0</ele>
      </trkpt>
      <trkpt lat="44.78932958096266" lon="6.516785295680165">
        <time>2022-01-25T07:34:35+00:00</time>
        <ele>1442.0</ele>
      </trkpt>
      <trkpt lat="44.78933108970523" lon="6.516773561015725">
        <time>2022-01-25T07:34:36+00:00</time>
        <ele>1442.0</ele>
      </trkpt>
      <trkpt lat="44.7893344424665" lon="6.516764340922236">
        <time>2022-01-25T07:34:37+00:00</time>
        <ele>1442.0</ele>
      </trkpt>
      <trkpt lat="44.78934642858803" lon="6.5167472418397665">
        <time>2022-01-25T07:34:39+00:00</time>
        <ele>1442.0</ele>
      </trkpt>
      <trkpt lat="44.789365539327264" lon="6.516701811924577">
        <time>2022-01-25T07:34:43+00:00</time>
        <ele>1441.0</ele>
      </trkpt>
      <trkpt lat="44.78938867338002" lon="6.51664774864912">
        <time>2022-01-25T07:34:48+00:00</time>
        <ele>1441.0</ele>
      </trkpt>
      <trkpt lat="44.78939177468419" lon="6.51661547832191">
        <time>2022-01-25T07:34:51+00:00</time>
        <ele>1441.0</ele>
      </trkpt>
      <trkpt lat="44.78941926732659" lon="6.516575999557972">
        <time>2022-01-25T07:34:54+00:00</time>
        <ele>1440.0</ele>
      </trkpt>
      <trkpt lat="44.789406107738614" lon="6.5165328327566385">
        <time>2022-01-25T07:34:59+00:00</time>
        <ele>1441.0</ele>
      </trkpt>
      <trkpt lat="44.789384650066495" lon="6.516499305143952">
        <time>2022-01-25T07:35:03+00:00</time>
        <ele>1443.0</ele>
      </trkpt>
      <trkpt lat="44.78936981409788" lon="6.516476757824421">
        <time>2022-01-25T07:35:05+00:00</time>
        <ele>1444.0</ele>
      </trkpt>
      <trkpt lat="44.78936403058469" lon="6.516442224383354">
        <time>2022-01-25T07:35:10+00:00</time>
        <ele>1444.0</ele>
      </trkpt>
      <trkpt lat="44.78935204446316" lon="6.516431076452136">
        <time>2022-01-25T07:35:13+00:00</time>
        <ele>1445.0</ele>
      </trkpt>
      <trkpt lat="44.78933008387685" lon="6.51641221717">
        <time>2022-01-25T07:35:16+00:00</time>
        <ele>1446.0</ele>
      </trkpt>
      <trkpt lat="44.789316756650805" lon="6.516376342624426">
        <time>2022-01-25T07:35:21+00:00</time>
        <ele>1447.0</ele>
      </trkpt>
      <trkpt lat="44.78930912911892" lon="6.516367960721254">
        <time>2022-01-25T07:35:22+00:00</time>
        <ele>1448.0</ele>
      </trkpt>
      <trkpt lat="44.78931491263211" lon="6.516298726201057">
        <time>2022-01-25T07:35:29+00:00</time>
        <ele>1449.0</ele>
      </trkpt>
      <trkpt lat="44.78931508027017" lon="6.51630618609488">
        <time>2022-01-25T07:35:35+00:00</time>
        <ele>1449.0</ele>
      </trkpt>
      <trkpt lat="44.78929831646383" lon="6.5163216926157475">
        <time>2022-01-25T07:35:41+00:00</time>
        <ele>1449.0</ele>
      </trkpt>
      <trkpt lat="44.789287419989705" lon="6.516330577433109">
        <time>2022-01-25T07:35:46+00:00</time>
        <ele>1449.0</ele>
      </trkpt>
      <trkpt lat="44.789287419989705" lon="6.516330577433109">
        <time>2022-01-25T07:35:48+00:00</time>
        <ele>1449.0</ele>
      </trkpt>
      <trkpt lat="44.78929026983678" lon="6.5163269732147455">
        <time>2022-01-25T07:35:54+00:00</time>
        <ele>1449.0</ele>
      </trkpt>
      <trkpt lat="44.789307871833444" lon="6.516326135024428">
        <time>2022-01-25T07:35:57+00:00</time>
        <ele>1449.0</ele>
      </trkpt>
      <trkpt lat="44.789308374747634" lon="6.516319429501891">
        <time>2022-01-25T07:35:59+00:00</time>
        <ele>1449.0</ele>
      </trkpt>
      <trkpt lat="44.78929848410189" lon="6.516267294064164">
        <time>2022-01-25T07:36:03+00:00</time>
        <ele>1450.0</ele>
      </trkpt>
      <trkpt lat="44.78929052129388" lon="6.516232173889875">
        <time>2022-01-25T07:36:05+00:00</time>
        <ele>1451.0</ele>
      </trkpt>
      <trkpt lat="44.78927384130657" lon="6.516174087300897">
        <time>2022-01-25T07:36:09+00:00</time>
        <ele>1452.0</ele>
      </trkpt>
      <trkpt lat="44.789273254573345" lon="6.516166040673852">
        <time>2022-01-25T07:36:10+00:00</time>
        <ele>1453.0</ele>
      </trkpt>
      <trkpt lat="44.78927040472627" lon="6.516153970733285">
        <time>2022-01-25T07:36:11+00:00</time>
        <ele>1453.0</ele>
      </trkpt>
      <trkpt lat="44.78925774805248" lon="6.516104768961668">
        <time>2022-01-25T07:36:15+00:00</time>
        <ele>1454.0</ele>
      </trkpt>
      <trkpt lat="44.789261016994715" lon="6.516078868880868">
        <time>2022-01-25T07:36:17+00:00</time>
        <ele>1454.0</ele>
      </trkpt>
      <trkpt lat="44.78924718685448" lon="6.515990188345313">
        <time>2022-01-25T07:36:22+00:00</time>
        <ele>1456.0</ele>
      </trkpt>
      <trkpt lat="44.78923964314163" lon="6.515974178910255">
        <time>2022-01-25T07:36:23+00:00</time>
        <ele>1457.0</ele>
      </trkpt>
      <trkpt lat="44.78921583853662" lon="6.515894886106253">
        <time>2022-01-25T07:36:29+00:00</time>
        <ele>1459.0</ele>
      </trkpt>
      <trkpt lat="44.78922036476433" lon="6.5158675611019135">
        <time>2022-01-25T07:36:31+00:00</time>
        <ele>1459.0</ele>
      </trkpt>
      <trkpt lat="44.78923645801842" lon="6.515854233875871">
        <time>2022-01-25T07:36:32+00:00</time>
        <ele>1459.0</ele>
      </trkpt>
      <trkpt lat="44.78926747106016" lon="6.515805618837476">
        <time>2022-01-25T07:36:35+00:00</time>
        <ele>1458.0</ele>
      </trkpt>
      <trkpt lat="44.789283480495214" lon="6.5157391503453255">
        <time>2022-01-25T07:36:39+00:00</time>
        <ele>1458.0</ele>
      </trkpt>
      <trkpt lat="44.789276188239455" lon="6.515733366832137">
        <time>2022-01-25T07:36:40+00:00</time>
        <ele>1458.0</ele>
      </trkpt>
      <trkpt lat="44.78927727788687" lon="6.515719369053841">
        <time>2022-01-25T07:36:42+00:00</time>
        <ele>1459.0</ele>
      </trkpt>
      <trkpt lat="44.78929630480707" lon="6.515688020735979">
        <time>2022-01-25T07:36:46+00:00</time>
        <ele>1458.0</ele>
      </trkpt>
      <trkpt lat="44.789298148825765" lon="6.515652062371373">
        <time>2022-01-25T07:36:49+00:00</time>
        <ele>1458.0</ele>
      </trkpt>
      <trkpt lat="44.78928440250456" lon="6.5156039502471685">
        <time>2022-01-25T07:36:52+00:00</time>
        <ele>1460.0</ele>
      </trkpt>
      <trkpt lat="44.78927786462009" lon="6.51558056473732">
        <time>2022-01-25T07:36:56+00:00</time>
        <ele>1460.0</ele>
      </trkpt>
      <trkpt lat="44.789267051965" lon="6.515559945255518">
        <time>2022-01-25T07:36:58+00:00</time>
        <ele>1460.0</ele>
      </trkpt>
      <trkpt lat="44.789219023659825" lon="6.515557682141662">
        <time>2022-01-25T07:37:03+00:00</time>
        <ele>1462.0</ele>
      </trkpt>
      <trkpt lat="44.78920066729188" lon="6.515525076538324">
        <time>2022-01-25T07:37:08+00:00</time>
        <ele>1463.0</ele>
      </trkpt>
      <trkpt lat="44.78920561261475" lon="6.515512838959694">
        <time>2022-01-25T07:37:09+00:00</time>
        <ele>1463.0</ele>
      </trkpt>
      <trkpt lat="44.789193123579025" lon="6.515473863109946">
        <time>2022-01-25T07:37:14+00:00</time>
        <ele>1464.0</ele>
      </trkpt>
      <trkpt lat="44.78919178247452" lon="6.51546330191195">
        <time>2022-01-25T07:37:15+00:00</time>
        <ele>1464.0</ele>
      </trkpt>
      <trkpt lat="44.78915221989155" lon="6.515407897531986">
        <time>2022-01-25T07:37:21+00:00</time>
        <ele>1466.0</ele>
      </trkpt>
      <trkpt lat="44.78911274112761" lon="6.515384428203106">
        <time>2022-01-25T07:37:26+00:00</time>
        <ele>1467.0</ele>
      </trkpt>
      <trkpt lat="44.789106119424105" lon="6.51538216508925">
        <time>2022-01-25T07:37:27+00:00</time>
        <ele>1468.0</ele>
      </trkpt>
      <trkpt lat="44.78910377249122" lon="6.515384595841169">
        <time>2022-01-25T07:37:28+00:00</time>
        <ele>1468.0</ele>
      </trkpt>
      <trkpt lat="44.78911726735532" lon="6.515370011329651">
        <time>2022-01-25T07:37:29+00:00</time>
        <ele>1467.0</ele>
      </trkpt>
      <trkpt lat="44.78912003338337" lon="6.51539146900177">
        <time>2022-01-25T07:37:32+00:00</time>
        <ele>1467.0</ele>
      </trkpt>
      <trkpt lat="44.7891219612211" lon="6.515397923067212">
        <time>2022-01-25T07:37:33+00:00</time>
        <ele>1467.0</ele>
      </trkpt>
      <trkpt lat="44.789098743349314" lon="6.515396414324641">
        <time>2022-01-25T07:37:36+00:00</time>
        <ele>1468.0</ele>
      </trkpt>
      <trkpt lat="44.78909622877836" lon="6.515399934723973">
        <time>2022-01-25T07:37:37+00:00</time>
        <ele>1468.0</ele>
      </trkpt>
      <trkpt lat="44.7890804708004" lon="6.515397587791085">
        <time>2022-01-25T07:37:39+00:00</time>
        <ele>1469.0</ele>
      </trkpt>
      <trkpt lat="44.78907418437302" lon="6.515394654124975">
        <time>2022-01-25T07:37:40+00:00</time>
        <ele>1469.0</ele>
      </trkpt>
      <trkpt lat="44.78906823322177" lon="6.515381410717964">
        <time>2022-01-25T07:37:42+00:00</time>
        <ele>1469.0</ele>
      </trkpt>
      <trkpt lat="44.78905415162444" lon="6.515359450131655">
        <time>2022-01-25T07:37:44+00:00</time>
        <ele>1470.0</ele>
      </trkpt>
      <trkpt lat="44.78905247524381" lon="6.51535676792264">
        <time>2022-01-25T07:37:45+00:00</time>
        <ele>1470.0</ele>
      </trkpt>
      <trkpt lat="44.78902875445783" lon="6.51532894000411">
        <time>2022-01-25T07:37:49+00:00</time>
        <ele>1471.0</ele>
      </trkpt>
      <trkpt lat="44.789023976773024" lon="6.515313349664211">
        <time>2022-01-25T07:37:52+00:00</time>
        <ele>1471.0</ele>
      </trkpt>
      <trkpt lat="44.78900536894798" lon="6.5152838453650475">
        <time>2022-01-25T07:37:55+00:00</time>
        <ele>1472.0</ele>
      </trkpt>
      <trkpt lat="44.78899053297937" lon="6.5152340568602085">
        <time>2022-01-25T07:37:59+00:00</time>
        <ele>1473.0</ele>
      </trkpt>
      <trkpt lat="44.78897586464882" lon="6.5152196399867535">
        <time>2022-01-25T07:38:00+00:00</time>
        <ele>1474.0</ele>
      </trkpt>
      <trkpt lat="44.78896949440241" lon="6.515210252255201">
        <time>2022-01-25T07:38:01+00:00</time>
        <ele>1474.0</ele>
      </trkpt>
      <trkpt lat="44.78897192515433" lon="6.515183430165052">
        <time>2022-01-25T07:38:03+00:00</time>
        <ele>1474.0</ele>
      </trkpt>
      <trkpt lat="44.788979133591056" lon="6.515170019119978">
        <time>2022-01-25T07:38:04+00:00</time>
        <ele>1474.0</ele>
      </trkpt>
      <trkpt lat="44.788974691182375" lon="6.51515694335103">
        <time>2022-01-25T07:38:05+00:00</time>
        <ele>1474.0</ele>
      </trkpt>
      <trkpt lat="44.78897586464882" lon="6.515146130695939">
        <time>2022-01-25T07:38:06+00:00</time>
        <ele>1474.0</ele>
      </trkpt>
      <trkpt lat="44.788984498009086" lon="6.515110926702619">
        <time>2022-01-25T07:38:09+00:00</time>
        <ele>1474.0</ele>
      </trkpt>
      <trkpt lat="44.788984414190054" lon="6.51510170660913">
        <time>2022-01-25T07:38:10+00:00</time>
        <ele>1474.0</ele>
      </trkpt>
      <trkpt lat="44.788979552686214" lon="6.515061808750033">
        <time>2022-01-25T07:38:14+00:00</time>
        <ele>1474.0</ele>
      </trkpt>
      <trkpt lat="44.788991371169686" lon="6.515009002760053">
        <time>2022-01-25T07:38:18+00:00</time>
        <ele>1474.0</ele>
      </trkpt>
      <trkpt lat="44.788972763344646" lon="6.514974217861891">
        <time>2022-01-25T07:38:22+00:00</time>
        <ele>1475.0</ele>
      </trkpt>
      <trkpt lat="44.78896186687052" lon="6.51495024561882">
        <time>2022-01-25T07:38:25+00:00</time>
        <ele>1476.0</ele>
      </trkpt>
      <trkpt lat="44.78896949440241" lon="6.514922669157386">
        <time>2022-01-25T07:38:28+00:00</time>
        <ele>1476.0</ele>
      </trkpt>
      <trkpt lat="44.788981480523944" lon="6.5148647502064705">
        <time>2022-01-25T07:38:32+00:00</time>
        <ele>1476.0</ele>
      </trkpt>
      <trkpt lat="44.78897628374398" lon="6.514828205108643">
        <time>2022-01-25T07:38:36+00:00</time>
        <ele>1476.0</ele>
      </trkpt>
      <trkpt lat="44.78896270506084" lon="6.514816805720329">
        <time>2022-01-25T07:38:38+00:00</time>
        <ele>1477.0</ele>
      </trkpt>
      <trkpt lat="44.78895247913897" lon="6.514749163761735">
        <time>2022-01-25T07:38:45+00:00</time>
        <ele>1478.0</ele>
      </trkpt>
      <trkpt lat="44.788955664262176" lon="6.514707254245877">
        <time>2022-01-25T07:38:52+00:00</time>
        <ele>1478.0</ele>
      </trkpt>
      <trkpt lat="44.78894258849323" lon="6.514681102707982">
        <time>2022-01-25T07:38:56+00:00</time>
        <ele>1479.0</ele>
      </trkpt>
      <trkpt lat="44.78893764317036" lon="6.514673475176096">
        <time>2022-01-25T07:38:57+00:00</time>
        <ele>1479.0</ele>
      </trkpt>
      <trkpt lat="44.78894904255867" lon="6.5146176517009735">
        <time>2022-01-25T07:39:02+00:00</time>
        <ele>1479.0</ele>
      </trkpt>
      <trkpt lat="44.78895063512027" lon="6.5145993791520596">
        <time>2022-01-25T07:39:04+00:00</time>
        <ele>1479.0</ele>
      </trkpt>
      <trkpt lat="44.788951221853495" lon="6.514588231220841">
        <time>2022-01-25T07:39:05+00:00</time>
        <ele>1479.0</ele>
      </trkpt>
      <trkpt lat="44.7889422532171" lon="6.514546656981111">
        <time>2022-01-25T07:39:08+00:00</time>
        <ele>1480.0</ele>
      </trkpt>
      <trkpt lat="44.788935547694564" lon="6.514532072469592">
        <time>2022-01-25T07:39:09+00:00</time>
        <ele>1481.0</ele>
      </trkpt>
      <trkpt lat="44.788930686190724" lon="6.514516230672598">
        <time>2022-01-25T07:39:10+00:00</time>
        <ele>1481.0</ele>
      </trkpt>
      <trkpt lat="44.788931189104915" lon="6.514487313106656">
        <time>2022-01-25T07:39:12+00:00</time>
        <ele>1482.0</ele>
      </trkpt>
      <trkpt lat="44.788926746696234" lon="6.51445135474205">
        <time>2022-01-25T07:39:14+00:00</time>
        <ele>1482.0</ele>
      </trkpt>
      <trkpt lat="44.78893764317036" lon="6.514426963403821">
        <time>2022-01-25T07:39:16+00:00</time>
        <ele>1482.0</ele>
      </trkpt>
      <trkpt lat="44.788918029516935" lon="6.514369882643223">
        <time>2022-01-25T07:39:21+00:00</time>
        <ele>1484.0</ele>
      </trkpt>
      <trkpt lat="44.78891836479306" lon="6.514369295910001">
        <time>2022-01-25T07:39:22+00:00</time>
        <ele>1484.0</ele>
      </trkpt>
      <trkpt lat="44.78888290934265" lon="6.514333421364427">
        <time>2022-01-25T07:39:27+00:00</time>
        <ele>1486.0</ele>
      </trkpt>
      <trkpt lat="44.78887410834432" lon="6.514323865994811">
        <time>2022-01-25T07:39:28+00:00</time>
        <ele>1487.0</ele>
      </trkpt>
      <trkpt lat="44.788873102515936" lon="6.514298217371106">
        <time>2022-01-25T07:39:31+00:00</time>
        <ele>1487.0</ele>
      </trkpt>
      <trkpt lat="44.788855919614434" lon="6.514265611767769">
        <time>2022-01-25T07:39:34+00:00</time>
        <ele>1488.0</ele>
      </trkpt>
      <trkpt lat="44.78884971700609" lon="6.514212470501661">
        <time>2022-01-25T07:39:38+00:00</time>
        <ele>1490.0</ele>
      </trkpt>
      <trkpt lat="44.78885558433831" lon="6.514200903475285">
        <time>2022-01-25T07:39:39+00:00</time>
        <ele>1489.0</ele>
      </trkpt>
      <trkpt lat="44.78885332122445" lon="6.51414692401886">
        <time>2022-01-25T07:39:43+00:00</time>
        <ele>1491.0</ele>
      </trkpt>
      <trkpt lat="44.78886094875634" lon="6.514135105535388">
        <time>2022-01-25T07:39:44+00:00</time>
        <ele>1490.0</ele>
      </trkpt>
      <trkpt lat="44.788863295689225" lon="6.5141193475574255">
        <time>2022-01-25T07:39:45+00:00</time>
        <ele>1491.0</ele>
      </trkpt>
      <trkpt lat="44.78886463679373" lon="6.514109205454588">
        <time>2022-01-25T07:39:46+00:00</time>
        <ele>1491.0</ele>
      </trkpt>
      <trkpt lat="44.78884946554899" lon="6.514057153835893">
        <time>2022-01-25T07:39:50+00:00</time>
        <ele>1493.0</ele>
      </trkpt>
      <trkpt lat="44.78883949108422" lon="6.514045922085643">
        <time>2022-01-25T07:39:51+00:00</time>
        <ele>1493.0</ele>
      </trkpt>
      <trkpt lat="44.78883186355233" lon="6.514032678678632">
        <time>2022-01-25T07:39:52+00:00</time>
        <ele>1494.0</ele>
      </trkpt>
      <trkpt lat="44.78881853632629" lon="6.5140035934746265">
        <time>2022-01-25T07:39:55+00:00</time>
        <ele>1495.0</ele>
      </trkpt>
      <trkpt lat="44.78882163763046" lon="6.513999989256263">
        <time>2022-01-25T07:39:56+00:00</time>
        <ele>1495.0</ele>
      </trkpt>
      <trkpt lat="44.78881954215467" lon="6.513993116095662">
        <time>2022-01-25T07:39:57+00:00</time>
        <ele>1496.0</ele>
      </trkpt>
      <trkpt lat="44.78884594514966" lon="6.513955481350422">
        <time>2022-01-25T07:40:01+00:00</time>
        <ele>1494.0</ele>
      </trkpt>
      <trkpt lat="44.78887905366719" lon="6.513938969001174">
        <time>2022-01-25T07:40:03+00:00</time>
        <ele>1493.0</ele>
      </trkpt>
      <trkpt lat="44.78889866732061" lon="6.513918014243245">
        <time>2022-01-25T07:40:06+00:00</time>
        <ele>1492.0</ele>
      </trkpt>
      <trkpt lat="44.788896990939975" lon="6.513893371447921">
        <time>2022-01-25T07:40:09+00:00</time>
        <ele>1493.0</ele>
      </trkpt>
      <trkpt lat="44.78889615274966" lon="6.513886749744415">
        <time>2022-01-25T07:40:10+00:00</time>
        <ele>1493.0</ele>
      </trkpt>
      <trkpt lat="44.78889481164515" lon="6.513882223516703">
        <time>2022-01-25T07:40:11+00:00</time>
        <ele>1493.0</ele>
      </trkpt>
      <trkpt lat="44.788932194933295" lon="6.513875350356102">
        <time>2022-01-25T07:40:14+00:00</time>
        <ele>1491.0</ele>
      </trkpt>
      <trkpt lat="44.78893395513296" lon="6.51387820020318">
        <time>2022-01-25T07:40:15+00:00</time>
        <ele>1491.0</ele>
      </trkpt>
      <trkpt lat="44.788940912112594" lon="6.513865711167455">
        <time>2022-01-25T07:40:22+00:00</time>
        <ele>1491.0</ele>
      </trkpt>
      <trkpt lat="44.78894317522645" lon="6.513876859098673">
        <time>2022-01-25T07:40:29+00:00</time>
        <ele>1491.0</ele>
      </trkpt>
      <trkpt lat="44.78893303312361" lon="6.513878954574466">
        <time>2022-01-25T07:40:34+00:00</time>
        <ele>1491.0</ele>
      </trkpt>
      <trkpt lat="44.78893303312361" lon="6.513876942917705">
        <time>2022-01-25T07:40:46+00:00</time>
        <ele>1491.0</ele>
      </trkpt>
      <trkpt lat="44.78893303312361" lon="6.513875685632229">
        <time>2022-01-25T07:40:48+00:00</time>
        <ele>1491.0</ele>
      </trkpt>
      <trkpt lat="44.7889216337353" lon="6.513866046443582">
        <time>2022-01-25T07:40:53+00:00</time>
        <ele>1492.0</ele>
      </trkpt>
      <trkpt lat="44.78891937062144" lon="6.513855736702681">
        <time>2022-01-25T07:40:57+00:00</time>
        <ele>1492.0</ele>
      </trkpt>
      <trkpt lat="44.78891828097403" lon="6.513852383941412">
        <time>2022-01-25T07:40:58+00:00</time>
        <ele>1492.0</ele>
      </trkpt>
      <trkpt lat="44.788917945697904" lon="6.513847606256604">
        <time>2022-01-25T07:40:59+00:00</time>
        <ele>1492.0</ele>
      </trkpt>
      <trkpt lat="44.788915598765016" lon="6.513832854107022">
        <time>2022-01-25T07:41:02+00:00</time>
        <ele>1492.0</ele>
      </trkpt>
      <trkpt lat="44.78891375474632" lon="6.51381759904325">
        <time>2022-01-25T07:41:04+00:00</time>
        <ele>1493.0</ele>
      </trkpt>
      <trkpt lat="44.7889145091176" lon="6.513787340372801">
        <time>2022-01-25T07:41:07+00:00</time>
        <ele>1493.0</ele>
      </trkpt>
      <trkpt lat="44.78893915191293" lon="6.513720620423555">
        <time>2022-01-25T07:41:10+00:00</time>
        <ele>1493.0</ele>
      </trkpt>
      <trkpt lat="44.7889372240752" lon="6.513700587674975">
        <time>2022-01-25T07:41:11+00:00</time>
        <ele>1493.0</ele>
      </trkpt>
      <trkpt lat="44.78896714746952" lon="6.513615595176816">
        <time>2022-01-25T07:41:15+00:00</time>
        <ele>1494.0</ele>
      </trkpt>
      <trkpt lat="44.788979049772024" lon="6.513562705367804">
        <time>2022-01-25T07:41:19+00:00</time>
        <ele>1494.0</ele>
      </trkpt>
      <trkpt lat="44.78898164816201" lon="6.513554323464632">
        <time>2022-01-25T07:41:20+00:00</time>
        <ele>1494.0</ele>
      </trkpt>
      <trkpt lat="44.78900679387152" lon="6.5134684927761555">
        <time>2022-01-25T07:41:29+00:00</time>
        <ele>1495.0</ele>
      </trkpt>
      <trkpt lat="44.7890130802989" lon="6.513464553281665">
        <time>2022-01-25T07:41:30+00:00</time>
        <ele>1495.0</ele>
      </trkpt>
      <trkpt lat="44.78902313858271" lon="6.513428343459964">
        <time>2022-01-25T07:41:35+00:00</time>
        <ele>1495.0</ele>
      </trkpt>
      <trkpt lat="44.78904241696" lon="6.513407891616225">
        <time>2022-01-25T07:41:41+00:00</time>
        <ele>1495.0</ele>
      </trkpt>
      <trkpt lat="44.78902095928788" lon="6.513403868302703">
        <time>2022-01-25T07:41:45+00:00</time>
        <ele>1496.0</ele>
      </trkpt>
      <trkpt lat="44.78902054019272" lon="6.51341107673943">
        <time>2022-01-25T07:41:51+00:00</time>
        <ele>1495.0</ele>
      </trkpt>
      <trkpt lat="44.78902054019272" lon="6.51341107673943">
        <time>2022-01-25T07:41:56+00:00</time>
        <ele>1495.0</ele>
      </trkpt>
      <trkpt lat="44.78902054019272" lon="6.51341107673943">
        <time>2022-01-25T07:41:57+00:00</time>
        <ele>1495.0</ele>
      </trkpt>
      <trkpt lat="44.78902054019272" lon="6.51341057382524">
        <time>2022-01-25T07:41:59+00:00</time>
        <ele>1495.0</ele>
      </trkpt>
      <trkpt lat="44.78902095928788" lon="6.513408813625574">
        <time>2022-01-25T07:42:00+00:00</time>
        <ele>1495.0</ele>
      </trkpt>
      <trkpt lat="44.78901802562177" lon="6.51339297182858">
        <time>2022-01-25T07:42:02+00:00</time>
        <ele>1496.0</ele>
      </trkpt>
      <trkpt lat="44.78902439586818" lon="6.513377297669649">
        <time>2022-01-25T07:42:04+00:00</time>
        <ele>1496.0</ele>
      </trkpt>
      <trkpt lat="44.78904007002711" lon="6.513356175273657">
        <time>2022-01-25T07:42:06+00:00</time>
        <ele>1496.0</ele>
      </trkpt>
      <trkpt lat="44.789052894338965" lon="6.513299010694027">
        <time>2022-01-25T07:42:09+00:00</time>
        <ele>1497.0</ele>
      </trkpt>
      <trkpt lat="44.78905666619539" lon="6.513241343200207">
        <time>2022-01-25T07:42:14+00:00</time>
        <ele>1498.0</ele>
      </trkpt>
      <trkpt lat="44.789059767499566" lon="6.513216197490692">
        <time>2022-01-25T07:42:18+00:00</time>
        <ele>1499.0</ele>
      </trkpt>
      <trkpt lat="44.789043590426445" lon="6.51319214142859">
        <time>2022-01-25T07:42:21+00:00</time>
        <ele>1500.0</ele>
      </trkpt>
      <trkpt lat="44.78904442861676" lon="6.513159284368157">
        <time>2022-01-25T07:42:23+00:00</time>
        <ele>1501.0</ele>
      </trkpt>
      <trkpt lat="44.789036214351654" lon="6.513125337660313">
        <time>2022-01-25T07:42:27+00:00</time>
        <ele>1503.0</ele>
      </trkpt>
      <trkpt lat="44.789061695337296" lon="6.513090971857309">
        <time>2022-01-25T07:42:31+00:00</time>
        <ele>1503.0</ele>
      </trkpt>
      <trkpt lat="44.78906840085983" lon="6.5130844339728355">
        <time>2022-01-25T07:42:33+00:00</time>
        <ele>1503.0</ele>
      </trkpt>
      <trkpt lat="44.789072424173355" lon="6.513094324618578">
        <time>2022-01-25T07:42:38+00:00</time>
        <ele>1502.0</ele>
      </trkpt>
      <trkpt lat="44.789062701165676" lon="6.513099437579513">
        <time>2022-01-25T07:42:39+00:00</time>
        <ele>1502.0</ele>
      </trkpt>
      <trkpt lat="44.78902665898204" lon="6.513094995170832">
        <time>2022-01-25T07:42:46+00:00</time>
        <ele>1504.0</ele>
      </trkpt>
      <trkpt lat="44.78897737339139" lon="6.513047302141786">
        <time>2022-01-25T07:42:52+00:00</time>
        <ele>1507.0</ele>
      </trkpt>
      <trkpt lat="44.78895155712962" lon="6.5129925683140755">
        <time>2022-01-25T07:42:57+00:00</time>
        <ele>1510.0</ele>
      </trkpt>
      <trkpt lat="44.78895876556635" lon="6.512976307421923">
        <time>2022-01-25T07:42:58+00:00</time>
        <ele>1510.0</ele>
      </trkpt>
      <trkpt lat="44.78895591571927" lon="6.5129295364022255">
        <time>2022-01-25T07:43:02+00:00</time>
        <ele>1512.0</ele>
      </trkpt>
      <trkpt lat="44.788968823850155" lon="6.512923585250974">
        <time>2022-01-25T07:43:03+00:00</time>
        <ele>1511.0</ele>
      </trkpt>
      <trkpt lat="44.78899447247386" lon="6.5129003673791885">
        <time>2022-01-25T07:43:07+00:00</time>
        <ele>1511.0</ele>
      </trkpt>
      <trkpt lat="44.788992796093225" lon="6.512884860858321">
        <time>2022-01-25T07:43:09+00:00</time>
        <ele>1512.0</ele>
      </trkpt>
      <trkpt lat="44.7889821510762" lon="6.5128532610833645">
        <time>2022-01-25T07:43:14+00:00</time>
        <ele>1513.0</ele>
      </trkpt>
      <trkpt lat="44.78900469839573" lon="6.512829037383199">
        <time>2022-01-25T07:43:18+00:00</time>
        <ele>1513.0</ele>
      </trkpt>
      <trkpt lat="44.789011320099235" lon="6.512824930250645">
        <time>2022-01-25T07:43:21+00:00</time>
        <ele>1513.0</ele>
      </trkpt>
      <trkpt lat="44.789041662588716" lon="6.512801880016923">
        <time>2022-01-25T07:43:23+00:00</time>
        <ele>1513.0</ele>
      </trkpt>
      <trkpt lat="44.78907644748688" lon="6.512777656316757">
        <time>2022-01-25T07:43:27+00:00</time>
        <ele>1512.0</ele>
      </trkpt>
      <trkpt lat="44.78907845914364" lon="6.512754438444972">
        <time>2022-01-25T07:43:30+00:00</time>
        <ele>1513.0</ele>
      </trkpt>
      <trkpt lat="44.789079716429114" lon="6.512749241665006">
        <time>2022-01-25T07:43:31+00:00</time>
        <ele>1513.0</ele>
      </trkpt>
      <trkpt lat="44.78908424265683" lon="6.512740440666676">
        <time>2022-01-25T07:43:32+00:00</time>
        <ele>1513.0</ele>
      </trkpt>
      <trkpt lat="44.78908583521843" lon="6.512729711830616">
        <time>2022-01-25T07:43:35+00:00</time>
        <ele>1513.0</ele>
      </trkpt>
      <trkpt lat="44.789086170494556" lon="6.5127637423574924">
        <time>2022-01-25T07:43:38+00:00</time>
        <ele>1512.0</ele>
      </trkpt>
      <trkpt lat="44.78909756988287" lon="6.5127805061638355">
        <time>2022-01-25T07:43:42+00:00</time>
        <ele>1511.0</ele>
      </trkpt>
      <trkpt lat="44.78910301811993" lon="6.512784026563168">
        <time>2022-01-25T07:43:43+00:00</time>
        <ele>1511.0</ele>
      </trkpt>
      <trkpt lat="44.78909891098738" lon="6.5127914026379585">
        <time>2022-01-25T07:43:46+00:00</time>
        <ele>1511.0</ele>
      </trkpt>
      <trkpt lat="44.78909430094063" lon="6.512794587761164">
        <time>2022-01-25T07:43:47+00:00</time>
        <ele>1511.0</ele>
      </trkpt>
      <trkpt lat="44.789078710600734" lon="6.512795593589544">
        <time>2022-01-25T07:43:50+00:00</time>
        <ele>1512.0</ele>
      </trkpt>
      <trkpt lat="44.78907527402043" lon="6.5128017123788595">
        <time>2022-01-25T07:43:52+00:00</time>
        <ele>1511.0</ele>
      </trkpt>
      <trkpt lat="44.789052894338965" lon="6.512801544740796">
        <time>2022-01-25T07:43:57+00:00</time>
        <ele>1512.0</ele>
      </trkpt>
      <trkpt lat="44.78904635645449" lon="6.5127970185130835">
        <time>2022-01-25T07:43:58+00:00</time>
        <ele>1513.0</ele>
      </trkpt>
      <trkpt lat="44.78901358321309" lon="6.512798359617591">
        <time>2022-01-25T07:44:02+00:00</time>
        <ele>1514.0</ele>
      </trkpt>
      <trkpt lat="44.78900243528187" lon="6.512796767055988">
        <time>2022-01-25T07:44:03+00:00</time>
        <ele>1514.0</ele>
      </trkpt>
      <trkpt lat="44.7890009265393" lon="6.512798611074686">
        <time>2022-01-25T07:44:05+00:00</time>
        <ele>1514.0</ele>
      </trkpt>
      <trkpt lat="44.78895700536668" lon="6.5127884689718485">
        <time>2022-01-25T07:44:11+00:00</time>
        <ele>1516.0</ele>
      </trkpt>
      <trkpt lat="44.78894703090191" lon="6.512792827561498">
        <time>2022-01-25T07:44:12+00:00</time>
        <ele>1516.0</ele>
      </trkpt>
      <trkpt lat="44.788912162184715" lon="6.5128367487341166">
        <time>2022-01-25T07:44:18+00:00</time>
        <ele>1516.0</ele>
      </trkpt>
      <trkpt lat="44.78891350328922" lon="6.512840855866671">
        <time>2022-01-25T07:44:19+00:00</time>
        <ele>1515.0</ele>
      </trkpt>
      <trkpt lat="44.78886069729924" lon="6.512840101495385">
        <time>2022-01-25T07:44:25+00:00</time>
        <ele>1517.0</ele>
      </trkpt>
      <trkpt lat="44.78884611278772" lon="6.512838508933783">
        <time>2022-01-25T07:44:26+00:00</time>
        <ele>1518.0</ele>
      </trkpt>
      <trkpt lat="44.78880864568055" lon="6.5128096751868725">
        <time>2022-01-25T07:44:31+00:00</time>
        <ele>1520.0</ele>
      </trkpt>
      <trkpt lat="44.78880261071026" lon="6.512803053483367">
        <time>2022-01-25T07:44:32+00:00</time>
        <ele>1520.0</ele>
      </trkpt>
      <trkpt lat="44.78878961876035" lon="6.512748152017593">
        <time>2022-01-25T07:44:37+00:00</time>
        <ele>1522.0</ele>
      </trkpt>
      <trkpt lat="44.78880051523447" lon="6.512740608304739">
        <time>2022-01-25T07:44:38+00:00</time>
        <ele>1522.0</ele>
      </trkpt>
      <trkpt lat="44.788860864937305" lon="6.512660812586546">
        <time>2022-01-25T07:44:44+00:00</time>
        <ele>1522.0</ele>
      </trkpt>
      <trkpt lat="44.78886698372662" lon="6.5126194059848785">
        <time>2022-01-25T07:44:50+00:00</time>
        <ele>1523.0</ele>
      </trkpt>
      <trkpt lat="44.78887729346752" lon="6.512557882815599">
        <time>2022-01-25T07:44:55+00:00</time>
        <ele>1524.0</ele>
      </trkpt>
      <trkpt lat="44.7888748627156" lon="6.512537598609924">
        <time>2022-01-25T07:44:56+00:00</time>
        <ele>1525.0</ele>
      </trkpt>
      <trkpt lat="44.788862708956" lon="6.512513794004917">
        <time>2022-01-25T07:45:01+00:00</time>
        <ele>1525.0</ele>
      </trkpt>
      <trkpt lat="44.78885273449123" lon="6.512512704357505">
        <time>2022-01-25T07:45:03+00:00</time>
        <ele>1526.0</ele>
      </trkpt>
      <trkpt lat="44.7888420894742" lon="6.512499209493399">
        <time>2022-01-25T07:45:05+00:00</time>
        <ele>1527.0</ele>
      </trkpt>
      <trkpt lat="44.788839407265186" lon="6.512456461787224">
        <time>2022-01-25T07:45:10+00:00</time>
        <ele>1528.0</ele>
      </trkpt>
      <trkpt lat="44.788835467770696" lon="6.512448498979211">
        <time>2022-01-25T07:45:12+00:00</time>
        <ele>1528.0</ele>
      </trkpt>
      <trkpt lat="44.78882113471627" lon="6.512433746829629">
        <time>2022-01-25T07:45:16+00:00</time>
        <ele>1529.0</ele>
      </trkpt>
      <trkpt lat="44.78882691822946" lon="6.51242989115417">
        <time>2022-01-25T07:45:18+00:00</time>
        <ele>1529.0</ele>
      </trkpt>
      <trkpt lat="44.78882398456335" lon="6.51242352090776">
        <time>2022-01-25T07:45:28+00:00</time>
        <ele>1529.0</ele>
      </trkpt>
      <trkpt lat="44.78880034759641" lon="6.512416815385222">
        <time>2022-01-25T07:45:35+00:00</time>
        <ele>1531.0</ele>
      </trkpt>
      <trkpt lat="44.788797330111265" lon="6.512414803728461">
        <time>2022-01-25T07:45:36+00:00</time>
        <ele>1531.0</ele>
      </trkpt>
      <trkpt lat="44.788786601275206" lon="6.5123903285712">
        <time>2022-01-25T07:45:40+00:00</time>
        <ele>1532.0</ele>
      </trkpt>
      <trkpt lat="44.78879707865417" lon="6.512370714917779">
        <time>2022-01-25T07:45:42+00:00</time>
        <ele>1532.0</ele>
      </trkpt>
      <trkpt lat="44.78880311362445" lon="6.512354454025626">
        <time>2022-01-25T07:45:45+00:00</time>
        <ele>1532.0</ele>
      </trkpt>
      <trkpt lat="44.78880235925317" lon="6.512330397963524">
        <time>2022-01-25T07:45:48+00:00</time>
        <ele>1532.0</ele>
      </trkpt>
      <trkpt lat="44.788798252120614" lon="6.51232436299324">
        <time>2022-01-25T07:45:52+00:00</time>
        <ele>1533.0</ele>
      </trkpt>
      <trkpt lat="44.788805628195405" lon="6.512289829552174">
        <time>2022-01-25T07:45:58+00:00</time>
        <ele>1533.0</ele>
      </trkpt>
      <trkpt lat="44.78880529291928" lon="6.5122832916677">
        <time>2022-01-25T07:45:59+00:00</time>
        <ele>1533.0</ele>
      </trkpt>
      <trkpt lat="44.78879984468222" lon="6.512274742126465">
        <time>2022-01-25T07:46:02+00:00</time>
        <ele>1534.0</ele>
      </trkpt>
      <trkpt lat="44.78878425434232" lon="6.512281447649002">
        <time>2022-01-25T07:46:05+00:00</time>
        <ele>1534.0</ele>
      </trkpt>
      <trkpt lat="44.78878241032362" lon="6.512281866744161">
        <time>2022-01-25T07:46:07+00:00</time>
        <ele>1534.0</ele>
      </trkpt>
      <trkpt lat="44.78877109475434" lon="6.512273149564862">
        <time>2022-01-25T07:46:09+00:00</time>
        <ele>1535.0</ele>
      </trkpt>
      <trkpt lat="44.788761120289564" lon="6.512257307767868">
        <time>2022-01-25T07:46:11+00:00</time>
        <ele>1535.0</ele>
      </trkpt>
      <trkpt lat="44.788745529949665" lon="6.512225037440658">
        <time>2022-01-25T07:46:14+00:00</time>
        <ele>1537.0</ele>
      </trkpt>
      <trkpt lat="44.78874762542546" lon="6.51221196167171">
        <time>2022-01-25T07:46:16+00:00</time>
        <ele>1537.0</ele>
      </trkpt>
      <trkpt lat="44.78874376975" lon="6.5121823735535145">
        <time>2022-01-25T07:46:20+00:00</time>
        <ele>1538.0</ele>
      </trkpt>
      <trkpt lat="44.78873731568456" lon="6.512173069640994">
        <time>2022-01-25T07:46:22+00:00</time>
        <ele>1538.0</ele>
      </trkpt>
      <trkpt lat="44.78875952772796" lon="6.512147253379226">
        <time>2022-01-25T07:46:29+00:00</time>
        <ele>1538.0</ele>
      </trkpt>
      <trkpt lat="44.78872776031494" lon="6.512119676917791">
        <time>2022-01-25T07:46:34+00:00</time>
        <ele>1539.0</ele>
      </trkpt>
      <trkpt lat="44.78871954604983" lon="6.51210593059659">
        <time>2022-01-25T07:46:36+00:00</time>
        <ele>1540.0</ele>
      </trkpt>
      <trkpt lat="44.788712253794074" lon="6.512094112113118">
        <time>2022-01-25T07:46:39+00:00</time>
        <ele>1541.0</ele>
      </trkpt>
      <trkpt lat="44.78871158324182" lon="6.512071816250682">
        <time>2022-01-25T07:46:41+00:00</time>
        <ele>1541.0</ele>
      </trkpt>
      <trkpt lat="44.788707392290235" lon="6.512041389942169">
        <time>2022-01-25T07:46:46+00:00</time>
        <ele>1542.0</ele>
      </trkpt>
      <trkpt lat="44.78870814666152" lon="6.512033008038998">
        <time>2022-01-25T07:46:48+00:00</time>
        <ele>1542.0</ele>
      </trkpt>
      <trkpt lat="44.78868652135134" lon="6.512012388557196">
        <time>2022-01-25T07:46:51+00:00</time>
        <ele>1543.0</ele>
      </trkpt>
      <trkpt lat="44.788674116134644" lon="6.512013729661703">
        <time>2022-01-25T07:46:53+00:00</time>
        <ele>1544.0</ele>
      </trkpt>
      <trkpt lat="44.78865886107087" lon="6.512022782117128">
        <time>2022-01-25T07:46:57+00:00</time>
        <ele>1544.0</ele>
      </trkpt>
      <trkpt lat="44.78866112418473" lon="6.512019094079733">
        <time>2022-01-25T07:46:59+00:00</time>
        <ele>1544.0</ele>
      </trkpt>
      <trkpt lat="44.788644444197416" lon="6.512009538710117">
        <time>2022-01-25T07:47:02+00:00</time>
        <ele>1545.0</ele>
      </trkpt>
      <trkpt lat="44.78863715194166" lon="6.512006102129817">
        <time>2022-01-25T07:47:04+00:00</time>
        <ele>1545.0</ele>
      </trkpt>
      <trkpt lat="44.78861527517438" lon="6.51199939660728">
        <time>2022-01-25T07:47:08+00:00</time>
        <ele>1547.0</ele>
      </trkpt>
      <trkpt lat="44.78861301206052" lon="6.511988919228315">
        <time>2022-01-25T07:47:11+00:00</time>
        <ele>1547.0</ele>
      </trkpt>
      <trkpt lat="44.78860840201378" lon="6.511982046067715">
        <time>2022-01-25T07:47:13+00:00</time>
        <ele>1547.0</ele>
      </trkpt>
      <trkpt lat="44.7886021155864" lon="6.511960504576564">
        <time>2022-01-25T07:47:16+00:00</time>
        <ele>1548.0</ele>
      </trkpt>
      <trkpt lat="44.78859532624483" lon="6.511943489313126">
        <time>2022-01-25T07:47:19+00:00</time>
        <ele>1548.0</ele>
      </trkpt>
      <trkpt lat="44.78858241811395" lon="6.511934939771891">
        <time>2022-01-25T07:47:20+00:00</time>
        <ele>1549.0</ele>
      </trkpt>
      <trkpt lat="44.78857722133398" lon="6.511915326118469">
        <time>2022-01-25T07:47:23+00:00</time>
        <ele>1550.0</ele>
      </trkpt>
      <trkpt lat="44.78858250193298" lon="6.511896634474397">
        <time>2022-01-25T07:47:26+00:00</time>
        <ele>1550.0</ele>
      </trkpt>
      <trkpt lat="44.788587698712945" lon="6.511885402724147">
        <time>2022-01-25T07:47:28+00:00</time>
        <ele>1550.0</ele>
      </trkpt>
      <trkpt lat="44.78859515860677" lon="6.511862939223647">
        <time>2022-01-25T07:47:31+00:00</time>
        <ele>1550.0</ele>
      </trkpt>
      <trkpt lat="44.788588620722294" lon="6.511844834312797">
        <time>2022-01-25T07:47:34+00:00</time>
        <ele>1550.0</ele>
      </trkpt>
      <trkpt lat="44.78859767317772" lon="6.511830165982246">
        <time>2022-01-25T07:47:38+00:00</time>
        <ele>1550.0</ele>
      </trkpt>
      <trkpt lat="44.788586273789406" lon="6.511844247579575">
        <time>2022-01-25T07:47:40+00:00</time>
        <ele>1550.0</ele>
      </trkpt>
      <trkpt lat="44.788569090887904" lon="6.511838044971228">
        <time>2022-01-25T07:47:45+00:00</time>
        <ele>1551.0</ele>
      </trkpt>
      <trkpt lat="44.78856883943081" lon="6.51182547211647">
        <time>2022-01-25T07:47:47+00:00</time>
        <ele>1552.0</ele>
      </trkpt>
      <trkpt lat="44.788571521639824" lon="6.511805774644017">
        <time>2022-01-25T07:47:50+00:00</time>
        <ele>1552.0</ele>
      </trkpt>
      <trkpt lat="44.78857034817338" lon="6.511790435761213">
        <time>2022-01-25T07:47:53+00:00</time>
        <ele>1552.0</ele>
      </trkpt>
      <trkpt lat="44.78856003843248" lon="6.511796051636338">
        <time>2022-01-25T07:47:56+00:00</time>
        <ele>1552.0</ele>
      </trkpt>
      <trkpt lat="44.78855023160577" lon="6.511795045807958">
        <time>2022-01-25T07:47:58+00:00</time>
        <ele>1553.0</ele>
      </trkpt>
      <trkpt lat="44.788516871631145" lon="6.511786747723818">
        <time>2022-01-25T07:48:07+00:00</time>
        <ele>1554.0</ele>
      </trkpt>
      <trkpt lat="44.78852055966854" lon="6.5117827244102955">
        <time>2022-01-25T07:48:09+00:00</time>
        <ele>1554.0</ele>
      </trkpt>
      <trkpt lat="44.788520308211446" lon="6.5117626916617155">
        <time>2022-01-25T07:48:12+00:00</time>
        <ele>1555.0</ele>
      </trkpt>
      <trkpt lat="44.78852231986821" lon="6.511759087443352">
        <time>2022-01-25T07:48:13+00:00</time>
        <ele>1555.0</ele>
      </trkpt>
      <trkpt lat="44.788535479456186" lon="6.511746095493436">
        <time>2022-01-25T07:48:19+00:00</time>
        <ele>1554.0</ele>
      </trkpt>
      <trkpt lat="44.788534473627806" lon="6.51174190454185">
        <time>2022-01-25T07:48:20+00:00</time>
        <ele>1554.0</ele>
      </trkpt>
      <trkpt lat="44.78852726519108" lon="6.511759590357542">
        <time>2022-01-25T07:48:29+00:00</time>
        <ele>1554.0</ele>
      </trkpt>
      <trkpt lat="44.78848158381879" lon="6.51176436804235">
        <time>2022-01-25T07:48:37+00:00</time>
        <ele>1556.0</ele>
      </trkpt>
      <trkpt lat="44.788485104218125" lon="6.511746933683753">
        <time>2022-01-25T07:48:39+00:00</time>
        <ele>1556.0</ele>
      </trkpt>
      <trkpt lat="44.78849893435836" lon="6.511715333908796">
        <time>2022-01-25T07:48:44+00:00</time>
        <ele>1556.0</ele>
      </trkpt>
      <trkpt lat="44.788504131138325" lon="6.511704353615642">
        <time>2022-01-25T07:48:47+00:00</time>
        <ele>1556.0</ele>
      </trkpt>
      <trkpt lat="44.788504131138325" lon="6.511704353615642">
        <time>2022-01-25T07:48:49+00:00</time>
        <ele>1556.0</ele>
      </trkpt>
      <trkpt lat="44.788504131138325" lon="6.511704353615642">
        <time>2022-01-25T07:48:53+00:00</time>
        <ele>1556.0</ele>
      </trkpt>
      <trkpt lat="44.788504131138325" lon="6.511704353615642">
        <time>2022-01-25T07:48:54+00:00</time>
        <ele>1556.0</ele>
      </trkpt>
      <trkpt lat="44.788504131138325" lon="6.511704353615642">
        <time>2022-01-25T07:48:58+00:00</time>
        <ele>1556.0</ele>
      </trkpt>
      <trkpt lat="44.78850245475769" lon="6.51168473996222">
        <time>2022-01-25T07:49:06+00:00</time>
        <ele>1557.0</ele>
      </trkpt>
      <trkpt lat="44.7885003592819" lon="6.511679207906127">
        <time>2022-01-25T07:49:12+00:00</time>
        <ele>1557.0</ele>
      </trkpt>
      <trkpt lat="44.78849817998707" lon="6.511666299775243">
        <time>2022-01-25T07:49:17+00:00</time>
        <ele>1557.0</ele>
      </trkpt>
      <trkpt lat="44.78849574923515" lon="6.511640148237348">
        <time>2022-01-25T07:49:22+00:00</time>
        <ele>1558.0</ele>
      </trkpt>
      <trkpt lat="44.78849264793098" lon="6.51162656955421">
        <time>2022-01-25T07:49:25+00:00</time>
        <ele>1558.0</ele>
      </trkpt>
      <trkpt lat="44.78849222883582" lon="6.511614415794611">
        <time>2022-01-25T07:49:27+00:00</time>
        <ele>1559.0</ele>
      </trkpt>
      <trkpt lat="44.78848912753165" lon="6.511584157124162">
        <time>2022-01-25T07:49:31+00:00</time>
        <ele>1559.0</ele>
      </trkpt>
      <trkpt lat="44.78847940452397" lon="6.511523891240358">
        <time>2022-01-25T07:49:41+00:00</time>
        <ele>1561.0</ele>
      </trkpt>
      <trkpt lat="44.78847697377205" lon="6.511506624519825">
        <time>2022-01-25T07:49:48+00:00</time>
        <ele>1561.0</ele>
      </trkpt>
      <trkpt lat="44.78843405842781" lon="6.511498494073749">
        <time>2022-01-25T07:49:58+00:00</time>
        <ele>1563.0</ele>
      </trkpt>
      <trkpt lat="44.78842291049659" lon="6.511484747752547">
        <time>2022-01-25T07:50:05+00:00</time>
        <ele>1564.0</ele>
      </trkpt>
      <trkpt lat="44.78841989301145" lon="6.511457255110145">
        <time>2022-01-25T07:50:10+00:00</time>
        <ele>1565.0</ele>
      </trkpt>
      <trkpt lat="44.7884189710021" lon="6.511447783559561">
        <time>2022-01-25T07:50:12+00:00</time>
        <ele>1565.0</ele>
      </trkpt>
      <trkpt lat="44.78841436095536" lon="6.511414675042033">
        <time>2022-01-25T07:50:17+00:00</time>
        <ele>1566.0</ele>
      </trkpt>
      <trkpt lat="44.78841243311763" lon="6.511396653950214">
        <time>2022-01-25T07:50:19+00:00</time>
        <ele>1566.0</ele>
      </trkpt>
      <trkpt lat="44.78841000236571" lon="6.511382237076759">
        <time>2022-01-25T07:50:22+00:00</time>
        <ele>1567.0</ele>
      </trkpt>
      <trkpt lat="44.78839055635035" lon="6.51134368032217">
        <time>2022-01-25T07:50:28+00:00</time>
        <ele>1568.0</ele>
      </trkpt>
      <trkpt lat="44.788386449217796" lon="6.511335885152221">
        <time>2022-01-25T07:50:29+00:00</time>
        <ele>1569.0</ele>
      </trkpt>
      <trkpt lat="44.788384353742" lon="6.511327084153891">
        <time>2022-01-25T07:50:30+00:00</time>
        <ele>1569.0</ele>
      </trkpt>
      <trkpt lat="44.788382509723306" lon="6.511309063062072">
        <time>2022-01-25T07:50:33+00:00</time>
        <ele>1569.0</ele>
      </trkpt>
      <trkpt lat="44.78837396018207" lon="6.511267405003309">
        <time>2022-01-25T07:50:40+00:00</time>
        <ele>1571.0</ele>
      </trkpt>
      <trkpt lat="44.788367338478565" lon="6.511227004230022">
        <time>2022-01-25T07:50:47+00:00</time>
        <ele>1572.0</ele>
      </trkpt>
      <trkpt lat="44.78832618333399" lon="6.511227590963244">
        <time>2022-01-25T07:50:51+00:00</time>
        <ele>1574.0</ele>
      </trkpt>
      <trkpt lat="44.78830539621413" lon="6.511231362819672">
        <time>2022-01-25T07:50:53+00:00</time>
        <ele>1574.0</ele>
      </trkpt>
      <trkpt lat="44.78826834820211" lon="6.511251982301474">
        <time>2022-01-25T07:50:56+00:00</time>
        <ele>1576.0</ele>
      </trkpt>
      <trkpt lat="44.788244711235166" lon="6.511268578469753">
        <time>2022-01-25T07:51:01+00:00</time>
        <ele>1577.0</ele>
      </trkpt>
      <trkpt lat="44.78821797296405" lon="6.511281402781606">
        <time>2022-01-25T07:51:04+00:00</time>
        <ele>1578.0</ele>
      </trkpt>
      <trkpt lat="44.788192827254534" lon="6.511299256235361">
        <time>2022-01-25T07:51:08+00:00</time>
        <ele>1579.0</ele>
      </trkpt>
      <trkpt lat="44.788189893588424" lon="6.511295065283775">
        <time>2022-01-25T07:51:10+00:00</time>
        <ele>1579.0</ele>
      </trkpt>
      <trkpt lat="44.78819425217807" lon="6.511267656460404">
        <time>2022-01-25T07:51:12+00:00</time>
        <ele>1579.0</ele>
      </trkpt>
      <trkpt lat="44.7882067412138" lon="6.511242762207985">
        <time>2022-01-25T07:51:14+00:00</time>
        <ele>1579.0</ele>
      </trkpt>
      <trkpt lat="44.788196347653866" lon="6.511213844642043">
        <time>2022-01-25T07:51:18+00:00</time>
        <ele>1580.0</ele>
      </trkpt>
      <trkpt lat="44.788205148652196" lon="6.511199427768588">
        <time>2022-01-25T07:51:20+00:00</time>
        <ele>1580.0</ele>
      </trkpt>
      <trkpt lat="44.78820766322315" lon="6.511172940954566">
        <time>2022-01-25T07:51:23+00:00</time>
        <ele>1580.0</ele>
      </trkpt>
      <trkpt lat="44.78822375647724" lon="6.51115701533854">
        <time>2022-01-25T07:51:26+00:00</time>
        <ele>1580.0</ele>
      </trkpt>
      <trkpt lat="44.78822300210595" lon="6.511158607900143">
        <time>2022-01-25T07:51:27+00:00</time>
        <ele>1580.0</ele>
      </trkpt>
      <trkpt lat="44.78821503929794" lon="6.511159278452396">
        <time>2022-01-25T07:51:28+00:00</time>
        <ele>1580.0</ele>
      </trkpt>
      <trkpt lat="44.78821554221213" lon="6.511170091107488">
        <time>2022-01-25T07:51:33+00:00</time>
        <ele>1580.0</ele>
      </trkpt>
      <trkpt lat="44.788211937993765" lon="6.511177634820342">
        <time>2022-01-25T07:51:34+00:00</time>
        <ele>1580.0</ele>
      </trkpt>
      <trkpt lat="44.78821118362248" lon="6.5111819095909595">
        <time>2022-01-25T07:51:41+00:00</time>
        <ele>1580.0</ele>
      </trkpt>
      <trkpt lat="44.78821604512632" lon="6.51118878275156">
        <time>2022-01-25T07:51:48+00:00</time>
        <ele>1580.0</ele>
      </trkpt>
      <trkpt lat="44.78821604512632" lon="6.51118878275156">
        <time>2022-01-25T07:51:52+00:00</time>
        <ele>1580.0</ele>
      </trkpt>
      <trkpt lat="44.788211015984416" lon="6.511183753609657">
        <time>2022-01-25T07:52:09+00:00</time>
        <ele>1580.0</ele>
      </trkpt>
      <trkpt lat="44.788206992670894" lon="6.51118291541934">
        <time>2022-01-25T07:52:13+00:00</time>
        <ele>1580.0</ele>
      </trkpt>
      <trkpt lat="44.7882048971951" lon="6.511179227381945">
        <time>2022-01-25T07:52:18+00:00</time>
        <ele>1581.0</ele>
      </trkpt>
      <trkpt lat="44.788181176409125" lon="6.511175958439708">
        <time>2022-01-25T07:52:31+00:00</time>
        <ele>1582.0</ele>
      </trkpt>
      <trkpt lat="44.78813876397908" lon="6.511187944561243">
        <time>2022-01-25T07:52:36+00:00</time>
        <ele>1584.0</ele>
      </trkpt>
      <trkpt lat="44.788118060678244" lon="6.511195907369256">
        <time>2022-01-25T07:52:38+00:00</time>
        <ele>1585.0</ele>
      </trkpt>
      <trkpt lat="44.788110265508294" lon="6.511199427768588">
        <time>2022-01-25T07:52:39+00:00</time>
        <ele>1585.0</ele>
      </trkpt>
      <trkpt lat="44.78810138069093" lon="6.511201690882444">
        <time>2022-01-25T07:52:40+00:00</time>
        <ele>1586.0</ele>
      </trkpt>
      <trkpt lat="44.788081934675574" lon="6.511205714195967">
        <time>2022-01-25T07:52:42+00:00</time>
        <ele>1586.0</ele>
      </trkpt>
      <trkpt lat="44.78809140622616" lon="6.511210156604648">
        <time>2022-01-25T07:52:48+00:00</time>
        <ele>1586.0</ele>
      </trkpt>
      <trkpt lat="44.78809165768325" lon="6.511210408061743">
        <time>2022-01-25T07:52:51+00:00</time>
        <ele>1586.0</ele>
      </trkpt>
      <trkpt lat="44.78809165768325" lon="6.511210408061743">
        <time>2022-01-25T07:52:55+00:00</time>
        <ele>1586.0</ele>
      </trkpt>
      <trkpt lat="44.78808847256005" lon="6.511210408061743">
        <time>2022-01-25T07:53:03+00:00</time>
        <ele>1586.0</ele>
      </trkpt>
      <trkpt lat="44.78808847256005" lon="6.511214347556233">
        <time>2022-01-25T07:53:09+00:00</time>
        <ele>1586.0</ele>
      </trkpt>
      <trkpt lat="44.78808864019811" lon="6.511222058907151">
        <time>2022-01-25T07:53:12+00:00</time>
        <ele>1586.0</ele>
      </trkpt>
      <trkpt lat="44.78809207677841" lon="6.511225327849388">
        <time>2022-01-25T07:53:16+00:00</time>
        <ele>1586.0</ele>
      </trkpt>
      <trkpt lat="44.788096100091934" lon="6.511226752772927">
        <time>2022-01-25T07:53:18+00:00</time>
        <ele>1585.0</ele>
      </trkpt>
      <trkpt lat="44.78810749948025" lon="6.511235553771257">
        <time>2022-01-25T07:53:21+00:00</time>
        <ele>1585.0</ele>
      </trkpt>
      <trkpt lat="44.78811043314636" lon="6.511240918189287">
        <time>2022-01-25T07:53:24+00:00</time>
        <ele>1584.0</ele>
      </trkpt>
      <trkpt lat="44.78812996298075" lon="6.51126891374588">
        <time>2022-01-25T07:53:40+00:00</time>
        <ele>1583.0</ele>
      </trkpt>
      <trkpt lat="44.78815058246255" lon="6.511247204616666">
        <time>2022-01-25T07:53:51+00:00</time>
        <ele>1582.0</ele>
      </trkpt>
      <trkpt lat="44.7881549410522" lon="6.51122591458261">
        <time>2022-01-25T07:53:56+00:00</time>
        <ele>1582.0</ele>
      </trkpt>
      <trkpt lat="44.788204142823815" lon="6.511232033371925">
        <time>2022-01-25T07:54:17+00:00</time>
        <ele>1580.0</ele>
      </trkpt>
      <trkpt lat="44.788153767585754" lon="6.511308224871755">
        <time>2022-01-25T07:54:28+00:00</time>
        <ele>1581.0</ele>
      </trkpt>
      <trkpt lat="44.78811697103083" lon="6.511347703635693">
        <time>2022-01-25T07:54:30+00:00</time>
        <ele>1582.0</ele>
      </trkpt>
      <trkpt lat="44.78810272179544" lon="6.511368155479431">
        <time>2022-01-25T07:54:31+00:00</time>
        <ele>1582.0</ele>
      </trkpt>
      <trkpt lat="44.788036085665226" lon="6.511447113007307">
        <time>2022-01-25T07:54:36+00:00</time>
        <ele>1584.0</ele>
      </trkpt>
      <trkpt lat="44.788024267181754" lon="6.511468905955553">
        <time>2022-01-25T07:54:38+00:00</time>
        <ele>1584.0</ele>
      </trkpt>
      <trkpt lat="44.78800448589027" lon="6.511499835178256">
        <time>2022-01-25T07:54:41+00:00</time>
        <ele>1585.0</ele>
      </trkpt>
      <trkpt lat="44.7879992891103" lon="6.511518694460392">
        <time>2022-01-25T07:54:43+00:00</time>
        <ele>1585.0</ele>
      </trkpt>
      <trkpt lat="44.787993086501956" lon="6.511525819078088">
        <time>2022-01-25T07:54:44+00:00</time>
        <ele>1585.0</ele>
      </trkpt>
      <trkpt lat="44.78798797354102" lon="6.511536547914147">
        <time>2022-01-25T07:54:45+00:00</time>
        <ele>1585.0</ele>
      </trkpt>
      <trkpt lat="44.787980765104294" lon="6.511580804362893">
        <time>2022-01-25T07:54:48+00:00</time>
        <ele>1584.0</ele>
      </trkpt>
      <trkpt lat="44.787976406514645" lon="6.511602681130171">
        <time>2022-01-25T07:54:50+00:00</time>
        <ele>1584.0</ele>
      </trkpt>
      <trkpt lat="44.78796576149762" lon="6.5116175170987844">
        <time>2022-01-25T07:54:51+00:00</time>
        <ele>1584.0</ele>
      </trkpt>
      <trkpt lat="44.78797732852399" lon="6.511675184592605">
        <time>2022-01-25T07:54:56+00:00</time>
        <ele>1583.0</ele>
      </trkpt>
      <trkpt lat="44.78797757998109" lon="6.51171600446105">
        <time>2022-01-25T07:54:59+00:00</time>
        <ele>1582.0</ele>
      </trkpt>
      <trkpt lat="44.78797674179077" lon="6.511725559830666">
        <time>2022-01-25T07:55:00+00:00</time>
        <ele>1582.0</ele>
      </trkpt>
      <trkpt lat="44.78797623887658" lon="6.51176780462265">
        <time>2022-01-25T07:55:03+00:00</time>
        <ele>1582.0</ele>
      </trkpt>
      <trkpt lat="44.78796400129795" lon="6.511820191517472">
        <time>2022-01-25T07:55:07+00:00</time>
        <ele>1582.0</ele>
      </trkpt>
      <trkpt lat="44.78794883005321" lon="6.511831507086754">
        <time>2022-01-25T07:55:09+00:00</time>
        <ele>1582.0</ele>
      </trkpt>
      <trkpt lat="44.78793810121715" lon="6.51183963753283">
        <time>2022-01-25T07:55:10+00:00</time>
        <ele>1582.0</ele>
      </trkpt>
      <trkpt lat="44.78793072514236" lon="6.511850114911795">
        <time>2022-01-25T07:55:11+00:00</time>
        <ele>1583.0</ele>
      </trkpt>
      <trkpt lat="44.78786626830697" lon="6.511898143216968">
        <time>2022-01-25T07:55:17+00:00</time>
        <ele>1585.0</ele>
      </trkpt>
      <trkpt lat="44.78785319253802" lon="6.511895461007953">
        <time>2022-01-25T07:55:18+00:00</time>
        <ele>1586.0</ele>
      </trkpt>
      <trkpt lat="44.787832237780094" lon="6.511884732171893">
        <time>2022-01-25T07:55:20+00:00</time>
        <ele>1587.0</ele>
      </trkpt>
      <trkpt lat="44.78783148340881" lon="6.511878948658705">
        <time>2022-01-25T07:55:21+00:00</time>
        <ele>1587.0</ele>
      </trkpt>
      <trkpt lat="44.7878285497427" lon="6.511868890374899">
        <time>2022-01-25T07:55:22+00:00</time>
        <ele>1588.0</ele>
      </trkpt>
      <trkpt lat="44.78782813064754" lon="6.511848019436002">
        <time>2022-01-25T07:55:24+00:00</time>
        <ele>1588.0</ele>
      </trkpt>
      <trkpt lat="44.78783559054136" lon="6.511824214830995">
        <time>2022-01-25T07:55:26+00:00</time>
        <ele>1588.0</ele>
      </trkpt>
      <trkpt lat="44.78784824721515" lon="6.511800661683083">
        <time>2022-01-25T07:55:28+00:00</time>
        <ele>1588.0</ele>
      </trkpt>
      <trkpt lat="44.787849336862564" lon="6.511789681389928">
        <time>2022-01-25T07:55:29+00:00</time>
        <ele>1588.0</ele>
      </trkpt>
      <trkpt lat="44.787799967452884" lon="6.511710053309798">
        <time>2022-01-25T07:55:35+00:00</time>
        <ele>1591.0</ele>
      </trkpt>
      <trkpt lat="44.787809858098626" lon="6.511633023619652">
        <time>2022-01-25T07:55:40+00:00</time>
        <ele>1592.0</ele>
      </trkpt>
      <trkpt lat="44.78780868463218" lon="6.511614164337516">
        <time>2022-01-25T07:55:41+00:00</time>
        <ele>1592.0</ele>
      </trkpt>
      <trkpt lat="44.78781002573669" lon="6.511603770777583">
        <time>2022-01-25T07:55:42+00:00</time>
        <ele>1592.0</ele>
      </trkpt>
      <trkpt lat="44.78782226331532" lon="6.511534787714481">
        <time>2022-01-25T07:55:46+00:00</time>
        <ele>1593.0</ele>
      </trkpt>
      <trkpt lat="44.78785051032901" lon="6.511497907340527">
        <time>2022-01-25T07:55:50+00:00</time>
        <ele>1592.0</ele>
      </trkpt>
      <trkpt lat="44.78785159997642" lon="6.5114679001271725">
        <time>2022-01-25T07:55:52+00:00</time>
        <ele>1592.0</ele>
      </trkpt>
      <trkpt lat="44.78785025887191" lon="6.5114525612443686">
        <time>2022-01-25T07:55:53+00:00</time>
        <ele>1593.0</ele>
      </trkpt>
      <trkpt lat="44.78786123916507" lon="6.511393468827009">
        <time>2022-01-25T07:55:58+00:00</time>
        <ele>1593.0</ele>
      </trkpt>
      <trkpt lat="44.78786777704954" lon="6.511382404714823">
        <time>2022-01-25T07:55:59+00:00</time>
        <ele>1593.0</ele>
      </trkpt>
      <trkpt lat="44.787882110103965" lon="6.511373184621334">
        <time>2022-01-25T07:56:00+00:00</time>
        <ele>1593.0</ele>
      </trkpt>
      <trkpt lat="44.787892419844866" lon="6.511361533775926">
        <time>2022-01-25T07:56:01+00:00</time>
        <ele>1592.0</ele>
      </trkpt>
      <trkpt lat="44.78789979591966" lon="6.5113492123782635">
        <time>2022-01-25T07:56:02+00:00</time>
        <ele>1592.0</ele>
      </trkpt>
      <trkpt lat="44.787901723757386" lon="6.511298501864076">
        <time>2022-01-25T07:56:05+00:00</time>
        <ele>1593.0</ele>
      </trkpt>
      <trkpt lat="44.787901137024164" lon="6.511280313134193">
        <time>2022-01-25T07:56:06+00:00</time>
        <ele>1594.0</ele>
      </trkpt>
      <trkpt lat="44.787898203358054" lon="6.511268578469753">
        <time>2022-01-25T07:56:07+00:00</time>
        <ele>1594.0</ele>
      </trkpt>
      <trkpt lat="44.787908513098955" lon="6.51125181466341">
        <time>2022-01-25T07:56:09+00:00</time>
        <ele>1594.0</ele>
      </trkpt>
      <trkpt lat="44.78791949339211" lon="6.511223316192627">
        <time>2022-01-25T07:56:11+00:00</time>
        <ele>1594.0</ele>
      </trkpt>
      <trkpt lat="44.78792049922049" lon="6.511165061965585">
        <time>2022-01-25T07:56:15+00:00</time>
        <ele>1594.0</ele>
      </trkpt>
      <trkpt lat="44.787918739020824" lon="6.511153830215335">
        <time>2022-01-25T07:56:16+00:00</time>
        <ele>1595.0</ele>
      </trkpt>
      <trkpt lat="44.78792443871498" lon="6.511131701990962">
        <time>2022-01-25T07:56:18+00:00</time>
        <ele>1595.0</ele>
      </trkpt>
      <trkpt lat="44.78794623166323" lon="6.511086355894804">
        <time>2022-01-25T07:56:22+00:00</time>
        <ele>1594.0</ele>
      </trkpt>
      <trkpt lat="44.787953021004796" lon="6.511055426672101">
        <time>2022-01-25T07:56:24+00:00</time>
        <ele>1595.0</ele>
      </trkpt>
      <trkpt lat="44.78794455528259" lon="6.511002788320184">
        <time>2022-01-25T07:56:28+00:00</time>
        <ele>1596.0</ele>
      </trkpt>
      <trkpt lat="44.78795452974737" lon="6.5109737031161785">
        <time>2022-01-25T07:56:30+00:00</time>
        <ele>1596.0</ele>
      </trkpt>
      <trkpt lat="44.78796500712633" lon="6.5109254233539104">
        <time>2022-01-25T07:56:35+00:00</time>
        <ele>1597.0</ele>
      </trkpt>
      <trkpt lat="44.78795947507024" lon="6.51090195402503">
        <time>2022-01-25T07:56:37+00:00</time>
        <ele>1597.0</ele>
      </trkpt>
      <trkpt lat="44.78795469738543" lon="6.51089365594089">
        <time>2022-01-25T07:56:38+00:00</time>
        <ele>1598.0</ele>
      </trkpt>
      <trkpt lat="44.78797129355371" lon="6.5108791552484035">
        <time>2022-01-25T07:56:43+00:00</time>
        <ele>1597.0</ele>
      </trkpt>
      <trkpt lat="44.787995014339685" lon="6.510826768353581">
        <time>2022-01-25T07:56:49+00:00</time>
        <ele>1597.0</ele>
      </trkpt>
      <trkpt lat="44.788005743175745" lon="6.5107684303075075">
        <time>2022-01-25T07:56:54+00:00</time>
        <ele>1598.0</ele>
      </trkpt>
      <trkpt lat="44.78801270015538" lon="6.510739009827375">
        <time>2022-01-25T07:56:56+00:00</time>
        <ele>1599.0</ele>
      </trkpt>
      <trkpt lat="44.78803977370262" lon="6.510659549385309">
        <time>2022-01-25T07:57:03+00:00</time>
        <ele>1600.0</ele>
      </trkpt>
      <trkpt lat="44.7880391869694" lon="6.510658375918865">
        <time>2022-01-25T07:57:04+00:00</time>
        <ele>1600.0</ele>
      </trkpt>
      <trkpt lat="44.78806022554636" lon="6.510657370090485">
        <time>2022-01-25T07:57:12+00:00</time>
        <ele>1599.0</ele>
      </trkpt>
      <trkpt lat="44.78806399740279" lon="6.510641109198332">
        <time>2022-01-25T07:57:14+00:00</time>
        <ele>1599.0</ele>
      </trkpt>
      <trkpt lat="44.78807481005788" lon="6.510594924911857">
        <time>2022-01-25T07:57:19+00:00</time>
        <ele>1600.0</ele>
      </trkpt>
      <trkpt lat="44.78809894993901" lon="6.510523678734899">
        <time>2022-01-25T07:57:24+00:00</time>
        <ele>1601.0</ele>
      </trkpt>
      <trkpt lat="44.7881047334522" lon="6.510513117536902">
        <time>2022-01-25T07:57:25+00:00</time>
        <ele>1601.0</ele>
      </trkpt>
      <trkpt lat="44.78814337402582" lon="6.510435668751597">
        <time>2022-01-25T07:57:31+00:00</time>
        <ele>1602.0</ele>
      </trkpt>
      <trkpt lat="44.78818721137941" lon="6.510404068976641">
        <time>2022-01-25T07:57:34+00:00</time>
        <ele>1601.0</ele>
      </trkpt>
      <trkpt lat="44.78819550946355" lon="6.510377498343587">
        <time>2022-01-25T07:57:37+00:00</time>
        <ele>1601.0</ele>
      </trkpt>
      <trkpt lat="44.788210513070226" lon="6.510338354855776">
        <time>2022-01-25T07:57:40+00:00</time>
        <ele>1601.0</ele>
      </trkpt>
      <trkpt lat="44.78823415003717" lon="6.510316981002688">
        <time>2022-01-25T07:57:43+00:00</time>
        <ele>1601.0</ele>
      </trkpt>
      <trkpt lat="44.78828016668558" lon="6.510241879150271">
        <time>2022-01-25T07:57:49+00:00</time>
        <ele>1602.0</ele>
      </trkpt>
      <trkpt lat="44.788280837237835" lon="6.510204328224063">
        <time>2022-01-25T07:57:52+00:00</time>
        <ele>1603.0</ele>
      </trkpt>
      <trkpt lat="44.78831629268825" lon="6.510159485042095">
        <time>2022-01-25T07:57:56+00:00</time>
        <ele>1603.0</ele>
      </trkpt>
      <trkpt lat="44.78834210895002" lon="6.510090585798025">
        <time>2022-01-25T07:58:03+00:00</time>
        <ele>1604.0</ele>
      </trkpt>
      <trkpt lat="44.78837722912431" lon="6.510015735402703">
        <time>2022-01-25T07:58:10+00:00</time>
        <ele>1605.0</ele>
      </trkpt>
      <trkpt lat="44.788394747301936" lon="6.50998187251389">
        <time>2022-01-25T07:58:13+00:00</time>
        <ele>1606.0</ele>
      </trkpt>
      <trkpt lat="44.78840187191963" lon="6.509893611073494">
        <time>2022-01-25T07:58:18+00:00</time>
        <ele>1608.0</ele>
      </trkpt>
      <trkpt lat="44.78841159492731" lon="6.509833177551627">
        <time>2022-01-25T07:58:24+00:00</time>
        <ele>1609.0</ele>
      </trkpt>
      <trkpt lat="44.788412349298596" lon="6.509824208915234">
        <time>2022-01-25T07:58:25+00:00</time>
        <ele>1609.0</ele>
      </trkpt>
      <trkpt lat="44.788438249379396" lon="6.509770313277841">
        <time>2022-01-25T07:58:29+00:00</time>
        <ele>1609.0</ele>
      </trkpt>
      <trkpt lat="44.788432298228145" lon="6.509751286357641">
        <time>2022-01-25T07:58:31+00:00</time>
        <ele>1610.0</ele>
      </trkpt>
      <trkpt lat="44.78843020275235" lon="6.509725470095873">
        <time>2022-01-25T07:58:33+00:00</time>
        <ele>1611.0</ele>
      </trkpt>
      <trkpt lat="44.78844193741679" lon="6.509658750146627">
        <time>2022-01-25T07:58:38+00:00</time>
        <ele>1612.0</ele>
      </trkpt>
      <trkpt lat="44.78845258243382" lon="6.509639136493206">
        <time>2022-01-25T07:58:40+00:00</time>
        <ele>1612.0</ele>
      </trkpt>
      <trkpt lat="44.78846641257405" lon="6.5096192713826895">
        <time>2022-01-25T07:58:42+00:00</time>
        <ele>1612.0</ele>
      </trkpt>
      <trkpt lat="44.7884710226208" lon="6.50959194637835">
        <time>2022-01-25T07:58:45+00:00</time>
        <ele>1612.0</ele>
      </trkpt>
      <trkpt lat="44.78847814723849" lon="6.509568393230438">
        <time>2022-01-25T07:58:47+00:00</time>
        <ele>1613.0</ele>
      </trkpt>
      <trkpt lat="44.78850161656737" lon="6.509550120681524">
        <time>2022-01-25T07:58:50+00:00</time>
        <ele>1612.0</ele>
      </trkpt>
      <trkpt lat="44.788519302383065" lon="6.509513072669506">
        <time>2022-01-25T07:58:53+00:00</time>
        <ele>1612.0</ele>
      </trkpt>
      <trkpt lat="44.78856045752764" lon="6.509456746280193">
        <time>2022-01-25T07:59:00+00:00</time>
        <ele>1611.0</ele>
      </trkpt>
      <trkpt lat="44.788572527468204" lon="6.509449789300561">
        <time>2022-01-25T07:59:01+00:00</time>
        <ele>1611.0</ele>
      </trkpt>
      <trkpt lat="44.78859331458807" lon="6.509446017444134">
        <time>2022-01-25T07:59:02+00:00</time>
        <ele>1610.0</ele>
      </trkpt>
      <trkpt lat="44.78863044641912" lon="6.5093871764838696">
        <time>2022-01-25T07:59:06+00:00</time>
        <ele>1610.0</ele>
      </trkpt>
      <trkpt lat="44.78865240700543" lon="6.509344931691885">
        <time>2022-01-25T07:59:10+00:00</time>
        <ele>1610.0</ele>
      </trkpt>
      <trkpt lat="44.788658106699586" lon="6.509334873408079">
        <time>2022-01-25T07:59:11+00:00</time>
        <ele>1610.0</ele>
      </trkpt>
      <trkpt lat="44.788670344278216" lon="6.509322468191385">
        <time>2022-01-25T07:59:12+00:00</time>
        <ele>1610.0</ele>
      </trkpt>
      <trkpt lat="44.78871292434633" lon="6.5092540718615055">
        <time>2022-01-25T07:59:19+00:00</time>
        <ele>1610.0</ele>
      </trkpt>
      <trkpt lat="44.78871803730726" lon="6.509242337197065">
        <time>2022-01-25T07:59:20+00:00</time>
        <ele>1610.0</ele>
      </trkpt>
      <trkpt lat="44.78873756714165" lon="6.509194560348988">
        <time>2022-01-25T07:59:25+00:00</time>
        <ele>1611.0</ele>
      </trkpt>
      <trkpt lat="44.78875273838639" lon="6.509181065484881">
        <time>2022-01-25T07:59:27+00:00</time>
        <ele>1610.0</ele>
      </trkpt>
      <trkpt lat="44.78877352550626" lon="6.509160529822111">
        <time>2022-01-25T07:59:30+00:00</time>
        <ele>1610.0</ele>
      </trkpt>
      <trkpt lat="44.788788529112935" lon="6.50914435274899">
        <time>2022-01-25T07:59:32+00:00</time>
        <ele>1610.0</ele>
      </trkpt>
      <trkpt lat="44.788798252120614" lon="6.509138233959675">
        <time>2022-01-25T07:59:33+00:00</time>
        <ele>1609.0</ele>
      </trkpt>
      <trkpt lat="44.78882574476302" lon="6.509130019694567">
        <time>2022-01-25T07:59:36+00:00</time>
        <ele>1608.0</ele>
      </trkpt>
      <trkpt lat="44.78884066455066" lon="6.509075202047825">
        <time>2022-01-25T07:59:40+00:00</time>
        <ele>1609.0</ele>
      </trkpt>
      <trkpt lat="44.78884452022612" lon="6.5090464521199465">
        <time>2022-01-25T07:59:42+00:00</time>
        <ele>1610.0</ele>
      </trkpt>
      <trkpt lat="44.788856422528625" lon="6.5090355556458235">
        <time>2022-01-25T07:59:43+00:00</time>
        <ele>1610.0</ele>
      </trkpt>
      <trkpt lat="44.78890009224415" lon="6.508958023041487">
        <time>2022-01-25T07:59:51+00:00</time>
        <ele>1611.0</ele>
      </trkpt>
      <trkpt lat="44.78892808780074" lon="6.508876550942659">
        <time>2022-01-25T07:59:57+00:00</time>
        <ele>1612.0</ele>
      </trkpt>
      <trkpt lat="44.788933703675866" lon="6.5088612120598555">
        <time>2022-01-25T07:59:58+00:00</time>
        <ele>1613.0</ele>
      </trkpt>
      <trkpt lat="44.788946360349655" lon="6.508799688890576">
        <time>2022-01-25T08:00:03+00:00</time>
        <ele>1614.0</ele>
      </trkpt>
      <trkpt lat="44.78894426487386" lon="6.5087775606662035">
        <time>2022-01-25T08:00:06+00:00</time>
        <ele>1615.0</ele>
      </trkpt>
      <trkpt lat="44.788939068093896" lon="6.50876515544951">
        <time>2022-01-25T08:00:08+00:00</time>
        <ele>1615.0</ele>
      </trkpt>
      <trkpt lat="44.788935547694564" lon="6.508764065802097">
        <time>2022-01-25T08:00:09+00:00</time>
        <ele>1616.0</ele>
      </trkpt>
      <trkpt lat="44.788918029516935" lon="6.508772280067205">
        <time>2022-01-25T08:00:11+00:00</time>
        <ele>1616.0</ele>
      </trkpt>
      <trkpt lat="44.788901936262846" lon="6.5087849367409945">
        <time>2022-01-25T08:00:12+00:00</time>
        <ele>1616.0</ele>
      </trkpt>
      <trkpt lat="44.78886891156435" lon="6.508809495717287">
        <time>2022-01-25T08:00:18+00:00</time>
        <ele>1617.0</ele>
      </trkpt>
      <trkpt lat="44.78886354714632" lon="6.508844029158354">
        <time>2022-01-25T08:00:21+00:00</time>
        <ele>1616.0</ele>
      </trkpt>
      <trkpt lat="44.788854494690895" lon="6.508889878168702">
        <time>2022-01-25T08:00:25+00:00</time>
        <ele>1615.0</ele>
      </trkpt>
      <trkpt lat="44.7888457775116" lon="6.508916951715946">
        <time>2022-01-25T08:00:27+00:00</time>
        <ele>1614.0</ele>
      </trkpt>
      <trkpt lat="44.78883161209524" lon="6.5089433547109365">
        <time>2022-01-25T08:00:30+00:00</time>
        <ele>1614.0</ele>
      </trkpt>
      <trkpt lat="44.78881451301277" lon="6.508963638916612">
        <time>2022-01-25T08:00:32+00:00</time>
        <ele>1614.0</ele>
      </trkpt>
      <trkpt lat="44.788804119452834" lon="6.508969673886895">
        <time>2022-01-25T08:00:33+00:00</time>
        <ele>1614.0</ele>
      </trkpt>
      <trkpt lat="44.78879707865417" lon="6.508975876495242">
        <time>2022-01-25T08:00:34+00:00</time>
        <ele>1615.0</ele>
      </trkpt>
      <trkpt lat="44.788733795285225" lon="6.509012170135975">
        <time>2022-01-25T08:00:40+00:00</time>
        <ele>1617.0</ele>
      </trkpt>
      <trkpt lat="44.78871543891728" lon="6.509014517068863">
        <time>2022-01-25T08:00:42+00:00</time>
        <ele>1617.0</ele>
      </trkpt>
      <trkpt lat="44.788669841364026" lon="6.509060198441148">
        <time>2022-01-25T08:00:48+00:00</time>
        <ele>1618.0</ele>
      </trkpt>
      <trkpt lat="44.78864419274032" lon="6.509080985561013">
        <time>2022-01-25T08:00:51+00:00</time>
        <ele>1619.0</ele>
      </trkpt>
      <trkpt lat="44.78864251635969" lon="6.509090289473534">
        <time>2022-01-25T08:00:52+00:00</time>
        <ele>1619.0</ele>
      </trkpt>
      <trkpt lat="44.78862566873431" lon="6.509123230352998">
        <time>2022-01-25T08:00:56+00:00</time>
        <ele>1619.0</ele>
      </trkpt>
      <trkpt lat="44.78861527517438" lon="6.509139575064182">
        <time>2022-01-25T08:00:58+00:00</time>
        <ele>1619.0</ele>
      </trkpt>
      <trkpt lat="44.788571102544665" lon="6.509173102676868">
        <time>2022-01-25T08:01:03+00:00</time>
        <ele>1620.0</ele>
      </trkpt>
      <trkpt lat="44.788559367880225" lon="6.50918978266418">
        <time>2022-01-25T08:01:05+00:00</time>
        <ele>1620.0</ele>
      </trkpt>
      <trkpt lat="44.7885294444859" lon="6.509219370782375">
        <time>2022-01-25T08:01:09+00:00</time>
        <ele>1620.0</ele>
      </trkpt>
      <trkpt lat="44.788524247705936" lon="6.5092287585139275">
        <time>2022-01-25T08:01:10+00:00</time>
        <ele>1620.0</ele>
      </trkpt>
      <trkpt lat="44.78850748389959" lon="6.5092455223202705">
        <time>2022-01-25T08:01:12+00:00</time>
        <ele>1620.0</ele>
      </trkpt>
      <trkpt lat="44.788497844710946" lon="6.509255999699235">
        <time>2022-01-25T08:01:13+00:00</time>
        <ele>1620.0</ele>
      </trkpt>
      <trkpt lat="44.78847940452397" lon="6.509281313046813">
        <time>2022-01-25T08:01:16+00:00</time>
        <ele>1620.0</ele>
      </trkpt>
      <trkpt lat="44.78846247307956" lon="6.509293466806412">
        <time>2022-01-25T08:01:18+00:00</time>
        <ele>1621.0</ele>
      </trkpt>
      <trkpt lat="44.78845048695803" lon="6.50929975323379">
        <time>2022-01-25T08:01:20+00:00</time>
        <ele>1621.0</ele>
      </trkpt>
      <trkpt lat="44.78843548335135" lon="6.509307632222772">
        <time>2022-01-25T08:01:22+00:00</time>
        <ele>1621.0</ele>
      </trkpt>
      <trkpt lat="44.78841360658407" lon="6.509318947792053">
        <time>2022-01-25T08:01:24+00:00</time>
        <ele>1622.0</ele>
      </trkpt>
      <trkpt lat="44.78838359937072" lon="6.509342836216092">
        <time>2022-01-25T08:01:27+00:00</time>
        <ele>1622.0</ele>
      </trkpt>
      <trkpt lat="44.78834747336805" lon="6.509376028552651">
        <time>2022-01-25T08:01:33+00:00</time>
        <ele>1623.0</ele>
      </trkpt>
      <trkpt lat="44.78832886554301" lon="6.509393127635121">
        <time>2022-01-25T08:01:36+00:00</time>
        <ele>1623.0</ele>
      </trkpt>
      <trkpt lat="44.788305228576064" lon="6.509433276951313">
        <time>2022-01-25T08:01:39+00:00</time>
        <ele>1623.0</ele>
      </trkpt>
      <trkpt lat="44.788294080644846" lon="6.509458674117923">
        <time>2022-01-25T08:01:41+00:00</time>
        <ele>1623.0</ele>
      </trkpt>
      <trkpt lat="44.788264241069555" lon="6.509464709088206">
        <time>2022-01-25T08:01:43+00:00</time>
        <ele>1624.0</ele>
      </trkpt>
      <trkpt lat="44.78825409896672" lon="6.509477533400059">
        <time>2022-01-25T08:01:44+00:00</time>
        <ele>1624.0</ele>
      </trkpt>
      <trkpt lat="44.78823943063617" lon="6.5095120668411255">
        <time>2022-01-25T08:01:47+00:00</time>
        <ele>1623.0</ele>
      </trkpt>
      <trkpt lat="44.78823507204652" lon="6.509556658565998">
        <time>2022-01-25T08:01:51+00:00</time>
        <ele>1622.0</ele>
      </trkpt>
      <trkpt lat="44.788226103410125" lon="6.50958850979805">
        <time>2022-01-25T08:01:54+00:00</time>
        <ele>1622.0</ele>
      </trkpt>
      <trkpt lat="44.78820472955704" lon="6.50962807238102">
        <time>2022-01-25T08:01:58+00:00</time>
        <ele>1622.0</ele>
      </trkpt>
      <trkpt lat="44.78820372372866" lon="6.50964324362576">
        <time>2022-01-25T08:01:59+00:00</time>
        <ele>1622.0</ele>
      </trkpt>
      <trkpt lat="44.788178745657206" lon="6.509700156748295">
        <time>2022-01-25T08:02:03+00:00</time>
        <ele>1621.0</ele>
      </trkpt>
      <trkpt lat="44.78816977702081" lon="6.509707449004054">
        <time>2022-01-25T08:02:04+00:00</time>
        <ele>1621.0</ele>
      </trkpt>
      <trkpt lat="44.78813214227557" lon="6.509727984666824">
        <time>2022-01-25T08:02:07+00:00</time>
        <ele>1622.0</ele>
      </trkpt>
      <trkpt lat="44.78804840706289" lon="6.50979520753026">
        <time>2022-01-25T08:02:15+00:00</time>
        <ele>1623.0</ele>
      </trkpt>
      <trkpt lat="44.78803625330329" lon="6.509799566119909">
        <time>2022-01-25T08:02:16+00:00</time>
        <ele>1624.0</ele>
      </trkpt>
      <trkpt lat="44.7879543621093" lon="6.50984650477767">
        <time>2022-01-25T08:02:23+00:00</time>
        <ele>1625.0</ele>
      </trkpt>
      <trkpt lat="44.787931479513645" lon="6.509862933307886">
        <time>2022-01-25T08:02:25+00:00</time>
        <ele>1625.0</ele>
      </trkpt>
      <trkpt lat="44.78791899047792" lon="6.509868297725916">
        <time>2022-01-25T08:02:26+00:00</time>
        <ele>1625.0</ele>
      </trkpt>
      <trkpt lat="44.78786224499345" lon="6.509925797581673">
        <time>2022-01-25T08:02:32+00:00</time>
        <ele>1625.0</ele>
      </trkpt>
      <trkpt lat="44.78783190250397" lon="6.50992764160037">
        <time>2022-01-25T08:02:35+00:00</time>
        <ele>1626.0</ele>
      </trkpt>
      <trkpt lat="44.787781024351716" lon="6.509954631328583">
        <time>2022-01-25T08:02:41+00:00</time>
        <ele>1626.0</ele>
      </trkpt>
      <trkpt lat="44.7877178248018" lon="6.509994193911552">
        <time>2022-01-25T08:02:46+00:00</time>
        <ele>1627.0</ele>
      </trkpt>
      <trkpt lat="44.78770022280514" lon="6.510006682947278">
        <time>2022-01-25T08:02:50+00:00</time>
        <ele>1627.0</ele>
      </trkpt>
      <trkpt lat="44.78769016452134" lon="6.510008694604039">
        <time>2022-01-25T08:02:52+00:00</time>
        <ele>1627.0</ele>
      </trkpt>
      <trkpt lat="44.78770022280514" lon="6.510025961324573">
        <time>2022-01-25T08:02:56+00:00</time>
        <ele>1627.0</ele>
      </trkpt>
      <trkpt lat="44.78764431551099" lon="6.5100590698421">
        <time>2022-01-25T08:03:02+00:00</time>
        <ele>1627.0</ele>
      </trkpt>
      <trkpt lat="44.78763752616942" lon="6.510065104812384">
        <time>2022-01-25T08:03:03+00:00</time>
        <ele>1627.0</ele>
      </trkpt>
      <trkpt lat="44.78760693222284" lon="6.5100745763629675">
        <time>2022-01-25T08:03:06+00:00</time>
        <ele>1628.0</ele>
      </trkpt>
      <trkpt lat="44.78756703436375" lon="6.510090418159962">
        <time>2022-01-25T08:03:10+00:00</time>
        <ele>1629.0</ele>
      </trkpt>
      <trkpt lat="44.78755831718445" lon="6.51009863242507">
        <time>2022-01-25T08:03:11+00:00</time>
        <ele>1629.0</ele>
      </trkpt>
      <trkpt lat="44.7875486779958" lon="6.510102823376656">
        <time>2022-01-25T08:03:12+00:00</time>
        <ele>1629.0</ele>
      </trkpt>
      <trkpt lat="44.78751263581216" lon="6.510122688487172">
        <time>2022-01-25T08:03:17+00:00</time>
        <ele>1630.0</ele>
      </trkpt>
      <trkpt lat="44.78749746456742" lon="6.510131321847439">
        <time>2022-01-25T08:03:19+00:00</time>
        <ele>1630.0</ele>
      </trkpt>
      <trkpt lat="44.78748941794038" lon="6.510137859731913">
        <time>2022-01-25T08:03:20+00:00</time>
        <ele>1630.0</ele>
      </trkpt>
      <trkpt lat="44.787470223382115" lon="6.510145403444767">
        <time>2022-01-25T08:03:23+00:00</time>
        <ele>1631.0</ele>
      </trkpt>
      <trkpt lat="44.787411550059915" lon="6.510204998776317">
        <time>2022-01-25T08:03:29+00:00</time>
        <ele>1631.0</ele>
      </trkpt>
      <trkpt lat="44.78739654645324" lon="6.510212542489171">
        <time>2022-01-25T08:03:30+00:00</time>
        <ele>1632.0</ele>
      </trkpt>
      <trkpt lat="44.787313900887966" lon="6.510233581066132">
        <time>2022-01-25T08:03:37+00:00</time>
        <ele>1635.0</ele>
      </trkpt>
      <trkpt lat="44.7873052675277" lon="6.510232910513878">
        <time>2022-01-25T08:03:38+00:00</time>
        <ele>1635.0</ele>
      </trkpt>
      <trkpt lat="44.78729713708162" lon="6.5102121233940125">
        <time>2022-01-25T08:03:44+00:00</time>
        <ele>1636.0</ele>
      </trkpt>
      <trkpt lat="44.78725723922253" lon="6.510212291032076">
        <time>2022-01-25T08:03:50+00:00</time>
        <ele>1637.0</ele>
      </trkpt>
      <trkpt lat="44.787253215909004" lon="6.510220086202025">
        <time>2022-01-25T08:03:51+00:00</time>
        <ele>1637.0</ele>
      </trkpt>
      <trkpt lat="44.787246426567435" lon="6.510237772017717">
        <time>2022-01-25T08:03:53+00:00</time>
        <ele>1637.0</ele>
      </trkpt>
      <trkpt lat="44.787249779328704" lon="6.51023056358099">
        <time>2022-01-25T08:03:58+00:00</time>
        <ele>1637.0</ele>
      </trkpt>
      <trkpt lat="44.787236200645566" lon="6.510234754532576">
        <time>2022-01-25T08:03:59+00:00</time>
        <ele>1637.0</ele>
      </trkpt>
      <trkpt lat="44.78720258921385" lon="6.510243555530906">
        <time>2022-01-25T08:04:02+00:00</time>
        <ele>1638.0</ele>
      </trkpt>
      <trkpt lat="44.78719630278647" lon="6.510246908292174">
        <time>2022-01-25T08:04:03+00:00</time>
        <ele>1639.0</ele>
      </trkpt>
      <trkpt lat="44.78716956451535" lon="6.510266941040754">
        <time>2022-01-25T08:04:06+00:00</time>
        <ele>1639.0</ele>
      </trkpt>
      <trkpt lat="44.78714006021619" lon="6.510277334600687">
        <time>2022-01-25T08:04:09+00:00</time>
        <ele>1640.0</ele>
      </trkpt>
      <trkpt lat="44.787126732990146" lon="6.51027943007648">
        <time>2022-01-25T08:04:10+00:00</time>
        <ele>1641.0</ele>
      </trkpt>
      <trkpt lat="44.78709697723389" lon="6.510284123942256">
        <time>2022-01-25T08:04:13+00:00</time>
        <ele>1642.0</ele>
      </trkpt>
      <trkpt lat="44.78705573827028" lon="6.510291248559952">
        <time>2022-01-25T08:04:17+00:00</time>
        <ele>1643.0</ele>
      </trkpt>
      <trkpt lat="44.78702841326594" lon="6.510308934375644">
        <time>2022-01-25T08:04:20+00:00</time>
        <ele>1644.0</ele>
      </trkpt>
      <trkpt lat="44.787021623924375" lon="6.510333074256778">
        <time>2022-01-25T08:04:22+00:00</time>
        <ele>1643.0</ele>
      </trkpt>
      <trkpt lat="44.78701257146895" lon="6.510342210531235">
        <time>2022-01-25T08:04:23+00:00</time>
        <ele>1644.0</ele>
      </trkpt>
      <trkpt lat="44.78698926977813" lon="6.510370289906859">
        <time>2022-01-25T08:04:26+00:00</time>
        <ele>1644.0</ele>
      </trkpt>
      <trkpt lat="44.78698901832104" lon="6.510378336533904">
        <time>2022-01-25T08:04:28+00:00</time>
        <ele>1644.0</ele>
      </trkpt>
      <trkpt lat="44.78698365390301" lon="6.51038495823741">
        <time>2022-01-25T08:04:29+00:00</time>
        <ele>1644.0</ele>
      </trkpt>
      <trkpt lat="44.78698826394975" lon="6.510401219129562">
        <time>2022-01-25T08:04:31+00:00</time>
        <ele>1644.0</ele>
      </trkpt>
      <trkpt lat="44.78698977269232" lon="6.510403985157609">
        <time>2022-01-25T08:04:32+00:00</time>
        <ele>1644.0</ele>
      </trkpt>
      <trkpt lat="44.786974266171455" lon="6.510432735085487">
        <time>2022-01-25T08:04:36+00:00</time>
        <ele>1644.0</ele>
      </trkpt>
      <trkpt lat="44.78695540688932" lon="6.510452851653099">
        <time>2022-01-25T08:04:41+00:00</time>
        <ele>1644.0</ele>
      </trkpt>
      <trkpt lat="44.78694065473974" lon="6.51050565764308">
        <time>2022-01-25T08:04:47+00:00</time>
        <ele>1644.0</ele>
      </trkpt>
      <trkpt lat="44.78693495504558" lon="6.5105475671589375">
        <time>2022-01-25T08:04:50+00:00</time>
        <ele>1644.0</ele>
      </trkpt>
      <trkpt lat="44.78693327866495" lon="6.5105598885566">
        <time>2022-01-25T08:04:51+00:00</time>
        <ele>1644.0</ele>
      </trkpt>
      <trkpt lat="44.78693143464625" lon="6.510588638484478">
        <time>2022-01-25T08:04:54+00:00</time>
        <ele>1644.0</ele>
      </trkpt>
      <trkpt lat="44.786921963095665" lon="6.510607162490487">
        <time>2022-01-25T08:04:56+00:00</time>
        <ele>1644.0</ele>
      </trkpt>
      <trkpt lat="44.78688005357981" lon="6.510708499699831">
        <time>2022-01-25T08:05:04+00:00</time>
        <ele>1644.0</ele>
      </trkpt>
      <trkpt lat="44.786877036094666" lon="6.5107219107449055">
        <time>2022-01-25T08:05:05+00:00</time>
        <ele>1644.0</ele>
      </trkpt>
      <trkpt lat="44.78684292174876" lon="6.51080715470016">
        <time>2022-01-25T08:05:12+00:00</time>
        <ele>1644.0</ele>
      </trkpt>
      <trkpt lat="44.78682925924659" lon="6.510913018137217">
        <time>2022-01-25T08:05:19+00:00</time>
        <ele>1643.0</ele>
      </trkpt>
      <trkpt lat="44.78682464919984" lon="6.510927518829703">
        <time>2022-01-25T08:05:20+00:00</time>
        <ele>1643.0</ele>
      </trkpt>
      <trkpt lat="44.786821799352765" lon="6.510958448052406">
        <time>2022-01-25T08:05:22+00:00</time>
        <ele>1642.0</ele>
      </trkpt>
      <trkpt lat="44.78680872358382" lon="6.5109766367822886">
        <time>2022-01-25T08:05:24+00:00</time>
        <ele>1643.0</ele>
      </trkpt>
      <trkpt lat="44.786798832938075" lon="6.510999351739883">
        <time>2022-01-25T08:05:26+00:00</time>
        <ele>1643.0</ele>
      </trkpt>
      <trkpt lat="44.786794893443584" lon="6.511028353124857">
        <time>2022-01-25T08:05:28+00:00</time>
        <ele>1642.0</ele>
      </trkpt>
      <trkpt lat="44.78678156621754" lon="6.511075710877776">
        <time>2022-01-25T08:05:31+00:00</time>
        <ele>1642.0</ele>
      </trkpt>
      <trkpt lat="44.786751894280314" lon="6.511141005903482">
        <time>2022-01-25T08:05:36+00:00</time>
        <ele>1642.0</ele>
      </trkpt>
      <trkpt lat="44.786681989207864" lon="6.511219209060073">
        <time>2022-01-25T08:05:42+00:00</time>
        <ele>1643.0</ele>
      </trkpt>
      <trkpt lat="44.786640079692006" lon="6.511224657297134">
        <time>2022-01-25T08:05:45+00:00</time>
        <ele>1644.0</ele>
      </trkpt>
      <trkpt lat="44.78662951849401" lon="6.511221220716834">
        <time>2022-01-25T08:05:46+00:00</time>
        <ele>1644.0</ele>
      </trkpt>
      <trkpt lat="44.78655877523124" lon="6.511201271787286">
        <time>2022-01-25T08:05:53+00:00</time>
        <ele>1646.0</ele>
      </trkpt>
      <trkpt lat="44.78654829785228" lon="6.5111789759248495">
        <time>2022-01-25T08:05:55+00:00</time>
        <ele>1646.0</ele>
      </trkpt>
      <trkpt lat="44.78653907775879" lon="6.511167241260409">
        <time>2022-01-25T08:05:57+00:00</time>
        <ele>1646.0</ele>
      </trkpt>
      <trkpt lat="44.786469507962465" lon="6.511158021166921">
        <time>2022-01-25T08:06:05+00:00</time>
        <ele>1648.0</ele>
      </trkpt>
      <trkpt lat="44.78646229952574" lon="6.511155925691128">
        <time>2022-01-25T08:06:06+00:00</time>
        <ele>1648.0</ele>
      </trkpt>
      <trkpt lat="44.786416282877326" lon="6.51116531342268">
        <time>2022-01-25T08:06:14+00:00</time>
        <ele>1649.0</ele>
      </trkpt>
      <trkpt lat="44.78640337474644" lon="6.51116481050849">
        <time>2022-01-25T08:06:20+00:00</time>
        <ele>1649.0</ele>
      </trkpt>
      <trkpt lat="44.78640463203192" lon="6.511166067793965">
        <time>2022-01-25T08:06:23+00:00</time>
        <ele>1649.0</ele>
      </trkpt>
      <trkpt lat="44.786405554041266" lon="6.511172940954566">
        <time>2022-01-25T08:06:28+00:00</time>
        <ele>1649.0</ele>
      </trkpt>
      <trkpt lat="44.78640295565128" lon="6.511166989803314">
        <time>2022-01-25T08:06:42+00:00</time>
        <ele>1649.0</ele>
      </trkpt>
      <trkpt lat="44.786358028650284" lon="6.511144358664751">
        <time>2022-01-25T08:06:50+00:00</time>
        <ele>1650.0</ele>
      </trkpt>
      <trkpt lat="44.78632181882858" lon="6.51114041917026">
        <time>2022-01-25T08:06:53+00:00</time>
        <ele>1650.0</ele>
      </trkpt>
      <trkpt lat="44.78628108277917" lon="6.511144358664751">
        <time>2022-01-25T08:06:59+00:00</time>
        <ele>1651.0</ele>
      </trkpt>
      <trkpt lat="44.78626834228635" lon="6.511153494939208">
        <time>2022-01-25T08:07:01+00:00</time>
        <ele>1651.0</ele>
      </trkpt>
      <trkpt lat="44.7862605471164" lon="6.511158021166921">
        <time>2022-01-25T08:07:02+00:00</time>
        <ele>1651.0</ele>
      </trkpt>
      <trkpt lat="44.786248644813895" lon="6.511169420555234">
        <time>2022-01-25T08:07:05+00:00</time>
        <ele>1650.0</ele>
      </trkpt>
      <trkpt lat="44.78621947579086" lon="6.511196997016668">
        <time>2022-01-25T08:07:09+00:00</time>
        <ele>1650.0</ele>
      </trkpt>
      <trkpt lat="44.78620355017483" lon="6.511199763044715">
        <time>2022-01-25T08:07:11+00:00</time>
        <ele>1650.0</ele>
      </trkpt>
      <trkpt lat="44.78618192486465" lon="6.511202026158571">
        <time>2022-01-25T08:07:15+00:00</time>
        <ele>1650.0</ele>
      </trkpt>
      <trkpt lat="44.786177230998874" lon="6.5112075582146645">
        <time>2022-01-25T08:07:17+00:00</time>
        <ele>1650.0</ele>
      </trkpt>
      <trkpt lat="44.78615418076515" lon="6.511192722246051">
        <time>2022-01-25T08:07:22+00:00</time>
        <ele>1650.0</ele>
      </trkpt>
      <trkpt lat="44.78615518659353" lon="6.511165900155902">
        <time>2022-01-25T08:07:24+00:00</time>
        <ele>1650.0</ele>
      </trkpt>
      <trkpt lat="44.78615962900221" lon="6.5110947377979755">
        <time>2022-01-25T08:07:31+00:00</time>
        <ele>1652.0</ele>
      </trkpt>
      <trkpt lat="44.78615686297417" lon="6.511091468855739">
        <time>2022-01-25T08:07:32+00:00</time>
        <ele>1652.0</ele>
      </trkpt>
      <trkpt lat="44.78613959625363" lon="6.511081997305155">
        <time>2022-01-25T08:07:37+00:00</time>
        <ele>1651.0</ele>
      </trkpt>
      <trkpt lat="44.78613783605397" lon="6.511071939021349">
        <time>2022-01-25T08:07:38+00:00</time>
        <ele>1652.0</ele>
      </trkpt>
      <trkpt lat="44.78613859042525" lon="6.5110700111836195">
        <time>2022-01-25T08:07:39+00:00</time>
        <ele>1652.0</ele>
      </trkpt>
      <trkpt lat="44.78613934479654" lon="6.511067915707827">
        <time>2022-01-25T08:07:47+00:00</time>
        <ele>1652.0</ele>
      </trkpt>
      <trkpt lat="44.78613934479654" lon="6.511067915707827">
        <time>2022-01-25T08:07:48+00:00</time>
        <ele>1652.0</ele>
      </trkpt>
      <trkpt lat="44.78613414801657" lon="6.5110485535115">
        <time>2022-01-25T08:07:51+00:00</time>
        <ele>1652.0</ele>
      </trkpt>
      <trkpt lat="44.78613205254078" lon="6.511018797755241">
        <time>2022-01-25T08:07:54+00:00</time>
        <ele>1653.0</ele>
      </trkpt>
      <trkpt lat="44.78612861596048" lon="6.511005386710167">
        <time>2022-01-25T08:07:55+00:00</time>
        <ele>1653.0</ele>
      </trkpt>
      <trkpt lat="44.78611830621958" lon="6.510973535478115">
        <time>2022-01-25T08:07:57+00:00</time>
        <ele>1653.0</ele>
      </trkpt>
      <trkpt lat="44.78609106503427" lon="6.510925842449069">
        <time>2022-01-25T08:08:02+00:00</time>
        <ele>1654.0</ele>
      </trkpt>
      <trkpt lat="44.78608209639788" lon="6.510901786386967">
        <time>2022-01-25T08:08:05+00:00</time>
        <ele>1655.0</ele>
      </trkpt>
      <trkpt lat="44.78607974946499" lon="6.510894661769271">
        <time>2022-01-25T08:08:06+00:00</time>
        <ele>1655.0</ele>
      </trkpt>
      <trkpt lat="44.78605535812676" lon="6.510856859385967">
        <time>2022-01-25T08:08:12+00:00</time>
        <ele>1656.0</ele>
      </trkpt>
      <trkpt lat="44.78604597039521" lon="6.510791815817356">
        <time>2022-01-25T08:08:19+00:00</time>
        <ele>1657.0</ele>
      </trkpt>
      <trkpt lat="44.78604739531875" lon="6.510767340660095">
        <time>2022-01-25T08:08:21+00:00</time>
        <ele>1658.0</ele>
      </trkpt>
      <trkpt lat="44.78603029623628" lon="6.510727275162935">
        <time>2022-01-25T08:08:27+00:00</time>
        <ele>1659.0</ele>
      </trkpt>
      <trkpt lat="44.786011604592204" lon="6.510663069784641">
        <time>2022-01-25T08:08:34+00:00</time>
        <ele>1661.0</ele>
      </trkpt>
      <trkpt lat="44.78600699454546" lon="6.510649994015694">
        <time>2022-01-25T08:08:35+00:00</time>
        <ele>1661.0</ele>
      </trkpt>
      <trkpt lat="44.78599274531007" lon="6.510614035651088">
        <time>2022-01-25T08:08:41+00:00</time>
        <ele>1663.0</ele>
      </trkpt>
      <trkpt lat="44.785985201597214" lon="6.510607162490487">
        <time>2022-01-25T08:08:43+00:00</time>
        <ele>1663.0</ele>
      </trkpt>
      <trkpt lat="44.78597120381892" lon="6.510601211339235">
        <time>2022-01-25T08:08:45+00:00</time>
        <ele>1663.0</ele>
      </trkpt>
      <trkpt lat="44.78594454936683" lon="6.510585453361273">
        <time>2022-01-25T08:08:50+00:00</time>
        <ele>1663.0</ele>
      </trkpt>
      <trkpt lat="44.785934910178185" lon="6.510572712868452">
        <time>2022-01-25T08:08:52+00:00</time>
        <ele>1663.0</ele>
      </trkpt>
      <trkpt lat="44.78590968064964" lon="6.51055209338665">
        <time>2022-01-25T08:08:56+00:00</time>
        <ele>1663.0</ele>
      </trkpt>
      <trkpt lat="44.785908507183194" lon="6.5105481538921595">
        <time>2022-01-25T08:08:57+00:00</time>
        <ele>1663.0</ele>
      </trkpt>
      <trkpt lat="44.78590280748904" lon="6.510529210790992">
        <time>2022-01-25T08:08:59+00:00</time>
        <ele>1664.0</ele>
      </trkpt>
      <trkpt lat="44.785895347595215" lon="6.510500628501177">
        <time>2022-01-25T08:09:02+00:00</time>
        <ele>1664.0</ele>
      </trkpt>
      <trkpt lat="44.78589300066233" lon="6.5104874689131975">
        <time>2022-01-25T08:09:03+00:00</time>
        <ele>1665.0</ele>
      </trkpt>
      <trkpt lat="44.78588352911174" lon="6.510463999584317">
        <time>2022-01-25T08:09:06+00:00</time>
        <ele>1666.0</ele>
      </trkpt>
      <trkpt lat="44.78587883524597" lon="6.510438602417707">
        <time>2022-01-25T08:09:09+00:00</time>
        <ele>1666.0</ele>
      </trkpt>
      <trkpt lat="44.78587640449405" lon="6.5104338247329">
        <time>2022-01-25T08:09:10+00:00</time>
        <ele>1666.0</ele>
      </trkpt>
      <trkpt lat="44.78586718440056" lon="6.51042259298265">
        <time>2022-01-25T08:09:13+00:00</time>
        <ele>1667.0</ele>
      </trkpt>
      <trkpt lat="44.785865088924766" lon="6.510413037613034">
        <time>2022-01-25T08:09:14+00:00</time>
        <ele>1667.0</ele>
      </trkpt>
      <trkpt lat="44.78585469536483" lon="6.510400716215372">
        <time>2022-01-25T08:09:17+00:00</time>
        <ele>1667.0</ele>
      </trkpt>
      <trkpt lat="44.78584983386099" lon="6.51039719581604">
        <time>2022-01-25T08:09:18+00:00</time>
        <ele>1668.0</ele>
      </trkpt>
      <trkpt lat="44.78583935648203" lon="6.510366182774305">
        <time>2022-01-25T08:09:22+00:00</time>
        <ele>1669.0</ele>
      </trkpt>
      <trkpt lat="44.78583415970206" lon="6.510320920497179">
        <time>2022-01-25T08:09:29+00:00</time>
        <ele>1670.0</ele>
      </trkpt>
      <trkpt lat="44.78583063930273" lon="6.510313460603356">
        <time>2022-01-25T08:09:30+00:00</time>
        <ele>1671.0</ele>
      </trkpt>
      <trkpt lat="44.785822089761496" lon="6.510269455611706">
        <time>2022-01-25T08:09:35+00:00</time>
        <ele>1672.0</ele>
      </trkpt>
      <trkpt lat="44.78582317940891" lon="6.5102471597492695">
        <time>2022-01-25T08:09:38+00:00</time>
        <ele>1673.0</ele>
      </trkpt>
      <trkpt lat="44.7858096845448" lon="6.510234754532576">
        <time>2022-01-25T08:09:41+00:00</time>
        <ele>1674.0</ele>
      </trkpt>
      <trkpt lat="44.785778084769845" lon="6.510203490033746">
        <time>2022-01-25T08:09:47+00:00</time>
        <ele>1675.0</ele>
      </trkpt>
      <trkpt lat="44.785779090598226" lon="6.5101502649486065">
        <time>2022-01-25T08:09:53+00:00</time>
        <ele>1676.0</ele>
      </trkpt>
      <trkpt lat="44.78577045723796" lon="6.51014456525445">
        <time>2022-01-25T08:09:55+00:00</time>
        <ele>1677.0</ele>
      </trkpt>
      <trkpt lat="44.78574380278587" lon="6.510152276605368">
        <time>2022-01-25T08:09:59+00:00</time>
        <ele>1676.0</ele>
      </trkpt>
      <trkpt lat="44.78572620078921" lon="6.5101485047489405">
        <time>2022-01-25T08:10:01+00:00</time>
        <ele>1676.0</ele>
      </trkpt>
      <trkpt lat="44.78571044281125" lon="6.510153450071812">
        <time>2022-01-25T08:10:03+00:00</time>
        <ele>1676.0</ele>
      </trkpt>
      <trkpt lat="44.78569426573813" lon="6.510123945772648">
        <time>2022-01-25T08:10:06+00:00</time>
        <ele>1677.0</ele>
      </trkpt>
      <trkpt lat="44.78568454273045" lon="6.510099219158292">
        <time>2022-01-25T08:10:08+00:00</time>
        <ele>1678.0</ele>
      </trkpt>
      <trkpt lat="44.78568253107369" lon="6.51005269959569">
        <time>2022-01-25T08:10:12+00:00</time>
        <ele>1679.0</ele>
      </trkpt>
      <trkpt lat="44.78568789549172" lon="6.509979609400034">
        <time>2022-01-25T08:10:17+00:00</time>
        <ele>1682.0</ele>
      </trkpt>
      <trkpt lat="44.785688649863005" lon="6.509955720975995">
        <time>2022-01-25T08:10:19+00:00</time>
        <ele>1683.0</ele>
      </trkpt>
      <trkpt lat="44.78569225408137" lon="6.5099255461245775">
        <time>2022-01-25T08:10:22+00:00</time>
        <ele>1684.0</ele>
      </trkpt>
      <trkpt lat="44.785694517195225" lon="6.509912805631757">
        <time>2022-01-25T08:10:24+00:00</time>
        <ele>1684.0</ele>
      </trkpt>
      <trkpt lat="44.785691080614924" lon="6.509871147572994">
        <time>2022-01-25T08:10:29+00:00</time>
        <ele>1686.0</ele>
      </trkpt>
      <trkpt lat="44.78568898513913" lon="6.509863352403045">
        <time>2022-01-25T08:10:30+00:00</time>
        <ele>1686.0</ele>
      </trkpt>
      <trkpt lat="44.78568588383496" lon="6.509846588596702">
        <time>2022-01-25T08:10:33+00:00</time>
        <ele>1686.0</ele>
      </trkpt>
      <trkpt lat="44.78568437509239" lon="6.509823454543948">
        <time>2022-01-25T08:10:35+00:00</time>
        <ele>1687.0</ele>
      </trkpt>
      <trkpt lat="44.785683788359165" lon="6.509813312441111">
        <time>2022-01-25T08:10:36+00:00</time>
        <ele>1687.0</ele>
      </trkpt>
      <trkpt lat="44.78568462654948" lon="6.509800152853131">
        <time>2022-01-25T08:10:37+00:00</time>
        <ele>1688.0</ele>
      </trkpt>
      <trkpt lat="44.78568932041526" lon="6.509764362126589">
        <time>2022-01-25T08:10:41+00:00</time>
        <ele>1689.0</ele>
      </trkpt>
      <trkpt lat="44.78569200262427" lon="6.509744916111231">
        <time>2022-01-25T08:10:43+00:00</time>
        <ele>1689.0</ele>
      </trkpt>
      <trkpt lat="44.78569535538554" lon="6.509718094021082">
        <time>2022-01-25T08:10:46+00:00</time>
        <ele>1690.0</ele>
      </trkpt>
      <trkpt lat="44.78570030070841" lon="6.509698983281851">
        <time>2022-01-25T08:10:49+00:00</time>
        <ele>1691.0</ele>
      </trkpt>
      <trkpt lat="44.78570214472711" lon="6.509652798995376">
        <time>2022-01-25T08:10:52+00:00</time>
        <ele>1692.0</ele>
      </trkpt>
      <trkpt lat="44.78570348583162" lon="6.509640729054809">
        <time>2022-01-25T08:10:53+00:00</time>
        <ele>1692.0</ele>
      </trkpt>
      <trkpt lat="44.78570893406868" lon="6.509597729891539">
        <time>2022-01-25T08:10:56+00:00</time>
        <ele>1693.0</ele>
      </trkpt>
      <trkpt lat="44.78572469204664" lon="6.509544588625431">
        <time>2022-01-25T08:11:01+00:00</time>
        <ele>1694.0</ele>
      </trkpt>
      <trkpt lat="44.78573273867369" lon="6.5095220413059">
        <time>2022-01-25T08:11:03+00:00</time>
        <ele>1695.0</ele>
      </trkpt>
      <trkpt lat="44.785736091434956" lon="6.509437803179026">
        <time>2022-01-25T08:11:09+00:00</time>
        <ele>1697.0</ele>
      </trkpt>
      <trkpt lat="44.78573835454881" lon="6.509413495659828">
        <time>2022-01-25T08:11:11+00:00</time>
        <ele>1697.0</ele>
      </trkpt>
      <trkpt lat="44.785750759765506" lon="6.509363288059831">
        <time>2022-01-25T08:11:17+00:00</time>
        <ele>1698.0</ele>
      </trkpt>
      <trkpt lat="44.78574497625232" lon="6.509352307766676">
        <time>2022-01-25T08:11:24+00:00</time>
        <ele>1699.0</ele>
      </trkpt>
      <trkpt lat="44.78573583997786" lon="6.50935054756701">
        <time>2022-01-25T08:11:26+00:00</time>
        <ele>1699.0</ele>
      </trkpt>
      <trkpt lat="44.78571723215282" lon="6.5093412436544895">
        <time>2022-01-25T08:11:30+00:00</time>
        <ele>1699.0</ele>
      </trkpt>
      <trkpt lat="44.7857129573822" lon="6.509334789589047">
        <time>2022-01-25T08:11:31+00:00</time>
        <ele>1700.0</ele>
      </trkpt>
      <trkpt lat="44.7856801841408" lon="6.50935591198504">
        <time>2022-01-25T08:11:38+00:00</time>
        <ele>1700.0</ele>
      </trkpt>
      <trkpt lat="44.785641292110085" lon="6.5093630366027355">
        <time>2022-01-25T08:11:46+00:00</time>
        <ele>1700.0</ele>
      </trkpt>
      <trkpt lat="44.78562184609473" lon="6.509383153170347">
        <time>2022-01-25T08:11:50+00:00</time>
        <ele>1700.0</ele>
      </trkpt>
      <trkpt lat="44.78560399264097" lon="6.509410729631782">
        <time>2022-01-25T08:11:54+00:00</time>
        <ele>1699.0</ele>
      </trkpt>
      <trkpt lat="44.78560374118388" lon="6.509425146505237">
        <time>2022-01-25T08:11:56+00:00</time>
        <ele>1699.0</ele>
      </trkpt>
      <trkpt lat="44.78560684248805" lon="6.509434450417757">
        <time>2022-01-25T08:11:57+00:00</time>
        <ele>1699.0</ele>
      </trkpt>
      <trkpt lat="44.785606507211924" lon="6.509459847584367">
        <time>2022-01-25T08:11:59+00:00</time>
        <ele>1698.0</ele>
      </trkpt>
      <trkpt lat="44.785593347623944" lon="6.5094708278775215">
        <time>2022-01-25T08:12:01+00:00</time>
        <ele>1698.0</ele>
      </trkpt>
      <trkpt lat="44.78554825298488" lon="6.509486753493547">
        <time>2022-01-25T08:12:08+00:00</time>
        <ele>1698.0</ele>
      </trkpt>
      <trkpt lat="44.78554657660425" lon="6.509475857019424">
        <time>2022-01-25T08:12:09+00:00</time>
        <ele>1698.0</ele>
      </trkpt>
      <trkpt lat="44.78554314002395" lon="6.509425397962332">
        <time>2022-01-25T08:12:14+00:00</time>
        <ele>1699.0</ele>
      </trkpt>
      <trkpt lat="44.78555244393647" lon="6.509411316365004">
        <time>2022-01-25T08:12:17+00:00</time>
        <ele>1700.0</ele>
      </trkpt>
      <trkpt lat="44.785553365945816" lon="6.509390948340297">
        <time>2022-01-25T08:12:21+00:00</time>
        <ele>1700.0</ele>
      </trkpt>
      <trkpt lat="44.7855454031378" lon="6.509380051866174">
        <time>2022-01-25T08:12:24+00:00</time>
        <ele>1700.0</ele>
      </trkpt>
      <trkpt lat="44.785538194701076" lon="6.509370496496558">
        <time>2022-01-25T08:12:26+00:00</time>
        <ele>1701.0</ele>
      </trkpt>
      <trkpt lat="44.78554490022361" lon="6.5093388967216015">
        <time>2022-01-25T08:12:31+00:00</time>
        <ele>1702.0</ele>
      </trkpt>
      <trkpt lat="44.78554364293814" lon="6.509337555617094">
        <time>2022-01-25T08:12:32+00:00</time>
        <ele>1702.0</ele>
      </trkpt>
      <trkpt lat="44.78554045781493" lon="6.509337052702904">
        <time>2022-01-25T08:12:33+00:00</time>
        <ele>1702.0</ele>
      </trkpt>
      <trkpt lat="44.785524951294065" lon="6.509322468191385">
        <time>2022-01-25T08:12:36+00:00</time>
        <ele>1702.0</ele>
      </trkpt>
      <trkpt lat="44.78552905842662" lon="6.509285336360335">
        <time>2022-01-25T08:12:40+00:00</time>
        <ele>1703.0</ele>
      </trkpt>
      <trkpt lat="44.78552972897887" lon="6.509275529533625">
        <time>2022-01-25T08:12:41+00:00</time>
        <ele>1704.0</ele>
      </trkpt>
      <trkpt lat="44.78552461601794" lon="6.5092420019209385">
        <time>2022-01-25T08:12:46+00:00</time>
        <ele>1705.0</ele>
      </trkpt>
      <trkpt lat="44.78551698848605" lon="6.509225238114595">
        <time>2022-01-25T08:12:49+00:00</time>
        <ele>1705.0</ele>
      </trkpt>
      <trkpt lat="44.78550324216485" lon="6.509208306670189">
        <time>2022-01-25T08:12:52+00:00</time>
        <ele>1706.0</ele>
      </trkpt>
      <trkpt lat="44.78547885082662" lon="6.509190704673529">
        <time>2022-01-25T08:12:56+00:00</time>
        <ele>1707.0</ele>
      </trkpt>
      <trkpt lat="44.7854592371732" lon="6.509180311113596">
        <time>2022-01-25T08:12:59+00:00</time>
        <ele>1707.0</ele>
      </trkpt>
      <trkpt lat="44.78542151860893" lon="6.509168744087219">
        <time>2022-01-25T08:13:04+00:00</time>
        <ele>1708.0</ele>
      </trkpt>
      <trkpt lat="44.785413555800915" lon="6.509169666096568">
        <time>2022-01-25T08:13:05+00:00</time>
        <ele>1708.0</ele>
      </trkpt>
      <trkpt lat="44.78538740426302" lon="6.509168827906251">
        <time>2022-01-25T08:13:08+00:00</time>
        <ele>1709.0</ele>
      </trkpt>
      <trkpt lat="44.78536041453481" lon="6.509173102676868">
        <time>2022-01-25T08:13:12+00:00</time>
        <ele>1709.0</ele>
      </trkpt>
      <trkpt lat="44.78533971123397" lon="6.5091736894100904">
        <time>2022-01-25T08:13:14+00:00</time>
        <ele>1709.0</ele>
      </trkpt>
      <trkpt lat="44.78531079366803" lon="6.509163631126285">
        <time>2022-01-25T08:13:18+00:00</time>
        <ele>1710.0</ele>
      </trkpt>
      <trkpt lat="44.78528732433915" lon="6.509151561185718">
        <time>2022-01-25T08:13:22+00:00</time>
        <ele>1711.0</ele>
      </trkpt>
      <trkpt lat="44.785280618816614" lon="6.509150555357337">
        <time>2022-01-25T08:13:23+00:00</time>
        <ele>1711.0</ele>
      </trkpt>
      <trkpt lat="44.78526167571545" lon="6.509139742702246">
        <time>2022-01-25T08:13:27+00:00</time>
        <ele>1712.0</ele>
      </trkpt>
      <trkpt lat="44.78525513783097" lon="6.509134629741311">
        <time>2022-01-25T08:13:29+00:00</time>
        <ele>1712.0</ele>
      </trkpt>
      <trkpt lat="44.785252287983894" lon="6.50912968441844">
        <time>2022-01-25T08:13:30+00:00</time>
        <ele>1712.0</ele>
      </trkpt>
      <trkpt lat="44.78522487916052" lon="6.509083081036806">
        <time>2022-01-25T08:13:36+00:00</time>
        <ele>1714.0</ele>
      </trkpt>
      <trkpt lat="44.78522412478924" lon="6.509074028581381">
        <time>2022-01-25T08:13:37+00:00</time>
        <ele>1714.0</ele>
      </trkpt>
      <trkpt lat="44.78521993383765" lon="6.509052738547325">
        <time>2022-01-25T08:13:40+00:00</time>
        <ele>1715.0</ele>
      </trkpt>
      <trkpt lat="44.78521876037121" lon="6.509048631414771">
        <time>2022-01-25T08:13:41+00:00</time>
        <ele>1715.0</ele>
      </trkpt>
      <trkpt lat="44.785204008221626" lon="6.509007979184389">
        <time>2022-01-25T08:13:46+00:00</time>
        <ele>1716.0</ele>
      </trkpt>
      <trkpt lat="44.78520166128874" lon="6.509000351652503">
        <time>2022-01-25T08:13:47+00:00</time>
        <ele>1717.0</ele>
      </trkpt>
      <trkpt lat="44.785185400396585" lon="6.508994484320283">
        <time>2022-01-25T08:13:50+00:00</time>
        <ele>1717.0</ele>
      </trkpt>
      <trkpt lat="44.78517391718924" lon="6.508991466835141">
        <time>2022-01-25T08:13:52+00:00</time>
        <ele>1717.0</ele>
      </trkpt>
      <trkpt lat="44.78516955859959" lon="6.508990461006761">
        <time>2022-01-25T08:13:53+00:00</time>
        <ele>1717.0</ele>
      </trkpt>
      <trkpt lat="44.78515841066837" lon="6.508993059396744">
        <time>2022-01-25T08:13:55+00:00</time>
        <ele>1717.0</ele>
      </trkpt>
      <trkpt lat="44.785145837813616" lon="6.508989036083221">
        <time>2022-01-25T08:13:57+00:00</time>
        <ele>1718.0</ele>
      </trkpt>
      <trkpt lat="44.785122368484735" lon="6.508964812383056">
        <time>2022-01-25T08:14:02+00:00</time>
        <ele>1719.0</ele>
      </trkpt>
      <trkpt lat="44.78512119501829" lon="6.508955927565694">
        <time>2022-01-25T08:14:03+00:00</time>
        <ele>1719.0</ele>
      </trkpt>
      <trkpt lat="44.785126727074385" lon="6.508902702480555">
        <time>2022-01-25T08:14:09+00:00</time>
        <ele>1721.0</ele>
      </trkpt>
      <trkpt lat="44.78512588888407" lon="6.508871773257852">
        <time>2022-01-25T08:14:14+00:00</time>
        <ele>1722.0</ele>
      </trkpt>
      <trkpt lat="44.78512161411345" lon="6.508873114362359">
        <time>2022-01-25T08:14:15+00:00</time>
        <ele>1722.0</ele>
      </trkpt>
      <trkpt lat="44.785070568323135" lon="6.5088830050081015">
        <time>2022-01-25T08:14:22+00:00</time>
        <ele>1722.0</ele>
      </trkpt>
      <trkpt lat="44.78505112230778" lon="6.508886106312275">
        <time>2022-01-25T08:14:24+00:00</time>
        <ele>1722.0</ele>
      </trkpt>
      <trkpt lat="44.78500250726938" lon="6.508917370811105">
        <time>2022-01-25T08:14:31+00:00</time>
        <ele>1722.0</ele>
      </trkpt>
      <trkpt lat="44.7849758528173" lon="6.508933631703258">
        <time>2022-01-25T08:14:34+00:00</time>
        <ele>1721.0</ele>
      </trkpt>
      <trkpt lat="44.78494458831847" lon="6.5089386608451605">
        <time>2022-01-25T08:14:37+00:00</time>
        <ele>1722.0</ele>
      </trkpt>
      <trkpt lat="44.78492765687406" lon="6.508931033313274">
        <time>2022-01-25T08:14:39+00:00</time>
        <ele>1722.0</ele>
      </trkpt>
      <trkpt lat="44.78490628302097" lon="6.508901445195079">
        <time>2022-01-25T08:14:43+00:00</time>
        <ele>1723.0</ele>
      </trkpt>
      <trkpt lat="44.784893207252026" lon="6.50888099335134">
        <time>2022-01-25T08:14:46+00:00</time>
        <ele>1724.0</ele>
      </trkpt>
      <trkpt lat="44.784882897511125" lon="6.508837826550007">
        <time>2022-01-25T08:14:51+00:00</time>
        <ele>1726.0</ele>
      </trkpt>
      <trkpt lat="44.78488516062498" lon="6.508826510980725">
        <time>2022-01-25T08:14:52+00:00</time>
        <ele>1726.0</ele>
      </trkpt>
      <trkpt lat="44.78487443178892" lon="6.5087878704071045">
        <time>2022-01-25T08:14:57+00:00</time>
        <ele>1727.0</ele>
      </trkpt>
      <trkpt lat="44.78486948646605" lon="6.50878518819809">
        <time>2022-01-25T08:14:58+00:00</time>
        <ele>1727.0</ele>
      </trkpt>
      <trkpt lat="44.784867223352194" lon="6.508783176541328">
        <time>2022-01-25T08:14:59+00:00</time>
        <ele>1728.0</ele>
      </trkpt>
      <trkpt lat="44.784840401262045" lon="6.508762640878558">
        <time>2022-01-25T08:15:04+00:00</time>
        <ele>1728.0</ele>
      </trkpt>
      <trkpt lat="44.78483428247273" lon="6.508759204298258">
        <time>2022-01-25T08:15:05+00:00</time>
        <ele>1729.0</ele>
      </trkpt>
      <trkpt lat="44.78481785394251" lon="6.508750487118959">
        <time>2022-01-25T08:15:08+00:00</time>
        <ele>1729.0</ele>
      </trkpt>
      <trkpt lat="44.784804191440344" lon="6.508725341409445">
        <time>2022-01-25T08:15:12+00:00</time>
        <ele>1730.0</ele>
      </trkpt>
      <trkpt lat="44.78479916229844" lon="6.508715534582734">
        <time>2022-01-25T08:15:14+00:00</time>
        <ele>1730.0</ele>
      </trkpt>
      <trkpt lat="44.7847945522517" lon="6.508718971163034">
        <time>2022-01-25T08:15:21+00:00</time>
        <ele>1730.0</ele>
      </trkpt>
      <trkpt lat="44.78478918783367" lon="6.508717462420464">
        <time>2022-01-25T08:15:31+00:00</time>
        <ele>1730.0</ele>
      </trkpt>
      <trkpt lat="44.78478893637657" lon="6.5086995251476765">
        <time>2022-01-25T08:15:46+00:00</time>
        <ele>1731.0</ele>
      </trkpt>
      <trkpt lat="44.784741243347526" lon="6.508678989484906">
        <time>2022-01-25T08:15:52+00:00</time>
        <ele>1732.0</ele>
      </trkpt>
      <trkpt lat="44.78473026305437" lon="6.508673876523972">
        <time>2022-01-25T08:15:53+00:00</time>
        <ele>1732.0</ele>
      </trkpt>
      <trkpt lat="44.784668488428" lon="6.5086388401687145">
        <time>2022-01-25T08:16:00+00:00</time>
        <ele>1734.0</ele>
      </trkpt>
      <trkpt lat="44.78465256281197" lon="6.508634062483907">
        <time>2022-01-25T08:16:02+00:00</time>
        <ele>1734.0</ele>
      </trkpt>
      <trkpt lat="44.78460805490613" lon="6.508620148524642">
        <time>2022-01-25T08:16:08+00:00</time>
        <ele>1735.0</ele>
      </trkpt>
      <trkpt lat="44.784601517021656" lon="6.508615622296929">
        <time>2022-01-25T08:16:09+00:00</time>
        <ele>1735.0</ele>
      </trkpt>
      <trkpt lat="44.784554494544864" lon="6.5085722878575325">
        <time>2022-01-25T08:16:16+00:00</time>
        <ele>1736.0</ele>
      </trkpt>
      <trkpt lat="44.78455055505037" lon="6.508568096905947">
        <time>2022-01-25T08:16:17+00:00</time>
        <ele>1736.0</ele>
      </trkpt>
      <trkpt lat="44.78450495749712" lon="6.508535072207451">
        <time>2022-01-25T08:16:24+00:00</time>
        <ele>1737.0</ele>
      </trkpt>
      <trkpt lat="44.784500766545534" lon="6.508531551808119">
        <time>2022-01-25T08:16:25+00:00</time>
        <ele>1737.0</ele>
      </trkpt>
      <trkpt lat="44.78447721339762" lon="6.508510764688253">
        <time>2022-01-25T08:16:29+00:00</time>
        <ele>1738.0</ele>
      </trkpt>
      <trkpt lat="44.78446623310447" lon="6.5084977727383375">
        <time>2022-01-25T08:16:31+00:00</time>
        <ele>1738.0</ele>
      </trkpt>
      <trkpt lat="44.78443178348243" lon="6.508475728332996">
        <time>2022-01-25T08:16:36+00:00</time>
        <ele>1739.0</ele>
      </trkpt>
      <trkpt lat="44.784395238384604" lon="6.508464999496937">
        <time>2022-01-25T08:16:41+00:00</time>
        <ele>1739.0</ele>
      </trkpt>
      <trkpt lat="44.78439171798527" lon="6.508462652564049">
        <time>2022-01-25T08:16:42+00:00</time>
        <ele>1739.0</ele>
      </trkpt>
      <trkpt lat="44.78436623699963" lon="6.508456785231829">
        <time>2022-01-25T08:16:46+00:00</time>
        <ele>1739.0</ele>
      </trkpt>
      <trkpt lat="44.784356178715825" lon="6.508452007547021">
        <time>2022-01-25T08:16:48+00:00</time>
        <ele>1739.0</ele>
      </trkpt>
      <trkpt lat="44.78433094918728" lon="6.508445972576737">
        <time>2022-01-25T08:16:53+00:00</time>
        <ele>1739.0</ele>
      </trkpt>
      <trkpt lat="44.784325836226344" lon="6.5084462240338326">
        <time>2022-01-25T08:16:54+00:00</time>
        <ele>1739.0</ele>
      </trkpt>
      <trkpt lat="44.78431602939963" lon="6.5084403567016125">
        <time>2022-01-25T08:16:55+00:00</time>
        <ele>1740.0</ele>
      </trkpt>
      <trkpt lat="44.78425920009613" lon="6.508460221812129">
        <time>2022-01-25T08:17:02+00:00</time>
        <ele>1739.0</ele>
      </trkpt>
      <trkpt lat="44.78424126282334" lon="6.508472040295601">
        <time>2022-01-25T08:17:04+00:00</time>
        <ele>1739.0</ele>
      </trkpt>
      <trkpt lat="44.784206142649055" lon="6.508446726948023">
        <time>2022-01-25T08:17:09+00:00</time>
        <ele>1739.0</ele>
      </trkpt>
      <trkpt lat="44.78418393060565" lon="6.508433651179075">
        <time>2022-01-25T08:17:13+00:00</time>
        <ele>1739.0</ele>
      </trkpt>
      <trkpt lat="44.78414302691817" lon="6.508425520732999">
        <time>2022-01-25T08:17:18+00:00</time>
        <ele>1739.0</ele>
      </trkpt>
      <trkpt lat="44.784128526225686" lon="6.508413786068559">
        <time>2022-01-25T08:17:21+00:00</time>
        <ele>1739.0</ele>
      </trkpt>
      <trkpt lat="44.784106062725186" lon="6.508396686986089">
        <time>2022-01-25T08:17:24+00:00</time>
        <ele>1740.0</ele>
      </trkpt>
      <trkpt lat="44.7840881254524" lon="6.508389646187425">
        <time>2022-01-25T08:17:26+00:00</time>
        <ele>1740.0</ele>
      </trkpt>
      <trkpt lat="44.78406515903771" lon="6.508376905694604">
        <time>2022-01-25T08:17:29+00:00</time>
        <ele>1740.0</ele>
      </trkpt>
      <trkpt lat="44.78403490036726" lon="6.50833860039711">
        <time>2022-01-25T08:17:35+00:00</time>
        <ele>1741.0</ele>
      </trkpt>
      <trkpt lat="44.78400128893554" lon="6.508298367261887">
        <time>2022-01-25T08:17:41+00:00</time>
        <ele>1742.0</ele>
      </trkpt>
      <trkpt lat="44.78399793617427" lon="6.508294427767396">
        <time>2022-01-25T08:17:42+00:00</time>
        <ele>1742.0</ele>
      </trkpt>
      <trkpt lat="44.78397564031184" lon="6.508272383362055">
        <time>2022-01-25T08:17:48+00:00</time>
        <ele>1742.0</ele>
      </trkpt>
      <trkpt lat="44.78398519568145" lon="6.508269282057881">
        <time>2022-01-25T08:17:53+00:00</time>
        <ele>1743.0</ele>
      </trkpt>
      <trkpt lat="44.783982429653406" lon="6.508263582363725">
        <time>2022-01-25T08:17:59+00:00</time>
        <ele>1743.0</ele>
      </trkpt>
      <trkpt lat="44.783982429653406" lon="6.508263582363725">
        <time>2022-01-25T08:18:08+00:00</time>
        <ele>1743.0</ele>
      </trkpt>
      <trkpt lat="44.783982429653406" lon="6.508263582363725">
        <time>2022-01-25T08:18:10+00:00</time>
        <ele>1743.0</ele>
      </trkpt>
      <trkpt lat="44.78397572413087" lon="6.508261738345027">
        <time>2022-01-25T08:18:16+00:00</time>
        <ele>1743.0</ele>
      </trkpt>
      <trkpt lat="44.783960804343224" lon="6.5082586370408535">
        <time>2022-01-25T08:18:19+00:00</time>
        <ele>1743.0</ele>
      </trkpt>
      <trkpt lat="44.783876314759254" lon="6.508242376148701">
        <time>2022-01-25T08:18:24+00:00</time>
        <ele>1743.0</ele>
      </trkpt>
      <trkpt lat="44.78375896811485" lon="6.508217817172408">
        <time>2022-01-25T08:18:34+00:00</time>
        <ele>1743.0</ele>
      </trkpt>
      <trkpt lat="44.78374991565943" lon="6.5082168113440275">
        <time>2022-01-25T08:18:42+00:00</time>
        <ele>1743.0</ele>
      </trkpt>
      <trkpt lat="44.78374706581235" lon="6.5082173980772495">
        <time>2022-01-25T08:18:45+00:00</time>
        <ele>1743.0</ele>
      </trkpt>
      <trkpt lat="44.7837477363646" lon="6.508223516866565">
        <time>2022-01-25T08:19:02+00:00</time>
        <ele>1743.0</ele>
      </trkpt>
      <trkpt lat="44.7837477363646" lon="6.508223516866565">
        <time>2022-01-25T08:19:03+00:00</time>
        <ele>1743.0</ele>
      </trkpt>
      <trkpt lat="44.78370130062103" lon="6.508159143850207">
        <time>2022-01-25T08:19:09+00:00</time>
        <ele>1744.0</ele>
      </trkpt>
      <trkpt lat="44.78368227370083" lon="6.508137686178088">
        <time>2022-01-25T08:19:11+00:00</time>
        <ele>1745.0</ele>
      </trkpt>
      <trkpt lat="44.783635921776295" lon="6.50809770449996">
        <time>2022-01-25T08:19:16+00:00</time>
        <ele>1747.0</ele>
      </trkpt>
      <trkpt lat="44.78363047353923" lon="6.508088735863566">
        <time>2022-01-25T08:19:17+00:00</time>
        <ele>1747.0</ele>
      </trkpt>
      <trkpt lat="44.78361463174224" lon="6.5080576390028">
        <time>2022-01-25T08:19:21+00:00</time>
        <ele>1748.0</ele>
      </trkpt>
      <trkpt lat="44.783613458275795" lon="6.508046658709645">
        <time>2022-01-25T08:19:23+00:00</time>
        <ele>1748.0</ele>
      </trkpt>
      <trkpt lat="44.78361471556127" lon="6.5080424677580595">
        <time>2022-01-25T08:19:24+00:00</time>
        <ele>1748.0</ele>
      </trkpt>
      <trkpt lat="44.783616894856095" lon="6.508020255714655">
        <time>2022-01-25T08:19:34+00:00</time>
        <ele>1749.0</ele>
      </trkpt>
      <trkpt lat="44.78361111134291" lon="6.508015813305974">
        <time>2022-01-25T08:19:35+00:00</time>
        <ele>1749.0</ele>
      </trkpt>
      <trkpt lat="44.78357205167413" lon="6.507985722273588">
        <time>2022-01-25T08:19:41+00:00</time>
        <ele>1750.0</ele>
      </trkpt>
      <trkpt lat="44.78355302475393" lon="6.507969377562404">
        <time>2022-01-25T08:19:43+00:00</time>
        <ele>1751.0</ele>
      </trkpt>
      <trkpt lat="44.783501056954265" lon="6.507896790280938">
        <time>2022-01-25T08:19:50+00:00</time>
        <ele>1753.0</ele>
      </trkpt>
      <trkpt lat="44.78349284268916" lon="6.5078832115978">
        <time>2022-01-25T08:19:52+00:00</time>
        <ele>1753.0</ele>
      </trkpt>
      <trkpt lat="44.78345386683941" lon="6.507843649014831">
        <time>2022-01-25T08:19:57+00:00</time>
        <ele>1754.0</ele>
      </trkpt>
      <trkpt lat="44.7834300622344" lon="6.507827639579773">
        <time>2022-01-25T08:20:00+00:00</time>
        <ele>1755.0</ele>
      </trkpt>
      <trkpt lat="44.78340407833457" lon="6.507815653458238">
        <time>2022-01-25T08:20:03+00:00</time>
        <ele>1756.0</ele>
      </trkpt>
      <trkpt lat="44.78338597342372" lon="6.507809534668922">
        <time>2022-01-25T08:20:05+00:00</time>
        <ele>1756.0</ele>
      </trkpt>
      <trkpt lat="44.78337021544576" lon="6.507794614881277">
        <time>2022-01-25T08:20:07+00:00</time>
        <ele>1757.0</ele>
      </trkpt>
      <trkpt lat="44.78332453407347" lon="6.50776251219213">
        <time>2022-01-25T08:20:13+00:00</time>
        <ele>1758.0</ele>
      </trkpt>
      <trkpt lat="44.7833039984107" lon="6.507737282663584">
        <time>2022-01-25T08:20:16+00:00</time>
        <ele>1759.0</ele>
      </trkpt>
      <trkpt lat="44.783273823559284" lon="6.507712220773101">
        <time>2022-01-25T08:20:20+00:00</time>
        <ele>1760.0</ele>
      </trkpt>
      <trkpt lat="44.78323065675795" lon="6.507672825828195">
        <time>2022-01-25T08:20:27+00:00</time>
        <ele>1762.0</ele>
      </trkpt>
      <trkpt lat="44.783194279298186" lon="6.507640723139048">
        <time>2022-01-25T08:20:33+00:00</time>
        <ele>1764.0</ele>
      </trkpt>
      <trkpt lat="44.78317642584443" lon="6.5076272282749414">
        <time>2022-01-25T08:20:36+00:00</time>
        <ele>1764.0</ele>
      </trkpt>
      <trkpt lat="44.78315823711455" lon="6.507609626278281">
        <time>2022-01-25T08:20:40+00:00</time>
        <ele>1765.0</ele>
      </trkpt>
      <trkpt lat="44.783139461651444" lon="6.507596801966429">
        <time>2022-01-25T08:20:43+00:00</time>
        <ele>1765.0</ele>
      </trkpt>
      <trkpt lat="44.7831332590431" lon="6.507593868300319">
        <time>2022-01-25T08:20:44+00:00</time>
        <ele>1765.0</ele>
      </trkpt>
      <trkpt lat="44.783127810806036" lon="6.507592611014843">
        <time>2022-01-25T08:20:45+00:00</time>
        <ele>1765.0</ele>
      </trkpt>
      <trkpt lat="44.78312311694026" lon="6.507587246596813">
        <time>2022-01-25T08:20:46+00:00</time>
        <ele>1766.0</ele>
      </trkpt>
      <trkpt lat="44.78308246470988" lon="6.507567968219519">
        <time>2022-01-25T08:20:52+00:00</time>
        <ele>1767.0</ele>
      </trkpt>
      <trkpt lat="44.783042734488845" lon="6.507540391758084">
        <time>2022-01-25T08:20:58+00:00</time>
        <ele>1768.0</ele>
      </trkpt>
      <trkpt lat="44.78303711861372" lon="6.507539302110672">
        <time>2022-01-25T08:20:59+00:00</time>
        <ele>1768.0</ele>
      </trkpt>
      <trkpt lat="44.7830053512007" lon="6.5075200237333775">
        <time>2022-01-25T08:21:04+00:00</time>
        <ele>1769.0</ele>
      </trkpt>
      <trkpt lat="44.78296813555062" lon="6.507497811689973">
        <time>2022-01-25T08:21:09+00:00</time>
        <ele>1770.0</ele>
      </trkpt>
      <trkpt lat="44.782961681485176" lon="6.507493704557419">
        <time>2022-01-25T08:21:10+00:00</time>
        <ele>1771.0</ele>
      </trkpt>
      <trkpt lat="44.782950365915895" lon="6.507482724264264">
        <time>2022-01-25T08:21:12+00:00</time>
        <ele>1771.0</ele>
      </trkpt>
      <trkpt lat="44.78292513638735" lon="6.507467804476619">
        <time>2022-01-25T08:21:16+00:00</time>
        <ele>1772.0</ele>
      </trkpt>
      <trkpt lat="44.782904013991356" lon="6.507448023185134">
        <time>2022-01-25T08:21:19+00:00</time>
        <ele>1773.0</ele>
      </trkpt>
      <trkpt lat="44.78288029320538" lon="6.507421284914017">
        <time>2022-01-25T08:21:24+00:00</time>
        <ele>1774.0</ele>
      </trkpt>
      <trkpt lat="44.782868726179004" lon="6.507411394268274">
        <time>2022-01-25T08:21:26+00:00</time>
        <ele>1775.0</ele>
      </trkpt>
      <trkpt lat="44.78285891935229" lon="6.507396558299661">
        <time>2022-01-25T08:21:29+00:00</time>
        <ele>1775.0</ele>
      </trkpt>
      <trkpt lat="44.78284182026982" lon="6.507383566349745">
        <time>2022-01-25T08:21:34+00:00</time>
        <ele>1776.0</ele>
      </trkpt>
      <trkpt lat="44.78282991796732" lon="6.507377279922366">
        <time>2022-01-25T08:21:36+00:00</time>
        <ele>1776.0</ele>
      </trkpt>
      <trkpt lat="44.78277761489153" lon="6.507380632683635">
        <time>2022-01-25T08:21:42+00:00</time>
        <ele>1777.0</ele>
      </trkpt>
      <trkpt lat="44.782767137512565" lon="6.507390858605504">
        <time>2022-01-25T08:21:43+00:00</time>
        <ele>1777.0</ele>
      </trkpt>
      <trkpt lat="44.782740818336606" lon="6.507376944646239">
        <time>2022-01-25T08:21:46+00:00</time>
        <ele>1778.0</ele>
      </trkpt>
      <trkpt lat="44.7827289160341" lon="6.507371999323368">
        <time>2022-01-25T08:21:48+00:00</time>
        <ele>1778.0</ele>
      </trkpt>
      <trkpt lat="44.782715840265155" lon="6.507364120334387">
        <time>2022-01-25T08:21:51+00:00</time>
        <ele>1779.0</ele>
      </trkpt>
      <trkpt lat="44.782707542181015" lon="6.507357498630881">
        <time>2022-01-25T08:21:52+00:00</time>
        <ele>1779.0</ele>
      </trkpt>
      <trkpt lat="44.782663537189364" lon="6.507369400933385">
        <time>2022-01-25T08:21:58+00:00</time>
        <ele>1779.0</ele>
      </trkpt>
      <trkpt lat="44.782626489177346" lon="6.507365461438894">
        <time>2022-01-25T08:22:02+00:00</time>
        <ele>1779.0</ele>
      </trkpt>
      <trkpt lat="44.78260117582977" lon="6.507385829463601">
        <time>2022-01-25T08:22:06+00:00</time>
        <ele>1779.0</ele>
      </trkpt>
      <trkpt lat="44.78257527574897" lon="6.5074001625180244">
        <time>2022-01-25T08:22:10+00:00</time>
        <ele>1779.0</ele>
      </trkpt>
      <trkpt lat="44.78255767375231" lon="6.507383566349745">
        <time>2022-01-25T08:22:14+00:00</time>
        <ele>1779.0</ele>
      </trkpt>
      <trkpt lat="44.782549710944295" lon="6.507395636290312">
        <time>2022-01-25T08:22:16+00:00</time>
        <ele>1779.0</ele>
      </trkpt>
      <trkpt lat="44.782531186938286" lon="6.507420111447573">
        <time>2022-01-25T08:22:19+00:00</time>
        <ele>1778.0</ele>
      </trkpt>
      <trkpt lat="44.78251475840807" lon="6.507420781999826">
        <time>2022-01-25T08:22:22+00:00</time>
        <ele>1778.0</ele>
      </trkpt>
      <trkpt lat="44.78251333348453" lon="6.507415333762765">
        <time>2022-01-25T08:22:25+00:00</time>
        <ele>1778.0</ele>
      </trkpt>
      <trkpt lat="44.78247368708253" lon="6.5074334386736155">
        <time>2022-01-25T08:22:31+00:00</time>
        <ele>1777.0</ele>
      </trkpt>
      <trkpt lat="44.78246253915131" lon="6.507438216358423">
        <time>2022-01-25T08:22:32+00:00</time>
        <ele>1777.0</ele>
      </trkpt>
      <trkpt lat="44.78242582641542" lon="6.507455483078957">
        <time>2022-01-25T08:22:37+00:00</time>
        <ele>1776.0</ele>
      </trkpt>
      <trkpt lat="44.782417360693216" lon="6.507449448108673">
        <time>2022-01-25T08:22:39+00:00</time>
        <ele>1776.0</ele>
      </trkpt>
      <trkpt lat="44.78240369819105" lon="6.507455399259925">
        <time>2022-01-25T08:22:40+00:00</time>
        <ele>1776.0</ele>
      </trkpt>
      <trkpt lat="44.78239271789789" lon="6.507473671808839">
        <time>2022-01-25T08:22:42+00:00</time>
        <ele>1775.0</ele>
      </trkpt>
      <trkpt lat="44.78238517418504" lon="6.507480293512344">
        <time>2022-01-25T08:22:43+00:00</time>
        <ele>1775.0</ele>
      </trkpt>
      <trkpt lat="44.782375786453485" lon="6.507483813911676">
        <time>2022-01-25T08:22:45+00:00</time>
        <ele>1775.0</ele>
      </trkpt>
      <trkpt lat="44.78234904818237" lon="6.5074811317026615">
        <time>2022-01-25T08:22:49+00:00</time>
        <ele>1775.0</ele>
      </trkpt>
      <trkpt lat="44.78234276175499" lon="6.507446933537722">
        <time>2022-01-25T08:22:53+00:00</time>
        <ele>1776.0</ele>
      </trkpt>
      <trkpt lat="44.78234326466918" lon="6.507433857768774">
        <time>2022-01-25T08:22:54+00:00</time>
        <ele>1776.0</ele>
      </trkpt>
      <trkpt lat="44.78234661743045" lon="6.50739018805325">
        <time>2022-01-25T08:22:58+00:00</time>
        <ele>1778.0</ele>
      </trkpt>
      <trkpt lat="44.78234603069723" lon="6.507378788664937">
        <time>2022-01-25T08:22:59+00:00</time>
        <ele>1778.0</ele>
      </trkpt>
      <trkpt lat="44.78234770707786" lon="6.507374262437224">
        <time>2022-01-25T08:23:00+00:00</time>
        <ele>1778.0</ele>
      </trkpt>
      <trkpt lat="44.78234879672527" lon="6.507366551086307">
        <time>2022-01-25T08:23:01+00:00</time>
        <ele>1778.0</ele>
      </trkpt>
      <trkpt lat="44.78234619833529" lon="6.507296143099666">
        <time>2022-01-25T08:23:07+00:00</time>
        <ele>1781.0</ele>
      </trkpt>
      <trkpt lat="44.782328344881535" lon="6.50719522498548">
        <time>2022-01-25T08:23:14+00:00</time>
        <ele>1783.0</ele>
      </trkpt>
      <trkpt lat="44.78232675231993" lon="6.507162870839238">
        <time>2022-01-25T08:23:18+00:00</time>
        <ele>1784.0</ele>
      </trkpt>
      <trkpt lat="44.7823351342231" lon="6.507130181416869">
        <time>2022-01-25T08:23:21+00:00</time>
        <ele>1785.0</ele>
      </trkpt>
      <trkpt lat="44.7823441028595" lon="6.507064634934068">
        <time>2022-01-25T08:23:28+00:00</time>
        <ele>1787.0</ele>
      </trkpt>
      <trkpt lat="44.782345946878195" lon="6.507052900269628">
        <time>2022-01-25T08:23:29+00:00</time>
        <ele>1787.0</ele>
      </trkpt>
      <trkpt lat="44.782358184456825" lon="6.506996992975473">
        <time>2022-01-25T08:23:35+00:00</time>
        <ele>1789.0</ele>
      </trkpt>
      <trkpt lat="44.782357681542635" lon="6.506988946348429">
        <time>2022-01-25T08:23:36+00:00</time>
        <ele>1789.0</ele>
      </trkpt>
      <trkpt lat="44.782366482540965" lon="6.506976960226893">
        <time>2022-01-25T08:23:38+00:00</time>
        <ele>1790.0</ele>
      </trkpt>
      <trkpt lat="44.782369416207075" lon="6.50694502517581">
        <time>2022-01-25T08:23:41+00:00</time>
        <ele>1790.0</ele>
      </trkpt>
      <trkpt lat="44.78237117640674" lon="6.506918119266629">
        <time>2022-01-25T08:23:44+00:00</time>
        <ele>1791.0</ele>
      </trkpt>
      <trkpt lat="44.78237595409155" lon="6.506869923323393">
        <time>2022-01-25T08:23:48+00:00</time>
        <ele>1792.0</ele>
      </trkpt>
      <trkpt lat="44.7823750320822" lon="6.506801443174481">
        <time>2022-01-25T08:23:53+00:00</time>
        <ele>1794.0</ele>
      </trkpt>
      <trkpt lat="44.782395819202065" lon="6.5067648980766535">
        <time>2022-01-25T08:23:56+00:00</time>
        <ele>1795.0</ele>
      </trkpt>
      <trkpt lat="44.78240202181041" lon="6.506737656891346">
        <time>2022-01-25T08:23:59+00:00</time>
        <ele>1796.0</ele>
      </trkpt>
      <trkpt lat="44.78241182863712" lon="6.506717875599861">
        <time>2022-01-25T08:24:01+00:00</time>
        <ele>1797.0</ele>
      </trkpt>
      <trkpt lat="44.782429514452815" lon="6.506710750982165">
        <time>2022-01-25T08:24:03+00:00</time>
        <ele>1797.0</ele>
      </trkpt>
      <trkpt lat="44.78244787082076" lon="6.506653670221567">
        <time>2022-01-25T08:24:08+00:00</time>
        <ele>1799.0</ele>
      </trkpt>
      <trkpt lat="44.782460276037455" lon="6.506636152043939">
        <time>2022-01-25T08:24:10+00:00</time>
        <ele>1800.0</ele>
      </trkpt>
      <trkpt lat="44.782493552193046" lon="6.506590386852622">
        <time>2022-01-25T08:24:16+00:00</time>
        <ele>1802.0</ele>
      </trkpt>
      <trkpt lat="44.78250729851425" lon="6.506580328568816">
        <time>2022-01-25T08:24:18+00:00</time>
        <ele>1802.0</ele>
      </trkpt>
      <trkpt lat="44.78255038149655" lon="6.50656096637249">
        <time>2022-01-25T08:24:24+00:00</time>
        <ele>1803.0</ele>
      </trkpt>
      <trkpt lat="44.782560020685196" lon="6.506540598347783">
        <time>2022-01-25T08:24:26+00:00</time>
        <ele>1804.0</ele>
      </trkpt>
      <trkpt lat="44.78257921524346" lon="6.5065522491931915">
        <time>2022-01-25T08:24:29+00:00</time>
        <ele>1803.0</ele>
      </trkpt>
      <trkpt lat="44.78258273564279" lon="6.506547471508384">
        <time>2022-01-25T08:24:31+00:00</time>
        <ele>1803.0</ele>
      </trkpt>
      <trkpt lat="44.782556081190705" lon="6.506537329405546">
        <time>2022-01-25T08:24:36+00:00</time>
        <ele>1804.0</ele>
      </trkpt>
      <trkpt lat="44.78255205787718" lon="6.506535150110722">
        <time>2022-01-25T08:24:37+00:00</time>
        <ele>1804.0</ele>
      </trkpt>
      <trkpt lat="44.78254736401141" lon="6.506532467901707">
        <time>2022-01-25T08:24:38+00:00</time>
        <ele>1804.0</ele>
      </trkpt>
      <trkpt lat="44.782523810863495" lon="6.506521152332425">
        <time>2022-01-25T08:24:42+00:00</time>
        <ele>1804.0</ele>
      </trkpt>
      <trkpt lat="44.78250679560006" lon="6.506516123190522">
        <time>2022-01-25T08:24:47+00:00</time>
        <ele>1804.0</ele>
      </trkpt>
      <trkpt lat="44.78248449973762" lon="6.506516207009554">
        <time>2022-01-25T08:24:54+00:00</time>
        <ele>1804.0</ele>
      </trkpt>
      <trkpt lat="44.782445188611746" lon="6.506511848419905">
        <time>2022-01-25T08:25:01+00:00</time>
        <ele>1803.0</ele>
      </trkpt>
      <trkpt lat="44.78243647143245" lon="6.506519224494696">
        <time>2022-01-25T08:25:02+00:00</time>
        <ele>1803.0</ele>
      </trkpt>
      <trkpt lat="44.782378720119596" lon="6.506593739613891">
        <time>2022-01-25T08:25:09+00:00</time>
        <ele>1800.0</ele>
      </trkpt>
      <trkpt lat="44.78237251751125" lon="6.506591560319066">
        <time>2022-01-25T08:25:10+00:00</time>
        <ele>1800.0</ele>
      </trkpt>
      <trkpt lat="44.78233580477536" lon="6.5065578650683165">
        <time>2022-01-25T08:25:16+00:00</time>
        <ele>1801.0</ele>
      </trkpt>
      <trkpt lat="44.78233119472861" lon="6.506549986079335">
        <time>2022-01-25T08:25:17+00:00</time>
        <ele>1801.0</ele>
      </trkpt>
      <trkpt lat="44.78232038207352" lon="6.506519643589854">
        <time>2022-01-25T08:25:19+00:00</time>
        <ele>1802.0</ele>
      </trkpt>
      <trkpt lat="44.78231409564614" lon="6.506494078785181">
        <time>2022-01-25T08:25:21+00:00</time>
        <ele>1802.0</ele>
      </trkpt>
      <trkpt lat="44.78231535293162" lon="6.506474046036601">
        <time>2022-01-25T08:25:23+00:00</time>
        <ele>1803.0</ele>
      </trkpt>
      <trkpt lat="44.78232775814831" lon="6.506449906155467">
        <time>2022-01-25T08:25:25+00:00</time>
        <ele>1804.0</ele>
      </trkpt>
      <trkpt lat="44.78234292939305" lon="6.5064119361341">
        <time>2022-01-25T08:25:28+00:00</time>
        <ele>1805.0</ele>
      </trkpt>
      <trkpt lat="44.78236564435065" lon="6.506376648321748">
        <time>2022-01-25T08:25:31+00:00</time>
        <ele>1807.0</ele>
      </trkpt>
      <trkpt lat="44.78238291107118" lon="6.506333397701383">
        <time>2022-01-25T08:25:35+00:00</time>
        <ele>1808.0</ele>
      </trkpt>
      <trkpt lat="44.7823887784034" lon="6.506318310275674">
        <time>2022-01-25T08:25:36+00:00</time>
        <ele>1809.0</ele>
      </trkpt>
      <trkpt lat="44.782396741211414" lon="6.5063016302883625">
        <time>2022-01-25T08:25:38+00:00</time>
        <ele>1809.0</ele>
      </trkpt>
      <trkpt lat="44.78243228048086" lon="6.506276149302721">
        <time>2022-01-25T08:25:41+00:00</time>
        <ele>1810.0</ele>
      </trkpt>
      <trkpt lat="44.7824577614665" lon="6.506259636953473">
        <time>2022-01-25T08:25:43+00:00</time>
        <ele>1811.0</ele>
      </trkpt>
      <trkpt lat="44.78247167542577" lon="6.5062615647912025">
        <time>2022-01-25T08:25:44+00:00</time>
        <ele>1811.0</ele>
      </trkpt>
      <trkpt lat="44.78249849751592" lon="6.50622627697885">
        <time>2022-01-25T08:25:49+00:00</time>
        <ele>1813.0</ele>
      </trkpt>
      <trkpt lat="44.78255742229521" lon="6.506213620305061">
        <time>2022-01-25T08:25:55+00:00</time>
        <ele>1814.0</ele>
      </trkpt>
      <trkpt lat="44.782563373446465" lon="6.506208926439285">
        <time>2022-01-25T08:25:56+00:00</time>
        <ele>1814.0</ele>
      </trkpt>
      <trkpt lat="44.78260746225715" lon="6.5062144584953785">
        <time>2022-01-25T08:26:00+00:00</time>
        <ele>1815.0</ele>
      </trkpt>
      <trkpt lat="44.78265062905848" lon="6.50622334331274">
        <time>2022-01-25T08:26:05+00:00</time>
        <ele>1815.0</ele>
      </trkpt>
      <trkpt lat="44.78266512975097" lon="6.506235413253307">
        <time>2022-01-25T08:26:07+00:00</time>
        <ele>1814.0</ele>
      </trkpt>
      <trkpt lat="44.78267317637801" lon="6.50623993948102">
        <time>2022-01-25T08:26:08+00:00</time>
        <ele>1814.0</ele>
      </trkpt>
      <trkpt lat="44.78272975422442" lon="6.506260810419917">
        <time>2022-01-25T08:26:14+00:00</time>
        <ele>1814.0</ele>
      </trkpt>
      <trkpt lat="44.78273612447083" lon="6.506258295848966">
        <time>2022-01-25T08:26:15+00:00</time>
        <ele>1814.0</ele>
      </trkpt>
      <trkpt lat="44.78278809227049" lon="6.506250500679016">
        <time>2022-01-25T08:26:23+00:00</time>
        <ele>1814.0</ele>
      </trkpt>
      <trkpt lat="44.78281466290355" lon="6.506237592548132">
        <time>2022-01-25T08:26:27+00:00</time>
        <ele>1815.0</ele>
      </trkpt>
      <trkpt lat="44.78282958269119" lon="6.506228372454643">
        <time>2022-01-25T08:26:30+00:00</time>
        <ele>1815.0</ele>
      </trkpt>
      <trkpt lat="44.78286721743643" lon="6.506213117390871">
        <time>2022-01-25T08:26:36+00:00</time>
        <ele>1816.0</ele>
      </trkpt>
      <trkpt lat="44.78288708254695" lon="6.506199622526765">
        <time>2022-01-25T08:26:39+00:00</time>
        <ele>1816.0</ele>
      </trkpt>
      <trkpt lat="44.78290225379169" lon="6.506197107955813">
        <time>2022-01-25T08:26:42+00:00</time>
        <ele>1816.0</ele>
      </trkpt>
      <trkpt lat="44.78291356936097" lon="6.50620624423027">
        <time>2022-01-25T08:26:44+00:00</time>
        <ele>1816.0</ele>
      </trkpt>
      <trkpt lat="44.78291113860905" lon="6.506199957802892">
        <time>2022-01-25T08:26:46+00:00</time>
        <ele>1816.0</ele>
      </trkpt>
      <trkpt lat="44.78289395570755" lon="6.506174728274345">
        <time>2022-01-25T08:26:52+00:00</time>
        <ele>1817.0</ele>
      </trkpt>
      <trkpt lat="44.78291407227516" lon="6.506127202883363">
        <time>2022-01-25T08:26:58+00:00</time>
        <ele>1819.0</ele>
      </trkpt>
      <trkpt lat="44.78291801176965" lon="6.5061096008867025">
        <time>2022-01-25T08:27:00+00:00</time>
        <ele>1820.0</ele>
      </trkpt>
      <trkpt lat="44.78292228654027" lon="6.506084790453315">
        <time>2022-01-25T08:27:03+00:00</time>
        <ele>1821.0</ele>
      </trkpt>
      <trkpt lat="44.782926393672824" lon="6.5060557052493095">
        <time>2022-01-25T08:27:07+00:00</time>
        <ele>1822.0</ele>
      </trkpt>
      <trkpt lat="44.782924465835094" lon="6.506049083545804">
        <time>2022-01-25T08:27:08+00:00</time>
        <ele>1822.0</ele>
      </trkpt>
      <trkpt lat="44.782925974577665" lon="6.5060068387538195">
        <time>2022-01-25T08:27:13+00:00</time>
        <ele>1824.0</ele>
      </trkpt>
      <trkpt lat="44.78292714804411" lon="6.5059982892125845">
        <time>2022-01-25T08:27:14+00:00</time>
        <ele>1824.0</ele>
      </trkpt>
      <trkpt lat="44.78294148109853" lon="6.505925031378865">
        <time>2022-01-25T08:27:21+00:00</time>
        <ele>1827.0</ele>
      </trkpt>
      <trkpt lat="44.78294391185045" lon="6.50591547600925">
        <time>2022-01-25T08:27:22+00:00</time>
        <ele>1827.0</ele>
      </trkpt>
      <trkpt lat="44.78295740671456" lon="6.505900388583541">
        <time>2022-01-25T08:27:25+00:00</time>
        <ele>1828.0</ele>
      </trkpt>
      <trkpt lat="44.78296578861773" lon="6.505887731909752">
        <time>2022-01-25T08:27:27+00:00</time>
        <ele>1828.0</ele>
      </trkpt>
      <trkpt lat="44.78296687826514" lon="6.505881445482373">
        <time>2022-01-25T08:27:28+00:00</time>
        <ele>1828.0</ele>
      </trkpt>
      <trkpt lat="44.782964112237096" lon="6.505857305601239">
        <time>2022-01-25T08:27:32+00:00</time>
        <ele>1829.0</ele>
      </trkpt>
      <trkpt lat="44.78296369314194" lon="6.505834925919771">
        <time>2022-01-25T08:27:36+00:00</time>
        <ele>1830.0</ele>
      </trkpt>
      <trkpt lat="44.78295388631523" lon="6.505822101607919">
        <time>2022-01-25T08:27:38+00:00</time>
        <ele>1830.0</ele>
      </trkpt>
      <trkpt lat="44.782931841909885" lon="6.505799386650324">
        <time>2022-01-25T08:27:43+00:00</time>
        <ele>1831.0</ele>
      </trkpt>
      <trkpt lat="44.78292848914862" lon="6.505793854594231">
        <time>2022-01-25T08:27:44+00:00</time>
        <ele>1831.0</ele>
      </trkpt>
      <trkpt lat="44.78288758546114" lon="6.50578991509974">
        <time>2022-01-25T08:27:50+00:00</time>
        <ele>1831.0</ele>
      </trkpt>
      <trkpt lat="44.782880544662476" lon="6.505795698612928">
        <time>2022-01-25T08:27:51+00:00</time>
        <ele>1830.0</ele>
      </trkpt>
      <trkpt lat="44.782853638753295" lon="6.505797458812594">
        <time>2022-01-25T08:27:55+00:00</time>
        <ele>1830.0</ele>
      </trkpt>
      <trkpt lat="44.78284517303109" lon="6.5057965368032455">
        <time>2022-01-25T08:27:56+00:00</time>
        <ele>1830.0</ele>
      </trkpt>
      <trkpt lat="44.78282790631056" lon="6.50579527951777">
        <time>2022-01-25T08:27:58+00:00</time>
        <ele>1830.0</ele>
      </trkpt>
      <trkpt lat="44.78280359879136" lon="6.505780192092061">
        <time>2022-01-25T08:28:03+00:00</time>
        <ele>1830.0</ele>
      </trkpt>
      <trkpt lat="44.78279295377433" lon="6.505774324759841">
        <time>2022-01-25T08:28:05+00:00</time>
        <ele>1831.0</ele>
      </trkpt>
      <trkpt lat="44.78277459740639" lon="6.50576694868505">
        <time>2022-01-25T08:28:08+00:00</time>
        <ele>1831.0</ele>
      </trkpt>
      <trkpt lat="44.782769149169326" lon="6.505758902058005">
        <time>2022-01-25T08:28:09+00:00</time>
        <ele>1831.0</ele>
      </trkpt>
      <trkpt lat="44.782742662355304" lon="6.505730487406254">
        <time>2022-01-25T08:28:13+00:00</time>
        <ele>1832.0</ele>
      </trkpt>
      <trkpt lat="44.78273511864245" lon="6.505717243999243">
        <time>2022-01-25T08:28:15+00:00</time>
        <ele>1832.0</ele>
      </trkpt>
      <trkpt lat="44.782726066187024" lon="6.505698971450329">
        <time>2022-01-25T08:28:22+00:00</time>
        <ele>1832.0</ele>
      </trkpt>
      <trkpt lat="44.782682145014405" lon="6.505668042227626">
        <time>2022-01-25T08:28:28+00:00</time>
        <ele>1833.0</ele>
      </trkpt>
      <trkpt lat="44.78267636150122" lon="6.505664940923452">
        <time>2022-01-25T08:28:29+00:00</time>
        <ele>1833.0</ele>
      </trkpt>
      <trkpt lat="44.78264534845948" lon="6.505627557635307">
        <time>2022-01-25T08:28:34+00:00</time>
        <ele>1834.0</ele>
      </trkpt>
      <trkpt lat="44.78263688273728" lon="6.505622277036309">
        <time>2022-01-25T08:28:35+00:00</time>
        <ele>1834.0</ele>
      </trkpt>
      <trkpt lat="44.78262573480606" lon="6.5056124702095985">
        <time>2022-01-25T08:28:38+00:00</time>
        <ele>1834.0</ele>
      </trkpt>
      <trkpt lat="44.782622549682856" lon="6.505606099963188">
        <time>2022-01-25T08:28:39+00:00</time>
        <ele>1835.0</ele>
      </trkpt>
      <trkpt lat="44.78261584416032" lon="6.505598220974207">
        <time>2022-01-25T08:28:40+00:00</time>
        <ele>1835.0</ele>
      </trkpt>
      <trkpt lat="44.78260410949588" lon="6.505588162690401">
        <time>2022-01-25T08:28:42+00:00</time>
        <ele>1835.0</ele>
      </trkpt>
      <trkpt lat="44.782589357346296" lon="6.5055665373802185">
        <time>2022-01-25T08:28:45+00:00</time>
        <ele>1836.0</ele>
      </trkpt>
      <trkpt lat="44.78256907314062" lon="6.505535943433642">
        <time>2022-01-25T08:28:49+00:00</time>
        <ele>1836.0</ele>
      </trkpt>
      <trkpt lat="44.78254225105047" lon="6.5055229514837265">
        <time>2022-01-25T08:28:53+00:00</time>
        <ele>1837.0</ele>
      </trkpt>
      <trkpt lat="44.78252096101642" lon="6.505514150485396">
        <time>2022-01-25T08:28:55+00:00</time>
        <ele>1837.0</ele>
      </trkpt>
      <trkpt lat="44.78251626715064" lon="6.505516832694411">
        <time>2022-01-25T08:28:56+00:00</time>
        <ele>1837.0</ele>
      </trkpt>
      <trkpt lat="44.78249522857368" lon="6.505509875714779">
        <time>2022-01-25T08:29:00+00:00</time>
        <ele>1837.0</ele>
      </trkpt>
      <trkpt lat="44.78248843923211" lon="6.505505600944161">
        <time>2022-01-25T08:29:01+00:00</time>
        <ele>1837.0</ele>
      </trkpt>
      <trkpt lat="44.78246538899839" lon="6.505490010604262">
        <time>2022-01-25T08:29:06+00:00</time>
        <ele>1837.0</ele>
      </trkpt>
      <trkpt lat="44.78245466016233" lon="6.505481628701091">
        <time>2022-01-25T08:29:08+00:00</time>
        <ele>1837.0</ele>
      </trkpt>
      <trkpt lat="44.782435381785035" lon="6.50547182187438">
        <time>2022-01-25T08:29:12+00:00</time>
        <ele>1837.0</ele>
      </trkpt>
      <trkpt lat="44.78242331184447" lon="6.5054649487137794">
        <time>2022-01-25T08:29:14+00:00</time>
        <ele>1838.0</ele>
      </trkpt>
      <trkpt lat="44.7823819052428" lon="6.505445586517453">
        <time>2022-01-25T08:29:20+00:00</time>
        <ele>1838.0</ele>
      </trkpt>
      <trkpt lat="44.78235533460975" lon="6.5054334327578545">
        <time>2022-01-25T08:29:24+00:00</time>
        <ele>1838.0</ele>
      </trkpt>
      <trkpt lat="44.782330775633454" lon="6.5054293256253">
        <time>2022-01-25T08:29:28+00:00</time>
        <ele>1838.0</ele>
      </trkpt>
      <trkpt lat="44.78232130408287" lon="6.505426224321127">
        <time>2022-01-25T08:29:30+00:00</time>
        <ele>1838.0</ele>
      </trkpt>
      <trkpt lat="44.78228006511927" lon="6.505422033369541">
        <time>2022-01-25T08:29:36+00:00</time>
        <ele>1837.0</ele>
      </trkpt>
      <trkpt lat="44.782273191958666" lon="6.505419686436653">
        <time>2022-01-25T08:29:37+00:00</time>
        <ele>1837.0</ele>
      </trkpt>
      <trkpt lat="44.782239412888885" lon="6.505388421937823">
        <time>2022-01-25T08:29:43+00:00</time>
        <ele>1837.0</ele>
      </trkpt>
      <trkpt lat="44.782237065956" lon="6.505378028377891">
        <time>2022-01-25T08:29:44+00:00</time>
        <ele>1838.0</ele>
      </trkpt>
      <trkpt lat="44.782236563041806" lon="6.505370568484068">
        <time>2022-01-25T08:29:45+00:00</time>
        <ele>1838.0</ele>
      </trkpt>
      <trkpt lat="44.782247794792056" lon="6.5053527150303125">
        <time>2022-01-25T08:29:48+00:00</time>
        <ele>1839.0</ele>
      </trkpt>
      <trkpt lat="44.78225475177169" lon="6.505338968709111">
        <time>2022-01-25T08:29:50+00:00</time>
        <ele>1839.0</ele>
      </trkpt>
      <trkpt lat="44.782258942723274" lon="6.505319774150848">
        <time>2022-01-25T08:29:53+00:00</time>
        <ele>1840.0</ele>
      </trkpt>
      <trkpt lat="44.78226020000875" lon="6.505312481895089">
        <time>2022-01-25T08:29:55+00:00</time>
        <ele>1840.0</ele>
      </trkpt>
      <trkpt lat="44.782262379303575" lon="6.505306530743837">
        <time>2022-01-25T08:29:56+00:00</time>
        <ele>1841.0</ele>
      </trkpt>
      <trkpt lat="44.7822801489383" lon="6.505253557115793">
        <time>2022-01-25T08:30:02+00:00</time>
        <ele>1843.0</ele>
      </trkpt>
      <trkpt lat="44.7822817414999" lon="6.505242241546512">
        <time>2022-01-25T08:30:03+00:00</time>
        <ele>1843.0</ele>
      </trkpt>
      <trkpt lat="44.78229884058237" lon="6.505216173827648">
        <time>2022-01-25T08:30:07+00:00</time>
        <ele>1844.0</ele>
      </trkpt>
      <trkpt lat="44.78230571374297" lon="6.505190189927816">
        <time>2022-01-25T08:30:09+00:00</time>
        <ele>1845.0</ele>
      </trkpt>
      <trkpt lat="44.78231233544648" lon="6.505168983712792">
        <time>2022-01-25T08:30:14+00:00</time>
        <ele>1846.0</ele>
      </trkpt>
      <trkpt lat="44.78231191635132" lon="6.5051680617034435">
        <time>2022-01-25T08:30:15+00:00</time>
        <ele>1846.0</ele>
      </trkpt>
      <trkpt lat="44.782304875552654" lon="6.505165547132492">
        <time>2022-01-25T08:30:17+00:00</time>
        <ele>1846.0</ele>
      </trkpt>
      <trkpt lat="44.78228501044214" lon="6.505165630951524">
        <time>2022-01-25T08:30:20+00:00</time>
        <ele>1846.0</ele>
      </trkpt>
      <trkpt lat="44.7822611220181" lon="6.505171079188585">
        <time>2022-01-25T08:30:23+00:00</time>
        <ele>1845.0</ele>
      </trkpt>
      <trkpt lat="44.78223388083279" lon="6.505177868530154">
        <time>2022-01-25T08:30:27+00:00</time>
        <ele>1845.0</ele>
      </trkpt>
      <trkpt lat="44.78221720084548" lon="6.505173426121473">
        <time>2022-01-25T08:30:29+00:00</time>
        <ele>1844.0</ele>
      </trkpt>
      <trkpt lat="44.78220504708588" lon="6.505160434171557">
        <time>2022-01-25T08:30:31+00:00</time>
        <ele>1845.0</ele>
      </trkpt>
      <trkpt lat="44.78219146840274" lon="6.505144340917468">
        <time>2022-01-25T08:30:33+00:00</time>
        <ele>1845.0</ele>
      </trkpt>
      <trkpt lat="44.782186606898904" lon="6.505119865760207">
        <time>2022-01-25T08:30:35+00:00</time>
        <ele>1846.0</ele>
      </trkpt>
      <trkpt lat="44.782179398462176" lon="6.505100252106786">
        <time>2022-01-25T08:30:37+00:00</time>
        <ele>1846.0</ele>
      </trkpt>
      <trkpt lat="44.78216934017837" lon="6.5050555765628815">
        <time>2022-01-25T08:30:41+00:00</time>
        <ele>1848.0</ele>
      </trkpt>
      <trkpt lat="44.7821609582752" lon="6.505030849948525">
        <time>2022-01-25T08:30:45+00:00</time>
        <ele>1848.0</ele>
      </trkpt>
      <trkpt lat="44.7821538336575" lon="6.505004111677408">
        <time>2022-01-25T08:30:49+00:00</time>
        <ele>1849.0</ele>
      </trkpt>
      <trkpt lat="44.782154420390725" lon="6.504987683147192">
        <time>2022-01-25T08:30:50+00:00</time>
        <ele>1849.0</ele>
      </trkpt>
      <trkpt lat="44.782152911648154" lon="6.504977541044354">
        <time>2022-01-25T08:30:51+00:00</time>
        <ele>1850.0</ele>
      </trkpt>
      <trkpt lat="44.78214243426919" lon="6.5049460250884295">
        <time>2022-01-25T08:30:55+00:00</time>
        <ele>1850.0</ele>
      </trkpt>
      <trkpt lat="44.782145200297236" lon="6.504902523010969">
        <time>2022-01-25T08:31:01+00:00</time>
        <ele>1852.0</ele>
      </trkpt>
      <trkpt lat="44.782157773151994" lon="6.50485172867775">
        <time>2022-01-25T08:31:07+00:00</time>
        <ele>1854.0</ele>
      </trkpt>
      <trkpt lat="44.78216012008488" lon="6.504848375916481">
        <time>2022-01-25T08:31:08+00:00</time>
        <ele>1854.0</ele>
      </trkpt>
      <trkpt lat="44.782176883891225" lon="6.504809567704797">
        <time>2022-01-25T08:31:14+00:00</time>
        <ele>1855.0</ele>
      </trkpt>
      <trkpt lat="44.78218015283346" lon="6.504797413945198">
        <time>2022-01-25T08:31:15+00:00</time>
        <ele>1856.0</ele>
      </trkpt>
      <trkpt lat="44.78218216449022" lon="6.5047855116426945">
        <time>2022-01-25T08:31:16+00:00</time>
        <ele>1856.0</ele>
      </trkpt>
      <trkpt lat="44.78218853473663" lon="6.504751816391945">
        <time>2022-01-25T08:31:19+00:00</time>
        <ele>1857.0</ele>
      </trkpt>
      <trkpt lat="44.78218702599406" lon="6.50472859852016">
        <time>2022-01-25T08:31:21+00:00</time>
        <ele>1858.0</ele>
      </trkpt>
      <trkpt lat="44.78217923082411" lon="6.504713091999292">
        <time>2022-01-25T08:31:23+00:00</time>
        <ele>1858.0</ele>
      </trkpt>
      <trkpt lat="44.782167663797736" lon="6.504692388698459">
        <time>2022-01-25T08:31:25+00:00</time>
        <ele>1858.0</ele>
      </trkpt>
      <trkpt lat="44.78215953335166" lon="6.50467143394053">
        <time>2022-01-25T08:31:27+00:00</time>
        <ele>1859.0</ele>
      </trkpt>
      <trkpt lat="44.78215358220041" lon="6.504659950733185">
        <time>2022-01-25T08:31:28+00:00</time>
        <ele>1859.0</ele>
      </trkpt>
      <trkpt lat="44.7821210604161" lon="6.504601947963238">
        <time>2022-01-25T08:31:35+00:00</time>
        <ele>1861.0</ele>
      </trkpt>
      <trkpt lat="44.782111840322614" lon="6.504593398422003">
        <time>2022-01-25T08:31:36+00:00</time>
        <ele>1861.0</ele>
      </trkpt>
      <trkpt lat="44.78211360052228" lon="6.50456540286541">
        <time>2022-01-25T08:31:44+00:00</time>
        <ele>1862.0</ele>
      </trkpt>
      <trkpt lat="44.78209440596402" lon="6.504516117274761">
        <time>2022-01-25T08:31:49+00:00</time>
        <ele>1863.0</ele>
      </trkpt>
      <trkpt lat="44.78208920918405" lon="6.504506561905146">
        <time>2022-01-25T08:31:51+00:00</time>
        <ele>1863.0</ele>
      </trkpt>
      <trkpt lat="44.78206515312195" lon="6.504454258829355">
        <time>2022-01-25T08:31:59+00:00</time>
        <ele>1864.0</ele>
      </trkpt>
      <trkpt lat="44.78206138126552" lon="6.504457863047719">
        <time>2022-01-25T08:32:00+00:00</time>
        <ele>1864.0</ele>
      </trkpt>
      <trkpt lat="44.78206272237003" lon="6.504445457831025">
        <time>2022-01-25T08:32:01+00:00</time>
        <ele>1864.0</ele>
      </trkpt>
      <trkpt lat="44.78209163993597" lon="6.5044220723211765">
        <time>2022-01-25T08:32:12+00:00</time>
        <ele>1865.0</ele>
      </trkpt>
      <trkpt lat="44.78209407068789" lon="6.5044220723211765">
        <time>2022-01-25T08:32:29+00:00</time>
        <ele>1865.0</ele>
      </trkpt>
      <trkpt lat="44.78207487612963" lon="6.504397094249725">
        <time>2022-01-25T08:32:33+00:00</time>
        <ele>1866.0</ele>
      </trkpt>
      <trkpt lat="44.782049311324954" lon="6.50437094271183">
        <time>2022-01-25T08:32:36+00:00</time>
        <ele>1866.0</ele>
      </trkpt>
      <trkpt lat="44.78199650533497" lon="6.504311431199312">
        <time>2022-01-25T08:32:44+00:00</time>
        <ele>1867.0</ele>
      </trkpt>
      <trkpt lat="44.7819640673697" lon="6.504265079274774">
        <time>2022-01-25T08:32:51+00:00</time>
        <ele>1868.0</ele>
      </trkpt>
      <trkpt lat="44.78195199742913" lon="6.504234988242388">
        <time>2022-01-25T08:32:54+00:00</time>
        <ele>1868.0</ele>
      </trkpt>
      <trkpt lat="44.78193087503314" lon="6.5042109321802855">
        <time>2022-01-25T08:32:57+00:00</time>
        <ele>1869.0</ele>
      </trkpt>
      <trkpt lat="44.78192056529224" lon="6.504197604954243">
        <time>2022-01-25T08:32:59+00:00</time>
        <ele>1869.0</ele>
      </trkpt>
      <trkpt lat="44.78191629052162" lon="6.504182014614344">
        <time>2022-01-25T08:33:00+00:00</time>
        <ele>1869.0</ele>
      </trkpt>
      <trkpt lat="44.78191377595067" lon="6.504166424274445">
        <time>2022-01-25T08:33:01+00:00</time>
        <ele>1870.0</ele>
      </trkpt>
      <trkpt lat="44.78187270462513" lon="6.504084365442395">
        <time>2022-01-25T08:33:10+00:00</time>
        <ele>1871.0</ele>
      </trkpt>
      <trkpt lat="44.781868094578385" lon="6.504067685455084">
        <time>2022-01-25T08:33:11+00:00</time>
        <ele>1872.0</ele>
      </trkpt>
      <trkpt lat="44.78183741681278" lon="6.503996774554253">
        <time>2022-01-25T08:33:17+00:00</time>
        <ele>1873.0</ele>
      </trkpt>
      <trkpt lat="44.781827023252845" lon="6.503970539197326">
        <time>2022-01-25T08:33:19+00:00</time>
        <ele>1874.0</ele>
      </trkpt>
      <trkpt lat="44.78179793804884" lon="6.503934413194656">
        <time>2022-01-25T08:33:24+00:00</time>
        <ele>1874.0</ele>
      </trkpt>
      <trkpt lat="44.78178142569959" lon="6.503898371011019">
        <time>2022-01-25T08:33:27+00:00</time>
        <ele>1875.0</ele>
      </trkpt>
      <trkpt lat="44.78177195414901" lon="6.503873728215694">
        <time>2022-01-25T08:33:31+00:00</time>
        <ele>1876.0</ele>
      </trkpt>
      <trkpt lat="44.78176583535969" lon="6.503861909732223">
        <time>2022-01-25T08:33:33+00:00</time>
        <ele>1876.0</ele>
      </trkpt>
      <trkpt lat="44.7817344032228" lon="6.50386668741703">
        <time>2022-01-25T08:33:39+00:00</time>
        <ele>1875.0</ele>
      </trkpt>
      <trkpt lat="44.78172870352864" lon="6.503861825913191">
        <time>2022-01-25T08:33:40+00:00</time>
        <ele>1875.0</ele>
      </trkpt>
      <trkpt lat="44.78174848482013" lon="6.503824442625046">
        <time>2022-01-25T08:33:47+00:00</time>
        <ele>1876.0</ele>
      </trkpt>
      <trkpt lat="44.78169249370694" lon="6.503801643848419">
        <time>2022-01-25T08:34:02+00:00</time>
        <ele>1876.0</ele>
      </trkpt>
      <trkpt lat="44.78164396248758" lon="6.503766691312194">
        <time>2022-01-25T08:34:06+00:00</time>
        <ele>1876.0</ele>
      </trkpt>
      <trkpt lat="44.781626695767045" lon="6.503744563087821">
        <time>2022-01-25T08:34:08+00:00</time>
        <ele>1876.0</ele>
      </trkpt>
      <trkpt lat="44.78159065358341" lon="6.503719501197338">
        <time>2022-01-25T08:34:12+00:00</time>
        <ele>1876.0</ele>
      </trkpt>
      <trkpt lat="44.78157229721546" lon="6.503711454570293">
        <time>2022-01-25T08:34:14+00:00</time>
        <ele>1876.0</ele>
      </trkpt>
      <trkpt lat="44.78158880956471" lon="6.503672059625387">
        <time>2022-01-25T08:34:20+00:00</time>
        <ele>1877.0</ele>
      </trkpt>
      <trkpt lat="44.78156936354935" lon="6.503635765984654">
        <time>2022-01-25T08:34:23+00:00</time>
        <ele>1878.0</ele>
      </trkpt>
      <trkpt lat="44.78153080679476" lon="6.503581954166293">
        <time>2022-01-25T08:34:28+00:00</time>
        <ele>1879.0</ele>
      </trkpt>
      <trkpt lat="44.781487472355366" lon="6.503534847870469">
        <time>2022-01-25T08:34:34+00:00</time>
        <ele>1880.0</ele>
      </trkpt>
      <trkpt lat="44.78145000524819" lon="6.503474162891507">
        <time>2022-01-25T08:34:40+00:00</time>
        <ele>1881.0</ele>
      </trkpt>
      <trkpt lat="44.781443467363715" lon="6.503460835665464">
        <time>2022-01-25T08:34:41+00:00</time>
        <ele>1881.0</ele>
      </trkpt>
      <trkpt lat="44.78141245432198" lon="6.503401743248105">
        <time>2022-01-25T08:34:48+00:00</time>
        <ele>1883.0</ele>
      </trkpt>
      <trkpt lat="44.78137565776706" lon="6.503323372453451">
        <time>2022-01-25T08:34:55+00:00</time>
        <ele>1885.0</ele>
      </trkpt>
      <trkpt lat="44.78136979043484" lon="6.503315577283502">
        <time>2022-01-25T08:34:56+00:00</time>
        <ele>1885.0</ele>
      </trkpt>
      <trkpt lat="44.781359899789095" lon="6.503293197602034">
        <time>2022-01-25T08:34:58+00:00</time>
        <ele>1886.0</ele>
      </trkpt>
      <trkpt lat="44.781354535371065" lon="6.503285067155957">
        <time>2022-01-25T08:34:59+00:00</time>
        <ele>1886.0</ele>
      </trkpt>
      <trkpt lat="44.78133860975504" lon="6.503246761858463">
        <time>2022-01-25T08:35:03+00:00</time>
        <ele>1887.0</ele>
      </trkpt>
      <trkpt lat="44.78131388314068" lon="6.503193536773324">
        <time>2022-01-25T08:35:09+00:00</time>
        <ele>1889.0</ele>
      </trkpt>
      <trkpt lat="44.78130105882883" lon="6.503168558701873">
        <time>2022-01-25T08:35:11+00:00</time>
        <ele>1889.0</ele>
      </trkpt>
      <trkpt lat="44.781280355528" lon="6.503124134615064">
        <time>2022-01-25T08:35:16+00:00</time>
        <ele>1891.0</ele>
      </trkpt>
      <trkpt lat="44.78127624839544" lon="6.503116423264146">
        <time>2022-01-25T08:35:17+00:00</time>
        <ele>1891.0</ele>
      </trkpt>
      <trkpt lat="44.78126686066389" lon="6.503097899258137">
        <time>2022-01-25T08:35:19+00:00</time>
        <ele>1892.0</ele>
      </trkpt>
      <trkpt lat="44.781235260888934" lon="6.503057582303882">
        <time>2022-01-25T08:35:25+00:00</time>
        <ele>1893.0</ele>
      </trkpt>
      <trkpt lat="44.78120726533234" lon="6.503000250086188">
        <time>2022-01-25T08:35:31+00:00</time>
        <ele>1895.0</ele>
      </trkpt>
      <trkpt lat="44.781200056895614" lon="6.5029810555279255">
        <time>2022-01-25T08:35:33+00:00</time>
        <ele>1895.0</ele>
      </trkpt>
      <trkpt lat="44.78116166777909" lon="6.502927830442786">
        <time>2022-01-25T08:35:41+00:00</time>
        <ele>1897.0</ele>
      </trkpt>
      <trkpt lat="44.78112864308059" lon="6.502887429669499">
        <time>2022-01-25T08:35:48+00:00</time>
        <ele>1898.0</ele>
      </trkpt>
      <trkpt lat="44.781125793233514" lon="6.502871252596378">
        <time>2022-01-25T08:35:50+00:00</time>
        <ele>1898.0</ele>
      </trkpt>
      <trkpt lat="44.78111347183585" lon="6.502856081351638">
        <time>2022-01-25T08:35:52+00:00</time>
        <ele>1899.0</ele>
      </trkpt>
      <trkpt lat="44.7811125498265" lon="6.502841915935278">
        <time>2022-01-25T08:35:53+00:00</time>
        <ele>1899.0</ele>
      </trkpt>
      <trkpt lat="44.78110953234136" lon="6.502837808802724">
        <time>2022-01-25T08:35:54+00:00</time>
        <ele>1899.0</ele>
      </trkpt>
      <trkpt lat="44.781103329733014" lon="6.50282540358603">
        <time>2022-01-25T08:35:56+00:00</time>
        <ele>1899.0</ele>
      </trkpt>
      <trkpt lat="44.78110031224787" lon="6.502820374444127">
        <time>2022-01-25T08:35:57+00:00</time>
        <ele>1899.0</ele>
      </trkpt>
      <trkpt lat="44.781096037477255" lon="6.502824146300554">
        <time>2022-01-25T08:35:58+00:00</time>
        <ele>1899.0</ele>
      </trkpt>
      <trkpt lat="44.78109042160213" lon="6.502827666699886">
        <time>2022-01-25T08:35:59+00:00</time>
        <ele>1899.0</ele>
      </trkpt>
      <trkpt lat="44.7810850571841" lon="6.502828085795045">
        <time>2022-01-25T08:36:00+00:00</time>
        <ele>1899.0</ele>
      </trkpt>
      <trkpt lat="44.78107667528093" lon="6.502830600365996">
        <time>2022-01-25T08:36:03+00:00</time>
        <ele>1899.0</ele>
      </trkpt>
      <trkpt lat="44.781076004728675" lon="6.502826074138284">
        <time>2022-01-25T08:36:05+00:00</time>
        <ele>1899.0</ele>
      </trkpt>
      <trkpt lat="44.78106460534036" lon="6.502816267311573">
        <time>2022-01-25T08:36:09+00:00</time>
        <ele>1900.0</ele>
      </trkpt>
      <trkpt lat="44.78104876354337" lon="6.502797743305564">
        <time>2022-01-25T08:36:12+00:00</time>
        <ele>1900.0</ele>
      </trkpt>
      <trkpt lat="44.78104742243886" lon="6.5027666464447975">
        <time>2022-01-25T08:36:15+00:00</time>
        <ele>1901.0</ele>
      </trkpt>
      <trkpt lat="44.78105379268527" lon="6.502749295905232">
        <time>2022-01-25T08:36:17+00:00</time>
        <ele>1901.0</ele>
      </trkpt>
      <trkpt lat="44.78105580434203" lon="6.502741500735283">
        <time>2022-01-25T08:36:18+00:00</time>
        <ele>1901.0</ele>
      </trkpt>
      <trkpt lat="44.78106854483485" lon="6.5027024410665035">
        <time>2022-01-25T08:36:23+00:00</time>
        <ele>1902.0</ele>
      </trkpt>
      <trkpt lat="44.7810713108629" lon="6.502693220973015">
        <time>2022-01-25T08:36:24+00:00</time>
        <ele>1902.0</ele>
      </trkpt>
      <trkpt lat="44.7810731548816" lon="6.502686683088541">
        <time>2022-01-25T08:36:25+00:00</time>
        <ele>1902.0</ele>
      </trkpt>
      <trkpt lat="44.781043734401464" lon="6.50266757234931">
        <time>2022-01-25T08:36:31+00:00</time>
        <ele>1902.0</ele>
      </trkpt>
      <trkpt lat="44.78102018125355" lon="6.5026662312448025">
        <time>2022-01-25T08:36:36+00:00</time>
        <ele>1903.0</ele>
      </trkpt>
      <trkpt lat="44.781008614227176" lon="6.502657849341631">
        <time>2022-01-25T08:36:38+00:00</time>
        <ele>1903.0</ele>
      </trkpt>
      <trkpt lat="44.781005177646875" lon="6.502652820199728">
        <time>2022-01-25T08:36:39+00:00</time>
        <ele>1903.0</ele>
      </trkpt>
      <trkpt lat="44.78100492618978" lon="6.502618454396725">
        <time>2022-01-25T08:36:43+00:00</time>
        <ele>1904.0</ele>
      </trkpt>
      <trkpt lat="44.781002746894956" lon="6.502613257616758">
        <time>2022-01-25T08:36:45+00:00</time>
        <ele>1904.0</ele>
      </trkpt>
      <trkpt lat="44.781001238152385" lon="6.502610743045807">
        <time>2022-01-25T08:36:46+00:00</time>
        <ele>1904.0</ele>
      </trkpt>
      <trkpt lat="44.78098640218377" lon="6.502615520730615">
        <time>2022-01-25T08:36:51+00:00</time>
        <ele>1904.0</ele>
      </trkpt>
      <trkpt lat="44.78098355233669" lon="6.5026164427399635">
        <time>2022-01-25T08:36:52+00:00</time>
        <ele>1904.0</ele>
      </trkpt>
      <trkpt lat="44.780980786308646" lon="6.50261384434998">
        <time>2022-01-25T08:36:53+00:00</time>
        <ele>1904.0</ele>
      </trkpt>
      <trkpt lat="44.78096486069262" lon="6.502620382234454">
        <time>2022-01-25T08:36:58+00:00</time>
        <ele>1904.0</ele>
      </trkpt>
      <trkpt lat="44.78095103055239" lon="6.502617197111249">
        <time>2022-01-25T08:37:01+00:00</time>
        <ele>1904.0</ele>
      </trkpt>
      <trkpt lat="44.780947007238865" lon="6.502592051401734">
        <time>2022-01-25T08:37:06+00:00</time>
        <ele>1905.0</ele>
      </trkpt>
      <trkpt lat="44.78095270693302" lon="6.502579478546977">
        <time>2022-01-25T08:37:09+00:00</time>
        <ele>1905.0</ele>
      </trkpt>
      <trkpt lat="44.78095312602818" lon="6.502568498253822">
        <time>2022-01-25T08:37:12+00:00</time>
        <ele>1905.0</ele>
      </trkpt>
      <trkpt lat="44.78094466030598" lon="6.502546202391386">
        <time>2022-01-25T08:37:17+00:00</time>
        <ele>1906.0</ele>
      </trkpt>
      <trkpt lat="44.7809418104589" lon="6.502545280382037">
        <time>2022-01-25T08:37:18+00:00</time>
        <ele>1906.0</ele>
      </trkpt>
      <trkpt lat="44.780911384150386" lon="6.502544190734625">
        <time>2022-01-25T08:37:23+00:00</time>
        <ele>1906.0</ele>
      </trkpt>
      <trkpt lat="44.78089839220047" lon="6.502547459676862">
        <time>2022-01-25T08:37:25+00:00</time>
        <ele>1906.0</ele>
      </trkpt>
      <trkpt lat="44.780881544575095" lon="6.502558523789048">
        <time>2022-01-25T08:37:28+00:00</time>
        <ele>1906.0</ele>
      </trkpt>
      <trkpt lat="44.78087391704321" lon="6.5025351382792">
        <time>2022-01-25T08:37:32+00:00</time>
        <ele>1907.0</ele>
      </trkpt>
      <trkpt lat="44.780876012519" lon="6.502520302310586">
        <time>2022-01-25T08:37:33+00:00</time>
        <ele>1907.0</ele>
      </trkpt>
      <trkpt lat="44.78086561895907" lon="6.502490462735295">
        <time>2022-01-25T08:37:40+00:00</time>
        <ele>1908.0</ele>
      </trkpt>
      <trkpt lat="44.780862936750054" lon="6.502463053911924">
        <time>2022-01-25T08:37:44+00:00</time>
        <ele>1909.0</ele>
      </trkpt>
      <trkpt lat="44.78086369112134" lon="6.502444362267852">
        <time>2022-01-25T08:37:48+00:00</time>
        <ele>1909.0</ele>
      </trkpt>
      <trkpt lat="44.78086369112134" lon="6.502444362267852">
        <time>2022-01-25T08:37:57+00:00</time>
        <ele>1909.0</ele>
      </trkpt>
      <trkpt lat="44.78086369112134" lon="6.502444362267852">
        <time>2022-01-25T08:37:58+00:00</time>
        <ele>1909.0</ele>
      </trkpt>
      <trkpt lat="44.78086997754872" lon="6.502461628988385">
        <time>2022-01-25T08:38:07+00:00</time>
        <ele>1909.0</ele>
      </trkpt>
      <trkpt lat="44.78086997754872" lon="6.5024609584361315">
        <time>2022-01-25T08:38:12+00:00</time>
        <ele>1909.0</ele>
      </trkpt>
      <trkpt lat="44.78083041496575" lon="6.502424832433462">
        <time>2022-01-25T08:38:18+00:00</time>
        <ele>1910.0</ele>
      </trkpt>
      <trkpt lat="44.78080694563687" lon="6.502397758886218">
        <time>2022-01-25T08:38:20+00:00</time>
        <ele>1910.0</ele>
      </trkpt>
      <trkpt lat="44.78075950406492" lon="6.50230404920876">
        <time>2022-01-25T08:38:27+00:00</time>
        <ele>1912.0</ele>
      </trkpt>
      <trkpt lat="44.78075849823654" lon="6.50228351354599">
        <time>2022-01-25T08:38:29+00:00</time>
        <ele>1913.0</ele>
      </trkpt>
      <trkpt lat="44.78072941303253" lon="6.502233976498246">
        <time>2022-01-25T08:38:35+00:00</time>
        <ele>1914.0</ele>
      </trkpt>
      <trkpt lat="44.7807206120342" lon="6.502221990376711">
        <time>2022-01-25T08:38:37+00:00</time>
        <ele>1914.0</ele>
      </trkpt>
      <trkpt lat="44.780705189332366" lon="6.50220681913197">
        <time>2022-01-25T08:38:40+00:00</time>
        <ele>1914.0</ele>
      </trkpt>
      <trkpt lat="44.78069957345724" lon="6.502205226570368">
        <time>2022-01-25T08:38:41+00:00</time>
        <ele>1914.0</ele>
      </trkpt>
      <trkpt lat="44.78068247437477" lon="6.5021914802491665">
        <time>2022-01-25T08:38:43+00:00</time>
        <ele>1914.0</ele>
      </trkpt>
      <trkpt lat="44.780674343928695" lon="6.5021846909075975">
        <time>2022-01-25T08:38:44+00:00</time>
        <ele>1914.0</ele>
      </trkpt>
      <trkpt lat="44.780650455504656" lon="6.502156779170036">
        <time>2022-01-25T08:38:49+00:00</time>
        <ele>1915.0</ele>
      </trkpt>
      <trkpt lat="44.78064609691501" lon="6.502140015363693">
        <time>2022-01-25T08:38:51+00:00</time>
        <ele>1915.0</ele>
      </trkpt>
      <trkpt lat="44.78063452988863" lon="6.502121323719621">
        <time>2022-01-25T08:38:53+00:00</time>
        <ele>1916.0</ele>
      </trkpt>
      <trkpt lat="44.7806188557297" lon="6.502097183838487">
        <time>2022-01-25T08:38:56+00:00</time>
        <ele>1916.0</ele>
      </trkpt>
      <trkpt lat="44.7805755212903" lon="6.5020109340548515">
        <time>2022-01-25T08:39:04+00:00</time>
        <ele>1916.0</ele>
      </trkpt>
      <trkpt lat="44.7805583383888" lon="6.501984531059861">
        <time>2022-01-25T08:39:07+00:00</time>
        <ele>1917.0</ele>
      </trkpt>
      <trkpt lat="44.78051274083555" lon="6.501902639865875">
        <time>2022-01-25T08:39:15+00:00</time>
        <ele>1918.0</ele>
      </trkpt>
      <trkpt lat="44.780507292598486" lon="6.501877745613456">
        <time>2022-01-25T08:39:17+00:00</time>
        <ele>1918.0</ele>
      </trkpt>
      <trkpt lat="44.78049983270466" lon="6.501853857189417">
        <time>2022-01-25T08:39:19+00:00</time>
        <ele>1919.0</ele>
      </trkpt>
      <trkpt lat="44.780477453023195" lon="6.501811193302274">
        <time>2022-01-25T08:39:24+00:00</time>
        <ele>1920.0</ele>
      </trkpt>
      <trkpt lat="44.78046454489231" lon="6.501784287393093">
        <time>2022-01-25T08:39:27+00:00</time>
        <ele>1920.0</ele>
      </trkpt>
      <trkpt lat="44.78045901283622" lon="6.501774229109287">
        <time>2022-01-25T08:39:28+00:00</time>
        <ele>1920.0</ele>
      </trkpt>
      <trkpt lat="44.7804428357631" lon="6.5017494186758995">
        <time>2022-01-25T08:39:32+00:00</time>
        <ele>1920.0</ele>
      </trkpt>
      <trkpt lat="44.780438812449574" lon="6.501737516373396">
        <time>2022-01-25T08:39:33+00:00</time>
        <ele>1921.0</ele>
      </trkpt>
      <trkpt lat="44.78043319657445" lon="6.501726787537336">
        <time>2022-01-25T08:39:34+00:00</time>
        <ele>1921.0</ele>
      </trkpt>
      <trkpt lat="44.78042925707996" lon="6.5017190761864185">
        <time>2022-01-25T08:39:35+00:00</time>
        <ele>1921.0</ele>
      </trkpt>
      <trkpt lat="44.780392376706004" lon="6.501646405085921">
        <time>2022-01-25T08:39:43+00:00</time>
        <ele>1921.0</ele>
      </trkpt>
      <trkpt lat="44.78038667701185" lon="6.501637855544686">
        <time>2022-01-25T08:39:44+00:00</time>
        <ele>1922.0</ele>
      </trkpt>
      <trkpt lat="44.78033638559282" lon="6.501556048169732">
        <time>2022-01-25T08:39:53+00:00</time>
        <ele>1922.0</ele>
      </trkpt>
      <trkpt lat="44.78032037615776" lon="6.50153199210763">
        <time>2022-01-25T08:39:56+00:00</time>
        <ele>1922.0</ele>
      </trkpt>
      <trkpt lat="44.78031316772103" lon="6.501523023471236">
        <time>2022-01-25T08:39:57+00:00</time>
        <ele>1922.0</ele>
      </trkpt>
      <trkpt lat="44.780286932364106" lon="6.50148899294436">
        <time>2022-01-25T08:40:01+00:00</time>
        <ele>1923.0</ele>
      </trkpt>
      <trkpt lat="44.78026136755943" lon="6.50144943036139">
        <time>2022-01-25T08:40:06+00:00</time>
        <ele>1923.0</ele>
      </trkpt>
      <trkpt lat="44.780253656208515" lon="6.501431744545698">
        <time>2022-01-25T08:40:08+00:00</time>
        <ele>1923.0</ele>
      </trkpt>
      <trkpt lat="44.780245274305344" lon="6.501414058730006">
        <time>2022-01-25T08:40:10+00:00</time>
        <ele>1924.0</ele>
      </trkpt>
      <trkpt lat="44.780228259041905" lon="6.501368125900626">
        <time>2022-01-25T08:40:14+00:00</time>
        <ele>1925.0</ele>
      </trkpt>
      <trkpt lat="44.78019858710468" lon="6.501310374587774">
        <time>2022-01-25T08:40:19+00:00</time>
        <ele>1926.0</ele>
      </trkpt>
      <trkpt lat="44.78017956018448" lon="6.501304758712649">
        <time>2022-01-25T08:40:22+00:00</time>
        <ele>1925.0</ele>
      </trkpt>
      <trkpt lat="44.780163718387485" lon="6.501280115917325">
        <time>2022-01-25T08:40:25+00:00</time>
        <ele>1926.0</ele>
      </trkpt>
      <trkpt lat="44.78012599982321" lon="6.501240720972419">
        <time>2022-01-25T08:40:31+00:00</time>
        <ele>1926.0</ele>
      </trkpt>
      <trkpt lat="44.780128598213196" lon="6.501241642981768">
        <time>2022-01-25T08:40:32+00:00</time>
        <ele>1926.0</ele>
      </trkpt>
      <trkpt lat="44.780129604041576" lon="6.501244241371751">
        <time>2022-01-25T08:40:33+00:00</time>
        <ele>1926.0</ele>
      </trkpt>
      <trkpt lat="44.78011032566428" lon="6.501189675182104">
        <time>2022-01-25T08:40:41+00:00</time>
        <ele>1927.0</ele>
      </trkpt>
      <trkpt lat="44.78010437451303" lon="6.501144915819168">
        <time>2022-01-25T08:40:47+00:00</time>
        <ele>1928.0</ele>
      </trkpt>
      <trkpt lat="44.78010194376111" lon="6.501138964667916">
        <time>2022-01-25T08:40:48+00:00</time>
        <ele>1929.0</ele>
      </trkpt>
      <trkpt lat="44.78010009974241" lon="6.501132091507316">
        <time>2022-01-25T08:40:49+00:00</time>
        <ele>1929.0</ele>
      </trkpt>
      <trkpt lat="44.780094819143414" lon="6.5011003240942955">
        <time>2022-01-25T08:40:53+00:00</time>
        <ele>1930.0</ele>
      </trkpt>
      <trkpt lat="44.78008425794542" lon="6.501075346022844">
        <time>2022-01-25T08:40:56+00:00</time>
        <ele>1930.0</ele>
      </trkpt>
      <trkpt lat="44.78008090518415" lon="6.501058246940374">
        <time>2022-01-25T08:40:58+00:00</time>
        <ele>1931.0</ele>
      </trkpt>
      <trkpt lat="44.78007880970836" lon="6.501046176999807">
        <time>2022-01-25T08:40:59+00:00</time>
        <ele>1931.0</ele>
      </trkpt>
      <trkpt lat="44.780056178569794" lon="6.500992784276605">
        <time>2022-01-25T08:41:06+00:00</time>
        <ele>1932.0</ele>
      </trkpt>
      <trkpt lat="44.78005349636078" lon="6.500985911116004">
        <time>2022-01-25T08:41:07+00:00</time>
        <ele>1932.0</ele>
      </trkpt>
      <trkpt lat="44.780028853565454" lon="6.500922460108995">
        <time>2022-01-25T08:41:15+00:00</time>
        <ele>1933.0</ele>
      </trkpt>
      <trkpt lat="44.780023572966456" lon="6.500915000215173">
        <time>2022-01-25T08:41:16+00:00</time>
        <ele>1933.0</ele>
      </trkpt>
      <trkpt lat="44.77999876253307" lon="6.500880885869265">
        <time>2022-01-25T08:41:22+00:00</time>
        <ele>1934.0</ele>
      </trkpt>
      <trkpt lat="44.77999448776245" lon="6.500873425975442">
        <time>2022-01-25T08:41:23+00:00</time>
        <ele>1934.0</ele>
      </trkpt>
      <trkpt lat="44.77999507449567" lon="6.500858925282955">
        <time>2022-01-25T08:41:29+00:00</time>
        <ele>1934.0</ele>
      </trkpt>
      <trkpt lat="44.77999750524759" lon="6.5008720848709345">
        <time>2022-01-25T08:41:31+00:00</time>
        <ele>1934.0</ele>
      </trkpt>
      <trkpt lat="44.7799972537905" lon="6.500875102356076">
        <time>2022-01-25T08:41:32+00:00</time>
        <ele>1934.0</ele>
      </trkpt>
      <trkpt lat="44.779996080324054" lon="6.500876443460584">
        <time>2022-01-25T08:41:33+00:00</time>
        <ele>1934.0</ele>
      </trkpt>
      <trkpt lat="44.779991302639246" lon="6.5008594281971455">
        <time>2022-01-25T08:41:49+00:00</time>
        <ele>1934.0</ele>
      </trkpt>
      <trkpt lat="44.77998107671738" lon="6.500800419598818">
        <time>2022-01-25T08:41:55+00:00</time>
        <ele>1936.0</ele>
      </trkpt>
      <trkpt lat="44.77997504174709" lon="6.500762114301324">
        <time>2022-01-25T08:41:57+00:00</time>
        <ele>1936.0</ele>
      </trkpt>
      <trkpt lat="44.77996330708265" lon="6.500682150945067">
        <time>2022-01-25T08:42:01+00:00</time>
        <ele>1938.0</ele>
      </trkpt>
      <trkpt lat="44.7799607925117" lon="6.500659603625536">
        <time>2022-01-25T08:42:02+00:00</time>
        <ele>1939.0</ele>
      </trkpt>
      <trkpt lat="44.77995987050235" lon="6.500650551170111">
        <time>2022-01-25T08:42:03+00:00</time>
        <ele>1939.0</ele>
      </trkpt>
      <trkpt lat="44.77995676919818" lon="6.500628925859928">
        <time>2022-01-25T08:42:05+00:00</time>
        <ele>1940.0</ele>
      </trkpt>
      <trkpt lat="44.779942352324724" lon="6.500546112656593">
        <time>2022-01-25T08:42:13+00:00</time>
        <ele>1942.0</ele>
      </trkpt>
      <trkpt lat="44.77994075976312" lon="6.500535383820534">
        <time>2022-01-25T08:42:14+00:00</time>
        <ele>1942.0</ele>
      </trkpt>
      <trkpt lat="44.77992399595678" lon="6.500479392707348">
        <time>2022-01-25T08:42:20+00:00</time>
        <ele>1943.0</ele>
      </trkpt>
      <trkpt lat="44.7799124289304" lon="6.500449636951089">
        <time>2022-01-25T08:42:23+00:00</time>
        <ele>1943.0</ele>
      </trkpt>
      <trkpt lat="44.779894491657615" lon="6.500404626131058">
        <time>2022-01-25T08:42:28+00:00</time>
        <ele>1944.0</ele>
      </trkpt>
      <trkpt lat="44.77988828904927" lon="6.500388029962778">
        <time>2022-01-25T08:42:30+00:00</time>
        <ele>1944.0</ele>
      </trkpt>
      <trkpt lat="44.779884768649936" lon="6.5003796480596066">
        <time>2022-01-25T08:42:31+00:00</time>
        <ele>1944.0</ele>
      </trkpt>
      <trkpt lat="44.77987487800419" lon="6.500351317226887">
        <time>2022-01-25T08:42:34+00:00</time>
        <ele>1945.0</ele>
      </trkpt>
      <trkpt lat="44.77986356243491" lon="6.500309742987156">
        <time>2022-01-25T08:42:38+00:00</time>
        <ele>1946.0</ele>
      </trkpt>
      <trkpt lat="44.77985627017915" lon="6.5002907160669565">
        <time>2022-01-25T08:42:40+00:00</time>
        <ele>1946.0</ele>
      </trkpt>
      <trkpt lat="44.779845625162125" lon="6.5002609603106976">
        <time>2022-01-25T08:42:43+00:00</time>
        <ele>1946.0</ele>
      </trkpt>
      <trkpt lat="44.77982684969902" lon="6.500220727175474">
        <time>2022-01-25T08:42:47+00:00</time>
        <ele>1947.0</ele>
      </trkpt>
      <trkpt lat="44.7798191383481" lon="6.500194240361452">
        <time>2022-01-25T08:42:50+00:00</time>
        <ele>1947.0</ele>
      </trkpt>
      <trkpt lat="44.77978887967765" lon="6.500129364430904">
        <time>2022-01-25T08:42:57+00:00</time>
        <ele>1948.0</ele>
      </trkpt>
      <trkpt lat="44.779782593250275" lon="6.5001146122813225">
        <time>2022-01-25T08:42:59+00:00</time>
        <ele>1948.0</ele>
      </trkpt>
      <trkpt lat="44.77976867929101" lon="6.500091310590506">
        <time>2022-01-25T08:43:07+00:00</time>
        <ele>1948.0</ele>
      </trkpt>
      <trkpt lat="44.77977848611772" lon="6.500121736899018">
        <time>2022-01-25T08:43:14+00:00</time>
        <ele>1948.0</ele>
      </trkpt>
      <trkpt lat="44.77978276088834" lon="6.500128107145429">
        <time>2022-01-25T08:43:15+00:00</time>
        <ele>1948.0</ele>
      </trkpt>
      <trkpt lat="44.77978787384927" lon="6.500127101317048">
        <time>2022-01-25T08:43:16+00:00</time>
        <ele>1948.0</ele>
      </trkpt>
      <trkpt lat="44.77980094961822" lon="6.500113187357783">
        <time>2022-01-25T08:43:18+00:00</time>
        <ele>1949.0</ele>
      </trkpt>
      <trkpt lat="44.77983179502189" lon="6.500102877616882">
        <time>2022-01-25T08:43:24+00:00</time>
        <ele>1950.0</ele>
      </trkpt>
      <trkpt lat="44.77983179502189" lon="6.500102877616882">
        <time>2022-01-25T08:43:29+00:00</time>
        <ele>1950.0</ele>
      </trkpt>
      <trkpt lat="44.77983179502189" lon="6.500102877616882">
        <time>2022-01-25T08:43:32+00:00</time>
        <ele>1950.0</ele>
      </trkpt>
      <trkpt lat="44.7798693459481" lon="6.5000848565250635">
        <time>2022-01-25T08:43:53+00:00</time>
        <ele>1951.0</ele>
      </trkpt>
      <trkpt lat="44.77987311780453" lon="6.500080917030573">
        <time>2022-01-25T08:43:58+00:00</time>
        <ele>1951.0</ele>
      </trkpt>
      <trkpt lat="44.77987311780453" lon="6.500070691108704">
        <time>2022-01-25T08:44:07+00:00</time>
        <ele>1951.0</ele>
      </trkpt>
      <trkpt lat="44.779838835820556" lon="6.500031799077988">
        <time>2022-01-25T08:44:17+00:00</time>
        <ele>1951.0</ele>
      </trkpt>
      <trkpt lat="44.77983606979251" lon="6.500031799077988">
        <time>2022-01-25T08:44:20+00:00</time>
        <ele>1951.0</ele>
      </trkpt>
      <trkpt lat="44.77977991104126" lon="6.500065745785832">
        <time>2022-01-25T08:44:49+00:00</time>
        <ele>1949.0</ele>
      </trkpt>
      <trkpt lat="44.77977345697582" lon="6.500048562884331">
        <time>2022-01-25T08:44:52+00:00</time>
        <ele>1949.0</ele>
      </trkpt>
      <trkpt lat="44.7797604650259" lon="6.500024925917387">
        <time>2022-01-25T08:44:53+00:00</time>
        <ele>1950.0</ele>
      </trkpt>
      <trkpt lat="44.77970271371305" lon="6.4999328926205635">
        <time>2022-01-25T08:44:57+00:00</time>
        <ele>1950.0</ele>
      </trkpt>
      <trkpt lat="44.77967421524227" lon="6.499900119379163">
        <time>2022-01-25T08:44:59+00:00</time>
        <ele>1951.0</ele>
      </trkpt>
      <trkpt lat="44.77963666431606" lon="6.499857706949115">
        <time>2022-01-25T08:45:04+00:00</time>
        <ele>1951.0</ele>
      </trkpt>
      <trkpt lat="44.77964119054377" lon="6.499855276197195">
        <time>2022-01-25T08:45:05+00:00</time>
        <ele>1951.0</ele>
      </trkpt>
      <trkpt lat="44.77964001707733" lon="6.499836416915059">
        <time>2022-01-25T08:45:07+00:00</time>
        <ele>1952.0</ele>
      </trkpt>
      <trkpt lat="44.77962543256581" lon="6.499813450500369">
        <time>2022-01-25T08:45:12+00:00</time>
        <ele>1952.0</ele>
      </trkpt>
      <trkpt lat="44.77960833348334" lon="6.499792747199535">
        <time>2022-01-25T08:45:15+00:00</time>
        <ele>1952.0</ele>
      </trkpt>
      <trkpt lat="44.7795965988189" lon="6.499768020585179">
        <time>2022-01-25T08:45:18+00:00</time>
        <ele>1953.0</ele>
      </trkpt>
      <trkpt lat="44.77959274314344" lon="6.499760812148452">
        <time>2022-01-25T08:45:19+00:00</time>
        <ele>1953.0</ele>
      </trkpt>
      <trkpt lat="44.77958243340254" lon="6.499735834077001">
        <time>2022-01-25T08:45:22+00:00</time>
        <ele>1953.0</ele>
      </trkpt>
      <trkpt lat="44.779577320441604" lon="6.499727284535766">
        <time>2022-01-25T08:45:23+00:00</time>
        <ele>1953.0</ele>
      </trkpt>
      <trkpt lat="44.77956818416715" lon="6.4997137896716595">
        <time>2022-01-25T08:45:25+00:00</time>
        <ele>1953.0</ele>
      </trkpt>
      <trkpt lat="44.779565166682005" lon="6.499705072492361">
        <time>2022-01-25T08:45:26+00:00</time>
        <ele>1954.0</ele>
      </trkpt>
      <trkpt lat="44.77955611422658" lon="6.499684369191527">
        <time>2022-01-25T08:45:28+00:00</time>
        <ele>1954.0</ele>
      </trkpt>
      <trkpt lat="44.77954890578985" lon="6.499669533222914">
        <time>2022-01-25T08:45:30+00:00</time>
        <ele>1954.0</ele>
      </trkpt>
      <trkpt lat="44.779528537765145" lon="6.499627288430929">
        <time>2022-01-25T08:45:35+00:00</time>
        <ele>1955.0</ele>
      </trkpt>
      <trkpt lat="44.77952334098518" lon="6.4996059983968735">
        <time>2022-01-25T08:45:37+00:00</time>
        <ele>1955.0</ele>
      </trkpt>
      <trkpt lat="44.77949853055179" lon="6.499525364488363">
        <time>2022-01-25T08:45:45+00:00</time>
        <ele>1956.0</ele>
      </trkpt>
      <trkpt lat="44.77947933599353" lon="6.499462332576513">
        <time>2022-01-25T08:45:52+00:00</time>
        <ele>1958.0</ele>
      </trkpt>
      <trkpt lat="44.77947891689837" lon="6.499439030885696">
        <time>2022-01-25T08:45:54+00:00</time>
        <ele>1958.0</ele>
      </trkpt>
      <trkpt lat="44.77950624190271" lon="6.4993842132389545">
        <time>2022-01-25T08:46:01+00:00</time>
        <ele>1960.0</ele>
      </trkpt>
      <trkpt lat="44.779511354863644" lon="6.499377842992544">
        <time>2022-01-25T08:46:02+00:00</time>
        <ele>1961.0</ele>
      </trkpt>
      <trkpt lat="44.77954287081957" lon="6.499340208247304">
        <time>2022-01-25T08:46:08+00:00</time>
        <ele>1962.0</ele>
      </trkpt>
      <trkpt lat="44.77956047281623" lon="6.499327216297388">
        <time>2022-01-25T08:46:11+00:00</time>
        <ele>1963.0</ele>
      </trkpt>
      <trkpt lat="44.77957748807967" lon="6.499310620129108">
        <time>2022-01-25T08:46:14+00:00</time>
        <ele>1964.0</ele>
      </trkpt>
      <trkpt lat="44.77960657328367" lon="6.4992946945130825">
        <time>2022-01-25T08:46:18+00:00</time>
        <ele>1965.0</ele>
      </trkpt>
      <trkpt lat="44.779613027349114" lon="6.499288827180862">
        <time>2022-01-25T08:46:19+00:00</time>
        <ele>1965.0</ele>
      </trkpt>
      <trkpt lat="44.779615458101034" lon="6.499287066981196">
        <time>2022-01-25T08:46:20+00:00</time>
        <ele>1965.0</ele>
      </trkpt>
      <trkpt lat="44.7796240914613" lon="6.4992705546319485">
        <time>2022-01-25T08:46:24+00:00</time>
        <ele>1966.0</ele>
      </trkpt>
      <trkpt lat="44.77962166070938" lon="6.499261753633618">
        <time>2022-01-25T08:46:25+00:00</time>
        <ele>1966.0</ele>
      </trkpt>
      <trkpt lat="44.77961964905262" lon="6.499256389215589">
        <time>2022-01-25T08:46:26+00:00</time>
        <ele>1966.0</ele>
      </trkpt>
      <trkpt lat="44.77960598655045" lon="6.499225459992886">
        <time>2022-01-25T08:46:31+00:00</time>
        <ele>1967.0</ele>
      </trkpt>
      <trkpt lat="44.77960053831339" lon="6.4992166589945555">
        <time>2022-01-25T08:46:32+00:00</time>
        <ele>1967.0</ele>
      </trkpt>
      <trkpt lat="44.77959676645696" lon="6.499210959300399">
        <time>2022-01-25T08:46:33+00:00</time>
        <ele>1967.0</ele>
      </trkpt>
      <trkpt lat="44.77957556024194" lon="6.499171648174524">
        <time>2022-01-25T08:46:38+00:00</time>
        <ele>1968.0</ele>
      </trkpt>
      <trkpt lat="44.779571034014225" lon="6.499164775013924">
        <time>2022-01-25T08:46:39+00:00</time>
        <ele>1968.0</ele>
      </trkpt>
      <trkpt lat="44.7795447986573" lon="6.499113226309419">
        <time>2022-01-25T08:46:46+00:00</time>
        <ele>1969.0</ele>
      </trkpt>
      <trkpt lat="44.779535830020905" lon="6.499097803607583">
        <time>2022-01-25T08:46:48+00:00</time>
        <ele>1969.0</ele>
      </trkpt>
      <trkpt lat="44.77950154803693" lon="6.499049691483378">
        <time>2022-01-25T08:46:54+00:00</time>
        <ele>1969.0</ele>
      </trkpt>
      <trkpt lat="44.7794877178967" lon="6.499025970697403">
        <time>2022-01-25T08:46:57+00:00</time>
        <ele>1970.0</ele>
      </trkpt>
      <trkpt lat="44.77946978062391" lon="6.499006692320108">
        <time>2022-01-25T08:47:02+00:00</time>
        <ele>1970.0</ele>
      </trkpt>
      <trkpt lat="44.77944228798151" lon="6.498972997069359">
        <time>2022-01-25T08:47:06+00:00</time>
        <ele>1970.0</ele>
      </trkpt>
      <trkpt lat="44.77942803874612" lon="6.498955562710762">
        <time>2022-01-25T08:47:09+00:00</time>
        <ele>1970.0</ele>
      </trkpt>
      <trkpt lat="44.779418148100376" lon="6.49893150664866">
        <time>2022-01-25T08:47:12+00:00</time>
        <ele>1971.0</ele>
      </trkpt>
      <trkpt lat="44.779409263283014" lon="6.498911138623953">
        <time>2022-01-25T08:47:15+00:00</time>
        <ele>1971.0</ele>
      </trkpt>
      <trkpt lat="44.77940616197884" lon="6.49895497597754">
        <time>2022-01-25T08:47:22+00:00</time>
        <ele>1970.0</ele>
      </trkpt>
      <trkpt lat="44.77940574288368" lon="6.498957993462682">
        <time>2022-01-25T08:47:23+00:00</time>
        <ele>1970.0</ele>
      </trkpt>
      <trkpt lat="44.77941110730171" lon="6.498958915472031">
        <time>2022-01-25T08:47:29+00:00</time>
        <ele>1970.0</ele>
      </trkpt>
      <trkpt lat="44.77940951474011" lon="6.49894374422729">
        <time>2022-01-25T08:47:43+00:00</time>
        <ele>1970.0</ele>
      </trkpt>
      <trkpt lat="44.77940917946398" lon="6.498936954885721">
        <time>2022-01-25T08:47:48+00:00</time>
        <ele>1971.0</ele>
      </trkpt>
      <trkpt lat="44.77941244840622" lon="6.498936200514436">
        <time>2022-01-25T08:47:52+00:00</time>
        <ele>1971.0</ele>
      </trkpt>
      <trkpt lat="44.77941261604428" lon="6.498936200514436">
        <time>2022-01-25T08:47:55+00:00</time>
        <ele>1971.0</ele>
      </trkpt>
      <trkpt lat="44.779409766197205" lon="6.498936200514436">
        <time>2022-01-25T08:47:59+00:00</time>
        <ele>1971.0</ele>
      </trkpt>
      <trkpt lat="44.77940901182592" lon="6.498936200514436">
        <time>2022-01-25T08:48:01+00:00</time>
        <ele>1971.0</ele>
      </trkpt>
      <trkpt lat="44.779408341273665" lon="6.498936200514436">
        <time>2022-01-25T08:48:03+00:00</time>
        <ele>1971.0</ele>
      </trkpt>
      <trkpt lat="44.77940507233143" lon="6.498957155272365">
        <time>2022-01-25T08:48:18+00:00</time>
        <ele>1970.0</ele>
      </trkpt>
      <trkpt lat="44.77940482087433" lon="6.49896134622395">
        <time>2022-01-25T08:48:21+00:00</time>
        <ele>1970.0</ele>
      </trkpt>
      <trkpt lat="44.77940482087433" lon="6.498961513862014">
        <time>2022-01-25T08:48:23+00:00</time>
        <ele>1970.0</ele>
      </trkpt>
      <trkpt lat="44.77941739372909" lon="6.4989769365638494">
        <time>2022-01-25T08:48:48+00:00</time>
        <ele>1970.0</ele>
      </trkpt>
      <trkpt lat="44.77942267432809" lon="6.498985653743148">
        <time>2022-01-25T08:49:04+00:00</time>
        <ele>1970.0</ele>
      </trkpt>
      <trkpt lat="44.77942275814712" lon="6.498985653743148">
        <time>2022-01-25T08:49:05+00:00</time>
        <ele>1970.0</ele>
      </trkpt>
      <trkpt lat="44.77942183613777" lon="6.498985653743148">
        <time>2022-01-25T08:49:10+00:00</time>
        <ele>1969.0</ele>
      </trkpt>
      <trkpt lat="44.779370706528425" lon="6.498907199129462">
        <time>2022-01-25T08:49:16+00:00</time>
        <ele>1971.0</ele>
      </trkpt>
      <trkpt lat="44.779312117025256" lon="6.49885724298656">
        <time>2022-01-25T08:49:23+00:00</time>
        <ele>1971.0</ele>
      </trkpt>
      <trkpt lat="44.77927305735648" lon="6.49878934957087">
        <time>2022-01-25T08:49:31+00:00</time>
        <ele>1972.0</ele>
      </trkpt>
      <trkpt lat="44.779266687110066" lon="6.498716007918119">
        <time>2022-01-25T08:49:38+00:00</time>
        <ele>1973.0</ele>
      </trkpt>
      <trkpt lat="44.77924833074212" lon="6.498668398708105">
        <time>2022-01-25T08:49:43+00:00</time>
        <ele>1973.0</ele>
      </trkpt>
      <trkpt lat="44.779240284115076" lon="6.498649623245001">
        <time>2022-01-25T08:49:45+00:00</time>
        <ele>1974.0</ele>
      </trkpt>
      <trkpt lat="44.779231483116746" lon="6.498601846396923">
        <time>2022-01-25T08:49:49+00:00</time>
        <ele>1974.0</ele>
      </trkpt>
      <trkpt lat="44.7792149707675" lon="6.498557506129146">
        <time>2022-01-25T08:49:53+00:00</time>
        <ele>1975.0</ele>
      </trkpt>
      <trkpt lat="44.77920985780656" lon="6.498546777293086">
        <time>2022-01-25T08:49:54+00:00</time>
        <ele>1975.0</ele>
      </trkpt>
      <trkpt lat="44.77917926385999" lon="6.498494138941169">
        <time>2022-01-25T08:49:59+00:00</time>
        <ele>1976.0</ele>
      </trkpt>
      <trkpt lat="44.77914632298052" lon="6.498455833643675">
        <time>2022-01-25T08:50:05+00:00</time>
        <ele>1976.0</ele>
      </trkpt>
      <trkpt lat="44.779131319373846" lon="6.4984335377812386">
        <time>2022-01-25T08:50:08+00:00</time>
        <ele>1977.0</ele>
      </trkpt>
      <trkpt lat="44.779111286625266" lon="6.4983834978193045">
        <time>2022-01-25T08:50:13+00:00</time>
        <ele>1978.0</ele>
      </trkpt>
      <trkpt lat="44.77910852059722" lon="6.4983731880784035">
        <time>2022-01-25T08:50:14+00:00</time>
        <ele>1978.0</ele>
      </trkpt>
      <trkpt lat="44.77910382673144" lon="6.498360112309456">
        <time>2022-01-25T08:50:15+00:00</time>
        <ele>1978.0</ele>
      </trkpt>
      <trkpt lat="44.779100054875016" lon="6.498349467292428">
        <time>2022-01-25T08:50:16+00:00</time>
        <ele>1979.0</ele>
      </trkpt>
      <trkpt lat="44.779081949964166" lon="6.498312335461378">
        <time>2022-01-25T08:50:21+00:00</time>
        <ele>1979.0</ele>
      </trkpt>
      <trkpt lat="44.779078010469675" lon="6.498308898881078">
        <time>2022-01-25T08:50:22+00:00</time>
        <ele>1980.0</ele>
      </trkpt>
      <trkpt lat="44.779072646051645" lon="6.498303869739175">
        <time>2022-01-25T08:50:23+00:00</time>
        <ele>1980.0</ele>
      </trkpt>
      <trkpt lat="44.77905571460724" lon="6.49828065186739">
        <time>2022-01-25T08:50:27+00:00</time>
        <ele>1980.0</ele>
      </trkpt>
      <trkpt lat="44.779048673808575" lon="6.498275622725487">
        <time>2022-01-25T08:50:28+00:00</time>
        <ele>1980.0</ele>
      </trkpt>
      <trkpt lat="44.77904389612377" lon="6.49826992303133">
        <time>2022-01-25T08:50:29+00:00</time>
        <ele>1980.0</ele>
      </trkpt>
      <trkpt lat="44.77903492748737" lon="6.498256428167224">
        <time>2022-01-25T08:50:31+00:00</time>
        <ele>1981.0</ele>
      </trkpt>
      <trkpt lat="44.779015900567174" lon="6.498239999637008">
        <time>2022-01-25T08:50:34+00:00</time>
        <ele>1981.0</ele>
      </trkpt>
      <trkpt lat="44.779003243893385" lon="6.498215859755874">
        <time>2022-01-25T08:50:37+00:00</time>
        <ele>1982.0</ele>
      </trkpt>
      <trkpt lat="44.77899142540991" lon="6.498197754845023">
        <time>2022-01-25T08:50:40+00:00</time>
        <ele>1982.0</ele>
      </trkpt>
      <trkpt lat="44.778985138982534" lon="6.498194066807628">
        <time>2022-01-25T08:50:41+00:00</time>
        <ele>1982.0</ele>
      </trkpt>
      <trkpt lat="44.77896527387202" lon="6.4981834217906">
        <time>2022-01-25T08:50:45+00:00</time>
        <ele>1983.0</ele>
      </trkpt>
      <trkpt lat="44.77896108292043" lon="6.498179817572236">
        <time>2022-01-25T08:50:46+00:00</time>
        <ele>1983.0</ele>
      </trkpt>
      <trkpt lat="44.77893032133579" lon="6.498154839500785">
        <time>2022-01-25T08:50:52+00:00</time>
        <ele>1984.0</ele>
      </trkpt>
      <trkpt lat="44.77891171351075" lon="6.4981350582093">
        <time>2022-01-25T08:50:55+00:00</time>
        <ele>1984.0</ele>
      </trkpt>
      <trkpt lat="44.77890559472144" lon="6.498120641335845">
        <time>2022-01-25T08:50:57+00:00</time>
        <ele>1985.0</ele>
      </trkpt>
      <trkpt lat="44.77888237684965" lon="6.498077977448702">
        <time>2022-01-25T08:51:03+00:00</time>
        <ele>1986.0</ele>
      </trkpt>
      <trkpt lat="44.77887064218521" lon="6.498057190328836">
        <time>2022-01-25T08:51:06+00:00</time>
        <ele>1986.0</ele>
      </trkpt>
      <trkpt lat="44.77884910069406" lon="6.498038582503796">
        <time>2022-01-25T08:51:10+00:00</time>
        <ele>1987.0</ele>
      </trkpt>
      <trkpt lat="44.77883719839156" lon="6.498031290248036">
        <time>2022-01-25T08:51:12+00:00</time>
        <ele>1987.0</ele>
      </trkpt>
      <trkpt lat="44.778814148157835" lon="6.498000780120492">
        <time>2022-01-25T08:51:17+00:00</time>
        <ele>1988.0</ele>
      </trkpt>
      <trkpt lat="44.77880174294114" lon="6.497991308569908">
        <time>2022-01-25T08:51:19+00:00</time>
        <ele>1988.0</ele>
      </trkpt>
      <trkpt lat="44.77877860888839" lon="6.497973119840026">
        <time>2022-01-25T08:51:24+00:00</time>
        <ele>1989.0</ele>
      </trkpt>
      <trkpt lat="44.77877031080425" lon="6.497963313013315">
        <time>2022-01-25T08:51:26+00:00</time>
        <ele>1989.0</ele>
      </trkpt>
      <trkpt lat="44.77874977514148" lon="6.497945627197623">
        <time>2022-01-25T08:51:30+00:00</time>
        <ele>1990.0</ele>
      </trkpt>
      <trkpt lat="44.77872991003096" lon="6.497920313850045">
        <time>2022-01-25T08:51:34+00:00</time>
        <ele>1990.0</ele>
      </trkpt>
      <trkpt lat="44.778721276670694" lon="6.4979087468236685">
        <time>2022-01-25T08:51:36+00:00</time>
        <ele>1990.0</ele>
      </trkpt>
      <trkpt lat="44.778707195073366" lon="6.497892988845706">
        <time>2022-01-25T08:51:39+00:00</time>
        <ele>1991.0</ele>
      </trkpt>
      <trkpt lat="44.77869059890509" lon="6.497864071279764">
        <time>2022-01-25T08:51:43+00:00</time>
        <ele>1992.0</ele>
      </trkpt>
      <trkpt lat="44.77868523448706" lon="6.497851917520165">
        <time>2022-01-25T08:51:45+00:00</time>
        <ele>1992.0</ele>
      </trkpt>
      <trkpt lat="44.77866520173848" lon="6.497825598344207">
        <time>2022-01-25T08:51:49+00:00</time>
        <ele>1993.0</ele>
      </trkpt>
      <trkpt lat="44.77865405380726" lon="6.497806571424007">
        <time>2022-01-25T08:51:52+00:00</time>
        <ele>1993.0</ele>
      </trkpt>
      <trkpt lat="44.77863955311477" lon="6.497789053246379">
        <time>2022-01-25T08:51:55+00:00</time>
        <ele>1994.0</ele>
      </trkpt>
      <trkpt lat="44.77862513624132" lon="6.497760806232691">
        <time>2022-01-25T08:51:59+00:00</time>
        <ele>1995.0</ele>
      </trkpt>
      <trkpt lat="44.77860912680626" lon="6.497733648866415">
        <time>2022-01-25T08:52:03+00:00</time>
        <ele>1996.0</ele>
      </trkpt>
      <trkpt lat="44.77859948761761" lon="6.497714538127184">
        <time>2022-01-25T08:52:06+00:00</time>
        <ele>1996.0</ele>
      </trkpt>
      <trkpt lat="44.7785812150687" lon="6.497684279456735">
        <time>2022-01-25T08:52:11+00:00</time>
        <ele>1997.0</ele>
      </trkpt>
      <trkpt lat="44.778576688840985" lon="6.497678915038705">
        <time>2022-01-25T08:52:12+00:00</time>
        <ele>1997.0</ele>
      </trkpt>
      <trkpt lat="44.77855204604566" lon="6.497637340798974">
        <time>2022-01-25T08:52:18+00:00</time>
        <ele>1999.0</ele>
      </trkpt>
      <trkpt lat="44.77853000164032" lon="6.497613117098808">
        <time>2022-01-25T08:52:22+00:00</time>
        <ele>2000.0</ele>
      </trkpt>
      <trkpt lat="44.77850661613047" lon="6.497587217018008">
        <time>2022-01-25T08:52:26+00:00</time>
        <ele>2000.0</ele>
      </trkpt>
      <trkpt lat="44.778486834838986" lon="6.497561652213335">
        <time>2022-01-25T08:52:30+00:00</time>
        <ele>2001.0</ele>
      </trkpt>
      <trkpt lat="44.77846168912947" lon="6.49754086509347">
        <time>2022-01-25T08:52:34+00:00</time>
        <ele>2002.0</ele>
      </trkpt>
      <trkpt lat="44.778435956686735" lon="6.497527621686459">
        <time>2022-01-25T08:52:38+00:00</time>
        <ele>2002.0</ele>
      </trkpt>
      <trkpt lat="44.77839874103665" lon="6.49749836884439">
        <time>2022-01-25T08:52:44+00:00</time>
        <ele>2003.0</ele>
      </trkpt>
      <trkpt lat="44.778390945866704" lon="6.4974849577993155">
        <time>2022-01-25T08:52:46+00:00</time>
        <ele>2003.0</ele>
      </trkpt>
      <trkpt lat="44.77837108075619" lon="6.4974719658494">
        <time>2022-01-25T08:52:50+00:00</time>
        <ele>2003.0</ele>
      </trkpt>
      <trkpt lat="44.77835549041629" lon="6.497461991384625">
        <time>2022-01-25T08:52:53+00:00</time>
        <ele>2004.0</ele>
      </trkpt>
      <trkpt lat="44.77834568358958" lon="6.497425027191639">
        <time>2022-01-25T08:52:56+00:00</time>
        <ele>2005.0</ele>
      </trkpt>
      <trkpt lat="44.77834031917155" lon="6.4974163100123405">
        <time>2022-01-25T08:52:57+00:00</time>
        <ele>2005.0</ele>
      </trkpt>
      <trkpt lat="44.77831886149943" lon="6.4973789267241955">
        <time>2022-01-25T08:53:02+00:00</time>
        <ele>2006.0</ele>
      </trkpt>
      <trkpt lat="44.77830880321562" lon="6.497364928945899">
        <time>2022-01-25T08:53:04+00:00</time>
        <ele>2006.0</ele>
      </trkpt>
      <trkpt lat="44.778299666941166" lon="6.497348332777619">
        <time>2022-01-25T08:53:06+00:00</time>
        <ele>2007.0</ele>
      </trkpt>
      <trkpt lat="44.77830276824534" lon="6.497313966974616">
        <time>2022-01-25T08:53:11+00:00</time>
        <ele>2008.0</ele>
      </trkpt>
      <trkpt lat="44.77830922231078" lon="6.497310530394316">
        <time>2022-01-25T08:53:12+00:00</time>
        <ele>2008.0</ele>
      </trkpt>
      <trkpt lat="44.77834677323699" lon="6.497271303087473">
        <time>2022-01-25T08:53:19+00:00</time>
        <ele>2009.0</ele>
      </trkpt>
      <trkpt lat="44.778376277536154" lon="6.497258897870779">
        <time>2022-01-25T08:53:25+00:00</time>
        <ele>2009.0</ele>
      </trkpt>
      <trkpt lat="44.7783790435642" lon="6.49725554510951">
        <time>2022-01-25T08:53:28+00:00</time>
        <ele>2009.0</ele>
      </trkpt>
      <trkpt lat="44.77839907631278" lon="6.4972457382828">
        <time>2022-01-25T08:53:31+00:00</time>
        <ele>2009.0</ele>
      </trkpt>
      <trkpt lat="44.77840402163565" lon="6.497243223711848">
        <time>2022-01-25T08:53:32+00:00</time>
        <ele>2009.0</ele>
      </trkpt>
      <trkpt lat="44.77841609157622" lon="6.4972263760864735">
        <time>2022-01-25T08:53:34+00:00</time>
        <ele>2010.0</ele>
      </trkpt>
      <trkpt lat="44.77841818705201" lon="6.497220424935222">
        <time>2022-01-25T08:53:35+00:00</time>
        <ele>2010.0</ele>
      </trkpt>
      <trkpt lat="44.778441321104765" lon="6.497188238427043">
        <time>2022-01-25T08:53:39+00:00</time>
        <ele>2011.0</ele>
      </trkpt>
      <trkpt lat="44.77845624089241" lon="6.497161835432053">
        <time>2022-01-25T08:53:43+00:00</time>
        <ele>2011.0</ele>
      </trkpt>
      <trkpt lat="44.7784773632884" lon="6.497153285890818">
        <time>2022-01-25T08:53:45+00:00</time>
        <ele>2012.0</ele>
      </trkpt>
      <trkpt lat="44.77848197333515" lon="6.497147502377629">
        <time>2022-01-25T08:53:46+00:00</time>
        <ele>2012.0</ele>
      </trkpt>
      <trkpt lat="44.778500078246" lon="6.4971359353512526">
        <time>2022-01-25T08:53:50+00:00</time>
        <ele>2012.0</ele>
      </trkpt>
      <trkpt lat="44.7785156685859" lon="6.497129229828715">
        <time>2022-01-25T08:53:53+00:00</time>
        <ele>2012.0</ele>
      </trkpt>
      <trkpt lat="44.77853503078222" lon="6.497107017785311">
        <time>2022-01-25T08:53:57+00:00</time>
        <ele>2013.0</ele>
      </trkpt>
      <trkpt lat="44.778546346351504" lon="6.497095199301839">
        <time>2022-01-25T08:53:59+00:00</time>
        <ele>2013.0</ele>
      </trkpt>
      <trkpt lat="44.778566882014275" lon="6.497073909267783">
        <time>2022-01-25T08:54:04+00:00</time>
        <ele>2014.0</ele>
      </trkpt>
      <trkpt lat="44.778570821508765" lon="6.497069131582975">
        <time>2022-01-25T08:54:05+00:00</time>
        <ele>2014.0</ele>
      </trkpt>
      <trkpt lat="44.77857601828873" lon="6.497072316706181">
        <time>2022-01-25T08:54:08+00:00</time>
        <ele>2014.0</ele>
      </trkpt>
      <trkpt lat="44.77858733385801" lon="6.497064605355263">
        <time>2022-01-25T08:54:10+00:00</time>
        <ele>2014.0</ele>
      </trkpt>
      <trkpt lat="44.77859211154282" lon="6.49706007912755">
        <time>2022-01-25T08:54:11+00:00</time>
        <ele>2014.0</ele>
      </trkpt>
      <trkpt lat="44.7786002419889" lon="6.4970549661666155">
        <time>2022-01-25T08:54:13+00:00</time>
        <ele>2015.0</ele>
      </trkpt>
      <trkpt lat="44.77863494306803" lon="6.4970143139362335">
        <time>2022-01-25T08:54:19+00:00</time>
        <ele>2016.0</ele>
      </trkpt>
      <trkpt lat="44.77865816093981" lon="6.496990090236068">
        <time>2022-01-25T08:54:24+00:00</time>
        <ele>2017.0</ele>
      </trkpt>
      <trkpt lat="44.77867911569774" lon="6.496967459097505">
        <time>2022-01-25T08:54:29+00:00</time>
        <ele>2018.0</ele>
      </trkpt>
      <trkpt lat="44.77868523448706" lon="6.496963100507855">
        <time>2022-01-25T08:54:30+00:00</time>
        <ele>2018.0</ele>
      </trkpt>
      <trkpt lat="44.77869898080826" lon="6.496944995597005">
        <time>2022-01-25T08:54:33+00:00</time>
        <ele>2018.0</ele>
      </trkpt>
      <trkpt lat="44.77871658280492" lon="6.496921190991998">
        <time>2022-01-25T08:54:38+00:00</time>
        <ele>2019.0</ele>
      </trkpt>
      <trkpt lat="44.77872211486101" lon="6.496917502954602">
        <time>2022-01-25T08:54:39+00:00</time>
        <ele>2019.0</ele>
      </trkpt>
      <trkpt lat="44.77873762138188" lon="6.496902164071798">
        <time>2022-01-25T08:54:43+00:00</time>
        <ele>2020.0</ele>
      </trkpt>
      <trkpt lat="44.778748182579875" lon="6.496896464377642">
        <time>2022-01-25T08:54:45+00:00</time>
        <ele>2020.0</ele>
      </trkpt>
      <trkpt lat="44.778764862567186" lon="6.496878024190664">
        <time>2022-01-25T08:54:49+00:00</time>
        <ele>2021.0</ele>
      </trkpt>
      <trkpt lat="44.77876989170909" lon="6.49687291122973">
        <time>2022-01-25T08:54:50+00:00</time>
        <ele>2021.0</ele>
      </trkpt>
      <trkpt lat="44.77878372184932" lon="6.496857572346926">
        <time>2022-01-25T08:54:54+00:00</time>
        <ele>2021.0</ele>
      </trkpt>
      <trkpt lat="44.77878749370575" lon="6.496854638680816">
        <time>2022-01-25T08:54:55+00:00</time>
        <ele>2022.0</ele>
      </trkpt>
      <trkpt lat="44.778804425150156" lon="6.496825385838747">
        <time>2022-01-25T08:55:00+00:00</time>
        <ele>2023.0</ele>
      </trkpt>
      <trkpt lat="44.77881783619523" lon="6.49681038223207">
        <time>2022-01-25T08:55:03+00:00</time>
        <ele>2023.0</ele>
      </trkpt>
      <trkpt lat="44.778821943327785" lon="6.4968043472617865">
        <time>2022-01-25T08:55:04+00:00</time>
        <ele>2023.0</ele>
      </trkpt>
      <trkpt lat="44.778836611658335" lon="6.496788924559951">
        <time>2022-01-25T08:55:07+00:00</time>
        <ele>2024.0</ele>
      </trkpt>
      <trkpt lat="44.778858153149486" lon="6.496771993115544">
        <time>2022-01-25T08:55:10+00:00</time>
        <ele>2024.0</ele>
      </trkpt>
      <trkpt lat="44.7788901720196" lon="6.4967424888163805">
        <time>2022-01-25T08:55:17+00:00</time>
        <ele>2025.0</ele>
      </trkpt>
      <trkpt lat="44.77892386727035" lon="6.4967139065265656">
        <time>2022-01-25T08:55:25+00:00</time>
        <ele>2026.0</ele>
      </trkpt>
      <trkpt lat="44.77893409319222" lon="6.496705189347267">
        <time>2022-01-25T08:55:27+00:00</time>
        <ele>2027.0</ele>
      </trkpt>
      <trkpt lat="44.77894289419055" lon="6.4966862462460995">
        <time>2022-01-25T08:55:31+00:00</time>
        <ele>2028.0</ele>
      </trkpt>
      <trkpt lat="44.778942726552486" lon="6.496673757210374">
        <time>2022-01-25T08:55:35+00:00</time>
        <ele>2028.0</ele>
      </trkpt>
      <trkpt lat="44.778936356306076" lon="6.496671494096518">
        <time>2022-01-25T08:55:36+00:00</time>
        <ele>2028.0</ele>
      </trkpt>
      <trkpt lat="44.778922190889716" lon="6.496650036424398">
        <time>2022-01-25T08:55:40+00:00</time>
        <ele>2029.0</ele>
      </trkpt>
      <trkpt lat="44.77890852838755" lon="6.4966341108083725">
        <time>2022-01-25T08:55:43+00:00</time>
        <ele>2029.0</ele>
      </trkpt>
      <trkpt lat="44.77888187393546" lon="6.496609719470143">
        <time>2022-01-25T08:55:49+00:00</time>
        <ele>2030.0</ele>
      </trkpt>
      <trkpt lat="44.778862511739135" lon="6.496588261798024">
        <time>2022-01-25T08:55:54+00:00</time>
        <ele>2031.0</ele>
      </trkpt>
      <trkpt lat="44.77885144762695" lon="6.496576610952616">
        <time>2022-01-25T08:55:56+00:00</time>
        <ele>2031.0</ele>
      </trkpt>
      <trkpt lat="44.77884423919022" lon="6.496572587639093">
        <time>2022-01-25T08:55:57+00:00</time>
        <ele>2031.0</ele>
      </trkpt>
      <trkpt lat="44.778821524232626" lon="6.496556997299194">
        <time>2022-01-25T08:56:03+00:00</time>
        <ele>2032.0</ele>
      </trkpt>
      <trkpt lat="44.77882018312812" lon="6.496553309261799">
        <time>2022-01-25T08:56:04+00:00</time>
        <ele>2032.0</ele>
      </trkpt>
      <trkpt lat="44.778815070167184" lon="6.496546603739262">
        <time>2022-01-25T08:56:05+00:00</time>
        <ele>2032.0</ele>
      </trkpt>
      <trkpt lat="44.77881129831076" lon="6.496540904045105">
        <time>2022-01-25T08:56:06+00:00</time>
        <ele>2032.0</ele>
      </trkpt>
      <trkpt lat="44.7787971328944" lon="6.496521541848779">
        <time>2022-01-25T08:56:09+00:00</time>
        <ele>2033.0</ele>
      </trkpt>
      <trkpt lat="44.77878648787737" lon="6.49651282466948">
        <time>2022-01-25T08:56:11+00:00</time>
        <ele>2033.0</ele>
      </trkpt>
      <trkpt lat="44.77878103964031" lon="6.496510142460465">
        <time>2022-01-25T08:56:12+00:00</time>
        <ele>2033.0</ele>
      </trkpt>
      <trkpt lat="44.778758492320776" lon="6.496488349512219">
        <time>2022-01-25T08:56:17+00:00</time>
        <ele>2034.0</ele>
      </trkpt>
      <trkpt lat="44.77874700911343" lon="6.496479297056794">
        <time>2022-01-25T08:56:19+00:00</time>
        <ele>2034.0</ele>
      </trkpt>
      <trkpt lat="44.778733514249325" lon="6.496476866304874">
        <time>2022-01-25T08:56:21+00:00</time>
        <ele>2034.0</ele>
      </trkpt>
      <trkpt lat="44.778721863403916" lon="6.496459851041436">
        <time>2022-01-25T08:56:24+00:00</time>
        <ele>2035.0</ele>
      </trkpt>
      <trkpt lat="44.77870308794081" lon="6.496436549350619">
        <time>2022-01-25T08:56:28+00:00</time>
        <ele>2036.0</ele>
      </trkpt>
      <trkpt lat="44.77868875488639" lon="6.496416684240103">
        <time>2022-01-25T08:56:31+00:00</time>
        <ele>2036.0</ele>
      </trkpt>
      <trkpt lat="44.7786779422313" lon="6.496407380327582">
        <time>2022-01-25T08:56:33+00:00</time>
        <ele>2036.0</ele>
      </trkpt>
      <trkpt lat="44.778650449588895" lon="6.496365470811725">
        <time>2022-01-25T08:56:40+00:00</time>
        <ele>2038.0</ele>
      </trkpt>
      <trkpt lat="44.778633853420615" lon="6.496346779167652">
        <time>2022-01-25T08:56:43+00:00</time>
        <ele>2038.0</ele>
      </trkpt>
      <trkpt lat="44.778614239767194" lon="6.496325992047787">
        <time>2022-01-25T08:56:47+00:00</time>
        <ele>2039.0</ele>
      </trkpt>
      <trkpt lat="44.77858364582062" lon="6.496292799711227">
        <time>2022-01-25T08:56:52+00:00</time>
        <ele>2040.0</ele>
      </trkpt>
      <trkpt lat="44.77855145931244" lon="6.496273018419743">
        <time>2022-01-25T08:56:58+00:00</time>
        <ele>2040.0</ele>
      </trkpt>
      <trkpt lat="44.77853486314416" lon="6.496256673708558">
        <time>2022-01-25T08:57:01+00:00</time>
        <ele>2041.0</ele>
      </trkpt>
      <trkpt lat="44.77851667441428" lon="6.496226666495204">
        <time>2022-01-25T08:57:05+00:00</time>
        <ele>2042.0</ele>
      </trkpt>
      <trkpt lat="44.778484320268035" lon="6.496207052841783">
        <time>2022-01-25T08:57:10+00:00</time>
        <ele>2042.0</ele>
      </trkpt>
      <trkpt lat="44.77847225032747" lon="6.4962023589760065">
        <time>2022-01-25T08:57:12+00:00</time>
        <ele>2042.0</ele>
      </trkpt>
      <trkpt lat="44.77845137938857" lon="6.496189786121249">
        <time>2022-01-25T08:57:16+00:00</time>
        <ele>2042.0</ele>
      </trkpt>
      <trkpt lat="44.77842631749809" lon="6.4961708430200815">
        <time>2022-01-25T08:57:19+00:00</time>
        <ele>2043.0</ele>
      </trkpt>
      <trkpt lat="44.778419276699424" lon="6.4961679093539715">
        <time>2022-01-25T08:57:20+00:00</time>
        <ele>2043.0</ele>
      </trkpt>
      <trkpt lat="44.77839371189475" lon="6.496150391176343">
        <time>2022-01-25T08:57:23+00:00</time>
        <ele>2043.0</ele>
      </trkpt>
      <trkpt lat="44.77837954647839" lon="6.496138572692871">
        <time>2022-01-25T08:57:25+00:00</time>
        <ele>2044.0</ele>
      </trkpt>
      <trkpt lat="44.7783740144223" lon="6.496120551601052">
        <time>2022-01-25T08:57:27+00:00</time>
        <ele>2044.0</ele>
      </trkpt>
      <trkpt lat="44.778353814035654" lon="6.496094902977347">
        <time>2022-01-25T08:57:32+00:00</time>
        <ele>2045.0</ele>
      </trkpt>
      <trkpt lat="44.778322549536824" lon="6.496067075058818">
        <time>2022-01-25T08:57:38+00:00</time>
        <ele>2045.0</ele>
      </trkpt>
      <trkpt lat="44.77830176241696" lon="6.496049975976348">
        <time>2022-01-25T08:57:42+00:00</time>
        <ele>2046.0</ele>
      </trkpt>
      <trkpt lat="44.7782804723829" lon="6.496036816388369">
        <time>2022-01-25T08:57:45+00:00</time>
        <ele>2046.0</ele>
      </trkpt>
      <trkpt lat="44.77826094254851" lon="6.496019549667835">
        <time>2022-01-25T08:57:49+00:00</time>
        <ele>2047.0</ele>
      </trkpt>
      <trkpt lat="44.77823386900127" lon="6.496009239926934">
        <time>2022-01-25T08:57:53+00:00</time>
        <ele>2047.0</ele>
      </trkpt>
      <trkpt lat="44.77822121232748" lon="6.495999014005065">
        <time>2022-01-25T08:57:55+00:00</time>
        <ele>2047.0</ele>
      </trkpt>
      <trkpt lat="44.77820813655853" lon="6.495989374816418">
        <time>2022-01-25T08:57:59+00:00</time>
        <ele>2047.0</ele>
      </trkpt>
      <trkpt lat="44.77820067666471" lon="6.49597872979939">
        <time>2022-01-25T08:58:01+00:00</time>
        <ele>2047.0</ele>
      </trkpt>
      <trkpt lat="44.77818265557289" lon="6.495936652645469">
        <time>2022-01-25T08:58:07+00:00</time>
        <ele>2048.0</ele>
      </trkpt>
      <trkpt lat="44.778161365538836" lon="6.4959116745740175">
        <time>2022-01-25T08:58:12+00:00</time>
        <ele>2049.0</ele>
      </trkpt>
      <trkpt lat="44.77815239690244" lon="6.495902957394719">
        <time>2022-01-25T08:58:14+00:00</time>
        <ele>2049.0</ele>
      </trkpt>
      <trkpt lat="44.778147703036666" lon="6.495898012071848">
        <time>2022-01-25T08:58:15+00:00</time>
        <ele>2050.0</ele>
      </trkpt>
      <trkpt lat="44.778125155717134" lon="6.495850067585707">
        <time>2022-01-25T08:58:22+00:00</time>
        <ele>2051.0</ele>
      </trkpt>
      <trkpt lat="44.77812649682164" lon="6.495842942968011">
        <time>2022-01-25T08:58:23+00:00</time>
        <ele>2051.0</ele>
      </trkpt>
      <trkpt lat="44.77814166806638" lon="6.495813354849815">
        <time>2022-01-25T08:58:28+00:00</time>
        <ele>2052.0</ele>
      </trkpt>
      <trkpt lat="44.77815080434084" lon="6.495796255767345">
        <time>2022-01-25T08:58:31+00:00</time>
        <ele>2053.0</ele>
      </trkpt>
      <trkpt lat="44.778150049969554" lon="6.495791645720601">
        <time>2022-01-25T08:58:32+00:00</time>
        <ele>2053.0</ele>
      </trkpt>
      <trkpt lat="44.778159856796265" lon="6.495784856379032">
        <time>2022-01-25T08:58:34+00:00</time>
        <ele>2053.0</ele>
      </trkpt>
      <trkpt lat="44.77818860672414" lon="6.495763482525945">
        <time>2022-01-25T08:58:40+00:00</time>
        <ele>2054.0</ele>
      </trkpt>
      <trkpt lat="44.778192546218634" lon="6.495754010975361">
        <time>2022-01-25T08:58:41+00:00</time>
        <ele>2055.0</ele>
      </trkpt>
      <trkpt lat="44.77823110297322" lon="6.495730122551322">
        <time>2022-01-25T08:58:47+00:00</time>
        <ele>2056.0</ele>
      </trkpt>
      <trkpt lat="44.77824652567506" lon="6.495707156136632">
        <time>2022-01-25T08:58:50+00:00</time>
        <ele>2056.0</ele>
      </trkpt>
      <trkpt lat="44.77827594615519" lon="6.4956810884177685">
        <time>2022-01-25T08:58:55+00:00</time>
        <ele>2057.0</ele>
      </trkpt>
      <trkpt lat="44.77829388342798" lon="6.4956748858094215">
        <time>2022-01-25T08:58:57+00:00</time>
        <ele>2058.0</ele>
      </trkpt>
      <trkpt lat="44.778303019702435" lon="6.49567723274231">
        <time>2022-01-25T08:58:58+00:00</time>
        <ele>2058.0</ele>
      </trkpt>
      <trkpt lat="44.778313245624304" lon="6.495676646009088">
        <time>2022-01-25T08:59:00+00:00</time>
        <ele>2058.0</ele>
      </trkpt>
      <trkpt lat="44.77833151817322" lon="6.495675137266517">
        <time>2022-01-25T08:59:04+00:00</time>
        <ele>2058.0</ele>
      </trkpt>
      <trkpt lat="44.77833797223866" lon="6.49566063657403">
        <time>2022-01-25T08:59:06+00:00</time>
        <ele>2058.0</ele>
      </trkpt>
      <trkpt lat="44.77835549041629" lon="6.495634317398071">
        <time>2022-01-25T08:59:10+00:00</time>
        <ele>2060.0</ele>
      </trkpt>
      <trkpt lat="44.77835884317756" lon="6.495629455894232">
        <time>2022-01-25T08:59:11+00:00</time>
        <ele>2060.0</ele>
      </trkpt>
      <trkpt lat="44.77836647070944" lon="6.495619732886553">
        <time>2022-01-25T08:59:16+00:00</time>
        <ele>2060.0</ele>
      </trkpt>
      <trkpt lat="44.77836647070944" lon="6.495622498914599">
        <time>2022-01-25T08:59:17+00:00</time>
        <ele>2060.0</ele>
      </trkpt>
      <trkpt lat="44.778350461274385" lon="6.495617972686887">
        <time>2022-01-25T08:59:23+00:00</time>
        <ele>2060.0</ele>
      </trkpt>
      <trkpt lat="44.778348533436656" lon="6.495613027364016">
        <time>2022-01-25T08:59:24+00:00</time>
        <ele>2060.0</ele>
      </trkpt>
      <trkpt lat="44.77833990007639" lon="6.49560053832829">
        <time>2022-01-25T08:59:27+00:00</time>
        <ele>2061.0</ele>
      </trkpt>
      <trkpt lat="44.77832430973649" lon="6.49558687582612">
        <time>2022-01-25T08:59:31+00:00</time>
        <ele>2061.0</ele>
      </trkpt>
      <trkpt lat="44.778320118784904" lon="6.495578913018107">
        <time>2022-01-25T08:59:33+00:00</time>
        <ele>2061.0</ele>
      </trkpt>
      <trkpt lat="44.77830142714083" lon="6.495552342385054">
        <time>2022-01-25T08:59:38+00:00</time>
        <ele>2062.0</ele>
      </trkpt>
      <trkpt lat="44.778288435190916" lon="6.495532728731632">
        <time>2022-01-25T08:59:41+00:00</time>
        <ele>2063.0</ele>
      </trkpt>
      <trkpt lat="44.77826504968107" lon="6.495498614385724">
        <time>2022-01-25T08:59:46+00:00</time>
        <ele>2064.0</ele>
      </trkpt>
      <trkpt lat="44.778255578130484" lon="6.495492495596409">
        <time>2022-01-25T08:59:48+00:00</time>
        <ele>2064.0</ele>
      </trkpt>
      <trkpt lat="44.77825155481696" lon="6.4954878855496645">
        <time>2022-01-25T08:59:49+00:00</time>
        <ele>2064.0</ele>
      </trkpt>
      <trkpt lat="44.77822791785002" lon="6.495467601343989">
        <time>2022-01-25T08:59:54+00:00</time>
        <ele>2065.0</ele>
      </trkpt>
      <trkpt lat="44.77822255343199" lon="6.495462823659182">
        <time>2022-01-25T08:59:55+00:00</time>
        <ele>2065.0</ele>
      </trkpt>
      <trkpt lat="44.77821350097656" lon="6.495455028489232">
        <time>2022-01-25T08:59:57+00:00</time>
        <ele>2065.0</ele>
      </trkpt>
      <trkpt lat="44.778191624209285" lon="6.495435079559684">
        <time>2022-01-25T09:00:02+00:00</time>
        <ele>2065.0</ele>
      </trkpt>
      <trkpt lat="44.778175028041005" lon="6.495419489219785">
        <time>2022-01-25T09:00:06+00:00</time>
        <ele>2066.0</ele>
      </trkpt>
      <trkpt lat="44.7781668137759" lon="6.495405994355679">
        <time>2022-01-25T09:00:08+00:00</time>
        <ele>2066.0</ele>
      </trkpt>
      <trkpt lat="44.778161281719804" lon="6.495401049032807">
        <time>2022-01-25T09:00:09+00:00</time>
        <ele>2066.0</ele>
      </trkpt>
      <trkpt lat="44.77812741883099" lon="6.495374981313944">
        <time>2022-01-25T09:00:16+00:00</time>
        <ele>2067.0</ele>
      </trkpt>
      <trkpt lat="44.77812197059393" lon="6.495370455086231">
        <time>2022-01-25T09:00:17+00:00</time>
        <ele>2067.0</ele>
      </trkpt>
      <trkpt lat="44.77809808216989" lon="6.495341956615448">
        <time>2022-01-25T09:00:22+00:00</time>
        <ele>2068.0</ele>
      </trkpt>
      <trkpt lat="44.778083665296435" lon="6.4953297190368176">
        <time>2022-01-25T09:00:25+00:00</time>
        <ele>2069.0</ele>
      </trkpt>
      <trkpt lat="44.778079306706786" lon="6.495325360447168">
        <time>2022-01-25T09:00:26+00:00</time>
        <ele>2069.0</ele>
      </trkpt>
      <trkpt lat="44.77807603776455" lon="6.4953188225626945">
        <time>2022-01-25T09:00:27+00:00</time>
        <ele>2069.0</ele>
      </trkpt>
      <trkpt lat="44.778053909540176" lon="6.49529417976737">
        <time>2022-01-25T09:00:31+00:00</time>
        <ele>2070.0</ele>
      </trkpt>
      <trkpt lat="44.77805516682565" lon="6.495287641882896">
        <time>2022-01-25T09:00:34+00:00</time>
        <ele>2070.0</ele>
      </trkpt>
      <trkpt lat="44.77805298753083" lon="6.4952837862074375">
        <time>2022-01-25T09:00:35+00:00</time>
        <ele>2071.0</ele>
      </trkpt>
      <trkpt lat="44.778053825721145" lon="6.495337849482894">
        <time>2022-01-25T09:00:43+00:00</time>
        <ele>2069.0</ele>
      </trkpt>
      <trkpt lat="44.77806371636689" lon="6.495341286063194">
        <time>2022-01-25T09:00:48+00:00</time>
        <ele>2068.0</ele>
      </trkpt>
      <trkpt lat="44.778061704710126" lon="6.495334077626467">
        <time>2022-01-25T09:00:57+00:00</time>
        <ele>2069.0</ele>
      </trkpt>
      <trkpt lat="44.778042593970895" lon="6.495294515043497">
        <time>2022-01-25T09:01:00+00:00</time>
        <ele>2070.0</ele>
      </trkpt>
      <trkpt lat="44.778003031387925" lon="6.495228968560696">
        <time>2022-01-25T09:01:05+00:00</time>
        <ele>2073.0</ele>
      </trkpt>
      <trkpt lat="44.77796019986272" lon="6.49519007652998">
        <time>2022-01-25T09:01:11+00:00</time>
        <ele>2074.0</ele>
      </trkpt>
      <trkpt lat="44.777928683906794" lon="6.495156129822135">
        <time>2022-01-25T09:01:18+00:00</time>
        <ele>2075.0</ele>
      </trkpt>
      <trkpt lat="44.777931617572904" lon="6.495154118165374">
        <time>2022-01-25T09:01:20+00:00</time>
        <ele>2075.0</ele>
      </trkpt>
      <trkpt lat="44.77794427424669" lon="6.495141796767712">
        <time>2022-01-25T09:01:24+00:00</time>
        <ele>2076.0</ele>
      </trkpt>
      <trkpt lat="44.777948297560215" lon="6.495140455663204">
        <time>2022-01-25T09:01:25+00:00</time>
        <ele>2076.0</ele>
      </trkpt>
      <trkpt lat="44.77795391343534" lon="6.495129391551018">
        <time>2022-01-25T09:01:27+00:00</time>
        <ele>2076.0</ele>
      </trkpt>
      <trkpt lat="44.77796556428075" lon="6.495125535875559">
        <time>2022-01-25T09:01:29+00:00</time>
        <ele>2076.0</ele>
      </trkpt>
      <trkpt lat="44.77798584848642" lon="6.4951059222221375">
        <time>2022-01-25T09:01:33+00:00</time>
        <ele>2077.0</ele>
      </trkpt>
      <trkpt lat="44.77799121290445" lon="6.4951003063470125">
        <time>2022-01-25T09:01:34+00:00</time>
        <ele>2078.0</ele>
      </trkpt>
      <trkpt lat="44.77799649350345" lon="6.495102904736996">
        <time>2022-01-25T09:01:35+00:00</time>
        <ele>2077.0</ele>
      </trkpt>
      <trkpt lat="44.77799984626472" lon="6.495102820917964">
        <time>2022-01-25T09:01:36+00:00</time>
        <ele>2077.0</ele>
      </trkpt>
      <trkpt lat="44.778005881235" lon="6.495098881423473">
        <time>2022-01-25T09:01:37+00:00</time>
        <ele>2078.0</ele>
      </trkpt>
      <trkpt lat="44.7780130058527" lon="6.495096534490585">
        <time>2022-01-25T09:01:39+00:00</time>
        <ele>2078.0</ele>
      </trkpt>
      <trkpt lat="44.77803220041096" lon="6.495087314397097">
        <time>2022-01-25T09:01:42+00:00</time>
        <ele>2078.0</ele>
      </trkpt>
      <trkpt lat="44.77803111076355" lon="6.495084464550018">
        <time>2022-01-25T09:01:48+00:00</time>
        <ele>2078.0</ele>
      </trkpt>
      <trkpt lat="44.77803102694452" lon="6.495084967464209">
        <time>2022-01-25T09:01:49+00:00</time>
        <ele>2078.0</ele>
      </trkpt>
      <trkpt lat="44.77802725508809" lon="6.495084296911955">
        <time>2022-01-25T09:01:51+00:00</time>
        <ele>2078.0</ele>
      </trkpt>
      <trkpt lat="44.77800386957824" lon="6.495080105960369">
        <time>2022-01-25T09:01:55+00:00</time>
        <ele>2078.0</ele>
      </trkpt>
      <trkpt lat="44.77799640968442" lon="6.4950543735176325">
        <time>2022-01-25T09:01:58+00:00</time>
        <ele>2079.0</ele>
      </trkpt>
      <trkpt lat="44.77797771804035" lon="6.495037609711289">
        <time>2022-01-25T09:02:03+00:00</time>
        <ele>2080.0</ele>
      </trkpt>
      <trkpt lat="44.77797235362232" lon="6.495032496750355">
        <time>2022-01-25T09:02:04+00:00</time>
        <ele>2080.0</ele>
      </trkpt>
      <trkpt lat="44.77796900086105" lon="6.495029730722308">
        <time>2022-01-25T09:02:05+00:00</time>
        <ele>2080.0</ele>
      </trkpt>
      <trkpt lat="44.77794351987541" lon="6.495005087926984">
        <time>2022-01-25T09:02:10+00:00</time>
        <ele>2081.0</ele>
      </trkpt>
      <trkpt lat="44.777938574552536" lon="6.494999136775732">
        <time>2022-01-25T09:02:11+00:00</time>
        <ele>2081.0</ele>
      </trkpt>
      <trkpt lat="44.77791761979461" lon="6.494976002722979">
        <time>2022-01-25T09:02:17+00:00</time>
        <ele>2082.0</ele>
      </trkpt>
      <trkpt lat="44.777906723320484" lon="6.494969381019473">
        <time>2022-01-25T09:02:19+00:00</time>
        <ele>2082.0</ele>
      </trkpt>
      <trkpt lat="44.7778954077512" lon="6.4949551317840815">
        <time>2022-01-25T09:02:23+00:00</time>
        <ele>2083.0</ele>
      </trkpt>
      <trkpt lat="44.77789440192282" lon="6.494947923347354">
        <time>2022-01-25T09:02:25+00:00</time>
        <ele>2083.0</ele>
      </trkpt>
      <trkpt lat="44.77789825759828" lon="6.494940966367722">
        <time>2022-01-25T09:02:28+00:00</time>
        <ele>2084.0</ele>
      </trkpt>
      <trkpt lat="44.7779078129679" lon="6.494923196732998">
        <time>2022-01-25T09:02:32+00:00</time>
        <ele>2084.0</ele>
      </trkpt>
      <trkpt lat="44.77793823927641" lon="6.494893776252866">
        <time>2022-01-25T09:02:38+00:00</time>
        <ele>2086.0</ele>
      </trkpt>
      <trkpt lat="44.77794712409377" lon="6.494885059073567">
        <time>2022-01-25T09:02:40+00:00</time>
        <ele>2086.0</ele>
      </trkpt>
      <trkpt lat="44.777954667806625" lon="6.494879946112633">
        <time>2022-01-25T09:02:44+00:00</time>
        <ele>2086.0</ele>
      </trkpt>
      <trkpt lat="44.77795818820596" lon="6.494874749332666">
        <time>2022-01-25T09:02:45+00:00</time>
        <ele>2087.0</ele>
      </trkpt>
      <trkpt lat="44.777972772717476" lon="6.494854632765055">
        <time>2022-01-25T09:02:48+00:00</time>
        <ele>2087.0</ele>
      </trkpt>
      <trkpt lat="44.77798752486706" lon="6.494840886443853">
        <time>2022-01-25T09:02:52+00:00</time>
        <ele>2088.0</ele>
      </trkpt>
      <trkpt lat="44.77799138054252" lon="6.494834767654538">
        <time>2022-01-25T09:02:53+00:00</time>
        <ele>2088.0</ele>
      </trkpt>
      <trkpt lat="44.778024489060044" lon="6.494813309982419">
        <time>2022-01-25T09:02:59+00:00</time>
        <ele>2089.0</ele>
      </trkpt>
      <trkpt lat="44.778028931468725" lon="6.494807610288262">
        <time>2022-01-25T09:03:00+00:00</time>
        <ele>2090.0</ele>
      </trkpt>
      <trkpt lat="44.7780301887542" lon="6.494815908372402">
        <time>2022-01-25T09:03:06+00:00</time>
        <ele>2089.0</ele>
      </trkpt>
      <trkpt lat="44.77802683599293" lon="6.49481289088726">
        <time>2022-01-25T09:03:09+00:00</time>
        <ele>2089.0</ele>
      </trkpt>
      <trkpt lat="44.7780251596123" lon="6.494809202849865">
        <time>2022-01-25T09:03:10+00:00</time>
        <ele>2090.0</ele>
      </trkpt>
      <trkpt lat="44.77801996283233" lon="6.494801826775074">
        <time>2022-01-25T09:03:12+00:00</time>
        <ele>2090.0</ele>
      </trkpt>
      <trkpt lat="44.77800847962499" lon="6.494796797633171">
        <time>2022-01-25T09:03:14+00:00</time>
        <ele>2090.0</ele>
      </trkpt>
      <trkpt lat="44.77800277993083" lon="6.4947928581386805">
        <time>2022-01-25T09:03:15+00:00</time>
        <ele>2090.0</ele>
      </trkpt>
      <trkpt lat="44.777986938133836" lon="6.494781458750367">
        <time>2022-01-25T09:03:18+00:00</time>
        <ele>2091.0</ele>
      </trkpt>
      <trkpt lat="44.77796112187207" lon="6.494759162887931">
        <time>2022-01-25T09:03:23+00:00</time>
        <ele>2091.0</ele>
      </trkpt>
      <trkpt lat="44.77795550599694" lon="6.494755055755377">
        <time>2022-01-25T09:03:24+00:00</time>
        <ele>2091.0</ele>
      </trkpt>
      <trkpt lat="44.77794310078025" lon="6.494741141796112">
        <time>2022-01-25T09:03:27+00:00</time>
        <ele>2092.0</ele>
      </trkpt>
      <trkpt lat="44.77793077938259" lon="6.494733598083258">
        <time>2022-01-25T09:03:29+00:00</time>
        <ele>2092.0</ele>
      </trkpt>
      <trkpt lat="44.77791334502399" lon="6.494720773771405">
        <time>2022-01-25T09:03:35+00:00</time>
        <ele>2093.0</ele>
      </trkpt>
      <trkpt lat="44.777912590652704" lon="6.4947177562862635">
        <time>2022-01-25T09:03:36+00:00</time>
        <ele>2093.0</ele>
      </trkpt>
      <trkpt lat="44.77790504693985" lon="6.494714235886931">
        <time>2022-01-25T09:03:38+00:00</time>
        <ele>2093.0</ele>
      </trkpt>
      <trkpt lat="44.77788610383868" lon="6.494699819013476">
        <time>2022-01-25T09:03:43+00:00</time>
        <ele>2093.0</ele>
      </trkpt>
      <trkpt lat="44.77788199670613" lon="6.494686575606465">
        <time>2022-01-25T09:03:45+00:00</time>
        <ele>2094.0</ele>
      </trkpt>
      <trkpt lat="44.77787286043167" lon="6.494676852598786">
        <time>2022-01-25T09:03:47+00:00</time>
        <ele>2094.0</ele>
      </trkpt>
      <trkpt lat="44.77786338888109" lon="6.494666459038854">
        <time>2022-01-25T09:03:49+00:00</time>
        <ele>2095.0</ele>
      </trkpt>
      <trkpt lat="44.77785534225404" lon="6.494653215631843">
        <time>2022-01-25T09:03:51+00:00</time>
        <ele>2095.0</ele>
      </trkpt>
      <trkpt lat="44.77785022929311" lon="6.494646091014147">
        <time>2022-01-25T09:03:52+00:00</time>
        <ele>2095.0</ele>
      </trkpt>
      <trkpt lat="44.77784109301865" lon="6.4946352783590555">
        <time>2022-01-25T09:03:55+00:00</time>
        <ele>2096.0</ele>
      </trkpt>
      <trkpt lat="44.77783774025738" lon="6.49463159032166">
        <time>2022-01-25T09:03:56+00:00</time>
        <ele>2096.0</ele>
      </trkpt>
      <trkpt lat="44.777829525992274" lon="6.494627818465233">
        <time>2022-01-25T09:03:58+00:00</time>
        <ele>2096.0</ele>
      </trkpt>
      <trkpt lat="44.77781703695655" lon="6.494617508724332">
        <time>2022-01-25T09:04:01+00:00</time>
        <ele>2096.0</ele>
      </trkpt>
      <trkpt lat="44.777808068320155" lon="6.49460862390697">
        <time>2022-01-25T09:04:04+00:00</time>
        <ele>2097.0</ele>
      </trkpt>
      <trkpt lat="44.777805134654045" lon="6.494604013860226">
        <time>2022-01-25T09:04:06+00:00</time>
        <ele>2097.0</ele>
      </trkpt>
      <trkpt lat="44.777785101905465" lon="6.494584484025836">
        <time>2022-01-25T09:04:11+00:00</time>
        <ele>2098.0</ele>
      </trkpt>
      <trkpt lat="44.77777638472617" lon="6.494575766846538">
        <time>2022-01-25T09:04:13+00:00</time>
        <ele>2098.0</ele>
      </trkpt>
      <trkpt lat="44.77776515297592" lon="6.494548944756389">
        <time>2022-01-25T09:04:18+00:00</time>
        <ele>2099.0</ele>
      </trkpt>
      <trkpt lat="44.777751909568906" lon="6.4945331029593945">
        <time>2022-01-25T09:04:21+00:00</time>
        <ele>2099.0</ele>
      </trkpt>
      <trkpt lat="44.7777452878654" lon="6.494525307789445">
        <time>2022-01-25T09:04:23+00:00</time>
        <ele>2100.0</ele>
      </trkpt>
      <trkpt lat="44.77772676385939" lon="6.494501670822501">
        <time>2022-01-25T09:04:28+00:00</time>
        <ele>2101.0</ele>
      </trkpt>
      <trkpt lat="44.77772089652717" lon="6.4944959711283445">
        <time>2022-01-25T09:04:29+00:00</time>
        <ele>2101.0</ele>
      </trkpt>
      <trkpt lat="44.77769885212183" lon="6.494471076875925">
        <time>2022-01-25T09:04:35+00:00</time>
        <ele>2102.0</ele>
      </trkpt>
      <trkpt lat="44.77769700810313" lon="6.49446738883853">
        <time>2022-01-25T09:04:36+00:00</time>
        <ele>2102.0</ele>
      </trkpt>
      <trkpt lat="44.777689799666405" lon="6.494456995278597">
        <time>2022-01-25T09:04:38+00:00</time>
        <ele>2103.0</ele>
      </trkpt>
      <trkpt lat="44.777681082487106" lon="6.4944471046328545">
        <time>2022-01-25T09:04:41+00:00</time>
        <ele>2103.0</ele>
      </trkpt>
      <trkpt lat="44.77767144329846" lon="6.494440231472254">
        <time>2022-01-25T09:04:43+00:00</time>
        <ele>2103.0</ele>
      </trkpt>
      <trkpt lat="44.77765400893986" lon="6.494431346654892">
        <time>2022-01-25T09:04:47+00:00</time>
        <ele>2104.0</ele>
      </trkpt>
      <trkpt lat="44.777641436085105" lon="6.494415504857898">
        <time>2022-01-25T09:04:50+00:00</time>
        <ele>2104.0</ele>
      </trkpt>
      <trkpt lat="44.77762324735522" lon="6.494395136833191">
        <time>2022-01-25T09:04:55+00:00</time>
        <ele>2105.0</ele>
      </trkpt>
      <trkpt lat="44.77761561982334" lon="6.494386252015829">
        <time>2022-01-25T09:04:57+00:00</time>
        <ele>2105.0</ele>
      </trkpt>
      <trkpt lat="44.777600951492786" lon="6.494372338056564">
        <time>2022-01-25T09:05:01+00:00</time>
        <ele>2106.0</ele>
      </trkpt>
      <trkpt lat="44.77758368477225" lon="6.494354400783777">
        <time>2022-01-25T09:05:05+00:00</time>
        <ele>2107.0</ele>
      </trkpt>
      <trkpt lat="44.777573458850384" lon="6.494340403005481">
        <time>2022-01-25T09:05:07+00:00</time>
        <ele>2107.0</ele>
      </trkpt>
      <trkpt lat="44.77755954489112" lon="6.494325567036867">
        <time>2022-01-25T09:05:10+00:00</time>
        <ele>2108.0</ele>
      </trkpt>
      <trkpt lat="44.77754387073219" lon="6.49431400001049">
        <time>2022-01-25T09:05:13+00:00</time>
        <ele>2108.0</ele>
      </trkpt>
      <trkpt lat="44.77754110470414" lon="6.494311988353729">
        <time>2022-01-25T09:05:14+00:00</time>
        <ele>2108.0</ele>
      </trkpt>
      <trkpt lat="44.77752786129713" lon="6.494303690269589">
        <time>2022-01-25T09:05:17+00:00</time>
        <ele>2109.0</ele>
      </trkpt>
      <trkpt lat="44.77751964703202" lon="6.494297655299306">
        <time>2022-01-25T09:05:19+00:00</time>
        <ele>2109.0</ele>
      </trkpt>
      <trkpt lat="44.77751545608044" lon="6.494296565651894">
        <time>2022-01-25T09:05:20+00:00</time>
        <ele>2109.0</ele>
      </trkpt>
      <trkpt lat="44.77750380523503" lon="6.494293715804815">
        <time>2022-01-25T09:05:22+00:00</time>
        <ele>2109.0</ele>
      </trkpt>
      <trkpt lat="44.77749751880765" lon="6.494288519024849">
        <time>2022-01-25T09:05:23+00:00</time>
        <ele>2110.0</ele>
      </trkpt>
      <trkpt lat="44.77748838253319" lon="6.49428122676909">
        <time>2022-01-25T09:05:25+00:00</time>
        <ele>2110.0</ele>
      </trkpt>
      <trkpt lat="44.77747078053653" lon="6.4942616969347">
        <time>2022-01-25T09:05:30+00:00</time>
        <ele>2111.0</ele>
      </trkpt>
      <trkpt lat="44.77745988406241" lon="6.494247950613499">
        <time>2022-01-25T09:05:33+00:00</time>
        <ele>2111.0</ele>
      </trkpt>
      <trkpt lat="44.777445467188954" lon="6.494239820167422">
        <time>2022-01-25T09:05:36+00:00</time>
        <ele>2112.0</ele>
      </trkpt>
      <trkpt lat="44.77744094096124" lon="6.494237137958407">
        <time>2022-01-25T09:05:37+00:00</time>
        <ele>2112.0</ele>
      </trkpt>
      <trkpt lat="44.7774207405746" lon="6.494224313646555">
        <time>2022-01-25T09:05:41+00:00</time>
        <ele>2112.0</ele>
      </trkpt>
      <trkpt lat="44.777412693947554" lon="6.494218949228525">
        <time>2022-01-25T09:05:43+00:00</time>
        <ele>2113.0</ele>
      </trkpt>
      <trkpt lat="44.777406910434365" lon="6.494211908429861">
        <time>2022-01-25T09:05:45+00:00</time>
        <ele>2113.0</ele>
      </trkpt>
      <trkpt lat="44.77738478220999" lon="6.494195815175772">
        <time>2022-01-25T09:05:50+00:00</time>
        <ele>2114.0</ele>
      </trkpt>
      <trkpt lat="44.77736324071884" lon="6.494185589253902">
        <time>2022-01-25T09:05:55+00:00</time>
        <ele>2114.0</ele>
      </trkpt>
      <trkpt lat="44.77735930122435" lon="6.494184164330363">
        <time>2022-01-25T09:05:56+00:00</time>
        <ele>2114.0</ele>
      </trkpt>
      <trkpt lat="44.777326276525855" lon="6.494167819619179">
        <time>2022-01-25T09:06:03+00:00</time>
        <ele>2115.0</ele>
      </trkpt>
      <trkpt lat="44.77731982246041" lon="6.494164634495974">
        <time>2022-01-25T09:06:04+00:00</time>
        <ele>2116.0</ele>
      </trkpt>
      <trkpt lat="44.777308255434036" lon="6.49415323510766">
        <time>2022-01-25T09:06:07+00:00</time>
        <ele>2116.0</ele>
      </trkpt>
      <trkpt lat="44.77729224599898" lon="6.494145607575774">
        <time>2022-01-25T09:06:10+00:00</time>
        <ele>2117.0</ele>
      </trkpt>
      <trkpt lat="44.77728922851384" lon="6.4941437635570765">
        <time>2022-01-25T09:06:11+00:00</time>
        <ele>2117.0</ele>
      </trkpt>
      <trkpt lat="44.777283277362585" lon="6.4941390696913">
        <time>2022-01-25T09:06:13+00:00</time>
        <ele>2117.0</ele>
      </trkpt>
      <trkpt lat="44.7772584669292" lon="6.494128257036209">
        <time>2022-01-25T09:06:18+00:00</time>
        <ele>2118.0</ele>
      </trkpt>
      <trkpt lat="44.77725142613053" lon="6.494123814627528">
        <time>2022-01-25T09:06:20+00:00</time>
        <ele>2118.0</ele>
      </trkpt>
      <trkpt lat="44.777238853275776" lon="6.494116438552737">
        <time>2022-01-25T09:06:23+00:00</time>
        <ele>2118.0</ele>
      </trkpt>
      <trkpt lat="44.77723449468613" lon="6.494112918153405">
        <time>2022-01-25T09:06:24+00:00</time>
        <ele>2119.0</ele>
      </trkpt>
      <trkpt lat="44.77723189629614" lon="6.494110319763422">
        <time>2022-01-25T09:06:25+00:00</time>
        <ele>2119.0</ele>
      </trkpt>
      <trkpt lat="44.77721991017461" lon="6.494096405804157">
        <time>2022-01-25T09:06:28+00:00</time>
        <ele>2119.0</ele>
      </trkpt>
      <trkpt lat="44.77721203118563" lon="6.4940872695297">
        <time>2022-01-25T09:06:30+00:00</time>
        <ele>2120.0</ele>
      </trkpt>
      <trkpt lat="44.777207588776946" lon="6.494068410247564">
        <time>2022-01-25T09:06:35+00:00</time>
        <ele>2120.0</ele>
      </trkpt>
      <trkpt lat="44.77720876224339" lon="6.494068996980786">
        <time>2022-01-25T09:06:36+00:00</time>
        <ele>2120.0</ele>
      </trkpt>
      <trkpt lat="44.77721890434623" lon="6.494060028344393">
        <time>2022-01-25T09:06:38+00:00</time>
        <ele>2121.0</ele>
      </trkpt>
      <trkpt lat="44.77724933065474" lon="6.49403010495007">
        <time>2022-01-25T09:06:43+00:00</time>
        <ele>2122.0</ele>
      </trkpt>
      <trkpt lat="44.777264166623354" lon="6.494015520438552">
        <time>2022-01-25T09:06:46+00:00</time>
        <ele>2122.0</ele>
      </trkpt>
      <trkpt lat="44.77728696539998" lon="6.494009401649237">
        <time>2022-01-25T09:06:51+00:00</time>
        <ele>2123.0</ele>
      </trkpt>
      <trkpt lat="44.77729576639831" lon="6.494002109393477">
        <time>2022-01-25T09:06:53+00:00</time>
        <ele>2123.0</ele>
      </trkpt>
      <trkpt lat="44.7773118596524" lon="6.493982831016183">
        <time>2022-01-25T09:07:00+00:00</time>
        <ele>2124.0</ele>
      </trkpt>
      <trkpt lat="44.7773168887943" lon="6.493974449113011">
        <time>2022-01-25T09:07:03+00:00</time>
        <ele>2124.0</ele>
      </trkpt>
      <trkpt lat="44.77732996456325" lon="6.493958188220859">
        <time>2022-01-25T09:07:07+00:00</time>
        <ele>2125.0</ele>
      </trkpt>
      <trkpt lat="44.777336502447724" lon="6.493958691135049">
        <time>2022-01-25T09:07:10+00:00</time>
        <ele>2125.0</ele>
      </trkpt>
      <trkpt lat="44.77734915912151" lon="6.493950476869941">
        <time>2022-01-25T09:07:14+00:00</time>
        <ele>2125.0</ele>
      </trkpt>
      <trkpt lat="44.77736114524305" lon="6.493945196270943">
        <time>2022-01-25T09:07:17+00:00</time>
        <ele>2126.0</ele>
      </trkpt>
      <trkpt lat="44.7773948404938" lon="6.493918290361762">
        <time>2022-01-25T09:07:23+00:00</time>
        <ele>2127.0</ele>
      </trkpt>
      <trkpt lat="44.77740137837827" lon="6.493913847953081">
        <time>2022-01-25T09:07:24+00:00</time>
        <ele>2127.0</ele>
      </trkpt>
      <trkpt lat="44.77743356488645" lon="6.493892138823867">
        <time>2022-01-25T09:07:30+00:00</time>
        <ele>2128.0</ele>
      </trkpt>
      <trkpt lat="44.777440102770925" lon="6.493885265663266">
        <time>2022-01-25T09:07:31+00:00</time>
        <ele>2129.0</ele>
      </trkpt>
      <trkpt lat="44.77745125070214" lon="6.4938789792358875">
        <time>2022-01-25T09:07:33+00:00</time>
        <ele>2129.0</ele>
      </trkpt>
      <trkpt lat="44.77745661512017" lon="6.493876548483968">
        <time>2022-01-25T09:07:34+00:00</time>
        <ele>2129.0</ele>
      </trkpt>
      <trkpt lat="44.77747270837426" lon="6.493872189894319">
        <time>2022-01-25T09:07:37+00:00</time>
        <ele>2129.0</ele>
      </trkpt>
      <trkpt lat="44.777492908760905" lon="6.493871184065938">
        <time>2022-01-25T09:07:40+00:00</time>
        <ele>2129.0</ele>
      </trkpt>
      <trkpt lat="44.77751453407109" lon="6.493863221257925">
        <time>2022-01-25T09:07:43+00:00</time>
        <ele>2130.0</ele>
      </trkpt>
      <trkpt lat="44.777564741671085" lon="6.493834890425205">
        <time>2022-01-25T09:07:52+00:00</time>
        <ele>2131.0</ele>
      </trkpt>
      <trkpt lat="44.77760740555823" lon="6.493826592341065">
        <time>2022-01-25T09:07:59+00:00</time>
        <ele>2132.0</ele>
      </trkpt>
      <trkpt lat="44.77761151269078" lon="6.493824077770114">
        <time>2022-01-25T09:08:00+00:00</time>
        <ele>2132.0</ele>
      </trkpt>
      <trkpt lat="44.77763439528644" lon="6.493803709745407">
        <time>2022-01-25T09:08:05+00:00</time>
        <ele>2133.0</ele>
      </trkpt>
      <trkpt lat="44.777650237083435" lon="6.493792897090316">
        <time>2022-01-25T09:08:08+00:00</time>
        <ele>2133.0</ele>
      </trkpt>
      <trkpt lat="44.777657613158226" lon="6.49379113689065">
        <time>2022-01-25T09:08:10+00:00</time>
        <ele>2134.0</ele>
      </trkpt>
      <trkpt lat="44.77767555043101" lon="6.493784850463271">
        <time>2022-01-25T09:08:13+00:00</time>
        <ele>2134.0</ele>
      </trkpt>
      <trkpt lat="44.777709832414985" lon="6.49376917630434">
        <time>2022-01-25T09:08:19+00:00</time>
        <ele>2135.0</ele>
      </trkpt>
      <trkpt lat="44.777711760252714" lon="6.493767919018865">
        <time>2022-01-25T09:08:20+00:00</time>
        <ele>2135.0</ele>
      </trkpt>
      <trkpt lat="44.77772366255522" lon="6.493757106363773">
        <time>2022-01-25T09:08:22+00:00</time>
        <ele>2135.0</ele>
      </trkpt>
      <trkpt lat="44.77777403779328" lon="6.49374520406127">
        <time>2022-01-25T09:08:30+00:00</time>
        <ele>2136.0</ele>
      </trkpt>
      <trkpt lat="44.77778485044837" lon="6.493741935119033">
        <time>2022-01-25T09:08:32+00:00</time>
        <ele>2136.0</ele>
      </trkpt>
      <trkpt lat="44.77778526954353" lon="6.49373690597713">
        <time>2022-01-25T09:08:40+00:00</time>
        <ele>2137.0</ele>
      </trkpt>
      <trkpt lat="44.777779653668404" lon="6.49373740889132">
        <time>2022-01-25T09:08:42+00:00</time>
        <ele>2137.0</ele>
      </trkpt>
      <trkpt lat="44.77776691317558" lon="6.493737995624542">
        <time>2022-01-25T09:08:45+00:00</time>
        <ele>2136.0</ele>
      </trkpt>
      <trkpt lat="44.777757441625" lon="6.493730284273624">
        <time>2022-01-25T09:08:47+00:00</time>
        <ele>2137.0</ele>
      </trkpt>
      <trkpt lat="44.77772424928844" lon="6.493721986189485">
        <time>2022-01-25T09:08:52+00:00</time>
        <ele>2137.0</ele>
      </trkpt>
      <trkpt lat="44.77771787904203" lon="6.49371737614274">
        <time>2022-01-25T09:08:53+00:00</time>
        <ele>2138.0</ele>
      </trkpt>
      <trkpt lat="44.77770161814988" lon="6.493708323687315">
        <time>2022-01-25T09:08:56+00:00</time>
        <ele>2138.0</ele>
      </trkpt>
      <trkpt lat="44.77769239805639" lon="6.493700360879302">
        <time>2022-01-25T09:08:58+00:00</time>
        <ele>2139.0</ele>
      </trkpt>
      <trkpt lat="44.77765861898661" lon="6.493672365322709">
        <time>2022-01-25T09:09:04+00:00</time>
        <ele>2140.0</ele>
      </trkpt>
      <trkpt lat="44.77764462120831" lon="6.493665240705013">
        <time>2022-01-25T09:09:06+00:00</time>
        <ele>2141.0</ele>
      </trkpt>
      <trkpt lat="44.77762316353619" lon="6.493660965934396">
        <time>2022-01-25T09:09:09+00:00</time>
        <ele>2141.0</ele>
      </trkpt>
      <trkpt lat="44.77761687710881" lon="6.49365970864892">
        <time>2022-01-25T09:09:10+00:00</time>
        <ele>2141.0</ele>
      </trkpt>
      <trkpt lat="44.77758301422" lon="6.493643615394831">
        <time>2022-01-25T09:09:16+00:00</time>
        <ele>2142.0</ele>
      </trkpt>
      <trkpt lat="44.77757873944938" lon="6.49364311248064">
        <time>2022-01-25T09:09:17+00:00</time>
        <ele>2142.0</ele>
      </trkpt>
      <trkpt lat="44.77755426429212" lon="6.49362743832171">
        <time>2022-01-25T09:09:22+00:00</time>
        <ele>2143.0</ele>
      </trkpt>
      <trkpt lat="44.77753708139062" lon="6.4936145301908255">
        <time>2022-01-25T09:09:26+00:00</time>
        <ele>2143.0</ele>
      </trkpt>
      <trkpt lat="44.77753037586808" lon="6.493611261248589">
        <time>2022-01-25T09:09:28+00:00</time>
        <ele>2143.0</ele>
      </trkpt>
      <trkpt lat="44.77750497870147" lon="6.493605729192495">
        <time>2022-01-25T09:09:33+00:00</time>
        <ele>2144.0</ele>
      </trkpt>
      <trkpt lat="44.77748922072351" lon="6.49359910748899">
        <time>2022-01-25T09:09:38+00:00</time>
        <ele>2144.0</ele>
      </trkpt>
      <trkpt lat="44.77747689932585" lon="6.493594832718372">
        <time>2022-01-25T09:09:41+00:00</time>
        <ele>2144.0</ele>
      </trkpt>
      <trkpt lat="44.77746642194688" lon="6.493593156337738">
        <time>2022-01-25T09:09:43+00:00</time>
        <ele>2144.0</ele>
      </trkpt>
      <trkpt lat="44.777457285672426" lon="6.493587037548423">
        <time>2022-01-25T09:09:46+00:00</time>
        <ele>2144.0</ele>
      </trkpt>
      <trkpt lat="44.77744462899864" lon="6.493576392531395">
        <time>2022-01-25T09:09:49+00:00</time>
        <ele>2145.0</ele>
      </trkpt>
      <trkpt lat="44.77741478942335" lon="6.493562143296003">
        <time>2022-01-25T09:09:56+00:00</time>
        <ele>2146.0</ele>
      </trkpt>
      <trkpt lat="44.77738386020064" lon="6.493546385318041">
        <time>2022-01-25T09:10:01+00:00</time>
        <ele>2146.0</ele>
      </trkpt>
      <trkpt lat="44.77737329900265" lon="6.493540853261948">
        <time>2022-01-25T09:10:03+00:00</time>
        <ele>2147.0</ele>
      </trkpt>
      <trkpt lat="44.777357541024685" lon="6.493535740301013">
        <time>2022-01-25T09:10:06+00:00</time>
        <ele>2147.0</ele>
      </trkpt>
      <trkpt lat="44.777335496619344" lon="6.493527106940746">
        <time>2022-01-25T09:10:10+00:00</time>
        <ele>2147.0</ele>
      </trkpt>
      <trkpt lat="44.7773308865726" lon="6.493522245436907">
        <time>2022-01-25T09:10:11+00:00</time>
        <ele>2148.0</ele>
      </trkpt>
      <trkpt lat="44.77731789462268" lon="6.493517300114036">
        <time>2022-01-25T09:10:13+00:00</time>
        <ele>2148.0</ele>
      </trkpt>
      <trkpt lat="44.777315547689795" lon="6.493512941524386">
        <time>2022-01-25T09:10:14+00:00</time>
        <ele>2148.0</ele>
      </trkpt>
      <trkpt lat="44.77728805504739" lon="6.493494920432568">
        <time>2022-01-25T09:10:20+00:00</time>
        <ele>2149.0</ele>
      </trkpt>
      <trkpt lat="44.77728352881968" lon="6.493492070585489">
        <time>2022-01-25T09:10:21+00:00</time>
        <ele>2149.0</ele>
      </trkpt>
      <trkpt lat="44.777273051440716" lon="6.4934902265667915">
        <time>2022-01-25T09:10:23+00:00</time>
        <ele>2149.0</ele>
      </trkpt>
      <trkpt lat="44.77726684883237" lon="6.493489220738411">
        <time>2022-01-25T09:10:24+00:00</time>
        <ele>2149.0</ele>
      </trkpt>
      <trkpt lat="44.777244636788964" lon="6.493474468588829">
        <time>2022-01-25T09:10:29+00:00</time>
        <ele>2150.0</ele>
      </trkpt>
      <trkpt lat="44.777226531878114" lon="6.49346424266696">
        <time>2022-01-25T09:10:33+00:00</time>
        <ele>2150.0</ele>
      </trkpt>
      <trkpt lat="44.77721521630883" lon="6.493461392819881">
        <time>2022-01-25T09:10:35+00:00</time>
        <ele>2150.0</ele>
      </trkpt>
      <trkpt lat="44.77720448747277" lon="6.493453094735742">
        <time>2022-01-25T09:10:37+00:00</time>
        <ele>2151.0</ele>
      </trkpt>
      <trkpt lat="44.77719409391284" lon="6.493445131927729">
        <time>2022-01-25T09:10:39+00:00</time>
        <ele>2151.0</ele>
      </trkpt>
      <trkpt lat="44.77718914858997" lon="6.493438258767128">
        <time>2022-01-25T09:10:40+00:00</time>
        <ele>2151.0</ele>
      </trkpt>
      <trkpt lat="44.77718395181" lon="6.493425685912371">
        <time>2022-01-25T09:10:42+00:00</time>
        <ele>2152.0</ele>
      </trkpt>
      <trkpt lat="44.7771686129272" lon="6.493402300402522">
        <time>2022-01-25T09:10:47+00:00</time>
        <ele>2153.0</ele>
      </trkpt>
      <trkpt lat="44.777167020365596" lon="6.4933983609080315">
        <time>2022-01-25T09:10:48+00:00</time>
        <ele>2153.0</ele>
      </trkpt>
      <trkpt lat="44.77716316469014" lon="6.49339341558516">
        <time>2022-01-25T09:10:50+00:00</time>
        <ele>2153.0</ele>
      </trkpt>
      <trkpt lat="44.777162577956915" lon="6.493391906842589">
        <time>2022-01-25T09:10:51+00:00</time>
        <ele>2153.0</ele>
      </trkpt>
      <trkpt lat="44.77714573033154" lon="6.493384195491672">
        <time>2022-01-25T09:10:58+00:00</time>
        <ele>2154.0</ele>
      </trkpt>
      <trkpt lat="44.777144556865096" lon="6.493384698405862">
        <time>2022-01-25T09:10:59+00:00</time>
        <ele>2154.0</ele>
      </trkpt>
      <trkpt lat="44.777144556865096" lon="6.493384698405862">
        <time>2022-01-25T09:11:05+00:00</time>
        <ele>2154.0</ele>
      </trkpt>
      <trkpt lat="44.777144556865096" lon="6.493384698405862">
        <time>2022-01-25T09:11:07+00:00</time>
        <ele>2154.0</ele>
      </trkpt>
      <trkpt lat="44.777144556865096" lon="6.493384698405862">
        <time>2022-01-25T09:11:10+00:00</time>
        <ele>2154.0</ele>
      </trkpt>
      <trkpt lat="44.77714422158897" lon="6.493384866043925">
        <time>2022-01-25T09:11:18+00:00</time>
        <ele>2154.0</ele>
      </trkpt>
      <trkpt lat="44.77714363485575" lon="6.493385368958116">
        <time>2022-01-25T09:11:20+00:00</time>
        <ele>2154.0</ele>
      </trkpt>
      <trkpt lat="44.77713701315224" lon="6.4933915715664625">
        <time>2022-01-25T09:11:34+00:00</time>
        <ele>2153.0</ele>
      </trkpt>
      <trkpt lat="44.77710323408246" lon="6.493384949862957">
        <time>2022-01-25T09:11:54+00:00</time>
        <ele>2154.0</ele>
      </trkpt>
      <trkpt lat="44.77711480110884" lon="6.493356954306364">
        <time>2022-01-25T09:12:08+00:00</time>
        <ele>2155.0</ele>
      </trkpt>
      <trkpt lat="44.77707180194557" lon="6.493332060053945">
        <time>2022-01-25T09:12:17+00:00</time>
        <ele>2156.0</ele>
      </trkpt>
      <trkpt lat="44.777059732005" lon="6.4933267794549465">
        <time>2022-01-25T09:12:18+00:00</time>
        <ele>2156.0</ele>
      </trkpt>
      <trkpt lat="44.77697901427746" lon="6.493301130831242">
        <time>2022-01-25T09:12:26+00:00</time>
        <ele>2158.0</ele>
      </trkpt>
      <trkpt lat="44.77697021327913" lon="6.493301298469305">
        <time>2022-01-25T09:12:27+00:00</time>
        <ele>2158.0</ele>
      </trkpt>
      <trkpt lat="44.77691162377596" lon="6.493287635967135">
        <time>2022-01-25T09:12:35+00:00</time>
        <ele>2159.0</ele>
      </trkpt>
      <trkpt lat="44.77690726518631" lon="6.493284199386835">
        <time>2022-01-25T09:12:36+00:00</time>
        <ele>2159.0</ele>
      </trkpt>
      <trkpt lat="44.77689066901803" lon="6.4932740572839975">
        <time>2022-01-25T09:12:40+00:00</time>
        <ele>2159.0</ele>
      </trkpt>
      <trkpt lat="44.776882119476795" lon="6.493266932666302">
        <time>2022-01-25T09:12:42+00:00</time>
        <ele>2160.0</ele>
      </trkpt>
      <trkpt lat="44.77687440812588" lon="6.493262406438589">
        <time>2022-01-25T09:12:44+00:00</time>
        <ele>2160.0</ele>
      </trkpt>
      <trkpt lat="44.77686879225075" lon="6.493260394781828">
        <time>2022-01-25T09:12:45+00:00</time>
        <ele>2160.0</ele>
      </trkpt>
      <trkpt lat="44.776865942403674" lon="6.493256455287337">
        <time>2022-01-25T09:12:46+00:00</time>
        <ele>2160.0</ele>
      </trkpt>
      <trkpt lat="44.77685688994825" lon="6.49325218051672">
        <time>2022-01-25T09:12:48+00:00</time>
        <ele>2160.0</ele>
      </trkpt>
      <trkpt lat="44.77685295045376" lon="6.49324731901288">
        <time>2022-01-25T09:12:49+00:00</time>
        <ele>2161.0</ele>
      </trkpt>
      <trkpt lat="44.77685647085309" lon="6.493240278214216">
        <time>2022-01-25T09:12:54+00:00</time>
        <ele>2161.0</ele>
      </trkpt>
      <trkpt lat="44.77685839869082" lon="6.493240864947438">
        <time>2022-01-25T09:13:04+00:00</time>
        <ele>2161.0</ele>
      </trkpt>
      <trkpt lat="44.77685839869082" lon="6.493240864947438">
        <time>2022-01-25T09:13:09+00:00</time>
        <ele>2161.0</ele>
      </trkpt>
      <trkpt lat="44.776861080899835" lon="6.49324044585228">
        <time>2022-01-25T09:13:12+00:00</time>
        <ele>2161.0</ele>
      </trkpt>
      <trkpt lat="44.77687692269683" lon="6.493230136111379">
        <time>2022-01-25T09:13:17+00:00</time>
        <ele>2161.0</ele>
      </trkpt>
      <trkpt lat="44.7768921777606" lon="6.493214126676321">
        <time>2022-01-25T09:13:20+00:00</time>
        <ele>2162.0</ele>
      </trkpt>
      <trkpt lat="44.7769286390394" lon="6.493179341778159">
        <time>2022-01-25T09:13:29+00:00</time>
        <ele>2163.0</ele>
      </trkpt>
      <trkpt lat="44.776935344561934" lon="6.493174144998193">
        <time>2022-01-25T09:13:30+00:00</time>
        <ele>2164.0</ele>
      </trkpt>
      <trkpt lat="44.77694531902671" lon="6.493164757266641">
        <time>2022-01-25T09:13:32+00:00</time>
        <ele>2164.0</ele>
      </trkpt>
      <trkpt lat="44.77695856243372" lon="6.493154866620898">
        <time>2022-01-25T09:13:35+00:00</time>
        <ele>2164.0</ele>
      </trkpt>
      <trkpt lat="44.77696602232754" lon="6.493153190240264">
        <time>2022-01-25T09:13:38+00:00</time>
        <ele>2165.0</ele>
      </trkpt>
      <trkpt lat="44.77697289548814" lon="6.493149921298027">
        <time>2022-01-25T09:13:40+00:00</time>
        <ele>2165.0</ele>
      </trkpt>
      <trkpt lat="44.776986138895154" lon="6.493136426433921">
        <time>2022-01-25T09:13:44+00:00</time>
        <ele>2165.0</ele>
      </trkpt>
      <trkpt lat="44.777002818882465" lon="6.49312418885529">
        <time>2022-01-25T09:13:49+00:00</time>
        <ele>2166.0</ele>
      </trkpt>
      <trkpt lat="44.777055541053414" lon="6.4930899906903505">
        <time>2022-01-25T09:13:53+00:00</time>
        <ele>2167.0</ele>
      </trkpt>
      <trkpt lat="44.77706903591752" lon="6.493079261854291">
        <time>2022-01-25T09:13:54+00:00</time>
        <ele>2168.0</ele>
      </trkpt>
      <trkpt lat="44.77709845639765" lon="6.493058139458299">
        <time>2022-01-25T09:13:56+00:00</time>
        <ele>2168.0</ele>
      </trkpt>
      <trkpt lat="44.77711949497461" lon="6.493043638765812">
        <time>2022-01-25T09:13:58+00:00</time>
        <ele>2169.0</ele>
      </trkpt>
      <trkpt lat="44.77712309919298" lon="6.493046153336763">
        <time>2022-01-25T09:14:01+00:00</time>
        <ele>2169.0</ele>
      </trkpt>
      <trkpt lat="44.777127457782626" lon="6.493044812232256">
        <time>2022-01-25T09:14:03+00:00</time>
        <ele>2169.0</ele>
      </trkpt>
      <trkpt lat="44.77713064290583" lon="6.493055121973157">
        <time>2022-01-25T09:14:05+00:00</time>
        <ele>2168.0</ele>
      </trkpt>
      <trkpt lat="44.777128798887134" lon="6.4930440578609705">
        <time>2022-01-25T09:14:07+00:00</time>
        <ele>2169.0</ele>
      </trkpt>
      <trkpt lat="44.77712720632553" lon="6.493051769211888">
        <time>2022-01-25T09:14:10+00:00</time>
        <ele>2169.0</ele>
      </trkpt>
      <trkpt lat="44.77711094543338" lon="6.493042632937431">
        <time>2022-01-25T09:14:14+00:00</time>
        <ele>2169.0</ele>
      </trkpt>
      <trkpt lat="44.777105916291475" lon="6.493041291832924">
        <time>2022-01-25T09:14:15+00:00</time>
        <ele>2169.0</ele>
      </trkpt>
      <trkpt lat="44.77710021659732" lon="6.493039447814226">
        <time>2022-01-25T09:14:16+00:00</time>
        <ele>2169.0</ele>
      </trkpt>
      <trkpt lat="44.77706325240433" lon="6.493022600188851">
        <time>2022-01-25T09:14:22+00:00</time>
        <ele>2170.0</ele>
      </trkpt>
      <trkpt lat="44.77704179473221" lon="6.4930143021047115">
        <time>2022-01-25T09:14:25+00:00</time>
        <ele>2171.0</ele>
      </trkpt>
      <trkpt lat="44.777008602395654" lon="6.4930101949721575">
        <time>2022-01-25T09:14:29+00:00</time>
        <ele>2171.0</ele>
      </trkpt>
      <trkpt lat="44.7769904974848" lon="6.4930084347724915">
        <time>2022-01-25T09:14:31+00:00</time>
        <ele>2171.0</ele>
      </trkpt>
      <trkpt lat="44.77697113528848" lon="6.4930034056305885">
        <time>2022-01-25T09:14:34+00:00</time>
        <ele>2172.0</ele>
      </trkpt>
      <trkpt lat="44.77694624103606" lon="6.492988904938102">
        <time>2022-01-25T09:14:38+00:00</time>
        <ele>2172.0</ele>
      </trkpt>
      <trkpt lat="44.77694255299866" lon="6.4929872285574675">
        <time>2022-01-25T09:14:39+00:00</time>
        <ele>2172.0</ele>
      </trkpt>
      <trkpt lat="44.77693936787546" lon="6.492984546348453">
        <time>2022-01-25T09:14:40+00:00</time>
        <ele>2173.0</ele>
      </trkpt>
      <trkpt lat="44.77693517692387" lon="6.492979768663645">
        <time>2022-01-25T09:14:41+00:00</time>
        <ele>2173.0</ele>
      </trkpt>
      <trkpt lat="44.77690827101469" lon="6.492974990978837">
        <time>2022-01-25T09:14:45+00:00</time>
        <ele>2173.0</ele>
      </trkpt>
      <trkpt lat="44.77687407284975" lon="6.492969123646617">
        <time>2022-01-25T09:14:51+00:00</time>
        <ele>2173.0</ele>
      </trkpt>
      <trkpt lat="44.776855213567615" lon="6.492951270192862">
        <time>2022-01-25T09:14:57+00:00</time>
        <ele>2174.0</ele>
      </trkpt>
      <trkpt lat="44.77684264071286" lon="6.492946995422244">
        <time>2022-01-25T09:14:59+00:00</time>
        <ele>2175.0</ele>
      </trkpt>
      <trkpt lat="44.776830738410354" lon="6.4929454028606415">
        <time>2022-01-25T09:15:01+00:00</time>
        <ele>2175.0</ele>
      </trkpt>
      <trkpt lat="44.77682420052588" lon="6.492941463366151">
        <time>2022-01-25T09:15:02+00:00</time>
        <ele>2175.0</ele>
      </trkpt>
      <trkpt lat="44.77681783027947" lon="6.492937691509724">
        <time>2022-01-25T09:15:03+00:00</time>
        <ele>2175.0</ele>
      </trkpt>
      <trkpt lat="44.7767920140177" lon="6.492915311828256">
        <time>2022-01-25T09:15:07+00:00</time>
        <ele>2176.0</ele>
      </trkpt>
      <trkpt lat="44.77677105925977" lon="6.492901481688023">
        <time>2022-01-25T09:15:13+00:00</time>
        <ele>2177.0</ele>
      </trkpt>
      <trkpt lat="44.77677181363106" lon="6.492898548021913">
        <time>2022-01-25T09:15:14+00:00</time>
        <ele>2177.0</ele>
      </trkpt>
      <trkpt lat="44.776771729812026" lon="6.492898464202881">
        <time>2022-01-25T09:15:15+00:00</time>
        <ele>2177.0</ele>
      </trkpt>
      <trkpt lat="44.776774076744914" lon="6.492898967117071">
        <time>2022-01-25T09:15:16+00:00</time>
        <ele>2177.0</ele>
      </trkpt>
      <trkpt lat="44.77678840979934" lon="6.492887316271663">
        <time>2022-01-25T09:15:19+00:00</time>
        <ele>2178.0</ele>
      </trkpt>
      <trkpt lat="44.776796540245414" lon="6.4928817842155695">
        <time>2022-01-25T09:15:21+00:00</time>
        <ele>2178.0</ele>
      </trkpt>
      <trkpt lat="44.776820512488484" lon="6.492878347635269">
        <time>2022-01-25T09:15:25+00:00</time>
        <ele>2179.0</ele>
      </trkpt>
      <trkpt lat="44.77683627046645" lon="6.492873067036271">
        <time>2022-01-25T09:15:28+00:00</time>
        <ele>2179.0</ele>
      </trkpt>
      <trkpt lat="44.776845406740904" lon="6.49287055246532">
        <time>2022-01-25T09:15:30+00:00</time>
        <ele>2179.0</ele>
      </trkpt>
      <trkpt lat="44.77685688994825" lon="6.492867115885019">
        <time>2022-01-25T09:15:32+00:00</time>
        <ele>2179.0</ele>
      </trkpt>
      <trkpt lat="44.77686636149883" lon="6.49286761879921">
        <time>2022-01-25T09:15:34+00:00</time>
        <ele>2179.0</ele>
      </trkpt>
      <trkpt lat="44.776903074234724" lon="6.492844149470329">
        <time>2022-01-25T09:15:40+00:00</time>
        <ele>2180.0</ele>
      </trkpt>
      <trkpt lat="44.77691103704274" lon="6.492839707061648">
        <time>2022-01-25T09:15:41+00:00</time>
        <ele>2181.0</ele>
      </trkpt>
      <trkpt lat="44.77691606618464" lon="6.4928364381194115">
        <time>2022-01-25T09:15:42+00:00</time>
        <ele>2181.0</ele>
      </trkpt>
      <trkpt lat="44.776939786970615" lon="6.492812968790531">
        <time>2022-01-25T09:15:47+00:00</time>
        <ele>2182.0</ele>
      </trkpt>
      <trkpt lat="44.77695579640567" lon="6.4927981328219175">
        <time>2022-01-25T09:15:49+00:00</time>
        <ele>2183.0</ele>
      </trkpt>
      <trkpt lat="44.776966609060764" lon="6.492796037346125">
        <time>2022-01-25T09:15:51+00:00</time>
        <ele>2183.0</ele>
      </trkpt>
      <trkpt lat="44.77697473950684" lon="6.49279679171741">
        <time>2022-01-25T09:15:53+00:00</time>
        <ele>2183.0</ele>
      </trkpt>
      <trkpt lat="44.77698052302003" lon="6.492793606594205">
        <time>2022-01-25T09:15:54+00:00</time>
        <ele>2183.0</ele>
      </trkpt>
      <trkpt lat="44.776993095874786" lon="6.492785979062319">
        <time>2022-01-25T09:15:56+00:00</time>
        <ele>2183.0</ele>
      </trkpt>
      <trkpt lat="44.77702762931585" lon="6.4927630964666605">
        <time>2022-01-25T09:16:04+00:00</time>
        <ele>2185.0</ele>
      </trkpt>
      <trkpt lat="44.77703399956226" lon="6.4927545469254255">
        <time>2022-01-25T09:16:13+00:00</time>
        <ele>2185.0</ele>
      </trkpt>
      <trkpt lat="44.77702980861068" lon="6.492757899686694">
        <time>2022-01-25T09:16:16+00:00</time>
        <ele>2185.0</ele>
      </trkpt>
      <trkpt lat="44.77702955715358" lon="6.49275672622025">
        <time>2022-01-25T09:16:22+00:00</time>
        <ele>2185.0</ele>
      </trkpt>
      <trkpt lat="44.77702955715358" lon="6.49275672622025">
        <time>2022-01-25T09:16:28+00:00</time>
        <ele>2185.0</ele>
      </trkpt>
      <trkpt lat="44.77702955715358" lon="6.492755049839616">
        <time>2022-01-25T09:16:31+00:00</time>
        <ele>2185.0</ele>
      </trkpt>
      <trkpt lat="44.77701832540333" lon="6.492745243012905">
        <time>2022-01-25T09:16:40+00:00</time>
        <ele>2186.0</ele>
      </trkpt>
      <trkpt lat="44.77701530791819" lon="6.492740381509066">
        <time>2022-01-25T09:16:45+00:00</time>
        <ele>2186.0</ele>
      </trkpt>
      <trkpt lat="44.77700441144407" lon="6.492724539712071">
        <time>2022-01-25T09:16:53+00:00</time>
        <ele>2187.0</ele>
      </trkpt>
      <trkpt lat="44.77700399234891" lon="6.49271909147501">
        <time>2022-01-25T09:17:02+00:00</time>
        <ele>2187.0</ele>
      </trkpt>
      <trkpt lat="44.776975996792316" lon="6.492716828361154">
        <time>2022-01-25T09:17:08+00:00</time>
        <ele>2187.0</ele>
      </trkpt>
      <trkpt lat="44.77693232707679" lon="6.492700232192874">
        <time>2022-01-25T09:17:15+00:00</time>
        <ele>2189.0</ele>
      </trkpt>
      <trkpt lat="44.77690810337663" lon="6.492693275213242">
        <time>2022-01-25T09:17:19+00:00</time>
        <ele>2189.0</ele>
      </trkpt>
      <trkpt lat="44.776901649311185" lon="6.492690593004227">
        <time>2022-01-25T09:17:20+00:00</time>
        <ele>2189.0</ele>
      </trkpt>
      <trkpt lat="44.77689008228481" lon="6.492683636024594">
        <time>2022-01-25T09:17:22+00:00</time>
        <ele>2190.0</ele>
      </trkpt>
      <trkpt lat="44.77684532292187" lon="6.4926650281995535">
        <time>2022-01-25T09:17:29+00:00</time>
        <ele>2191.0</ele>
      </trkpt>
      <trkpt lat="44.77678840979934" lon="6.492629572749138">
        <time>2022-01-25T09:17:39+00:00</time>
        <ele>2193.0</ele>
      </trkpt>
      <trkpt lat="44.77678262628615" lon="6.492626639083028">
        <time>2022-01-25T09:17:40+00:00</time>
        <ele>2193.0</ele>
      </trkpt>
      <trkpt lat="44.77676787413657" lon="6.492612054571509">
        <time>2022-01-25T09:17:46+00:00</time>
        <ele>2193.0</ele>
      </trkpt>
      <trkpt lat="44.77676066569984" lon="6.49260526522994">
        <time>2022-01-25T09:17:48+00:00</time>
        <ele>2194.0</ele>
      </trkpt>
      <trkpt lat="44.77672948502004" lon="6.492564948275685">
        <time>2022-01-25T09:18:00+00:00</time>
        <ele>2195.0</ele>
      </trkpt>
      <trkpt lat="44.77672940120101" lon="6.492556147277355">
        <time>2022-01-25T09:18:05+00:00</time>
        <ele>2196.0</ele>
      </trkpt>
      <trkpt lat="44.776731077581644" lon="6.492541562765837">
        <time>2022-01-25T09:18:10+00:00</time>
        <ele>2196.0</ele>
      </trkpt>
      <trkpt lat="44.776753624901175" lon="6.492527732625604">
        <time>2022-01-25T09:18:14+00:00</time>
        <ele>2197.0</ele>
      </trkpt>
      <trkpt lat="44.77679603733122" lon="6.492508035153151">
        <time>2022-01-25T09:18:19+00:00</time>
        <ele>2198.0</ele>
      </trkpt>
      <trkpt lat="44.77681037038565" lon="6.492497557774186">
        <time>2022-01-25T09:18:20+00:00</time>
        <ele>2199.0</ele>
      </trkpt>
      <trkpt lat="44.77682411670685" lon="6.492489175871015">
        <time>2022-01-25T09:18:21+00:00</time>
        <ele>2199.0</ele>
      </trkpt>
      <trkpt lat="44.77683652192354" lon="6.492484984919429">
        <time>2022-01-25T09:18:22+00:00</time>
        <ele>2200.0</ele>
      </trkpt>
      <trkpt lat="44.77688128128648" lon="6.492464952170849">
        <time>2022-01-25T09:18:26+00:00</time>
        <ele>2201.0</ele>
      </trkpt>
      <trkpt lat="44.77688672952354" lon="6.492460090667009">
        <time>2022-01-25T09:18:29+00:00</time>
        <ele>2201.0</ele>
      </trkpt>
      <trkpt lat="44.7768871486187" lon="6.492456067353487">
        <time>2022-01-25T09:18:30+00:00</time>
        <ele>2201.0</ele>
      </trkpt>
      <trkpt lat="44.776890836656094" lon="6.4924605935812">
        <time>2022-01-25T09:18:39+00:00</time>
        <ele>2201.0</ele>
      </trkpt>
      <trkpt lat="44.776890836656094" lon="6.4924605935812">
        <time>2022-01-25T09:18:42+00:00</time>
        <ele>2201.0</ele>
      </trkpt>
      <trkpt lat="44.776890836656094" lon="6.4924605935812">
        <time>2022-01-25T09:18:44+00:00</time>
        <ele>2201.0</ele>
      </trkpt>
      <trkpt lat="44.776890836656094" lon="6.4924605935812">
        <time>2022-01-25T09:18:45+00:00</time>
        <ele>2201.0</ele>
      </trkpt>
      <trkpt lat="44.77687440812588" lon="6.4924585819244385">
        <time>2022-01-25T09:18:55+00:00</time>
        <ele>2201.0</ele>
      </trkpt>
      <trkpt lat="44.77686091326177" lon="6.492455983534455">
        <time>2022-01-25T09:19:01+00:00</time>
        <ele>2201.0</ele>
      </trkpt>
      <trkpt lat="44.776852782815695" lon="6.4924579951912165">
        <time>2022-01-25T09:19:12+00:00</time>
        <ele>2201.0</ele>
      </trkpt>
      <trkpt lat="44.77685194462538" lon="6.492461767047644">
        <time>2022-01-25T09:19:14+00:00</time>
        <ele>2201.0</ele>
      </trkpt>
      <trkpt lat="44.776848927140236" lon="6.492462856695056">
        <time>2022-01-25T09:19:17+00:00</time>
        <ele>2201.0</ele>
      </trkpt>
      <trkpt lat="44.776827385649085" lon="6.492475513368845">
        <time>2022-01-25T09:19:30+00:00</time>
        <ele>2200.0</ele>
      </trkpt>
      <trkpt lat="44.77682168595493" lon="6.492475597187877">
        <time>2022-01-25T09:19:35+00:00</time>
        <ele>2200.0</ele>
      </trkpt>
      <trkpt lat="44.77678849361837" lon="6.492451289668679">
        <time>2022-01-25T09:19:41+00:00</time>
        <ele>2201.0</ele>
      </trkpt>
      <trkpt lat="44.776777597144246" lon="6.492438800632954">
        <time>2022-01-25T09:19:43+00:00</time>
        <ele>2202.0</ele>
      </trkpt>
      <trkpt lat="44.7767489310354" lon="6.49240979924798">
        <time>2022-01-25T09:19:48+00:00</time>
        <ele>2203.0</ele>
      </trkpt>
      <trkpt lat="44.77673669345677" lon="6.492407536134124">
        <time>2022-01-25T09:19:50+00:00</time>
        <ele>2203.0</ele>
      </trkpt>
      <trkpt lat="44.7767195943743" lon="6.492396220564842">
        <time>2022-01-25T09:19:53+00:00</time>
        <ele>2204.0</ele>
      </trkpt>
      <trkpt lat="44.77670853026211" lon="6.492382474243641">
        <time>2022-01-25T09:19:56+00:00</time>
        <ele>2205.0</ele>
      </trkpt>
      <trkpt lat="44.776703333482146" lon="6.492377109825611">
        <time>2022-01-25T09:19:57+00:00</time>
        <ele>2205.0</ele>
      </trkpt>
      <trkpt lat="44.77669905871153" lon="6.492366129532456">
        <time>2022-01-25T09:19:59+00:00</time>
        <ele>2205.0</ele>
      </trkpt>
      <trkpt lat="44.77669176645577" lon="6.492353808134794">
        <time>2022-01-25T09:20:01+00:00</time>
        <ele>2206.0</ele>
      </trkpt>
      <trkpt lat="44.77667558938265" lon="6.492342408746481">
        <time>2022-01-25T09:20:04+00:00</time>
        <ele>2207.0</ele>
      </trkpt>
      <trkpt lat="44.77666838094592" lon="6.492338804528117">
        <time>2022-01-25T09:20:05+00:00</time>
        <ele>2207.0</ele>
      </trkpt>
      <trkpt lat="44.77666377089918" lon="6.492335619404912">
        <time>2022-01-25T09:20:06+00:00</time>
        <ele>2207.0</ele>
      </trkpt>
      <trkpt lat="44.77663510479033" lon="6.492319190874696">
        <time>2022-01-25T09:20:11+00:00</time>
        <ele>2208.0</ele>
      </trkpt>
      <trkpt lat="44.77663015946746" lon="6.492318939417601">
        <time>2022-01-25T09:20:12+00:00</time>
        <ele>2208.0</ele>
      </trkpt>
      <trkpt lat="44.77660107426345" lon="6.4922974817454815">
        <time>2022-01-25T09:20:17+00:00</time>
        <ele>2209.0</ele>
      </trkpt>
      <trkpt lat="44.776594787836075" lon="6.492294883355498">
        <time>2022-01-25T09:20:18+00:00</time>
        <ele>2209.0</ele>
      </trkpt>
      <trkpt lat="44.77659001015127" lon="6.4922901056706905">
        <time>2022-01-25T09:20:19+00:00</time>
        <ele>2209.0</ele>
      </trkpt>
      <trkpt lat="44.77656411007047" lon="6.492261355742812">
        <time>2022-01-25T09:20:26+00:00</time>
        <ele>2211.0</ele>
      </trkpt>
      <trkpt lat="44.77655824273825" lon="6.4922556560486555">
        <time>2022-01-25T09:20:27+00:00</time>
        <ele>2211.0</ele>
      </trkpt>
      <trkpt lat="44.77653820998967" lon="6.492235288023949">
        <time>2022-01-25T09:20:32+00:00</time>
        <ele>2213.0</ele>
      </trkpt>
      <trkpt lat="44.776516081765294" lon="6.492208046838641">
        <time>2022-01-25T09:20:38+00:00</time>
        <ele>2214.0</ele>
      </trkpt>
      <trkpt lat="44.77650753222406" lon="6.492200335487723">
        <time>2022-01-25T09:20:40+00:00</time>
        <ele>2214.0</ele>
      </trkpt>
      <trkpt lat="44.776486745104194" lon="6.492185415700078">
        <time>2022-01-25T09:20:45+00:00</time>
        <ele>2215.0</ele>
      </trkpt>
      <trkpt lat="44.77647576481104" lon="6.492180889472365">
        <time>2022-01-25T09:20:47+00:00</time>
        <ele>2215.0</ele>
      </trkpt>
      <trkpt lat="44.776434022933245" lon="6.492159683257341">
        <time>2022-01-25T09:20:55+00:00</time>
        <ele>2216.0</ele>
      </trkpt>
      <trkpt lat="44.77641474455595" lon="6.492149289697409">
        <time>2022-01-25T09:20:59+00:00</time>
        <ele>2217.0</ele>
      </trkpt>
      <trkpt lat="44.77640611119568" lon="6.492143254727125">
        <time>2022-01-25T09:21:01+00:00</time>
        <ele>2217.0</ele>
      </trkpt>
      <trkpt lat="44.77640024386346" lon="6.492138477042317">
        <time>2022-01-25T09:21:03+00:00</time>
        <ele>2218.0</ele>
      </trkpt>
      <trkpt lat="44.776372918859124" lon="6.4921248983591795">
        <time>2022-01-25T09:21:09+00:00</time>
        <ele>2218.0</ele>
      </trkpt>
      <trkpt lat="44.77636780589819" lon="6.492119785398245">
        <time>2022-01-25T09:21:10+00:00</time>
        <ele>2219.0</ele>
      </trkpt>
      <trkpt lat="44.77634819224477" lon="6.49210243485868">
        <time>2022-01-25T09:21:14+00:00</time>
        <ele>2220.0</ele>
      </trkpt>
      <trkpt lat="44.776323549449444" lon="6.492082821205258">
        <time>2022-01-25T09:21:19+00:00</time>
        <ele>2221.0</ele>
      </trkpt>
      <trkpt lat="44.77631055749953" lon="6.492089023813605">
        <time>2022-01-25T09:21:23+00:00</time>
        <ele>2221.0</ele>
      </trkpt>
      <trkpt lat="44.77630804292858" lon="6.492090951651335">
        <time>2022-01-25T09:21:24+00:00</time>
        <ele>2221.0</ele>
      </trkpt>
      <trkpt lat="44.77628314867616" lon="6.492086593061686">
        <time>2022-01-25T09:21:30+00:00</time>
        <ele>2221.0</ele>
      </trkpt>
      <trkpt lat="44.776265462860465" lon="6.492081480100751">
        <time>2022-01-25T09:21:34+00:00</time>
        <ele>2221.0</ele>
      </trkpt>
      <trkpt lat="44.776263954117894" lon="6.49207997135818">
        <time>2022-01-25T09:21:35+00:00</time>
        <ele>2222.0</ele>
      </trkpt>
      <trkpt lat="44.77626278065145" lon="6.492078546434641">
        <time>2022-01-25T09:21:36+00:00</time>
        <ele>2222.0</ele>
      </trkpt>
      <trkpt lat="44.77626118808985" lon="6.492078211158514">
        <time>2022-01-25T09:21:37+00:00</time>
        <ele>2222.0</ele>
      </trkpt>
      <trkpt lat="44.77623688057065" lon="6.492069661617279">
        <time>2022-01-25T09:21:44+00:00</time>
        <ele>2222.0</ele>
      </trkpt>
      <trkpt lat="44.7762238048017" lon="6.492063710466027">
        <time>2022-01-25T09:21:47+00:00</time>
        <ele>2223.0</ele>
      </trkpt>
      <trkpt lat="44.776198491454124" lon="6.492054825648665">
        <time>2022-01-25T09:21:52+00:00</time>
        <ele>2224.0</ele>
      </trkpt>
      <trkpt lat="44.77619078010321" lon="6.492055915296078">
        <time>2022-01-25T09:21:53+00:00</time>
        <ele>2224.0</ele>
      </trkpt>
      <trkpt lat="44.77616060525179" lon="6.492049377411604">
        <time>2022-01-25T09:21:58+00:00</time>
        <ele>2225.0</ele>
      </trkpt>
      <trkpt lat="44.77615532465279" lon="6.492037978023291">
        <time>2022-01-25T09:22:00+00:00</time>
        <ele>2225.0</ele>
      </trkpt>
      <trkpt lat="44.77614308707416" lon="6.492021298035979">
        <time>2022-01-25T09:22:04+00:00</time>
        <ele>2226.0</ele>
      </trkpt>
      <trkpt lat="44.776139399036765" lon="6.492020208388567">
        <time>2022-01-25T09:22:05+00:00</time>
        <ele>2226.0</ele>
      </trkpt>
      <trkpt lat="44.77612934075296" lon="6.49201744236052">
        <time>2022-01-25T09:22:08+00:00</time>
        <ele>2227.0</ele>
      </trkpt>
      <trkpt lat="44.77612313814461" lon="6.492017861455679">
        <time>2022-01-25T09:22:09+00:00</time>
        <ele>2227.0</ele>
      </trkpt>
      <trkpt lat="44.77611777372658" lon="6.492015598341823">
        <time>2022-01-25T09:22:10+00:00</time>
        <ele>2227.0</ele>
      </trkpt>
      <trkpt lat="44.776103189215064" lon="6.492011155933142">
        <time>2022-01-25T09:22:14+00:00</time>
        <ele>2228.0</ele>
      </trkpt>
      <trkpt lat="44.776101261377335" lon="6.492009311914444">
        <time>2022-01-25T09:22:15+00:00</time>
        <ele>2228.0</ele>
      </trkpt>
      <trkpt lat="44.77609422057867" lon="6.49201056919992">
        <time>2022-01-25T09:22:17+00:00</time>
        <ele>2228.0</ele>
      </trkpt>
      <trkpt lat="44.77608944289386" lon="6.4920067973434925">
        <time>2022-01-25T09:22:18+00:00</time>
        <ele>2228.0</ele>
      </trkpt>
      <trkpt lat="44.77608877234161" lon="6.492001935839653">
        <time>2022-01-25T09:22:21+00:00</time>
        <ele>2228.0</ele>
      </trkpt>
      <trkpt lat="44.77610997855663" lon="6.491975616663694">
        <time>2022-01-25T09:22:26+00:00</time>
        <ele>2229.0</ele>
      </trkpt>
      <trkpt lat="44.776114504784346" lon="6.491971844807267">
        <time>2022-01-25T09:22:27+00:00</time>
        <ele>2230.0</ele>
      </trkpt>
      <trkpt lat="44.77614803239703" lon="6.491945357993245">
        <time>2022-01-25T09:22:35+00:00</time>
        <ele>2231.0</ele>
      </trkpt>
      <trkpt lat="44.77615348063409" lon="6.4919305220246315">
        <time>2022-01-25T09:22:37+00:00</time>
        <ele>2231.0</ele>
      </trkpt>
      <trkpt lat="44.7761788778007" lon="6.491905460134149">
        <time>2022-01-25T09:22:42+00:00</time>
        <ele>2232.0</ele>
      </trkpt>
      <trkpt lat="44.77619178593159" lon="6.491893474012613">
        <time>2022-01-25T09:22:46+00:00</time>
        <ele>2233.0</ele>
      </trkpt>
      <trkpt lat="44.7762015927583" lon="6.4918863493949175">
        <time>2022-01-25T09:22:49+00:00</time>
        <ele>2233.0</ele>
      </trkpt>
      <trkpt lat="44.77622229605913" lon="6.491865813732147">
        <time>2022-01-25T09:22:54+00:00</time>
        <ele>2233.0</ele>
      </trkpt>
      <trkpt lat="44.7762341145426" lon="6.4918536599725485">
        <time>2022-01-25T09:22:57+00:00</time>
        <ele>2234.0</ele>
      </trkpt>
      <trkpt lat="44.77624660357833" lon="6.49183857254684">
        <time>2022-01-25T09:23:01+00:00</time>
        <ele>2234.0</ele>
      </trkpt>
      <trkpt lat="44.77626018226147" lon="6.491820886731148">
        <time>2022-01-25T09:23:04+00:00</time>
        <ele>2235.0</ele>
      </trkpt>
      <trkpt lat="44.776272168383" lon="6.491812337189913">
        <time>2022-01-25T09:23:09+00:00</time>
        <ele>2235.0</ele>
      </trkpt>
      <trkpt lat="44.77627803571522" lon="6.491809235885739">
        <time>2022-01-25T09:23:10+00:00</time>
        <ele>2235.0</ele>
      </trkpt>
      <trkpt lat="44.77628390304744" lon="6.491808816790581">
        <time>2022-01-25T09:23:13+00:00</time>
        <ele>2235.0</ele>
      </trkpt>
      <trkpt lat="44.77627971209586" lon="6.491808984428644">
        <time>2022-01-25T09:23:17+00:00</time>
        <ele>2235.0</ele>
      </trkpt>
      <trkpt lat="44.77627971209586" lon="6.491808984428644">
        <time>2022-01-25T09:23:19+00:00</time>
        <ele>2235.0</ele>
      </trkpt>
      <trkpt lat="44.77627971209586" lon="6.491808984428644">
        <time>2022-01-25T09:23:30+00:00</time>
        <ele>2235.0</ele>
      </trkpt>
      <trkpt lat="44.77624727413058" lon="6.491804961115122">
        <time>2022-01-25T09:23:38+00:00</time>
        <ele>2236.0</ele>
      </trkpt>
      <trkpt lat="44.77621844038367" lon="6.491803117096424">
        <time>2022-01-25T09:23:43+00:00</time>
        <ele>2236.0</ele>
      </trkpt>
      <trkpt lat="44.77620553225279" lon="6.491800015792251">
        <time>2022-01-25T09:23:44+00:00</time>
        <ele>2236.0</ele>
      </trkpt>
      <trkpt lat="44.77615096606314" lon="6.491791969165206">
        <time>2022-01-25T09:23:48+00:00</time>
        <ele>2238.0</ele>
      </trkpt>
      <trkpt lat="44.77609480731189" lon="6.4917711820453405">
        <time>2022-01-25T09:23:53+00:00</time>
        <ele>2239.0</ele>
      </trkpt>
      <trkpt lat="44.77608458139002" lon="6.491766571998596">
        <time>2022-01-25T09:23:55+00:00</time>
        <ele>2240.0</ele>
      </trkpt>
      <trkpt lat="44.77607410401106" lon="6.491765230894089">
        <time>2022-01-25T09:23:57+00:00</time>
        <ele>2240.0</ele>
      </trkpt>
      <trkpt lat="44.77605759166181" lon="6.491760369390249">
        <time>2022-01-25T09:24:00+00:00</time>
        <ele>2240.0</ele>
      </trkpt>
      <trkpt lat="44.776044096797705" lon="6.491757100448012">
        <time>2022-01-25T09:24:02+00:00</time>
        <ele>2241.0</ele>
      </trkpt>
      <trkpt lat="44.77603839710355" lon="6.491758106276393">
        <time>2022-01-25T09:24:03+00:00</time>
        <ele>2241.0</ele>
      </trkpt>
      <trkpt lat="44.776018448174" lon="6.491763638332486">
        <time>2022-01-25T09:24:06+00:00</time>
        <ele>2241.0</ele>
      </trkpt>
      <trkpt lat="44.77600134909153" lon="6.49175550788641">
        <time>2022-01-25T09:24:10+00:00</time>
        <ele>2242.0</ele>
      </trkpt>
      <trkpt lat="44.77598341181874" lon="6.491752238944173">
        <time>2022-01-25T09:24:13+00:00</time>
        <ele>2243.0</ele>
      </trkpt>
      <trkpt lat="44.77595508098602" lon="6.491752993315458">
        <time>2022-01-25T09:24:19+00:00</time>
        <ele>2243.0</ele>
      </trkpt>
      <trkpt lat="44.77593404240906" lon="6.491750814020634">
        <time>2022-01-25T09:24:24+00:00</time>
        <ele>2244.0</ele>
      </trkpt>
      <trkpt lat="44.77592272683978" lon="6.491750814020634">
        <time>2022-01-25T09:24:26+00:00</time>
        <ele>2244.0</ele>
      </trkpt>
      <trkpt lat="44.775914680212736" lon="6.491752322763205">
        <time>2022-01-25T09:24:27+00:00</time>
        <ele>2245.0</ele>
      </trkpt>
      <trkpt lat="44.775900430977345" lon="6.491751149296761">
        <time>2022-01-25T09:24:31+00:00</time>
        <ele>2245.0</ele>
      </trkpt>
      <trkpt lat="44.77588417008519" lon="6.491747461259365">
        <time>2022-01-25T09:24:34+00:00</time>
        <ele>2246.0</ele>
      </trkpt>
      <trkpt lat="44.77585424669087" lon="6.491751987487078">
        <time>2022-01-25T09:24:39+00:00</time>
        <ele>2246.0</ele>
      </trkpt>
      <trkpt lat="44.775825245305896" lon="6.491747964173555">
        <time>2022-01-25T09:24:45+00:00</time>
        <ele>2247.0</ele>
      </trkpt>
      <trkpt lat="44.77579548954964" lon="6.491750981658697">
        <time>2022-01-25T09:24:51+00:00</time>
        <ele>2248.0</ele>
      </trkpt>
      <trkpt lat="44.775788029655814" lon="6.491751233115792">
        <time>2022-01-25T09:24:53+00:00</time>
        <ele>2249.0</ele>
      </trkpt>
      <trkpt lat="44.7757612913847" lon="6.491758190095425">
        <time>2022-01-25T09:24:58+00:00</time>
        <ele>2249.0</ele>
      </trkpt>
      <trkpt lat="44.77575458586216" lon="6.491761794313788">
        <time>2022-01-25T09:24:59+00:00</time>
        <ele>2249.0</ele>
      </trkpt>
      <trkpt lat="44.77573639713228" lon="6.491768918931484">
        <time>2022-01-25T09:25:04+00:00</time>
        <ele>2250.0</ele>
      </trkpt>
      <trkpt lat="44.775730445981026" lon="6.491772439330816">
        <time>2022-01-25T09:25:05+00:00</time>
        <ele>2250.0</ele>
      </trkpt>
      <trkpt lat="44.77570312097669" lon="6.491767326369882">
        <time>2022-01-25T09:25:10+00:00</time>
        <ele>2251.0</ele>
      </trkpt>
      <trkpt lat="44.77569742128253" lon="6.491765230894089">
        <time>2022-01-25T09:25:11+00:00</time>
        <ele>2251.0</ele>
      </trkpt>
      <trkpt lat="44.77569147013128" lon="6.491759866476059">
        <time>2022-01-25T09:25:12+00:00</time>
        <ele>2252.0</ele>
      </trkpt>
      <trkpt lat="44.7756870277226" lon="6.4917266741395">
        <time>2022-01-25T09:25:17+00:00</time>
        <ele>2253.0</ele>
      </trkpt>
      <trkpt lat="44.77568635717034" lon="6.491701528429985">
        <time>2022-01-25T09:25:20+00:00</time>
        <ele>2253.0</ele>
      </trkpt>
      <trkpt lat="44.77568820118904" lon="6.491679232567549">
        <time>2022-01-25T09:25:23+00:00</time>
        <ele>2254.0</ele>
      </trkpt>
      <trkpt lat="44.77571167051792" lon="6.491619637235999">
        <time>2022-01-25T09:25:30+00:00</time>
        <ele>2255.0</ele>
      </trkpt>
      <trkpt lat="44.77572223171592" lon="6.491609076038003">
        <time>2022-01-25T09:25:32+00:00</time>
        <ele>2255.0</ele>
      </trkpt>
      <trkpt lat="44.77571988478303" lon="6.491601364687085">
        <time>2022-01-25T09:25:35+00:00</time>
        <ele>2255.0</ele>
      </trkpt>
      <trkpt lat="44.775711419060826" lon="6.4915824215859175">
        <time>2022-01-25T09:25:38+00:00</time>
        <ele>2256.0</ele>
      </trkpt>
      <trkpt lat="44.775706976652145" lon="6.491574542596936">
        <time>2022-01-25T09:25:39+00:00</time>
        <ele>2257.0</ele>
      </trkpt>
      <trkpt lat="44.77570278570056" lon="6.491566831246018">
        <time>2022-01-25T09:25:40+00:00</time>
        <ele>2257.0</ele>
      </trkpt>
      <trkpt lat="44.77566665969789" lon="6.491531375795603">
        <time>2022-01-25T09:25:47+00:00</time>
        <ele>2259.0</ele>
      </trkpt>
      <trkpt lat="44.775662552565336" lon="6.491528190672398">
        <time>2022-01-25T09:25:48+00:00</time>
        <ele>2259.0</ele>
      </trkpt>
      <trkpt lat="44.77565551176667" lon="6.491518886759877">
        <time>2022-01-25T09:25:50+00:00</time>
        <ele>2259.0</ele>
      </trkpt>
      <trkpt lat="44.77564235217869" lon="6.491497932001948">
        <time>2022-01-25T09:25:53+00:00</time>
        <ele>2260.0</ele>
      </trkpt>
      <trkpt lat="44.77563380263746" lon="6.491482174023986">
        <time>2022-01-25T09:25:56+00:00</time>
        <ele>2261.0</ele>
      </trkpt>
      <trkpt lat="44.77562131360173" lon="6.491464152932167">
        <time>2022-01-25T09:26:00+00:00</time>
        <ele>2262.0</ele>
      </trkpt>
      <trkpt lat="44.775611255317926" lon="6.491448897868395">
        <time>2022-01-25T09:26:03+00:00</time>
        <ele>2263.0</ele>
      </trkpt>
      <trkpt lat="44.77558594197035" lon="6.491418136283755">
        <time>2022-01-25T09:26:09+00:00</time>
        <ele>2264.0</ele>
      </trkpt>
      <trkpt lat="44.775584265589714" lon="6.491410927847028">
        <time>2022-01-25T09:26:10+00:00</time>
        <ele>2264.0</ele>
      </trkpt>
      <trkpt lat="44.775578482076526" lon="6.491400953382254">
        <time>2022-01-25T09:26:12+00:00</time>
        <ele>2265.0</ele>
      </trkpt>
      <trkpt lat="44.77557521313429" lon="6.491395588964224">
        <time>2022-01-25T09:26:13+00:00</time>
        <ele>2265.0</ele>
      </trkpt>
      <trkpt lat="44.77556465193629" lon="6.4913830161094666">
        <time>2022-01-25T09:26:16+00:00</time>
        <ele>2266.0</ele>
      </trkpt>
      <trkpt lat="44.77555995807052" lon="6.491377903148532">
        <time>2022-01-25T09:26:17+00:00</time>
        <ele>2266.0</ele>
      </trkpt>
      <trkpt lat="44.77555425837636" lon="6.491373209282756">
        <time>2022-01-25T09:26:18+00:00</time>
        <ele>2266.0</ele>
      </trkpt>
      <trkpt lat="44.77555023506284" lon="6.491354517638683">
        <time>2022-01-25T09:26:21+00:00</time>
        <ele>2267.0</ele>
      </trkpt>
      <trkpt lat="44.7755382489413" lon="6.491336915642023">
        <time>2022-01-25T09:26:24+00:00</time>
        <ele>2267.0</ele>
      </trkpt>
      <trkpt lat="44.77553464472294" lon="6.491331467404962">
        <time>2022-01-25T09:26:25+00:00</time>
        <ele>2267.0</ele>
      </trkpt>
      <trkpt lat="44.7755229100585" lon="6.491314452141523">
        <time>2022-01-25T09:26:28+00:00</time>
        <ele>2268.0</ele>
      </trkpt>
      <trkpt lat="44.77551285177469" lon="6.491298861801624">
        <time>2022-01-25T09:26:31+00:00</time>
        <ele>2268.0</ele>
      </trkpt>
      <trkpt lat="44.77550053037703" lon="6.491297017782927">
        <time>2022-01-25T09:26:33+00:00</time>
        <ele>2269.0</ele>
      </trkpt>
      <trkpt lat="44.77547379210591" lon="6.491233902052045">
        <time>2022-01-25T09:26:41+00:00</time>
        <ele>2270.0</ele>
      </trkpt>
      <trkpt lat="44.77544772438705" lon="6.491201380267739">
        <time>2022-01-25T09:26:47+00:00</time>
        <ele>2272.0</ele>
      </trkpt>
      <trkpt lat="44.775443533435464" lon="6.491188555955887">
        <time>2022-01-25T09:26:49+00:00</time>
        <ele>2272.0</ele>
      </trkpt>
      <trkpt lat="44.775429870933294" lon="6.491183442994952">
        <time>2022-01-25T09:26:52+00:00</time>
        <ele>2272.0</ele>
      </trkpt>
      <trkpt lat="44.77541662752628" lon="6.491175899282098">
        <time>2022-01-25T09:26:55+00:00</time>
        <ele>2273.0</ele>
      </trkpt>
      <trkpt lat="44.775411849841475" lon="6.49117162451148">
        <time>2022-01-25T09:26:56+00:00</time>
        <ele>2273.0</ele>
      </trkpt>
      <trkpt lat="44.775397684425116" lon="6.491134576499462">
        <time>2022-01-25T09:27:02+00:00</time>
        <ele>2274.0</ele>
      </trkpt>
      <trkpt lat="44.77540221065283" lon="6.491093337535858">
        <time>2022-01-25T09:27:07+00:00</time>
        <ele>2274.0</ele>
      </trkpt>
      <trkpt lat="44.775398103520274" lon="6.491076573729515">
        <time>2022-01-25T09:27:09+00:00</time>
        <ele>2275.0</ele>
      </trkpt>
      <trkpt lat="44.77538410574198" lon="6.491038519889116">
        <time>2022-01-25T09:27:15+00:00</time>
        <ele>2275.0</ele>
      </trkpt>
      <trkpt lat="44.7753828484565" lon="6.491031227633357">
        <time>2022-01-25T09:27:16+00:00</time>
        <ele>2276.0</ele>
      </trkpt>
      <trkpt lat="44.77537924423814" lon="6.491023767739534">
        <time>2022-01-25T09:27:17+00:00</time>
        <ele>2276.0</ele>
      </trkpt>
      <trkpt lat="44.7753743827343" lon="6.4910022262483835">
        <time>2022-01-25T09:27:20+00:00</time>
        <ele>2276.0</ele>
      </trkpt>
      <trkpt lat="44.77537002414465" lon="6.490983786061406">
        <time>2022-01-25T09:27:22+00:00</time>
        <ele>2277.0</ele>
      </trkpt>
      <trkpt lat="44.775368766859174" lon="6.490974817425013">
        <time>2022-01-25T09:27:23+00:00</time>
        <ele>2277.0</ele>
      </trkpt>
      <trkpt lat="44.77535150013864" lon="6.4909333270043135">
        <time>2022-01-25T09:27:29+00:00</time>
        <ele>2278.0</ele>
      </trkpt>
      <trkpt lat="44.775340519845486" lon="6.490908768028021">
        <time>2022-01-25T09:27:32+00:00</time>
        <ele>2278.0</ele>
      </trkpt>
      <trkpt lat="44.775325767695904" lon="6.4908835384994745">
        <time>2022-01-25T09:27:36+00:00</time>
        <ele>2279.0</ele>
      </trkpt>
      <trkpt lat="44.77530598640442" lon="6.49084372445941">
        <time>2022-01-25T09:27:42+00:00</time>
        <ele>2280.0</ele>
      </trkpt>
      <trkpt lat="44.775302382186055" lon="6.490838024765253">
        <time>2022-01-25T09:27:43+00:00</time>
        <ele>2280.0</ele>
      </trkpt>
      <trkpt lat="44.775290647521615" lon="6.490818662568927">
        <time>2022-01-25T09:27:46+00:00</time>
        <ele>2280.0</ele>
      </trkpt>
      <trkpt lat="44.77528301998973" lon="6.4907963667064905">
        <time>2022-01-25T09:27:49+00:00</time>
        <ele>2281.0</ele>
      </trkpt>
      <trkpt lat="44.77527036331594" lon="6.4907625038176775">
        <time>2022-01-25T09:27:54+00:00</time>
        <ele>2281.0</ele>
      </trkpt>
      <trkpt lat="44.77526885457337" lon="6.4907448180019855">
        <time>2022-01-25T09:27:56+00:00</time>
        <ele>2282.0</ele>
      </trkpt>
      <trkpt lat="44.77525410242379" lon="6.49070592597127">
        <time>2022-01-25T09:28:02+00:00</time>
        <ele>2283.0</ele>
      </trkpt>
      <trkpt lat="44.775252090767026" lon="6.490696873515844">
        <time>2022-01-25T09:28:03+00:00</time>
        <ele>2283.0</ele>
      </trkpt>
      <trkpt lat="44.77523046545684" lon="6.490649934858084">
        <time>2022-01-25T09:28:10+00:00</time>
        <ele>2284.0</ele>
      </trkpt>
      <trkpt lat="44.775229040533304" lon="6.490639206022024">
        <time>2022-01-25T09:28:13+00:00</time>
        <ele>2284.0</ele>
      </trkpt>
      <trkpt lat="44.77521236054599" lon="6.490607354789972">
        <time>2022-01-25T09:28:18+00:00</time>
        <ele>2285.0</ele>
      </trkpt>
      <trkpt lat="44.775203727185726" lon="6.490595955401659">
        <time>2022-01-25T09:28:20+00:00</time>
        <ele>2285.0</ele>
      </trkpt>
      <trkpt lat="44.77518226951361" lon="6.490582376718521">
        <time>2022-01-25T09:28:24+00:00</time>
        <ele>2285.0</ele>
      </trkpt>
      <trkpt lat="44.77517992258072" lon="6.490578185766935">
        <time>2022-01-25T09:28:25+00:00</time>
        <ele>2285.0</ele>
      </trkpt>
      <trkpt lat="44.77514932863414" lon="6.490548513829708">
        <time>2022-01-25T09:28:32+00:00</time>
        <ele>2286.0</ele>
      </trkpt>
      <trkpt lat="44.77512879297137" lon="6.490499647334218">
        <time>2022-01-25T09:28:39+00:00</time>
        <ele>2287.0</ele>
      </trkpt>
      <trkpt lat="44.77510808967054" lon="6.490444410592318">
        <time>2022-01-25T09:28:47+00:00</time>
        <ele>2288.0</ele>
      </trkpt>
      <trkpt lat="44.775101048871875" lon="6.490435274317861">
        <time>2022-01-25T09:28:49+00:00</time>
        <ele>2288.0</ele>
      </trkpt>
      <trkpt lat="44.77508906275034" lon="6.490391856059432">
        <time>2022-01-25T09:28:55+00:00</time>
        <ele>2289.0</ele>
      </trkpt>
      <trkpt lat="44.77506659924984" lon="6.4903404749929905">
        <time>2022-01-25T09:29:02+00:00</time>
        <ele>2291.0</ele>
      </trkpt>
      <trkpt lat="44.77505084127188" lon="6.49030183441937">
        <time>2022-01-25T09:29:08+00:00</time>
        <ele>2292.0</ele>
      </trkpt>
      <trkpt lat="44.775044890120625" lon="6.490287920460105">
        <time>2022-01-25T09:29:10+00:00</time>
        <ele>2292.0</ele>
      </trkpt>
      <trkpt lat="44.775021923705935" lon="6.490246765315533">
        <time>2022-01-25T09:29:16+00:00</time>
        <ele>2293.0</ele>
      </trkpt>
      <trkpt lat="44.775005746632814" lon="6.4902149979025126">
        <time>2022-01-25T09:29:22+00:00</time>
        <ele>2294.0</ele>
      </trkpt>
      <trkpt lat="44.775002812966704" lon="6.490210052579641">
        <time>2022-01-25T09:29:23+00:00</time>
        <ele>2294.0</ele>
      </trkpt>
      <trkpt lat="44.774987725540996" lon="6.4901558216661215">
        <time>2022-01-25T09:29:31+00:00</time>
        <ele>2296.0</ele>
      </trkpt>
      <trkpt lat="44.774988731369376" lon="6.490147355943918">
        <time>2022-01-25T09:29:32+00:00</time>
        <ele>2296.0</ele>
      </trkpt>
      <trkpt lat="44.77499384433031" lon="6.490135621279478">
        <time>2022-01-25T09:29:34+00:00</time>
        <ele>2296.0</ele>
      </trkpt>
      <trkpt lat="44.775008764117956" lon="6.49010787717998">
        <time>2022-01-25T09:29:38+00:00</time>
        <ele>2297.0</ele>
      </trkpt>
      <trkpt lat="44.775015050545335" lon="6.490100668743253">
        <time>2022-01-25T09:29:40+00:00</time>
        <ele>2297.0</ele>
      </trkpt>
      <trkpt lat="44.77502494119108" lon="6.490100836381316">
        <time>2022-01-25T09:29:42+00:00</time>
        <ele>2296.0</ele>
      </trkpt>
      <trkpt lat="44.77503784932196" lon="6.490092454478145">
        <time>2022-01-25T09:29:44+00:00</time>
        <ele>2296.0</ele>
      </trkpt>
      <trkpt lat="44.77504363283515" lon="6.490088598802686">
        <time>2022-01-25T09:29:45+00:00</time>
        <ele>2296.0</ele>
      </trkpt>
      <trkpt lat="44.77506609633565" lon="6.490071499720216">
        <time>2022-01-25T09:29:49+00:00</time>
        <ele>2296.0</ele>
      </trkpt>
      <trkpt lat="44.7750720474869" lon="6.490068398416042">
        <time>2022-01-25T09:29:50+00:00</time>
        <ele>2296.0</ele>
      </trkpt>
      <trkpt lat="44.775078082457185" lon="6.49006093852222">
        <time>2022-01-25T09:29:51+00:00</time>
        <ele>2296.0</ele>
      </trkpt>
      <trkpt lat="44.77508269250393" lon="6.490053059533238">
        <time>2022-01-25T09:29:52+00:00</time>
        <ele>2296.0</ele>
      </trkpt>
      <trkpt lat="44.77511554956436" lon="6.490035289898515">
        <time>2022-01-25T09:29:59+00:00</time>
        <ele>2297.0</ele>
      </trkpt>
      <trkpt lat="44.77512175217271" lon="6.490030847489834">
        <time>2022-01-25T09:30:00+00:00</time>
        <ele>2297.0</ele>
      </trkpt>
      <trkpt lat="44.77512468583882" lon="6.490027913823724">
        <time>2022-01-25T09:30:01+00:00</time>
        <ele>2297.0</ele>
      </trkpt>
      <trkpt lat="44.77513952180743" lon="6.4900188613682985">
        <time>2022-01-25T09:30:04+00:00</time>
        <ele>2297.0</ele>
      </trkpt>
      <trkpt lat="44.775145556777716" lon="6.4900124073028564">
        <time>2022-01-25T09:30:06+00:00</time>
        <ele>2298.0</ele>
      </trkpt>
      <trkpt lat="44.775146478787065" lon="6.490012658759952">
        <time>2022-01-25T09:30:07+00:00</time>
        <ele>2298.0</ele>
      </trkpt>
      <trkpt lat="44.77516156621277" lon="6.4900085516273975">
        <time>2022-01-25T09:30:10+00:00</time>
        <ele>2298.0</ele>
      </trkpt>
      <trkpt lat="44.77517279796302" lon="6.49001550860703">
        <time>2022-01-25T09:30:13+00:00</time>
        <ele>2298.0</ele>
      </trkpt>
      <trkpt lat="44.77519299834967" lon="6.490005701780319">
        <time>2022-01-25T09:30:19+00:00</time>
        <ele>2298.0</ele>
      </trkpt>
      <trkpt lat="44.775200290605426" lon="6.490002516657114">
        <time>2022-01-25T09:30:21+00:00</time>
        <ele>2298.0</ele>
      </trkpt>
      <trkpt lat="44.775221329182386" lon="6.489999582991004">
        <time>2022-01-25T09:30:27+00:00</time>
        <ele>2298.0</ele>
      </trkpt>
      <trkpt lat="44.77523230947554" lon="6.489994050934911">
        <time>2022-01-25T09:30:30+00:00</time>
        <ele>2299.0</ele>
      </trkpt>
      <trkpt lat="44.77523289620876" lon="6.490000756457448">
        <time>2022-01-25T09:30:35+00:00</time>
        <ele>2298.0</ele>
      </trkpt>
      <trkpt lat="44.77522677741945" lon="6.490008216351271">
        <time>2022-01-25T09:30:43+00:00</time>
        <ele>2298.0</ele>
      </trkpt>
      <trkpt lat="44.77522677741945" lon="6.490008216351271">
        <time>2022-01-25T09:30:44+00:00</time>
        <ele>2298.0</ele>
      </trkpt>
      <trkpt lat="44.77522677741945" lon="6.490008216351271">
        <time>2022-01-25T09:30:45+00:00</time>
        <ele>2298.0</ele>
      </trkpt>
      <trkpt lat="44.77522677741945" lon="6.490005115047097">
        <time>2022-01-25T09:30:47+00:00</time>
        <ele>2298.0</ele>
      </trkpt>
      <trkpt lat="44.77522677741945" lon="6.490003438666463">
        <time>2022-01-25T09:30:51+00:00</time>
        <ele>2298.0</ele>
      </trkpt>
      <trkpt lat="44.77522677741945" lon="6.490000924095511">
        <time>2022-01-25T09:30:53+00:00</time>
        <ele>2298.0</ele>
      </trkpt>
      <trkpt lat="44.7752189822495" lon="6.489994386211038">
        <time>2022-01-25T09:30:57+00:00</time>
        <ele>2298.0</ele>
      </trkpt>
      <trkpt lat="44.77520096115768" lon="6.489946022629738">
        <time>2022-01-25T09:31:04+00:00</time>
        <ele>2300.0</ele>
      </trkpt>
      <trkpt lat="44.775194339454174" lon="6.489921296015382">
        <time>2022-01-25T09:31:08+00:00</time>
        <ele>2301.0</ele>
      </trkpt>
      <trkpt lat="44.775192411616445" lon="6.489913919940591">
        <time>2022-01-25T09:31:09+00:00</time>
        <ele>2301.0</ele>
      </trkpt>
      <trkpt lat="44.77518721483648" lon="6.489896150305867">
        <time>2022-01-25T09:31:11+00:00</time>
        <ele>2302.0</ele>
      </trkpt>
      <trkpt lat="44.77517363615334" lon="6.489838063716888">
        <time>2022-01-25T09:31:19+00:00</time>
        <ele>2304.0</ele>
      </trkpt>
      <trkpt lat="44.7751722112298" lon="6.489833788946271">
        <time>2022-01-25T09:31:20+00:00</time>
        <ele>2304.0</ele>
      </trkpt>
      <trkpt lat="44.7751671820879" lon="6.489823227748275">
        <time>2022-01-25T09:31:22+00:00</time>
        <ele>2305.0</ele>
      </trkpt>
      <trkpt lat="44.77512376382947" lon="6.489736475050449">
        <time>2022-01-25T09:31:28+00:00</time>
        <ele>2308.0</ele>
      </trkpt>
      <trkpt lat="44.775105910375714" lon="6.489704875275493">
        <time>2022-01-25T09:31:30+00:00</time>
        <ele>2308.0</ele>
      </trkpt>
      <trkpt lat="44.775079004466534" lon="6.4896575175225735">
        <time>2022-01-25T09:31:33+00:00</time>
        <ele>2310.0</ele>
      </trkpt>
      <trkpt lat="44.775070287287235" lon="6.489641843363643">
        <time>2022-01-25T09:31:35+00:00</time>
        <ele>2311.0</ele>
      </trkpt>
      <trkpt lat="44.7750374302268" lon="6.489602029323578">
        <time>2022-01-25T09:31:43+00:00</time>
        <ele>2313.0</ele>
      </trkpt>
      <trkpt lat="44.77501722984016" lon="6.489576129242778">
        <time>2022-01-25T09:31:48+00:00</time>
        <ele>2314.0</ele>
      </trkpt>
      <trkpt lat="44.7750117816031" lon="6.489566741511226">
        <time>2022-01-25T09:31:49+00:00</time>
        <ele>2314.0</ele>
      </trkpt>
      <trkpt lat="44.77500859647989" lon="6.489561293274164">
        <time>2022-01-25T09:31:50+00:00</time>
        <ele>2315.0</ele>
      </trkpt>
      <trkpt lat="44.77500113658607" lon="6.489549055695534">
        <time>2022-01-25T09:31:52+00:00</time>
        <ele>2315.0</ele>
      </trkpt>
      <trkpt lat="44.77499174885452" lon="6.489539751783013">
        <time>2022-01-25T09:31:54+00:00</time>
        <ele>2316.0</ele>
      </trkpt>
      <trkpt lat="44.77498546242714" lon="6.489530112594366">
        <time>2022-01-25T09:31:56+00:00</time>
        <ele>2316.0</ele>
      </trkpt>
      <trkpt lat="44.77498068474233" lon="6.4895182102918625">
        <time>2022-01-25T09:31:58+00:00</time>
        <ele>2316.0</ele>
      </trkpt>
      <trkpt lat="44.77497682906687" lon="6.489506307989359">
        <time>2022-01-25T09:32:00+00:00</time>
        <ele>2317.0</ele>
      </trkpt>
      <trkpt lat="44.77495377883315" lon="6.489481329917908">
        <time>2022-01-25T09:32:06+00:00</time>
        <ele>2318.0</ele>
      </trkpt>
      <trkpt lat="44.77495025843382" lon="6.489480994641781">
        <time>2022-01-25T09:32:08+00:00</time>
        <ele>2318.0</ele>
      </trkpt>
      <trkpt lat="44.77495729923248" lon="6.489482335746288">
        <time>2022-01-25T09:32:14+00:00</time>
        <ele>2318.0</ele>
      </trkpt>
      <trkpt lat="44.77495847269893" lon="6.489482335746288">
        <time>2022-01-25T09:32:23+00:00</time>
        <ele>2318.0</ele>
      </trkpt>
      <trkpt lat="44.774955958127975" lon="6.489482335746288">
        <time>2022-01-25T09:32:34+00:00</time>
        <ele>2318.0</ele>
      </trkpt>
      <trkpt lat="44.774955874308944" lon="6.489482335746288">
        <time>2022-01-25T09:32:35+00:00</time>
        <ele>2318.0</ele>
      </trkpt>
      <trkpt lat="44.77495721541345" lon="6.489482335746288">
        <time>2022-01-25T09:32:41+00:00</time>
        <ele>2318.0</ele>
      </trkpt>
      <trkpt lat="44.77495428174734" lon="6.489480240270495">
        <time>2022-01-25T09:32:48+00:00</time>
        <ele>2318.0</ele>
      </trkpt>
      <trkpt lat="44.77495319209993" lon="6.489474959671497">
        <time>2022-01-25T09:32:52+00:00</time>
        <ele>2318.0</ele>
      </trkpt>
      <trkpt lat="44.77495319209993" lon="6.489474289119244">
        <time>2022-01-25T09:32:54+00:00</time>
        <ele>2318.0</ele>
      </trkpt>
      <trkpt lat="44.77495562285185" lon="6.48947361856699">
        <time>2022-01-25T09:33:00+00:00</time>
        <ele>2318.0</ele>
      </trkpt>
      <trkpt lat="44.774959394708276" lon="6.4894734509289265">
        <time>2022-01-25T09:33:13+00:00</time>
        <ele>2318.0</ele>
      </trkpt>
      <trkpt lat="44.77496149018407" lon="6.4894734509289265">
        <time>2022-01-25T09:33:16+00:00</time>
        <ele>2318.0</ele>
      </trkpt>
      <trkpt lat="44.77496886625886" lon="6.489449227228761">
        <time>2022-01-25T09:33:35+00:00</time>
        <ele>2319.0</ele>
      </trkpt>
      <trkpt lat="44.7749631665647" lon="6.489448975771666">
        <time>2022-01-25T09:33:39+00:00</time>
        <ele>2319.0</ele>
      </trkpt>
      <trkpt lat="44.77495805360377" lon="6.489453166723251">
        <time>2022-01-25T09:33:47+00:00</time>
        <ele>2319.0</ele>
      </trkpt>
      <trkpt lat="44.77495729923248" lon="6.489454340189695">
        <time>2022-01-25T09:33:49+00:00</time>
        <ele>2319.0</ele>
      </trkpt>
      <trkpt lat="44.774955958127975" lon="6.489454843103886">
        <time>2022-01-25T09:33:53+00:00</time>
        <ele>2319.0</ele>
      </trkpt>
      <trkpt lat="44.774954449385405" lon="6.489456770941615">
        <time>2022-01-25T09:33:57+00:00</time>
        <ele>2319.0</ele>
      </trkpt>
      <trkpt lat="44.77495134808123" lon="6.489474959671497">
        <time>2022-01-25T09:34:22+00:00</time>
        <ele>2318.0</ele>
      </trkpt>
      <trkpt lat="44.774952018633485" lon="6.489480240270495">
        <time>2022-01-25T09:34:25+00:00</time>
        <ele>2318.0</ele>
      </trkpt>
      <trkpt lat="44.774950090795755" lon="6.489495998248458">
        <time>2022-01-25T09:34:35+00:00</time>
        <ele>2318.0</ele>
      </trkpt>
      <trkpt lat="44.774947660043836" lon="6.489497842267156">
        <time>2022-01-25T09:34:39+00:00</time>
        <ele>2318.0</ele>
      </trkpt>
      <trkpt lat="44.77494673803449" lon="6.489498680457473">
        <time>2022-01-25T09:34:41+00:00</time>
        <ele>2318.0</ele>
      </trkpt>
      <trkpt lat="44.7749409545213" lon="6.48949951864779">
        <time>2022-01-25T09:34:51+00:00</time>
        <ele>2318.0</ele>
      </trkpt>
      <trkpt lat="44.77494053542614" lon="6.489499099552631">
        <time>2022-01-25T09:34:53+00:00</time>
        <ele>2318.0</ele>
      </trkpt>
      <trkpt lat="44.77494003251195" lon="6.4894987642765045">
        <time>2022-01-25T09:34:55+00:00</time>
        <ele>2318.0</ele>
      </trkpt>
      <trkpt lat="44.774939278140664" lon="6.489498261362314">
        <time>2022-01-25T09:34:57+00:00</time>
        <ele>2318.0</ele>
      </trkpt>
      <trkpt lat="44.77489376440644" lon="6.4894339721649885">
        <time>2022-01-25T09:35:07+00:00</time>
        <ele>2320.0</ele>
      </trkpt>
      <trkpt lat="44.774885550141335" lon="6.489424332976341">
        <time>2022-01-25T09:35:08+00:00</time>
        <ele>2320.0</ele>
      </trkpt>
      <trkpt lat="44.77484716102481" lon="6.4893668331205845">
        <time>2022-01-25T09:35:12+00:00</time>
        <ele>2322.0</ele>
      </trkpt>
      <trkpt lat="44.77484297007322" lon="6.489360379055142">
        <time>2022-01-25T09:35:13+00:00</time>
        <ele>2322.0</ele>
      </trkpt>
      <trkpt lat="44.77483903057873" lon="6.489351661875844">
        <time>2022-01-25T09:35:14+00:00</time>
        <ele>2322.0</ele>
      </trkpt>
      <trkpt lat="44.77483316324651" lon="6.489342609420419">
        <time>2022-01-25T09:35:15+00:00</time>
        <ele>2322.0</ele>
      </trkpt>
      <trkpt lat="44.774818159639835" lon="6.48933095857501">
        <time>2022-01-25T09:35:17+00:00</time>
        <ele>2323.0</ele>
      </trkpt>
      <trkpt lat="44.774795109406114" lon="6.489307070150971">
        <time>2022-01-25T09:35:21+00:00</time>
        <ele>2323.0</ele>
      </trkpt>
      <trkpt lat="44.77477281354368" lon="6.489287372678518">
        <time>2022-01-25T09:35:25+00:00</time>
        <ele>2324.0</ele>
      </trkpt>
      <trkpt lat="44.7747596539557" lon="6.48927035741508">
        <time>2022-01-25T09:35:29+00:00</time>
        <ele>2324.0</ele>
      </trkpt>
      <trkpt lat="44.77473526261747" lon="6.489240014925599">
        <time>2022-01-25T09:35:34+00:00</time>
        <ele>2325.0</ele>
      </trkpt>
      <trkpt lat="44.77473299950361" lon="6.489231465384364">
        <time>2022-01-25T09:35:35+00:00</time>
        <ele>2325.0</ele>
      </trkpt>
      <trkpt lat="44.77472260594368" lon="6.489219311624765">
        <time>2022-01-25T09:35:37+00:00</time>
        <ele>2325.0</ele>
      </trkpt>
      <trkpt lat="44.77470567449927" lon="6.489198859781027">
        <time>2022-01-25T09:35:40+00:00</time>
        <ele>2325.0</ele>
      </trkpt>
      <trkpt lat="44.77470047771931" lon="6.489187544211745">
        <time>2022-01-25T09:35:41+00:00</time>
        <ele>2326.0</ele>
      </trkpt>
      <trkpt lat="44.77467776276171" lon="6.489158542826772">
        <time>2022-01-25T09:35:45+00:00</time>
        <ele>2326.0</ele>
      </trkpt>
      <trkpt lat="44.77466837503016" lon="6.489147813990712">
        <time>2022-01-25T09:35:47+00:00</time>
        <ele>2326.0</ele>
      </trkpt>
      <trkpt lat="44.77464742027223" lon="6.489108921959996">
        <time>2022-01-25T09:35:52+00:00</time>
        <ele>2327.0</ele>
      </trkpt>
      <trkpt lat="44.77462973445654" lon="6.489081596955657">
        <time>2022-01-25T09:35:56+00:00</time>
        <ele>2328.0</ele>
      </trkpt>
      <trkpt lat="44.77461523376405" lon="6.489058630540967">
        <time>2022-01-25T09:35:59+00:00</time>
        <ele>2328.0</ele>
      </trkpt>
      <trkpt lat="44.774588998407125" lon="6.489021498709917">
        <time>2022-01-25T09:36:05+00:00</time>
        <ele>2328.0</ele>
      </trkpt>
      <trkpt lat="44.77458480745554" lon="6.489016218110919">
        <time>2022-01-25T09:36:06+00:00</time>
        <ele>2328.0</ele>
      </trkpt>
      <trkpt lat="44.774558655917645" lon="6.489001968875527">
        <time>2022-01-25T09:36:11+00:00</time>
        <ele>2329.0</ele>
      </trkpt>
      <trkpt lat="44.77453141473234" lon="6.488973805680871">
        <time>2022-01-25T09:36:17+00:00</time>
        <ele>2329.0</ele>
      </trkpt>
      <trkpt lat="44.77452261373401" lon="6.488963076844811">
        <time>2022-01-25T09:36:19+00:00</time>
        <ele>2329.0</ele>
      </trkpt>
      <trkpt lat="44.77450517937541" lon="6.488939775153995">
        <time>2022-01-25T09:36:23+00:00</time>
        <ele>2329.0</ele>
      </trkpt>
      <trkpt lat="44.77449067868292" lon="6.488922592252493">
        <time>2022-01-25T09:36:26+00:00</time>
        <ele>2330.0</ele>
      </trkpt>
      <trkpt lat="44.77447927929461" lon="6.488900380209088">
        <time>2022-01-25T09:36:30+00:00</time>
        <ele>2330.0</ele>
      </trkpt>
      <trkpt lat="44.774474166333675" lon="6.488886885344982">
        <time>2022-01-25T09:36:32+00:00</time>
        <ele>2331.0</ele>
      </trkpt>
      <trkpt lat="44.774463437497616" lon="6.488858303055167">
        <time>2022-01-25T09:36:36+00:00</time>
        <ele>2331.0</ele>
      </trkpt>
      <trkpt lat="44.77446025237441" lon="6.488855117931962">
        <time>2022-01-25T09:36:37+00:00</time>
        <ele>2331.0</ele>
      </trkpt>
      <trkpt lat="44.77445254102349" lon="6.4888346660882235">
        <time>2022-01-25T09:36:40+00:00</time>
        <ele>2332.0</ele>
      </trkpt>
      <trkpt lat="44.77444667369127" lon="6.488818656653166">
        <time>2022-01-25T09:36:42+00:00</time>
        <ele>2332.0</ele>
      </trkpt>
      <trkpt lat="44.77444466203451" lon="6.488810945302248">
        <time>2022-01-25T09:36:43+00:00</time>
        <ele>2332.0</ele>
      </trkpt>
      <trkpt lat="44.7744419798255" lon="6.488806754350662">
        <time>2022-01-25T09:36:44+00:00</time>
        <ele>2333.0</ele>
      </trkpt>
      <trkpt lat="44.77443594485521" lon="6.488784374669194">
        <time>2022-01-25T09:36:47+00:00</time>
        <ele>2333.0</ele>
      </trkpt>
      <trkpt lat="44.77442244999111" lon="6.488759480416775">
        <time>2022-01-25T09:36:52+00:00</time>
        <ele>2334.0</ele>
      </trkpt>
      <trkpt lat="44.77441532537341" lon="6.488742297515273">
        <time>2022-01-25T09:36:54+00:00</time>
        <ele>2334.0</ele>
      </trkpt>
      <trkpt lat="44.774391101673245" lon="6.488710194826126">
        <time>2022-01-25T09:37:00+00:00</time>
        <ele>2335.0</ele>
      </trkpt>
      <trkpt lat="44.77438900619745" lon="6.488707093521953">
        <time>2022-01-25T09:37:01+00:00</time>
        <ele>2335.0</ele>
      </trkpt>
      <trkpt lat="44.77438414469361" lon="6.488701477646828">
        <time>2022-01-25T09:37:02+00:00</time>
        <ele>2335.0</ele>
      </trkpt>
      <trkpt lat="44.77436838671565" lon="6.488682283088565">
        <time>2022-01-25T09:37:06+00:00</time>
        <ele>2336.0</ele>
      </trkpt>
      <trkpt lat="44.77434718050063" lon="6.488643977791071">
        <time>2022-01-25T09:37:13+00:00</time>
        <ele>2336.0</ele>
      </trkpt>
      <trkpt lat="44.7743346914649" lon="6.488628638908267">
        <time>2022-01-25T09:37:16+00:00</time>
        <ele>2337.0</ele>
      </trkpt>
      <trkpt lat="44.77432354353368" lon="6.488605504855514">
        <time>2022-01-25T09:37:20+00:00</time>
        <ele>2338.0</ele>
      </trkpt>
      <trkpt lat="44.77430401369929" lon="6.488585136830807">
        <time>2022-01-25T09:37:24+00:00</time>
        <ele>2338.0</ele>
      </trkpt>
      <trkpt lat="44.77429454214871" lon="6.488569211214781">
        <time>2022-01-25T09:37:26+00:00</time>
        <ele>2339.0</ele>
      </trkpt>
      <trkpt lat="44.774280628189445" lon="6.488561248406768">
        <time>2022-01-25T09:37:28+00:00</time>
        <ele>2339.0</ele>
      </trkpt>
      <trkpt lat="44.77426805533469" lon="6.4885647688061">
        <time>2022-01-25T09:37:30+00:00</time>
        <ele>2339.0</ele>
      </trkpt>
      <trkpt lat="44.774265456944704" lon="6.4885657746344805">
        <time>2022-01-25T09:37:31+00:00</time>
        <ele>2339.0</ele>
      </trkpt>
      <trkpt lat="44.77425506338477" lon="6.488566026091576">
        <time>2022-01-25T09:37:33+00:00</time>
        <ele>2339.0</ele>
      </trkpt>
      <trkpt lat="44.77422463707626" lon="6.488565104082227">
        <time>2022-01-25T09:37:38+00:00</time>
        <ele>2339.0</ele>
      </trkpt>
      <trkpt lat="44.77420133538544" lon="6.488553620874882">
        <time>2022-01-25T09:37:42+00:00</time>
        <ele>2340.0</ele>
      </trkpt>
      <trkpt lat="44.774184906855226" lon="6.488537862896919">
        <time>2022-01-25T09:37:45+00:00</time>
        <ele>2340.0</ele>
      </trkpt>
      <trkpt lat="44.7741724178195" lon="6.488507017493248">
        <time>2022-01-25T09:37:50+00:00</time>
        <ele>2341.0</ele>
      </trkpt>
      <trkpt lat="44.77416546083987" lon="6.488486649468541">
        <time>2022-01-25T09:37:53+00:00</time>
        <ele>2341.0</ele>
      </trkpt>
      <trkpt lat="44.774155067279935" lon="6.488462509587407">
        <time>2022-01-25T09:37:57+00:00</time>
        <ele>2342.0</ele>
      </trkpt>
      <trkpt lat="44.774153139442205" lon="6.488451948389411">
        <time>2022-01-25T09:37:58+00:00</time>
        <ele>2342.0</ele>
      </trkpt>
      <trkpt lat="44.77413201704621" lon="6.488396544009447">
        <time>2022-01-25T09:38:05+00:00</time>
        <ele>2343.0</ele>
      </trkpt>
      <trkpt lat="44.77412740699947" lon="6.488377852365375">
        <time>2022-01-25T09:38:08+00:00</time>
        <ele>2344.0</ele>
      </trkpt>
      <trkpt lat="44.77412363514304" lon="6.4883708115667105">
        <time>2022-01-25T09:38:09+00:00</time>
        <ele>2344.0</ele>
      </trkpt>
      <trkpt lat="44.77412162348628" lon="6.488365698605776">
        <time>2022-01-25T09:38:10+00:00</time>
        <ele>2344.0</ele>
      </trkpt>
      <trkpt lat="44.77411625906825" lon="6.488358993083239">
        <time>2022-01-25T09:38:11+00:00</time>
        <ele>2344.0</ele>
      </trkpt>
      <trkpt lat="44.77409865707159" lon="6.488344492390752">
        <time>2022-01-25T09:38:14+00:00</time>
        <ele>2344.0</ele>
      </trkpt>
      <trkpt lat="44.7740896884352" lon="6.488325800746679">
        <time>2022-01-25T09:38:18+00:00</time>
        <ele>2345.0</ele>
      </trkpt>
      <trkpt lat="44.7740775346756" lon="6.488308534026146">
        <time>2022-01-25T09:38:21+00:00</time>
        <ele>2345.0</ele>
      </trkpt>
      <trkpt lat="44.77406890131533" lon="6.488279113546014">
        <time>2022-01-25T09:38:25+00:00</time>
        <ele>2345.0</ele>
      </trkpt>
      <trkpt lat="44.77406311780214" lon="6.488268468528986">
        <time>2022-01-25T09:38:26+00:00</time>
        <ele>2346.0</ele>
      </trkpt>
      <trkpt lat="44.77406001649797" lon="6.488262014463544">
        <time>2022-01-25T09:38:29+00:00</time>
        <ele>2346.0</ele>
      </trkpt>
      <trkpt lat="44.7740738466382" lon="6.488271821290255">
        <time>2022-01-25T09:38:39+00:00</time>
        <ele>2346.0</ele>
      </trkpt>
      <trkpt lat="44.77407711558044" lon="6.488245669752359">
        <time>2022-01-25T09:38:42+00:00</time>
        <ele>2346.0</ele>
      </trkpt>
      <trkpt lat="44.774081222712994" lon="6.488203341141343">
        <time>2022-01-25T09:38:46+00:00</time>
        <ele>2347.0</ele>
      </trkpt>
      <trkpt lat="44.774088179692626" lon="6.488098064437509">
        <time>2022-01-25T09:38:59+00:00</time>
        <ele>2349.0</ele>
      </trkpt>
      <trkpt lat="44.77408742532134" lon="6.488074343651533">
        <time>2022-01-25T09:39:01+00:00</time>
        <ele>2349.0</ele>
      </trkpt>
      <trkpt lat="44.77409899234772" lon="6.488016759976745">
        <time>2022-01-25T09:39:05+00:00</time>
        <ele>2350.0</ele>
      </trkpt>
      <trkpt lat="44.77409538812935" lon="6.487983483821154">
        <time>2022-01-25T09:39:08+00:00</time>
        <ele>2350.0</ele>
      </trkpt>
      <trkpt lat="44.77408650331199" lon="6.487927073612809">
        <time>2022-01-25T09:39:13+00:00</time>
        <ele>2350.0</ele>
      </trkpt>
      <trkpt lat="44.774081725627184" lon="6.487844344228506">
        <time>2022-01-25T09:39:19+00:00</time>
        <ele>2351.0</ele>
      </trkpt>
      <trkpt lat="44.77407954633236" lon="6.487821210175753">
        <time>2022-01-25T09:39:21+00:00</time>
        <ele>2351.0</ele>
      </trkpt>
      <trkpt lat="44.77407770231366" lon="6.487808218225837">
        <time>2022-01-25T09:39:22+00:00</time>
        <ele>2351.0</ele>
      </trkpt>
      <trkpt lat="44.77406848222017" lon="6.487770332023501">
        <time>2022-01-25T09:39:26+00:00</time>
        <ele>2351.0</ele>
      </trkpt>
      <trkpt lat="44.77406982332468" lon="6.487747952342033">
        <time>2022-01-25T09:39:30+00:00</time>
        <ele>2351.0</ele>
      </trkpt>
      <trkpt lat="44.77406839840114" lon="6.487717609852552">
        <time>2022-01-25T09:39:35+00:00</time>
        <ele>2352.0</ele>
      </trkpt>
      <trkpt lat="44.77406504563987" lon="6.487691877409816">
        <time>2022-01-25T09:39:37+00:00</time>
        <ele>2352.0</ele>
      </trkpt>
      <trkpt lat="44.77406336925924" lon="6.487682573497295">
        <time>2022-01-25T09:39:38+00:00</time>
        <ele>2352.0</ele>
      </trkpt>
      <trkpt lat="44.7740479465574" lon="6.487546619027853">
        <time>2022-01-25T09:39:49+00:00</time>
        <ele>2352.0</ele>
      </trkpt>
      <trkpt lat="44.77404551580548" lon="6.4874740317463875">
        <time>2022-01-25T09:39:55+00:00</time>
        <ele>2353.0</ele>
      </trkpt>
      <trkpt lat="44.774048030376434" lon="6.4874569326639175">
        <time>2022-01-25T09:39:56+00:00</time>
        <ele>2354.0</ele>
      </trkpt>
      <trkpt lat="44.77404895238578" lon="6.487445365637541">
        <time>2022-01-25T09:39:57+00:00</time>
        <ele>2354.0</ele>
      </trkpt>
      <trkpt lat="44.77403017692268" lon="6.487359786406159">
        <time>2022-01-25T09:40:05+00:00</time>
        <ele>2355.0</ele>
      </trkpt>
      <trkpt lat="44.77402975782752" lon="6.487320978194475">
        <time>2022-01-25T09:40:08+00:00</time>
        <ele>2355.0</ele>
      </trkpt>
      <trkpt lat="44.77400251664221" lon="6.487345201894641">
        <time>2022-01-25T09:40:11+00:00</time>
        <ele>2355.0</ele>
      </trkpt>
      <trkpt lat="44.7739945538342" lon="6.48736079223454">
        <time>2022-01-25T09:40:12+00:00</time>
        <ele>2355.0</ele>
      </trkpt>
      <trkpt lat="44.773979634046555" lon="6.487322570756078">
        <time>2022-01-25T09:40:18+00:00</time>
        <ele>2355.0</ele>
      </trkpt>
      <trkpt lat="44.77397359907627" lon="6.487292228266597">
        <time>2022-01-25T09:40:21+00:00</time>
        <ele>2356.0</ele>
      </trkpt>
      <trkpt lat="44.773967480286956" lon="6.487251156941056">
        <time>2022-01-25T09:40:25+00:00</time>
        <ele>2356.0</ele>
      </trkpt>
      <trkpt lat="44.773966474458575" lon="6.487217377871275">
        <time>2022-01-25T09:40:28+00:00</time>
        <ele>2356.0</ele>
      </trkpt>
      <trkpt lat="44.773942586034536" lon="6.487153172492981">
        <time>2022-01-25T09:40:35+00:00</time>
        <ele>2357.0</ele>
      </trkpt>
      <trkpt lat="44.77392942644656" lon="6.4871317986398935">
        <time>2022-01-25T09:40:38+00:00</time>
        <ele>2357.0</ele>
      </trkpt>
      <trkpt lat="44.773924900218844" lon="6.487071197479963">
        <time>2022-01-25T09:40:43+00:00</time>
        <ele>2358.0</ele>
      </trkpt>
      <trkpt lat="44.77392364293337" lon="6.487029874697328">
        <time>2022-01-25T09:40:46+00:00</time>
        <ele>2359.0</ele>
      </trkpt>
      <trkpt lat="44.77391056716442" lon="6.486984360963106">
        <time>2022-01-25T09:40:51+00:00</time>
        <ele>2360.0</ele>
      </trkpt>
      <trkpt lat="44.77390260435641" lon="6.486960723996162">
        <time>2022-01-25T09:40:54+00:00</time>
        <ele>2360.0</ele>
      </trkpt>
      <trkpt lat="44.77389053441584" lon="6.486922167241573">
        <time>2022-01-25T09:40:58+00:00</time>
        <ele>2361.0</ele>
      </trkpt>
      <trkpt lat="44.77387921884656" lon="6.486900290474296">
        <time>2022-01-25T09:41:01+00:00</time>
        <ele>2361.0</ele>
      </trkpt>
      <trkpt lat="44.77386706508696" lon="6.48686139844358">
        <time>2022-01-25T09:41:06+00:00</time>
        <ele>2362.0</ele>
      </trkpt>
      <trkpt lat="44.77386052720249" lon="6.486846981570125">
        <time>2022-01-25T09:41:08+00:00</time>
        <ele>2362.0</ele>
      </trkpt>
      <trkpt lat="44.77385683916509" lon="6.486837677657604">
        <time>2022-01-25T09:41:09+00:00</time>
        <ele>2362.0</ele>
      </trkpt>
      <trkpt lat="44.77385231293738" lon="6.4868302177637815">
        <time>2022-01-25T09:41:10+00:00</time>
        <ele>2362.0</ele>
      </trkpt>
      <trkpt lat="44.77382205426693" lon="6.486788643524051">
        <time>2022-01-25T09:41:16+00:00</time>
        <ele>2363.0</ele>
      </trkpt>
      <trkpt lat="44.77381618693471" lon="6.486765844747424">
        <time>2022-01-25T09:41:19+00:00</time>
        <ele>2364.0</ele>
      </trkpt>
      <trkpt lat="44.77380143478513" lon="6.486721336841583">
        <time>2022-01-25T09:41:24+00:00</time>
        <ele>2364.0</ele>
      </trkpt>
      <trkpt lat="44.77378676645458" lon="6.486683115363121">
        <time>2022-01-25T09:41:29+00:00</time>
        <ele>2365.0</ele>
      </trkpt>
      <trkpt lat="44.773784168064594" lon="6.486678589135408">
        <time>2022-01-25T09:41:30+00:00</time>
        <ele>2365.0</ele>
      </trkpt>
      <trkpt lat="44.77377268485725" lon="6.486632572486997">
        <time>2022-01-25T09:41:35+00:00</time>
        <ele>2366.0</ele>
      </trkpt>
      <trkpt lat="44.773770505562425" lon="6.4866243582218885">
        <time>2022-01-25T09:41:36+00:00</time>
        <ele>2366.0</ele>
      </trkpt>
      <trkpt lat="44.77376623079181" lon="6.48660390637815">
        <time>2022-01-25T09:41:38+00:00</time>
        <ele>2366.0</ele>
      </trkpt>
      <trkpt lat="44.77376556023955" lon="6.486596362665296">
        <time>2022-01-25T09:41:39+00:00</time>
        <ele>2366.0</ele>
      </trkpt>
      <trkpt lat="44.77375701069832" lon="6.486563505604863">
        <time>2022-01-25T09:41:42+00:00</time>
        <ele>2367.0</ele>
      </trkpt>
      <trkpt lat="44.77374326437712" lon="6.486522937193513">
        <time>2022-01-25T09:41:46+00:00</time>
        <ele>2367.0</ele>
      </trkpt>
      <trkpt lat="44.77374435402453" lon="6.486509190872312">
        <time>2022-01-25T09:41:47+00:00</time>
        <ele>2367.0</ele>
      </trkpt>
      <trkpt lat="44.7737284284085" lon="6.486467029899359">
        <time>2022-01-25T09:41:53+00:00</time>
        <ele>2368.0</ele>
      </trkpt>
      <trkpt lat="44.77372272871435" lon="6.486464850604534">
        <time>2022-01-25T09:41:54+00:00</time>
        <ele>2368.0</ele>
      </trkpt>
      <trkpt lat="44.773715855553746" lon="6.4864372741431">
        <time>2022-01-25T09:41:58+00:00</time>
        <ele>2369.0</ele>
      </trkpt>
      <trkpt lat="44.7737043723464" lon="6.4864196721464396">
        <time>2022-01-25T09:42:01+00:00</time>
        <ele>2369.0</ele>
      </trkpt>
      <trkpt lat="44.77369708009064" lon="6.486401315778494">
        <time>2022-01-25T09:42:04+00:00</time>
        <ele>2370.0</ele>
      </trkpt>
      <trkpt lat="44.77369146421552" lon="6.486391006037593">
        <time>2022-01-25T09:42:06+00:00</time>
        <ele>2370.0</ele>
      </trkpt>
      <trkpt lat="44.7736855968833" lon="6.486378684639931">
        <time>2022-01-25T09:42:08+00:00</time>
        <ele>2370.0</ele>
      </trkpt>
      <trkpt lat="44.773671599105" lon="6.486349096521735">
        <time>2022-01-25T09:42:12+00:00</time>
        <ele>2371.0</ele>
      </trkpt>
      <trkpt lat="44.77367109619081" lon="6.486342726275325">
        <time>2022-01-25T09:42:13+00:00</time>
        <ele>2371.0</ele>
      </trkpt>
      <trkpt lat="44.7736578527838" lon="6.486296374350786">
        <time>2022-01-25T09:42:20+00:00</time>
        <ele>2372.0</ele>
      </trkpt>
      <trkpt lat="44.77365902625024" lon="6.48625991307199">
        <time>2022-01-25T09:42:24+00:00</time>
        <ele>2373.0</ele>
      </trkpt>
      <trkpt lat="44.7736560087651" lon="6.486244071274996">
        <time>2022-01-25T09:42:26+00:00</time>
        <ele>2373.0</ele>
      </trkpt>
      <trkpt lat="44.77365047670901" lon="6.486198389902711">
        <time>2022-01-25T09:42:31+00:00</time>
        <ele>2374.0</ele>
      </trkpt>
      <trkpt lat="44.773652320727706" lon="6.486170394346118">
        <time>2022-01-25T09:42:35+00:00</time>
        <ele>2374.0</ele>
      </trkpt>
      <trkpt lat="44.7736507281661" lon="6.486153965815902">
        <time>2022-01-25T09:42:37+00:00</time>
        <ele>2375.0</ele>
      </trkpt>
      <trkpt lat="44.77364779449999" lon="6.486147427931428">
        <time>2022-01-25T09:42:39+00:00</time>
        <ele>2375.0</ele>
      </trkpt>
      <trkpt lat="44.7736456990242" lon="6.4861367829144">
        <time>2022-01-25T09:42:41+00:00</time>
        <ele>2375.0</ele>
      </trkpt>
      <trkpt lat="44.773632204160094" lon="6.486095963045955">
        <time>2022-01-25T09:42:48+00:00</time>
        <ele>2376.0</ele>
      </trkpt>
      <trkpt lat="44.77362759411335" lon="6.486087245866656">
        <time>2022-01-25T09:42:50+00:00</time>
        <ele>2376.0</ele>
      </trkpt>
      <trkpt lat="44.77362466044724" lon="6.486065872013569">
        <time>2022-01-25T09:42:53+00:00</time>
        <ele>2376.0</ele>
      </trkpt>
      <trkpt lat="44.773613177239895" lon="6.486051036044955">
        <time>2022-01-25T09:42:57+00:00</time>
        <ele>2377.0</ele>
      </trkpt>
      <trkpt lat="44.77360705845058" lon="6.486040223389864">
        <time>2022-01-25T09:42:59+00:00</time>
        <ele>2377.0</ele>
      </trkpt>
      <trkpt lat="44.773599514737725" lon="6.486021699383855">
        <time>2022-01-25T09:43:02+00:00</time>
        <ele>2377.0</ele>
      </trkpt>
      <trkpt lat="44.77359381504357" lon="6.485991943627596">
        <time>2022-01-25T09:43:06+00:00</time>
        <ele>2378.0</ele>
      </trkpt>
      <trkpt lat="44.77358593605459" lon="6.4859752636402845">
        <time>2022-01-25T09:43:09+00:00</time>
        <ele>2378.0</ele>
      </trkpt>
      <trkpt lat="44.773584846407175" lon="6.48595942184329">
        <time>2022-01-25T09:43:11+00:00</time>
        <ele>2378.0</ele>
      </trkpt>
      <trkpt lat="44.77358425967395" lon="6.4859105553478">
        <time>2022-01-25T09:43:17+00:00</time>
        <ele>2379.0</ele>
      </trkpt>
      <trkpt lat="44.773582415655255" lon="6.485903514549136">
        <time>2022-01-25T09:43:18+00:00</time>
        <ele>2379.0</ele>
      </trkpt>
      <trkpt lat="44.77357042953372" lon="6.485885242000222">
        <time>2022-01-25T09:43:21+00:00</time>
        <ele>2380.0</ele>
      </trkpt>
      <trkpt lat="44.77356858551502" lon="6.485875938087702">
        <time>2022-01-25T09:43:22+00:00</time>
        <ele>2380.0</ele>
      </trkpt>
      <trkpt lat="44.77355877868831" lon="6.485849199816585">
        <time>2022-01-25T09:43:25+00:00</time>
        <ele>2380.0</ele>
      </trkpt>
      <trkpt lat="44.77355592884123" lon="6.485822796821594">
        <time>2022-01-25T09:43:29+00:00</time>
        <ele>2381.0</ele>
      </trkpt>
      <trkpt lat="44.77355048060417" lon="6.485786167904735">
        <time>2022-01-25T09:43:33+00:00</time>
        <ele>2382.0</ele>
      </trkpt>
      <trkpt lat="44.77353388443589" lon="6.485776025801897">
        <time>2022-01-25T09:43:37+00:00</time>
        <ele>2382.0</ele>
      </trkpt>
      <trkpt lat="44.773532124236226" lon="6.485768901184201">
        <time>2022-01-25T09:43:38+00:00</time>
        <ele>2382.0</ele>
      </trkpt>
      <trkpt lat="44.773528100922704" lon="6.485760938376188">
        <time>2022-01-25T09:43:40+00:00</time>
        <ele>2382.0</ele>
      </trkpt>
      <trkpt lat="44.77350454777479" lon="6.48573461920023">
        <time>2022-01-25T09:43:44+00:00</time>
        <ele>2383.0</ele>
      </trkpt>
      <trkpt lat="44.7735040448606" lon="6.485727410763502">
        <time>2022-01-25T09:43:45+00:00</time>
        <ele>2383.0</ele>
      </trkpt>
      <trkpt lat="44.77350940927863" lon="6.485697738826275">
        <time>2022-01-25T09:43:48+00:00</time>
        <ele>2384.0</ele>
      </trkpt>
      <trkpt lat="44.77349624969065" lon="6.485643843188882">
        <time>2022-01-25T09:43:54+00:00</time>
        <ele>2385.0</ele>
      </trkpt>
      <trkpt lat="44.77348585613072" lon="6.485604112967849">
        <time>2022-01-25T09:43:59+00:00</time>
        <ele>2386.0</ele>
      </trkpt>
      <trkpt lat="44.77348778396845" lon="6.48557435721159">
        <time>2022-01-25T09:44:02+00:00</time>
        <ele>2386.0</ele>
      </trkpt>
      <trkpt lat="44.77348309010267" lon="6.485525909811258">
        <time>2022-01-25T09:44:08+00:00</time>
        <ele>2387.0</ele>
      </trkpt>
      <trkpt lat="44.77348384447396" lon="6.485492717474699">
        <time>2022-01-25T09:44:11+00:00</time>
        <ele>2387.0</ele>
      </trkpt>
      <trkpt lat="44.77347613312304" lon="6.485478803515434">
        <time>2022-01-25T09:44:13+00:00</time>
        <ele>2388.0</ele>
      </trkpt>
      <trkpt lat="44.77347898297012" lon="6.485400516539812">
        <time>2022-01-25T09:44:20+00:00</time>
        <ele>2389.0</ele>
      </trkpt>
      <trkpt lat="44.77347940206528" lon="6.48538769222796">
        <time>2022-01-25T09:44:21+00:00</time>
        <ele>2389.0</ele>
      </trkpt>
      <trkpt lat="44.77345962077379" lon="6.485360199585557">
        <time>2022-01-25T09:44:26+00:00</time>
        <ele>2390.0</ele>
      </trkpt>
      <trkpt lat="44.77345023304224" lon="6.485346285626292">
        <time>2022-01-25T09:44:29+00:00</time>
        <ele>2390.0</ele>
      </trkpt>
      <trkpt lat="44.77342810481787" lon="6.485313260927796">
        <time>2022-01-25T09:44:34+00:00</time>
        <ele>2391.0</ele>
      </trkpt>
      <trkpt lat="44.773426009342074" lon="6.485312087461352">
        <time>2022-01-25T09:44:35+00:00</time>
        <ele>2391.0</ele>
      </trkpt>
      <trkpt lat="44.773427937179804" lon="6.485303118824959">
        <time>2022-01-25T09:44:36+00:00</time>
        <ele>2391.0</ele>
      </trkpt>
      <trkpt lat="44.773434307426214" lon="6.485269591212273">
        <time>2022-01-25T09:44:42+00:00</time>
        <ele>2392.0</ele>
      </trkpt>
      <trkpt lat="44.7734213154763" lon="6.485257772728801">
        <time>2022-01-25T09:44:44+00:00</time>
        <ele>2392.0</ele>
      </trkpt>
      <trkpt lat="44.77339826524258" lon="6.485220808535814">
        <time>2022-01-25T09:44:49+00:00</time>
        <ele>2393.0</ele>
      </trkpt>
      <trkpt lat="44.773398684337735" lon="6.485185017809272">
        <time>2022-01-25T09:44:54+00:00</time>
        <ele>2394.0</ele>
      </trkpt>
      <trkpt lat="44.77339315228164" lon="6.485176803544164">
        <time>2022-01-25T09:44:55+00:00</time>
        <ele>2394.0</ele>
      </trkpt>
      <trkpt lat="44.77338627912104" lon="6.485144533216953">
        <time>2022-01-25T09:44:59+00:00</time>
        <ele>2395.0</ele>
      </trkpt>
      <trkpt lat="44.77338317781687" lon="6.485119555145502">
        <time>2022-01-25T09:45:02+00:00</time>
        <ele>2395.0</ele>
      </trkpt>
      <trkpt lat="44.773382004350424" lon="6.485113352537155">
        <time>2022-01-25T09:45:03+00:00</time>
        <ele>2396.0</ele>
      </trkpt>
      <trkpt lat="44.77337705902755" lon="6.485106563195586">
        <time>2022-01-25T09:45:04+00:00</time>
        <ele>2396.0</ele>
      </trkpt>
      <trkpt lat="44.7733626421541" lon="6.485079657286406">
        <time>2022-01-25T09:45:09+00:00</time>
        <ele>2396.0</ele>
      </trkpt>
      <trkpt lat="44.77336029522121" lon="6.4850714430212975">
        <time>2022-01-25T09:45:10+00:00</time>
        <ele>2397.0</ele>
      </trkpt>
      <trkpt lat="44.77336121723056" lon="6.485042106360197">
        <time>2022-01-25T09:45:14+00:00</time>
        <ele>2397.0</ele>
      </trkpt>
      <trkpt lat="44.77335560135543" lon="6.485035736113787">
        <time>2022-01-25T09:45:16+00:00</time>
        <ele>2397.0</ele>
      </trkpt>
      <trkpt lat="44.77335434406996" lon="6.485013775527477">
        <time>2022-01-25T09:45:19+00:00</time>
        <ele>2398.0</ele>
      </trkpt>
      <trkpt lat="44.77335308678448" lon="6.485003298148513">
        <time>2022-01-25T09:45:20+00:00</time>
        <ele>2398.0</ele>
      </trkpt>
      <trkpt lat="44.77335459552705" lon="6.484985025599599">
        <time>2022-01-25T09:45:22+00:00</time>
        <ele>2398.0</ele>
      </trkpt>
      <trkpt lat="44.77333917282522" lon="6.484963819384575">
        <time>2022-01-25T09:45:27+00:00</time>
        <ele>2399.0</ele>
      </trkpt>
      <trkpt lat="44.77333012036979" lon="6.484939344227314">
        <time>2022-01-25T09:45:31+00:00</time>
        <ele>2399.0</ele>
      </trkpt>
      <trkpt lat="44.773329282179475" lon="6.484933560714126">
        <time>2022-01-25T09:45:32+00:00</time>
        <ele>2399.0</ele>
      </trkpt>
      <trkpt lat="44.77331821806729" lon="6.4848944172263145">
        <time>2022-01-25T09:45:38+00:00</time>
        <ele>2400.0</ele>
      </trkpt>
      <trkpt lat="44.773319978266954" lon="6.484876899048686">
        <time>2022-01-25T09:45:40+00:00</time>
        <ele>2400.0</ele>
      </trkpt>
      <trkpt lat="44.77331327274442" lon="6.484818393364549">
        <time>2022-01-25T09:45:45+00:00</time>
        <ele>2402.0</ele>
      </trkpt>
      <trkpt lat="44.77332383394241" lon="6.4848037250339985">
        <time>2022-01-25T09:45:47+00:00</time>
        <ele>2402.0</ele>
      </trkpt>
      <trkpt lat="44.77333447895944" lon="6.48475687019527">
        <time>2022-01-25T09:45:52+00:00</time>
        <ele>2402.0</ele>
      </trkpt>
      <trkpt lat="44.77333405986428" lon="6.484749913215637">
        <time>2022-01-25T09:45:53+00:00</time>
        <ele>2402.0</ele>
      </trkpt>
      <trkpt lat="44.773328863084316" lon="6.4847412798553705">
        <time>2022-01-25T09:45:54+00:00</time>
        <ele>2403.0</ele>
      </trkpt>
      <trkpt lat="44.77332257665694" lon="6.484694257378578">
        <time>2022-01-25T09:46:01+00:00</time>
        <ele>2404.0</ele>
      </trkpt>
      <trkpt lat="44.77331838570535" lon="6.484684366732836">
        <time>2022-01-25T09:46:03+00:00</time>
        <ele>2404.0</ele>
      </trkpt>
      <trkpt lat="44.77331721223891" lon="6.484679421409965">
        <time>2022-01-25T09:46:04+00:00</time>
        <ele>2404.0</ele>
      </trkpt>
      <trkpt lat="44.7733124345541" lon="6.484668189659715">
        <time>2022-01-25T09:46:06+00:00</time>
        <ele>2404.0</ele>
      </trkpt>
      <trkpt lat="44.77330908179283" lon="6.484664669260383">
        <time>2022-01-25T09:46:07+00:00</time>
        <ele>2405.0</ele>
      </trkpt>
      <trkpt lat="44.77330572903156" lon="6.484651593491435">
        <time>2022-01-25T09:46:09+00:00</time>
        <ele>2405.0</ele>
      </trkpt>
      <trkpt lat="44.77330229245126" lon="6.484629129990935">
        <time>2022-01-25T09:46:12+00:00</time>
        <ele>2405.0</ele>
      </trkpt>
      <trkpt lat="44.77329860441387" lon="6.484606917947531">
        <time>2022-01-25T09:46:15+00:00</time>
        <ele>2406.0</ele>
      </trkpt>
      <trkpt lat="44.77329550310969" lon="6.484593171626329">
        <time>2022-01-25T09:46:17+00:00</time>
        <ele>2406.0</ele>
      </trkpt>
      <trkpt lat="44.77328980341554" lon="6.484568864107132">
        <time>2022-01-25T09:46:20+00:00</time>
        <ele>2407.0</ele>
      </trkpt>
      <trkpt lat="44.773281840607524" lon="6.484550172463059">
        <time>2022-01-25T09:46:23+00:00</time>
        <ele>2408.0</ele>
      </trkpt>
      <trkpt lat="44.773275051265955" lon="6.484537348151207">
        <time>2022-01-25T09:46:25+00:00</time>
        <ele>2408.0</ele>
      </trkpt>
      <trkpt lat="44.77327731437981" lon="6.484529217705131">
        <time>2022-01-25T09:46:26+00:00</time>
        <ele>2408.0</ele>
      </trkpt>
      <trkpt lat="44.773279996588826" lon="6.484517566859722">
        <time>2022-01-25T09:46:27+00:00</time>
        <ele>2408.0</ele>
      </trkpt>
      <trkpt lat="44.7732659149915" lon="6.484471382573247">
        <time>2022-01-25T09:46:34+00:00</time>
        <ele>2410.0</ele>
      </trkpt>
      <trkpt lat="44.773251162841916" lon="6.484425533562899">
        <time>2022-01-25T09:46:40+00:00</time>
        <ele>2411.0</ele>
      </trkpt>
      <trkpt lat="44.773235488682985" lon="6.48438798263669">
        <time>2022-01-25T09:46:45+00:00</time>
        <ele>2412.0</ele>
      </trkpt>
      <trkpt lat="44.77323339320719" lon="6.484338361769915">
        <time>2022-01-25T09:46:51+00:00</time>
        <ele>2414.0</ele>
      </trkpt>
      <trkpt lat="44.77322593331337" lon="6.48432251997292">
        <time>2022-01-25T09:46:54+00:00</time>
        <ele>2414.0</ele>
      </trkpt>
      <trkpt lat="44.773223754018545" lon="6.484318161383271">
        <time>2022-01-25T09:46:55+00:00</time>
        <ele>2414.0</ele>
      </trkpt>
      <trkpt lat="44.77321377955377" lon="6.484297290444374">
        <time>2022-01-25T09:46:58+00:00</time>
        <ele>2415.0</ele>
      </trkpt>
      <trkpt lat="44.773205146193504" lon="6.48427558131516">
        <time>2022-01-25T09:47:01+00:00</time>
        <ele>2415.0</ele>
      </trkpt>
      <trkpt lat="44.7732019610703" lon="6.48425018414855">
        <time>2022-01-25T09:47:04+00:00</time>
        <ele>2416.0</ele>
      </trkpt>
      <trkpt lat="44.77319919504225" lon="6.484234090894461">
        <time>2022-01-25T09:47:06+00:00</time>
        <ele>2416.0</ele>
      </trkpt>
      <trkpt lat="44.77319500409067" lon="6.484210034832358">
        <time>2022-01-25T09:47:10+00:00</time>
        <ele>2417.0</ele>
      </trkpt>
      <trkpt lat="44.7731913998723" lon="6.484196623787284">
        <time>2022-01-25T09:47:12+00:00</time>
        <ele>2417.0</ele>
      </trkpt>
      <trkpt lat="44.773183185607195" lon="6.484182039275765">
        <time>2022-01-25T09:47:14+00:00</time>
        <ele>2417.0</ele>
      </trkpt>
      <trkpt lat="44.773176312446594" lon="6.484148344025016">
        <time>2022-01-25T09:47:19+00:00</time>
        <ele>2418.0</ele>
      </trkpt>
      <trkpt lat="44.77317555807531" lon="6.484138034284115">
        <time>2022-01-25T09:47:20+00:00</time>
        <ele>2418.0</ele>
      </trkpt>
      <trkpt lat="44.773173965513706" lon="6.484131412580609">
        <time>2022-01-25T09:47:21+00:00</time>
        <ele>2418.0</ele>
      </trkpt>
      <trkpt lat="44.77316038683057" lon="6.48410702124238">
        <time>2022-01-25T09:47:25+00:00</time>
        <ele>2419.0</ele>
      </trkpt>
      <trkpt lat="44.77315845899284" lon="6.484089167788625">
        <time>2022-01-25T09:47:27+00:00</time>
        <ele>2419.0</ele>
      </trkpt>
      <trkpt lat="44.77316088974476" lon="6.484060166403651">
        <time>2022-01-25T09:47:30+00:00</time>
        <ele>2420.0</ele>
      </trkpt>
      <trkpt lat="44.77316189557314" lon="6.4840542152523994">
        <time>2022-01-25T09:47:31+00:00</time>
        <ele>2420.0</ele>
      </trkpt>
      <trkpt lat="44.773159800097346" lon="6.484027644619346">
        <time>2022-01-25T09:47:35+00:00</time>
        <ele>2420.0</ele>
      </trkpt>
      <trkpt lat="44.77315183728933" lon="6.484013814479113">
        <time>2022-01-25T09:47:37+00:00</time>
        <ele>2421.0</ele>
      </trkpt>
      <trkpt lat="44.773148987442255" lon="6.484001576900482">
        <time>2022-01-25T09:47:39+00:00</time>
        <ele>2421.0</ele>
      </trkpt>
      <trkpt lat="44.77314203046262" lon="6.483981795608997">
        <time>2022-01-25T09:47:41+00:00</time>
        <ele>2422.0</ele>
      </trkpt>
      <trkpt lat="44.77314244955778" lon="6.48396335542202">
        <time>2022-01-25T09:47:43+00:00</time>
        <ele>2422.0</ele>
      </trkpt>
      <trkpt lat="44.77313465438783" lon="6.483941227197647">
        <time>2022-01-25T09:47:46+00:00</time>
        <ele>2422.0</ele>
      </trkpt>
      <trkpt lat="44.7731121070683" lon="6.483899150043726">
        <time>2022-01-25T09:47:53+00:00</time>
        <ele>2424.0</ele>
      </trkpt>
      <trkpt lat="44.77310079149902" lon="6.483879284933209">
        <time>2022-01-25T09:47:57+00:00</time>
        <ele>2424.0</ele>
      </trkpt>
      <trkpt lat="44.773092744871974" lon="6.483869897201657">
        <time>2022-01-25T09:47:59+00:00</time>
        <ele>2425.0</ele>
      </trkpt>
      <trkpt lat="44.77308905683458" lon="6.483849277719855">
        <time>2022-01-25T09:48:02+00:00</time>
        <ele>2425.0</ele>
      </trkpt>
      <trkpt lat="44.77308411151171" lon="6.483842488378286">
        <time>2022-01-25T09:48:04+00:00</time>
        <ele>2426.0</ele>
      </trkpt>
      <trkpt lat="44.77307019755244" lon="6.483803009614348">
        <time>2022-01-25T09:48:09+00:00</time>
        <ele>2427.0</ele>
      </trkpt>
      <trkpt lat="44.773053685203195" lon="6.483771912753582">
        <time>2022-01-25T09:48:13+00:00</time>
        <ele>2428.0</ele>
      </trkpt>
      <trkpt lat="44.773052260279655" lon="6.483743833377957">
        <time>2022-01-25T09:48:17+00:00</time>
        <ele>2428.0</ele>
      </trkpt>
      <trkpt lat="44.773038011044264" lon="6.483713323250413">
        <time>2022-01-25T09:48:23+00:00</time>
        <ele>2429.0</ele>
      </trkpt>
      <trkpt lat="44.77303105406463" lon="6.483689770102501">
        <time>2022-01-25T09:48:26+00:00</time>
        <ele>2429.0</ele>
      </trkpt>
      <trkpt lat="44.773026779294014" lon="6.483662948012352">
        <time>2022-01-25T09:48:29+00:00</time>
        <ele>2430.0</ele>
      </trkpt>
      <trkpt lat="44.77302468381822" lon="6.483653979375958">
        <time>2022-01-25T09:48:30+00:00</time>
        <ele>2430.0</ele>
      </trkpt>
      <trkpt lat="44.77301931940019" lon="6.483635455369949">
        <time>2022-01-25T09:48:32+00:00</time>
        <ele>2431.0</ele>
      </trkpt>
      <trkpt lat="44.77302175015211" lon="6.483617266640067">
        <time>2022-01-25T09:48:34+00:00</time>
        <ele>2431.0</ele>
      </trkpt>
      <trkpt lat="44.77301973849535" lon="6.483615171164274">
        <time>2022-01-25T09:48:35+00:00</time>
        <ele>2431.0</ele>
      </trkpt>
      <trkpt lat="44.77301303297281" lon="6.483584828674793">
        <time>2022-01-25T09:48:38+00:00</time>
        <ele>2432.0</ele>
      </trkpt>
      <trkpt lat="44.77300230413675" lon="6.483537722378969">
        <time>2022-01-25T09:48:45+00:00</time>
        <ele>2433.0</ele>
      </trkpt>
      <trkpt lat="44.77300900965929" lon="6.483522299677134">
        <time>2022-01-25T09:48:47+00:00</time>
        <ele>2433.0</ele>
      </trkpt>
      <trkpt lat="44.773013535887" lon="6.48350402712822">
        <time>2022-01-25T09:48:49+00:00</time>
        <ele>2433.0</ele>
      </trkpt>
      <trkpt lat="44.77301236242056" lon="6.483472427353263">
        <time>2022-01-25T09:48:54+00:00</time>
        <ele>2433.0</ele>
      </trkpt>
      <trkpt lat="44.77299928665161" lon="6.483436552807689">
        <time>2022-01-25T09:49:00+00:00</time>
        <ele>2434.0</ele>
      </trkpt>
      <trkpt lat="44.77299492806196" lon="6.483432278037071">
        <time>2022-01-25T09:49:01+00:00</time>
        <ele>2434.0</ele>
      </trkpt>
      <trkpt lat="44.77296902798116" lon="6.4834201242774725">
        <time>2022-01-25T09:49:04+00:00</time>
        <ele>2435.0</ele>
      </trkpt>
      <trkpt lat="44.772973889485" lon="6.483394475653768">
        <time>2022-01-25T09:49:07+00:00</time>
        <ele>2435.0</ele>
      </trkpt>
      <trkpt lat="44.77295972406864" lon="6.483376789838076">
        <time>2022-01-25T09:49:10+00:00</time>
        <ele>2435.0</ele>
      </trkpt>
      <trkpt lat="44.77295025251806" lon="6.4833523984998465">
        <time>2022-01-25T09:49:13+00:00</time>
        <ele>2436.0</ele>
      </trkpt>
      <trkpt lat="44.77294404990971" lon="6.4833444356918335">
        <time>2022-01-25T09:49:14+00:00</time>
        <ele>2436.0</ele>
      </trkpt>
      <trkpt lat="44.772938853129745" lon="6.4833376463502645">
        <time>2022-01-25T09:49:15+00:00</time>
        <ele>2437.0</ele>
      </trkpt>
      <trkpt lat="44.77292695082724" lon="6.483325492590666">
        <time>2022-01-25T09:49:17+00:00</time>
        <ele>2437.0</ele>
      </trkpt>
      <trkpt lat="44.772926196455956" lon="6.483314260840416">
        <time>2022-01-25T09:49:18+00:00</time>
        <ele>2437.0</ele>
      </trkpt>
      <trkpt lat="44.77292192168534" lon="6.483295988291502">
        <time>2022-01-25T09:49:20+00:00</time>
        <ele>2438.0</ele>
      </trkpt>
      <trkpt lat="44.772918317466974" lon="6.483269417658448">
        <time>2022-01-25T09:49:23+00:00</time>
        <ele>2438.0</ele>
      </trkpt>
      <trkpt lat="44.77291747927666" lon="6.483242595568299">
        <time>2022-01-25T09:49:26+00:00</time>
        <ele>2438.0</ele>
      </trkpt>
      <trkpt lat="44.77289333939552" lon="6.483172522857785">
        <time>2022-01-25T09:49:34+00:00</time>
        <ele>2440.0</ele>
      </trkpt>
      <trkpt lat="44.772892417386174" lon="6.483150143176317">
        <time>2022-01-25T09:49:36+00:00</time>
        <ele>2440.0</ele>
      </trkpt>
      <trkpt lat="44.77289166301489" lon="6.4831234049052">
        <time>2022-01-25T09:49:38+00:00</time>
        <ele>2440.0</ele>
      </trkpt>
      <trkpt lat="44.77289132773876" lon="6.483090547844768">
        <time>2022-01-25T09:49:41+00:00</time>
        <ele>2440.0</ele>
      </trkpt>
      <trkpt lat="44.77288939990103" lon="6.483070431277156">
        <time>2022-01-25T09:49:43+00:00</time>
        <ele>2440.0</ele>
      </trkpt>
      <trkpt lat="44.772875905036926" lon="6.483006309717894">
        <time>2022-01-25T09:49:50+00:00</time>
        <ele>2441.0</ele>
      </trkpt>
      <trkpt lat="44.77287263609469" lon="6.482998346909881">
        <time>2022-01-25T09:49:51+00:00</time>
        <ele>2441.0</ele>
      </trkpt>
      <trkpt lat="44.772863583639264" lon="6.482982924208045">
        <time>2022-01-25T09:49:53+00:00</time>
        <ele>2442.0</ele>
      </trkpt>
      <trkpt lat="44.772854363545775" lon="6.482957359403372">
        <time>2022-01-25T09:49:56+00:00</time>
        <ele>2442.0</ele>
      </trkpt>
      <trkpt lat="44.77285402826965" lon="6.482949815690517">
        <time>2022-01-25T09:49:57+00:00</time>
        <ele>2442.0</ele>
      </trkpt>
      <trkpt lat="44.772849502041936" lon="6.482931459322572">
        <time>2022-01-25T09:49:59+00:00</time>
        <ele>2443.0</ele>
      </trkpt>
      <trkpt lat="44.77284933440387" lon="6.482911594212055">
        <time>2022-01-25T09:50:01+00:00</time>
        <ele>2443.0</ele>
      </trkpt>
      <trkpt lat="44.77284824475646" lon="6.482904301956296">
        <time>2022-01-25T09:50:02+00:00</time>
        <ele>2443.0</ele>
      </trkpt>
      <trkpt lat="44.77284489199519" lon="6.482893154025078">
        <time>2022-01-25T09:50:03+00:00</time>
        <ele>2443.0</ele>
      </trkpt>
      <trkpt lat="44.77284883148968" lon="6.482848981395364">
        <time>2022-01-25T09:50:09+00:00</time>
        <ele>2443.0</ele>
      </trkpt>
      <trkpt lat="44.77284137159586" lon="6.482836492359638">
        <time>2022-01-25T09:50:11+00:00</time>
        <ele>2444.0</ele>
      </trkpt>
      <trkpt lat="44.772840114310384" lon="6.482822326943278">
        <time>2022-01-25T09:50:13+00:00</time>
        <ele>2444.0</ele>
      </trkpt>
      <trkpt lat="44.7728324867785" lon="6.482810592278838">
        <time>2022-01-25T09:50:15+00:00</time>
        <ele>2444.0</ele>
      </trkpt>
      <trkpt lat="44.77282125502825" lon="6.482798606157303">
        <time>2022-01-25T09:50:18+00:00</time>
        <ele>2445.0</ele>
      </trkpt>
      <trkpt lat="44.77282075211406" lon="6.482792068272829">
        <time>2022-01-25T09:50:19+00:00</time>
        <ele>2445.0</ele>
      </trkpt>
      <trkpt lat="44.77282125502825" lon="6.48278284817934">
        <time>2022-01-25T09:50:20+00:00</time>
        <ele>2445.0</ele>
      </trkpt>
      <trkpt lat="44.77283005602658" lon="6.482740603387356">
        <time>2022-01-25T09:50:25+00:00</time>
        <ele>2445.0</ele>
      </trkpt>
      <trkpt lat="44.77282854728401" lon="6.482702130451798">
        <time>2022-01-25T09:50:30+00:00</time>
        <ele>2445.0</ele>
      </trkpt>
      <trkpt lat="44.77282913401723" lon="6.482692072167993">
        <time>2022-01-25T09:50:31+00:00</time>
        <ele>2446.0</ele>
      </trkpt>
      <trkpt lat="44.7728168964386" lon="6.482653180137277">
        <time>2022-01-25T09:50:37+00:00</time>
        <ele>2447.0</ele>
      </trkpt>
      <trkpt lat="44.77281614206731" lon="6.482626106590033">
        <time>2022-01-25T09:50:40+00:00</time>
        <ele>2447.0</ele>
      </trkpt>
      <trkpt lat="44.77281748317182" lon="6.482608001679182">
        <time>2022-01-25T09:50:43+00:00</time>
        <ele>2448.0</ele>
      </trkpt>
      <trkpt lat="44.772830894216895" lon="6.482574809342623">
        <time>2022-01-25T09:50:47+00:00</time>
        <ele>2448.0</ele>
      </trkpt>
      <trkpt lat="44.77283558808267" lon="6.482557374984026">
        <time>2022-01-25T09:50:49+00:00</time>
        <ele>2448.0</ele>
      </trkpt>
      <trkpt lat="44.77284430526197" lon="6.482543544843793">
        <time>2022-01-25T09:50:50+00:00</time>
        <ele>2448.0</ele>
      </trkpt>
      <trkpt lat="44.77284430526197" lon="6.482530469074845">
        <time>2022-01-25T09:50:52+00:00</time>
        <ele>2448.0</ele>
      </trkpt>
      <trkpt lat="44.77284723892808" lon="6.482497192919254">
        <time>2022-01-25T09:50:57+00:00</time>
        <ele>2448.0</ele>
      </trkpt>
      <trkpt lat="44.77284908294678" lon="6.482487386092544">
        <time>2022-01-25T09:50:59+00:00</time>
        <ele>2449.0</ele>
      </trkpt>
      <trkpt lat="44.77283927612007" lon="6.482455870136619">
        <time>2022-01-25T09:51:03+00:00</time>
        <ele>2450.0</ele>
      </trkpt>
      <trkpt lat="44.77283651009202" lon="6.482451427727938">
        <time>2022-01-25T09:51:04+00:00</time>
        <ele>2450.0</ele>
      </trkpt>
      <trkpt lat="44.772837683558464" lon="6.482446230947971">
        <time>2022-01-25T09:51:05+00:00</time>
        <ele>2450.0</ele>
      </trkpt>
      <trkpt lat="44.77284179069102" lon="6.482437429949641">
        <time>2022-01-25T09:51:07+00:00</time>
        <ele>2450.0</ele>
      </trkpt>
      <trkpt lat="44.77284338325262" lon="6.482430305331945">
        <time>2022-01-25T09:51:09+00:00</time>
        <ele>2450.0</ele>
      </trkpt>
      <trkpt lat="44.77283927612007" lon="6.482414547353983">
        <time>2022-01-25T09:51:12+00:00</time>
        <ele>2450.0</ele>
      </trkpt>
      <trkpt lat="44.772832905873656" lon="6.482381438836455">
        <time>2022-01-25T09:51:16+00:00</time>
        <ele>2451.0</ele>
      </trkpt>
      <trkpt lat="44.7728340793401" lon="6.482360735535622">
        <time>2022-01-25T09:51:19+00:00</time>
        <ele>2452.0</ele>
      </trkpt>
      <trkpt lat="44.7728340793401" lon="6.482349839061499">
        <time>2022-01-25T09:51:20+00:00</time>
        <ele>2452.0</ele>
      </trkpt>
      <trkpt lat="44.77283366024494" lon="6.482333661988378">
        <time>2022-01-25T09:51:22+00:00</time>
        <ele>2452.0</ele>
      </trkpt>
      <trkpt lat="44.772852351889014" lon="6.482287058606744">
        <time>2022-01-25T09:51:26+00:00</time>
        <ele>2453.0</ele>
      </trkpt>
      <trkpt lat="44.7728565428406" lon="6.48227465339005">
        <time>2022-01-25T09:51:29+00:00</time>
        <ele>2453.0</ele>
      </trkpt>
      <trkpt lat="44.77286274544895" lon="6.482270043343306">
        <time>2022-01-25T09:51:31+00:00</time>
        <ele>2453.0</ele>
      </trkpt>
      <trkpt lat="44.77286618202925" lon="6.482270546257496">
        <time>2022-01-25T09:51:33+00:00</time>
        <ele>2453.0</ele>
      </trkpt>
      <trkpt lat="44.77285964414477" lon="6.482263756915927">
        <time>2022-01-25T09:51:39+00:00</time>
        <ele>2453.0</ele>
      </trkpt>
      <trkpt lat="44.77285964414477" lon="6.482263756915927">
        <time>2022-01-25T09:51:43+00:00</time>
        <ele>2453.0</ele>
      </trkpt>
      <trkpt lat="44.77285964414477" lon="6.482263756915927">
        <time>2022-01-25T09:51:44+00:00</time>
        <ele>2453.0</ele>
      </trkpt>
      <trkpt lat="44.77285964414477" lon="6.482263756915927">
        <time>2022-01-25T09:51:45+00:00</time>
        <ele>2453.0</ele>
      </trkpt>
      <trkpt lat="44.77286232635379" lon="6.482263756915927">
        <time>2022-01-25T09:51:51+00:00</time>
        <ele>2453.0</ele>
      </trkpt>
      <trkpt lat="44.772865595296025" lon="6.482233330607414">
        <time>2022-01-25T09:52:00+00:00</time>
        <ele>2454.0</ele>
      </trkpt>
      <trkpt lat="44.77287163026631" lon="6.482185050845146">
        <time>2022-01-25T09:52:07+00:00</time>
        <ele>2454.0</ele>
      </trkpt>
      <trkpt lat="44.77288001216948" lon="6.4821454882621765">
        <time>2022-01-25T09:52:13+00:00</time>
        <ele>2455.0</ele>
      </trkpt>
      <trkpt lat="44.77288344874978" lon="6.482117660343647">
        <time>2022-01-25T09:52:18+00:00</time>
        <ele>2455.0</ele>
      </trkpt>
      <trkpt lat="44.772898787632585" lon="6.482055298984051">
        <time>2022-01-25T09:52:26+00:00</time>
        <ele>2456.0</ele>
      </trkpt>
      <trkpt lat="44.772912953048944" lon="6.481918590143323">
        <time>2022-01-25T09:52:33+00:00</time>
        <ele>2458.0</ele>
      </trkpt>
      <trkpt lat="44.77293650619686" lon="6.48179822601378">
        <time>2022-01-25T09:52:38+00:00</time>
        <ele>2460.0</ele>
      </trkpt>
      <trkpt lat="44.77293357253075" lon="6.4817791152745485">
        <time>2022-01-25T09:52:41+00:00</time>
        <ele>2460.0</ele>
      </trkpt>
      <trkpt lat="44.77295368909836" lon="6.481717256829143">
        <time>2022-01-25T09:52:47+00:00</time>
        <ele>2461.0</ele>
      </trkpt>
      <trkpt lat="44.77296609431505" lon="6.481700576841831">
        <time>2022-01-25T09:52:48+00:00</time>
        <ele>2461.0</ele>
      </trkpt>
      <trkpt lat="44.772962322458625" lon="6.481674257665873">
        <time>2022-01-25T09:52:52+00:00</time>
        <ele>2462.0</ele>
      </trkpt>
      <trkpt lat="44.77296609431505" lon="6.481668306514621">
        <time>2022-01-25T09:52:53+00:00</time>
        <ele>2461.0</ele>
      </trkpt>
      <trkpt lat="44.77298017591238" lon="6.481652380898595">
        <time>2022-01-25T09:52:55+00:00</time>
        <ele>2461.0</ele>
      </trkpt>
      <trkpt lat="44.77298461832106" lon="6.481647519394755">
        <time>2022-01-25T09:52:56+00:00</time>
        <ele>2461.0</ele>
      </trkpt>
      <trkpt lat="44.773003812879324" lon="6.481590690091252">
        <time>2022-01-25T09:53:02+00:00</time>
        <ele>2462.0</ele>
      </trkpt>
      <trkpt lat="44.772997023537755" lon="6.481557497754693">
        <time>2022-01-25T09:53:07+00:00</time>
        <ele>2463.0</ele>
      </trkpt>
      <trkpt lat="44.77299777790904" lon="6.481551211327314">
        <time>2022-01-25T09:53:08+00:00</time>
        <ele>2463.0</ele>
      </trkpt>
      <trkpt lat="44.77300884202123" lon="6.481508715078235">
        <time>2022-01-25T09:53:12+00:00</time>
        <ele>2464.0</ele>
      </trkpt>
      <trkpt lat="44.77301596663892" lon="6.481492957100272">
        <time>2022-01-25T09:53:14+00:00</time>
        <ele>2464.0</ele>
      </trkpt>
      <trkpt lat="44.773022420704365" lon="6.481456579640508">
        <time>2022-01-25T09:53:18+00:00</time>
        <ele>2465.0</ele>
      </trkpt>
      <trkpt lat="44.773025857284665" lon="6.481427662074566">
        <time>2022-01-25T09:53:21+00:00</time>
        <ele>2466.0</ele>
      </trkpt>
      <trkpt lat="44.77302451618016" lon="6.481426237151027">
        <time>2022-01-25T09:53:22+00:00</time>
        <ele>2466.0</ele>
      </trkpt>
      <trkpt lat="44.77302543818951" lon="6.481400923803449">
        <time>2022-01-25T09:53:24+00:00</time>
        <ele>2466.0</ele>
      </trkpt>
      <trkpt lat="44.77302619256079" lon="6.481384076178074">
        <time>2022-01-25T09:53:27+00:00</time>
        <ele>2467.0</ele>
      </trkpt>
      <trkpt lat="44.77302610874176" lon="6.481364797800779">
        <time>2022-01-25T09:53:29+00:00</time>
        <ele>2467.0</ele>
      </trkpt>
      <trkpt lat="44.77302803657949" lon="6.481342250481248">
        <time>2022-01-25T09:53:32+00:00</time>
        <ele>2468.0</ele>
      </trkpt>
      <trkpt lat="44.77303633466363" lon="6.481317775323987">
        <time>2022-01-25T09:53:35+00:00</time>
        <ele>2468.0</ele>
      </trkpt>
      <trkpt lat="44.77304404601455" lon="6.481295228004456">
        <time>2022-01-25T09:53:38+00:00</time>
        <ele>2469.0</ele>
      </trkpt>
      <trkpt lat="44.77305242791772" lon="6.481263712048531">
        <time>2022-01-25T09:53:42+00:00</time>
        <ele>2469.0</ele>
      </trkpt>
      <trkpt lat="44.773059133440256" lon="6.481210067868233">
        <time>2022-01-25T09:53:48+00:00</time>
        <ele>2471.0</ele>
      </trkpt>
      <trkpt lat="44.7730777412653" lon="6.481178803369403">
        <time>2022-01-25T09:53:52+00:00</time>
        <ele>2471.0</ele>
      </trkpt>
      <trkpt lat="44.77308134548366" lon="6.481169583275914">
        <time>2022-01-25T09:53:54+00:00</time>
        <ele>2471.0</ele>
      </trkpt>
      <trkpt lat="44.77308897301555" lon="6.481155250221491">
        <time>2022-01-25T09:53:57+00:00</time>
        <ele>2471.0</ele>
      </trkpt>
      <trkpt lat="44.773096265271306" lon="6.48113613948226">
        <time>2022-01-25T09:53:59+00:00</time>
        <ele>2471.0</ele>
      </trkpt>
      <trkpt lat="44.77309903129935" lon="6.481109233573079">
        <time>2022-01-25T09:54:02+00:00</time>
        <ele>2472.0</ele>
      </trkpt>
      <trkpt lat="44.77310280315578" lon="6.481095403432846">
        <time>2022-01-25T09:54:04+00:00</time>
        <ele>2472.0</ele>
      </trkpt>
      <trkpt lat="44.773119650781155" lon="6.481032706797123">
        <time>2022-01-25T09:54:12+00:00</time>
        <ele>2474.0</ele>
      </trkpt>
      <trkpt lat="44.773128032684326" lon="6.481020301580429">
        <time>2022-01-25T09:54:15+00:00</time>
        <ele>2474.0</ele>
      </trkpt>
      <trkpt lat="44.77312669157982" lon="6.481011165305972">
        <time>2022-01-25T09:54:16+00:00</time>
        <ele>2474.0</ele>
      </trkpt>
      <trkpt lat="44.77313415147364" lon="6.4809969160705805">
        <time>2022-01-25T09:54:18+00:00</time>
        <ele>2474.0</ele>
      </trkpt>
      <trkpt lat="44.773141108453274" lon="6.480986857786775">
        <time>2022-01-25T09:54:19+00:00</time>
        <ele>2474.0</ele>
      </trkpt>
      <trkpt lat="44.773144628852606" lon="6.480979397892952">
        <time>2022-01-25T09:54:20+00:00</time>
        <ele>2475.0</ele>
      </trkpt>
      <trkpt lat="44.773147478699684" lon="6.480974201112986">
        <time>2022-01-25T09:54:21+00:00</time>
        <ele>2475.0</ele>
      </trkpt>
      <trkpt lat="44.7731570340693" lon="6.480960203334689">
        <time>2022-01-25T09:54:23+00:00</time>
        <ele>2475.0</ele>
      </trkpt>
      <trkpt lat="44.773158794268966" lon="6.4809459540992975">
        <time>2022-01-25T09:54:25+00:00</time>
        <ele>2475.0</ele>
      </trkpt>
      <trkpt lat="44.773188130930066" lon="6.48091577924788">
        <time>2022-01-25T09:54:30+00:00</time>
        <ele>2475.0</ele>
      </trkpt>
      <trkpt lat="44.77319701574743" lon="6.480890130624175">
        <time>2022-01-25T09:54:33+00:00</time>
        <ele>2476.0</ele>
      </trkpt>
      <trkpt lat="44.773232890293" lon="6.480827685445547">
        <time>2022-01-25T09:54:41+00:00</time>
        <ele>2477.0</ele>
      </trkpt>
      <trkpt lat="44.773244205862284" lon="6.480806479230523">
        <time>2022-01-25T09:54:44+00:00</time>
        <ele>2477.0</ele>
      </trkpt>
      <trkpt lat="44.77325728163123" lon="6.480764821171761">
        <time>2022-01-25T09:54:50+00:00</time>
        <ele>2478.0</ele>
      </trkpt>
      <trkpt lat="44.7732606343925" lon="6.480765156447887">
        <time>2022-01-25T09:54:52+00:00</time>
        <ele>2478.0</ele>
      </trkpt>
      <trkpt lat="44.773253593593836" lon="6.480751661583781">
        <time>2022-01-25T09:54:58+00:00</time>
        <ele>2478.0</ele>
      </trkpt>
      <trkpt lat="44.773271698504686" lon="6.480738501995802">
        <time>2022-01-25T09:55:06+00:00</time>
        <ele>2478.0</ele>
      </trkpt>
      <trkpt lat="44.773234482854605" lon="6.4807194750756025">
        <time>2022-01-25T09:55:15+00:00</time>
        <ele>2480.0</ele>
      </trkpt>
      <trkpt lat="44.773234482854605" lon="6.4807194750756025">
        <time>2022-01-25T09:55:18+00:00</time>
        <ele>2480.0</ele>
      </trkpt>
      <trkpt lat="44.773234482854605" lon="6.480720145627856">
        <time>2022-01-25T09:55:20+00:00</time>
        <ele>2480.0</ele>
      </trkpt>
      <trkpt lat="44.77324252948165" lon="6.480751996859908">
        <time>2022-01-25T09:55:42+00:00</time>
        <ele>2479.0</ele>
      </trkpt>
      <trkpt lat="44.77324303239584" lon="6.48075208067894">
        <time>2022-01-25T09:55:45+00:00</time>
        <ele>2479.0</ele>
      </trkpt>
      <trkpt lat="44.77324336767197" lon="6.480752918869257">
        <time>2022-01-25T09:55:48+00:00</time>
        <ele>2478.0</ele>
      </trkpt>
      <trkpt lat="44.77324370294809" lon="6.480751829221845">
        <time>2022-01-25T09:55:52+00:00</time>
        <ele>2478.0</ele>
      </trkpt>
      <trkpt lat="44.77326021529734" lon="6.480715787038207">
        <time>2022-01-25T09:55:58+00:00</time>
        <ele>2479.0</ele>
      </trkpt>
      <trkpt lat="44.77328695356846" lon="6.4806649927049875">
        <time>2022-01-25T09:56:01+00:00</time>
        <ele>2480.0</ele>
      </trkpt>
      <trkpt lat="44.77330765686929" lon="6.48062601685524">
        <time>2022-01-25T09:56:04+00:00</time>
        <ele>2480.0</ele>
      </trkpt>
      <trkpt lat="44.77331687696278" lon="6.480609672144055">
        <time>2022-01-25T09:56:05+00:00</time>
        <ele>2480.0</ele>
      </trkpt>
      <trkpt lat="44.77332425303757" lon="6.480595422908664">
        <time>2022-01-25T09:56:07+00:00</time>
        <ele>2481.0</ele>
      </trkpt>
      <trkpt lat="44.77332995273173" lon="6.480548148974776">
        <time>2022-01-25T09:56:13+00:00</time>
        <ele>2482.0</ele>
      </trkpt>
      <trkpt lat="44.773335149511695" lon="6.480529122054577">
        <time>2022-01-25T09:56:15+00:00</time>
        <ele>2482.0</ele>
      </trkpt>
      <trkpt lat="44.7733504883945" lon="6.480486961081624">
        <time>2022-01-25T09:56:20+00:00</time>
        <ele>2483.0</ele>
      </trkpt>
      <trkpt lat="44.77336046285927" lon="6.480440944433212">
        <time>2022-01-25T09:56:25+00:00</time>
        <ele>2484.0</ele>
      </trkpt>
      <trkpt lat="44.77336188778281" lon="6.480431891977787">
        <time>2022-01-25T09:56:26+00:00</time>
        <ele>2484.0</ele>
      </trkpt>
      <trkpt lat="44.773332718759775" lon="6.480400711297989">
        <time>2022-01-25T09:56:31+00:00</time>
        <ele>2486.0</ele>
      </trkpt>
      <trkpt lat="44.77333841845393" lon="6.48037338629365">
        <time>2022-01-25T09:56:34+00:00</time>
        <ele>2486.0</ele>
      </trkpt>
      <trkpt lat="44.77334219031036" lon="6.4803427923470736">
        <time>2022-01-25T09:56:38+00:00</time>
        <ele>2487.0</ele>
      </trkpt>
      <trkpt lat="44.7733433637768" lon="6.480335332453251">
        <time>2022-01-25T09:56:39+00:00</time>
        <ele>2487.0</ele>
      </trkpt>
      <trkpt lat="44.77334327995777" lon="6.480325860902667">
        <time>2022-01-25T09:56:40+00:00</time>
        <ele>2487.0</ele>
      </trkpt>
      <trkpt lat="44.77334604598582" lon="6.480294931679964">
        <time>2022-01-25T09:56:45+00:00</time>
        <ele>2488.0</ele>
      </trkpt>
      <trkpt lat="44.773353673517704" lon="6.480285627767444">
        <time>2022-01-25T09:56:46+00:00</time>
        <ele>2488.0</ele>
      </trkpt>
      <trkpt lat="44.77335937321186" lon="6.480272468179464">
        <time>2022-01-25T09:56:47+00:00</time>
        <ele>2488.0</ele>
      </trkpt>
      <trkpt lat="44.77335845120251" lon="6.480249585583806">
        <time>2022-01-25T09:56:50+00:00</time>
        <ele>2489.0</ele>
      </trkpt>
      <trkpt lat="44.77336280979216" lon="6.480227541178465">
        <time>2022-01-25T09:56:52+00:00</time>
        <ele>2489.0</ele>
      </trkpt>
      <trkpt lat="44.77336758747697" lon="6.480216644704342">
        <time>2022-01-25T09:56:53+00:00</time>
        <ele>2489.0</ele>
      </trkpt>
      <trkpt lat="44.77337731048465" lon="6.480187978595495">
        <time>2022-01-25T09:56:56+00:00</time>
        <ele>2490.0</ele>
      </trkpt>
      <trkpt lat="44.77335870265961" lon="6.480175741016865">
        <time>2022-01-25T09:57:00+00:00</time>
        <ele>2490.0</ele>
      </trkpt>
      <trkpt lat="44.773344453424215" lon="6.480174735188484">
        <time>2022-01-25T09:57:01+00:00</time>
        <ele>2491.0</ele>
      </trkpt>
      <trkpt lat="44.77333498187363" lon="6.480128886178136">
        <time>2022-01-25T09:57:06+00:00</time>
        <ele>2492.0</ele>
      </trkpt>
      <trkpt lat="44.773325929418206" lon="6.480114050209522">
        <time>2022-01-25T09:57:08+00:00</time>
        <ele>2493.0</ele>
      </trkpt>
      <trkpt lat="44.77333984337747" lon="6.480070296674967">
        <time>2022-01-25T09:57:14+00:00</time>
        <ele>2493.0</ele>
      </trkpt>
      <trkpt lat="44.77334386669099" lon="6.480064848437905">
        <time>2022-01-25T09:57:15+00:00</time>
        <ele>2493.0</ele>
      </trkpt>
      <trkpt lat="44.77334763854742" lon="6.480019753798842">
        <time>2022-01-25T09:57:19+00:00</time>
        <ele>2494.0</ele>
      </trkpt>
      <trkpt lat="44.77334470488131" lon="6.480014221742749">
        <time>2022-01-25T09:57:20+00:00</time>
        <ele>2494.0</ele>
      </trkpt>
      <trkpt lat="44.773344453424215" lon="6.479990081861615">
        <time>2022-01-25T09:57:23+00:00</time>
        <ele>2495.0</ele>
      </trkpt>
      <trkpt lat="44.77334755472839" lon="6.479978850111365">
        <time>2022-01-25T09:57:24+00:00</time>
        <ele>2495.0</ele>
      </trkpt>
      <trkpt lat="44.77334973402321" lon="6.479969462379813">
        <time>2022-01-25T09:57:25+00:00</time>
        <ele>2495.0</ele>
      </trkpt>
      <trkpt lat="44.77333045564592" lon="6.479947250336409">
        <time>2022-01-25T09:57:31+00:00</time>
        <ele>2496.0</ele>
      </trkpt>
      <trkpt lat="44.773304304108024" lon="6.479957811534405">
        <time>2022-01-25T09:57:33+00:00</time>
        <ele>2496.0</ele>
      </trkpt>
      <trkpt lat="44.773297011852264" lon="6.479924283921719">
        <time>2022-01-25T09:57:38+00:00</time>
        <ele>2497.0</ele>
      </trkpt>
      <trkpt lat="44.773306315764785" lon="6.4799034129828215">
        <time>2022-01-25T09:57:41+00:00</time>
        <ele>2497.0</ele>
      </trkpt>
      <trkpt lat="44.773302963003516" lon="6.4798444882035255">
        <time>2022-01-25T09:57:47+00:00</time>
        <ele>2498.0</ele>
      </trkpt>
      <trkpt lat="44.77329810149968" lon="6.479842979460955">
        <time>2022-01-25T09:57:48+00:00</time>
        <ele>2499.0</ele>
      </trkpt>
      <trkpt lat="44.77328460663557" lon="6.479788916185498">
        <time>2022-01-25T09:57:54+00:00</time>
        <ele>2500.0</ele>
      </trkpt>
      <trkpt lat="44.773285863921046" lon="6.479777432978153">
        <time>2022-01-25T09:57:55+00:00</time>
        <ele>2500.0</ele>
      </trkpt>
      <trkpt lat="44.77329541929066" lon="6.479727141559124">
        <time>2022-01-25T09:58:00+00:00</time>
        <ele>2501.0</ele>
      </trkpt>
      <trkpt lat="44.77329785004258" lon="6.47969763725996">
        <time>2022-01-25T09:58:03+00:00</time>
        <ele>2501.0</ele>
      </trkpt>
      <trkpt lat="44.77332022972405" lon="6.479637119919062">
        <time>2022-01-25T09:58:08+00:00</time>
        <ele>2502.0</ele>
      </trkpt>
      <trkpt lat="44.77332073263824" lon="6.479621110484004">
        <time>2022-01-25T09:58:10+00:00</time>
        <ele>2503.0</ele>
      </trkpt>
      <trkpt lat="44.77331914007664" lon="6.479578949511051">
        <time>2022-01-25T09:58:16+00:00</time>
        <ele>2504.0</ele>
      </trkpt>
      <trkpt lat="44.773319978266954" lon="6.479568220674992">
        <time>2022-01-25T09:58:18+00:00</time>
        <ele>2504.0</ele>
      </trkpt>
      <trkpt lat="44.773322409018874" lon="6.479528909549117">
        <time>2022-01-25T09:58:25+00:00</time>
        <ele>2505.0</ele>
      </trkpt>
      <trkpt lat="44.77332324720919" lon="6.479518264532089">
        <time>2022-01-25T09:58:26+00:00</time>
        <ele>2505.0</ele>
      </trkpt>
      <trkpt lat="44.77332282811403" lon="6.479506362229586">
        <time>2022-01-25T09:58:27+00:00</time>
        <ele>2505.0</ele>
      </trkpt>
      <trkpt lat="44.773318972438574" lon="6.479491945356131">
        <time>2022-01-25T09:58:29+00:00</time>
        <ele>2506.0</ele>
      </trkpt>
      <trkpt lat="44.773317631334066" lon="6.4794704876840115">
        <time>2022-01-25T09:58:33+00:00</time>
        <ele>2506.0</ele>
      </trkpt>
      <trkpt lat="44.7733209002763" lon="6.479457579553127">
        <time>2022-01-25T09:58:34+00:00</time>
        <ele>2506.0</ele>
      </trkpt>
      <trkpt lat="44.773317547515035" lon="6.479456322267652">
        <time>2022-01-25T09:58:37+00:00</time>
        <ele>2506.0</ele>
      </trkpt>
      <trkpt lat="44.77330522611737" lon="6.479446263983846">
        <time>2022-01-25T09:58:39+00:00</time>
        <ele>2507.0</ele>
      </trkpt>
      <trkpt lat="44.77330271154642" lon="6.479443414136767">
        <time>2022-01-25T09:58:40+00:00</time>
        <ele>2507.0</ele>
      </trkpt>
      <trkpt lat="44.77330472320318" lon="6.479434445500374">
        <time>2022-01-25T09:58:41+00:00</time>
        <ele>2507.0</ele>
      </trkpt>
      <trkpt lat="44.773301873356104" lon="6.479367054998875">
        <time>2022-01-25T09:58:48+00:00</time>
        <ele>2508.0</ele>
      </trkpt>
      <trkpt lat="44.77329323999584" lon="6.479357751086354">
        <time>2022-01-25T09:58:50+00:00</time>
        <ele>2508.0</ele>
      </trkpt>
      <trkpt lat="44.773274548351765" lon="6.4793134946376085">
        <time>2022-01-25T09:58:57+00:00</time>
        <ele>2509.0</ele>
      </trkpt>
      <trkpt lat="44.77327832020819" lon="6.479302765801549">
        <time>2022-01-25T09:58:58+00:00</time>
        <ele>2509.0</ele>
      </trkpt>
      <trkpt lat="44.77327203378081" lon="6.479248786345124">
        <time>2022-01-25T09:59:05+00:00</time>
        <ele>2510.0</ele>
      </trkpt>
      <trkpt lat="44.773272536695" lon="6.479240907356143">
        <time>2022-01-25T09:59:06+00:00</time>
        <ele>2510.0</ele>
      </trkpt>
      <trkpt lat="44.77327144704759" lon="6.479232106357813">
        <time>2022-01-25T09:59:07+00:00</time>
        <ele>2511.0</ele>
      </trkpt>
      <trkpt lat="44.773277482017875" lon="6.479199333116412">
        <time>2022-01-25T09:59:10+00:00</time>
        <ele>2511.0</ele>
      </trkpt>
      <trkpt lat="44.77327739819884" lon="6.4791833236813545">
        <time>2022-01-25T09:59:14+00:00</time>
        <ele>2511.0</ele>
      </trkpt>
      <trkpt lat="44.77326834574342" lon="6.479184245690703">
        <time>2022-01-25T09:59:15+00:00</time>
        <ele>2512.0</ele>
      </trkpt>
      <trkpt lat="44.77325929328799" lon="6.479166308417916">
        <time>2022-01-25T09:59:18+00:00</time>
        <ele>2512.0</ele>
      </trkpt>
      <trkpt lat="44.773275554180145" lon="6.47911517880857">
        <time>2022-01-25T09:59:24+00:00</time>
        <ele>2513.0</ele>
      </trkpt>
      <trkpt lat="44.77326884865761" lon="6.479100678116083">
        <time>2022-01-25T09:59:27+00:00</time>
        <ele>2513.0</ele>
      </trkpt>
      <trkpt lat="44.773245714604855" lon="6.479073939844966">
        <time>2022-01-25T09:59:32+00:00</time>
        <ele>2514.0</ele>
      </trkpt>
      <trkpt lat="44.773242864757776" lon="6.479068826884031">
        <time>2022-01-25T09:59:33+00:00</time>
        <ele>2515.0</ele>
      </trkpt>
      <trkpt lat="44.773223754018545" lon="6.479018284007907">
        <time>2022-01-25T09:59:42+00:00</time>
        <ele>2516.0</ele>
      </trkpt>
      <trkpt lat="44.7732207365334" lon="6.47901208139956">
        <time>2022-01-25T09:59:43+00:00</time>
        <ele>2516.0</ele>
      </trkpt>
      <trkpt lat="44.77321285754442" lon="6.478981152176857">
        <time>2022-01-25T09:59:47+00:00</time>
        <ele>2517.0</ele>
      </trkpt>
      <trkpt lat="44.77321025915444" lon="6.478975368663669">
        <time>2022-01-25T09:59:48+00:00</time>
        <ele>2518.0</ele>
      </trkpt>
      <trkpt lat="44.773201290518045" lon="6.478943433612585">
        <time>2022-01-25T09:59:53+00:00</time>
        <ele>2518.0</ele>
      </trkpt>
      <trkpt lat="44.773207157850266" lon="6.478933123871684">
        <time>2022-01-25T09:59:57+00:00</time>
        <ele>2518.0</ele>
      </trkpt>
      <trkpt lat="44.77318938821554" lon="6.478946786373854">
        <time>2022-01-25T10:00:00+00:00</time>
        <ele>2519.0</ele>
      </trkpt>
      <trkpt lat="44.77318645454943" lon="6.478946786373854">
        <time>2022-01-25T10:00:01+00:00</time>
        <ele>2519.0</ele>
      </trkpt>
      <trkpt lat="44.7731916513294" lon="6.478943852707744">
        <time>2022-01-25T10:00:13+00:00</time>
        <ele>2519.0</ele>
      </trkpt>
      <trkpt lat="44.773203805089" lon="6.4789332915097475">
        <time>2022-01-25T10:00:19+00:00</time>
        <ele>2518.0</ele>
      </trkpt>
      <trkpt lat="44.773220317438245" lon="6.478920970112085">
        <time>2022-01-25T10:00:29+00:00</time>
        <ele>2518.0</ele>
      </trkpt>
      <trkpt lat="44.77322484366596" lon="6.478911833837628">
        <time>2022-01-25T10:00:34+00:00</time>
        <ele>2518.0</ele>
      </trkpt>
      <trkpt lat="44.77321713231504" lon="6.4788747020065784">
        <time>2022-01-25T10:00:43+00:00</time>
        <ele>2519.0</ele>
      </trkpt>
      <trkpt lat="44.77321134880185" lon="6.478861039504409">
        <time>2022-01-25T10:00:44+00:00</time>
        <ele>2519.0</ele>
      </trkpt>
      <trkpt lat="44.77320187725127" lon="6.478844024240971">
        <time>2022-01-25T10:00:45+00:00</time>
        <ele>2520.0</ele>
      </trkpt>
      <trkpt lat="44.77319014258683" lon="6.47881125099957">
        <time>2022-01-25T10:00:47+00:00</time>
        <ele>2521.0</ele>
      </trkpt>
      <trkpt lat="44.77318184450269" lon="6.47877462208271">
        <time>2022-01-25T10:00:49+00:00</time>
        <ele>2522.0</ele>
      </trkpt>
      <trkpt lat="44.77315443567932" lon="6.478719636797905">
        <time>2022-01-25T10:00:56+00:00</time>
        <ele>2523.0</ele>
      </trkpt>
      <trkpt lat="44.77315217256546" lon="6.478712763637304">
        <time>2022-01-25T10:00:57+00:00</time>
        <ele>2524.0</ele>
      </trkpt>
      <trkpt lat="44.773144628852606" lon="6.478703627362847">
        <time>2022-01-25T10:00:59+00:00</time>
        <ele>2524.0</ele>
      </trkpt>
      <trkpt lat="44.77314035408199" lon="6.478702034801245">
        <time>2022-01-25T10:01:00+00:00</time>
        <ele>2524.0</ele>
      </trkpt>
      <trkpt lat="44.77312149479985" lon="6.478680158033967">
        <time>2022-01-25T10:01:04+00:00</time>
        <ele>2525.0</ele>
      </trkpt>
      <trkpt lat="44.77310724556446" lon="6.478666327893734">
        <time>2022-01-25T10:01:08+00:00</time>
        <ele>2526.0</ele>
      </trkpt>
      <trkpt lat="44.77309207431972" lon="6.47864755243063">
        <time>2022-01-25T10:01:12+00:00</time>
        <ele>2527.0</ele>
      </trkpt>
      <trkpt lat="44.77308126166463" lon="6.4786379132419825">
        <time>2022-01-25T10:01:15+00:00</time>
        <ele>2527.0</ele>
      </trkpt>
      <trkpt lat="44.77307925000787" lon="6.478632800281048">
        <time>2022-01-25T10:01:16+00:00</time>
        <ele>2527.0</ele>
      </trkpt>
      <trkpt lat="44.773070868104696" lon="6.478618802502751">
        <time>2022-01-25T10:01:19+00:00</time>
        <ele>2528.0</ele>
      </trkpt>
      <trkpt lat="44.77304806932807" lon="6.478581670671701">
        <time>2022-01-25T10:01:26+00:00</time>
        <ele>2529.0</ele>
      </trkpt>
      <trkpt lat="44.77304161526263" lon="6.478570522740483">
        <time>2022-01-25T10:01:28+00:00</time>
        <ele>2529.0</ele>
      </trkpt>
      <trkpt lat="44.77302057668567" lon="6.478533893823624">
        <time>2022-01-25T10:01:34+00:00</time>
        <ele>2530.0</ele>
      </trkpt>
      <trkpt lat="44.77299937047064" lon="6.478496761992574">
        <time>2022-01-25T10:01:40+00:00</time>
        <ele>2532.0</ele>
      </trkpt>
      <trkpt lat="44.77299677208066" lon="6.4784894697368145">
        <time>2022-01-25T10:01:41+00:00</time>
        <ele>2532.0</ele>
      </trkpt>
      <trkpt lat="44.77296877652407" lon="6.478453427553177">
        <time>2022-01-25T10:01:48+00:00</time>
        <ele>2533.0</ele>
      </trkpt>
      <trkpt lat="44.77296366356313" lon="6.478442195802927">
        <time>2022-01-25T10:01:50+00:00</time>
        <ele>2534.0</ele>
      </trkpt>
      <trkpt lat="44.77296005934477" lon="6.478415876626968">
        <time>2022-01-25T10:01:55+00:00</time>
        <ele>2534.0</ele>
      </trkpt>
      <trkpt lat="44.772973889485" lon="6.478392407298088">
        <time>2022-01-25T10:01:58+00:00</time>
        <ele>2534.0</ele>
      </trkpt>
      <trkpt lat="44.77295871824026" lon="6.478369105607271">
        <time>2022-01-25T10:02:02+00:00</time>
        <ele>2534.0</ele>
      </trkpt>
      <trkpt lat="44.77295092307031" lon="6.478362567722797">
        <time>2022-01-25T10:02:04+00:00</time>
        <ele>2535.0</ele>
      </trkpt>
      <trkpt lat="44.77295083925128" lon="6.478350246325135">
        <time>2022-01-25T10:02:06+00:00</time>
        <ele>2535.0</ele>
      </trkpt>
      <trkpt lat="44.77292703464627" lon="6.4783157967031">
        <time>2022-01-25T10:02:12+00:00</time>
        <ele>2536.0</ele>
      </trkpt>
      <trkpt lat="44.77291747927666" lon="6.478312108665705">
        <time>2022-01-25T10:02:14+00:00</time>
        <ele>2536.0</ele>
      </trkpt>
      <trkpt lat="44.77289996109903" lon="6.478268941864371">
        <time>2022-01-25T10:02:19+00:00</time>
        <ele>2537.0</ele>
      </trkpt>
      <trkpt lat="44.772884035483" lon="6.478260308504105">
        <time>2022-01-25T10:02:21+00:00</time>
        <ele>2538.0</ele>
      </trkpt>
      <trkpt lat="44.77287758141756" lon="6.478251591324806">
        <time>2022-01-25T10:02:23+00:00</time>
        <ele>2538.0</ele>
      </trkpt>
      <trkpt lat="44.77285260334611" lon="6.478243712335825">
        <time>2022-01-25T10:02:27+00:00</time>
        <ele>2540.0</ele>
      </trkpt>
      <trkpt lat="44.77284665219486" lon="6.478230552747846">
        <time>2022-01-25T10:02:30+00:00</time>
        <ele>2540.0</ele>
      </trkpt>
      <trkpt lat="44.77281983010471" lon="6.478213369846344">
        <time>2022-01-25T10:02:34+00:00</time>
        <ele>2541.0</ele>
      </trkpt>
      <trkpt lat="44.772814800962806" lon="6.478205658495426">
        <time>2022-01-25T10:02:35+00:00</time>
        <ele>2542.0</ele>
      </trkpt>
      <trkpt lat="44.77280583232641" lon="6.478172214701772">
        <time>2022-01-25T10:02:39+00:00</time>
        <ele>2542.0</ele>
      </trkpt>
      <trkpt lat="44.77278973907232" lon="6.47814916446805">
        <time>2022-01-25T10:02:43+00:00</time>
        <ele>2543.0</ele>
      </trkpt>
      <trkpt lat="44.772771215066314" lon="6.478130640462041">
        <time>2022-01-25T10:02:47+00:00</time>
        <ele>2544.0</ele>
      </trkpt>
      <trkpt lat="44.772747326642275" lon="6.478101806715131">
        <time>2022-01-25T10:02:52+00:00</time>
        <ele>2545.0</ele>
      </trkpt>
      <trkpt lat="44.77274472825229" lon="6.478096190840006">
        <time>2022-01-25T10:02:53+00:00</time>
        <ele>2545.0</ele>
      </trkpt>
      <trkpt lat="44.772729724645615" lon="6.478062914684415">
        <time>2022-01-25T10:02:57+00:00</time>
        <ele>2546.0</ele>
      </trkpt>
      <trkpt lat="44.77272570133209" lon="6.478050090372562">
        <time>2022-01-25T10:02:59+00:00</time>
        <ele>2546.0</ele>
      </trkpt>
      <trkpt lat="44.772720169276" lon="6.478038774803281">
        <time>2022-01-25T10:03:01+00:00</time>
        <ele>2546.0</ele>
      </trkpt>
      <trkpt lat="44.772696951404214" lon="6.477981694042683">
        <time>2022-01-25T10:03:08+00:00</time>
        <ele>2548.0</ele>
      </trkpt>
      <trkpt lat="44.77268613874912" lon="6.477951016277075">
        <time>2022-01-25T10:03:11+00:00</time>
        <ele>2548.0</ele>
      </trkpt>
      <trkpt lat="44.77268253453076" lon="6.477924780920148">
        <time>2022-01-25T10:03:14+00:00</time>
        <ele>2548.0</ele>
      </trkpt>
      <trkpt lat="44.772694520652294" lon="6.477841716259718">
        <time>2022-01-25T10:03:21+00:00</time>
        <ele>2547.0</ele>
      </trkpt>
      <trkpt lat="44.7726821154356" lon="6.477808440104127">
        <time>2022-01-25T10:03:26+00:00</time>
        <ele>2548.0</ele>
      </trkpt>
      <trkpt lat="44.772675996646285" lon="6.477793687954545">
        <time>2022-01-25T10:03:28+00:00</time>
        <ele>2549.0</ele>
      </trkpt>
      <trkpt lat="44.772651605308056" lon="6.477747755125165">
        <time>2022-01-25T10:03:37+00:00</time>
        <ele>2551.0</ele>
      </trkpt>
      <trkpt lat="44.772660406306386" lon="6.477695116773248">
        <time>2022-01-25T10:03:44+00:00</time>
        <ele>2550.0</ele>
      </trkpt>
      <trkpt lat="44.77266753092408" lon="6.477679694071412">
        <time>2022-01-25T10:03:45+00:00</time>
        <ele>2550.0</ele>
      </trkpt>
      <trkpt lat="44.772674571722746" lon="6.4776380360126495">
        <time>2022-01-25T10:03:51+00:00</time>
        <ele>2550.0</ele>
      </trkpt>
      <trkpt lat="44.77267096750438" lon="6.477626133710146">
        <time>2022-01-25T10:03:53+00:00</time>
        <ele>2550.0</ele>
      </trkpt>
      <trkpt lat="44.77266451343894" lon="6.477602329105139">
        <time>2022-01-25T10:03:57+00:00</time>
        <ele>2551.0</ele>
      </trkpt>
      <trkpt lat="44.77265479043126" lon="6.477579530328512">
        <time>2022-01-25T10:04:01+00:00</time>
        <ele>2552.0</ele>
      </trkpt>
      <trkpt lat="44.77265244349837" lon="6.477556731551886">
        <time>2022-01-25T10:04:04+00:00</time>
        <ele>2552.0</ele>
      </trkpt>
      <trkpt lat="44.77264632470906" lon="6.4775346871465445">
        <time>2022-01-25T10:04:09+00:00</time>
        <ele>2553.0</ele>
      </trkpt>
      <trkpt lat="44.77264791727066" lon="6.4775278978049755">
        <time>2022-01-25T10:04:10+00:00</time>
        <ele>2553.0</ele>
      </trkpt>
      <trkpt lat="44.77264682762325" lon="6.477521946653724">
        <time>2022-01-25T10:04:11+00:00</time>
        <ele>2553.0</ele>
      </trkpt>
      <trkpt lat="44.772640792652965" lon="6.477483389899135">
        <time>2022-01-25T10:04:18+00:00</time>
        <ele>2554.0</ele>
      </trkpt>
      <trkpt lat="44.77263861335814" lon="6.477475678548217">
        <time>2022-01-25T10:04:20+00:00</time>
        <ele>2554.0</ele>
      </trkpt>
      <trkpt lat="44.77263811044395" lon="6.4774442464113235">
        <time>2022-01-25T10:04:25+00:00</time>
        <ele>2555.0</ele>
      </trkpt>
      <trkpt lat="44.77262478321791" lon="6.477418262511492">
        <time>2022-01-25T10:04:31+00:00</time>
        <ele>2556.0</ele>
      </trkpt>
      <trkpt lat="44.77263618260622" lon="6.477389512583613">
        <time>2022-01-25T10:04:36+00:00</time>
        <ele>2556.0</ele>
      </trkpt>
      <trkpt lat="44.77264020591974" lon="6.477364199236035">
        <time>2022-01-25T10:04:39+00:00</time>
        <ele>2557.0</ele>
      </trkpt>
      <trkpt lat="44.77263660170138" lon="6.477315919473767">
        <time>2022-01-25T10:04:45+00:00</time>
        <ele>2558.0</ele>
      </trkpt>
      <trkpt lat="44.772639283910394" lon="6.4773004129529">
        <time>2022-01-25T10:04:49+00:00</time>
        <ele>2558.0</ele>
      </trkpt>
      <trkpt lat="44.77264355868101" lon="6.477307202294469">
        <time>2022-01-25T10:04:58+00:00</time>
        <ele>2558.0</ele>
      </trkpt>
      <trkpt lat="44.77264355868101" lon="6.477307202294469">
        <time>2022-01-25T10:05:12+00:00</time>
        <ele>2558.0</ele>
      </trkpt>
      <trkpt lat="44.772644229233265" lon="6.477305945008993">
        <time>2022-01-25T10:05:17+00:00</time>
        <ele>2558.0</ele>
      </trkpt>
      <trkpt lat="44.77264489978552" lon="6.47730091586709">
        <time>2022-01-25T10:05:21+00:00</time>
        <ele>2558.0</ele>
      </trkpt>
      <trkpt lat="44.77264489978552" lon="6.47730091586709">
        <time>2022-01-25T10:05:22+00:00</time>
        <ele>2558.0</ele>
      </trkpt>
      <trkpt lat="44.772645737975836" lon="6.477277027443051">
        <time>2022-01-25T10:05:26+00:00</time>
        <ele>2558.0</ele>
      </trkpt>
      <trkpt lat="44.77264582179487" lon="6.477266298606992">
        <time>2022-01-25T10:05:27+00:00</time>
        <ele>2558.0</ele>
      </trkpt>
      <trkpt lat="44.772647162899375" lon="6.477249199524522">
        <time>2022-01-25T10:05:29+00:00</time>
        <ele>2559.0</ele>
      </trkpt>
      <trkpt lat="44.77265269495547" lon="6.477188849821687">
        <time>2022-01-25T10:05:36+00:00</time>
        <ele>2560.0</ele>
      </trkpt>
      <trkpt lat="44.772654538974166" lon="6.477145263925195">
        <time>2022-01-25T10:05:43+00:00</time>
        <ele>2560.0</ele>
      </trkpt>
      <trkpt lat="44.772654538974166" lon="6.477138893678784">
        <time>2022-01-25T10:05:44+00:00</time>
        <ele>2560.0</ele>
      </trkpt>
      <trkpt lat="44.772654538974166" lon="6.477137301117182">
        <time>2022-01-25T10:05:45+00:00</time>
        <ele>2561.0</ele>
      </trkpt>
      <trkpt lat="44.772654538974166" lon="6.4771311823278666">
        <time>2022-01-25T10:05:46+00:00</time>
        <ele>2561.0</ele>
      </trkpt>
      <trkpt lat="44.772654538974166" lon="6.4771132450550795">
        <time>2022-01-25T10:05:49+00:00</time>
        <ele>2561.0</ele>
      </trkpt>
      <trkpt lat="44.772653533145785" lon="6.477069491520524">
        <time>2022-01-25T10:05:54+00:00</time>
        <ele>2562.0</ele>
      </trkpt>
      <trkpt lat="44.772653533145785" lon="6.477044345811009">
        <time>2022-01-25T10:05:58+00:00</time>
        <ele>2562.0</ele>
      </trkpt>
      <trkpt lat="44.77265420369804" lon="6.47701115347445">
        <time>2022-01-25T10:06:03+00:00</time>
        <ele>2563.0</ele>
      </trkpt>
      <trkpt lat="44.77265361696482" lon="6.476934710517526">
        <time>2022-01-25T10:06:13+00:00</time>
        <ele>2564.0</ele>
      </trkpt>
      <trkpt lat="44.77265328168869" lon="6.476891040802002">
        <time>2022-01-25T10:06:19+00:00</time>
        <ele>2565.0</ele>
      </trkpt>
      <trkpt lat="44.77265261113644" lon="6.476879054680467">
        <time>2022-01-25T10:06:21+00:00</time>
        <ele>2565.0</ele>
      </trkpt>
      <trkpt lat="44.7726287227124" lon="6.4768352173268795">
        <time>2022-01-25T10:06:28+00:00</time>
        <ele>2567.0</ele>
      </trkpt>
      <trkpt lat="44.77261807769537" lon="6.476797163486481">
        <time>2022-01-25T10:06:34+00:00</time>
        <ele>2568.0</ele>
      </trkpt>
      <trkpt lat="44.772615898400545" lon="6.476779896765947">
        <time>2022-01-25T10:06:37+00:00</time>
        <ele>2569.0</ele>
      </trkpt>
      <trkpt lat="44.772609109058976" lon="6.476765982806683">
        <time>2022-01-25T10:06:40+00:00</time>
        <ele>2569.0</ele>
      </trkpt>
      <trkpt lat="44.772604163736105" lon="6.476761624217033">
        <time>2022-01-25T10:06:41+00:00</time>
        <ele>2570.0</ele>
      </trkpt>
      <trkpt lat="44.77259578183293" lon="6.476745530962944">
        <time>2022-01-25T10:06:44+00:00</time>
        <ele>2570.0</ele>
      </trkpt>
      <trkpt lat="44.77258664555848" lon="6.476714517921209">
        <time>2022-01-25T10:06:49+00:00</time>
        <ele>2571.0</ele>
      </trkpt>
      <trkpt lat="44.77258044295013" lon="6.476659197360277">
        <time>2022-01-25T10:06:56+00:00</time>
        <ele>2572.0</ele>
      </trkpt>
      <trkpt lat="44.77257206104696" lon="6.476597171276808">
        <time>2022-01-25T10:07:06+00:00</time>
        <ele>2574.0</ele>
      </trkpt>
      <trkpt lat="44.77256937883794" lon="6.476550232619047">
        <time>2022-01-25T10:07:13+00:00</time>
        <ele>2575.0</ele>
      </trkpt>
      <trkpt lat="44.772567031905055" lon="6.476491056382656">
        <time>2022-01-25T10:07:21+00:00</time>
        <ele>2575.0</ele>
      </trkpt>
      <trkpt lat="44.77256585843861" lon="6.47645166143775">
        <time>2022-01-25T10:07:27+00:00</time>
        <ele>2576.0</ele>
      </trkpt>
      <trkpt lat="44.77256124839187" lon="6.47642676718533">
        <time>2022-01-25T10:07:30+00:00</time>
        <ele>2577.0</ele>
      </trkpt>
      <trkpt lat="44.772530402988195" lon="6.476363148540258">
        <time>2022-01-25T10:07:34+00:00</time>
        <ele>2579.0</ele>
      </trkpt>
      <trkpt lat="44.77252285927534" lon="6.476349653676152">
        <time>2022-01-25T10:07:35+00:00</time>
        <ele>2580.0</ele>
      </trkpt>
      <trkpt lat="44.77249201387167" lon="6.476269019767642">
        <time>2022-01-25T10:07:42+00:00</time>
        <ele>2583.0</ele>
      </trkpt>
      <trkpt lat="44.77248757146299" lon="6.476266589015722">
        <time>2022-01-25T10:07:43+00:00</time>
        <ele>2583.0</ele>
      </trkpt>
      <trkpt lat="44.772490337491035" lon="6.476237839087844">
        <time>2022-01-25T10:07:46+00:00</time>
        <ele>2583.0</ele>
      </trkpt>
      <trkpt lat="44.77248908020556" lon="6.476226355880499">
        <time>2022-01-25T10:07:48+00:00</time>
        <ele>2583.0</ele>
      </trkpt>
      <trkpt lat="44.77249058894813" lon="6.476217554882169">
        <time>2022-01-25T10:07:49+00:00</time>
        <ele>2583.0</ele>
      </trkpt>
      <trkpt lat="44.77248715236783" lon="6.4761867094784975">
        <time>2022-01-25T10:07:53+00:00</time>
        <ele>2584.0</ele>
      </trkpt>
      <trkpt lat="44.772479608654976" lon="6.476149661466479">
        <time>2022-01-25T10:07:58+00:00</time>
        <ele>2585.0</ele>
      </trkpt>
      <trkpt lat="44.77247969247401" lon="6.4761413633823395">
        <time>2022-01-25T10:07:59+00:00</time>
        <ele>2585.0</ele>
      </trkpt>
      <trkpt lat="44.77247407659888" lon="6.476104147732258">
        <time>2022-01-25T10:08:04+00:00</time>
        <ele>2586.0</ele>
      </trkpt>
      <trkpt lat="44.772467790171504" lon="6.476096855476499">
        <time>2022-01-25T10:08:06+00:00</time>
        <ele>2586.0</ele>
      </trkpt>
      <trkpt lat="44.77246577851474" lon="6.476091239601374">
        <time>2022-01-25T10:08:07+00:00</time>
        <ele>2586.0</ele>
      </trkpt>
      <trkpt lat="44.77246209047735" lon="6.476078080013394">
        <time>2022-01-25T10:08:09+00:00</time>
        <ele>2587.0</ele>
      </trkpt>
      <trkpt lat="44.772448847070336" lon="6.476054610684514">
        <time>2022-01-25T10:08:13+00:00</time>
        <ele>2588.0</ele>
      </trkpt>
      <trkpt lat="44.77244566194713" lon="6.476034997031093">
        <time>2022-01-25T10:08:15+00:00</time>
        <ele>2588.0</ele>
      </trkpt>
      <trkpt lat="44.77244574576616" lon="6.47601094096899">
        <time>2022-01-25T10:08:18+00:00</time>
        <ele>2589.0</ele>
      </trkpt>
      <trkpt lat="44.77243669331074" lon="6.476004654541612">
        <time>2022-01-25T10:08:21+00:00</time>
        <ele>2589.0</ele>
      </trkpt>
      <trkpt lat="44.772433089092374" lon="6.475998451933265">
        <time>2022-01-25T10:08:23+00:00</time>
        <ele>2590.0</ele>
      </trkpt>
      <trkpt lat="44.77242034859955" lon="6.475974647328258">
        <time>2022-01-25T10:08:28+00:00</time>
        <ele>2591.0</ele>
      </trkpt>
      <trkpt lat="44.77241976186633" lon="6.475969115272164">
        <time>2022-01-25T10:08:29+00:00</time>
        <ele>2591.0</ele>
      </trkpt>
      <trkpt lat="44.772427305579185" lon="6.475918237119913">
        <time>2022-01-25T10:08:36+00:00</time>
        <ele>2591.0</ele>
      </trkpt>
      <trkpt lat="44.77242344990373" lon="6.475916560739279">
        <time>2022-01-25T10:08:37+00:00</time>
        <ele>2591.0</ele>
      </trkpt>
      <trkpt lat="44.772416492924094" lon="6.475882614031434">
        <time>2022-01-25T10:08:44+00:00</time>
        <ele>2592.0</ele>
      </trkpt>
      <trkpt lat="44.77241188287735" lon="6.475825114175677">
        <time>2022-01-25T10:08:52+00:00</time>
        <ele>2593.0</ele>
      </trkpt>
      <trkpt lat="44.772414145991206" lon="6.47580080665648">
        <time>2022-01-25T10:08:54+00:00</time>
        <ele>2593.0</ele>
      </trkpt>
      <trkpt lat="44.772416492924094" lon="6.47577004507184">
        <time>2022-01-25T10:08:58+00:00</time>
        <ele>2593.0</ele>
      </trkpt>
      <trkpt lat="44.772416492924094" lon="6.475756801664829">
        <time>2022-01-25T10:09:00+00:00</time>
        <ele>2593.0</ele>
      </trkpt>
      <trkpt lat="44.77240945212543" lon="6.4757252018898726">
        <time>2022-01-25T10:09:06+00:00</time>
        <ele>2594.0</ele>
      </trkpt>
      <trkpt lat="44.77240710519254" lon="6.475678514689207">
        <time>2022-01-25T10:09:13+00:00</time>
        <ele>2595.0</ele>
      </trkpt>
      <trkpt lat="44.77241045795381" lon="6.4756586495786905">
        <time>2022-01-25T10:09:16+00:00</time>
        <ele>2595.0</ele>
      </trkpt>
      <trkpt lat="44.77241054177284" lon="6.475595701485872">
        <time>2022-01-25T10:09:25+00:00</time>
        <ele>2596.0</ele>
      </trkpt>
      <trkpt lat="44.772411631420255" lon="6.475584218278527">
        <time>2022-01-25T10:09:27+00:00</time>
        <ele>2597.0</ele>
      </trkpt>
      <trkpt lat="44.77239763364196" lon="6.475569801405072">
        <time>2022-01-25T10:09:31+00:00</time>
        <ele>2598.0</ele>
      </trkpt>
      <trkpt lat="44.772392101585865" lon="6.475553959608078">
        <time>2022-01-25T10:09:35+00:00</time>
        <ele>2598.0</ele>
      </trkpt>
      <trkpt lat="44.77238992229104" lon="6.475533926859498">
        <time>2022-01-25T10:09:39+00:00</time>
        <ele>2599.0</ele>
      </trkpt>
      <trkpt lat="44.77239872328937" lon="6.475493693724275">
        <time>2022-01-25T10:09:43+00:00</time>
        <ele>2599.0</ele>
      </trkpt>
      <trkpt lat="44.77240073494613" lon="6.475477432832122">
        <time>2022-01-25T10:09:45+00:00</time>
        <ele>2599.0</ele>
      </trkpt>
      <trkpt lat="44.77239293977618" lon="6.47543485276401">
        <time>2022-01-25T10:09:51+00:00</time>
        <ele>2600.0</ele>
      </trkpt>
      <trkpt lat="44.7723919339478" lon="6.475420016795397">
        <time>2022-01-25T10:09:53+00:00</time>
        <ele>2601.0</ele>
      </trkpt>
      <trkpt lat="44.77239679545164" lon="6.475387578830123">
        <time>2022-01-25T10:09:57+00:00</time>
        <ele>2601.0</ele>
      </trkpt>
      <trkpt lat="44.77239780128002" lon="6.47538254968822">
        <time>2022-01-25T10:09:58+00:00</time>
        <ele>2601.0</ele>
      </trkpt>
      <trkpt lat="44.7723953705281" lon="6.475378023460507">
        <time>2022-01-25T10:09:59+00:00</time>
        <ele>2601.0</ele>
      </trkpt>
      <trkpt lat="44.77239486761391" lon="6.475328654050827">
        <time>2022-01-25T10:10:05+00:00</time>
        <ele>2602.0</ele>
      </trkpt>
      <trkpt lat="44.77238841354847" lon="6.475318260490894">
        <time>2022-01-25T10:10:08+00:00</time>
        <ele>2603.0</ele>
      </trkpt>
      <trkpt lat="44.77239050902426" lon="6.475295294076204">
        <time>2022-01-25T10:10:11+00:00</time>
        <ele>2603.0</ele>
      </trkpt>
      <trkpt lat="44.77239931002259" lon="6.475237878039479">
        <time>2022-01-25T10:10:19+00:00</time>
        <ele>2604.0</ele>
      </trkpt>
      <trkpt lat="44.77240542881191" lon="6.475204601883888">
        <time>2022-01-25T10:10:22+00:00</time>
        <ele>2604.0</ele>
      </trkpt>
      <trkpt lat="44.77240358479321" lon="6.4751988183707">
        <time>2022-01-25T10:10:23+00:00</time>
        <ele>2604.0</ele>
      </trkpt>
      <trkpt lat="44.77240098640323" lon="6.475184401497245">
        <time>2022-01-25T10:10:25+00:00</time>
        <ele>2605.0</ele>
      </trkpt>
      <trkpt lat="44.77239964529872" lon="6.475169397890568">
        <time>2022-01-25T10:10:27+00:00</time>
        <ele>2605.0</ele>
      </trkpt>
      <trkpt lat="44.77239637635648" lon="6.475166128948331">
        <time>2022-01-25T10:10:28+00:00</time>
        <ele>2605.0</ele>
      </trkpt>
      <trkpt lat="44.77239369414747" lon="6.475162273272872">
        <time>2022-01-25T10:10:29+00:00</time>
        <ele>2605.0</ele>
      </trkpt>
      <trkpt lat="44.772391682490706" lon="6.475141821429133">
        <time>2022-01-25T10:10:32+00:00</time>
        <ele>2606.0</ele>
      </trkpt>
      <trkpt lat="44.77238807827234" lon="6.475123213604093">
        <time>2022-01-25T10:10:34+00:00</time>
        <ele>2607.0</ele>
      </trkpt>
      <trkpt lat="44.7723866533488" lon="6.4751185197383165">
        <time>2022-01-25T10:10:35+00:00</time>
        <ele>2607.0</ele>
      </trkpt>
      <trkpt lat="44.77238858118653" lon="6.47510745562613">
        <time>2022-01-25T10:10:37+00:00</time>
        <ele>2607.0</ele>
      </trkpt>
      <trkpt lat="44.772386234253645" lon="6.475078873336315">
        <time>2022-01-25T10:10:41+00:00</time>
        <ele>2608.0</ele>
      </trkpt>
      <trkpt lat="44.77238648571074" lon="6.475060014054179">
        <time>2022-01-25T10:10:44+00:00</time>
        <ele>2608.0</ele>
      </trkpt>
      <trkpt lat="44.772382797673345" lon="6.475035203620791">
        <time>2022-01-25T10:10:48+00:00</time>
        <ele>2609.0</ele>
      </trkpt>
      <trkpt lat="44.77238204330206" lon="6.475029084831476">
        <time>2022-01-25T10:10:49+00:00</time>
        <ele>2609.0</ele>
      </trkpt>
      <trkpt lat="44.772376427426934" lon="6.475005783140659">
        <time>2022-01-25T10:10:54+00:00</time>
        <ele>2610.0</ele>
      </trkpt>
      <trkpt lat="44.772372487932444" lon="6.47500385530293">
        <time>2022-01-25T10:10:55+00:00</time>
        <ele>2610.0</ele>
      </trkpt>
      <trkpt lat="44.77237072773278" lon="6.474995892494917">
        <time>2022-01-25T10:10:56+00:00</time>
        <ele>2610.0</ele>
      </trkpt>
      <trkpt lat="44.772364776581526" lon="6.474993880838156">
        <time>2022-01-25T10:10:57+00:00</time>
        <ele>2610.0</ele>
      </trkpt>
      <trkpt lat="44.77235438302159" lon="6.474985666573048">
        <time>2022-01-25T10:10:59+00:00</time>
        <ele>2611.0</ele>
      </trkpt>
      <trkpt lat="44.77234457619488" lon="6.474985918030143">
        <time>2022-01-25T10:11:01+00:00</time>
        <ele>2612.0</ele>
      </trkpt>
      <trkpt lat="44.77231565862894" lon="6.474981140345335">
        <time>2022-01-25T10:11:07+00:00</time>
        <ele>2613.0</ele>
      </trkpt>
      <trkpt lat="44.77231741882861" lon="6.474944427609444">
        <time>2022-01-25T10:11:13+00:00</time>
        <ele>2614.0</ele>
      </trkpt>
      <trkpt lat="44.772309958934784" lon="6.474936548620462">
        <time>2022-01-25T10:11:18+00:00</time>
        <ele>2614.0</ele>
      </trkpt>
      <trkpt lat="44.772309958934784" lon="6.474936548620462">
        <time>2022-01-25T10:11:19+00:00</time>
        <ele>2614.0</ele>
      </trkpt>
      <trkpt lat="44.772309958934784" lon="6.474936548620462">
        <time>2022-01-25T10:11:21+00:00</time>
        <ele>2614.0</ele>
      </trkpt>
      <trkpt lat="44.772309958934784" lon="6.474938979372382">
        <time>2022-01-25T10:11:25+00:00</time>
        <ele>2614.0</ele>
      </trkpt>
      <trkpt lat="44.77231230586767" lon="6.474944427609444">
        <time>2022-01-25T10:11:30+00:00</time>
        <ele>2614.0</ele>
      </trkpt>
      <trkpt lat="44.77231465280056" lon="6.474948953837156">
        <time>2022-01-25T10:11:33+00:00</time>
        <ele>2614.0</ele>
      </trkpt>
      <trkpt lat="44.77231507189572" lon="6.474948953837156">
        <time>2022-01-25T10:11:34+00:00</time>
        <ele>2614.0</ele>
      </trkpt>
      <trkpt lat="44.772320771589875" lon="6.474947780370712">
        <time>2022-01-25T10:11:39+00:00</time>
        <ele>2614.0</ele>
      </trkpt>
      <trkpt lat="44.77232890203595" lon="6.474944008514285">
        <time>2022-01-25T10:11:42+00:00</time>
        <ele>2613.0</ele>
      </trkpt>
      <trkpt lat="44.77232915349305" lon="6.474943337962031">
        <time>2022-01-25T10:11:43+00:00</time>
        <ele>2613.0</ele>
      </trkpt>
      <trkpt lat="44.77232932113111" lon="6.47494082339108">
        <time>2022-01-25T10:11:45+00:00</time>
        <ele>2613.0</ele>
      </trkpt>
      <trkpt lat="44.77232932113111" lon="6.47492665797472">
        <time>2022-01-25T10:11:49+00:00</time>
        <ele>2614.0</ele>
      </trkpt>
      <trkpt lat="44.77232932113111" lon="6.47490612231195">
        <time>2022-01-25T10:11:52+00:00</time>
        <ele>2614.0</ele>
      </trkpt>
      <trkpt lat="44.77232932113111" lon="6.474895812571049">
        <time>2022-01-25T10:11:53+00:00</time>
        <ele>2614.0</ele>
      </trkpt>
      <trkpt lat="44.77232923731208" lon="6.47486655972898">
        <time>2022-01-25T10:11:56+00:00</time>
        <ele>2615.0</ele>
      </trkpt>
      <trkpt lat="44.772325716912746" lon="6.474821800366044">
        <time>2022-01-25T10:12:02+00:00</time>
        <ele>2616.0</ele>
      </trkpt>
      <trkpt lat="44.77232496254146" lon="6.474797492846847">
        <time>2022-01-25T10:12:05+00:00</time>
        <ele>2616.0</ele>
      </trkpt>
      <trkpt lat="44.77232328616083" lon="6.474761366844177">
        <time>2022-01-25T10:12:09+00:00</time>
        <ele>2617.0</ele>
      </trkpt>
      <trkpt lat="44.77232144214213" lon="6.474735550582409">
        <time>2022-01-25T10:12:13+00:00</time>
        <ele>2617.0</ele>
      </trkpt>
      <trkpt lat="44.77232085540891" lon="6.474724570289254">
        <time>2022-01-25T10:12:14+00:00</time>
        <ele>2617.0</ele>
      </trkpt>
      <trkpt lat="44.77232043631375" lon="6.474716020748019">
        <time>2022-01-25T10:12:15+00:00</time>
        <ele>2618.0</ele>
      </trkpt>
      <trkpt lat="44.7723195143044" lon="6.474696407094598">
        <time>2022-01-25T10:12:19+00:00</time>
        <ele>2618.0</ele>
      </trkpt>
      <trkpt lat="44.772319262847304" lon="6.474682493135333">
        <time>2022-01-25T10:12:21+00:00</time>
        <ele>2618.0</ele>
      </trkpt>
      <trkpt lat="44.77231917902827" lon="6.474673775956035">
        <time>2022-01-25T10:12:22+00:00</time>
        <ele>2618.0</ele>
      </trkpt>
      <trkpt lat="44.772318340837955" lon="6.474627424031496">
        <time>2022-01-25T10:12:28+00:00</time>
        <ele>2619.0</ele>
      </trkpt>
      <trkpt lat="44.772316915914416" lon="6.474569253623486">
        <time>2022-01-25T10:12:35+00:00</time>
        <ele>2620.0</ele>
      </trkpt>
      <trkpt lat="44.77231021039188" lon="6.474518124014139">
        <time>2022-01-25T10:12:43+00:00</time>
        <ele>2621.0</ele>
      </trkpt>
      <trkpt lat="44.77230643853545" lon="6.4744894579052925">
        <time>2022-01-25T10:12:47+00:00</time>
        <ele>2622.0</ele>
      </trkpt>
      <trkpt lat="44.77229990065098" lon="6.474445452913642">
        <time>2022-01-25T10:12:53+00:00</time>
        <ele>2623.0</ele>
      </trkpt>
      <trkpt lat="44.772292859852314" lon="6.474421229213476">
        <time>2022-01-25T10:12:57+00:00</time>
        <ele>2624.0</ele>
      </trkpt>
      <trkpt lat="44.772289423272014" lon="6.474399520084262">
        <time>2022-01-25T10:13:00+00:00</time>
        <ele>2624.0</ele>
      </trkpt>
      <trkpt lat="44.7722848970443" lon="6.474381582811475">
        <time>2022-01-25T10:13:03+00:00</time>
        <ele>2625.0</ele>
      </trkpt>
      <trkpt lat="44.77227374911308" lon="6.474340679123998">
        <time>2022-01-25T10:13:12+00:00</time>
        <ele>2626.0</ele>
      </trkpt>
      <trkpt lat="44.77227307856083" lon="6.474330369383097">
        <time>2022-01-25T10:13:14+00:00</time>
        <ele>2627.0</ele>
      </trkpt>
      <trkpt lat="44.772272324189544" lon="6.474294327199459">
        <time>2022-01-25T10:13:19+00:00</time>
        <ele>2627.0</ele>
      </trkpt>
      <trkpt lat="44.77227215655148" lon="6.4742611348629">
        <time>2022-01-25T10:13:24+00:00</time>
        <ele>2628.0</ele>
      </trkpt>
      <trkpt lat="44.77227215655148" lon="6.474255938082933">
        <time>2022-01-25T10:13:25+00:00</time>
        <ele>2628.0</ele>
      </trkpt>
      <trkpt lat="44.77227224037051" lon="6.474246298894286">
        <time>2022-01-25T10:13:27+00:00</time>
        <ele>2628.0</ele>
      </trkpt>
      <trkpt lat="44.77227249182761" lon="6.474225511774421">
        <time>2022-01-25T10:13:31+00:00</time>
        <ele>2629.0</ele>
      </trkpt>
      <trkpt lat="44.77227257564664" lon="6.47420204244554">
        <time>2022-01-25T10:13:35+00:00</time>
        <ele>2629.0</ele>
      </trkpt>
      <trkpt lat="44.77227224037051" lon="6.474181087687612">
        <time>2022-01-25T10:13:39+00:00</time>
        <ele>2630.0</ele>
      </trkpt>
      <trkpt lat="44.77227215655148" lon="6.47416926920414">
        <time>2022-01-25T10:13:41+00:00</time>
        <ele>2630.0</ele>
      </trkpt>
      <trkpt lat="44.77227064780891" lon="6.474126102402806">
        <time>2022-01-25T10:13:47+00:00</time>
        <ele>2631.0</ele>
      </trkpt>
      <trkpt lat="44.7722695581615" lon="6.474106824025512">
        <time>2022-01-25T10:13:50+00:00</time>
        <ele>2632.0</ele>
      </trkpt>
      <trkpt lat="44.77226838469505" lon="6.474086120724678">
        <time>2022-01-25T10:13:53+00:00</time>
        <ele>2632.0</ele>
      </trkpt>
      <trkpt lat="44.77226721122861" lon="6.4740736316889524">
        <time>2022-01-25T10:13:55+00:00</time>
        <ele>2632.0</ele>
      </trkpt>
      <trkpt lat="44.77226528339088" lon="6.47405150346458">
        <time>2022-01-25T10:13:59+00:00</time>
        <ele>2633.0</ele>
      </trkpt>
      <trkpt lat="44.77226444520056" lon="6.4740382600575686">
        <time>2022-01-25T10:14:02+00:00</time>
        <ele>2633.0</ele>
      </trkpt>
      <trkpt lat="44.77226134389639" lon="6.474008001387119">
        <time>2022-01-25T10:14:09+00:00</time>
        <ele>2634.0</ele>
      </trkpt>
      <trkpt lat="44.7722571529448" lon="6.473984699696302">
        <time>2022-01-25T10:14:15+00:00</time>
        <ele>2635.0</ele>
      </trkpt>
      <trkpt lat="44.772255728021264" lon="6.4739734679460526">
        <time>2022-01-25T10:14:18+00:00</time>
        <ele>2635.0</ele>
      </trkpt>
      <trkpt lat="44.772253800183535" lon="6.473952848464251">
        <time>2022-01-25T10:14:24+00:00</time>
        <ele>2636.0</ele>
      </trkpt>
      <trkpt lat="44.77225296199322" lon="6.473943376913667">
        <time>2022-01-25T10:14:28+00:00</time>
        <ele>2636.0</ele>
      </trkpt>
      <trkpt lat="44.77225162088871" lon="6.473929127678275">
        <time>2022-01-25T10:14:37+00:00</time>
        <ele>2636.0</ele>
      </trkpt>
      <trkpt lat="44.77225162088871" lon="6.473928960040212">
        <time>2022-01-25T10:14:38+00:00</time>
        <ele>2636.0</ele>
      </trkpt>
      <trkpt lat="44.77225162088871" lon="6.4739281218498945">
        <time>2022-01-25T10:14:43+00:00</time>
        <ele>2636.0</ele>
      </trkpt>
      <trkpt lat="44.77225153706968" lon="6.473927199840546">
        <time>2022-01-25T10:14:47+00:00</time>
        <ele>2636.0</ele>
      </trkpt>
      <trkpt lat="44.77225145325065" lon="6.4739263616502285">
        <time>2022-01-25T10:14:50+00:00</time>
        <ele>2636.0</ele>
      </trkpt>
      <trkpt lat="44.77225145325065" lon="6.4739251881837845">
        <time>2022-01-25T10:14:54+00:00</time>
        <ele>2636.0</ele>
      </trkpt>
      <trkpt lat="44.772251369431615" lon="6.473923847079277">
        <time>2022-01-25T10:14:58+00:00</time>
        <ele>2636.0</ele>
      </trkpt>
      <trkpt lat="44.77225128561258" lon="6.473921583965421">
        <time>2022-01-25T10:15:04+00:00</time>
        <ele>2637.0</ele>
      </trkpt>
      <trkpt lat="44.77225128561258" lon="6.473921164870262">
        <time>2022-01-25T10:15:05+00:00</time>
        <ele>2637.0</ele>
      </trkpt>
      <trkpt lat="44.77223955094814" lon="6.473900796845555">
        <time>2022-01-25T10:15:15+00:00</time>
        <ele>2638.0</ele>
      </trkpt>
      <trkpt lat="44.7721569892019" lon="6.473824689164758">
        <time>2022-01-25T10:15:20+00:00</time>
        <ele>2643.0</ele>
      </trkpt>
      <trkpt lat="44.77212664671242" lon="6.473792251199484">
        <time>2022-01-25T10:15:22+00:00</time>
        <ele>2645.0</ele>
      </trkpt>
      <trkpt lat="44.77209521457553" lon="6.473764255642891">
        <time>2022-01-25T10:15:25+00:00</time>
        <ele>2647.0</ele>
      </trkpt>
      <trkpt lat="44.77208063006401" lon="6.4737743977457285">
        <time>2022-01-25T10:15:28+00:00</time>
        <ele>2648.0</ele>
      </trkpt>
      <trkpt lat="44.77207099087536" lon="6.473783114925027">
        <time>2022-01-25T10:15:30+00:00</time>
        <ele>2648.0</ele>
      </trkpt>
      <trkpt lat="44.77203905582428" lon="6.473815804347396">
        <time>2022-01-25T10:15:36+00:00</time>
        <ele>2649.0</ele>
      </trkpt>
      <trkpt lat="44.77201416157186" lon="6.4738329872488976">
        <time>2022-01-25T10:15:41+00:00</time>
        <ele>2650.0</ele>
      </trkpt>
      <trkpt lat="44.77200795896351" lon="6.473837345838547">
        <time>2022-01-25T10:15:42+00:00</time>
        <ele>2650.0</ele>
      </trkpt>
      <trkpt lat="44.771968396380544" lon="6.47385654039681">
        <time>2022-01-25T10:15:51+00:00</time>
        <ele>2651.0</ele>
      </trkpt>
      <trkpt lat="44.77194920182228" lon="6.473874896764755">
        <time>2022-01-25T10:15:56+00:00</time>
        <ele>2652.0</ele>
      </trkpt>
      <trkpt lat="44.77192464284599" lon="6.473900126293302">
        <time>2022-01-25T10:16:04+00:00</time>
        <ele>2653.0</ele>
      </trkpt>
      <trkpt lat="44.7719119861722" lon="6.473912447690964">
        <time>2022-01-25T10:16:07+00:00</time>
        <ele>2653.0</ele>
      </trkpt>
      <trkpt lat="44.771906370297074" lon="6.473917560651898">
        <time>2022-01-25T10:16:09+00:00</time>
        <ele>2653.0</ele>
      </trkpt>
      <trkpt lat="44.771885918453336" lon="6.473923176527023">
        <time>2022-01-25T10:16:13+00:00</time>
        <ele>2654.0</ele>
      </trkpt>
      <trkpt lat="44.771877033635974" lon="6.473931223154068">
        <time>2022-01-25T10:16:15+00:00</time>
        <ele>2654.0</ele>
      </trkpt>
      <trkpt lat="44.771862868219614" lon="6.473941616714001">
        <time>2022-01-25T10:16:18+00:00</time>
        <ele>2655.0</ele>
      </trkpt>
      <trkpt lat="44.771848283708096" lon="6.473949998617172">
        <time>2022-01-25T10:16:21+00:00</time>
        <ele>2655.0</ele>
      </trkpt>
      <trkpt lat="44.77183470502496" lon="6.473959889262915">
        <time>2022-01-25T10:16:25+00:00</time>
        <ele>2656.0</ele>
      </trkpt>
      <trkpt lat="44.77182749658823" lon="6.473963493481278">
        <time>2022-01-25T10:16:26+00:00</time>
        <ele>2656.0</ele>
      </trkpt>
      <trkpt lat="44.77180109359324" lon="6.473970199003816">
        <time>2022-01-25T10:16:33+00:00</time>
        <ele>2658.0</ele>
      </trkpt>
      <trkpt lat="44.771796986460686" lon="6.473973551765084">
        <time>2022-01-25T10:16:34+00:00</time>
        <ele>2658.0</ele>
      </trkpt>
      <trkpt lat="44.77177955210209" lon="6.473988387733698">
        <time>2022-01-25T10:16:40+00:00</time>
        <ele>2659.0</ele>
      </trkpt>
      <trkpt lat="44.7717618662864" lon="6.473999451845884">
        <time>2022-01-25T10:16:45+00:00</time>
        <ele>2660.0</ele>
      </trkpt>
      <trkpt lat="44.77175767533481" lon="6.474001882597804">
        <time>2022-01-25T10:16:46+00:00</time>
        <ele>2660.0</ele>
      </trkpt>
      <trkpt lat="44.771742755547166" lon="6.474009593948722">
        <time>2022-01-25T10:16:49+00:00</time>
        <ele>2661.0</ele>
      </trkpt>
      <trkpt lat="44.77173521183431" lon="6.4740129467099905">
        <time>2022-01-25T10:16:51+00:00</time>
        <ele>2661.0</ele>
      </trkpt>
      <trkpt lat="44.77172783575952" lon="6.47401730529964">
        <time>2022-01-25T10:16:53+00:00</time>
        <ele>2662.0</ele>
      </trkpt>
      <trkpt lat="44.77172423154116" lon="6.47402124479413">
        <time>2022-01-25T10:16:54+00:00</time>
        <ele>2662.0</ele>
      </trkpt>
      <trkpt lat="44.77170872502029" lon="6.474028872326016">
        <time>2022-01-25T10:16:58+00:00</time>
        <ele>2663.0</ele>
      </trkpt>
      <trkpt lat="44.77169506251812" lon="6.474038679152727">
        <time>2022-01-25T10:17:02+00:00</time>
        <ele>2663.0</ele>
      </trkpt>
      <trkpt lat="44.771684082224965" lon="6.474045468494296">
        <time>2022-01-25T10:17:05+00:00</time>
        <ele>2664.0</ele>
      </trkpt>
      <trkpt lat="44.771670335903764" lon="6.4740577060729265">
        <time>2022-01-25T10:17:09+00:00</time>
        <ele>2665.0</ele>
      </trkpt>
      <trkpt lat="44.77166756987572" lon="6.4740627352148294">
        <time>2022-01-25T10:17:10+00:00</time>
        <ele>2665.0</ele>
      </trkpt>
      <trkpt lat="44.77165197953582" lon="6.474083354696631">
        <time>2022-01-25T10:17:14+00:00</time>
        <ele>2666.0</ele>
      </trkpt>
      <trkpt lat="44.7716426756233" lon="6.474093329161406">
        <time>2022-01-25T10:17:16+00:00</time>
        <ele>2666.0</ele>
      </trkpt>
      <trkpt lat="44.77161384187639" lon="6.47412040270865">
        <time>2022-01-25T10:17:23+00:00</time>
        <ele>2668.0</ele>
      </trkpt>
      <trkpt lat="44.771608393639326" lon="6.474128449335694">
        <time>2022-01-25T10:17:24+00:00</time>
        <ele>2668.0</ele>
      </trkpt>
      <trkpt lat="44.77156849578023" lon="6.474162144586444">
        <time>2022-01-25T10:17:32+00:00</time>
        <ele>2671.0</ele>
      </trkpt>
      <trkpt lat="44.771560952067375" lon="6.474166167899966">
        <time>2022-01-25T10:17:33+00:00</time>
        <ele>2671.0</ele>
      </trkpt>
      <trkpt lat="44.77152264676988" lon="6.474203551188111">
        <time>2022-01-25T10:17:40+00:00</time>
        <ele>2673.0</ele>
      </trkpt>
      <trkpt lat="44.77150043472648" lon="6.474229535087943">
        <time>2022-01-25T10:17:46+00:00</time>
        <ele>2675.0</ele>
      </trkpt>
      <trkpt lat="44.771502781659365" lon="6.47422936744988">
        <time>2022-01-25T10:17:47+00:00</time>
        <ele>2675.0</ele>
      </trkpt>
      <trkpt lat="44.77149976417422" lon="6.4742382522672415">
        <time>2022-01-25T10:17:49+00:00</time>
        <ele>2675.0</ele>
      </trkpt>
      <trkpt lat="44.77149507030845" lon="6.4742423593997955">
        <time>2022-01-25T10:17:53+00:00</time>
        <ele>2675.0</ele>
      </trkpt>
      <trkpt lat="44.7714629676193" lon="6.474266750738025">
        <time>2022-01-25T10:18:02+00:00</time>
        <ele>2677.0</ele>
      </trkpt>
      <trkpt lat="44.77145760320127" lon="6.474287789314985">
        <time>2022-01-25T10:18:07+00:00</time>
        <ele>2677.0</ele>
      </trkpt>
      <trkpt lat="44.77145751938224" lon="6.474289633333683">
        <time>2022-01-25T10:18:08+00:00</time>
        <ele>2677.0</ele>
      </trkpt>
      <trkpt lat="44.771445197984576" lon="6.474315617233515">
        <time>2022-01-25T10:18:13+00:00</time>
        <ele>2677.0</ele>
      </trkpt>
      <trkpt lat="44.77144033648074" lon="6.474320730194449">
        <time>2022-01-25T10:18:15+00:00</time>
        <ele>2678.0</ele>
      </trkpt>
      <trkpt lat="44.77142482995987" lon="6.474341517314315">
        <time>2022-01-25T10:18:20+00:00</time>
        <ele>2678.0</ele>
      </trkpt>
      <trkpt lat="44.77140840142965" lon="6.47436230443418">
        <time>2022-01-25T10:18:24+00:00</time>
        <ele>2679.0</ele>
      </trkpt>
      <trkpt lat="44.77137847803533" lon="6.474395161494613">
        <time>2022-01-25T10:18:32+00:00</time>
        <ele>2680.0</ele>
      </trkpt>
      <trkpt lat="44.77137856185436" lon="6.474410584196448">
        <time>2022-01-25T10:18:35+00:00</time>
        <ele>2680.0</ele>
      </trkpt>
      <trkpt lat="44.77137906476855" lon="6.474412428215146">
        <time>2022-01-25T10:18:36+00:00</time>
        <ele>2680.0</ele>
      </trkpt>
      <trkpt lat="44.77137437090278" lon="6.474416619166732">
        <time>2022-01-25T10:18:39+00:00</time>
        <ele>2680.0</ele>
      </trkpt>
      <trkpt lat="44.771367413923144" lon="6.474426342174411">
        <time>2022-01-25T10:18:44+00:00</time>
        <ele>2680.0</ele>
      </trkpt>
      <trkpt lat="44.771371856331825" lon="6.474435394629836">
        <time>2022-01-25T10:18:46+00:00</time>
        <ele>2680.0</ele>
      </trkpt>
      <trkpt lat="44.77137420326471" lon="6.474429192021489">
        <time>2022-01-25T10:18:48+00:00</time>
        <ele>2680.0</ele>
      </trkpt>
      <trkpt lat="44.77136976085603" lon="6.474434472620487">
        <time>2022-01-25T10:18:58+00:00</time>
        <ele>2680.0</ele>
      </trkpt>
      <trkpt lat="44.77136976085603" lon="6.474434472620487">
        <time>2022-01-25T10:19:02+00:00</time>
        <ele>2680.0</ele>
      </trkpt>
      <trkpt lat="44.77136976085603" lon="6.474432377144694">
        <time>2022-01-25T10:19:04+00:00</time>
        <ele>2680.0</ele>
      </trkpt>
      <trkpt lat="44.771367497742176" lon="6.474429778754711">
        <time>2022-01-25T10:19:08+00:00</time>
        <ele>2680.0</ele>
      </trkpt>
      <trkpt lat="44.77136045694351" lon="6.474429527297616">
        <time>2022-01-25T10:19:09+00:00</time>
        <ele>2681.0</ele>
      </trkpt>
      <trkpt lat="44.77135073393583" lon="6.474427180364728">
        <time>2022-01-25T10:19:12+00:00</time>
        <ele>2681.0</ele>
      </trkpt>
      <trkpt lat="44.771347381174564" lon="6.474403794854879">
        <time>2022-01-25T10:19:17+00:00</time>
        <ele>2682.0</ele>
      </trkpt>
      <trkpt lat="44.77134360931814" lon="6.474389377981424">
        <time>2022-01-25T10:19:19+00:00</time>
        <ele>2683.0</ele>
      </trkpt>
      <trkpt lat="44.77133438922465" lon="6.474379487335682">
        <time>2022-01-25T10:19:21+00:00</time>
        <ele>2683.0</ele>
      </trkpt>
      <trkpt lat="44.77132718078792" lon="6.474311426281929">
        <time>2022-01-25T10:19:29+00:00</time>
        <ele>2685.0</ele>
      </trkpt>
      <trkpt lat="44.77132609114051" lon="6.47427580319345">
        <time>2022-01-25T10:19:35+00:00</time>
        <ele>2685.0</ele>
      </trkpt>
      <trkpt lat="44.77132466621697" lon="6.474224170669913">
        <time>2022-01-25T10:19:43+00:00</time>
        <ele>2686.0</ele>
      </trkpt>
      <trkpt lat="44.77132424712181" lon="6.474218890070915">
        <time>2022-01-25T10:19:44+00:00</time>
        <ele>2686.0</ele>
      </trkpt>
      <trkpt lat="44.77131301537156" lon="6.474197097122669">
        <time>2022-01-25T10:19:51+00:00</time>
        <ele>2687.0</ele>
      </trkpt>
      <trkpt lat="44.77131016552448" lon="6.474193325266242">
        <time>2022-01-25T10:19:52+00:00</time>
        <ele>2687.0</ele>
      </trkpt>
      <trkpt lat="44.771308321505785" lon="6.474181758239865">
        <time>2022-01-25T10:19:55+00:00</time>
        <ele>2688.0</ele>
      </trkpt>
      <trkpt lat="44.771307902410626" lon="6.474174214527011">
        <time>2022-01-25T10:19:56+00:00</time>
        <ele>2688.0</ele>
      </trkpt>
      <trkpt lat="44.77130480110645" lon="6.474143452942371">
        <time>2022-01-25T10:19:59+00:00</time>
        <ele>2688.0</ele>
      </trkpt>
      <trkpt lat="44.77129834704101" lon="6.474104896187782">
        <time>2022-01-25T10:20:04+00:00</time>
        <ele>2689.0</ele>
      </trkpt>
      <trkpt lat="44.77129583247006" lon="6.474091233685613">
        <time>2022-01-25T10:20:06+00:00</time>
        <ele>2689.0</ele>
      </trkpt>
      <trkpt lat="44.77129440754652" lon="6.4740886352956295">
        <time>2022-01-25T10:20:07+00:00</time>
        <ele>2689.0</ele>
      </trkpt>
      <trkpt lat="44.77128895930946" lon="6.474074050784111">
        <time>2022-01-25T10:20:10+00:00</time>
        <ele>2690.0</ele>
      </trkpt>
      <trkpt lat="44.77126884274185" lon="6.474044546484947">
        <time>2022-01-25T10:20:15+00:00</time>
        <ele>2691.0</ele>
      </trkpt>
      <trkpt lat="44.77123523131013" lon="6.474003894254565">
        <time>2022-01-25T10:20:22+00:00</time>
        <ele>2693.0</ele>
      </trkpt>
      <trkpt lat="44.7712177131325" lon="6.473952680826187">
        <time>2022-01-25T10:20:30+00:00</time>
        <ele>2695.0</ele>
      </trkpt>
      <trkpt lat="44.77121469564736" lon="6.473947148770094">
        <time>2022-01-25T10:20:31+00:00</time>
        <ele>2695.0</ele>
      </trkpt>
      <trkpt lat="44.7712021227926" lon="6.473915716633201">
        <time>2022-01-25T10:20:36+00:00</time>
        <ele>2696.0</ele>
      </trkpt>
      <trkpt lat="44.77120103314519" lon="6.473862659186125">
        <time>2022-01-25T10:20:43+00:00</time>
        <ele>2696.0</ele>
      </trkpt>
      <trkpt lat="44.77120103314519" lon="6.473833238705993">
        <time>2022-01-25T10:20:47+00:00</time>
        <ele>2696.0</ele>
      </trkpt>
      <trkpt lat="44.77120103314519" lon="6.473828377202153">
        <time>2022-01-25T10:20:48+00:00</time>
        <ele>2696.0</ele>
      </trkpt>
      <trkpt lat="44.77120220661163" lon="6.4737841207534075">
        <time>2022-01-25T10:20:55+00:00</time>
        <ele>2697.0</ele>
      </trkpt>
      <trkpt lat="44.771202290430665" lon="6.473778672516346">
        <time>2022-01-25T10:20:56+00:00</time>
        <ele>2697.0</ele>
      </trkpt>
      <trkpt lat="44.771202290430665" lon="6.473754784092307">
        <time>2022-01-25T10:21:00+00:00</time>
        <ele>2697.0</ele>
      </trkpt>
      <trkpt lat="44.771202290430665" lon="6.4737393613904715">
        <time>2022-01-25T10:21:03+00:00</time>
        <ele>2697.0</ele>
      </trkpt>
      <trkpt lat="44.771202290430665" lon="6.47373391315341">
        <time>2022-01-25T10:21:04+00:00</time>
        <ele>2697.0</ele>
      </trkpt>
      <trkpt lat="44.77119768038392" lon="6.47369971498847">
        <time>2022-01-25T10:21:09+00:00</time>
        <ele>2698.0</ele>
      </trkpt>
      <trkpt lat="44.77119776420295" lon="6.4736465737223625">
        <time>2022-01-25T10:21:12+00:00</time>
        <ele>2699.0</ele>
      </trkpt>
      <trkpt lat="44.771199859678745" lon="6.473628636449575">
        <time>2022-01-25T10:21:13+00:00</time>
        <ele>2699.0</ele>
      </trkpt>
      <trkpt lat="44.77120824158192" lon="6.4735358487814665">
        <time>2022-01-25T10:21:20+00:00</time>
        <ele>2700.0</ele>
      </trkpt>
      <trkpt lat="44.77121125906706" lon="6.473533920943737">
        <time>2022-01-25T10:21:21+00:00</time>
        <ele>2700.0</ele>
      </trkpt>
      <trkpt lat="44.771212013438344" lon="6.473532998934388">
        <time>2022-01-25T10:21:34+00:00</time>
        <ele>2700.0</ele>
      </trkpt>
      <trkpt lat="44.771212013438344" lon="6.473529562354088">
        <time>2022-01-25T10:21:39+00:00</time>
        <ele>2700.0</ele>
      </trkpt>
      <trkpt lat="44.77121125906706" lon="6.473527131602168">
        <time>2022-01-25T10:21:48+00:00</time>
        <ele>2700.0</ele>
      </trkpt>
      <trkpt lat="44.77121075615287" lon="6.473527131602168">
        <time>2022-01-25T10:21:51+00:00</time>
        <ele>2700.0</ele>
      </trkpt>
      <trkpt lat="44.77120405063033" lon="6.473527131602168">
        <time>2022-01-25T10:21:54+00:00</time>
        <ele>2701.0</ele>
      </trkpt>
      <trkpt lat="44.77120111696422" lon="6.473530735820532">
        <time>2022-01-25T10:21:56+00:00</time>
        <ele>2701.0</ele>
      </trkpt>
      <trkpt lat="44.771170523017645" lon="6.47357122041285">
        <time>2022-01-25T10:22:04+00:00</time>
        <ele>2702.0</ele>
      </trkpt>
      <trkpt lat="44.77114680223167" lon="6.473600137978792">
        <time>2022-01-25T10:22:11+00:00</time>
        <ele>2703.0</ele>
      </trkpt>
      <trkpt lat="44.771137330681086" lon="6.4736097771674395">
        <time>2022-01-25T10:22:13+00:00</time>
        <ele>2703.0</ele>
      </trkpt>
      <trkpt lat="44.77112685330212" lon="6.473624026402831">
        <time>2022-01-25T10:22:17+00:00</time>
        <ele>2704.0</ele>
      </trkpt>
      <trkpt lat="44.77112048305571" lon="6.473628720268607">
        <time>2022-01-25T10:22:22+00:00</time>
        <ele>2704.0</ele>
      </trkpt>
      <trkpt lat="44.77111956104636" lon="6.473629307001829">
        <time>2022-01-25T10:22:23+00:00</time>
        <ele>2704.0</ele>
      </trkpt>
      <trkpt lat="44.771119225770235" lon="6.473629642277956">
        <time>2022-01-25T10:22:24+00:00</time>
        <ele>2704.0</ele>
      </trkpt>
      <trkpt lat="44.7710691858083" lon="6.47366258315742">
        <time>2022-01-25T10:22:41+00:00</time>
        <ele>2707.0</ele>
      </trkpt>
      <trkpt lat="44.77104018442333" lon="6.473685968667269">
        <time>2022-01-25T10:22:53+00:00</time>
        <ele>2709.0</ele>
      </trkpt>
      <trkpt lat="44.77101981639862" lon="6.4736987091600895">
        <time>2022-01-25T10:22:58+00:00</time>
        <ele>2710.0</ele>
      </trkpt>
      <trkpt lat="44.77101109921932" lon="6.473702900111675">
        <time>2022-01-25T10:23:04+00:00</time>
        <ele>2711.0</ele>
      </trkpt>
      <trkpt lat="44.770994670689106" lon="6.473732320591807">
        <time>2022-01-25T10:23:10+00:00</time>
        <ele>2712.0</ele>
      </trkpt>
      <trkpt lat="44.77097321301699" lon="6.473768530413508">
        <time>2022-01-25T10:23:16+00:00</time>
        <ele>2713.0</ele>
      </trkpt>
      <trkpt lat="44.77094362489879" lon="6.473808092996478">
        <time>2022-01-25T10:23:23+00:00</time>
        <ele>2715.0</ele>
      </trkpt>
      <trkpt lat="44.77091227658093" lon="6.473827455192804">
        <time>2022-01-25T10:23:28+00:00</time>
        <ele>2717.0</ele>
      </trkpt>
      <trkpt lat="44.77089651860297" lon="6.473841201514006">
        <time>2022-01-25T10:23:39+00:00</time>
        <ele>2718.0</ele>
      </trkpt>
      <trkpt lat="44.77088671177626" lon="6.473846649751067">
        <time>2022-01-25T10:23:47+00:00</time>
        <ele>2718.0</ele>
      </trkpt>
      <trkpt lat="44.77088394574821" lon="6.473850505426526">
        <time>2022-01-25T10:23:55+00:00</time>
        <ele>2719.0</ele>
      </trkpt>
      <trkpt lat="44.77088344283402" lon="6.473857630044222">
        <time>2022-01-25T10:24:04+00:00</time>
        <ele>2719.0</ele>
      </trkpt>
      <trkpt lat="44.77088335901499" lon="6.473858132958412">
        <time>2022-01-25T10:24:05+00:00</time>
        <ele>2719.0</ele>
      </trkpt>
      <trkpt lat="44.770883191376925" lon="6.47385947406292">
        <time>2022-01-25T10:24:09+00:00</time>
        <ele>2719.0</ele>
      </trkpt>
      <trkpt lat="44.77088210172951" lon="6.473860731348395">
        <time>2022-01-25T10:24:15+00:00</time>
        <ele>2719.0</ele>
      </trkpt>
      <trkpt lat="44.77088151499629" lon="6.4738627430051565">
        <time>2022-01-25T10:24:18+00:00</time>
        <ele>2719.0</ele>
      </trkpt>
      <trkpt lat="44.770879838615656" lon="6.473864335566759">
        <time>2022-01-25T10:24:19+00:00</time>
        <ele>2719.0</ele>
      </trkpt>
      <trkpt lat="44.770865589380264" lon="6.473882524296641">
        <time>2022-01-25T10:24:27+00:00</time>
        <ele>2720.0</ele>
      </trkpt>
      <trkpt lat="44.770849077031016" lon="6.473900713026524">
        <time>2022-01-25T10:24:38+00:00</time>
        <ele>2721.0</ele>
      </trkpt>
      <trkpt lat="44.770846394822" lon="6.473903143778443">
        <time>2022-01-25T10:24:41+00:00</time>
        <ele>2721.0</ele>
      </trkpt>
      <trkpt lat="44.770845640450716" lon="6.473903730511665">
        <time>2022-01-25T10:24:45+00:00</time>
        <ele>2721.0</ele>
      </trkpt>
      <trkpt lat="44.770845137536526" lon="6.473904065787792">
        <time>2022-01-25T10:24:49+00:00</time>
        <ele>2721.0</ele>
      </trkpt>
      <trkpt lat="44.77084421552718" lon="6.4739045687019825">
        <time>2022-01-25T10:24:56+00:00</time>
        <ele>2721.0</ele>
      </trkpt>
      <trkpt lat="44.77084329351783" lon="6.473904652521014">
        <time>2022-01-25T10:25:03+00:00</time>
        <ele>2721.0</ele>
      </trkpt>
      <trkpt lat="44.77084245532751" lon="6.473904233425856">
        <time>2022-01-25T10:25:09+00:00</time>
        <ele>2721.0</ele>
      </trkpt>
      <trkpt lat="44.770842203870416" lon="6.4739039819687605">
        <time>2022-01-25T10:25:11+00:00</time>
        <ele>2721.0</ele>
      </trkpt>
      <trkpt lat="44.77084128186107" lon="6.473902892321348">
        <time>2022-01-25T10:25:18+00:00</time>
        <ele>2721.0</ele>
      </trkpt>
      <trkpt lat="44.77084035985172" lon="6.473901718854904">
        <time>2022-01-25T10:25:24+00:00</time>
        <ele>2721.0</ele>
      </trkpt>
      <trkpt lat="44.77083910256624" lon="6.47389953956008">
        <time>2022-01-25T10:25:32+00:00</time>
        <ele>2721.0</ele>
      </trkpt>
      <trkpt lat="44.77083818055689" lon="6.473897444084287">
        <time>2022-01-25T10:25:38+00:00</time>
        <ele>2722.0</ele>
      </trkpt>
      <trkpt lat="44.77083784528077" lon="6.4738966058939695">
        <time>2022-01-25T10:25:40+00:00</time>
        <ele>2722.0</ele>
      </trkpt>
      <trkpt lat="44.77083642035723" lon="6.47389224730432">
        <time>2022-01-25T10:25:49+00:00</time>
        <ele>2722.0</ele>
      </trkpt>
      <trkpt lat="44.77083524689078" lon="6.473888475447893">
        <time>2022-01-25T10:25:56+00:00</time>
        <ele>2722.0</ele>
      </trkpt>
      <trkpt lat="44.770833402872086" lon="6.4738829433918">
        <time>2022-01-25T10:26:05+00:00</time>
        <ele>2722.0</ele>
      </trkpt>
      <trkpt lat="44.77083130739629" lon="6.473875902593136">
        <time>2022-01-25T10:26:15+00:00</time>
        <ele>2722.0</ele>
      </trkpt>
      <trkpt lat="44.77082954719663" lon="6.4738695323467255">
        <time>2022-01-25T10:26:23+00:00</time>
        <ele>2722.0</ele>
      </trkpt>
      <trkpt lat="44.77082669734955" lon="6.473857965320349">
        <time>2022-01-25T10:26:36+00:00</time>
        <ele>2723.0</ele>
      </trkpt>
      <trkpt lat="44.7708241827786" lon="6.473847236484289">
        <time>2022-01-25T10:26:47+00:00</time>
        <ele>2723.0</ele>
      </trkpt>
      <trkpt lat="44.770822590216994" lon="6.473840028047562">
        <time>2022-01-25T10:26:54+00:00</time>
        <ele>2723.0</ele>
      </trkpt>
      <trkpt lat="44.77082032710314" lon="6.473829299211502">
        <time>2022-01-25T10:27:04+00:00</time>
        <ele>2723.0</ele>
      </trkpt>
      <trkpt lat="44.77075603790581" lon="6.473476085811853">
        <time>2022-01-25T10:27:11+00:00</time>
        <ele>2734.0</ele>
      </trkpt>
      <trkpt lat="44.77073675952852" lon="6.473385980352759">
        <time>2022-01-25T10:27:12+00:00</time>
        <ele>2737.0</ele>
      </trkpt>
      <trkpt lat="44.77072351612151" lon="6.473300317302346">
        <time>2022-01-25T10:27:13+00:00</time>
        <ele>2739.0</ele>
      </trkpt>
      <trkpt lat="44.770680852234364" lon="6.472951294854283">
        <time>2022-01-25T10:27:17+00:00</time>
        <ele>2748.0</ele>
      </trkpt>
      <trkpt lat="44.770691161975265" lon="6.472936710342765">
        <time>2022-01-25T10:27:20+00:00</time>
        <ele>2747.0</ele>
      </trkpt>
      <trkpt lat="44.770735586062074" lon="6.472907792776823">
        <time>2022-01-25T10:27:27+00:00</time>
        <ele>2745.0</ele>
      </trkpt>
      <trkpt lat="44.7707340773195" lon="6.472889268770814">
        <time>2022-01-25T10:27:29+00:00</time>
        <ele>2745.0</ele>
      </trkpt>
      <trkpt lat="44.77073969319463" lon="6.472872672602534">
        <time>2022-01-25T10:27:32+00:00</time>
        <ele>2745.0</ele>
      </trkpt>
      <trkpt lat="44.770733742043376" lon="6.472860770300031">
        <time>2022-01-25T10:27:34+00:00</time>
        <ele>2746.0</ele>
      </trkpt>
      <trkpt lat="44.77073885500431" lon="6.472821207717061">
        <time>2022-01-25T10:27:38+00:00</time>
        <ele>2746.0</ele>
      </trkpt>
      <trkpt lat="44.77075209841132" lon="6.472814502194524">
        <time>2022-01-25T10:27:40+00:00</time>
        <ele>2745.0</ele>
      </trkpt>
      <trkpt lat="44.770769784227014" lon="6.472770832479">
        <time>2022-01-25T10:27:46+00:00</time>
        <ele>2745.0</ele>
      </trkpt>
      <trkpt lat="44.77077296935022" lon="6.472765887156129">
        <time>2022-01-25T10:27:47+00:00</time>
        <ele>2745.0</ele>
      </trkpt>
      <trkpt lat="44.77080029435456" lon="6.472730850800872">
        <time>2022-01-25T10:27:54+00:00</time>
        <ele>2745.0</ele>
      </trkpt>
      <trkpt lat="44.77080565877259" lon="6.472725570201874">
        <time>2022-01-25T10:27:55+00:00</time>
        <ele>2744.0</ele>
      </trkpt>
      <trkpt lat="44.77082141675055" lon="6.472697993740439">
        <time>2022-01-25T10:28:01+00:00</time>
        <ele>2745.0</ele>
      </trkpt>
      <trkpt lat="44.77083072066307" lon="6.472699670121074">
        <time>2022-01-25T10:28:04+00:00</time>
        <ele>2744.0</ele>
      </trkpt>
      <trkpt lat="44.77082778699696" lon="6.472705956548452">
        <time>2022-01-25T10:28:08+00:00</time>
        <ele>2744.0</ele>
      </trkpt>
      <trkpt lat="44.77082778699696" lon="6.472705956548452">
        <time>2022-01-25T10:28:16+00:00</time>
        <ele>2744.0</ele>
      </trkpt>
      <trkpt lat="44.770819656550884" lon="6.472695060074329">
        <time>2022-01-25T10:28:31+00:00</time>
        <ele>2745.0</ele>
      </trkpt>
      <trkpt lat="44.770817728713155" lon="6.472692294046283">
        <time>2022-01-25T10:28:36+00:00</time>
        <ele>2745.0</ele>
      </trkpt>
      <trkpt lat="44.770817728713155" lon="6.4726896956563">
        <time>2022-01-25T10:28:40+00:00</time>
        <ele>2745.0</ele>
      </trkpt>
      <trkpt lat="44.77082376368344" lon="6.472689611837268">
        <time>2022-01-25T10:28:45+00:00</time>
        <ele>2745.0</ele>
      </trkpt>
      <trkpt lat="44.77084429934621" lon="6.472688773646951">
        <time>2022-01-25T10:28:52+00:00</time>
        <ele>2744.0</ele>
      </trkpt>
      <trkpt lat="44.77084957994521" lon="6.472656335681677">
        <time>2022-01-25T10:28:57+00:00</time>
        <ele>2745.0</ele>
      </trkpt>
      <trkpt lat="44.77085955440998" lon="6.472604954615235">
        <time>2022-01-25T10:29:04+00:00</time>
        <ele>2746.0</ele>
      </trkpt>
      <trkpt lat="44.770862236618996" lon="6.472587352618575">
        <time>2022-01-25T10:29:06+00:00</time>
        <ele>2747.0</ele>
      </trkpt>
      <trkpt lat="44.77087564766407" lon="6.472539324313402">
        <time>2022-01-25T10:29:12+00:00</time>
        <ele>2748.0</ele>
      </trkpt>
      <trkpt lat="44.770880257710814" lon="6.472514346241951">
        <time>2022-01-25T10:29:15+00:00</time>
        <ele>2749.0</ele>
      </trkpt>
      <trkpt lat="44.770883694291115" lon="6.472505712881684">
        <time>2022-01-25T10:29:16+00:00</time>
        <ele>2749.0</ele>
      </trkpt>
      <trkpt lat="44.770935997366905" lon="6.472400771453977">
        <time>2022-01-25T10:29:22+00:00</time>
        <ele>2751.0</ele>
      </trkpt>
      <trkpt lat="44.77093884721398" lon="6.4723919704556465">
        <time>2022-01-25T10:29:23+00:00</time>
        <ele>2751.0</ele>
      </trkpt>
      <trkpt lat="44.77096734568477" lon="6.472326843068004">
        <time>2022-01-25T10:29:29+00:00</time>
        <ele>2752.0</ele>
      </trkpt>
      <trkpt lat="44.77097639814019" lon="6.472321478649974">
        <time>2022-01-25T10:29:30+00:00</time>
        <ele>2752.0</ele>
      </trkpt>
      <trkpt lat="44.77100456133485" lon="6.472310414537787">
        <time>2022-01-25T10:29:34+00:00</time>
        <ele>2751.0</ele>
      </trkpt>
      <trkpt lat="44.77100967429578" lon="6.472291387617588">
        <time>2022-01-25T10:29:36+00:00</time>
        <ele>2751.0</ele>
      </trkpt>
      <trkpt lat="44.77101202122867" lon="6.472282251343131">
        <time>2022-01-25T10:29:37+00:00</time>
        <ele>2752.0</ele>
      </trkpt>
      <trkpt lat="44.77103557437658" lon="6.472236234694719">
        <time>2022-01-25T10:29:44+00:00</time>
        <ele>2752.0</ele>
      </trkpt>
      <trkpt lat="44.77105217054486" lon="6.472218548879027">
        <time>2022-01-25T10:29:49+00:00</time>
        <ele>2752.0</ele>
      </trkpt>
      <trkpt lat="44.771059546619654" lon="6.4722049701958895">
        <time>2022-01-25T10:29:51+00:00</time>
        <ele>2752.0</ele>
      </trkpt>
      <trkpt lat="44.771068347617984" lon="6.472173035144806">
        <time>2022-01-25T10:29:56+00:00</time>
        <ele>2753.0</ele>
      </trkpt>
      <trkpt lat="44.7710728738457" lon="6.472158282995224">
        <time>2022-01-25T10:29:58+00:00</time>
        <ele>2754.0</ele>
      </trkpt>
      <trkpt lat="44.77107999846339" lon="6.4721201453357935">
        <time>2022-01-25T10:30:03+00:00</time>
        <ele>2755.0</ele>
      </trkpt>
      <trkpt lat="44.771094834432006" lon="6.472090473398566">
        <time>2022-01-25T10:30:08+00:00</time>
        <ele>2756.0</ele>
      </trkpt>
      <trkpt lat="44.77109709754586" lon="6.472083097323775">
        <time>2022-01-25T10:30:09+00:00</time>
        <ele>2756.0</ele>
      </trkpt>
      <trkpt lat="44.77109734900296" lon="6.472076391801238">
        <time>2022-01-25T10:30:10+00:00</time>
        <ele>2756.0</ele>
      </trkpt>
      <trkpt lat="44.7710985224694" lon="6.472072871401906">
        <time>2022-01-25T10:30:11+00:00</time>
        <ele>2756.0</ele>
      </trkpt>
      <trkpt lat="44.771111346781254" lon="6.472030961886048">
        <time>2022-01-25T10:30:17+00:00</time>
        <ele>2758.0</ele>
      </trkpt>
      <trkpt lat="44.77110631763935" lon="6.472017550840974">
        <time>2022-01-25T10:30:20+00:00</time>
        <ele>2758.0</ele>
      </trkpt>
      <trkpt lat="44.77110522799194" lon="6.4720144495368">
        <time>2022-01-25T10:30:21+00:00</time>
        <ele>2759.0</ele>
      </trkpt>
      <trkpt lat="44.771112352609634" lon="6.472000535577536">
        <time>2022-01-25T10:30:24+00:00</time>
        <ele>2759.0</ele>
      </trkpt>
      <trkpt lat="44.77111998014152" lon="6.471969773992896">
        <time>2022-01-25T10:30:28+00:00</time>
        <ele>2760.0</ele>
      </trkpt>
      <trkpt lat="44.77111738175154" lon="6.471935575827956">
        <time>2022-01-25T10:30:33+00:00</time>
        <ele>2762.0</ele>
      </trkpt>
      <trkpt lat="44.771121153607965" lon="6.471919482573867">
        <time>2022-01-25T10:30:37+00:00</time>
        <ele>2762.0</ele>
      </trkpt>
      <trkpt lat="44.77112148888409" lon="6.471887044608593">
        <time>2022-01-25T10:30:42+00:00</time>
        <ele>2763.0</ele>
      </trkpt>
      <trkpt lat="44.77112324908376" lon="6.4718409441411495">
        <time>2022-01-25T10:30:48+00:00</time>
        <ele>2765.0</ele>
      </trkpt>
      <trkpt lat="44.77112769149244" lon="6.471833065152168">
        <time>2022-01-25T10:30:49+00:00</time>
        <ele>2765.0</ele>
      </trkpt>
      <trkpt lat="44.77112400345504" lon="6.47177061997354">
        <time>2022-01-25T10:30:58+00:00</time>
        <ele>2767.0</ele>
      </trkpt>
      <trkpt lat="44.77112735621631" lon="6.471757376566529">
        <time>2022-01-25T10:31:02+00:00</time>
        <ele>2768.0</ele>
      </trkpt>
      <trkpt lat="44.771130457520485" lon="6.471725441515446">
        <time>2022-01-25T10:31:06+00:00</time>
        <ele>2769.0</ele>
      </trkpt>
      <trkpt lat="44.77113012224436" lon="6.471715550869703">
        <time>2022-01-25T10:31:07+00:00</time>
        <ele>2769.0</ele>
      </trkpt>
      <trkpt lat="44.77113062515855" lon="6.471672719344497">
        <time>2022-01-25T10:31:12+00:00</time>
        <ele>2770.0</ele>
      </trkpt>
      <trkpt lat="44.77112526074052" lon="6.471648411825299">
        <time>2022-01-25T10:31:19+00:00</time>
        <ele>2771.0</ele>
      </trkpt>
      <trkpt lat="44.77112584747374" lon="6.471646064892411">
        <time>2022-01-25T10:31:20+00:00</time>
        <ele>2771.0</ele>
      </trkpt>
      <trkpt lat="44.77112769149244" lon="6.47164355032146">
        <time>2022-01-25T10:31:21+00:00</time>
        <ele>2771.0</ele>
      </trkpt>
      <trkpt lat="44.77113640867174" lon="6.471640449017286">
        <time>2022-01-25T10:31:27+00:00</time>
        <ele>2771.0</ele>
      </trkpt>
      <trkpt lat="44.7711349837482" lon="6.4716442208737135">
        <time>2022-01-25T10:31:39+00:00</time>
        <ele>2771.0</ele>
      </trkpt>
      <trkpt lat="44.77113272063434" lon="6.4716442208737135">
        <time>2022-01-25T10:31:42+00:00</time>
        <ele>2771.0</ele>
      </trkpt>
      <trkpt lat="44.771128948777914" lon="6.471644388511777">
        <time>2022-01-25T10:31:50+00:00</time>
        <ele>2771.0</ele>
      </trkpt>
      <trkpt lat="44.77110757492483" lon="6.471670204773545">
        <time>2022-01-25T10:31:58+00:00</time>
        <ele>2772.0</ele>
      </trkpt>
      <trkpt lat="44.77110388688743" lon="6.47168068215251">
        <time>2022-01-25T10:32:00+00:00</time>
        <ele>2771.0</ele>
      </trkpt>
      <trkpt lat="44.7710744664073" lon="6.471704989671707">
        <time>2022-01-25T10:32:06+00:00</time>
        <ele>2772.0</ele>
      </trkpt>
      <trkpt lat="44.77104705758393" lon="6.471727034077048">
        <time>2022-01-25T10:32:13+00:00</time>
        <ele>2772.0</ele>
      </trkpt>
      <trkpt lat="44.771016128361225" lon="6.471737427636981">
        <time>2022-01-25T10:32:21+00:00</time>
        <ele>2773.0</ele>
      </trkpt>
      <trkpt lat="44.770995592698455" lon="6.471739523112774">
        <time>2022-01-25T10:32:24+00:00</time>
        <ele>2774.0</ele>
      </trkpt>
      <trkpt lat="44.7709777392447" lon="6.4717399422079325">
        <time>2022-01-25T10:32:27+00:00</time>
        <ele>2774.0</ele>
      </trkpt>
      <trkpt lat="44.77096122689545" lon="6.471740612760186">
        <time>2022-01-25T10:32:31+00:00</time>
        <ele>2775.0</ele>
      </trkpt>
      <trkpt lat="44.77095318026841" lon="6.471741031855345">
        <time>2022-01-25T10:32:33+00:00</time>
        <ele>2775.0</ele>
      </trkpt>
      <trkpt lat="44.77093918249011" lon="6.47174664773047">
        <time>2022-01-25T10:32:36+00:00</time>
        <ele>2776.0</ele>
      </trkpt>
      <trkpt lat="44.770885203033686" lon="6.47175838239491">
        <time>2022-01-25T10:32:47+00:00</time>
        <ele>2777.0</ele>
      </trkpt>
      <trkpt lat="44.77084631100297" lon="6.471761064603925">
        <time>2022-01-25T10:32:55+00:00</time>
        <ele>2779.0</ele>
      </trkpt>
      <trkpt lat="44.77083474397659" lon="6.471767937764525">
        <time>2022-01-25T10:32:59+00:00</time>
        <ele>2779.0</ele>
      </trkpt>
      <trkpt lat="44.77080951444805" lon="6.471768692135811">
        <time>2022-01-25T10:33:07+00:00</time>
        <ele>2780.0</ele>
      </trkpt>
      <trkpt lat="44.77078118361533" lon="6.471769865602255">
        <time>2022-01-25T10:33:14+00:00</time>
        <ele>2781.0</ele>
      </trkpt>
      <trkpt lat="44.770776154473424" lon="6.471769949421287">
        <time>2022-01-25T10:33:15+00:00</time>
        <ele>2781.0</ele>
      </trkpt>
      <trkpt lat="44.770740028470755" lon="6.47177011705935">
        <time>2022-01-25T10:33:22+00:00</time>
        <ele>2782.0</ele>
      </trkpt>
      <trkpt lat="44.77073282003403" lon="6.47177011705935">
        <time>2022-01-25T10:33:24+00:00</time>
        <ele>2782.0</ele>
      </trkpt>
      <trkpt lat="44.77072577923536" lon="6.47177061997354">
        <time>2022-01-25T10:33:26+00:00</time>
        <ele>2783.0</ele>
      </trkpt>
      <trkpt lat="44.770721420645714" lon="6.471770955249667">
        <time>2022-01-25T10:33:27+00:00</time>
        <ele>2783.0</ele>
      </trkpt>
      <trkpt lat="44.77071194909513" lon="6.471771709620953">
        <time>2022-01-25T10:33:29+00:00</time>
        <ele>2783.0</ele>
      </trkpt>
      <trkpt lat="44.770691161975265" lon="6.471772715449333">
        <time>2022-01-25T10:33:33+00:00</time>
        <ele>2784.0</ele>
      </trkpt>
      <trkpt lat="44.770676996558905" lon="6.471772966906428">
        <time>2022-01-25T10:33:36+00:00</time>
        <ele>2784.0</ele>
      </trkpt>
      <trkpt lat="44.770672637969255" lon="6.47177305072546">
        <time>2022-01-25T10:33:37+00:00</time>
        <ele>2785.0</ele>
      </trkpt>
      <trkpt lat="44.770643720403314" lon="6.471774894744158">
        <time>2022-01-25T10:33:44+00:00</time>
        <ele>2786.0</ele>
      </trkpt>
      <trkpt lat="44.770601307973266" lon="6.471777157858014">
        <time>2022-01-25T10:33:54+00:00</time>
        <ele>2788.0</ele>
      </trkpt>
      <trkpt lat="44.770592423155904" lon="6.4717773254960775">
        <time>2022-01-25T10:33:57+00:00</time>
        <ele>2789.0</ele>
      </trkpt>
      <trkpt lat="44.770571971312165" lon="6.471779504790902">
        <time>2022-01-25T10:34:03+00:00</time>
        <ele>2790.0</ele>
      </trkpt>
      <trkpt lat="44.770546490326524" lon="6.471789814531803">
        <time>2022-01-25T10:34:11+00:00</time>
        <ele>2791.0</ele>
      </trkpt>
      <trkpt lat="44.77051698602736" lon="6.471793502569199">
        <time>2022-01-25T10:34:19+00:00</time>
        <ele>2792.0</ele>
      </trkpt>
      <trkpt lat="44.77050424553454" lon="6.471794592216611">
        <time>2022-01-25T10:34:23+00:00</time>
        <ele>2793.0</ele>
      </trkpt>
      <trkpt lat="44.770496701821685" lon="6.4717950113117695">
        <time>2022-01-25T10:34:25+00:00</time>
        <ele>2793.0</ele>
      </trkpt>
      <trkpt lat="44.77044766768813" lon="6.471802806481719">
        <time>2022-01-25T10:34:37+00:00</time>
        <ele>2796.0</ele>
      </trkpt>
      <trkpt lat="44.770421516150236" lon="6.471805237233639">
        <time>2022-01-25T10:34:58+00:00</time>
        <ele>2797.0</ele>
      </trkpt>
      <trkpt lat="44.77042134851217" lon="6.471805237233639">
        <time>2022-01-25T10:35:00+00:00</time>
        <ele>2797.0</ele>
      </trkpt>
      <trkpt lat="44.77042118087411" lon="6.471805237233639">
        <time>2022-01-25T10:35:02+00:00</time>
        <ele>2797.0</ele>
      </trkpt>
      <trkpt lat="44.77042109705508" lon="6.471805237233639">
        <time>2022-01-25T10:35:04+00:00</time>
        <ele>2797.0</ele>
      </trkpt>
      <trkpt lat="44.77042059414089" lon="6.471805237233639">
        <time>2022-01-25T10:35:10+00:00</time>
        <ele>2797.0</ele>
      </trkpt>
      <trkpt lat="44.770420510321856" lon="6.471805237233639">
        <time>2022-01-25T10:35:12+00:00</time>
        <ele>2797.0</ele>
      </trkpt>
      <trkpt lat="44.770416570827365" lon="6.471796268597245">
        <time>2022-01-25T10:35:15+00:00</time>
        <ele>2798.0</ele>
      </trkpt>
      <trkpt lat="44.77041573263705" lon="6.471779840067029">
        <time>2022-01-25T10:35:16+00:00</time>
        <ele>2798.0</ele>
      </trkpt>
      <trkpt lat="44.77040366269648" lon="6.471713874489069">
        <time>2022-01-25T10:35:20+00:00</time>
        <ele>2800.0</ele>
      </trkpt>
      <trkpt lat="44.77039712481201" lon="6.471615303307772">
        <time>2022-01-25T10:35:27+00:00</time>
        <ele>2803.0</ele>
      </trkpt>
      <trkpt lat="44.77039519697428" lon="6.471605831757188">
        <time>2022-01-25T10:35:28+00:00</time>
        <ele>2803.0</ele>
      </trkpt>
      <trkpt lat="44.77039955556393" lon="6.471579009667039">
        <time>2022-01-25T10:35:31+00:00</time>
        <ele>2804.0</ele>
      </trkpt>
      <trkpt lat="44.77040994912386" lon="6.471548415720463">
        <time>2022-01-25T10:35:35+00:00</time>
        <ele>2804.0</ele>
      </trkpt>
      <trkpt lat="44.770414642989635" lon="6.471519414335489">
        <time>2022-01-25T10:35:39+00:00</time>
        <ele>2804.0</ele>
      </trkpt>
      <trkpt lat="44.770417073741555" lon="6.471496615558863">
        <time>2022-01-25T10:35:41+00:00</time>
        <ele>2804.0</ele>
      </trkpt>
      <trkpt lat="44.77041724137962" lon="6.471469039097428">
        <time>2022-01-25T10:35:46+00:00</time>
        <ele>2805.0</ele>
      </trkpt>
      <trkpt lat="44.77042185142636" lon="6.47144028916955">
        <time>2022-01-25T10:35:50+00:00</time>
        <ele>2805.0</ele>
      </trkpt>
      <trkpt lat="44.770425371825695" lon="6.471412209793925">
        <time>2022-01-25T10:35:54+00:00</time>
        <ele>2806.0</ele>
      </trkpt>
      <trkpt lat="44.770428808405995" lon="6.471395194530487">
        <time>2022-01-25T10:35:57+00:00</time>
        <ele>2806.0</ele>
      </trkpt>
      <trkpt lat="44.77042721584439" lon="6.4713673666119576">
        <time>2022-01-25T10:36:01+00:00</time>
        <ele>2807.0</ele>
      </trkpt>
      <trkpt lat="44.77042453363538" lon="6.471361750736833">
        <time>2022-01-25T10:36:02+00:00</time>
        <ele>2807.0</ele>
      </trkpt>
      <trkpt lat="44.770425371825695" lon="6.471358733251691">
        <time>2022-01-25T10:36:03+00:00</time>
        <ele>2807.0</ele>
      </trkpt>
      <trkpt lat="44.770405758172274" lon="6.471317494288087">
        <time>2022-01-25T10:36:09+00:00</time>
        <ele>2809.0</ele>
      </trkpt>
      <trkpt lat="44.77041011676192" lon="6.471300311386585">
        <time>2022-01-25T10:36:11+00:00</time>
        <ele>2809.0</ele>
      </trkpt>
      <trkpt lat="44.77042268961668" lon="6.471255719661713">
        <time>2022-01-25T10:36:15+00:00</time>
        <ele>2809.0</ele>
      </trkpt>
      <trkpt lat="44.77042788639665" lon="6.4712428115308285">
        <time>2022-01-25T10:36:18+00:00</time>
        <ele>2809.0</ele>
      </trkpt>
      <trkpt lat="44.77042612619698" lon="6.471237698569894">
        <time>2022-01-25T10:36:19+00:00</time>
        <ele>2810.0</ele>
      </trkpt>
      <trkpt lat="44.770423443987966" lon="6.471218839287758">
        <time>2022-01-25T10:36:21+00:00</time>
        <ele>2810.0</ele>
      </trkpt>
      <trkpt lat="44.77041179314256" lon="6.471179444342852">
        <time>2022-01-25T10:36:26+00:00</time>
        <ele>2812.0</ele>
      </trkpt>
      <trkpt lat="44.77041631937027" lon="6.471165530383587">
        <time>2022-01-25T10:36:28+00:00</time>
        <ele>2812.0</ele>
      </trkpt>
      <trkpt lat="44.7704267129302" lon="6.471119346097112">
        <time>2022-01-25T10:36:34+00:00</time>
        <ele>2812.0</ele>
      </trkpt>
      <trkpt lat="44.770426880568266" lon="6.47111289203167">
        <time>2022-01-25T10:36:36+00:00</time>
        <ele>2812.0</ele>
      </trkpt>
      <trkpt lat="44.770430736243725" lon="6.471120687201619">
        <time>2022-01-25T10:36:38+00:00</time>
        <ele>2812.0</ele>
      </trkpt>
      <trkpt lat="44.770430233329535" lon="6.471100905910134">
        <time>2022-01-25T10:36:40+00:00</time>
        <ele>2812.0</ele>
      </trkpt>
      <trkpt lat="44.77044381201267" lon="6.47107919678092">
        <time>2022-01-25T10:36:42+00:00</time>
        <ele>2812.0</ele>
      </trkpt>
      <trkpt lat="44.77045588195324" lon="6.4710714016109705">
        <time>2022-01-25T10:36:43+00:00</time>
        <ele>2812.0</ele>
      </trkpt>
      <trkpt lat="44.770463425666094" lon="6.471053212881088">
        <time>2022-01-25T10:36:47+00:00</time>
        <ele>2812.0</ele>
      </trkpt>
      <trkpt lat="44.770485050976276" lon="6.4710313361138105">
        <time>2022-01-25T10:36:53+00:00</time>
        <ele>2811.0</ele>
      </trkpt>
      <trkpt lat="44.770483039319515" lon="6.471022786572576">
        <time>2022-01-25T10:36:55+00:00</time>
        <ele>2811.0</ele>
      </trkpt>
      <trkpt lat="44.770489325746894" lon="6.471004765480757">
        <time>2022-01-25T10:36:59+00:00</time>
        <ele>2811.0</ele>
      </trkpt>
      <trkpt lat="44.770489828661084" lon="6.4709998201578856">
        <time>2022-01-25T10:37:00+00:00</time>
        <ele>2812.0</ele>
      </trkpt>
      <trkpt lat="44.770495779812336" lon="6.470988420769572">
        <time>2022-01-25T10:37:02+00:00</time>
        <ele>2812.0</ele>
      </trkpt>
      <trkpt lat="44.770515225827694" lon="6.470938716083765">
        <time>2022-01-25T10:37:09+00:00</time>
        <ele>2812.0</ele>
      </trkpt>
      <trkpt lat="44.77051505818963" lon="6.470934357494116">
        <time>2022-01-25T10:37:10+00:00</time>
        <ele>2812.0</ele>
      </trkpt>
      <trkpt lat="44.77050868794322" lon="6.470909463241696">
        <time>2022-01-25T10:37:13+00:00</time>
        <ele>2813.0</ele>
      </trkpt>
      <trkpt lat="44.7705046646297" lon="6.470888340845704">
        <time>2022-01-25T10:37:15+00:00</time>
        <ele>2813.0</ele>
      </trkpt>
      <trkpt lat="44.770502150058746" lon="6.470884820446372">
        <time>2022-01-25T10:37:16+00:00</time>
        <ele>2814.0</ele>
      </trkpt>
      <trkpt lat="44.77050810121" lon="6.470879036933184">
        <time>2022-01-25T10:37:17+00:00</time>
        <ele>2814.0</ele>
      </trkpt>
      <trkpt lat="44.770493265241385" lon="6.470826817676425">
        <time>2022-01-25T10:37:23+00:00</time>
        <ele>2816.0</ele>
      </trkpt>
      <trkpt lat="44.77050189860165" lon="6.47078599780798">
        <time>2022-01-25T10:37:30+00:00</time>
        <ele>2817.0</ele>
      </trkpt>
      <trkpt lat="44.770500641316175" lon="6.470783818513155">
        <time>2022-01-25T10:37:31+00:00</time>
        <ele>2817.0</ele>
      </trkpt>
      <trkpt lat="44.77050147950649" lon="6.470782980322838">
        <time>2022-01-25T10:37:32+00:00</time>
        <ele>2817.0</ele>
      </trkpt>
      <trkpt lat="44.770518662407994" lon="6.470790943130851">
        <time>2022-01-25T10:37:40+00:00</time>
        <ele>2816.0</ele>
      </trkpt>
      <trkpt lat="44.7705184109509" lon="6.4707830641418695">
        <time>2022-01-25T10:37:56+00:00</time>
        <ele>2816.0</ele>
      </trkpt>
      <trkpt lat="44.77052285335958" lon="6.470779711380601">
        <time>2022-01-25T10:38:03+00:00</time>
        <ele>2816.0</ele>
      </trkpt>
      <trkpt lat="44.77052235044539" lon="6.470760349184275">
        <time>2022-01-25T10:38:07+00:00</time>
        <ele>2817.0</ele>
      </trkpt>
      <trkpt lat="44.770521176978946" lon="6.470725312829018">
        <time>2022-01-25T10:38:11+00:00</time>
        <ele>2818.0</ele>
      </trkpt>
      <trkpt lat="44.77052134461701" lon="6.470682229846716">
        <time>2022-01-25T10:38:16+00:00</time>
        <ele>2819.0</ele>
      </trkpt>
      <trkpt lat="44.770521679893136" lon="6.470635710284114">
        <time>2022-01-25T10:38:21+00:00</time>
        <ele>2821.0</ele>
      </trkpt>
      <trkpt lat="44.770521679893136" lon="6.470619281753898">
        <time>2022-01-25T10:38:23+00:00</time>
        <ele>2821.0</ele>
      </trkpt>
      <trkpt lat="44.77052436210215" lon="6.470561530441046">
        <time>2022-01-25T10:38:32+00:00</time>
        <ele>2823.0</ele>
      </trkpt>
      <trkpt lat="44.77052930742502" lon="6.470555076375604">
        <time>2022-01-25T10:38:39+00:00</time>
        <ele>2823.0</ele>
      </trkpt>
      <trkpt lat="44.77053953334689" lon="6.470476621761918">
        <time>2022-01-25T10:38:46+00:00</time>
        <ele>2825.0</ele>
      </trkpt>
      <trkpt lat="44.770547747612" lon="6.470419624820352">
        <time>2022-01-25T10:38:49+00:00</time>
        <ele>2827.0</ele>
      </trkpt>
      <trkpt lat="44.77054984308779" lon="6.470398250967264">
        <time>2022-01-25T10:38:50+00:00</time>
        <ele>2827.0</ele>
      </trkpt>
      <trkpt lat="44.77055856026709" lon="6.470357766374946">
        <time>2022-01-25T10:38:52+00:00</time>
        <ele>2828.0</ele>
      </trkpt>
      <trkpt lat="44.7705580573529" lon="6.470301691442728">
        <time>2022-01-25T10:38:56+00:00</time>
        <ele>2830.0</ele>
      </trkpt>
      <trkpt lat="44.770558811724186" lon="6.470292219892144">
        <time>2022-01-25T10:38:57+00:00</time>
        <ele>2830.0</ele>
      </trkpt>
      <trkpt lat="44.77056157775223" lon="6.470275120809674">
        <time>2022-01-25T10:38:59+00:00</time>
        <ele>2830.0</ele>
      </trkpt>
      <trkpt lat="44.770555291324854" lon="6.470238994807005">
        <time>2022-01-25T10:39:04+00:00</time>
        <ele>2831.0</ele>
      </trkpt>
      <trkpt lat="44.77055814117193" lon="6.470231367275119">
        <time>2022-01-25T10:39:05+00:00</time>
        <ele>2831.0</ele>
      </trkpt>
      <trkpt lat="44.77056300267577" lon="6.470216950401664">
        <time>2022-01-25T10:39:07+00:00</time>
        <ele>2831.0</ele>
      </trkpt>
      <trkpt lat="44.770567109808326" lon="6.470182165503502">
        <time>2022-01-25T10:39:13+00:00</time>
        <ele>2832.0</ele>
      </trkpt>
      <trkpt lat="44.77057130075991" lon="6.470172945410013">
        <time>2022-01-25T10:39:15+00:00</time>
        <ele>2832.0</ele>
      </trkpt>
      <trkpt lat="44.77059376426041" lon="6.470131790265441">
        <time>2022-01-25T10:39:22+00:00</time>
        <ele>2832.0</ele>
      </trkpt>
      <trkpt lat="44.77060206234455" lon="6.470119971781969">
        <time>2022-01-25T10:39:25+00:00</time>
        <ele>2832.0</ele>
      </trkpt>
      <trkpt lat="44.770604241639376" lon="6.470094155520201">
        <time>2022-01-25T10:39:29+00:00</time>
        <ele>2833.0</ele>
      </trkpt>
      <trkpt lat="44.770606672391295" lon="6.470065908506513">
        <time>2022-01-25T10:39:33+00:00</time>
        <ele>2833.0</ele>
      </trkpt>
      <trkpt lat="44.77060776203871" lon="6.470037242397666">
        <time>2022-01-25T10:39:37+00:00</time>
        <ele>2834.0</ele>
      </trkpt>
      <trkpt lat="44.77060876786709" lon="6.470023412257433">
        <time>2022-01-25T10:39:42+00:00</time>
        <ele>2834.0</ele>
      </trkpt>
      <trkpt lat="44.770596362650394" lon="6.4700267650187016">
        <time>2022-01-25T10:39:53+00:00</time>
        <ele>2834.0</ele>
      </trkpt>
      <trkpt lat="44.770596362650394" lon="6.4700267650187016">
        <time>2022-01-25T10:39:54+00:00</time>
        <ele>2834.0</ele>
      </trkpt>
      <trkpt lat="44.770596362650394" lon="6.470026597380638">
        <time>2022-01-25T10:40:04+00:00</time>
        <ele>2834.0</ele>
      </trkpt>
      <trkpt lat="44.77059124968946" lon="6.470025423914194">
        <time>2022-01-25T10:40:12+00:00</time>
        <ele>2835.0</ele>
      </trkpt>
      <trkpt lat="44.77056593634188" lon="6.470023496076465">
        <time>2022-01-25T10:40:19+00:00</time>
        <ele>2836.0</ele>
      </trkpt>
      <trkpt lat="44.77051539346576" lon="6.470023663714528">
        <time>2022-01-25T10:40:28+00:00</time>
        <ele>2837.0</ele>
      </trkpt>
      <trkpt lat="44.770484548062086" lon="6.470023663714528">
        <time>2022-01-25T10:40:35+00:00</time>
        <ele>2838.0</ele>
      </trkpt>
      <trkpt lat="44.770478596910834" lon="6.470023663714528">
        <time>2022-01-25T10:40:36+00:00</time>
        <ele>2839.0</ele>
      </trkpt>
      <trkpt lat="44.77044238708913" lon="6.470028860494494">
        <time>2022-01-25T10:40:44+00:00</time>
        <ele>2840.0</ele>
      </trkpt>
      <trkpt lat="44.7704251203686" lon="6.4700341410934925">
        <time>2022-01-25T10:40:48+00:00</time>
        <ele>2840.0</ele>
      </trkpt>
      <trkpt lat="44.77041631937027" lon="6.470041265711188">
        <time>2022-01-25T10:40:51+00:00</time>
        <ele>2840.0</ele>
      </trkpt>
      <trkpt lat="44.77041246369481" lon="6.470042439177632">
        <time>2022-01-25T10:40:52+00:00</time>
        <ele>2840.0</ele>
      </trkpt>
      <trkpt lat="44.770350605249405" lon="6.470065237954259">
        <time>2022-01-25T10:41:03+00:00</time>
        <ele>2842.0</ele>
      </trkpt>
      <trkpt lat="44.77034406736493" lon="6.470067584887147">
        <time>2022-01-25T10:41:04+00:00</time>
        <ele>2842.0</ele>
      </trkpt>
      <trkpt lat="44.77033778093755" lon="6.470071021467447">
        <time>2022-01-25T10:41:05+00:00</time>
        <ele>2842.0</ele>
      </trkpt>
      <trkpt lat="44.7702974639833" lon="6.470092479139566">
        <time>2022-01-25T10:41:13+00:00</time>
        <ele>2843.0</ele>
      </trkpt>
      <trkpt lat="44.77025664411485" lon="6.470122234895825">
        <time>2022-01-25T10:41:21+00:00</time>
        <ele>2845.0</ele>
      </trkpt>
      <trkpt lat="44.77024759165943" lon="6.470129694789648">
        <time>2022-01-25T10:41:23+00:00</time>
        <ele>2845.0</ele>
      </trkpt>
      <trkpt lat="44.77021984755993" lon="6.470157522708178">
        <time>2022-01-25T10:41:30+00:00</time>
        <ele>2846.0</ele>
      </trkpt>
      <trkpt lat="44.770187912508845" lon="6.470184847712517">
        <time>2022-01-25T10:41:38+00:00</time>
        <ele>2847.0</ele>
      </trkpt>
      <trkpt lat="44.770104847848415" lon="6.47026221267879">
        <time>2022-01-25T10:41:58+00:00</time>
        <ele>2849.0</ele>
      </trkpt>
      <trkpt lat="44.77009143680334" lon="6.470274701714516">
        <time>2022-01-25T10:42:05+00:00</time>
        <ele>2849.0</ele>
      </trkpt>
      <trkpt lat="44.7700902633369" lon="6.470278641209006">
        <time>2022-01-25T10:42:11+00:00</time>
        <ele>2849.0</ele>
      </trkpt>
      <trkpt lat="44.770090179517865" lon="6.470282161608338">
        <time>2022-01-25T10:42:19+00:00</time>
        <ele>2849.0</ele>
      </trkpt>
      <trkpt lat="44.770090179517865" lon="6.470283502712846">
        <time>2022-01-25T10:42:21+00:00</time>
        <ele>2849.0</ele>
      </trkpt>
      <trkpt lat="44.77008992806077" lon="6.470287945121527">
        <time>2022-01-25T10:42:24+00:00</time>
        <ele>2849.0</ele>
      </trkpt>
      <trkpt lat="44.770087748765945" lon="6.470294902101159">
        <time>2022-01-25T10:42:28+00:00</time>
        <ele>2849.0</ele>
      </trkpt>
      <trkpt lat="44.770086323842406" lon="6.470299679785967">
        <time>2022-01-25T10:42:32+00:00</time>
        <ele>2849.0</ele>
      </trkpt>
      <trkpt lat="44.77008171379566" lon="6.47030521184206">
        <time>2022-01-25T10:42:35+00:00</time>
        <ele>2850.0</ele>
      </trkpt>
      <trkpt lat="44.77007710374892" lon="6.470309905707836">
        <time>2022-01-25T10:42:37+00:00</time>
        <ele>2850.0</ele>
      </trkpt>
      <trkpt lat="44.77006847038865" lon="6.470318119972944">
        <time>2022-01-25T10:42:40+00:00</time>
        <ele>2850.0</ele>
      </trkpt>
      <trkpt lat="44.770059417933226" lon="6.470327423885465">
        <time>2022-01-25T10:42:43+00:00</time>
        <ele>2851.0</ele>
      </trkpt>
      <trkpt lat="44.77005003020167" lon="6.4703363087028265">
        <time>2022-01-25T10:42:47+00:00</time>
        <ele>2851.0</ele>
      </trkpt>
      <trkpt lat="44.770048186182976" lon="6.470337817445397">
        <time>2022-01-25T10:42:48+00:00</time>
        <ele>2851.0</ele>
      </trkpt>
      <trkpt lat="44.77002488449216" lon="6.4703653100878">
        <time>2022-01-25T10:43:01+00:00</time>
        <ele>2853.0</ele>
      </trkpt>
      <trkpt lat="44.770017424598336" lon="6.47037168033421">
        <time>2022-01-25T10:43:10+00:00</time>
        <ele>2853.0</ele>
      </trkpt>
      <trkpt lat="44.77001667022705" lon="6.4703719317913055">
        <time>2022-01-25T10:43:22+00:00</time>
        <ele>2853.0</ele>
      </trkpt>
      <trkpt lat="44.770016334950924" lon="6.470371596515179">
        <time>2022-01-25T10:43:28+00:00</time>
        <ele>2853.0</ele>
      </trkpt>
      <trkpt lat="44.77001608349383" lon="6.4703713450580835">
        <time>2022-01-25T10:43:31+00:00</time>
        <ele>2853.0</ele>
      </trkpt>
      <trkpt lat="44.77001566439867" lon="6.47037067450583">
        <time>2022-01-25T10:43:37+00:00</time>
        <ele>2853.0</ele>
      </trkpt>
      <trkpt lat="44.77001507766545" lon="6.470369417220354">
        <time>2022-01-25T10:43:44+00:00</time>
        <ele>2853.0</ele>
      </trkpt>
      <trkpt lat="44.77001499384642" lon="6.470369249582291">
        <time>2022-01-25T10:43:45+00:00</time>
        <ele>2853.0</ele>
      </trkpt>
      <trkpt lat="44.77001432329416" lon="6.470367573201656">
        <time>2022-01-25T10:43:52+00:00</time>
        <ele>2853.0</ele>
      </trkpt>
      <trkpt lat="44.77001373656094" lon="6.470365896821022">
        <time>2022-01-25T10:43:58+00:00</time>
        <ele>2853.0</ele>
      </trkpt>
      <trkpt lat="44.77001356892288" lon="6.470365226268768">
        <time>2022-01-25T10:44:00+00:00</time>
        <ele>2853.0</ele>
      </trkpt>
      <trkpt lat="44.77001331746578" lon="6.470364555716515">
        <time>2022-01-25T10:44:02+00:00</time>
        <ele>2853.0</ele>
      </trkpt>
      <trkpt lat="44.770012479275465" lon="6.470361454412341">
        <time>2022-01-25T10:44:10+00:00</time>
        <ele>2854.0</ele>
      </trkpt>
      <trkpt lat="44.77001189254224" lon="6.47035944275558">
        <time>2022-01-25T10:44:15+00:00</time>
        <ele>2854.0</ele>
      </trkpt>
      <trkpt lat="44.77001164108515" lon="6.470358520746231">
        <time>2022-01-25T10:44:17+00:00</time>
        <ele>2854.0</ele>
      </trkpt>
      <trkpt lat="44.770011557266116" lon="6.4703581016510725">
        <time>2022-01-25T10:44:18+00:00</time>
        <ele>2854.0</ele>
      </trkpt>
      <trkpt lat="44.770011054351926" lon="6.470356173813343">
        <time>2022-01-25T10:44:22+00:00</time>
        <ele>2854.0</ele>
      </trkpt>
      <trkpt lat="44.77001088671386" lon="6.470355670899153">
        <time>2022-01-25T10:44:23+00:00</time>
        <ele>2854.0</ele>
      </trkpt>
      <trkpt lat="44.77001021616161" lon="6.470352904871106">
        <time>2022-01-25T10:44:28+00:00</time>
        <ele>2854.0</ele>
      </trkpt>
      <trkpt lat="44.770009545609355" lon="6.47035064175725">
        <time>2022-01-25T10:44:32+00:00</time>
        <ele>2854.0</ele>
      </trkpt>
      <trkpt lat="44.77000820450485" lon="6.47034527733922">
        <time>2022-01-25T10:44:41+00:00</time>
        <ele>2854.0</ele>
      </trkpt>
      <trkpt lat="44.770007533952594" lon="6.470343014225364">
        <time>2022-01-25T10:44:45+00:00</time>
        <ele>2854.0</ele>
      </trkpt>
      <trkpt lat="44.7700070310384" lon="6.470341254025698">
        <time>2022-01-25T10:44:48+00:00</time>
        <ele>2854.0</ele>
      </trkpt>
      <trkpt lat="44.77000669576228" lon="6.470340248197317">
        <time>2022-01-25T10:44:50+00:00</time>
        <ele>2854.0</ele>
      </trkpt>
      <trkpt lat="44.770005187019706" lon="6.470336643978953">
        <time>2022-01-25T10:44:57+00:00</time>
        <ele>2854.0</ele>
      </trkpt>
      <trkpt lat="44.770004181191325" lon="6.470334716141224">
        <time>2022-01-25T10:45:01+00:00</time>
        <ele>2854.0</ele>
      </trkpt>
      <trkpt lat="44.77000342682004" lon="6.4703333750367165">
        <time>2022-01-25T10:45:04+00:00</time>
        <ele>2855.0</ele>
      </trkpt>
      <trkpt lat="44.77000284008682" lon="6.470332453027368">
        <time>2022-01-25T10:45:06+00:00</time>
        <ele>2855.0</ele>
      </trkpt>
      <trkpt lat="44.77000233717263" lon="6.47033161483705">
        <time>2022-01-25T10:45:08+00:00</time>
        <ele>2855.0</ele>
      </trkpt>
      <trkpt lat="44.77000082843006" lon="6.470329603180289">
        <time>2022-01-25T10:45:13+00:00</time>
        <ele>2855.0</ele>
      </trkpt>
      <trkpt lat="44.769997391849756" lon="6.4703259989619255">
        <time>2022-01-25T10:45:23+00:00</time>
        <ele>2855.0</ele>
      </trkpt>
      <trkpt lat="44.76999429054558" lon="6.4703236520290375">
        <time>2022-01-25T10:45:31+00:00</time>
        <ele>2855.0</ele>
      </trkpt>
      <trkpt lat="44.76999085396528" lon="6.4703218918293715">
        <time>2022-01-25T10:45:39+00:00</time>
        <ele>2855.0</ele>
      </trkpt>
      <trkpt lat="44.76998649537563" lon="6.470320383086801">
        <time>2022-01-25T10:45:48+00:00</time>
        <ele>2856.0</ele>
      </trkpt>
      <trkpt lat="44.76998238824308" lon="6.470319628715515">
        <time>2022-01-25T10:45:56+00:00</time>
        <ele>2856.0</ele>
      </trkpt>
      <trkpt lat="44.76997911930084" lon="6.47031937725842">
        <time>2022-01-25T10:46:02+00:00</time>
        <ele>2856.0</ele>
      </trkpt>
      <trkpt lat="44.769973922520876" lon="6.470319544896483">
        <time>2022-01-25T10:46:11+00:00</time>
        <ele>2857.0</ele>
      </trkpt>
      <trkpt lat="44.769970905035734" lon="6.470319963991642">
        <time>2022-01-25T10:46:16+00:00</time>
        <ele>2857.0</ele>
      </trkpt>
      <trkpt lat="44.76996780373156" lon="6.470320550724864">
        <time>2022-01-25T10:46:21+00:00</time>
        <ele>2857.0</ele>
      </trkpt>
      <trkpt lat="44.76996386423707" lon="6.470321556553245">
        <time>2022-01-25T10:46:27+00:00</time>
        <ele>2857.0</ele>
      </trkpt>
      <trkpt lat="44.76995640434325" lon="6.470323987305164">
        <time>2022-01-25T10:46:38+00:00</time>
        <ele>2858.0</ele>
      </trkpt>
      <trkpt lat="44.769951375201344" lon="6.4703259989619255">
        <time>2022-01-25T10:46:45+00:00</time>
        <ele>2858.0</ele>
      </trkpt>
      <trkpt lat="44.76994626224041" lon="6.4703283458948135">
        <time>2022-01-25T10:46:52+00:00</time>
        <ele>2858.0</ele>
      </trkpt>
      <trkpt lat="44.76994475349784" lon="6.470329100266099">
        <time>2022-01-25T10:46:54+00:00</time>
        <ele>2859.0</ele>
      </trkpt>
      <trkpt lat="44.76993788033724" lon="6.4703327883034945">
        <time>2022-01-25T10:47:03+00:00</time>
        <ele>2859.0</ele>
      </trkpt>
      <trkpt lat="44.76993008516729" lon="6.470337733626366">
        <time>2022-01-25T10:47:13+00:00</time>
        <ele>2859.0</ele>
      </trkpt>
      <trkpt lat="44.769921116530895" lon="6.470344103872776">
        <time>2022-01-25T10:47:24+00:00</time>
        <ele>2860.0</ele>
      </trkpt>
      <trkpt lat="44.76991172879934" lon="6.4703513123095036">
        <time>2022-01-25T10:47:35+00:00</time>
        <ele>2861.0</ele>
      </trkpt>
      <trkpt lat="44.76990468800068" lon="6.4703569281846285">
        <time>2022-01-25T10:47:43+00:00</time>
        <ele>2861.0</ele>
      </trkpt>
      <trkpt lat="44.76990292780101" lon="6.470358436927199">
        <time>2022-01-25T10:47:45+00:00</time>
        <ele>2861.0</ele>
      </trkpt>
      <trkpt lat="44.769900245592" lon="6.470360700041056">
        <time>2022-01-25T10:47:48+00:00</time>
        <ele>2861.0</ele>
      </trkpt>
      <trkpt lat="44.7698965575546" lon="6.470363885164261">
        <time>2022-01-25T10:47:52+00:00</time>
        <ele>2861.0</ele>
      </trkpt>
      <trkpt lat="44.76988825947046" lon="6.470371009781957">
        <time>2022-01-25T10:48:01+00:00</time>
        <ele>2862.0</ele>
      </trkpt>
      <trkpt lat="44.76987996138632" lon="6.470378050580621">
        <time>2022-01-25T10:48:10+00:00</time>
        <ele>2862.0</ele>
      </trkpt>
      <trkpt lat="44.76987820118666" lon="6.470379643142223">
        <time>2022-01-25T10:48:12+00:00</time>
        <ele>2862.0</ele>
      </trkpt>
      <trkpt lat="44.76986998692155" lon="6.470386600121856">
        <time>2022-01-25T10:48:21+00:00</time>
        <ele>2863.0</ele>
      </trkpt>
      <trkpt lat="44.7698690649122" lon="6.470387354493141">
        <time>2022-01-25T10:48:22+00:00</time>
        <ele>2863.0</ele>
      </trkpt>
      <trkpt lat="44.769867304712534" lon="6.470388863235712">
        <time>2022-01-25T10:48:24+00:00</time>
        <ele>2863.0</ele>
      </trkpt>
      <trkpt lat="44.769865460693836" lon="6.470390455797315">
        <time>2022-01-25T10:48:26+00:00</time>
        <ele>2863.0</ele>
      </trkpt>
      <trkpt lat="44.76986453868449" lon="6.4703912101686">
        <time>2022-01-25T10:48:27+00:00</time>
        <ele>2863.0</ele>
      </trkpt>
      <trkpt lat="44.769854145124555" lon="6.470400430262089">
        <time>2022-01-25T10:48:38+00:00</time>
        <ele>2864.0</ele>
      </trkpt>
      <trkpt lat="44.769850205630064" lon="6.4704040344804525">
        <time>2022-01-25T10:48:42+00:00</time>
        <ele>2864.0</ele>
      </trkpt>
      <trkpt lat="44.76984526030719" lon="6.470408644527197">
        <time>2022-01-25T10:48:47+00:00</time>
        <ele>2864.0</ele>
      </trkpt>
      <trkpt lat="44.7698413208127" lon="6.470412332564592">
        <time>2022-01-25T10:48:51+00:00</time>
        <ele>2864.0</ele>
      </trkpt>
      <trkpt lat="44.76983620785177" lon="6.4704171102494">
        <time>2022-01-25T10:48:56+00:00</time>
        <ele>2865.0</ele>
      </trkpt>
      <trkpt lat="44.76981533691287" lon="6.470437729731202">
        <time>2022-01-25T10:49:16+00:00</time>
        <ele>2866.0</ele>
      </trkpt>
      <trkpt lat="44.76980787701905" lon="6.470445105805993">
        <time>2022-01-25T10:49:23+00:00</time>
        <ele>2866.0</ele>
      </trkpt>
      <trkpt lat="44.769800417125225" lon="6.470452398061752">
        <time>2022-01-25T10:49:30+00:00</time>
        <ele>2867.0</ele>
      </trkpt>
      <trkpt lat="44.76979932747781" lon="6.470453403890133">
        <time>2022-01-25T10:49:31+00:00</time>
        <ele>2867.0</ele>
      </trkpt>
      <trkpt lat="44.76978876627982" lon="6.4704635459929705">
        <time>2022-01-25T10:49:41+00:00</time>
        <ele>2867.0</ele>
      </trkpt>
      <trkpt lat="44.769768146798015" lon="6.47048064507544">
        <time>2022-01-25T10:50:01+00:00</time>
        <ele>2869.0</ele>
      </trkpt>
      <trkpt lat="44.76975917816162" lon="6.470487015321851">
        <time>2022-01-25T10:50:10+00:00</time>
        <ele>2869.0</ele>
      </trkpt>
      <trkpt lat="44.76975138299167" lon="6.470491709187627">
        <time>2022-01-25T10:50:18+00:00</time>
        <ele>2870.0</ele>
      </trkpt>
      <trkpt lat="44.76974752731621" lon="6.47049380466342">
        <time>2022-01-25T10:50:22+00:00</time>
        <ele>2870.0</ele>
      </trkpt>
      <trkpt lat="44.7697445936501" lon="6.470495229586959">
        <time>2022-01-25T10:50:25+00:00</time>
        <ele>2870.0</ele>
      </trkpt>
      <trkpt lat="44.76974266581237" lon="6.470496151596308">
        <time>2022-01-25T10:50:27+00:00</time>
        <ele>2870.0</ele>
      </trkpt>
      <trkpt lat="44.769736882299185" lon="6.470498666167259">
        <time>2022-01-25T10:50:33+00:00</time>
        <ele>2870.0</ele>
      </trkpt>
      <trkpt lat="44.7697292547673" lon="6.470501851290464">
        <time>2022-01-25T10:50:41+00:00</time>
        <ele>2871.0</ele>
      </trkpt>
      <trkpt lat="44.76972732692957" lon="6.4705026894807816">
        <time>2022-01-25T10:50:43+00:00</time>
        <ele>2871.0</ele>
      </trkpt>
      <trkpt lat="44.76972640492022" lon="6.470503024756908">
        <time>2022-01-25T10:50:44+00:00</time>
        <ele>2871.0</ele>
      </trkpt>
      <trkpt lat="44.76972162723541" lon="6.47050503641367">
        <time>2022-01-25T10:50:49+00:00</time>
        <ele>2871.0</ele>
      </trkpt>
      <trkpt lat="44.76971316151321" lon="6.470508640632033">
        <time>2022-01-25T10:50:58+00:00</time>
        <ele>2872.0</ele>
      </trkpt>
      <trkpt lat="44.769695391878486" lon="6.470517609268427">
        <time>2022-01-25T10:51:17+00:00</time>
        <ele>2873.0</ele>
      </trkpt>
      <trkpt lat="44.76967426948249" lon="6.470528589561582">
        <time>2022-01-25T10:51:40+00:00</time>
        <ele>2874.0</ele>
      </trkpt>
      <trkpt lat="44.76966974325478" lon="6.47053093649447">
        <time>2022-01-25T10:51:45+00:00</time>
        <ele>2874.0</ele>
      </trkpt>
      <trkpt lat="44.76966437883675" lon="6.470533702522516">
        <time>2022-01-25T10:51:51+00:00</time>
        <ele>2875.0</ele>
      </trkpt>
      <trkpt lat="44.769658176228404" lon="6.47053680382669">
        <time>2022-01-25T10:51:58+00:00</time>
        <ele>2875.0</ele>
      </trkpt>
      <trkpt lat="44.76965297944844" lon="6.470539486035705">
        <time>2022-01-25T10:52:04+00:00</time>
        <ele>2875.0</ele>
      </trkpt>
      <trkpt lat="44.76965214125812" lon="6.470539905130863">
        <time>2022-01-25T10:52:05+00:00</time>
        <ele>2875.0</ele>
      </trkpt>
      <trkpt lat="44.76964870467782" lon="6.470541665330529">
        <time>2022-01-25T10:52:09+00:00</time>
        <ele>2875.0</ele>
      </trkpt>
      <trkpt lat="44.7696394007653" lon="6.470546359196305">
        <time>2022-01-25T10:52:20+00:00</time>
        <ele>2876.0</ele>
      </trkpt>
      <trkpt lat="44.76963688619435" lon="6.470547616481781">
        <time>2022-01-25T10:52:23+00:00</time>
        <ele>2876.0</ele>
      </trkpt>
      <trkpt lat="44.76962624117732" lon="6.4705530647188425">
        <time>2022-01-25T10:52:36+00:00</time>
        <ele>2877.0</ele>
      </trkpt>
      <trkpt lat="44.76961584761739" lon="6.470558429136872">
        <time>2022-01-25T10:52:49+00:00</time>
        <ele>2877.0</ele>
      </trkpt>
      <trkpt lat="44.769610315561295" lon="6.470561278983951">
        <time>2022-01-25T10:52:56+00:00</time>
        <ele>2877.0</ele>
      </trkpt>
      <trkpt lat="44.76960570551455" lon="6.47056370973587">
        <time>2022-01-25T10:53:02+00:00</time>
        <ele>2878.0</ele>
      </trkpt>
      <trkpt lat="44.76959187537432" lon="6.4705707505345345">
        <time>2022-01-25T10:53:20+00:00</time>
        <ele>2878.0</ele>
      </trkpt>
      <trkpt lat="44.76958508603275" lon="6.470574187114835">
        <time>2022-01-25T10:53:29+00:00</time>
        <ele>2879.0</ele>
      </trkpt>
      <trkpt lat="44.76958433166146" lon="6.470574522390962">
        <time>2022-01-25T10:53:30+00:00</time>
        <ele>2879.0</ele>
      </trkpt>
      <trkpt lat="44.769576201215386" lon="6.470578629523516">
        <time>2022-01-25T10:53:41+00:00</time>
        <ele>2879.0</ele>
      </trkpt>
      <trkpt lat="44.76956605911255" lon="6.47058374248445">
        <time>2022-01-25T10:53:55+00:00</time>
        <ele>2880.0</ele>
      </trkpt>
      <trkpt lat="44.769565388560295" lon="6.470584161579609">
        <time>2022-01-25T10:53:56+00:00</time>
        <ele>2880.0</ele>
      </trkpt>
      <trkpt lat="44.76954359561205" lon="6.470594806596637">
        <time>2022-01-25T10:54:27+00:00</time>
        <ele>2881.0</ele>
      </trkpt>
      <trkpt lat="44.76953538134694" lon="6.470598662272096">
        <time>2022-01-25T10:54:39+00:00</time>
        <ele>2881.0</ele>
      </trkpt>
      <trkpt lat="44.76953001692891" lon="6.470601344481111">
        <time>2022-01-25T10:54:47+00:00</time>
        <ele>2882.0</ele>
      </trkpt>
      <trkpt lat="44.76952666416764" lon="6.470603104680777">
        <time>2022-01-25T10:54:52+00:00</time>
        <ele>2882.0</ele>
      </trkpt>
      <trkpt lat="44.7695220541209" lon="6.470605535432696">
        <time>2022-01-25T10:54:59+00:00</time>
        <ele>2882.0</ele>
      </trkpt>
      <trkpt lat="44.76952012628317" lon="6.470606625080109">
        <time>2022-01-25T10:55:02+00:00</time>
        <ele>2882.0</ele>
      </trkpt>
      <trkpt lat="44.76951434276998" lon="6.470609810203314">
        <time>2022-01-25T10:55:11+00:00</time>
        <ele>2883.0</ele>
      </trkpt>
      <trkpt lat="44.769511157646775" lon="6.47061157040298">
        <time>2022-01-25T10:55:16+00:00</time>
        <ele>2883.0</ele>
      </trkpt>
      <trkpt lat="44.769501853734255" lon="6.4706166833639145">
        <time>2022-01-25T10:55:31+00:00</time>
        <ele>2884.0</ele>
      </trkpt>
      <trkpt lat="44.76949875243008" lon="6.470618359744549">
        <time>2022-01-25T10:55:36+00:00</time>
        <ele>2884.0</ele>
      </trkpt>
      <trkpt lat="44.76949816569686" lon="6.470618695020676">
        <time>2022-01-25T10:55:37+00:00</time>
        <ele>2884.0</ele>
      </trkpt>
      <trkpt lat="44.769495064392686" lon="6.470620287582278">
        <time>2022-01-25T10:55:42+00:00</time>
        <ele>2884.0</ele>
      </trkpt>
      <trkpt lat="44.769494477659464" lon="6.470620622858405">
        <time>2022-01-25T10:55:43+00:00</time>
        <ele>2884.0</ele>
      </trkpt>
      <trkpt lat="44.76949389092624" lon="6.4706208743155">
        <time>2022-01-25T10:55:44+00:00</time>
        <ele>2884.0</ele>
      </trkpt>
      <trkpt lat="44.76949028670788" lon="6.47062280215323">
        <time>2022-01-25T10:55:50+00:00</time>
        <ele>2885.0</ele>
      </trkpt>
      <trkpt lat="44.769487269222736" lon="6.470624310895801">
        <time>2022-01-25T10:55:55+00:00</time>
        <ele>2885.0</ele>
      </trkpt>
      <trkpt lat="44.76948659867048" lon="6.470624562352896">
        <time>2022-01-25T10:55:56+00:00</time>
        <ele>2885.0</ele>
      </trkpt>
      <trkpt lat="44.769472517073154" lon="6.470631770789623">
        <time>2022-01-25T10:56:20+00:00</time>
        <ele>2886.0</ele>
      </trkpt>
      <trkpt lat="44.769469164311886" lon="6.470633530989289">
        <time>2022-01-25T10:56:26+00:00</time>
        <ele>2886.0</ele>
      </trkpt>
      <trkpt lat="44.76946799084544" lon="6.470634117722511">
        <time>2022-01-25T10:56:28+00:00</time>
        <ele>2886.0</ele>
      </trkpt>
      <trkpt lat="44.76946363225579" lon="6.470636380836368">
        <time>2022-01-25T10:56:36+00:00</time>
        <ele>2886.0</ele>
      </trkpt>
      <trkpt lat="44.76945910602808" lon="6.4706390630453825">
        <time>2022-01-25T10:56:45+00:00</time>
        <ele>2887.0</ele>
      </trkpt>
      <trkpt lat="44.76945617236197" lon="6.4706408232450485">
        <time>2022-01-25T10:56:51+00:00</time>
        <ele>2887.0</ele>
      </trkpt>
      <trkpt lat="44.76945089176297" lon="6.470644008368254">
        <time>2022-01-25T10:57:02+00:00</time>
        <ele>2887.0</ele>
      </trkpt>
      <trkpt lat="44.76943991146982" lon="6.470650294795632">
        <time>2022-01-25T10:57:24+00:00</time>
        <ele>2888.0</ele>
      </trkpt>
      <trkpt lat="44.76943647488952" lon="6.4706523064523935">
        <time>2022-01-25T10:57:31+00:00</time>
        <ele>2888.0</ele>
      </trkpt>
      <trkpt lat="44.7694340441376" lon="6.470653647556901">
        <time>2022-01-25T10:57:36+00:00</time>
        <ele>2889.0</ele>
      </trkpt>
      <trkpt lat="44.76943303830922" lon="6.470654150471091">
        <time>2022-01-25T10:57:38+00:00</time>
        <ele>2889.0</ele>
      </trkpt>
      <trkpt lat="44.76943261921406" lon="6.470654485747218">
        <time>2022-01-25T10:57:39+00:00</time>
        <ele>2889.0</ele>
      </trkpt>
      <trkpt lat="44.76943161338568" lon="6.470654988661408">
        <time>2022-01-25T10:57:41+00:00</time>
        <ele>2889.0</ele>
      </trkpt>
      <trkpt lat="44.76942976936698" lon="6.470656078308821">
        <time>2022-01-25T10:57:45+00:00</time>
        <ele>2889.0</ele>
      </trkpt>
      <trkpt lat="44.769415436312556" lon="6.470663119107485">
        <time>2022-01-25T10:58:16+00:00</time>
        <ele>2890.0</ele>
      </trkpt>
      <trkpt lat="44.76940780878067" lon="6.47066680714488">
        <time>2022-01-25T10:58:33+00:00</time>
        <ele>2890.0</ele>
      </trkpt>
      <trkpt lat="44.76940521039069" lon="6.4706682320684195">
        <time>2022-01-25T10:58:39+00:00</time>
        <ele>2891.0</ele>
      </trkpt>
      <trkpt lat="44.76940395310521" lon="6.470668902620673">
        <time>2022-01-25T10:58:42+00:00</time>
        <ele>2891.0</ele>
      </trkpt>
      <trkpt lat="44.76940093562007" lon="6.4706705790013075">
        <time>2022-01-25T10:58:49+00:00</time>
        <ele>2891.0</ele>
      </trkpt>
      <trkpt lat="44.76939104497433" lon="6.470675775781274">
        <time>2022-01-25T10:59:12+00:00</time>
        <ele>2892.0</ele>
      </trkpt>
      <trkpt lat="44.769388530403376" lon="6.470677116885781">
        <time>2022-01-25T10:59:18+00:00</time>
        <ele>2892.0</ele>
      </trkpt>
      <trkpt lat="44.76938643492758" lon="6.470678290352225">
        <time>2022-01-25T10:59:23+00:00</time>
        <ele>2892.0</ele>
      </trkpt>
      <trkpt lat="44.76922399364412" lon="6.470751715824008">
        <time>2022-01-25T10:59:30+00:00</time>
        <ele>2904.0</ele>
      </trkpt>
      <trkpt lat="44.769127517938614" lon="6.470814915373921">
        <time>2022-01-25T10:59:52+00:00</time>
        <ele>2911.0</ele>
      </trkpt>
      <trkpt lat="44.76913137361407" lon="6.470818100497127">
        <time>2022-01-25T10:59:57+00:00</time>
        <ele>2911.0</ele>
      </trkpt>
      <trkpt lat="44.76913254708052" lon="6.470826230943203">
        <time>2022-01-25T11:00:00+00:00</time>
        <ele>2910.0</ele>
      </trkpt>
      <trkpt lat="44.76913313381374" lon="6.47082656621933">
        <time>2022-01-25T11:00:01+00:00</time>
        <ele>2910.0</ele>
      </trkpt>
      <trkpt lat="44.76913497783244" lon="6.470826817676425">
        <time>2022-01-25T11:00:02+00:00</time>
        <ele>2910.0</ele>
      </trkpt>
      <trkpt lat="44.76913816295564" lon="6.470839474350214">
        <time>2022-01-25T11:00:15+00:00</time>
        <ele>2910.0</ele>
      </trkpt>
      <trkpt lat="44.76913816295564" lon="6.470839893445373">
        <time>2022-01-25T11:00:18+00:00</time>
        <ele>2910.0</ele>
      </trkpt>
      <trkpt lat="44.76913715712726" lon="6.470842994749546">
        <time>2022-01-25T11:00:21+00:00</time>
        <ele>2910.0</ele>
      </trkpt>
      <trkpt lat="44.769133888185024" lon="6.470882641151547">
        <time>2022-01-25T11:00:37+00:00</time>
        <ele>2909.0</ele>
      </trkpt>
      <trkpt lat="44.76911326870322" lon="6.47091893479228">
        <time>2022-01-25T11:01:03+00:00</time>
        <ele>2911.0</ele>
      </trkpt>
      <trkpt lat="44.769104551523924" lon="6.470934608951211">
        <time>2022-01-25T11:01:17+00:00</time>
        <ele>2911.0</ele>
      </trkpt>
      <trkpt lat="44.76910388097167" lon="6.470936201512814">
        <time>2022-01-25T11:01:18+00:00</time>
        <ele>2911.0</ele>
      </trkpt>
      <trkpt lat="44.76909792982042" lon="6.470956988632679">
        <time>2022-01-25T11:01:28+00:00</time>
        <ele>2912.0</ele>
      </trkpt>
      <trkpt lat="44.76908569224179" lon="6.470973417162895">
        <time>2022-01-25T11:01:39+00:00</time>
        <ele>2912.0</ele>
      </trkpt>
      <trkpt lat="44.76907228119671" lon="6.470977524295449">
        <time>2022-01-25T11:01:47+00:00</time>
        <ele>2914.0</ele>
      </trkpt>
      <trkpt lat="44.76906825788319" lon="6.470978949218988">
        <time>2022-01-25T11:01:52+00:00</time>
        <ele>2914.0</ele>
      </trkpt>
      <trkpt lat="44.76906633004546" lon="6.470980038866401">
        <time>2022-01-25T11:01:54+00:00</time>
        <ele>2914.0</ele>
      </trkpt>
      <trkpt lat="44.76905736140907" lon="6.470984145998955">
        <time>2022-01-25T11:02:00+00:00</time>
        <ele>2915.0</ele>
      </trkpt>
      <trkpt lat="44.769034311175346" lon="6.470995377749205">
        <time>2022-01-25T11:02:11+00:00</time>
        <ele>2917.0</ele>
      </trkpt>
      <trkpt lat="44.76901536807418" lon="6.4709990657866">
        <time>2022-01-25T11:02:21+00:00</time>
        <ele>2919.0</ele>
      </trkpt>
      <trkpt lat="44.76900757290423" lon="6.471000323072076">
        <time>2022-01-25T11:02:27+00:00</time>
        <ele>2920.0</ele>
      </trkpt>
      <trkpt lat="44.76900363340974" lon="6.471001412719488">
        <time>2022-01-25T11:02:31+00:00</time>
        <ele>2920.0</ele>
      </trkpt>
      <trkpt lat="44.76899768225849" lon="6.47100392729044">
        <time>2022-01-25T11:02:37+00:00</time>
        <ele>2921.0</ele>
      </trkpt>
      <trkpt lat="44.7689916472882" lon="6.471006441861391">
        <time>2022-01-25T11:02:44+00:00</time>
        <ele>2921.0</ele>
      </trkpt>
      <trkpt lat="44.76898854598403" lon="6.471008118242025">
        <time>2022-01-25T11:02:50+00:00</time>
        <ele>2921.0</ele>
      </trkpt>
      <trkpt lat="44.768988294526935" lon="6.471008285880089">
        <time>2022-01-25T11:02:52+00:00</time>
        <ele>2922.0</ele>
      </trkpt>
      <trkpt lat="44.76898804306984" lon="6.4710083696991205">
        <time>2022-01-25T11:02:57+00:00</time>
        <ele>2922.0</ele>
      </trkpt>
      <trkpt lat="44.76898703724146" lon="6.4710089564323425">
        <time>2022-01-25T11:03:10+00:00</time>
        <ele>2922.0</ele>
      </trkpt>
      <trkpt lat="44.768986785784364" lon="6.471009124070406">
        <time>2022-01-25T11:03:13+00:00</time>
        <ele>2922.0</ele>
      </trkpt>
      <trkpt lat="44.76898653432727" lon="6.471009291708469">
        <time>2022-01-25T11:03:16+00:00</time>
        <ele>2922.0</ele>
      </trkpt>
      <trkpt lat="44.76898569613695" lon="6.471009962260723">
        <time>2022-01-25T11:03:24+00:00</time>
        <ele>2922.0</ele>
      </trkpt>
      <trkpt lat="44.768984355032444" lon="6.471011219546199">
        <time>2022-01-25T11:03:36+00:00</time>
        <ele>2922.0</ele>
      </trkpt>
      <trkpt lat="44.76898401975632" lon="6.471011554822326">
        <time>2022-01-25T11:03:38+00:00</time>
        <ele>2922.0</ele>
      </trkpt>
      <trkpt lat="44.768982930108905" lon="6.47101272828877">
        <time>2022-01-25T11:03:46+00:00</time>
        <ele>2922.0</ele>
      </trkpt>
      <trkpt lat="44.76898167282343" lon="6.471014404669404">
        <time>2022-01-25T11:03:54+00:00</time>
        <ele>2922.0</ele>
      </trkpt>
      <trkpt lat="44.768980918452144" lon="6.471015326678753">
        <time>2022-01-25T11:03:58+00:00</time>
        <ele>2922.0</ele>
      </trkpt>
      <trkpt lat="44.76897882297635" lon="6.4710180927067995">
        <time>2022-01-25T11:04:10+00:00</time>
        <ele>2922.0</ele>
      </trkpt>
      <trkpt lat="44.76897823624313" lon="6.471018847078085">
        <time>2022-01-25T11:04:13+00:00</time>
        <ele>2922.0</ele>
      </trkpt>
      <trkpt lat="44.76897739805281" lon="6.471020020544529">
        <time>2022-01-25T11:04:18+00:00</time>
        <ele>2922.0</ele>
      </trkpt>
      <trkpt lat="44.76897572167218" lon="6.471022199839354">
        <time>2022-01-25T11:04:27+00:00</time>
        <ele>2922.0</ele>
      </trkpt>
      <trkpt lat="44.76897438056767" lon="6.471024043858051">
        <time>2022-01-25T11:04:33+00:00</time>
        <ele>2923.0</ele>
      </trkpt>
      <trkpt lat="44.768973710015416" lon="6.471025133505464">
        <time>2022-01-25T11:04:36+00:00</time>
        <ele>2923.0</ele>
      </trkpt>
      <trkpt lat="44.768973207101226" lon="6.471025804057717">
        <time>2022-01-25T11:04:38+00:00</time>
        <ele>2923.0</ele>
      </trkpt>
      <trkpt lat="44.768969770520926" lon="6.471031419932842">
        <time>2022-01-25T11:04:51+00:00</time>
        <ele>2923.0</ele>
      </trkpt>
      <trkpt lat="44.768968345597386" lon="6.47103376686573">
        <time>2022-01-25T11:04:56+00:00</time>
        <ele>2923.0</ele>
      </trkpt>
      <trkpt lat="44.76896742358804" lon="6.471035275608301">
        <time>2022-01-25T11:04:59+00:00</time>
        <ele>2923.0</ele>
      </trkpt>
      <trkpt lat="44.76896566338837" lon="6.471038209274411">
        <time>2022-01-25T11:05:05+00:00</time>
        <ele>2923.0</ele>
      </trkpt>
      <trkpt lat="44.768963903188705" lon="6.471041394397616">
        <time>2022-01-25T11:05:11+00:00</time>
        <ele>2923.0</ele>
      </trkpt>
      <trkpt lat="44.76896013133228" lon="6.471047513186932">
        <time>2022-01-25T11:05:22+00:00</time>
        <ele>2923.0</ele>
      </trkpt>
      <trkpt lat="44.76895828731358" lon="6.471050279214978">
        <time>2022-01-25T11:05:27+00:00</time>
        <ele>2924.0</ele>
      </trkpt>
      <trkpt lat="44.768957952037454" lon="6.4710508659482">
        <time>2022-01-25T11:05:28+00:00</time>
        <ele>2924.0</ele>
      </trkpt>
      <trkpt lat="44.76895619183779" lon="6.471053631976247">
        <time>2022-01-25T11:05:33+00:00</time>
        <ele>2924.0</ele>
      </trkpt>
      <trkpt lat="44.76894848048687" lon="6.471065450459719">
        <time>2022-01-25T11:05:53+00:00</time>
        <ele>2924.0</ele>
      </trkpt>
      <trkpt lat="44.76894445717335" lon="6.4710714016109705">
        <time>2022-01-25T11:06:03+00:00</time>
        <ele>2924.0</ele>
      </trkpt>
      <trkpt lat="44.768935572355986" lon="6.471084477379918">
        <time>2022-01-25T11:06:26+00:00</time>
        <ele>2924.0</ele>
      </trkpt>
      <trkpt lat="44.768930124118924" lon="6.47109285928309">
        <time>2022-01-25T11:06:41+00:00</time>
        <ele>2924.0</ele>
      </trkpt>
      <trkpt lat="44.768927190452814" lon="6.471097385510802">
        <time>2022-01-25T11:06:49+00:00</time>
        <ele>2924.0</ele>
      </trkpt>
      <trkpt lat="44.76892543025315" lon="6.471100151538849">
        <time>2022-01-25T11:06:54+00:00</time>
        <ele>2925.0</ele>
      </trkpt>
      <trkpt lat="44.76892392151058" lon="6.4711023308336735">
        <time>2022-01-25T11:06:58+00:00</time>
        <ele>2925.0</ele>
      </trkpt>
      <trkpt lat="44.768922831863165" lon="6.471104007214308">
        <time>2022-01-25T11:07:01+00:00</time>
        <ele>2925.0</ele>
      </trkpt>
      <trkpt lat="44.76892249658704" lon="6.471104510128498">
        <time>2022-01-25T11:07:02+00:00</time>
        <ele>2925.0</ele>
      </trkpt>
      <trkpt lat="44.76892023347318" lon="6.471107276156545">
        <time>2022-01-25T11:07:08+00:00</time>
        <ele>2925.0</ele>
      </trkpt>
      <trkpt lat="44.76891729980707" lon="6.471110377460718">
        <time>2022-01-25T11:07:16+00:00</time>
        <ele>2925.0</ele>
      </trkpt>
      <trkpt lat="44.76891612634063" lon="6.471111383289099">
        <time>2022-01-25T11:07:19+00:00</time>
        <ele>2925.0</ele>
      </trkpt>
      <trkpt lat="44.76891118101776" lon="6.471114819869399">
        <time>2022-01-25T11:07:32+00:00</time>
        <ele>2925.0</ele>
      </trkpt>
      <trkpt lat="44.76891042664647" lon="6.471115238964558">
        <time>2022-01-25T11:07:34+00:00</time>
        <ele>2925.0</ele>
      </trkpt>
      <trkpt lat="44.76890841498971" lon="6.4711161609739065">
        <time>2022-01-25T11:07:39+00:00</time>
        <ele>2925.0</ele>
      </trkpt>
      <trkpt lat="44.76890606805682" lon="6.4711173344403505">
        <time>2022-01-25T11:07:45+00:00</time>
        <ele>2925.0</ele>
      </trkpt>
      <trkpt lat="44.76890564896166" lon="6.471117502078414">
        <time>2022-01-25T11:07:46+00:00</time>
        <ele>2925.0</ele>
      </trkpt>
      <trkpt lat="44.76890321820974" lon="6.4711185079067945">
        <time>2022-01-25T11:07:52+00:00</time>
        <ele>2925.0</ele>
      </trkpt>
      <trkpt lat="44.768901290372014" lon="6.471119346097112">
        <time>2022-01-25T11:07:57+00:00</time>
        <ele>2926.0</ele>
      </trkpt>
      <trkpt lat="44.76889852434397" lon="6.471120351925492">
        <time>2022-01-25T11:08:04+00:00</time>
        <ele>2926.0</ele>
      </trkpt>
      <trkpt lat="44.768895506858826" lon="6.471121190115809">
        <time>2022-01-25T11:08:12+00:00</time>
        <ele>2926.0</ele>
      </trkpt>
      <trkpt lat="44.76889508776367" lon="6.471121190115809">
        <time>2022-01-25T11:08:13+00:00</time>
        <ele>2926.0</ele>
      </trkpt>
      <trkpt lat="44.76889072917402" lon="6.471121525391936">
        <time>2022-01-25T11:08:24+00:00</time>
        <ele>2926.0</ele>
      </trkpt>
      <trkpt lat="44.76888754405081" lon="6.471121273934841">
        <time>2022-01-25T11:08:32+00:00</time>
        <ele>2926.0</ele>
      </trkpt>
      <trkpt lat="44.768881844356656" lon="6.471120351925492">
        <time>2022-01-25T11:08:46+00:00</time>
        <ele>2927.0</ele>
      </trkpt>
      <trkpt lat="44.768879413604736" lon="6.471119597554207">
        <time>2022-01-25T11:08:52+00:00</time>
        <ele>2927.0</ele>
      </trkpt>
      <trkpt lat="44.76887907832861" lon="6.471119513735175">
        <time>2022-01-25T11:08:53+00:00</time>
        <ele>2927.0</ele>
      </trkpt>
      <trkpt lat="44.76887404918671" lon="6.471117166802287">
        <time>2022-01-25T11:09:05+00:00</time>
        <ele>2927.0</ele>
      </trkpt>
      <trkpt lat="44.76887078024447" lon="6.471115238964558">
        <time>2022-01-25T11:09:13+00:00</time>
        <ele>2928.0</ele>
      </trkpt>
      <trkpt lat="44.76887036114931" lon="6.4711149875074625">
        <time>2022-01-25T11:09:14+00:00</time>
        <ele>2928.0</ele>
      </trkpt>
      <trkpt lat="44.76886868476868" lon="6.471113981679082">
        <time>2022-01-25T11:09:18+00:00</time>
        <ele>2928.0</ele>
      </trkpt>
      <trkpt lat="44.76886700838804" lon="6.471112975850701">
        <time>2022-01-25T11:09:22+00:00</time>
        <ele>2928.0</ele>
      </trkpt>
      <trkpt lat="44.76886575110257" lon="6.471112137660384">
        <time>2022-01-25T11:09:25+00:00</time>
        <ele>2928.0</ele>
      </trkpt>
      <trkpt lat="44.768863655626774" lon="6.471110545098782">
        <time>2022-01-25T11:09:30+00:00</time>
        <ele>2928.0</ele>
      </trkpt>
      <trkpt lat="44.76886281743646" lon="6.47110995836556">
        <time>2022-01-25T11:09:32+00:00</time>
        <ele>2928.0</ele>
      </trkpt>
      <trkpt lat="44.76885996758938" lon="6.471107443794608">
        <time>2022-01-25T11:09:39+00:00</time>
        <ele>2929.0</ele>
      </trkpt>
      <trkpt lat="44.76885326206684" lon="6.471100738272071">
        <time>2022-01-25T11:09:56+00:00</time>
        <ele>2929.0</ele>
      </trkpt>
      <trkpt lat="44.768850998952985" lon="6.471098223701119">
        <time>2022-01-25T11:10:02+00:00</time>
        <ele>2929.0</ele>
      </trkpt>
      <trkpt lat="44.76884915493429" lon="6.471095960587263">
        <time>2022-01-25T11:10:07+00:00</time>
        <ele>2930.0</ele>
      </trkpt>
      <trkpt lat="44.76884731091559" lon="6.471093613654375">
        <time>2022-01-25T11:10:12+00:00</time>
        <ele>2930.0</ele>
      </trkpt>
      <trkpt lat="44.76884622126818" lon="6.471092188730836">
        <time>2022-01-25T11:10:15+00:00</time>
        <ele>2930.0</ele>
      </trkpt>
      <trkpt lat="44.76884555071592" lon="6.471091266721487">
        <time>2022-01-25T11:10:17+00:00</time>
        <ele>2930.0</ele>
      </trkpt>
      <trkpt lat="44.76884203031659" lon="6.471086237579584">
        <time>2022-01-25T11:10:27+00:00</time>
        <ele>2930.0</ele>
      </trkpt>
      <trkpt lat="44.76884001865983" lon="6.471083136275411">
        <time>2022-01-25T11:10:33+00:00</time>
        <ele>2930.0</ele>
      </trkpt>
      <trkpt lat="44.768838761374354" lon="6.471081040799618">
        <time>2022-01-25T11:10:37+00:00</time>
        <ele>2931.0</ele>
      </trkpt>
      <trkpt lat="44.768835324794054" lon="6.471074838191271">
        <time>2022-01-25T11:10:48+00:00</time>
        <ele>2931.0</ele>
      </trkpt>
      <trkpt lat="44.76883498951793" lon="6.471074251458049">
        <time>2022-01-25T11:10:49+00:00</time>
        <ele>2931.0</ele>
      </trkpt>
      <trkpt lat="44.76883473806083" lon="6.471073664724827">
        <time>2022-01-25T11:10:50+00:00</time>
        <ele>2931.0</ele>
      </trkpt>
      <trkpt lat="44.768834402784705" lon="6.471073077991605">
        <time>2022-01-25T11:10:51+00:00</time>
        <ele>2931.0</ele>
      </trkpt>
      <trkpt lat="44.76883322931826" lon="6.471070731058717">
        <time>2022-01-25T11:10:55+00:00</time>
        <ele>2931.0</ele>
      </trkpt>
      <trkpt lat="44.76883213967085" lon="6.471068216487765">
        <time>2022-01-25T11:10:59+00:00</time>
        <ele>2931.0</ele>
      </trkpt>
      <trkpt lat="44.768830463290215" lon="6.47106452845037">
        <time>2022-01-25T11:11:05+00:00</time>
        <ele>2932.0</ele>
      </trkpt>
      <trkpt lat="44.7688296250999" lon="6.471062684431672">
        <time>2022-01-25T11:11:08+00:00</time>
        <ele>2932.0</ele>
      </trkpt>
      <trkpt lat="44.76882928982377" lon="6.471062013879418">
        <time>2022-01-25T11:11:09+00:00</time>
        <ele>2932.0</ele>
      </trkpt>
      <trkpt lat="44.76882786490023" lon="6.471058912575245">
        <time>2022-01-25T11:11:14+00:00</time>
        <ele>2932.0</ele>
      </trkpt>
      <trkpt lat="44.76882669143379" lon="6.471056481823325">
        <time>2022-01-25T11:11:18+00:00</time>
        <ele>2932.0</ele>
      </trkpt>
      <trkpt lat="44.76882643997669" lon="6.471055811271071">
        <time>2022-01-25T11:11:19+00:00</time>
        <ele>2932.0</ele>
      </trkpt>
      <trkpt lat="44.76882400922477" lon="6.4710508659482">
        <time>2022-01-25T11:11:27+00:00</time>
        <ele>2932.0</ele>
      </trkpt>
      <trkpt lat="44.768823087215424" lon="6.471048938110471">
        <time>2022-01-25T11:11:30+00:00</time>
        <ele>2932.0</ele>
      </trkpt>
      <trkpt lat="44.76881956681609" lon="6.4710410591214895">
        <time>2022-01-25T11:11:42+00:00</time>
        <ele>2933.0</ele>
      </trkpt>
      <trkpt lat="44.768819231539965" lon="6.471040388569236">
        <time>2022-01-25T11:11:43+00:00</time>
        <ele>2933.0</ele>
      </trkpt>
      <trkpt lat="44.768817806616426" lon="6.471037119626999">
        <time>2022-01-25T11:11:48+00:00</time>
        <ele>2933.0</ele>
      </trkpt>
      <trkpt lat="44.76881613023579" lon="6.47103326395154">
        <time>2022-01-25T11:11:54+00:00</time>
        <ele>2933.0</ele>
      </trkpt>
      <trkpt lat="44.76881277747452" lon="6.471025133505464">
        <time>2022-01-25T11:12:06+00:00</time>
        <ele>2934.0</ele>
      </trkpt>
      <trkpt lat="44.768811939284205" lon="6.471023121848702">
        <time>2022-01-25T11:12:09+00:00</time>
        <ele>2934.0</ele>
      </trkpt>
      <trkpt lat="44.768810514360666" lon="6.47101960144937">
        <time>2022-01-25T11:12:14+00:00</time>
        <ele>2934.0</ele>
      </trkpt>
      <trkpt lat="44.76881017908454" lon="6.471018930897117">
        <time>2022-01-25T11:12:15+00:00</time>
        <ele>2934.0</ele>
      </trkpt>
      <trkpt lat="44.76880682632327" lon="6.47101029753685">
        <time>2022-01-25T11:12:27+00:00</time>
        <ele>2935.0</ele>
      </trkpt>
      <trkpt lat="44.76880230009556" lon="6.470998395234346">
        <time>2022-01-25T11:12:43+00:00</time>
        <ele>2935.0</ele>
      </trkpt>
      <trkpt lat="44.76880204863846" lon="6.470997557044029">
        <time>2022-01-25T11:12:44+00:00</time>
        <ele>2935.0</ele>
      </trkpt>
      <trkpt lat="44.76880095899105" lon="6.470994455739856">
        <time>2022-01-25T11:12:48+00:00</time>
        <ele>2935.0</ele>
      </trkpt>
      <trkpt lat="44.768800120800734" lon="6.4709921926259995">
        <time>2022-01-25T11:12:51+00:00</time>
        <ele>2936.0</ele>
      </trkpt>
      <trkpt lat="44.76879551075399" lon="6.470978865399957">
        <time>2022-01-25T11:13:08+00:00</time>
        <ele>2936.0</ele>
      </trkpt>
      <trkpt lat="44.7687931638211" lon="6.470971824601293">
        <time>2022-01-25T11:13:17+00:00</time>
        <ele>2937.0</ele>
      </trkpt>
      <trkpt lat="44.768791822716594" lon="6.470967968925834">
        <time>2022-01-25T11:13:22+00:00</time>
        <ele>2937.0</ele>
      </trkpt>
      <trkpt lat="44.76878729648888" lon="6.470954390242696">
        <time>2022-01-25T11:13:40+00:00</time>
        <ele>2938.0</ele>
      </trkpt>
      <trkpt lat="44.7687862906605" lon="6.470951456576586">
        <time>2022-01-25T11:13:44+00:00</time>
        <ele>2938.0</ele>
      </trkpt>
      <trkpt lat="44.76878385990858" lon="6.470943996682763">
        <time>2022-01-25T11:13:54+00:00</time>
        <ele>2938.0</ele>
      </trkpt>
      <trkpt lat="44.7687828540802" lon="6.470940811559558">
        <time>2022-01-25T11:13:58+00:00</time>
        <ele>2938.0</ele>
      </trkpt>
      <trkpt lat="44.76878084242344" lon="6.470933519303799">
        <time>2022-01-25T11:14:07+00:00</time>
        <ele>2939.0</ele>
      </trkpt>
      <trkpt lat="44.768779166042805" lon="6.4709279872477055">
        <time>2022-01-25T11:14:14+00:00</time>
        <ele>2939.0</ele>
      </trkpt>
      <trkpt lat="44.76877849549055" lon="6.470925556495786">
        <time>2022-01-25T11:14:17+00:00</time>
        <ele>2939.0</ele>
      </trkpt>
      <trkpt lat="44.76877807639539" lon="6.470923963934183">
        <time>2022-01-25T11:14:19+00:00</time>
        <ele>2939.0</ele>
      </trkpt>
      <trkpt lat="44.7687775734812" lon="6.4709223713725805">
        <time>2022-01-25T11:14:21+00:00</time>
        <ele>2939.0</ele>
      </trkpt>
      <trkpt lat="44.768776735290885" lon="6.470919270068407">
        <time>2022-01-25T11:14:25+00:00</time>
        <ele>2939.0</ele>
      </trkpt>
      <trkpt lat="44.768772879615426" lon="6.4709061942994595">
        <time>2022-01-25T11:14:42+00:00</time>
        <ele>2940.0</ele>
      </trkpt>
      <trkpt lat="44.768771789968014" lon="6.4709023386240005">
        <time>2022-01-25T11:14:47+00:00</time>
        <ele>2940.0</ele>
      </trkpt>
      <trkpt lat="44.76876961067319" lon="6.4708952978253365">
        <time>2022-01-25T11:14:56+00:00</time>
        <ele>2941.0</ele>
      </trkpt>
      <trkpt lat="44.768766928464174" lon="6.470886580646038">
        <time>2022-01-25T11:15:07+00:00</time>
        <ele>2941.0</ele>
      </trkpt>
      <trkpt lat="44.76876667700708" lon="6.470885826274753">
        <time>2022-01-25T11:15:08+00:00</time>
        <ele>2941.0</ele>
      </trkpt>
      <trkpt lat="44.768765503540635" lon="6.470881719142199">
        <time>2022-01-25T11:15:13+00:00</time>
        <ele>2941.0</ele>
      </trkpt>
      <trkpt lat="44.768764581531286" lon="6.470878450199962">
        <time>2022-01-25T11:15:17+00:00</time>
        <ele>2941.0</ele>
      </trkpt>
      <trkpt lat="44.76876265369356" lon="6.470871828496456">
        <time>2022-01-25T11:15:25+00:00</time>
        <ele>2941.0</ele>
      </trkpt>
      <trkpt lat="44.768762066960335" lon="6.470869230106473">
        <time>2022-01-25T11:15:28+00:00</time>
        <ele>2941.0</ele>
      </trkpt>
      <trkpt lat="44.76876139640808" lon="6.4708667155355215">
        <time>2022-01-25T11:15:31+00:00</time>
        <ele>2941.0</ele>
      </trkpt>
      <trkpt lat="44.76876072585583" lon="6.470864117145538">
        <time>2022-01-25T11:15:34+00:00</time>
        <ele>2941.0</ele>
      </trkpt>
      <trkpt lat="44.76875946857035" lon="6.47085883654654">
        <time>2022-01-25T11:15:40+00:00</time>
        <ele>2942.0</ele>
      </trkpt>
      <trkpt lat="44.768758211284876" lon="6.470853388309479">
        <time>2022-01-25T11:15:46+00:00</time>
        <ele>2942.0</ele>
      </trkpt>
      <trkpt lat="44.76875502616167" lon="6.470839893445373">
        <time>2022-01-25T11:16:01+00:00</time>
        <ele>2942.0</ele>
      </trkpt>
      <trkpt lat="44.76875452324748" lon="6.470838133245707">
        <time>2022-01-25T11:16:03+00:00</time>
        <ele>2942.0</ele>
      </trkpt>
      <trkpt lat="44.76875360123813" lon="6.4708346128463745">
        <time>2022-01-25T11:16:07+00:00</time>
        <ele>2943.0</ele>
      </trkpt>
      <trkpt lat="44.768750416114926" lon="6.470822123810649">
        <time>2022-01-25T11:16:21+00:00</time>
        <ele>2943.0</ele>
      </trkpt>
      <trkpt lat="44.768748823553324" lon="6.4708157535642385">
        <time>2022-01-25T11:16:28+00:00</time>
        <ele>2943.0</ele>
      </trkpt>
      <trkpt lat="44.76874865591526" lon="6.470814915373921">
        <time>2022-01-25T11:16:29+00:00</time>
        <ele>2943.0</ele>
      </trkpt>
      <trkpt lat="44.7687482368201" lon="6.470813071355224">
        <time>2022-01-25T11:16:31+00:00</time>
        <ele>2943.0</ele>
      </trkpt>
      <trkpt lat="44.76874672807753" lon="6.470806617289782">
        <time>2022-01-25T11:16:38+00:00</time>
        <ele>2944.0</ele>
      </trkpt>
      <trkpt lat="44.76874630898237" lon="6.470804773271084">
        <time>2022-01-25T11:16:40+00:00</time>
        <ele>2944.0</ele>
      </trkpt>
      <trkpt lat="44.76874195039272" lon="6.470782728865743">
        <time>2022-01-25T11:17:03+00:00</time>
        <ele>2945.0</ele>
      </trkpt>
      <trkpt lat="44.76874127984047" lon="6.470778789371252">
        <time>2022-01-25T11:17:07+00:00</time>
        <ele>2945.0</ele>
      </trkpt>
      <trkpt lat="44.76874094456434" lon="6.470776777714491">
        <time>2022-01-25T11:17:09+00:00</time>
        <ele>2945.0</ele>
      </trkpt>
      <trkpt lat="44.76874077692628" lon="6.470775688067079">
        <time>2022-01-25T11:17:10+00:00</time>
        <ele>2945.0</ele>
      </trkpt>
      <trkpt lat="44.76873599924147" lon="6.470745513215661">
        <time>2022-01-25T11:17:39+00:00</time>
        <ele>2946.0</ele>
      </trkpt>
      <trkpt lat="44.76873549632728" lon="6.470742328092456">
        <time>2022-01-25T11:17:42+00:00</time>
        <ele>2946.0</ele>
      </trkpt>
      <trkpt lat="44.76873499341309" lon="6.470739059150219">
        <time>2022-01-25T11:17:45+00:00</time>
        <ele>2946.0</ele>
      </trkpt>
      <trkpt lat="44.768730383366346" lon="6.47071567364037">
        <time>2022-01-25T11:18:07+00:00</time>
        <ele>2947.0</ele>
      </trkpt>
      <trkpt lat="44.76872812025249" lon="6.470704106613994">
        <time>2022-01-25T11:18:18+00:00</time>
        <ele>2948.0</ele>
      </trkpt>
      <trkpt lat="44.76872677914798" lon="6.4706964790821075">
        <time>2022-01-25T11:18:25+00:00</time>
        <ele>2948.0</ele>
      </trkpt>
      <trkpt lat="44.7687257733196" lon="6.470689857378602">
        <time>2022-01-25T11:18:31+00:00</time>
        <ele>2948.0</ele>
      </trkpt>
      <trkpt lat="44.76872527040541" lon="6.470686420798302">
        <time>2022-01-25T11:18:34+00:00</time>
        <ele>2949.0</ele>
      </trkpt>
      <trkpt lat="44.768724432215095" lon="6.470680553466082">
        <time>2022-01-25T11:18:39+00:00</time>
        <ele>2949.0</ele>
      </trkpt>
      <trkpt lat="44.768722923472524" lon="6.470667729154229">
        <time>2022-01-25T11:18:50+00:00</time>
        <ele>2949.0</ele>
      </trkpt>
      <trkpt lat="44.768722504377365" lon="6.470664208754897">
        <time>2022-01-25T11:18:53+00:00</time>
        <ele>2950.0</ele>
      </trkpt>
      <trkpt lat="44.7687223367393" lon="6.470662951469421">
        <time>2022-01-25T11:18:54+00:00</time>
        <ele>2950.0</ele>
      </trkpt>
      <trkpt lat="44.768721498548985" lon="6.47065456956625">
        <time>2022-01-25T11:19:01+00:00</time>
        <ele>2950.0</ele>
      </trkpt>
      <trkpt lat="44.76872040890157" lon="6.470642499625683">
        <time>2022-01-25T11:19:11+00:00</time>
        <ele>2950.0</ele>
      </trkpt>
      <trkpt lat="44.76871797814965" lon="6.470614168792963">
        <time>2022-01-25T11:19:34+00:00</time>
        <ele>2952.0</ele>
      </trkpt>
      <trkpt lat="44.76871596649289" lon="6.47059204056859">
        <time>2022-01-25T11:19:52+00:00</time>
        <ele>2953.0</ele>
      </trkpt>
      <trkpt lat="44.768714122474194" lon="6.4705707505345345">
        <time>2022-01-25T11:20:10+00:00</time>
        <ele>2954.0</ele>
      </trkpt>
      <trkpt lat="44.76871361956" lon="6.470563877373934">
        <time>2022-01-25T11:20:16+00:00</time>
        <ele>2954.0</ele>
      </trkpt>
      <trkpt lat="44.76871345192194" lon="6.47056270390749">
        <time>2022-01-25T11:20:17+00:00</time>
        <ele>2954.0</ele>
      </trkpt>
      <trkpt lat="44.76871336810291" lon="6.470561530441046">
        <time>2022-01-25T11:20:18+00:00</time>
        <ele>2954.0</ele>
      </trkpt>
      <trkpt lat="44.768713284283876" lon="6.470560356974602">
        <time>2022-01-25T11:20:19+00:00</time>
        <ele>2954.0</ele>
      </trkpt>
      <trkpt lat="44.768713200464845" lon="6.470559099689126">
        <time>2022-01-25T11:20:20+00:00</time>
        <ele>2954.0</ele>
      </trkpt>
      <trkpt lat="44.76871303282678" lon="6.470556752756238">
        <time>2022-01-25T11:20:22+00:00</time>
        <ele>2955.0</ele>
      </trkpt>
      <trkpt lat="44.76871244609356" lon="6.470549376681447">
        <time>2022-01-25T11:20:28+00:00</time>
        <ele>2955.0</ele>
      </trkpt>
      <trkpt lat="44.76871211081743" lon="6.470544347539544">
        <time>2022-01-25T11:20:32+00:00</time>
        <ele>2955.0</ele>
      </trkpt>
      <trkpt lat="44.768710350617766" lon="6.470519537106156">
        <time>2022-01-25T11:20:52+00:00</time>
        <ele>2957.0</ele>
      </trkpt>
      <trkpt lat="44.76870917715132" lon="6.470506377518177">
        <time>2022-01-25T11:21:03+00:00</time>
        <ele>2957.0</ele>
      </trkpt>
      <trkpt lat="44.76870892569423" lon="6.470502857118845">
        <time>2022-01-25T11:21:06+00:00</time>
        <ele>2957.0</ele>
      </trkpt>
      <trkpt lat="44.768706914037466" lon="6.470485255122185">
        <time>2022-01-25T11:21:21+00:00</time>
        <ele>2958.0</ele>
      </trkpt>
      <trkpt lat="44.7687067463994" lon="6.470484081655741">
        <time>2022-01-25T11:21:22+00:00</time>
        <ele>2958.0</ele>
      </trkpt>
      <trkpt lat="44.76870649494231" lon="6.470481650903821">
        <time>2022-01-25T11:21:24+00:00</time>
        <ele>2959.0</ele>
      </trkpt>
      <trkpt lat="44.76870615966618" lon="6.4704791363328695">
        <time>2022-01-25T11:21:26+00:00</time>
        <ele>2959.0</ele>
      </trkpt>
      <trkpt lat="44.76870574057102" lon="6.470476621761918">
        <time>2022-01-25T11:21:28+00:00</time>
        <ele>2959.0</ele>
      </trkpt>
      <trkpt lat="44.768705405294895" lon="6.470474107190967">
        <time>2022-01-25T11:21:30+00:00</time>
        <ele>2959.0</ele>
      </trkpt>
      <trkpt lat="44.76870498619974" lon="6.470471508800983">
        <time>2022-01-25T11:21:32+00:00</time>
        <ele>2959.0</ele>
      </trkpt>
      <trkpt lat="44.76870456710458" lon="6.470468994230032">
        <time>2022-01-25T11:21:34+00:00</time>
        <ele>2959.0</ele>
      </trkpt>
      <trkpt lat="44.76870381273329" lon="6.470465138554573">
        <time>2022-01-25T11:21:37+00:00</time>
        <ele>2959.0</ele>
      </trkpt>
      <trkpt lat="44.76869911886752" lon="6.47044200450182">
        <time>2022-01-25T11:21:55+00:00</time>
        <ele>2961.0</ele>
      </trkpt>
      <trkpt lat="44.76869886741042" lon="6.470440747216344">
        <time>2022-01-25T11:21:56+00:00</time>
        <ele>2961.0</ele>
      </trkpt>
      <trkpt lat="44.768697610124946" lon="6.4704355504363775">
        <time>2022-01-25T11:22:00+00:00</time>
        <ele>2961.0</ele>
      </trkpt>
      <trkpt lat="44.76869551464915" lon="6.4704264141619205">
        <time>2022-01-25T11:22:07+00:00</time>
        <ele>2961.0</ele>
      </trkpt>
      <trkpt lat="44.76869425736368" lon="6.470421217381954">
        <time>2022-01-25T11:22:11+00:00</time>
        <ele>2962.0</ele>
      </trkpt>
      <trkpt lat="44.76869400590658" lon="6.4704199600964785">
        <time>2022-01-25T11:22:12+00:00</time>
        <ele>2962.0</ele>
      </trkpt>
      <trkpt lat="44.768692748621106" lon="6.470414595678449">
        <time>2022-01-25T11:22:16+00:00</time>
        <ele>2962.0</ele>
      </trkpt>
      <trkpt lat="44.76869090460241" lon="6.470406549051404">
        <time>2022-01-25T11:22:22+00:00</time>
        <ele>2962.0</ele>
      </trkpt>
      <trkpt lat="44.76868998259306" lon="6.47040244191885">
        <time>2022-01-25T11:22:25+00:00</time>
        <ele>2963.0</ele>
      </trkpt>
      <trkpt lat="44.7686877194792" lon="6.4703925512731075">
        <time>2022-01-25T11:22:32+00:00</time>
        <ele>2963.0</ele>
      </trkpt>
      <trkpt lat="44.76868570782244" lon="6.470383834093809">
        <time>2022-01-25T11:22:38+00:00</time>
        <ele>2964.0</ele>
      </trkpt>
      <trkpt lat="44.76868210360408" lon="6.470367321744561">
        <time>2022-01-25T11:22:49+00:00</time>
        <ele>2964.0</ele>
      </trkpt>
      <trkpt lat="44.768680427223444" lon="6.470359526574612">
        <time>2022-01-25T11:22:54+00:00</time>
        <ele>2965.0</ele>
      </trkpt>
      <trkpt lat="44.76867665536702" lon="6.470341924577951">
        <time>2022-01-25T11:23:05+00:00</time>
        <ele>2966.0</ele>
      </trkpt>
      <trkpt lat="44.76867338642478" lon="6.470325663685799">
        <time>2022-01-25T11:23:15+00:00</time>
        <ele>2967.0</ele>
      </trkpt>
      <trkpt lat="44.768672715872526" lon="6.470322394743562">
        <time>2022-01-25T11:23:17+00:00</time>
        <ele>2967.0</ele>
      </trkpt>
      <trkpt lat="44.768672129139304" lon="6.470319041982293">
        <time>2022-01-25T11:23:19+00:00</time>
        <ele>2967.0</ele>
      </trkpt>
      <trkpt lat="44.768671123310924" lon="6.470314180478454">
        <time>2022-01-25T11:23:22+00:00</time>
        <ele>2967.0</ele>
      </trkpt>
      <trkpt lat="44.76866760291159" lon="6.470295824110508">
        <time>2022-01-25T11:23:33+00:00</time>
        <ele>2968.0</ele>
      </trkpt>
      <trkpt lat="44.76866693235934" lon="6.470292387530208">
        <time>2022-01-25T11:23:35+00:00</time>
        <ele>2968.0</ele>
      </trkpt>
      <trkpt lat="44.768665339797735" lon="6.470283837988973">
        <time>2022-01-25T11:23:40+00:00</time>
        <ele>2968.0</ele>
      </trkpt>
      <trkpt lat="44.768663411960006" lon="6.47027344442904">
        <time>2022-01-25T11:23:46+00:00</time>
        <ele>2969.0</ele>
      </trkpt>
      <trkpt lat="44.768657460808754" lon="6.470241341739893">
        <time>2022-01-25T11:24:04+00:00</time>
        <ele>2970.0</ele>
      </trkpt>
      <trkpt lat="44.76865637116134" lon="6.4702358935028315">
        <time>2022-01-25T11:24:07+00:00</time>
        <ele>2971.0</ele>
      </trkpt>
      <trkpt lat="44.76865394040942" lon="6.470223236829042">
        <time>2022-01-25T11:24:14+00:00</time>
        <ele>2971.0</ele>
      </trkpt>
      <trkpt lat="44.76865075528622" lon="6.470206892117858">
        <time>2022-01-25T11:24:23+00:00</time>
        <ele>2972.0</ele>
      </trkpt>
      <trkpt lat="44.76864891126752" lon="6.470197755843401">
        <time>2022-01-25T11:24:28+00:00</time>
        <ele>2972.0</ele>
      </trkpt>
      <trkpt lat="44.76864639669657" lon="6.470184763893485">
        <time>2022-01-25T11:24:35+00:00</time>
        <ele>2973.0</ele>
      </trkpt>
      <trkpt lat="44.76864606142044" lon="6.470182919874787">
        <time>2022-01-25T11:24:36+00:00</time>
        <ele>2973.0</ele>
      </trkpt>
      <trkpt lat="44.768642792478204" lon="6.470166239887476">
        <time>2022-01-25T11:24:45+00:00</time>
        <ele>2974.0</ele>
      </trkpt>
      <trkpt lat="44.76864212192595" lon="6.4701625518500805">
        <time>2022-01-25T11:24:47+00:00</time>
        <ele>2974.0</ele>
      </trkpt>
      <trkpt lat="44.768637428060174" lon="6.470138328149915">
        <time>2022-01-25T11:25:00+00:00</time>
        <ele>2975.0</ele>
      </trkpt>
      <trkpt lat="44.76863633841276" lon="6.47013271227479">
        <time>2022-01-25T11:25:03+00:00</time>
        <ele>2975.0</ele>
      </trkpt>
      <trkpt lat="44.768635584041476" lon="6.470128940418363">
        <time>2022-01-25T11:25:05+00:00</time>
        <ele>2975.0</ele>
      </trkpt>
      <trkpt lat="44.76863441057503" lon="6.470123240724206">
        <time>2022-01-25T11:25:08+00:00</time>
        <ele>2976.0</ele>
      </trkpt>
      <trkpt lat="44.76863332092762" lon="6.470117541030049">
        <time>2022-01-25T11:25:11+00:00</time>
        <ele>2976.0</ele>
      </trkpt>
      <trkpt lat="44.76863097399473" lon="6.470106057822704">
        <time>2022-01-25T11:25:17+00:00</time>
        <ele>2976.0</ele>
      </trkpt>
      <trkpt lat="44.768623262643814" lon="6.470069512724876">
        <time>2022-01-25T11:25:36+00:00</time>
        <ele>2978.0</ele>
      </trkpt>
      <trkpt lat="44.7686224244535" lon="6.4700656570494175">
        <time>2022-01-25T11:25:38+00:00</time>
        <ele>2978.0</ele>
      </trkpt>
      <trkpt lat="44.7686189878732" lon="6.470050234347582">
        <time>2022-01-25T11:25:46+00:00</time>
        <ele>2979.0</ele>
      </trkpt>
      <trkpt lat="44.76861856877804" lon="6.470048306509852">
        <time>2022-01-25T11:25:47+00:00</time>
        <ele>2979.0</ele>
      </trkpt>
      <trkpt lat="44.76861722767353" lon="6.470042522996664">
        <time>2022-01-25T11:25:50+00:00</time>
        <ele>2979.0</ele>
      </trkpt>
      <trkpt lat="44.76861362345517" lon="6.470027016475797">
        <time>2022-01-25T11:25:58+00:00</time>
        <ele>2980.0</ele>
      </trkpt>
      <trkpt lat="44.76861312054098" lon="6.470025088638067">
        <time>2022-01-25T11:25:59+00:00</time>
        <ele>2980.0</ele>
      </trkpt>
      <trkpt lat="44.76860783994198" lon="6.470003966242075">
        <time>2022-01-25T11:26:10+00:00</time>
        <ele>2980.0</ele>
      </trkpt>
      <trkpt lat="44.768602810800076" lon="6.469985023140907">
        <time>2022-01-25T11:26:20+00:00</time>
        <ele>2981.0</ele>
      </trkpt>
      <trkpt lat="44.768600799143314" lon="6.469977479428053">
        <time>2022-01-25T11:26:24+00:00</time>
        <ele>2982.0</ele>
      </trkpt>
      <trkpt lat="44.76859040558338" lon="6.469938922673464">
        <time>2022-01-25T11:26:45+00:00</time>
        <ele>2983.0</ele>
      </trkpt>
      <trkpt lat="44.768585124984384" lon="6.469918554648757">
        <time>2022-01-25T11:26:56+00:00</time>
        <ele>2984.0</ele>
      </trkpt>
      <trkpt lat="44.76858311332762" lon="6.469911094754934">
        <time>2022-01-25T11:27:00+00:00</time>
        <ele>2984.0</ele>
      </trkpt>
      <trkpt lat="44.76858118548989" lon="6.46990355104208">
        <time>2022-01-25T11:27:04+00:00</time>
        <ele>2984.0</ele>
      </trkpt>
      <trkpt lat="44.76857967674732" lon="6.469897851347923">
        <time>2022-01-25T11:27:07+00:00</time>
        <ele>2985.0</ele>
      </trkpt>
      <trkpt lat="44.76857422851026" lon="6.469876896589994">
        <time>2022-01-25T11:27:18+00:00</time>
        <ele>2985.0</ele>
      </trkpt>
      <trkpt lat="44.76857271976769" lon="6.469871196895838">
        <time>2022-01-25T11:27:21+00:00</time>
        <ele>2986.0</ele>
      </trkpt>
      <trkpt lat="44.76856970228255" lon="6.469859713688493">
        <time>2022-01-25T11:27:27+00:00</time>
        <ele>2986.0</ele>
      </trkpt>
      <trkpt lat="44.76856919936836" lon="6.469857785850763">
        <time>2022-01-25T11:27:28+00:00</time>
        <ele>2986.0</ele>
      </trkpt>
      <trkpt lat="44.76856869645417" lon="6.469855941832066">
        <time>2022-01-25T11:27:29+00:00</time>
        <ele>2986.0</ele>
      </trkpt>
      <trkpt lat="44.768563667312264" lon="6.469836663454771">
        <time>2022-01-25T11:27:39+00:00</time>
        <ele>2986.0</ele>
      </trkpt>
      <trkpt lat="44.76856115274131" lon="6.46982685662806">
        <time>2022-01-25T11:27:44+00:00</time>
        <ele>2987.0</ele>
      </trkpt>
      <trkpt lat="44.76855813525617" lon="6.46981512196362">
        <time>2022-01-25T11:27:50+00:00</time>
        <ele>2987.0</ele>
      </trkpt>
      <trkpt lat="44.76855712942779" lon="6.46981118246913">
        <time>2022-01-25T11:27:52+00:00</time>
        <ele>2987.0</ele>
      </trkpt>
      <trkpt lat="44.76855369284749" lon="6.4697973523288965">
        <time>2022-01-25T11:27:59+00:00</time>
        <ele>2988.0</ele>
      </trkpt>
      <trkpt lat="44.7685531899333" lon="6.469795340672135">
        <time>2022-01-25T11:28:00+00:00</time>
        <ele>2988.0</ele>
      </trkpt>
      <trkpt lat="44.76855008862913" lon="6.4697835221886635">
        <time>2022-01-25T11:28:06+00:00</time>
        <ele>2988.0</ele>
      </trkpt>
      <trkpt lat="44.768549585714936" lon="6.469781510531902">
        <time>2022-01-25T11:28:07+00:00</time>
        <ele>2988.0</ele>
      </trkpt>
      <trkpt lat="44.76854531094432" lon="6.469765501096845">
        <time>2022-01-25T11:28:15+00:00</time>
        <ele>2988.0</ele>
      </trkpt>
      <trkpt lat="44.76854422129691" lon="6.469761561602354">
        <time>2022-01-25T11:28:17+00:00</time>
        <ele>2988.0</ele>
      </trkpt>
      <trkpt lat="44.768543131649494" lon="6.469757538288832">
        <time>2022-01-25T11:28:19+00:00</time>
        <ele>2988.0</ele>
      </trkpt>
      <trkpt lat="44.76853885687888" lon="6.469741612672806">
        <time>2022-01-25T11:28:27+00:00</time>
        <ele>2989.0</ele>
      </trkpt>
      <trkpt lat="44.768538353964686" lon="6.469739601016045">
        <time>2022-01-25T11:28:28+00:00</time>
        <ele>2989.0</ele>
      </trkpt>
      <trkpt lat="44.768537264317274" lon="6.469735661521554">
        <time>2022-01-25T11:28:30+00:00</time>
        <ele>2989.0</ele>
      </trkpt>
      <trkpt lat="44.76853567175567" lon="6.4697296265512705">
        <time>2022-01-25T11:28:33+00:00</time>
        <ele>2989.0</ele>
      </trkpt>
      <trkpt lat="44.76853516884148" lon="6.469727614894509">
        <time>2022-01-25T11:28:34+00:00</time>
        <ele>2989.0</ele>
      </trkpt>
      <trkpt lat="44.76853466592729" lon="6.469725603237748">
        <time>2022-01-25T11:28:35+00:00</time>
        <ele>2989.0</ele>
      </trkpt>
      <trkpt lat="44.76853407919407" lon="6.469723591580987">
        <time>2022-01-25T11:28:36+00:00</time>
        <ele>2989.0</ele>
      </trkpt>
      <trkpt lat="44.76853357627988" lon="6.469721579924226">
        <time>2022-01-25T11:28:37+00:00</time>
        <ele>2989.0</ele>
      </trkpt>
      <trkpt lat="44.7685325704515" lon="6.4697175566107035">
        <time>2022-01-25T11:28:39+00:00</time>
        <ele>2990.0</ele>
      </trkpt>
      <trkpt lat="44.768529469147325" lon="6.469705570489168">
        <time>2022-01-25T11:28:45+00:00</time>
        <ele>2990.0</ele>
      </trkpt>
      <trkpt lat="44.76852745749056" lon="6.4696975238621235">
        <time>2022-01-25T11:28:49+00:00</time>
        <ele>2990.0</ele>
      </trkpt>
      <trkpt lat="44.76852536201477" lon="6.469689393416047">
        <time>2022-01-25T11:28:53+00:00</time>
        <ele>2990.0</ele>
      </trkpt>
      <trkpt lat="44.76851890794933" lon="6.469662906602025">
        <time>2022-01-25T11:29:06+00:00</time>
        <ele>2991.0</ele>
      </trkpt>
      <trkpt lat="44.76851840503514" lon="6.469660894945264">
        <time>2022-01-25T11:29:07+00:00</time>
        <ele>2991.0</ele>
      </trkpt>
      <trkpt lat="44.76851739920676" lon="6.46965678781271">
        <time>2022-01-25T11:29:09+00:00</time>
        <ele>2991.0</ele>
      </trkpt>
      <trkpt lat="44.768513878807425" lon="6.469642287120223">
        <time>2022-01-25T11:29:16+00:00</time>
        <ele>2992.0</ele>
      </trkpt>
      <trkpt lat="44.768510861322284" lon="6.469629881903529">
        <time>2022-01-25T11:29:22+00:00</time>
        <ele>2992.0</ele>
      </trkpt>
      <trkpt lat="44.76850465871394" lon="6.469605155289173">
        <time>2022-01-25T11:29:34+00:00</time>
        <ele>2993.0</ele>
      </trkpt>
      <trkpt lat="44.76850004866719" lon="6.469586631283164">
        <time>2022-01-25T11:29:43+00:00</time>
        <ele>2993.0</ele>
      </trkpt>
      <trkpt lat="44.76849694736302" lon="6.469574142247438">
        <time>2022-01-25T11:29:49+00:00</time>
        <ele>2994.0</ele>
      </trkpt>
      <trkpt lat="44.768493846058846" lon="6.469561569392681">
        <time>2022-01-25T11:29:55+00:00</time>
        <ele>2994.0</ele>
      </trkpt>
      <trkpt lat="44.76848982274532" lon="6.46954488940537">
        <time>2022-01-25T11:30:03+00:00</time>
        <ele>2995.0</ele>
      </trkpt>
      <trkpt lat="44.76848529651761" lon="6.469526030123234">
        <time>2022-01-25T11:30:12+00:00</time>
        <ele>2995.0</ele>
      </trkpt>
      <trkpt lat="44.76848479360342" lon="6.469523850828409">
        <time>2022-01-25T11:30:13+00:00</time>
        <ele>2995.0</ele>
      </trkpt>
      <trkpt lat="44.76848328486085" lon="6.4695175644010305">
        <time>2022-01-25T11:30:16+00:00</time>
        <ele>2996.0</ele>
      </trkpt>
      <trkpt lat="44.768475238233805" lon="6.469483450055122">
        <time>2022-01-25T11:30:32+00:00</time>
        <ele>2996.0</ele>
      </trkpt>
      <trkpt lat="44.76847222074866" lon="6.469470541924238">
        <time>2022-01-25T11:30:38+00:00</time>
        <ele>2997.0</ele>
      </trkpt>
      <trkpt lat="44.768464509397745" lon="6.4694377686828375">
        <time>2022-01-25T11:30:53+00:00</time>
        <ele>2998.0</ele>
      </trkpt>
      <trkpt lat="44.768455205485225" lon="6.46939879283309">
        <time>2022-01-25T11:31:11+00:00</time>
        <ele>2999.0</ele>
      </trkpt>
      <trkpt lat="44.768453193828464" lon="6.469390327110887">
        <time>2022-01-25T11:31:15+00:00</time>
        <ele>2999.0</ele>
      </trkpt>
      <trkpt lat="44.76844824850559" lon="6.469369372352958">
        <time>2022-01-25T11:31:25+00:00</time>
        <ele>3000.0</ele>
      </trkpt>
      <trkpt lat="44.76844531483948" lon="6.469357050955296">
        <time>2022-01-25T11:31:31+00:00</time>
        <ele>3000.0</ele>
      </trkpt>
      <trkpt lat="44.768442464992404" lon="6.469344813376665">
        <time>2022-01-25T11:31:37+00:00</time>
        <ele>3001.0</ele>
      </trkpt>
      <trkpt lat="44.768440537154675" lon="6.469336682930589">
        <time>2022-01-25T11:31:41+00:00</time>
        <ele>3001.0</ele>
      </trkpt>
      <trkpt lat="44.768439615145326" lon="6.469332659617066">
        <time>2022-01-25T11:31:43+00:00</time>
        <ele>3001.0</ele>
      </trkpt>
      <trkpt lat="44.76843869313598" lon="6.469328636303544">
        <time>2022-01-25T11:31:45+00:00</time>
        <ele>3001.0</ele>
      </trkpt>
      <trkpt lat="44.76843634620309" lon="6.46931866183877">
        <time>2022-01-25T11:31:50+00:00</time>
        <ele>3002.0</ele>
      </trkpt>
      <trkpt lat="44.76843441836536" lon="6.469310699030757">
        <time>2022-01-25T11:31:54+00:00</time>
        <ele>3002.0</ele>
      </trkpt>
      <trkpt lat="44.76843207143247" lon="6.469300892204046">
        <time>2022-01-25T11:31:59+00:00</time>
        <ele>3002.0</ele>
      </trkpt>
      <trkpt lat="44.768429808318615" lon="6.4692910853773355">
        <time>2022-01-25T11:32:04+00:00</time>
        <ele>3003.0</ele>
      </trkpt>
      <trkpt lat="44.76842704229057" lon="6.469279518350959">
        <time>2022-01-25T11:32:10+00:00</time>
        <ele>3003.0</ele>
      </trkpt>
      <trkpt lat="44.76841631345451" lon="6.4692342560738325">
        <time>2022-01-25T11:32:34+00:00</time>
        <ele>3005.0</ele>
      </trkpt>
      <trkpt lat="44.76841589435935" lon="6.469232412055135">
        <time>2022-01-25T11:32:35+00:00</time>
        <ele>3005.0</ele>
      </trkpt>
      <trkpt lat="44.768411200493574" lon="6.469212379306555">
        <time>2022-01-25T11:32:46+00:00</time>
        <ele>3006.0</ele>
      </trkpt>
      <trkpt lat="44.76840944029391" lon="6.469205170869827">
        <time>2022-01-25T11:32:50+00:00</time>
        <ele>3006.0</ele>
      </trkpt>
      <trkpt lat="44.76840902119875" lon="6.4692033268511295">
        <time>2022-01-25T11:32:51+00:00</time>
        <ele>3006.0</ele>
      </trkpt>
      <trkpt lat="44.76840860210359" lon="6.4692015666514635">
        <time>2022-01-25T11:32:52+00:00</time>
        <ele>3006.0</ele>
      </trkpt>
      <trkpt lat="44.76840365678072" lon="6.4691803604364395">
        <time>2022-01-25T11:33:04+00:00</time>
        <ele>3007.0</ele>
      </trkpt>
      <trkpt lat="44.76839577779174" lon="6.469147503376007">
        <time>2022-01-25T11:33:23+00:00</time>
        <ele>3008.0</ele>
      </trkpt>
      <trkpt lat="44.76839292794466" lon="6.469135684892535">
        <time>2022-01-25T11:33:30+00:00</time>
        <ele>3009.0</ele>
      </trkpt>
      <trkpt lat="44.768391251564026" lon="6.469128979369998">
        <time>2022-01-25T11:33:34+00:00</time>
        <ele>3009.0</ele>
      </trkpt>
      <trkpt lat="44.76838471367955" lon="6.469102492555976">
        <time>2022-01-25T11:33:50+00:00</time>
        <ele>3011.0</ele>
      </trkpt>
      <trkpt lat="44.768383875489235" lon="6.469099223613739">
        <time>2022-01-25T11:33:52+00:00</time>
        <ele>3011.0</ele>
      </trkpt>
      <trkpt lat="44.76837683469057" lon="6.469070389866829">
        <time>2022-01-25T11:34:10+00:00</time>
        <ele>3012.0</ele>
      </trkpt>
      <trkpt lat="44.76837448775768" lon="6.469060918316245">
        <time>2022-01-25T11:34:16+00:00</time>
        <ele>3012.0</ele>
      </trkpt>
      <trkpt lat="44.7683737333864" lon="6.469057817012072">
        <time>2022-01-25T11:34:18+00:00</time>
        <ele>3012.0</ele>
      </trkpt>
      <trkpt lat="44.76837222464383" lon="6.469051614403725">
        <time>2022-01-25T11:34:22+00:00</time>
        <ele>3013.0</ele>
      </trkpt>
      <trkpt lat="44.76837180554867" lon="6.469050105661154">
        <time>2022-01-25T11:34:23+00:00</time>
        <ele>3013.0</ele>
      </trkpt>
      <trkpt lat="44.76836736313999" lon="6.46903183311224">
        <time>2022-01-25T11:34:35+00:00</time>
        <ele>3013.0</ele>
      </trkpt>
      <trkpt lat="44.7683613281697" lon="6.469006519764662">
        <time>2022-01-25T11:34:52+00:00</time>
        <ele>3014.0</ele>
      </trkpt>
      <trkpt lat="44.76835923269391" lon="6.468997718766332">
        <time>2022-01-25T11:34:58+00:00</time>
        <ele>3015.0</ele>
      </trkpt>
      <trkpt lat="44.768357556313276" lon="6.468990510329604">
        <time>2022-01-25T11:35:03+00:00</time>
        <ele>3015.0</ele>
      </trkpt>
      <trkpt lat="44.76835722103715" lon="6.468989001587033">
        <time>2022-01-25T11:35:04+00:00</time>
        <ele>3015.0</ele>
      </trkpt>
      <trkpt lat="44.768355963751674" lon="6.468983301892877">
        <time>2022-01-25T11:35:08+00:00</time>
        <ele>3015.0</ele>
      </trkpt>
      <trkpt lat="44.7683512698859" lon="6.468963269144297">
        <time>2022-01-25T11:35:22+00:00</time>
        <ele>3016.0</ele>
      </trkpt>
      <trkpt lat="44.768345318734646" lon="6.46893803961575">
        <time>2022-01-25T11:35:40+00:00</time>
        <ele>3017.0</ele>
      </trkpt>
      <trkpt lat="44.76834464818239" lon="6.468935273587704">
        <time>2022-01-25T11:35:42+00:00</time>
        <ele>3017.0</ele>
      </trkpt>
      <trkpt lat="44.76834272034466" lon="6.468926891684532">
        <time>2022-01-25T11:35:48+00:00</time>
        <ele>3018.0</ele>
      </trkpt>
      <trkpt lat="44.76834171451628" lon="6.468922700732946">
        <time>2022-01-25T11:35:51+00:00</time>
        <ele>3018.0</ele>
      </trkpt>
      <trkpt lat="44.76834003813565" lon="6.468915659934282">
        <time>2022-01-25T11:35:56+00:00</time>
        <ele>3018.0</ele>
      </trkpt>
      <trkpt lat="44.768319921568036" lon="6.46881926804781">
        <time>2022-01-25T11:35:58+00:00</time>
        <ele>3022.0</ele>
      </trkpt>
      <trkpt lat="44.76829821243882" lon="6.46871424280107">
        <time>2022-01-25T11:35:59+00:00</time>
        <ele>3027.0</ele>
      </trkpt>
      <trkpt lat="44.768251106143" lon="6.468497738242149">
        <time>2022-01-25T11:36:01+00:00</time>
        <ele>3035.0</ele>
      </trkpt>
      <trkpt lat="44.76816016249359" lon="6.468069087713957">
        <time>2022-01-25T11:36:05+00:00</time>
        <ele>3045.0</ele>
      </trkpt>
      <trkpt lat="44.7681371960789" lon="6.467961212620139">
        <time>2022-01-25T11:36:06+00:00</time>
        <ele>3046.0</ele>
      </trkpt>
      <trkpt lat="44.76810467429459" lon="6.467823246493936">
        <time>2022-01-25T11:36:10+00:00</time>
        <ele>3046.0</ele>
      </trkpt>
      <trkpt lat="44.768104339018464" lon="6.467810338363051">
        <time>2022-01-25T11:36:11+00:00</time>
        <ele>3046.0</ele>
      </trkpt>
      <trkpt lat="44.768075505271554" lon="6.467708246782422">
        <time>2022-01-25T11:36:21+00:00</time>
        <ele>3046.0</ele>
      </trkpt>
      <trkpt lat="44.76807148195803" lon="6.46769885905087">
        <time>2022-01-25T11:36:22+00:00</time>
        <ele>3046.0</ele>
      </trkpt>
      <trkpt lat="44.76805371232331" lon="6.46765049546957">
        <time>2022-01-25T11:36:27+00:00</time>
        <ele>3046.0</ele>
      </trkpt>
      <trkpt lat="44.76803728379309" lon="6.467622248455882">
        <time>2022-01-25T11:36:30+00:00</time>
        <ele>3046.0</ele>
      </trkpt>
      <trkpt lat="44.76802655495703" lon="6.467603724449873">
        <time>2022-01-25T11:36:32+00:00</time>
        <ele>3046.0</ele>
      </trkpt>
      <trkpt lat="44.768002247437835" lon="6.467545721679926">
        <time>2022-01-25T11:36:38+00:00</time>
        <ele>3047.0</ele>
      </trkpt>
      <trkpt lat="44.767992105335" lon="6.467525856569409">
        <time>2022-01-25T11:36:40+00:00</time>
        <ele>3047.0</ele>
      </trkpt>
      <trkpt lat="44.76798481307924" lon="6.467511439695954">
        <time>2022-01-25T11:36:43+00:00</time>
        <ele>3047.0</ele>
      </trkpt>
      <trkpt lat="44.767981208860874" lon="6.467500375583768">
        <time>2022-01-25T11:36:45+00:00</time>
        <ele>3047.0</ele>
      </trkpt>
      <trkpt lat="44.767978861927986" lon="6.4674848690629005">
        <time>2022-01-25T11:36:48+00:00</time>
        <ele>3047.0</ele>
      </trkpt>
      <trkpt lat="44.76797693409026" lon="6.467476654797792">
        <time>2022-01-25T11:36:50+00:00</time>
        <ele>3047.0</ele>
      </trkpt>
      <trkpt lat="44.767957320436835" lon="6.467437092214823">
        <time>2022-01-25T11:36:57+00:00</time>
        <ele>3047.0</ele>
      </trkpt>
      <trkpt lat="44.767952458932996" lon="6.467421669512987">
        <time>2022-01-25T11:36:58+00:00</time>
        <ele>3047.0</ele>
      </trkpt>
      <trkpt lat="44.76793209090829" lon="6.467363918200135">
        <time>2022-01-25T11:37:02+00:00</time>
        <ele>3047.0</ele>
      </trkpt>
      <trkpt lat="44.76791708730161" lon="6.4673155546188354">
        <time>2022-01-25T11:37:05+00:00</time>
        <ele>3047.0</ele>
      </trkpt>
      <trkpt lat="44.76786905899644" lon="6.46719410084188">
        <time>2022-01-25T11:37:13+00:00</time>
        <ele>3047.0</ele>
      </trkpt>
      <trkpt lat="44.76783578284085" lon="6.467067617923021">
        <time>2022-01-25T11:37:24+00:00</time>
        <ele>3048.0</ele>
      </trkpt>
      <trkpt lat="44.76783092133701" lon="6.4670575596392155">
        <time>2022-01-25T11:37:25+00:00</time>
        <ele>3048.0</ele>
      </trkpt>
      <trkpt lat="44.76780451834202" lon="6.466994779184461">
        <time>2022-01-25T11:37:31+00:00</time>
        <ele>3048.0</ele>
      </trkpt>
      <trkpt lat="44.767800914123654" lon="6.46698547527194">
        <time>2022-01-25T11:37:32+00:00</time>
        <ele>3048.0</ele>
      </trkpt>
      <trkpt lat="44.76779663935304" lon="6.466975500807166">
        <time>2022-01-25T11:37:33+00:00</time>
        <ele>3048.0</ele>
      </trkpt>
      <trkpt lat="44.76778901182115" lon="6.46695664152503">
        <time>2022-01-25T11:37:35+00:00</time>
        <ele>3048.0</ele>
      </trkpt>
      <trkpt lat="44.767785742878914" lon="6.466938033699989">
        <time>2022-01-25T11:37:37+00:00</time>
        <ele>3048.0</ele>
      </trkpt>
      <trkpt lat="44.767783395946026" lon="6.466927556321025">
        <time>2022-01-25T11:37:38+00:00</time>
        <ele>3048.0</ele>
      </trkpt>
      <trkpt lat="44.76777174510062" lon="6.466901656240225">
        <time>2022-01-25T11:37:41+00:00</time>
        <ele>3048.0</ele>
      </trkpt>
      <trkpt lat="44.767763363197446" lon="6.466876091435552">
        <time>2022-01-25T11:37:44+00:00</time>
        <ele>3048.0</ele>
      </trkpt>
      <trkpt lat="44.76776353083551" lon="6.466868882998824">
        <time>2022-01-25T11:37:45+00:00</time>
        <ele>3048.0</ele>
      </trkpt>
      <trkpt lat="44.76775674149394" lon="6.46683837287128">
        <time>2022-01-25T11:37:48+00:00</time>
        <ele>3048.0</ele>
      </trkpt>
      <trkpt lat="44.76774240843952" lon="6.466782968491316">
        <time>2022-01-25T11:37:53+00:00</time>
        <ele>3049.0</ele>
      </trkpt>
      <trkpt lat="44.76773721165955" lon="6.466725971549749">
        <time>2022-01-25T11:37:58+00:00</time>
        <ele>3049.0</ele>
      </trkpt>
      <trkpt lat="44.76773662492633" lon="6.466708788648248">
        <time>2022-01-25T11:38:00+00:00</time>
        <ele>3050.0</ele>
      </trkpt>
      <trkpt lat="44.76773092523217" lon="6.466689174994826">
        <time>2022-01-25T11:38:02+00:00</time>
        <ele>3050.0</ele>
      </trkpt>
      <trkpt lat="44.767727153375745" lon="6.46666050888598">
        <time>2022-01-25T11:38:05+00:00</time>
        <ele>3050.0</ele>
      </trkpt>
      <trkpt lat="44.76772162131965" lon="6.466650702059269">
        <time>2022-01-25T11:38:06+00:00</time>
        <ele>3050.0</ele>
      </trkpt>
      <trkpt lat="44.76769915781915" lon="6.466599320992827">
        <time>2022-01-25T11:38:12+00:00</time>
        <ele>3050.0</ele>
      </trkpt>
      <trkpt lat="44.7676897700876" lon="6.466553807258606">
        <time>2022-01-25T11:38:18+00:00</time>
        <ele>3051.0</ele>
      </trkpt>
      <trkpt lat="44.76768767461181" lon="6.466539641842246">
        <time>2022-01-25T11:38:20+00:00</time>
        <ele>3051.0</ele>
      </trkpt>
      <trkpt lat="44.767680298537016" lon="6.466515250504017">
        <time>2022-01-25T11:38:23+00:00</time>
        <ele>3052.0</ele>
      </trkpt>
      <trkpt lat="44.76766428910196" lon="6.46648021414876">
        <time>2022-01-25T11:38:27+00:00</time>
        <ele>3052.0</ele>
      </trkpt>
      <trkpt lat="44.76766127161682" lon="6.466473424807191">
        <time>2022-01-25T11:38:28+00:00</time>
        <ele>3052.0</ele>
      </trkpt>
      <trkpt lat="44.76765833795071" lon="6.466465713456273">
        <time>2022-01-25T11:38:29+00:00</time>
        <ele>3052.0</ele>
      </trkpt>
      <trkpt lat="44.76763470098376" lon="6.46641525439918">
        <time>2022-01-25T11:38:41+00:00</time>
        <ele>3053.0</ele>
      </trkpt>
      <trkpt lat="44.767639646306634" lon="6.466415422037244">
        <time>2022-01-25T11:38:53+00:00</time>
        <ele>3053.0</ele>
      </trkpt>
      <trkpt lat="44.767639646306634" lon="6.466415422037244">
        <time>2022-01-25T11:38:55+00:00</time>
        <ele>3053.0</ele>
      </trkpt>
      <trkpt lat="44.76760167628527" lon="6.466373009607196">
        <time>2022-01-25T11:39:00+00:00</time>
        <ele>3053.0</ele>
      </trkpt>
      <trkpt lat="44.76750645786524" lon="6.466255579143763">
        <time>2022-01-25T11:39:08+00:00</time>
        <ele>3052.0</ele>
      </trkpt>
      <trkpt lat="44.76749681867659" lon="6.466245520859957">
        <time>2022-01-25T11:39:09+00:00</time>
        <ele>3052.0</ele>
      </trkpt>
      <trkpt lat="44.76748022250831" lon="6.466229343786836">
        <time>2022-01-25T11:39:11+00:00</time>
        <ele>3052.0</ele>
      </trkpt>
      <trkpt lat="44.767463793978095" lon="6.466210735961795">
        <time>2022-01-25T11:39:13+00:00</time>
        <ele>3051.0</ele>
      </trkpt>
      <trkpt lat="44.76744099520147" lon="6.466192966327071">
        <time>2022-01-25T11:39:15+00:00</time>
        <ele>3051.0</ele>
      </trkpt>
      <trkpt lat="44.76742347702384" lon="6.46617972292006">
        <time>2022-01-25T11:39:18+00:00</time>
        <ele>3051.0</ele>
      </trkpt>
      <trkpt lat="44.76742213591933" lon="6.466178214177489">
        <time>2022-01-25T11:39:19+00:00</time>
        <ele>3051.0</ele>
      </trkpt>
      <trkpt lat="44.7674273326993" lon="6.466175615787506">
        <time>2022-01-25T11:39:28+00:00</time>
        <ele>3051.0</ele>
      </trkpt>
      <trkpt lat="44.7674273326993" lon="6.466175615787506">
        <time>2022-01-25T11:39:33+00:00</time>
        <ele>3051.0</ele>
      </trkpt>
      <trkpt lat="44.76741207763553" lon="6.466127587482333">
        <time>2022-01-25T11:39:39+00:00</time>
        <ele>3051.0</ele>
      </trkpt>
      <trkpt lat="44.767407132312655" lon="6.4661121647804976">
        <time>2022-01-25T11:39:40+00:00</time>
        <ele>3051.0</ele>
      </trkpt>
      <trkpt lat="44.767393469810486" lon="6.466048127040267">
        <time>2022-01-25T11:39:44+00:00</time>
        <ele>3052.0</ele>
      </trkpt>
      <trkpt lat="44.767385674640536" lon="6.465991381555796">
        <time>2022-01-25T11:39:49+00:00</time>
        <ele>3053.0</ele>
      </trkpt>
      <trkpt lat="44.76738005876541" lon="6.465946119278669">
        <time>2022-01-25T11:39:53+00:00</time>
        <ele>3053.0</ele>
      </trkpt>
      <trkpt lat="44.76737997494638" lon="6.465935977175832">
        <time>2022-01-25T11:39:54+00:00</time>
        <ele>3054.0</ele>
      </trkpt>
      <trkpt lat="44.76737754419446" lon="6.465911669656634">
        <time>2022-01-25T11:39:56+00:00</time>
        <ele>3054.0</ele>
      </trkpt>
      <trkpt lat="44.76737603545189" lon="6.46581863053143">
        <time>2022-01-25T11:40:04+00:00</time>
        <ele>3055.0</ele>
      </trkpt>
      <trkpt lat="44.76737653836608" lon="6.465772530063987">
        <time>2022-01-25T11:40:08+00:00</time>
        <ele>3056.0</ele>
      </trkpt>
      <trkpt lat="44.767375364899635" lon="6.465750569477677">
        <time>2022-01-25T11:40:10+00:00</time>
        <ele>3056.0</ele>
      </trkpt>
      <trkpt lat="44.76737452670932" lon="6.465739421546459">
        <time>2022-01-25T11:40:11+00:00</time>
        <ele>3056.0</ele>
      </trkpt>
      <trkpt lat="44.76737259887159" lon="6.465722490102053">
        <time>2022-01-25T11:40:13+00:00</time>
        <ele>3056.0</ele>
      </trkpt>
      <trkpt lat="44.7673702519387" lon="6.465682927519083">
        <time>2022-01-25T11:40:18+00:00</time>
        <ele>3056.0</ele>
      </trkpt>
      <trkpt lat="44.76736891083419" lon="6.465678149834275">
        <time>2022-01-25T11:40:19+00:00</time>
        <ele>3056.0</ele>
      </trkpt>
      <trkpt lat="44.76736715063453" lon="6.465662978589535">
        <time>2022-01-25T11:40:21+00:00</time>
        <ele>3056.0</ele>
      </trkpt>
      <trkpt lat="44.76736295968294" lon="6.465640598908067">
        <time>2022-01-25T11:40:24+00:00</time>
        <ele>3056.0</ele>
      </trkpt>
      <trkpt lat="44.7673617862165" lon="6.46563439629972">
        <time>2022-01-25T11:40:25+00:00</time>
        <ele>3055.0</ele>
      </trkpt>
      <trkpt lat="44.76736547425389" lon="6.465616207569838">
        <time>2022-01-25T11:40:30+00:00</time>
        <ele>3055.0</ele>
      </trkpt>
      <trkpt lat="44.76737067103386" lon="6.465616626664996">
        <time>2022-01-25T11:40:33+00:00</time>
        <ele>3056.0</ele>
      </trkpt>
      <trkpt lat="44.76736824028194" lon="6.465617381036282">
        <time>2022-01-25T11:40:41+00:00</time>
        <ele>3056.0</ele>
      </trkpt>
      <trkpt lat="44.76736874319613" lon="6.465617213398218">
        <time>2022-01-25T11:41:05+00:00</time>
        <ele>3056.0</ele>
      </trkpt>
      <trkpt lat="44.76736958138645" lon="6.465616375207901">
        <time>2022-01-25T11:41:23+00:00</time>
        <ele>3056.0</ele>
      </trkpt>
      <trkpt lat="44.76736907847226" lon="6.4656177163124084">
        <time>2022-01-25T11:41:39+00:00</time>
        <ele>3056.0</ele>
      </trkpt>
      <trkpt lat="44.76736740209162" lon="6.46562023088336">
        <time>2022-01-25T11:41:56+00:00</time>
        <ele>3056.0</ele>
      </trkpt>
      <trkpt lat="44.767366982996464" lon="6.46562023088336">
        <time>2022-01-25T11:42:10+00:00</time>
        <ele>3056.0</ele>
      </trkpt>
      <trkpt lat="44.7673686593771" lon="6.465618973597884">
        <time>2022-01-25T11:42:26+00:00</time>
        <ele>3056.0</ele>
      </trkpt>
      <trkpt lat="44.76737419143319" lon="6.465624840930104">
        <time>2022-01-25T11:42:47+00:00</time>
        <ele>3056.0</ele>
      </trkpt>
      <trkpt lat="44.76737419143319" lon="6.4656247571110725">
        <time>2022-01-25T11:42:50+00:00</time>
        <ele>3056.0</ele>
      </trkpt>
      <trkpt lat="44.76737326942384" lon="6.4656241703778505">
        <time>2022-01-25T11:42:57+00:00</time>
        <ele>3056.0</ele>
      </trkpt>
      <trkpt lat="44.76737217977643" lon="6.4656229969114065">
        <time>2022-01-25T11:43:04+00:00</time>
        <ele>3056.0</ele>
      </trkpt>
      <trkpt lat="44.76737201213837" lon="6.465622913092375">
        <time>2022-01-25T11:43:05+00:00</time>
        <ele>3056.0</ele>
      </trkpt>
      <trkpt lat="44.767371006309986" lon="6.46562266163528">
        <time>2022-01-25T11:43:11+00:00</time>
        <ele>3056.0</ele>
      </trkpt>
      <trkpt lat="44.767370503395796" lon="6.465623751282692">
        <time>2022-01-25T11:43:22+00:00</time>
        <ele>3056.0</ele>
      </trkpt>
      <trkpt lat="44.767369497567415" lon="6.465627606958151">
        <time>2022-01-25T11:43:37+00:00</time>
        <ele>3056.0</ele>
      </trkpt>
      <trkpt lat="44.76736941374838" lon="6.465627606958151">
        <time>2022-01-25T11:43:38+00:00</time>
        <ele>3056.0</ele>
      </trkpt>
      <trkpt lat="44.76736824028194" lon="6.465624840930104">
        <time>2022-01-25T11:44:04+00:00</time>
        <ele>3056.0</ele>
      </trkpt>
      <trkpt lat="44.76736824028194" lon="6.465624840930104">
        <time>2022-01-25T11:44:05+00:00</time>
        <ele>3056.0</ele>
      </trkpt>
      <trkpt lat="44.76736815646291" lon="6.465624673292041">
        <time>2022-01-25T11:44:16+00:00</time>
        <ele>3056.0</ele>
      </trkpt>
      <trkpt lat="44.76736815646291" lon="6.465624673292041">
        <time>2022-01-25T11:44:19+00:00</time>
        <ele>3056.0</ele>
      </trkpt>
      <trkpt lat="44.76736815646291" lon="6.465624589473009">
        <time>2022-01-25T11:44:21+00:00</time>
        <ele>3056.0</ele>
      </trkpt>
      <trkpt lat="44.76736815646291" lon="6.465624589473009">
        <time>2022-01-25T11:44:22+00:00</time>
        <ele>3056.0</ele>
      </trkpt>
      <trkpt lat="44.767368072643876" lon="6.465624589473009">
        <time>2022-01-25T11:44:24+00:00</time>
        <ele>3056.0</ele>
      </trkpt>
      <trkpt lat="44.767368072643876" lon="6.465624589473009">
        <time>2022-01-25T11:44:26+00:00</time>
        <ele>3056.0</ele>
      </trkpt>
      <trkpt lat="44.767368072643876" lon="6.465624505653977">
        <time>2022-01-25T11:44:32+00:00</time>
        <ele>3056.0</ele>
      </trkpt>
      <trkpt lat="44.767368072643876" lon="6.465624421834946">
        <time>2022-01-25T11:44:42+00:00</time>
        <ele>3056.0</ele>
      </trkpt>
      <trkpt lat="44.767368072643876" lon="6.465624421834946">
        <time>2022-01-25T11:44:44+00:00</time>
        <ele>3056.0</ele>
      </trkpt>
      <trkpt lat="44.767368072643876" lon="6.465624338015914">
        <time>2022-01-25T11:44:46+00:00</time>
        <ele>3056.0</ele>
      </trkpt>
      <trkpt lat="44.76736815646291" lon="6.465624338015914">
        <time>2022-01-25T11:44:48+00:00</time>
        <ele>3056.0</ele>
      </trkpt>
      <trkpt lat="44.76736824028194" lon="6.465624254196882">
        <time>2022-01-25T11:45:02+00:00</time>
        <ele>3056.0</ele>
      </trkpt>
      <trkpt lat="44.76736824028194" lon="6.465624254196882">
        <time>2022-01-25T11:45:03+00:00</time>
        <ele>3056.0</ele>
      </trkpt>
      <trkpt lat="44.76736824028194" lon="6.4656241703778505">
        <time>2022-01-25T11:45:05+00:00</time>
        <ele>3056.0</ele>
      </trkpt>
      <trkpt lat="44.76736824028194" lon="6.4656241703778505">
        <time>2022-01-25T11:45:06+00:00</time>
        <ele>3056.0</ele>
      </trkpt>
      <trkpt lat="44.76736824028194" lon="6.4656241703778505">
        <time>2022-01-25T11:45:07+00:00</time>
        <ele>3056.0</ele>
      </trkpt>
      <trkpt lat="44.76736824028194" lon="6.4656241703778505">
        <time>2022-01-25T11:45:09+00:00</time>
        <ele>3056.0</ele>
      </trkpt>
      <trkpt lat="44.76736832410097" lon="6.4656241703778505">
        <time>2022-01-25T11:45:13+00:00</time>
        <ele>3056.0</ele>
      </trkpt>
      <trkpt lat="44.76736840792" lon="6.4656241703778505">
        <time>2022-01-25T11:45:27+00:00</time>
        <ele>3056.0</ele>
      </trkpt>
      <trkpt lat="44.76736840792" lon="6.4656241703778505">
        <time>2022-01-25T11:45:33+00:00</time>
        <ele>3056.0</ele>
      </trkpt>
      <trkpt lat="44.767368491739035" lon="6.465624254196882">
        <time>2022-01-25T11:45:44+00:00</time>
        <ele>3056.0</ele>
      </trkpt>
      <trkpt lat="44.767368575558066" lon="6.465624254196882">
        <time>2022-01-25T11:45:52+00:00</time>
        <ele>3056.0</ele>
      </trkpt>
      <trkpt lat="44.7673686593771" lon="6.465624338015914">
        <time>2022-01-25T11:46:02+00:00</time>
        <ele>3056.0</ele>
      </trkpt>
      <trkpt lat="44.76736874319613" lon="6.465624338015914">
        <time>2022-01-25T11:46:08+00:00</time>
        <ele>3056.0</ele>
      </trkpt>
      <trkpt lat="44.76736907847226" lon="6.465624421834946">
        <time>2022-01-25T11:46:28+00:00</time>
        <ele>3056.0</ele>
      </trkpt>
      <trkpt lat="44.76736907847226" lon="6.465624421834946">
        <time>2022-01-25T11:46:33+00:00</time>
        <ele>3056.0</ele>
      </trkpt>
      <trkpt lat="44.76736907847226" lon="6.465624421834946">
        <time>2022-01-25T11:46:34+00:00</time>
        <ele>3056.0</ele>
      </trkpt>
      <trkpt lat="44.76736916229129" lon="6.465624421834946">
        <time>2022-01-25T11:46:35+00:00</time>
        <ele>3056.0</ele>
      </trkpt>
      <trkpt lat="44.76736916229129" lon="6.465624421834946">
        <time>2022-01-25T11:46:36+00:00</time>
        <ele>3056.0</ele>
      </trkpt>
      <trkpt lat="44.76736916229129" lon="6.465624421834946">
        <time>2022-01-25T11:46:37+00:00</time>
        <ele>3056.0</ele>
      </trkpt>
      <trkpt lat="44.76736916229129" lon="6.465624338015914">
        <time>2022-01-25T11:46:41+00:00</time>
        <ele>3056.0</ele>
      </trkpt>
      <trkpt lat="44.76736924611032" lon="6.465624338015914">
        <time>2022-01-25T11:46:48+00:00</time>
        <ele>3056.0</ele>
      </trkpt>
      <trkpt lat="44.76736924611032" lon="6.465624254196882">
        <time>2022-01-25T11:46:54+00:00</time>
        <ele>3056.0</ele>
      </trkpt>
      <trkpt lat="44.76736941374838" lon="6.4656241703778505">
        <time>2022-01-25T11:47:07+00:00</time>
        <ele>3056.0</ele>
      </trkpt>
      <trkpt lat="44.767369497567415" lon="6.4656241703778505">
        <time>2022-01-25T11:47:12+00:00</time>
        <ele>3056.0</ele>
      </trkpt>
      <trkpt lat="44.76736958138645" lon="6.4656241703778505">
        <time>2022-01-25T11:47:15+00:00</time>
        <ele>3056.0</ele>
      </trkpt>
      <trkpt lat="44.76736966520548" lon="6.4656241703778505">
        <time>2022-01-25T11:47:21+00:00</time>
        <ele>3056.0</ele>
      </trkpt>
      <trkpt lat="44.76736966520548" lon="6.4656241703778505">
        <time>2022-01-25T11:47:22+00:00</time>
        <ele>3056.0</ele>
      </trkpt>
      <trkpt lat="44.76736974902451" lon="6.4656241703778505">
        <time>2022-01-25T11:47:24+00:00</time>
        <ele>3056.0</ele>
      </trkpt>
      <trkpt lat="44.76736983284354" lon="6.465624421834946">
        <time>2022-01-25T11:47:38+00:00</time>
        <ele>3056.0</ele>
      </trkpt>
      <trkpt lat="44.76736983284354" lon="6.465624421834946">
        <time>2022-01-25T11:47:40+00:00</time>
        <ele>3056.0</ele>
      </trkpt>
      <trkpt lat="44.767369916662574" lon="6.465625092387199">
        <time>2022-01-25T11:48:05+00:00</time>
        <ele>3056.0</ele>
      </trkpt>
      <trkpt lat="44.76737008430064" lon="6.465625511482358">
        <time>2022-01-25T11:48:27+00:00</time>
        <ele>3056.0</ele>
      </trkpt>
      <trkpt lat="44.7673702519387" lon="6.46562559530139">
        <time>2022-01-25T11:48:33+00:00</time>
        <ele>3056.0</ele>
      </trkpt>
      <trkpt lat="44.7673702519387" lon="6.46562559530139">
        <time>2022-01-25T11:48:34+00:00</time>
        <ele>3056.0</ele>
      </trkpt>
      <trkpt lat="44.76737033575773" lon="6.46562559530139">
        <time>2022-01-25T11:48:37+00:00</time>
        <ele>3056.0</ele>
      </trkpt>
      <trkpt lat="44.76737067103386" lon="6.465625679120421">
        <time>2022-01-25T11:48:53+00:00</time>
        <ele>3056.0</ele>
      </trkpt>
      <trkpt lat="44.76737075485289" lon="6.465625762939453">
        <time>2022-01-25T11:48:55+00:00</time>
        <ele>3056.0</ele>
      </trkpt>
      <trkpt lat="44.76737083867192" lon="6.465625762939453">
        <time>2022-01-25T11:49:00+00:00</time>
        <ele>3056.0</ele>
      </trkpt>
      <trkpt lat="44.767371006309986" lon="6.465625846758485">
        <time>2022-01-25T11:49:06+00:00</time>
        <ele>3056.0</ele>
      </trkpt>
      <trkpt lat="44.76737109012902" lon="6.465625846758485">
        <time>2022-01-25T11:49:09+00:00</time>
        <ele>3056.0</ele>
      </trkpt>
      <trkpt lat="44.76737134158611" lon="6.46562609821558">
        <time>2022-01-25T11:49:19+00:00</time>
        <ele>3056.0</ele>
      </trkpt>
      <trkpt lat="44.767371425405145" lon="6.465626265853643">
        <time>2022-01-25T11:49:27+00:00</time>
        <ele>3056.0</ele>
      </trkpt>
      <trkpt lat="44.76737159304321" lon="6.465626433491707">
        <time>2022-01-25T11:49:44+00:00</time>
        <ele>3056.0</ele>
      </trkpt>
      <trkpt lat="44.76737167686224" lon="6.465626517310739">
        <time>2022-01-25T11:49:57+00:00</time>
        <ele>3056.0</ele>
      </trkpt>
      <trkpt lat="44.76737167686224" lon="6.465626517310739">
        <time>2022-01-25T11:49:59+00:00</time>
        <ele>3056.0</ele>
      </trkpt>
      <trkpt lat="44.76737176068127" lon="6.465626517310739">
        <time>2022-01-25T11:50:03+00:00</time>
        <ele>3056.0</ele>
      </trkpt>
      <trkpt lat="44.76737176068127" lon="6.465626517310739">
        <time>2022-01-25T11:50:14+00:00</time>
        <ele>3056.0</ele>
      </trkpt>
      <trkpt lat="44.7673718445003" lon="6.46562660112977">
        <time>2022-01-25T11:50:33+00:00</time>
        <ele>3056.0</ele>
      </trkpt>
      <trkpt lat="44.76737217977643" lon="6.46562660112977">
        <time>2022-01-25T11:50:45+00:00</time>
        <ele>3056.0</ele>
      </trkpt>
      <trkpt lat="44.76737226359546" lon="6.465626517310739">
        <time>2022-01-25T11:50:48+00:00</time>
        <ele>3056.0</ele>
      </trkpt>
      <trkpt lat="44.767372347414494" lon="6.465626517310739">
        <time>2022-01-25T11:50:52+00:00</time>
        <ele>3056.0</ele>
      </trkpt>
      <trkpt lat="44.767372431233525" lon="6.465626517310739">
        <time>2022-01-25T11:50:53+00:00</time>
        <ele>3056.0</ele>
      </trkpt>
      <trkpt lat="44.76737259887159" lon="6.465626349672675">
        <time>2022-01-25T11:51:06+00:00</time>
        <ele>3056.0</ele>
      </trkpt>
      <trkpt lat="44.76737259887159" lon="6.465626265853643">
        <time>2022-01-25T11:51:25+00:00</time>
        <ele>3056.0</ele>
      </trkpt>
      <trkpt lat="44.76737259887159" lon="6.465626265853643">
        <time>2022-01-25T11:51:26+00:00</time>
        <ele>3056.0</ele>
      </trkpt>
      <trkpt lat="44.76737259887159" lon="6.465626265853643">
        <time>2022-01-25T11:51:28+00:00</time>
        <ele>3056.0</ele>
      </trkpt>
      <trkpt lat="44.76737259887159" lon="6.465626182034612">
        <time>2022-01-25T11:51:31+00:00</time>
        <ele>3056.0</ele>
      </trkpt>
      <trkpt lat="44.76737259887159" lon="6.465626182034612">
        <time>2022-01-25T11:51:33+00:00</time>
        <ele>3056.0</ele>
      </trkpt>
      <trkpt lat="44.76737251505256" lon="6.465626265853643">
        <time>2022-01-25T11:51:52+00:00</time>
        <ele>3056.0</ele>
      </trkpt>
      <trkpt lat="44.767372431233525" lon="6.465626349672675">
        <time>2022-01-25T11:52:01+00:00</time>
        <ele>3056.0</ele>
      </trkpt>
      <trkpt lat="44.76737226359546" lon="6.465626433491707">
        <time>2022-01-25T11:52:12+00:00</time>
        <ele>3056.0</ele>
      </trkpt>
      <trkpt lat="44.76737226359546" lon="6.465626433491707">
        <time>2022-01-25T11:52:14+00:00</time>
        <ele>3056.0</ele>
      </trkpt>
      <trkpt lat="44.76737217977643" lon="6.465626433491707">
        <time>2022-01-25T11:52:21+00:00</time>
        <ele>3056.0</ele>
      </trkpt>
      <trkpt lat="44.7673718445003" lon="6.465626517310739">
        <time>2022-01-25T11:52:42+00:00</time>
        <ele>3056.0</ele>
      </trkpt>
      <trkpt lat="44.76737176068127" lon="6.465626433491707">
        <time>2022-01-25T11:52:46+00:00</time>
        <ele>3056.0</ele>
      </trkpt>
      <trkpt lat="44.76737167686224" lon="6.465626433491707">
        <time>2022-01-25T11:52:50+00:00</time>
        <ele>3056.0</ele>
      </trkpt>
      <trkpt lat="44.76737159304321" lon="6.465626433491707">
        <time>2022-01-25T11:52:55+00:00</time>
        <ele>3056.0</ele>
      </trkpt>
      <trkpt lat="44.767371509224176" lon="6.465626433491707">
        <time>2022-01-25T11:52:58+00:00</time>
        <ele>3056.0</ele>
      </trkpt>
      <trkpt lat="44.767371425405145" lon="6.465626349672675">
        <time>2022-01-25T11:53:04+00:00</time>
        <ele>3056.0</ele>
      </trkpt>
      <trkpt lat="44.76737134158611" lon="6.465626349672675">
        <time>2022-01-25T11:53:09+00:00</time>
        <ele>3056.0</ele>
      </trkpt>
      <trkpt lat="44.76737125776708" lon="6.465626349672675">
        <time>2022-01-25T11:53:16+00:00</time>
        <ele>3056.0</ele>
      </trkpt>
      <trkpt lat="44.76737117394805" lon="6.465626349672675">
        <time>2022-01-25T11:53:31+00:00</time>
        <ele>3056.0</ele>
      </trkpt>
      <trkpt lat="44.76737109012902" lon="6.465626349672675">
        <time>2022-01-25T11:53:35+00:00</time>
        <ele>3056.0</ele>
      </trkpt>
      <trkpt lat="44.76737109012902" lon="6.465626349672675">
        <time>2022-01-25T11:53:42+00:00</time>
        <ele>3056.0</ele>
      </trkpt>
      <trkpt lat="44.76737117394805" lon="6.465626349672675">
        <time>2022-01-25T11:53:52+00:00</time>
        <ele>3056.0</ele>
      </trkpt>
      <trkpt lat="44.767371425405145" lon="6.465626517310739">
        <time>2022-01-25T11:54:12+00:00</time>
        <ele>3056.0</ele>
      </trkpt>
      <trkpt lat="44.76737167686224" lon="6.465626014396548">
        <time>2022-01-25T11:54:27+00:00</time>
        <ele>3056.0</ele>
      </trkpt>
      <trkpt lat="44.76737201213837" lon="6.465625427663326">
        <time>2022-01-25T11:54:40+00:00</time>
        <ele>3056.0</ele>
      </trkpt>
      <trkpt lat="44.76737226359546" lon="6.465625008568168">
        <time>2022-01-25T11:54:48+00:00</time>
        <ele>3056.0</ele>
      </trkpt>
      <trkpt lat="44.76737268269062" lon="6.465624505653977">
        <time>2022-01-25T11:54:58+00:00</time>
        <ele>3056.0</ele>
      </trkpt>
      <trkpt lat="44.76737310178578" lon="6.465624002739787">
        <time>2022-01-25T11:55:10+00:00</time>
        <ele>3056.0</ele>
      </trkpt>
      <trkpt lat="44.76737318560481" lon="6.465623918920755">
        <time>2022-01-25T11:55:11+00:00</time>
        <ele>3056.0</ele>
      </trkpt>
      <trkpt lat="44.76737352088094" lon="6.465623332187533">
        <time>2022-01-25T11:55:21+00:00</time>
        <ele>3056.0</ele>
      </trkpt>
      <trkpt lat="44.76737360469997" lon="6.465623248368502">
        <time>2022-01-25T11:55:23+00:00</time>
        <ele>3056.0</ele>
      </trkpt>
      <trkpt lat="44.76737377233803" lon="6.4656229969114065">
        <time>2022-01-25T11:55:28+00:00</time>
        <ele>3056.0</ele>
      </trkpt>
      <trkpt lat="44.767373856157064" lon="6.465622745454311">
        <time>2022-01-25T11:55:33+00:00</time>
        <ele>3056.0</ele>
      </trkpt>
      <trkpt lat="44.767373939976096" lon="6.465622577816248">
        <time>2022-01-25T11:55:36+00:00</time>
        <ele>3056.0</ele>
      </trkpt>
      <trkpt lat="44.76737427525222" lon="6.465621991083026">
        <time>2022-01-25T11:55:48+00:00</time>
        <ele>3056.0</ele>
      </trkpt>
      <trkpt lat="44.767374442890286" lon="6.465621655806899">
        <time>2022-01-25T11:55:54+00:00</time>
        <ele>3056.0</ele>
      </trkpt>
      <trkpt lat="44.76737452670932" lon="6.465621488168836">
        <time>2022-01-25T11:55:58+00:00</time>
        <ele>3056.0</ele>
      </trkpt>
      <trkpt lat="44.76737469434738" lon="6.4656212367117405">
        <time>2022-01-25T11:56:03+00:00</time>
        <ele>3056.0</ele>
      </trkpt>
      <trkpt lat="44.76737477816641" lon="6.465621069073677">
        <time>2022-01-25T11:56:06+00:00</time>
        <ele>3056.0</ele>
      </trkpt>
      <trkpt lat="44.76737511344254" lon="6.465620566159487">
        <time>2022-01-25T11:56:17+00:00</time>
        <ele>3056.0</ele>
      </trkpt>
      <trkpt lat="44.767375281080604" lon="6.465620314702392">
        <time>2022-01-25T11:56:23+00:00</time>
        <ele>3056.0</ele>
      </trkpt>
      <trkpt lat="44.767375364899635" lon="6.465620147064328">
        <time>2022-01-25T11:56:26+00:00</time>
        <ele>3056.0</ele>
      </trkpt>
      <trkpt lat="44.7673755325377" lon="6.465619895607233">
        <time>2022-01-25T11:56:33+00:00</time>
        <ele>3056.0</ele>
      </trkpt>
      <trkpt lat="44.76737561635673" lon="6.465619895607233">
        <time>2022-01-25T11:56:37+00:00</time>
        <ele>3056.0</ele>
      </trkpt>
      <trkpt lat="44.76737570017576" lon="6.465619811788201">
        <time>2022-01-25T11:56:44+00:00</time>
        <ele>3056.0</ele>
      </trkpt>
      <trkpt lat="44.767375783994794" lon="6.465619811788201">
        <time>2022-01-25T11:56:53+00:00</time>
        <ele>3056.0</ele>
      </trkpt>
      <trkpt lat="44.767375783994794" lon="6.465619895607233">
        <time>2022-01-25T11:56:56+00:00</time>
        <ele>3056.0</ele>
      </trkpt>
      <trkpt lat="44.767375867813826" lon="6.465619895607233">
        <time>2022-01-25T11:57:03+00:00</time>
        <ele>3056.0</ele>
      </trkpt>
      <trkpt lat="44.767375783994794" lon="6.4656200632452965">
        <time>2022-01-25T11:57:17+00:00</time>
        <ele>3056.0</ele>
      </trkpt>
      <trkpt lat="44.76737561635673" lon="6.46562023088336">
        <time>2022-01-25T11:57:32+00:00</time>
        <ele>3056.0</ele>
      </trkpt>
      <trkpt lat="44.76737544871867" lon="6.465620482340455">
        <time>2022-01-25T11:57:45+00:00</time>
        <ele>3056.0</ele>
      </trkpt>
      <trkpt lat="44.76737544871867" lon="6.465620482340455">
        <time>2022-01-25T11:57:46+00:00</time>
        <ele>3056.0</ele>
      </trkpt>
      <trkpt lat="44.76737544871867" lon="6.4656206499785185">
        <time>2022-01-25T11:57:57+00:00</time>
        <ele>3056.0</ele>
      </trkpt>
      <trkpt lat="44.767375364899635" lon="6.46562073379755">
        <time>2022-01-25T11:58:00+00:00</time>
        <ele>3056.0</ele>
      </trkpt>
      <trkpt lat="44.767375364899635" lon="6.465620817616582">
        <time>2022-01-25T11:58:04+00:00</time>
        <ele>3056.0</ele>
      </trkpt>
      <trkpt lat="44.767375364899635" lon="6.465620817616582">
        <time>2022-01-25T11:58:08+00:00</time>
        <ele>3056.0</ele>
      </trkpt>
      <trkpt lat="44.76737502962351" lon="6.465620901435614">
        <time>2022-01-25T11:58:30+00:00</time>
        <ele>3056.0</ele>
      </trkpt>
      <trkpt lat="44.76737502962351" lon="6.465620817616582">
        <time>2022-01-25T11:58:36+00:00</time>
        <ele>3056.0</ele>
      </trkpt>
      <trkpt lat="44.76737502962351" lon="6.46562073379755">
        <time>2022-01-25T11:58:52+00:00</time>
        <ele>3056.0</ele>
      </trkpt>
      <trkpt lat="44.76737511344254" lon="6.4656206499785185">
        <time>2022-01-25T11:58:55+00:00</time>
        <ele>3056.0</ele>
      </trkpt>
      <trkpt lat="44.76737511344254" lon="6.4656206499785185">
        <time>2022-01-25T11:59:01+00:00</time>
        <ele>3056.0</ele>
      </trkpt>
      <trkpt lat="44.76737519726157" lon="6.465620566159487">
        <time>2022-01-25T11:59:11+00:00</time>
        <ele>3056.0</ele>
      </trkpt>
      <trkpt lat="44.767375364899635" lon="6.465620482340455">
        <time>2022-01-25T11:59:21+00:00</time>
        <ele>3056.0</ele>
      </trkpt>
      <trkpt lat="44.767375364899635" lon="6.465620482340455">
        <time>2022-01-25T11:59:22+00:00</time>
        <ele>3056.0</ele>
      </trkpt>
      <trkpt lat="44.7673755325377" lon="6.465620482340455">
        <time>2022-01-25T11:59:39+00:00</time>
        <ele>3056.0</ele>
      </trkpt>
      <trkpt lat="44.7673755325377" lon="6.465620482340455">
        <time>2022-01-25T11:59:42+00:00</time>
        <ele>3056.0</ele>
      </trkpt>
      <trkpt lat="44.7673755325377" lon="6.465620566159487">
        <time>2022-01-25T11:59:43+00:00</time>
        <ele>3056.0</ele>
      </trkpt>
      <trkpt lat="44.76737561635673" lon="6.465620566159487">
        <time>2022-01-25T11:59:46+00:00</time>
        <ele>3056.0</ele>
      </trkpt>
      <trkpt lat="44.76737561635673" lon="6.465620566159487">
        <time>2022-01-25T11:59:48+00:00</time>
        <ele>3056.0</ele>
      </trkpt>
      <trkpt lat="44.76737570017576" lon="6.465620482340455">
        <time>2022-01-25T12:00:01+00:00</time>
        <ele>3056.0</ele>
      </trkpt>
      <trkpt lat="44.76737570017576" lon="6.465620398521423">
        <time>2022-01-25T12:00:05+00:00</time>
        <ele>3056.0</ele>
      </trkpt>
      <trkpt lat="44.767375783994794" lon="6.465620314702392">
        <time>2022-01-25T12:00:08+00:00</time>
        <ele>3056.0</ele>
      </trkpt>
      <trkpt lat="44.767375867813826" lon="6.465619979426265">
        <time>2022-01-25T12:00:21+00:00</time>
        <ele>3056.0</ele>
      </trkpt>
      <trkpt lat="44.76737603545189" lon="6.46561972796917">
        <time>2022-01-25T12:00:30+00:00</time>
        <ele>3056.0</ele>
      </trkpt>
      <trkpt lat="44.76737620308995" lon="6.465619392693043">
        <time>2022-01-25T12:00:47+00:00</time>
        <ele>3056.0</ele>
      </trkpt>
      <trkpt lat="44.767376286908984" lon="6.465619392693043">
        <time>2022-01-25T12:00:48+00:00</time>
        <ele>3056.0</ele>
      </trkpt>
      <trkpt lat="44.767376286908984" lon="6.465619308874011">
        <time>2022-01-25T12:00:49+00:00</time>
        <ele>3056.0</ele>
      </trkpt>
      <trkpt lat="44.767376286908984" lon="6.465619308874011">
        <time>2022-01-25T12:00:51+00:00</time>
        <ele>3056.0</ele>
      </trkpt>
      <trkpt lat="44.767376286908984" lon="6.465619225054979">
        <time>2022-01-25T12:00:56+00:00</time>
        <ele>3056.0</ele>
      </trkpt>
      <trkpt lat="44.767376286908984" lon="6.465619057416916">
        <time>2022-01-25T12:01:10+00:00</time>
        <ele>3056.0</ele>
      </trkpt>
      <trkpt lat="44.767376286908984" lon="6.465619057416916">
        <time>2022-01-25T12:01:12+00:00</time>
        <ele>3056.0</ele>
      </trkpt>
      <trkpt lat="44.76737620308995" lon="6.465618973597884">
        <time>2022-01-25T12:01:20+00:00</time>
        <ele>3056.0</ele>
      </trkpt>
      <trkpt lat="44.76737620308995" lon="6.465618973597884">
        <time>2022-01-25T12:01:23+00:00</time>
        <ele>3056.0</ele>
      </trkpt>
      <trkpt lat="44.76737620308995" lon="6.4656188897788525">
        <time>2022-01-25T12:01:26+00:00</time>
        <ele>3056.0</ele>
      </trkpt>
      <trkpt lat="44.76737611927092" lon="6.4656188897788525">
        <time>2022-01-25T12:01:28+00:00</time>
        <ele>3056.0</ele>
      </trkpt>
      <trkpt lat="44.76737611927092" lon="6.4656188897788525">
        <time>2022-01-25T12:01:30+00:00</time>
        <ele>3056.0</ele>
      </trkpt>
      <trkpt lat="44.76737611927092" lon="6.465618805959821">
        <time>2022-01-25T12:01:34+00:00</time>
        <ele>3056.0</ele>
      </trkpt>
      <trkpt lat="44.767375867813826" lon="6.465618554502726">
        <time>2022-01-25T12:01:51+00:00</time>
        <ele>3056.0</ele>
      </trkpt>
      <trkpt lat="44.76737570017576" lon="6.465618470683694">
        <time>2022-01-25T12:02:00+00:00</time>
        <ele>3056.0</ele>
      </trkpt>
      <trkpt lat="44.76737561635673" lon="6.465618554502726">
        <time>2022-01-25T12:02:06+00:00</time>
        <ele>3056.0</ele>
      </trkpt>
      <trkpt lat="44.76737561635673" lon="6.465618554502726">
        <time>2022-01-25T12:02:08+00:00</time>
        <ele>3056.0</ele>
      </trkpt>
      <trkpt lat="44.7673755325377" lon="6.465618638321757">
        <time>2022-01-25T12:02:13+00:00</time>
        <ele>3056.0</ele>
      </trkpt>
      <trkpt lat="44.767375364899635" lon="6.465618805959821">
        <time>2022-01-25T12:02:25+00:00</time>
        <ele>3056.0</ele>
      </trkpt>
      <trkpt lat="44.76737519726157" lon="6.465618973597884">
        <time>2022-01-25T12:02:37+00:00</time>
        <ele>3056.0</ele>
      </trkpt>
      <trkpt lat="44.76737494580448" lon="6.465619141235948">
        <time>2022-01-25T12:02:54+00:00</time>
        <ele>3056.0</ele>
      </trkpt>
      <trkpt lat="44.76737469434738" lon="6.465619057416916">
        <time>2022-01-25T12:03:16+00:00</time>
        <ele>3056.0</ele>
      </trkpt>
      <trkpt lat="44.76737469434738" lon="6.465619057416916">
        <time>2022-01-25T12:03:18+00:00</time>
        <ele>3056.0</ele>
      </trkpt>
      <trkpt lat="44.76737469434738" lon="6.465619057416916">
        <time>2022-01-25T12:03:19+00:00</time>
        <ele>3056.0</ele>
      </trkpt>
      <trkpt lat="44.76737469434738" lon="6.465619057416916">
        <time>2022-01-25T12:03:21+00:00</time>
        <ele>3056.0</ele>
      </trkpt>
      <trkpt lat="44.76737469434738" lon="6.465619057416916">
        <time>2022-01-25T12:03:22+00:00</time>
        <ele>3056.0</ele>
      </trkpt>
      <trkpt lat="44.76737469434738" lon="6.465619057416916">
        <time>2022-01-25T12:03:23+00:00</time>
        <ele>3056.0</ele>
      </trkpt>
      <trkpt lat="44.76737469434738" lon="6.465618973597884">
        <time>2022-01-25T12:03:25+00:00</time>
        <ele>3056.0</ele>
      </trkpt>
      <trkpt lat="44.76737469434738" lon="6.465618973597884">
        <time>2022-01-25T12:03:33+00:00</time>
        <ele>3056.0</ele>
      </trkpt>
      <trkpt lat="44.76737469434738" lon="6.465618973597884">
        <time>2022-01-25T12:03:37+00:00</time>
        <ele>3056.0</ele>
      </trkpt>
      <trkpt lat="44.76737469434738" lon="6.465618973597884">
        <time>2022-01-25T12:03:40+00:00</time>
        <ele>3056.0</ele>
      </trkpt>
      <trkpt lat="44.76737469434738" lon="6.465618973597884">
        <time>2022-01-25T12:03:48+00:00</time>
        <ele>3056.0</ele>
      </trkpt>
      <trkpt lat="44.767374861985445" lon="6.465619057416916">
        <time>2022-01-25T12:04:00+00:00</time>
        <ele>3056.0</ele>
      </trkpt>
      <trkpt lat="44.767374861985445" lon="6.465619057416916">
        <time>2022-01-25T12:04:04+00:00</time>
        <ele>3056.0</ele>
      </trkpt>
      <trkpt lat="44.76737502962351" lon="6.465619057416916">
        <time>2022-01-25T12:04:16+00:00</time>
        <ele>3056.0</ele>
      </trkpt>
      <trkpt lat="44.76737502962351" lon="6.465619057416916">
        <time>2022-01-25T12:04:20+00:00</time>
        <ele>3056.0</ele>
      </trkpt>
      <trkpt lat="44.76737494580448" lon="6.465618973597884">
        <time>2022-01-25T12:04:32+00:00</time>
        <ele>3056.0</ele>
      </trkpt>
      <trkpt lat="44.767374861985445" lon="6.465618805959821">
        <time>2022-01-25T12:04:44+00:00</time>
        <ele>3056.0</ele>
      </trkpt>
      <trkpt lat="44.767374861985445" lon="6.465618638321757">
        <time>2022-01-25T12:04:49+00:00</time>
        <ele>3056.0</ele>
      </trkpt>
      <trkpt lat="44.767374861985445" lon="6.465618470683694">
        <time>2022-01-25T12:04:55+00:00</time>
        <ele>3056.0</ele>
      </trkpt>
      <trkpt lat="44.767374861985445" lon="6.465618386864662">
        <time>2022-01-25T12:04:57+00:00</time>
        <ele>3056.0</ele>
      </trkpt>
      <trkpt lat="44.76737494580448" lon="6.465618051588535">
        <time>2022-01-25T12:05:09+00:00</time>
        <ele>3056.0</ele>
      </trkpt>
      <trkpt lat="44.76737494580448" lon="6.46561780013144">
        <time>2022-01-25T12:05:16+00:00</time>
        <ele>3056.0</ele>
      </trkpt>
      <trkpt lat="44.767374861985445" lon="6.465617632493377">
        <time>2022-01-25T12:05:22+00:00</time>
        <ele>3056.0</ele>
      </trkpt>
      <trkpt lat="44.767374861985445" lon="6.465617632493377">
        <time>2022-01-25T12:05:23+00:00</time>
        <ele>3056.0</ele>
      </trkpt>
      <trkpt lat="44.76737477816641" lon="6.465617464855313">
        <time>2022-01-25T12:05:29+00:00</time>
        <ele>3056.0</ele>
      </trkpt>
      <trkpt lat="44.76737477816641" lon="6.465617129579186">
        <time>2022-01-25T12:05:45+00:00</time>
        <ele>3056.0</ele>
      </trkpt>
      <trkpt lat="44.767375364899635" lon="6.465616878122091">
        <time>2022-01-25T12:06:14+00:00</time>
        <ele>3056.0</ele>
      </trkpt>
      <trkpt lat="44.767375364899635" lon="6.465616878122091">
        <time>2022-01-25T12:06:16+00:00</time>
        <ele>3056.0</ele>
      </trkpt>
      <trkpt lat="44.76737544871867" lon="6.46561679430306">
        <time>2022-01-25T12:06:18+00:00</time>
        <ele>3056.0</ele>
      </trkpt>
      <trkpt lat="44.76737544871867" lon="6.46561679430306">
        <time>2022-01-25T12:06:20+00:00</time>
        <ele>3056.0</ele>
      </trkpt>
      <trkpt lat="44.7673755325377" lon="6.465616710484028">
        <time>2022-01-25T12:06:27+00:00</time>
        <ele>3056.0</ele>
      </trkpt>
      <trkpt lat="44.76735608652234" lon="6.465581003576517">
        <time>2022-01-25T12:06:34+00:00</time>
        <ele>3055.0</ele>
      </trkpt>
      <trkpt lat="44.767348458990455" lon="6.465577566996217">
        <time>2022-01-25T12:06:35+00:00</time>
        <ele>3055.0</ele>
      </trkpt>
      <trkpt lat="44.767312752082944" lon="6.465554432943463">
        <time>2022-01-25T12:06:40+00:00</time>
        <ele>3054.0</ele>
      </trkpt>
      <trkpt lat="44.767295653000474" lon="6.46553372964263">
        <time>2022-01-25T12:06:49+00:00</time>
        <ele>3054.0</ele>
      </trkpt>
      <trkpt lat="44.767295653000474" lon="6.46553372964263">
        <time>2022-01-25T12:06:50+00:00</time>
        <ele>3054.0</ele>
      </trkpt>
      <trkpt lat="44.767295653000474" lon="6.46553372964263">
        <time>2022-01-25T12:06:53+00:00</time>
        <ele>3054.0</ele>
      </trkpt>
      <trkpt lat="44.767295653000474" lon="6.46553372964263">
        <time>2022-01-25T12:06:57+00:00</time>
        <ele>3054.0</ele>
      </trkpt>
      <trkpt lat="44.767295653000474" lon="6.46553372964263">
        <time>2022-01-25T12:06:58+00:00</time>
        <ele>3054.0</ele>
      </trkpt>
      <trkpt lat="44.767295653000474" lon="6.46553372964263">
        <time>2022-01-25T12:07:03+00:00</time>
        <ele>3054.0</ele>
      </trkpt>
      <trkpt lat="44.76729548536241" lon="6.4655346516519785">
        <time>2022-01-25T12:07:07+00:00</time>
        <ele>3054.0</ele>
      </trkpt>
      <trkpt lat="44.767268830910325" lon="6.465484360232949">
        <time>2022-01-25T12:07:11+00:00</time>
        <ele>3053.0</ele>
      </trkpt>
      <trkpt lat="44.76726019755006" lon="6.465437673032284">
        <time>2022-01-25T12:07:14+00:00</time>
        <ele>3053.0</ele>
      </trkpt>
      <trkpt lat="44.76724108681083" lon="6.46535879932344">
        <time>2022-01-25T12:07:19+00:00</time>
        <ele>3052.0</ele>
      </trkpt>
      <trkpt lat="44.76723865605891" lon="6.465361816808581">
        <time>2022-01-25T12:07:24+00:00</time>
        <ele>3052.0</ele>
      </trkpt>
      <trkpt lat="44.76724561303854" lon="6.465375730767846">
        <time>2022-01-25T12:07:32+00:00</time>
        <ele>3052.0</ele>
      </trkpt>
      <trkpt lat="44.76724552921951" lon="6.465376149863005">
        <time>2022-01-25T12:07:38+00:00</time>
        <ele>3052.0</ele>
      </trkpt>
      <trkpt lat="44.76724552921951" lon="6.465375730767846">
        <time>2022-01-25T12:07:47+00:00</time>
        <ele>3052.0</ele>
      </trkpt>
      <trkpt lat="44.76724552921951" lon="6.4653741382062435">
        <time>2022-01-25T12:07:50+00:00</time>
        <ele>3052.0</ele>
      </trkpt>
      <trkpt lat="44.76724552921951" lon="6.46537397056818">
        <time>2022-01-25T12:07:51+00:00</time>
        <ele>3052.0</ele>
      </trkpt>
      <trkpt lat="44.76724544540048" lon="6.465373048558831">
        <time>2022-01-25T12:07:54+00:00</time>
        <ele>3052.0</ele>
      </trkpt>
      <trkpt lat="44.767242008820176" lon="6.465369528159499">
        <time>2022-01-25T12:08:06+00:00</time>
        <ele>3052.0</ele>
      </trkpt>
      <trkpt lat="44.76724167354405" lon="6.465369276702404">
        <time>2022-01-25T12:08:19+00:00</time>
        <ele>3052.0</ele>
      </trkpt>
      <trkpt lat="44.767241925001144" lon="6.465369779616594">
        <time>2022-01-25T12:08:22+00:00</time>
        <ele>3052.0</ele>
      </trkpt>
      <trkpt lat="44.76722499355674" lon="6.465417556464672">
        <time>2022-01-25T12:08:34+00:00</time>
        <ele>3051.0</ele>
      </trkpt>
      <trkpt lat="44.76720755919814" lon="6.4654136169701815">
        <time>2022-01-25T12:08:35+00:00</time>
        <ele>3050.0</ele>
      </trkpt>
      <trkpt lat="44.767184341326356" lon="6.465372797101736">
        <time>2022-01-25T12:08:37+00:00</time>
        <ele>3049.0</ele>
      </trkpt>
      <trkpt lat="44.76717327721417" lon="6.465309681370854">
        <time>2022-01-25T12:08:39+00:00</time>
        <ele>3047.0</ele>
      </trkpt>
      <trkpt lat="44.767170092090964" lon="6.465263748541474">
        <time>2022-01-25T12:08:40+00:00</time>
        <ele>3047.0</ele>
      </trkpt>
      <trkpt lat="44.76716699078679" lon="6.465192250907421">
        <time>2022-01-25T12:08:42+00:00</time>
        <ele>3046.0</ele>
      </trkpt>
      <trkpt lat="44.76717386394739" lon="6.465111700817943">
        <time>2022-01-25T12:08:44+00:00</time>
        <ele>3044.0</ele>
      </trkpt>
      <trkpt lat="44.76718006655574" lon="6.465057386085391">
        <time>2022-01-25T12:08:46+00:00</time>
        <ele>3043.0</ele>
      </trkpt>
      <trkpt lat="44.76718534715474" lon="6.465040370821953">
        <time>2022-01-25T12:08:47+00:00</time>
        <ele>3043.0</ele>
      </trkpt>
      <trkpt lat="44.76719431579113" lon="6.465027295053005">
        <time>2022-01-25T12:08:50+00:00</time>
        <ele>3044.0</ele>
      </trkpt>
      <trkpt lat="44.7672198805958" lon="6.464957389980555">
        <time>2022-01-25T12:08:57+00:00</time>
        <ele>3044.0</ele>
      </trkpt>
      <trkpt lat="44.76722893305123" lon="6.464914977550507">
        <time>2022-01-25T12:08:59+00:00</time>
        <ele>3043.0</ele>
      </trkpt>
      <trkpt lat="44.76721057668328" lon="6.464732000604272">
        <time>2022-01-25T12:09:02+00:00</time>
        <ele>3038.0</ele>
      </trkpt>
      <trkpt lat="44.76720739156008" lon="6.46466888487339">
        <time>2022-01-25T12:09:03+00:00</time>
        <ele>3036.0</ele>
      </trkpt>
      <trkpt lat="44.767210660502315" lon="6.464625969529152">
        <time>2022-01-25T12:09:04+00:00</time>
        <ele>3036.0</ele>
      </trkpt>
      <trkpt lat="44.76721912622452" lon="6.464603506028652">
        <time>2022-01-25T12:09:05+00:00</time>
        <ele>3036.0</ele>
      </trkpt>
      <trkpt lat="44.767232118174434" lon="6.464601159095764">
        <time>2022-01-25T12:09:07+00:00</time>
        <ele>3037.0</ele>
      </trkpt>
      <trkpt lat="44.76723630912602" lon="6.464603757485747">
        <time>2022-01-25T12:09:08+00:00</time>
        <ele>3037.0</ele>
      </trkpt>
      <trkpt lat="44.76729640737176" lon="6.464652456343174">
        <time>2022-01-25T12:09:14+00:00</time>
        <ele>3038.0</ele>
      </trkpt>
      <trkpt lat="44.76735642179847" lon="6.464722193777561">
        <time>2022-01-25T12:09:20+00:00</time>
        <ele>3039.0</ele>
      </trkpt>
      <trkpt lat="44.767376789823174" lon="6.464754045009613">
        <time>2022-01-25T12:09:23+00:00</time>
        <ele>3039.0</ele>
      </trkpt>
      <trkpt lat="44.76737938821316" lon="6.464768880978227">
        <time>2022-01-25T12:09:28+00:00</time>
        <ele>3039.0</ele>
      </trkpt>
      <trkpt lat="44.76738232187927" lon="6.464761756360531">
        <time>2022-01-25T12:09:36+00:00</time>
        <ele>3039.0</ele>
      </trkpt>
      <trkpt lat="44.76738232187927" lon="6.464761756360531">
        <time>2022-01-25T12:09:37+00:00</time>
        <ele>3039.0</ele>
      </trkpt>
      <trkpt lat="44.76738232187927" lon="6.464761756360531">
        <time>2022-01-25T12:09:38+00:00</time>
        <ele>3039.0</ele>
      </trkpt>
      <trkpt lat="44.76738232187927" lon="6.464761756360531">
        <time>2022-01-25T12:09:42+00:00</time>
        <ele>3039.0</ele>
      </trkpt>
      <trkpt lat="44.767382238060236" lon="6.46475781686604">
        <time>2022-01-25T12:09:57+00:00</time>
        <ele>3039.0</ele>
      </trkpt>
      <trkpt lat="44.76738207042217" lon="6.464756894856691">
        <time>2022-01-25T12:10:03+00:00</time>
        <ele>3039.0</ele>
      </trkpt>
      <trkpt lat="44.76737997494638" lon="6.464756643399596">
        <time>2022-01-25T12:10:17+00:00</time>
        <ele>3039.0</ele>
      </trkpt>
      <trkpt lat="44.76738642901182" lon="6.4647547993808985">
        <time>2022-01-25T12:10:31+00:00</time>
        <ele>3039.0</ele>
      </trkpt>
      <trkpt lat="44.767399253323674" lon="6.464736945927143">
        <time>2022-01-25T12:10:34+00:00</time>
        <ele>3039.0</ele>
      </trkpt>
      <trkpt lat="44.76741274818778" lon="6.464686235412955">
        <time>2022-01-25T12:10:36+00:00</time>
        <ele>3038.0</ele>
      </trkpt>
      <trkpt lat="44.76741559803486" lon="6.4645736664533615">
        <time>2022-01-25T12:10:39+00:00</time>
        <ele>3036.0</ele>
      </trkpt>
      <trkpt lat="44.7674289252609" lon="6.464470401406288">
        <time>2022-01-25T12:10:41+00:00</time>
        <ele>3035.0</ele>
      </trkpt>
      <trkpt lat="44.767503859475255" lon="6.464458080008626">
        <time>2022-01-25T12:10:43+00:00</time>
        <ele>3031.0</ele>
      </trkpt>
      <trkpt lat="44.76753571070731" lon="6.464488422498107">
        <time>2022-01-25T12:10:44+00:00</time>
        <ele>3029.0</ele>
      </trkpt>
      <trkpt lat="44.76756286807358" lon="6.4645221177488565">
        <time>2022-01-25T12:10:45+00:00</time>
        <ele>3028.0</ele>
      </trkpt>
      <trkpt lat="44.7675845772028" lon="6.464547431096435">
        <time>2022-01-25T12:10:46+00:00</time>
        <ele>3027.0</ele>
      </trkpt>
      <trkpt lat="44.76760318502784" lon="6.464545503258705">
        <time>2022-01-25T12:10:47+00:00</time>
        <ele>3026.0</ele>
      </trkpt>
      <trkpt lat="44.76761634461582" lon="6.464520776644349">
        <time>2022-01-25T12:10:48+00:00</time>
        <ele>3025.0</ele>
      </trkpt>
      <trkpt lat="44.76762179285288" lon="6.464482890442014">
        <time>2022-01-25T12:10:49+00:00</time>
        <ele>3025.0</ele>
      </trkpt>
      <trkpt lat="44.767656745389104" lon="6.464411560446024">
        <time>2022-01-25T12:10:51+00:00</time>
        <ele>3022.0</ele>
      </trkpt>
      <trkpt lat="44.76768591441214" lon="6.464408794417977">
        <time>2022-01-25T12:10:52+00:00</time>
        <ele>3019.0</ele>
      </trkpt>
      <trkpt lat="44.767714496701956" lon="6.464402005076408">
        <time>2022-01-25T12:10:53+00:00</time>
        <ele>3017.0</ele>
      </trkpt>
      <trkpt lat="44.76773486472666" lon="6.464381217956543">
        <time>2022-01-25T12:10:54+00:00</time>
        <ele>3015.0</ele>
      </trkpt>
      <trkpt lat="44.76774257607758" lon="6.464347271248698">
        <time>2022-01-25T12:10:55+00:00</time>
        <ele>3014.0</ele>
      </trkpt>
      <trkpt lat="44.76775917224586" lon="6.464311312884092">
        <time>2022-01-25T12:10:56+00:00</time>
        <ele>3013.0</ele>
      </trkpt>
      <trkpt lat="44.76778666488826" lon="6.464299997314811">
        <time>2022-01-25T12:10:57+00:00</time>
        <ele>3011.0</ele>
      </trkpt>
      <trkpt lat="44.76781667210162" lon="6.464284071698785">
        <time>2022-01-25T12:10:58+00:00</time>
        <ele>3008.0</ele>
      </trkpt>
      <trkpt lat="44.767856653779745" lon="6.464261943474412">
        <time>2022-01-25T12:10:59+00:00</time>
        <ele>3005.0</ele>
      </trkpt>
      <trkpt lat="44.76789898239076" lon="6.46426135674119">
        <time>2022-01-25T12:11:00+00:00</time>
        <ele>3002.0</ele>
      </trkpt>
      <trkpt lat="44.76793896406889" lon="6.464258674532175">
        <time>2022-01-25T12:11:01+00:00</time>
        <ele>3000.0</ele>
      </trkpt>
      <trkpt lat="44.76797844283283" lon="6.464239815250039">
        <time>2022-01-25T12:11:02+00:00</time>
        <ele>2997.0</ele>
      </trkpt>
      <trkpt lat="44.76802362129092" lon="6.464218609035015">
        <time>2022-01-25T12:11:03+00:00</time>
        <ele>2994.0</ele>
      </trkpt>
      <trkpt lat="44.76808589883149" lon="6.4641934633255005">
        <time>2022-01-25T12:11:04+00:00</time>
        <ele>2991.0</ele>
      </trkpt>
      <trkpt lat="44.76814515888691" lon="6.464187344536185">
        <time>2022-01-25T12:11:05+00:00</time>
        <ele>2988.0</ele>
      </trkpt>
      <trkpt lat="44.76818572729826" lon="6.464194469153881">
        <time>2022-01-25T12:11:06+00:00</time>
        <ele>2985.0</ele>
      </trkpt>
      <trkpt lat="44.7682077717036" lon="6.464204108342528">
        <time>2022-01-25T12:11:07+00:00</time>
        <ele>2984.0</ele>
      </trkpt>
      <trkpt lat="44.76821942254901" lon="6.464212825521827">
        <time>2022-01-25T12:11:08+00:00</time>
        <ele>2983.0</ele>
      </trkpt>
      <trkpt lat="44.768233923241496" lon="6.4642383903265">
        <time>2022-01-25T12:11:10+00:00</time>
        <ele>2981.0</ele>
      </trkpt>
      <trkpt lat="44.76823015138507" lon="6.464283233508468">
        <time>2022-01-25T12:11:13+00:00</time>
        <ele>2980.0</ele>
      </trkpt>
      <trkpt lat="44.76822964847088" lon="6.464336542412639">
        <time>2022-01-25T12:11:19+00:00</time>
        <ele>2979.0</ele>
      </trkpt>
      <trkpt lat="44.76824867539108" lon="6.464368896558881">
        <time>2022-01-25T12:11:20+00:00</time>
        <ele>2977.0</ele>
      </trkpt>
      <trkpt lat="44.768273402005434" lon="6.464415667578578">
        <time>2022-01-25T12:11:21+00:00</time>
        <ele>2974.0</ele>
      </trkpt>
      <trkpt lat="44.768291087821126" lon="6.464480711147189">
        <time>2022-01-25T12:11:22+00:00</time>
        <ele>2970.0</ele>
      </trkpt>
      <trkpt lat="44.768312545493245" lon="6.464535864070058">
        <time>2022-01-25T12:11:23+00:00</time>
        <ele>2967.0</ele>
      </trkpt>
      <trkpt lat="44.76833760738373" lon="6.4645906817168">
        <time>2022-01-25T12:11:24+00:00</time>
        <ele>2963.0</ele>
      </trkpt>
      <trkpt lat="44.76836518384516" lon="6.464644242078066">
        <time>2022-01-25T12:11:25+00:00</time>
        <ele>2959.0</ele>
      </trkpt>
      <trkpt lat="44.76840156130493" lon="6.464688498526812">
        <time>2022-01-25T12:11:26+00:00</time>
        <ele>2955.0</ele>
      </trkpt>
      <trkpt lat="44.768431819975376" lon="6.464733257889748">
        <time>2022-01-25T12:11:27+00:00</time>
        <ele>2952.0</ele>
      </trkpt>
      <trkpt lat="44.76846090517938" lon="6.4647806994616985">
        <time>2022-01-25T12:11:28+00:00</time>
        <ele>2949.0</ele>
      </trkpt>
      <trkpt lat="44.76848806254566" lon="6.464834930375218">
        <time>2022-01-25T12:11:29+00:00</time>
        <ele>2946.0</ele>
      </trkpt>
      <trkpt lat="44.768513878807425" lon="6.464887736365199">
        <time>2022-01-25T12:11:30+00:00</time>
        <ele>2942.0</ele>
      </trkpt>
      <trkpt lat="44.76853910833597" lon="6.464938782155514">
        <time>2022-01-25T12:11:31+00:00</time>
        <ele>2938.0</ele>
      </trkpt>
      <trkpt lat="44.76857431232929" lon="6.464956551790237">
        <time>2022-01-25T12:11:32+00:00</time>
        <ele>2935.0</ele>
      </trkpt>
      <trkpt lat="44.76861781440675" lon="6.464946661144495">
        <time>2022-01-25T12:11:33+00:00</time>
        <ele>2931.0</ele>
      </trkpt>
      <trkpt lat="44.768664333969355" lon="6.464931657537818">
        <time>2022-01-25T12:11:34+00:00</time>
        <ele>2927.0</ele>
      </trkpt>
      <trkpt lat="44.76871454156935" lon="6.464924868196249">
        <time>2022-01-25T12:11:35+00:00</time>
        <ele>2923.0</ele>
      </trkpt>
      <trkpt lat="44.768762066960335" lon="6.4649400394409895">
        <time>2022-01-25T12:11:36+00:00</time>
        <ele>2918.0</ele>
      </trkpt>
      <trkpt lat="44.76879743859172" lon="6.464974572882056">
        <time>2022-01-25T12:11:37+00:00</time>
        <ele>2915.0</ele>
      </trkpt>
      <trkpt lat="44.76883180439472" lon="6.465010028332472">
        <time>2022-01-25T12:11:38+00:00</time>
        <ele>2912.0</ele>
      </trkpt>
      <trkpt lat="44.76886264979839" lon="6.465048836544156">
        <time>2022-01-25T12:11:39+00:00</time>
        <ele>2908.0</ele>
      </trkpt>
      <trkpt lat="44.76889383047819" lon="6.465090494602919">
        <time>2022-01-25T12:11:40+00:00</time>
        <ele>2904.0</ele>
      </trkpt>
      <trkpt lat="44.768935572355986" lon="6.465125782415271">
        <time>2022-01-25T12:11:41+00:00</time>
        <ele>2899.0</ele>
      </trkpt>
      <trkpt lat="44.768979996442795" lon="6.465157214552164">
        <time>2022-01-25T12:11:42+00:00</time>
        <ele>2894.0</ele>
      </trkpt>
      <trkpt lat="44.7690193913877" lon="6.465191664174199">
        <time>2022-01-25T12:11:43+00:00</time>
        <ele>2889.0</ele>
      </trkpt>
      <trkpt lat="44.769060127437115" lon="6.465224185958505">
        <time>2022-01-25T12:11:44+00:00</time>
        <ele>2885.0</ele>
      </trkpt>
      <trkpt lat="44.76909055374563" lon="6.465271627530456">
        <time>2022-01-25T12:11:45+00:00</time>
        <ele>2882.0</ele>
      </trkpt>
      <trkpt lat="44.76909801363945" lon="6.465326026082039">
        <time>2022-01-25T12:11:46+00:00</time>
        <ele>2881.0</ele>
      </trkpt>
      <trkpt lat="44.76908820681274" lon="6.465373802930117">
        <time>2022-01-25T12:11:47+00:00</time>
        <ele>2882.0</ele>
      </trkpt>
      <trkpt lat="44.769073035568" lon="6.465416634455323">
        <time>2022-01-25T12:11:48+00:00</time>
        <ele>2883.0</ele>
      </trkpt>
      <trkpt lat="44.76906381547451" lon="6.465458460152149">
        <time>2022-01-25T12:11:49+00:00</time>
        <ele>2884.0</ele>
      </trkpt>
      <trkpt lat="44.76905409246683" lon="6.46549073047936">
        <time>2022-01-25T12:11:50+00:00</time>
        <ele>2886.0</ele>
      </trkpt>
      <trkpt lat="44.76904856041074" lon="6.465514115989208">
        <time>2022-01-25T12:11:51+00:00</time>
        <ele>2887.0</ele>
      </trkpt>
      <trkpt lat="44.769044537097216" lon="6.465529287233949">
        <time>2022-01-25T12:11:52+00:00</time>
        <ele>2889.0</ele>
      </trkpt>
      <trkpt lat="44.7690265160054" lon="6.465544039383531">
        <time>2022-01-25T12:11:54+00:00</time>
        <ele>2892.0</ele>
      </trkpt>
      <trkpt lat="44.76898167282343" lon="6.465552588924766">
        <time>2022-01-25T12:12:02+00:00</time>
        <ele>2898.0</ele>
      </trkpt>
      <trkpt lat="44.768966836854815" lon="6.465552756562829">
        <time>2022-01-25T12:12:12+00:00</time>
        <ele>2900.0</ele>
      </trkpt>
      <trkpt lat="44.768964909017086" lon="6.4655496552586555">
        <time>2022-01-25T12:12:28+00:00</time>
        <ele>2900.0</ele>
      </trkpt>
      <trkpt lat="44.768964825198054" lon="6.465547559782863">
        <time>2022-01-25T12:12:29+00:00</time>
        <ele>2900.0</ele>
      </trkpt>
      <trkpt lat="44.76896314881742" lon="6.465541105717421">
        <time>2022-01-25T12:12:36+00:00</time>
        <ele>2900.0</ele>
      </trkpt>
      <trkpt lat="44.768963903188705" lon="6.465537250041962">
        <time>2022-01-25T12:12:39+00:00</time>
        <ele>2900.0</ele>
      </trkpt>
      <trkpt lat="44.76896448992193" lon="6.465536328032613">
        <time>2022-01-25T12:12:41+00:00</time>
        <ele>2900.0</ele>
      </trkpt>
      <trkpt lat="44.768964825198054" lon="6.465535741299391">
        <time>2022-01-25T12:12:43+00:00</time>
        <ele>2899.0</ele>
      </trkpt>
      <trkpt lat="44.76896608248353" lon="6.4655152056366205">
        <time>2022-01-25T12:12:49+00:00</time>
        <ele>2898.0</ele>
      </trkpt>
      <trkpt lat="44.768969686701894" lon="6.465504560619593">
        <time>2022-01-25T12:12:58+00:00</time>
        <ele>2897.0</ele>
      </trkpt>
      <trkpt lat="44.768969686701894" lon="6.465504225343466">
        <time>2022-01-25T12:13:02+00:00</time>
        <ele>2897.0</ele>
      </trkpt>
      <trkpt lat="44.768969686701894" lon="6.465504225343466">
        <time>2022-01-25T12:13:04+00:00</time>
        <ele>2897.0</ele>
      </trkpt>
      <trkpt lat="44.768969686701894" lon="6.465504476800561">
        <time>2022-01-25T12:13:07+00:00</time>
        <ele>2897.0</ele>
      </trkpt>
      <trkpt lat="44.768968764692545" lon="6.4655048958957195">
        <time>2022-01-25T12:13:11+00:00</time>
        <ele>2897.0</ele>
      </trkpt>
      <trkpt lat="44.7689588740468" lon="6.465506153181195">
        <time>2022-01-25T12:13:23+00:00</time>
        <ele>2898.0</ele>
      </trkpt>
      <trkpt lat="44.768955605104566" lon="6.46550640463829">
        <time>2022-01-25T12:13:30+00:00</time>
        <ele>2899.0</ele>
      </trkpt>
      <trkpt lat="44.76895468309522" lon="6.465504728257656">
        <time>2022-01-25T12:13:36+00:00</time>
        <ele>2899.0</ele>
      </trkpt>
      <trkpt lat="44.768954096361995" lon="6.4655007887631655">
        <time>2022-01-25T12:13:42+00:00</time>
        <ele>2899.0</ele>
      </trkpt>
      <trkpt lat="44.768947809934616" lon="6.465501710772514">
        <time>2022-01-25T12:13:59+00:00</time>
        <ele>2900.0</ele>
      </trkpt>
      <trkpt lat="44.76894596591592" lon="6.465502884238958">
        <time>2022-01-25T12:14:09+00:00</time>
        <ele>2900.0</ele>
      </trkpt>
      <trkpt lat="44.76894563063979" lon="6.465502884238958">
        <time>2022-01-25T12:14:12+00:00</time>
        <ele>2900.0</ele>
      </trkpt>
      <trkpt lat="44.768947307020426" lon="6.465501040220261">
        <time>2022-01-25T12:14:28+00:00</time>
        <ele>2900.0</ele>
      </trkpt>
      <trkpt lat="44.76895032450557" lon="6.465500704944134">
        <time>2022-01-25T12:14:36+00:00</time>
        <ele>2900.0</ele>
      </trkpt>
      <trkpt lat="44.76895049214363" lon="6.465500704944134">
        <time>2022-01-25T12:14:37+00:00</time>
        <ele>2900.0</ele>
      </trkpt>
      <trkpt lat="44.76897823624313" lon="6.4655249286442995">
        <time>2022-01-25T12:14:42+00:00</time>
        <ele>2897.0</ele>
      </trkpt>
      <trkpt lat="44.76900824345648" lon="6.465512355789542">
        <time>2022-01-25T12:14:43+00:00</time>
        <ele>2893.0</ele>
      </trkpt>
      <trkpt lat="44.76908275857568" lon="6.465417807921767">
        <time>2022-01-25T12:14:45+00:00</time>
        <ele>2882.0</ele>
      </trkpt>
      <trkpt lat="44.76918845437467" lon="6.4653644151985645">
        <time>2022-01-25T12:14:47+00:00</time>
        <ele>2872.0</ele>
      </trkpt>
      <trkpt lat="44.76924176327884" lon="6.465384028851986">
        <time>2022-01-25T12:14:48+00:00</time>
        <ele>2867.0</ele>
      </trkpt>
      <trkpt lat="44.76930018514395" lon="6.465414455160499">
        <time>2022-01-25T12:14:49+00:00</time>
        <ele>2862.0</ele>
      </trkpt>
      <trkpt lat="44.76935852319002" lon="6.46544773131609">
        <time>2022-01-25T12:14:50+00:00</time>
        <ele>2857.0</ele>
      </trkpt>
      <trkpt lat="44.76942096836865" lon="6.465452844277024">
        <time>2022-01-25T12:14:51+00:00</time>
        <ele>2851.0</ele>
      </trkpt>
      <trkpt lat="44.76946606300771" lon="6.465464411303401">
        <time>2022-01-25T12:14:52+00:00</time>
        <ele>2847.0</ele>
      </trkpt>
      <trkpt lat="44.76953127421439" lon="6.465470613911748">
        <time>2022-01-25T12:14:53+00:00</time>
        <ele>2842.0</ele>
      </trkpt>
      <trkpt lat="44.76959682069719" lon="6.465485701337457">
        <time>2022-01-25T12:14:54+00:00</time>
        <ele>2837.0</ele>
      </trkpt>
      <trkpt lat="44.76966387592256" lon="6.465499699115753">
        <time>2022-01-25T12:14:55+00:00</time>
        <ele>2831.0</ele>
      </trkpt>
      <trkpt lat="44.76972891949117" lon="6.465493077412248">
        <time>2022-01-25T12:14:56+00:00</time>
        <ele>2826.0</ele>
      </trkpt>
      <trkpt lat="44.769793627783656" lon="6.465490646660328">
        <time>2022-01-25T12:14:57+00:00</time>
        <ele>2821.0</ele>
      </trkpt>
      <trkpt lat="44.769861437380314" lon="6.465473715215921">
        <time>2022-01-25T12:14:58+00:00</time>
        <ele>2816.0</ele>
      </trkpt>
      <trkpt lat="44.76992949843407" lon="6.465430129319429">
        <time>2022-01-25T12:14:59+00:00</time>
        <ele>2811.0</ele>
      </trkpt>
      <trkpt lat="44.77000485174358" lon="6.465391740202904">
        <time>2022-01-25T12:15:00+00:00</time>
        <ele>2806.0</ele>
      </trkpt>
      <trkpt lat="44.77007383480668" lon="6.465402385219932">
        <time>2022-01-25T12:15:01+00:00</time>
        <ele>2800.0</ele>
      </trkpt>
      <trkpt lat="44.77013502269983" lon="6.465438595041633">
        <time>2022-01-25T12:15:02+00:00</time>
        <ele>2795.0</ele>
      </trkpt>
      <trkpt lat="44.77019780315459" lon="6.465475894510746">
        <time>2022-01-25T12:15:03+00:00</time>
        <ele>2791.0</ele>
      </trkpt>
      <trkpt lat="44.77026083506644" lon="6.465506572276354">
        <time>2022-01-25T12:15:04+00:00</time>
        <ele>2787.0</ele>
      </trkpt>
      <trkpt lat="44.77033669129014" lon="6.46553372964263">
        <time>2022-01-25T12:15:05+00:00</time>
        <ele>2781.0</ele>
      </trkpt>
      <trkpt lat="44.770383378490806" lon="6.465548984706402">
        <time>2022-01-25T12:15:06+00:00</time>
        <ele>2778.0</ele>
      </trkpt>
      <trkpt lat="44.77045596577227" lon="6.46556650288403">
        <time>2022-01-25T12:15:07+00:00</time>
        <ele>2772.0</ele>
      </trkpt>
      <trkpt lat="44.77050491608679" lon="6.4655988570302725">
        <time>2022-01-25T12:15:08+00:00</time>
        <ele>2768.0</ele>
      </trkpt>
      <trkpt lat="44.77052964270115" lon="6.465636156499386">
        <time>2022-01-25T12:15:09+00:00</time>
        <ele>2766.0</ele>
      </trkpt>
      <trkpt lat="44.770549004897475" lon="6.465659458190203">
        <time>2022-01-25T12:15:10+00:00</time>
        <ele>2764.0</ele>
      </trkpt>
      <trkpt lat="44.77055562660098" lon="6.465670606121421">
        <time>2022-01-25T12:15:11+00:00</time>
        <ele>2764.0</ele>
      </trkpt>
      <trkpt lat="44.77055596187711" lon="6.465671025216579">
        <time>2022-01-25T12:15:12+00:00</time>
        <ele>2764.0</ele>
      </trkpt>
      <trkpt lat="44.77054883725941" lon="6.46567203104496">
        <time>2022-01-25T12:15:13+00:00</time>
        <ele>2764.0</ele>
      </trkpt>
      <trkpt lat="44.770547077059746" lon="6.46567152813077">
        <time>2022-01-25T12:15:14+00:00</time>
        <ele>2764.0</ele>
      </trkpt>
      <trkpt lat="44.77054498158395" lon="6.465672450140119">
        <time>2022-01-25T12:15:15+00:00</time>
        <ele>2765.0</ele>
      </trkpt>
      <trkpt lat="44.77053467184305" lon="6.465676473453641">
        <time>2022-01-25T12:15:22+00:00</time>
        <ele>2765.0</ele>
      </trkpt>
      <trkpt lat="44.77053358219564" lon="6.465675886720419">
        <time>2022-01-25T12:15:23+00:00</time>
        <ele>2765.0</ele>
      </trkpt>
      <trkpt lat="44.77053358219564" lon="6.465675886720419">
        <time>2022-01-25T12:15:31+00:00</time>
        <ele>2765.0</ele>
      </trkpt>
      <trkpt lat="44.77053358219564" lon="6.465675886720419">
        <time>2022-01-25T12:15:35+00:00</time>
        <ele>2765.0</ele>
      </trkpt>
      <trkpt lat="44.77053358219564" lon="6.465673539787531">
        <time>2022-01-25T12:15:39+00:00</time>
        <ele>2765.0</ele>
      </trkpt>
      <trkpt lat="44.77052679285407" lon="6.465671360492706">
        <time>2022-01-25T12:15:46+00:00</time>
        <ele>2766.0</ele>
      </trkpt>
      <trkpt lat="44.77051933296025" lon="6.4656613022089005">
        <time>2022-01-25T12:15:53+00:00</time>
        <ele>2767.0</ele>
      </trkpt>
      <trkpt lat="44.770517740398645" lon="6.4656613022089005">
        <time>2022-01-25T12:15:55+00:00</time>
        <ele>2767.0</ele>
      </trkpt>
      <trkpt lat="44.77051732130349" lon="6.4656613022089005">
        <time>2022-01-25T12:15:56+00:00</time>
        <ele>2767.0</ele>
      </trkpt>
      <trkpt lat="44.77051606401801" lon="6.465666918084025">
        <time>2022-01-25T12:15:57+00:00</time>
        <ele>2767.0</ele>
      </trkpt>
      <trkpt lat="44.77052478119731" lon="6.4658322930336">
        <time>2022-01-25T12:16:00+00:00</time>
        <ele>2765.0</ele>
      </trkpt>
      <trkpt lat="44.7705459035933" lon="6.465942934155464">
        <time>2022-01-25T12:16:02+00:00</time>
        <ele>2763.0</ele>
      </trkpt>
      <trkpt lat="44.770567612722516" lon="6.466039158403873">
        <time>2022-01-25T12:16:04+00:00</time>
        <ele>2761.0</ele>
      </trkpt>
      <trkpt lat="44.77059074677527" lon="6.466141669079661">
        <time>2022-01-25T12:16:06+00:00</time>
        <ele>2758.0</ele>
      </trkpt>
      <trkpt lat="44.770597368478775" lon="6.466170754283667">
        <time>2022-01-25T12:16:07+00:00</time>
        <ele>2757.0</ele>
      </trkpt>
      <trkpt lat="44.77059862576425" lon="6.466199671849608">
        <time>2022-01-25T12:16:09+00:00</time>
        <ele>2757.0</ele>
      </trkpt>
      <trkpt lat="44.77059560827911" lon="6.46621341817081">
        <time>2022-01-25T12:16:11+00:00</time>
        <ele>2757.0</ele>
      </trkpt>
      <trkpt lat="44.77059527300298" lon="6.466215346008539">
        <time>2022-01-25T12:16:12+00:00</time>
        <ele>2757.0</ele>
      </trkpt>
      <trkpt lat="44.77059912867844" lon="6.466214004904032">
        <time>2022-01-25T12:16:15+00:00</time>
        <ele>2757.0</ele>
      </trkpt>
      <trkpt lat="44.77059041149914" lon="6.466221045702696">
        <time>2022-01-25T12:16:19+00:00</time>
        <ele>2758.0</ele>
      </trkpt>
      <trkpt lat="44.7705702111125" lon="6.466209813952446">
        <time>2022-01-25T12:16:53+00:00</time>
        <ele>2759.0</ele>
      </trkpt>
      <trkpt lat="44.77057163603604" lon="6.466209730133414">
        <time>2022-01-25T12:17:00+00:00</time>
        <ele>2759.0</ele>
      </trkpt>
      <trkpt lat="44.7705770842731" lon="6.466209897771478">
        <time>2022-01-25T12:17:10+00:00</time>
        <ele>2759.0</ele>
      </trkpt>
      <trkpt lat="44.7705770842731" lon="6.466210400685668">
        <time>2022-01-25T12:17:15+00:00</time>
        <ele>2759.0</ele>
      </trkpt>
      <trkpt lat="44.770564176142216" lon="6.466344092041254">
        <time>2022-01-25T12:17:27+00:00</time>
        <ele>2759.0</ele>
      </trkpt>
      <trkpt lat="44.77058479562402" lon="6.466526985168457">
        <time>2022-01-25T12:17:29+00:00</time>
        <ele>2758.0</ele>
      </trkpt>
      <trkpt lat="44.77060935460031" lon="6.4666040148586035">
        <time>2022-01-25T12:17:30+00:00</time>
        <ele>2756.0</ele>
      </trkpt>
      <trkpt lat="44.770689737051725" lon="6.4667468424886465">
        <time>2022-01-25T12:17:32+00:00</time>
        <ele>2750.0</ele>
      </trkpt>
      <trkpt lat="44.77073105983436" lon="6.466816328465939">
        <time>2022-01-25T12:17:33+00:00</time>
        <ele>2748.0</ele>
      </trkpt>
      <trkpt lat="44.770770287141204" lon="6.466884473338723">
        <time>2022-01-25T12:17:34+00:00</time>
        <ele>2746.0</ele>
      </trkpt>
      <trkpt lat="44.77081714197993" lon="6.466950019821525">
        <time>2022-01-25T12:17:35+00:00</time>
        <ele>2743.0</ele>
      </trkpt>
      <trkpt lat="44.77085771039128" lon="6.467011542990804">
        <time>2022-01-25T12:17:36+00:00</time>
        <ele>2741.0</ele>
      </trkpt>
      <trkpt lat="44.77088939398527" lon="6.467054542154074">
        <time>2022-01-25T12:17:37+00:00</time>
        <ele>2739.0</ele>
      </trkpt>
      <trkpt lat="44.77090749889612" lon="6.467063762247562">
        <time>2022-01-25T12:17:38+00:00</time>
        <ele>2737.0</ele>
      </trkpt>
      <trkpt lat="44.77091571316123" lon="6.467054625973105">
        <time>2022-01-25T12:17:39+00:00</time>
        <ele>2737.0</ele>
      </trkpt>
      <trkpt lat="44.77092124521732" lon="6.467037023976445">
        <time>2022-01-25T12:17:40+00:00</time>
        <ele>2736.0</ele>
      </trkpt>
      <trkpt lat="44.770930968225" lon="6.466985139995813">
        <time>2022-01-25T12:17:42+00:00</time>
        <ele>2735.0</ele>
      </trkpt>
      <trkpt lat="44.770942870527506" lon="6.466920934617519">
        <time>2022-01-25T12:17:46+00:00</time>
        <ele>2733.0</ele>
      </trkpt>
      <trkpt lat="44.77096164599061" lon="6.466906350106001">
        <time>2022-01-25T12:17:53+00:00</time>
        <ele>2731.0</ele>
      </trkpt>
      <trkpt lat="44.77096164599061" lon="6.466906350106001">
        <time>2022-01-25T12:18:05+00:00</time>
        <ele>2731.0</ele>
      </trkpt>
      <trkpt lat="44.77096516638994" lon="6.466852119192481">
        <time>2022-01-25T12:18:07+00:00</time>
        <ele>2731.0</ele>
      </trkpt>
      <trkpt lat="44.77096499875188" lon="6.466806354001164">
        <time>2022-01-25T12:18:08+00:00</time>
        <ele>2730.0</ele>
      </trkpt>
      <trkpt lat="44.77096642367542" lon="6.4667612593621016">
        <time>2022-01-25T12:18:09+00:00</time>
        <ele>2730.0</ele>
      </trkpt>
      <trkpt lat="44.770963322371244" lon="6.466676099225879">
        <time>2022-01-25T12:18:11+00:00</time>
        <ele>2729.0</ele>
      </trkpt>
      <trkpt lat="44.77096357382834" lon="6.46665028296411">
        <time>2022-01-25T12:18:12+00:00</time>
        <ele>2729.0</ele>
      </trkpt>
      <trkpt lat="44.77096667513251" lon="6.466631256043911">
        <time>2022-01-25T12:18:13+00:00</time>
        <ele>2729.0</ele>
      </trkpt>
      <trkpt lat="44.77098863571882" lon="6.466617174446583">
        <time>2022-01-25T12:18:14+00:00</time>
        <ele>2727.0</ele>
      </trkpt>
      <trkpt lat="44.771029371768236" lon="6.466621030122042">
        <time>2022-01-25T12:18:15+00:00</time>
        <ele>2724.0</ele>
      </trkpt>
      <trkpt lat="44.771077651530504" lon="6.466654893010855">
        <time>2022-01-25T12:18:16+00:00</time>
        <ele>2720.0</ele>
      </trkpt>
      <trkpt lat="44.77111076004803" lon="6.4666711539030075">
        <time>2022-01-25T12:18:17+00:00</time>
        <ele>2718.0</ele>
      </trkpt>
      <trkpt lat="44.77115023881197" lon="6.466674841940403">
        <time>2022-01-25T12:18:18+00:00</time>
        <ele>2715.0</ele>
      </trkpt>
      <trkpt lat="44.77117773145437" lon="6.466682301834226">
        <time>2022-01-25T12:18:19+00:00</time>
        <ele>2713.0</ele>
      </trkpt>
      <trkpt lat="44.77119566872716" lon="6.4666626043617725">
        <time>2022-01-25T12:18:20+00:00</time>
        <ele>2711.0</ele>
      </trkpt>
      <trkpt lat="44.77121679112315" lon="6.466622957959771">
        <time>2022-01-25T12:18:21+00:00</time>
        <ele>2709.0</ele>
      </trkpt>
      <trkpt lat="44.77123950608075" lon="6.466588173061609">
        <time>2022-01-25T12:18:22+00:00</time>
        <ele>2707.0</ele>
      </trkpt>
      <trkpt lat="44.7712676692754" lon="6.46655447781086">
        <time>2022-01-25T12:18:23+00:00</time>
        <ele>2705.0</ele>
      </trkpt>
      <trkpt lat="44.771305387839675" lon="6.466529918834567">
        <time>2022-01-25T12:18:24+00:00</time>
        <ele>2702.0</ele>
      </trkpt>
      <trkpt lat="44.77134671062231" lon="6.4665077067911625">
        <time>2022-01-25T12:18:25+00:00</time>
        <ele>2699.0</ele>
      </trkpt>
      <trkpt lat="44.771393816918135" lon="6.4664791245013475">
        <time>2022-01-25T12:18:26+00:00</time>
        <ele>2696.0</ele>
      </trkpt>
      <trkpt lat="44.77143790572882" lon="6.466455152258277">
        <time>2022-01-25T12:18:27+00:00</time>
        <ele>2693.0</ele>
      </trkpt>
      <trkpt lat="44.77150496095419" lon="6.46643528714776">
        <time>2022-01-25T12:18:28+00:00</time>
        <ele>2687.0</ele>
      </trkpt>
      <trkpt lat="44.77155374363065" lon="6.466422714293003">
        <time>2022-01-25T12:18:29+00:00</time>
        <ele>2683.0</ele>
      </trkpt>
      <trkpt lat="44.77159800007939" lon="6.466406369581819">
        <time>2022-01-25T12:18:30+00:00</time>
        <ele>2680.0</ele>
      </trkpt>
      <trkpt lat="44.77163982577622" lon="6.466414667665958">
        <time>2022-01-25T12:18:31+00:00</time>
        <ele>2676.0</ele>
      </trkpt>
      <trkpt lat="44.7716807294637" lon="6.466432688757777">
        <time>2022-01-25T12:18:32+00:00</time>
        <ele>2672.0</ele>
      </trkpt>
      <trkpt lat="44.77172423154116" lon="6.466452218592167">
        <time>2022-01-25T12:18:33+00:00</time>
        <ele>2668.0</ele>
      </trkpt>
      <trkpt lat="44.771767146885395" lon="6.466473760083318">
        <time>2022-01-25T12:18:34+00:00</time>
        <ele>2664.0</ele>
      </trkpt>
      <trkpt lat="44.77180746383965" lon="6.466486332938075">
        <time>2022-01-25T12:18:35+00:00</time>
        <ele>2661.0</ele>
      </trkpt>
      <trkpt lat="44.771855575963855" lon="6.466483399271965">
        <time>2022-01-25T12:18:36+00:00</time>
        <ele>2657.0</ele>
      </trkpt>
      <trkpt lat="44.771888265386224" lon="6.466500079259276">
        <time>2022-01-25T12:18:37+00:00</time>
        <ele>2655.0</ele>
      </trkpt>
      <trkpt lat="44.77192028425634" lon="6.466565793380141">
        <time>2022-01-25T12:18:38+00:00</time>
        <ele>2653.0</ele>
      </trkpt>
      <trkpt lat="44.77193000726402" lon="6.466643577441573">
        <time>2022-01-25T12:18:39+00:00</time>
        <ele>2654.0</ele>
      </trkpt>
      <trkpt lat="44.77194517850876" lon="6.46670451387763">
        <time>2022-01-25T12:18:40+00:00</time>
        <ele>2654.0</ele>
      </trkpt>
      <trkpt lat="44.77197979576886" lon="6.466716416180134">
        <time>2022-01-25T12:18:41+00:00</time>
        <ele>2651.0</ele>
      </trkpt>
      <trkpt lat="44.77202212437987" lon="6.466718930751085">
        <time>2022-01-25T12:18:42+00:00</time>
        <ele>2648.0</ele>
      </trkpt>
      <trkpt lat="44.77206596173346" lon="6.466731335967779">
        <time>2022-01-25T12:18:43+00:00</time>
        <ele>2645.0</ele>
      </trkpt>
      <trkpt lat="44.77211491204798" lon="6.466727564111352">
        <time>2022-01-25T12:18:44+00:00</time>
        <ele>2641.0</ele>
      </trkpt>
      <trkpt lat="44.77217040024698" lon="6.46674457937479">
        <time>2022-01-25T12:18:45+00:00</time>
        <ele>2637.0</ele>
      </trkpt>
      <trkpt lat="44.77220677770674" lon="6.4667765982449055">
        <time>2022-01-25T12:18:46+00:00</time>
        <ele>2634.0</ele>
      </trkpt>
      <trkpt lat="44.77224927395582" lon="6.466808365657926">
        <time>2022-01-25T12:18:47+00:00</time>
        <ele>2632.0</ele>
      </trkpt>
      <trkpt lat="44.77229462005198" lon="6.466822614893317">
        <time>2022-01-25T12:18:48+00:00</time>
        <ele>2628.0</ele>
      </trkpt>
      <trkpt lat="44.772336361929774" lon="6.466829655691981">
        <time>2022-01-25T12:18:49+00:00</time>
        <ele>2626.0</ele>
      </trkpt>
      <trkpt lat="44.77237139828503" lon="6.466817669570446">
        <time>2022-01-25T12:18:50+00:00</time>
        <ele>2623.0</ele>
      </trkpt>
      <trkpt lat="44.77239444851875" lon="6.4667824655771255">
        <time>2022-01-25T12:18:51+00:00</time>
        <ele>2621.0</ele>
      </trkpt>
      <trkpt lat="44.77241615764797" lon="6.466733682900667">
        <time>2022-01-25T12:18:52+00:00</time>
        <ele>2619.0</ele>
      </trkpt>
      <trkpt lat="44.77243593893945" lon="6.466688672080636">
        <time>2022-01-25T12:18:53+00:00</time>
        <ele>2617.0</ele>
      </trkpt>
      <trkpt lat="44.77244264446199" lon="6.466662939637899">
        <time>2022-01-25T12:18:54+00:00</time>
        <ele>2616.0</ele>
      </trkpt>
      <trkpt lat="44.77244038134813" lon="6.466652965173125">
        <time>2022-01-25T12:18:55+00:00</time>
        <ele>2616.0</ele>
      </trkpt>
      <trkpt lat="44.77243543602526" lon="6.466649444773793">
        <time>2022-01-25T12:18:56+00:00</time>
        <ele>2616.0</ele>
      </trkpt>
      <trkpt lat="44.7724196780473" lon="6.46665564738214">
        <time>2022-01-25T12:18:59+00:00</time>
        <ele>2617.0</ele>
      </trkpt>
      <trkpt lat="44.772429736331105" lon="6.466624969616532">
        <time>2022-01-25T12:19:07+00:00</time>
        <ele>2616.0</ele>
      </trkpt>
      <trkpt lat="44.772442895919085" lon="6.466574678197503">
        <time>2022-01-25T12:19:14+00:00</time>
        <ele>2615.0</ele>
      </trkpt>
      <trkpt lat="44.77243627421558" lon="6.466571241617203">
        <time>2022-01-25T12:19:22+00:00</time>
        <ele>2615.0</ele>
      </trkpt>
      <trkpt lat="44.77243627421558" lon="6.466571241617203">
        <time>2022-01-25T12:19:31+00:00</time>
        <ele>2615.0</ele>
      </trkpt>
      <trkpt lat="44.77244012989104" lon="6.466554729267955">
        <time>2022-01-25T12:19:56+00:00</time>
        <ele>2615.0</ele>
      </trkpt>
      <trkpt lat="44.77244012989104" lon="6.466553471982479">
        <time>2022-01-25T12:19:58+00:00</time>
        <ele>2615.0</ele>
      </trkpt>
      <trkpt lat="44.77244012989104" lon="6.466552298516035">
        <time>2022-01-25T12:20:00+00:00</time>
        <ele>2615.0</ele>
      </trkpt>
      <trkpt lat="44.772441470995545" lon="6.466550538316369">
        <time>2022-01-25T12:20:12+00:00</time>
        <ele>2615.0</ele>
      </trkpt>
      <trkpt lat="44.77243987843394" lon="6.4665942918509245">
        <time>2022-01-25T12:20:39+00:00</time>
        <ele>2615.0</ele>
      </trkpt>
      <trkpt lat="44.77243987843394" lon="6.4665942918509245">
        <time>2022-01-25T12:20:40+00:00</time>
        <ele>2615.0</ele>
      </trkpt>
      <trkpt lat="44.77243987843394" lon="6.4665942918509245">
        <time>2022-01-25T12:20:41+00:00</time>
        <ele>2615.0</ele>
      </trkpt>
      <trkpt lat="44.772435603663325" lon="6.466639135032892">
        <time>2022-01-25T12:20:51+00:00</time>
        <ele>2616.0</ele>
      </trkpt>
      <trkpt lat="44.7724334243685" lon="6.466642236337066">
        <time>2022-01-25T12:20:56+00:00</time>
        <ele>2616.0</ele>
      </trkpt>
      <trkpt lat="44.772430658340454" lon="6.466643074527383">
        <time>2022-01-25T12:20:59+00:00</time>
        <ele>2617.0</ele>
      </trkpt>
      <trkpt lat="44.77242990396917" lon="6.466643661260605">
        <time>2022-01-25T12:21:01+00:00</time>
        <ele>2617.0</ele>
      </trkpt>
      <trkpt lat="44.77242646738887" lon="6.466644499450922">
        <time>2022-01-25T12:21:04+00:00</time>
        <ele>2617.0</ele>
      </trkpt>
      <trkpt lat="44.77244121953845" lon="6.466723959892988">
        <time>2022-01-25T12:21:17+00:00</time>
        <ele>2617.0</ele>
      </trkpt>
      <trkpt lat="44.772466365247965" lon="6.466750195249915">
        <time>2022-01-25T12:21:18+00:00</time>
        <ele>2615.0</ele>
      </trkpt>
      <trkpt lat="44.77253694087267" lon="6.466875420883298">
        <time>2022-01-25T12:21:20+00:00</time>
        <ele>2613.0</ele>
      </trkpt>
      <trkpt lat="44.77256828919053" lon="6.466940799728036">
        <time>2022-01-25T12:21:21+00:00</time>
        <ele>2614.0</ele>
      </trkpt>
      <trkpt lat="44.772583208978176" lon="6.466981032863259">
        <time>2022-01-25T12:21:22+00:00</time>
        <ele>2614.0</ele>
      </trkpt>
      <trkpt lat="44.77258941158652" lon="6.466992599889636">
        <time>2022-01-25T12:21:23+00:00</time>
        <ele>2614.0</ele>
      </trkpt>
      <trkpt lat="44.77259720675647" lon="6.466982290148735">
        <time>2022-01-25T12:21:24+00:00</time>
        <ele>2613.0</ele>
      </trkpt>
      <trkpt lat="44.772617910057306" lon="6.466890927404165">
        <time>2022-01-25T12:21:26+00:00</time>
        <ele>2608.0</ele>
      </trkpt>
      <trkpt lat="44.772680522874" lon="6.466728067025542">
        <time>2022-01-25T12:21:28+00:00</time>
        <ele>2600.0</ele>
      </trkpt>
      <trkpt lat="44.772714050486684" lon="6.466699484735727">
        <time>2022-01-25T12:21:29+00:00</time>
        <ele>2597.0</ele>
      </trkpt>
      <trkpt lat="44.77276216261089" lon="6.466701161116362">
        <time>2022-01-25T12:21:30+00:00</time>
        <ele>2594.0</ele>
      </trkpt>
      <trkpt lat="44.77279803715646" lon="6.466700071468949">
        <time>2022-01-25T12:21:31+00:00</time>
        <ele>2591.0</ele>
      </trkpt>
      <trkpt lat="44.77284128777683" lon="6.466684564948082">
        <time>2022-01-25T12:21:32+00:00</time>
        <ele>2588.0</ele>
      </trkpt>
      <trkpt lat="44.77290356531739" lon="6.466647181659937">
        <time>2022-01-25T12:21:33+00:00</time>
        <ele>2584.0</ele>
      </trkpt>
      <trkpt lat="44.77296399883926" lon="6.466612061485648">
        <time>2022-01-25T12:21:34+00:00</time>
        <ele>2579.0</ele>
      </trkpt>
      <trkpt lat="44.773029210045934" lon="6.466588424518704">
        <time>2022-01-25T12:21:35+00:00</time>
        <ele>2575.0</ele>
      </trkpt>
      <trkpt lat="44.77307891473174" lon="6.466555148363113">
        <time>2022-01-25T12:21:36+00:00</time>
        <ele>2571.0</ele>
      </trkpt>
      <trkpt lat="44.77314471267164" lon="6.466500163078308">
        <time>2022-01-25T12:21:37+00:00</time>
        <ele>2566.0</ele>
      </trkpt>
      <trkpt lat="44.77319282479584" lon="6.466453894972801">
        <time>2022-01-25T12:21:38+00:00</time>
        <ele>2562.0</ele>
      </trkpt>
      <trkpt lat="44.77322936989367" lon="6.466401759535074">
        <time>2022-01-25T12:21:39+00:00</time>
        <ele>2559.0</ele>
      </trkpt>
      <trkpt lat="44.77324303239584" lon="6.466345768421888">
        <time>2022-01-25T12:21:40+00:00</time>
        <ele>2556.0</ele>
      </trkpt>
      <trkpt lat="44.77327396161854" lon="6.46627695299685">
        <time>2022-01-25T12:21:41+00:00</time>
        <ele>2552.0</ele>
      </trkpt>
      <trkpt lat="44.773327857255936" lon="6.466210568323731">
        <time>2022-01-25T12:21:42+00:00</time>
        <ele>2547.0</ele>
      </trkpt>
      <trkpt lat="44.77336825802922" lon="6.466146362945437">
        <time>2022-01-25T12:21:43+00:00</time>
        <ele>2544.0</ele>
      </trkpt>
      <trkpt lat="44.7734160348773" lon="6.466087102890015">
        <time>2022-01-25T12:21:44+00:00</time>
        <ele>2540.0</ele>
      </trkpt>
      <trkpt lat="44.773456854745746" lon="6.4660438522696495">
        <time>2022-01-25T12:21:45+00:00</time>
        <ele>2537.0</ele>
      </trkpt>
      <trkpt lat="44.773500775918365" lon="6.4659693371504545">
        <time>2022-01-25T12:21:46+00:00</time>
        <ele>2533.0</ele>
      </trkpt>
      <trkpt lat="44.77352483198047" lon="6.465890295803547">
        <time>2022-01-25T12:21:47+00:00</time>
        <ele>2531.0</ele>
      </trkpt>
      <trkpt lat="44.773551067337394" lon="6.4658098295331">
        <time>2022-01-25T12:21:48+00:00</time>
        <ele>2528.0</ele>
      </trkpt>
      <trkpt lat="44.77356657385826" lon="6.465743277221918">
        <time>2022-01-25T12:21:49+00:00</time>
        <ele>2527.0</ele>
      </trkpt>
      <trkpt lat="44.77356422692537" lon="6.465707654133439">
        <time>2022-01-25T12:21:50+00:00</time>
        <ele>2527.0</ele>
      </trkpt>
      <trkpt lat="44.7735611256212" lon="6.4656774792820215">
        <time>2022-01-25T12:21:51+00:00</time>
        <ele>2527.0</ele>
      </trkpt>
      <trkpt lat="44.77355643175542" lon="6.465673707425594">
        <time>2022-01-25T12:21:52+00:00</time>
        <ele>2527.0</ele>
      </trkpt>
      <trkpt lat="44.77354997768998" lon="6.465673623606563">
        <time>2022-01-25T12:21:53+00:00</time>
        <ele>2527.0</ele>
      </trkpt>
      <trkpt lat="44.77354662492871" lon="6.465676557272673">
        <time>2022-01-25T12:21:54+00:00</time>
        <ele>2527.0</ele>
      </trkpt>
      <trkpt lat="44.77353815920651" lon="6.465688291937113">
        <time>2022-01-25T12:21:58+00:00</time>
        <ele>2528.0</ele>
      </trkpt>
      <trkpt lat="44.773535979911685" lon="6.465690303593874">
        <time>2022-01-25T12:22:00+00:00</time>
        <ele>2528.0</ele>
      </trkpt>
      <trkpt lat="44.77354268543422" lon="6.465691393241286">
        <time>2022-01-25T12:22:03+00:00</time>
        <ele>2528.0</ele>
      </trkpt>
      <trkpt lat="44.77354947477579" lon="6.465699104592204">
        <time>2022-01-25T12:22:15+00:00</time>
        <ele>2527.0</ele>
      </trkpt>
      <trkpt lat="44.77354905568063" lon="6.465699104592204">
        <time>2022-01-25T12:22:18+00:00</time>
        <ele>2527.0</ele>
      </trkpt>
      <trkpt lat="44.77354905568063" lon="6.465699104592204">
        <time>2022-01-25T12:22:21+00:00</time>
        <ele>2527.0</ele>
      </trkpt>
      <trkpt lat="44.773549642413855" lon="6.465706145390868">
        <time>2022-01-25T12:22:30+00:00</time>
        <ele>2527.0</ele>
      </trkpt>
      <trkpt lat="44.773551067337394" lon="6.4657062292099">
        <time>2022-01-25T12:22:32+00:00</time>
        <ele>2527.0</ele>
      </trkpt>
      <trkpt lat="44.773551151156425" lon="6.4657062292099">
        <time>2022-01-25T12:22:33+00:00</time>
        <ele>2527.0</ele>
      </trkpt>
      <trkpt lat="44.773553078994155" lon="6.465706815943122">
        <time>2022-01-25T12:22:36+00:00</time>
        <ele>2527.0</ele>
      </trkpt>
      <trkpt lat="44.77355492301285" lon="6.465710839256644">
        <time>2022-01-25T12:22:47+00:00</time>
        <ele>2527.0</ele>
      </trkpt>
      <trkpt lat="44.77355475537479" lon="6.465709330514073">
        <time>2022-01-25T12:22:52+00:00</time>
        <ele>2527.0</ele>
      </trkpt>
      <trkpt lat="44.77355316281319" lon="6.46571159362793">
        <time>2022-01-25T12:22:57+00:00</time>
        <ele>2527.0</ele>
      </trkpt>
      <trkpt lat="44.77355291135609" lon="6.465712012723088">
        <time>2022-01-25T12:22:58+00:00</time>
        <ele>2527.0</ele>
      </trkpt>
      <trkpt lat="44.77354997768998" lon="6.465712180361152">
        <time>2022-01-25T12:23:06+00:00</time>
        <ele>2527.0</ele>
      </trkpt>
      <trkpt lat="44.77354997768998" lon="6.465711090713739">
        <time>2022-01-25T12:23:11+00:00</time>
        <ele>2527.0</ele>
      </trkpt>
      <trkpt lat="44.77354880422354" lon="6.465711258351803">
        <time>2022-01-25T12:23:13+00:00</time>
        <ele>2528.0</ele>
      </trkpt>
      <trkpt lat="44.77354645729065" lon="6.4657113421708345">
        <time>2022-01-25T12:23:15+00:00</time>
        <ele>2528.0</ele>
      </trkpt>
      <trkpt lat="44.77354000322521" lon="6.465712180361152">
        <time>2022-01-25T12:23:20+00:00</time>
        <ele>2528.0</ele>
      </trkpt>
      <trkpt lat="44.77354595437646" lon="6.465711677446961">
        <time>2022-01-25T12:24:04+00:00</time>
        <ele>2528.0</ele>
      </trkpt>
      <trkpt lat="44.77354536764324" lon="6.465722406283021">
        <time>2022-01-25T12:24:13+00:00</time>
        <ele>2528.0</ele>
      </trkpt>
      <trkpt lat="44.773544780910015" lon="6.465722573921084">
        <time>2022-01-25T12:24:15+00:00</time>
        <ele>2528.0</ele>
      </trkpt>
      <trkpt lat="44.77363404817879" lon="6.465661637485027">
        <time>2022-01-25T12:24:19+00:00</time>
        <ele>2522.0</ele>
      </trkpt>
      <trkpt lat="44.77378098294139" lon="6.465562228113413">
        <time>2022-01-25T12:24:21+00:00</time>
        <ele>2513.0</ele>
      </trkpt>
      <trkpt lat="44.7739686537534" lon="6.465405570343137">
        <time>2022-01-25T12:24:23+00:00</time>
        <ele>2500.0</ele>
      </trkpt>
      <trkpt lat="44.774164874106646" lon="6.465257294476032">
        <time>2022-01-25T12:24:25+00:00</time>
        <ele>2490.0</ele>
      </trkpt>
      <trkpt lat="44.774283142760396" lon="6.4651635847985744">
        <time>2022-01-25T12:24:26+00:00</time>
        <ele>2483.0</ele>
      </trkpt>
      <trkpt lat="44.77436285465956" lon="6.4651011396199465">
        <time>2022-01-25T12:24:27+00:00</time>
        <ele>2478.0</ele>
      </trkpt>
      <trkpt lat="44.77445078082383" lon="6.464975494891405">
        <time>2022-01-25T12:24:28+00:00</time>
        <ele>2473.0</ele>
      </trkpt>
      <trkpt lat="44.77449067868292" lon="6.464874995872378">
        <time>2022-01-25T12:24:29+00:00</time>
        <ele>2470.0</ele>
      </trkpt>
      <trkpt lat="44.77453024126589" lon="6.4647547993808985">
        <time>2022-01-25T12:24:30+00:00</time>
        <ele>2466.0</ele>
      </trkpt>
      <trkpt lat="44.77455295622349" lon="6.464626723900437">
        <time>2022-01-25T12:24:31+00:00</time>
        <ele>2464.0</ele>
      </trkpt>
      <trkpt lat="44.774560583755374" lon="6.46447291597724">
        <time>2022-01-25T12:24:32+00:00</time>
        <ele>2462.0</ele>
      </trkpt>
      <trkpt lat="44.77455664426088" lon="6.464360347017646">
        <time>2022-01-25T12:24:33+00:00</time>
        <ele>2461.0</ele>
      </trkpt>
      <trkpt lat="44.77454734034836" lon="6.464283987879753">
        <time>2022-01-25T12:24:34+00:00</time>
        <ele>2461.0</ele>
      </trkpt>
      <trkpt lat="44.77453359402716" lon="6.464202767238021">
        <time>2022-01-25T12:24:35+00:00</time>
        <ele>2460.0</ele>
      </trkpt>
      <trkpt lat="44.77450316771865" lon="6.464091539382935">
        <time>2022-01-25T12:24:37+00:00</time>
        <ele>2460.0</ele>
      </trkpt>
      <trkpt lat="44.77448757737875" lon="6.464045522734523">
        <time>2022-01-25T12:24:39+00:00</time>
        <ele>2460.0</ele>
      </trkpt>
      <trkpt lat="44.77447550743818" lon="6.464017443358898">
        <time>2022-01-25T12:24:40+00:00</time>
        <ele>2460.0</ele>
      </trkpt>
      <trkpt lat="44.774435022845864" lon="6.4639101549983025">
        <time>2022-01-25T12:24:43+00:00</time>
        <ele>2460.0</ele>
      </trkpt>
      <trkpt lat="44.774408703669906" lon="6.463805129751563">
        <time>2022-01-25T12:24:45+00:00</time>
        <ele>2459.0</ele>
      </trkpt>
      <trkpt lat="44.774374924600124" lon="6.463658111169934">
        <time>2022-01-25T12:24:47+00:00</time>
        <ele>2456.0</ele>
      </trkpt>
      <trkpt lat="44.774368135258555" lon="6.463589547201991">
        <time>2022-01-25T12:24:48+00:00</time>
        <ele>2455.0</ele>
      </trkpt>
      <trkpt lat="44.77436637505889" lon="6.463509164750576">
        <time>2022-01-25T12:24:49+00:00</time>
        <ele>2454.0</ele>
      </trkpt>
      <trkpt lat="44.77437132038176" lon="6.463425932452083">
        <time>2022-01-25T12:24:50+00:00</time>
        <ele>2453.0</ele>
      </trkpt>
      <trkpt lat="44.77437769062817" lon="6.4633408561348915">
        <time>2022-01-25T12:24:52+00:00</time>
        <ele>2451.0</ele>
      </trkpt>
      <trkpt lat="44.77437894791365" lon="6.463315207511187">
        <time>2022-01-25T12:24:53+00:00</time>
        <ele>2451.0</ele>
      </trkpt>
      <trkpt lat="44.77438657544553" lon="6.463227113708854">
        <time>2022-01-25T12:24:57+00:00</time>
        <ele>2450.0</ele>
      </trkpt>
      <trkpt lat="44.774388587102294" lon="6.463200123980641">
        <time>2022-01-25T12:24:58+00:00</time>
        <ele>2450.0</ele>
      </trkpt>
      <trkpt lat="44.7743968013674" lon="6.463113455101848">
        <time>2022-01-25T12:25:01+00:00</time>
        <ele>2450.0</ele>
      </trkpt>
      <trkpt lat="44.77440065704286" lon="6.46309157833457">
        <time>2022-01-25T12:25:03+00:00</time>
        <ele>2450.0</ele>
      </trkpt>
      <trkpt lat="44.77439537644386" lon="6.463095685467124">
        <time>2022-01-25T12:25:09+00:00</time>
        <ele>2450.0</ele>
      </trkpt>
      <trkpt lat="44.77438707835972" lon="6.463094260543585">
        <time>2022-01-25T12:25:12+00:00</time>
        <ele>2451.0</ele>
      </trkpt>
      <trkpt lat="44.774379367008805" lon="6.463086381554604">
        <time>2022-01-25T12:25:15+00:00</time>
        <ele>2452.0</ele>
      </trkpt>
      <trkpt lat="44.774379367008805" lon="6.463086381554604">
        <time>2022-01-25T12:25:18+00:00</time>
        <ele>2452.0</ele>
      </trkpt>
      <trkpt lat="44.774379367008805" lon="6.463086381554604">
        <time>2022-01-25T12:25:21+00:00</time>
        <ele>2452.0</ele>
      </trkpt>
      <trkpt lat="44.774379367008805" lon="6.463086381554604">
        <time>2022-01-25T12:25:28+00:00</time>
        <ele>2452.0</ele>
      </trkpt>
      <trkpt lat="44.77437484078109" lon="6.463080178946257">
        <time>2022-01-25T12:25:36+00:00</time>
        <ele>2452.0</ele>
      </trkpt>
      <trkpt lat="44.77437584660947" lon="6.462988816201687">
        <time>2022-01-25T12:25:47+00:00</time>
        <ele>2452.0</ele>
      </trkpt>
      <trkpt lat="44.77438590489328" lon="6.462927544489503">
        <time>2022-01-25T12:25:48+00:00</time>
        <ele>2450.0</ele>
      </trkpt>
      <trkpt lat="44.77439755573869" lon="6.462871301919222">
        <time>2022-01-25T12:25:50+00:00</time>
        <ele>2449.0</ele>
      </trkpt>
      <trkpt lat="44.774395544081926" lon="6.462848335504532">
        <time>2022-01-25T12:25:53+00:00</time>
        <ele>2449.0</ele>
      </trkpt>
      <trkpt lat="44.77439638227224" lon="6.46283408626914">
        <time>2022-01-25T12:25:55+00:00</time>
        <ele>2449.0</ele>
      </trkpt>
      <trkpt lat="44.774390598759055" lon="6.462831990793347">
        <time>2022-01-25T12:26:11+00:00</time>
        <ele>2449.0</ele>
      </trkpt>
      <trkpt lat="44.774392526596785" lon="6.462831990793347">
        <time>2022-01-25T12:26:16+00:00</time>
        <ele>2449.0</ele>
      </trkpt>
      <trkpt lat="44.77439822629094" lon="6.462828302755952">
        <time>2022-01-25T12:26:27+00:00</time>
        <ele>2449.0</ele>
      </trkpt>
      <trkpt lat="44.77440124377608" lon="6.462827967479825">
        <time>2022-01-25T12:26:33+00:00</time>
        <ele>2448.0</ele>
      </trkpt>
      <trkpt lat="44.77440317161381" lon="6.462827799841762">
        <time>2022-01-25T12:26:40+00:00</time>
        <ele>2448.0</ele>
      </trkpt>
      <trkpt lat="44.77440543472767" lon="6.462822938337922">
        <time>2022-01-25T12:26:47+00:00</time>
        <ele>2448.0</ele>
      </trkpt>
      <trkpt lat="44.774405770003796" lon="6.462797960266471">
        <time>2022-01-25T12:26:55+00:00</time>
        <ele>2448.0</ele>
      </trkpt>
      <trkpt lat="44.77440560236573" lon="6.4627977926284075">
        <time>2022-01-25T12:26:57+00:00</time>
        <ele>2448.0</ele>
      </trkpt>
      <trkpt lat="44.774426221847534" lon="6.462694192305207">
        <time>2022-01-25T12:27:06+00:00</time>
        <ele>2446.0</ele>
      </trkpt>
      <trkpt lat="44.77450266480446" lon="6.462482213973999">
        <time>2022-01-25T12:27:09+00:00</time>
        <ele>2440.0</ele>
      </trkpt>
      <trkpt lat="44.77452437393367" lon="6.462428821250796">
        <time>2022-01-25T12:27:10+00:00</time>
        <ele>2440.0</ele>
      </trkpt>
      <trkpt lat="44.77459109388292" lon="6.462277192622423">
        <time>2022-01-25T12:27:12+00:00</time>
        <ele>2438.0</ele>
      </trkpt>
      <trkpt lat="44.77462101727724" lon="6.462211897596717">
        <time>2022-01-25T12:27:13+00:00</time>
        <ele>2437.0</ele>
      </trkpt>
      <trkpt lat="44.774666195735335" lon="6.462115840986371">
        <time>2022-01-25T12:27:15+00:00</time>
        <ele>2435.0</ele>
      </trkpt>
      <trkpt lat="44.774690084159374" lon="6.462062280625105">
        <time>2022-01-25T12:27:16+00:00</time>
        <ele>2435.0</ele>
      </trkpt>
      <trkpt lat="44.77470550686121" lon="6.462026154622436">
        <time>2022-01-25T12:27:17+00:00</time>
        <ele>2434.0</ele>
      </trkpt>
      <trkpt lat="44.7747197560966" lon="6.461997991427779">
        <time>2022-01-25T12:27:18+00:00</time>
        <ele>2434.0</ele>
      </trkpt>
      <trkpt lat="44.77472889237106" lon="6.461969576776028">
        <time>2022-01-25T12:27:21+00:00</time>
        <ele>2433.0</ele>
      </trkpt>
      <trkpt lat="44.77472076192498" lon="6.461975611746311">
        <time>2022-01-25T12:27:26+00:00</time>
        <ele>2434.0</ele>
      </trkpt>
      <trkpt lat="44.77477256208658" lon="6.461950549855828">
        <time>2022-01-25T12:27:35+00:00</time>
        <ele>2430.0</ele>
      </trkpt>
      <trkpt lat="44.77481841109693" lon="6.461912579834461">
        <time>2022-01-25T12:27:36+00:00</time>
        <ele>2427.0</ele>
      </trkpt>
      <trkpt lat="44.774948162958026" lon="6.461875028908253">
        <time>2022-01-25T12:27:38+00:00</time>
        <ele>2417.0</ele>
      </trkpt>
      <trkpt lat="44.77501077577472" lon="6.461891457438469">
        <time>2022-01-25T12:27:39+00:00</time>
        <ele>2412.0</ele>
      </trkpt>
      <trkpt lat="44.775101970881224" lon="6.46195407025516">
        <time>2022-01-25T12:27:40+00:00</time>
        <ele>2405.0</ele>
      </trkpt>
      <trkpt lat="44.77522870525718" lon="6.462044091895223">
        <time>2022-01-25T12:27:42+00:00</time>
        <ele>2398.0</ele>
      </trkpt>
      <trkpt lat="44.775309674441814" lon="6.462038308382034">
        <time>2022-01-25T12:27:43+00:00</time>
        <ele>2393.0</ele>
      </trkpt>
      <trkpt lat="44.77537723258138" lon="6.462019365280867">
        <time>2022-01-25T12:27:44+00:00</time>
        <ele>2389.0</ele>
      </trkpt>
      <trkpt lat="44.77555124089122" lon="6.461977958679199">
        <time>2022-01-25T12:27:46+00:00</time>
        <ele>2376.0</ele>
      </trkpt>
      <trkpt lat="44.77563816122711" lon="6.461929762735963">
        <time>2022-01-25T12:27:47+00:00</time>
        <ele>2370.0</ele>
      </trkpt>
      <trkpt lat="44.775682501494884" lon="6.461868574842811">
        <time>2022-01-25T12:27:48+00:00</time>
        <ele>2366.0</ele>
      </trkpt>
      <trkpt lat="44.77572231553495" lon="6.461784336715937">
        <time>2022-01-25T12:27:49+00:00</time>
        <ele>2363.0</ele>
      </trkpt>
      <trkpt lat="44.77574285119772" lon="6.461685933172703">
        <time>2022-01-25T12:27:50+00:00</time>
        <ele>2361.0</ele>
      </trkpt>
      <trkpt lat="44.77577704936266" lon="6.461605299264193">
        <time>2022-01-25T12:27:51+00:00</time>
        <ele>2359.0</ele>
      </trkpt>
      <trkpt lat="44.77583463303745" lon="6.461586942896247">
        <time>2022-01-25T12:27:52+00:00</time>
        <ele>2355.0</ele>
      </trkpt>
      <trkpt lat="44.77589129470289" lon="6.461632372811437">
        <time>2022-01-25T12:27:53+00:00</time>
        <ele>2351.0</ele>
      </trkpt>
      <trkpt lat="44.77593312039971" lon="6.461713258177042">
        <time>2022-01-25T12:27:54+00:00</time>
        <ele>2348.0</ele>
      </trkpt>
      <trkpt lat="44.77595583535731" lon="6.461785091087222">
        <time>2022-01-25T12:27:55+00:00</time>
        <ele>2346.0</ele>
      </trkpt>
      <trkpt lat="44.77596757002175" lon="6.461837142705917">
        <time>2022-01-25T12:27:56+00:00</time>
        <ele>2345.0</ele>
      </trkpt>
      <trkpt lat="44.77597058750689" lon="6.461861869320273">
        <time>2022-01-25T12:27:57+00:00</time>
        <ele>2345.0</ele>
      </trkpt>
      <trkpt lat="44.77597930468619" lon="6.4619166031479836">
        <time>2022-01-25T12:27:59+00:00</time>
        <ele>2344.0</ele>
      </trkpt>
      <trkpt lat="44.77601559832692" lon="6.461991034448147">
        <time>2022-01-25T12:28:01+00:00</time>
        <ele>2342.0</ele>
      </trkpt>
      <trkpt lat="44.776053903624415" lon="6.462015090510249">
        <time>2022-01-25T12:28:02+00:00</time>
        <ele>2339.0</ele>
      </trkpt>
      <trkpt lat="44.77611316367984" lon="6.462011067196727">
        <time>2022-01-25T12:28:03+00:00</time>
        <ele>2334.0</ele>
      </trkpt>
      <trkpt lat="44.77616789750755" lon="6.46201953291893">
        <time>2022-01-25T12:28:04+00:00</time>
        <ele>2330.0</ele>
      </trkpt>
      <trkpt lat="44.77622237987816" lon="6.462008971720934">
        <time>2022-01-25T12:28:05+00:00</time>
        <ele>2325.0</ele>
      </trkpt>
      <trkpt lat="44.77628138847649" lon="6.461978210136294">
        <time>2022-01-25T12:28:06+00:00</time>
        <ele>2321.0</ele>
      </trkpt>
      <trkpt lat="44.776352383196354" lon="6.461930014193058">
        <time>2022-01-25T12:28:07+00:00</time>
        <ele>2316.0</ele>
      </trkpt>
      <trkpt lat="44.77642497047782" lon="6.461876705288887">
        <time>2022-01-25T12:28:08+00:00</time>
        <ele>2312.0</ele>
      </trkpt>
      <trkpt lat="44.776491187512875" lon="6.461859857663512">
        <time>2022-01-25T12:28:09+00:00</time>
        <ele>2308.0</ele>
      </trkpt>
      <trkpt lat="44.776563020423055" lon="6.461877962574363">
        <time>2022-01-25T12:28:10+00:00</time>
        <ele>2302.0</ele>
      </trkpt>
      <trkpt lat="44.77660576812923" lon="6.461918111890554">
        <time>2022-01-25T12:28:11+00:00</time>
        <ele>2298.0</ele>
      </trkpt>
      <trkpt lat="44.77662831544876" lon="6.461978713050485">
        <time>2022-01-25T12:28:12+00:00</time>
        <ele>2295.0</ele>
      </trkpt>
      <trkpt lat="44.77663007564843" lon="6.462035207077861">
        <time>2022-01-25T12:28:13+00:00</time>
        <ele>2295.0</ele>
      </trkpt>
      <trkpt lat="44.776620268821716" lon="6.462099412456155">
        <time>2022-01-25T12:28:14+00:00</time>
        <ele>2295.0</ele>
      </trkpt>
      <trkpt lat="44.77660467848182" lon="6.462163450196385">
        <time>2022-01-25T12:28:15+00:00</time>
        <ele>2296.0</ele>
      </trkpt>
      <trkpt lat="44.77659545838833" lon="6.4621899370104074">
        <time>2022-01-25T12:28:16+00:00</time>
        <ele>2297.0</ele>
      </trkpt>
      <trkpt lat="44.776586992666125" lon="6.462208963930607">
        <time>2022-01-25T12:28:17+00:00</time>
        <ele>2298.0</ele>
      </trkpt>
      <trkpt lat="44.77658146061003" lon="6.462218519300222">
        <time>2022-01-25T12:28:18+00:00</time>
        <ele>2298.0</ele>
      </trkpt>
      <trkpt lat="44.77656327188015" lon="6.462272498756647">
        <time>2022-01-25T12:28:23+00:00</time>
        <ele>2300.0</ele>
      </trkpt>
      <trkpt lat="44.77654566988349" lon="6.46232689730823">
        <time>2022-01-25T12:28:27+00:00</time>
        <ele>2301.0</ele>
      </trkpt>
      <trkpt lat="44.77654525078833" lon="6.462325556203723">
        <time>2022-01-25T12:28:28+00:00</time>
        <ele>2301.0</ele>
      </trkpt>
      <trkpt lat="44.77655002847314" lon="6.462339637801051">
        <time>2022-01-25T12:28:38+00:00</time>
        <ele>2301.0</ele>
      </trkpt>
      <trkpt lat="44.776547010988" lon="6.4623386319726706">
        <time>2022-01-25T12:28:41+00:00</time>
        <ele>2301.0</ele>
      </trkpt>
      <trkpt lat="44.77655162103474" lon="6.462337290868163">
        <time>2022-01-25T12:28:45+00:00</time>
        <ele>2301.0</ele>
      </trkpt>
      <trkpt lat="44.77655053138733" lon="6.462337290868163">
        <time>2022-01-25T12:28:55+00:00</time>
        <ele>2301.0</ele>
      </trkpt>
      <trkpt lat="44.77655053138733" lon="6.462338212877512">
        <time>2022-01-25T12:28:59+00:00</time>
        <ele>2301.0</ele>
      </trkpt>
      <trkpt lat="44.77655053138733" lon="6.462339051067829">
        <time>2022-01-25T12:29:03+00:00</time>
        <ele>2301.0</ele>
      </trkpt>
      <trkpt lat="44.776554219424725" lon="6.462340224534273">
        <time>2022-01-25T12:29:10+00:00</time>
        <ele>2300.0</ele>
      </trkpt>
      <trkpt lat="44.776596799492836" lon="6.462303847074509">
        <time>2022-01-25T12:29:13+00:00</time>
        <ele>2297.0</ele>
      </trkpt>
      <trkpt lat="44.77662588469684" lon="6.462263446301222">
        <time>2022-01-25T12:29:14+00:00</time>
        <ele>2294.0</ele>
      </trkpt>
      <trkpt lat="44.77664147503674" lon="6.462235199287534">
        <time>2022-01-25T12:29:15+00:00</time>
        <ele>2293.0</ele>
      </trkpt>
      <trkpt lat="44.77665513753891" lon="6.46221742965281">
        <time>2022-01-25T12:29:16+00:00</time>
        <ele>2292.0</ele>
      </trkpt>
      <trkpt lat="44.776664609089494" lon="6.4622164238244295">
        <time>2022-01-25T12:29:17+00:00</time>
        <ele>2291.0</ele>
      </trkpt>
      <trkpt lat="44.77666930295527" lon="6.462222039699554">
        <time>2022-01-25T12:29:18+00:00</time>
        <ele>2291.0</ele>
      </trkpt>
      <trkpt lat="44.77668648585677" lon="6.4622243866324425">
        <time>2022-01-25T12:29:22+00:00</time>
        <ele>2289.0</ele>
      </trkpt>
      <trkpt lat="44.776716493070126" lon="6.462279539555311">
        <time>2022-01-25T12:29:38+00:00</time>
        <ele>2286.0</ele>
      </trkpt>
      <trkpt lat="44.77678740397096" lon="6.4624284859746695">
        <time>2022-01-25T12:29:40+00:00</time>
        <ele>2280.0</ele>
      </trkpt>
      <trkpt lat="44.77683115750551" lon="6.46253602579236">
        <time>2022-01-25T12:29:41+00:00</time>
        <ele>2277.0</ele>
      </trkpt>
      <trkpt lat="44.776906594634056" lon="6.462694443762302">
        <time>2022-01-25T12:29:42+00:00</time>
        <ele>2275.0</ele>
      </trkpt>
      <trkpt lat="44.77694976143539" lon="6.462792595848441">
        <time>2022-01-25T12:29:43+00:00</time>
        <ele>2274.0</ele>
      </trkpt>
      <trkpt lat="44.77698194794357" lon="6.46286484785378">
        <time>2022-01-25T12:29:44+00:00</time>
        <ele>2272.0</ele>
      </trkpt>
      <trkpt lat="44.77700893767178" lon="6.46290834993124">
        <time>2022-01-25T12:29:45+00:00</time>
        <ele>2270.0</ele>
      </trkpt>
      <trkpt lat="44.77701966650784" lon="6.462927209213376">
        <time>2022-01-25T12:29:46+00:00</time>
        <ele>2270.0</ele>
      </trkpt>
      <trkpt lat="44.77705344557762" lon="6.463004071265459">
        <time>2022-01-25T12:29:51+00:00</time>
        <ele>2268.0</ele>
      </trkpt>
      <trkpt lat="44.77705981582403" lon="6.463064169511199">
        <time>2022-01-25T12:29:53+00:00</time>
        <ele>2267.0</ele>
      </trkpt>
      <trkpt lat="44.77703928016126" lon="6.463171960785985">
        <time>2022-01-25T12:29:56+00:00</time>
        <ele>2266.0</ele>
      </trkpt>
      <trkpt lat="44.77701589465141" lon="6.463256115093827">
        <time>2022-01-25T12:29:59+00:00</time>
        <ele>2266.0</ele>
      </trkpt>
      <trkpt lat="44.77701245807111" lon="6.463264748454094">
        <time>2022-01-25T12:30:02+00:00</time>
        <ele>2266.0</ele>
      </trkpt>
      <trkpt lat="44.77700642310083" lon="6.463253265246749">
        <time>2022-01-25T12:30:07+00:00</time>
        <ele>2267.0</ele>
      </trkpt>
      <trkpt lat="44.77700390852988" lon="6.463251505047083">
        <time>2022-01-25T12:30:10+00:00</time>
        <ele>2267.0</ele>
      </trkpt>
      <trkpt lat="44.77700239978731" lon="6.463250834494829">
        <time>2022-01-25T12:30:27+00:00</time>
        <ele>2267.0</ele>
      </trkpt>
      <trkpt lat="44.77700239978731" lon="6.463250415399671">
        <time>2022-01-25T12:30:34+00:00</time>
        <ele>2267.0</ele>
      </trkpt>
      <trkpt lat="44.77700239978731" lon="6.463240357115865">
        <time>2022-01-25T12:30:39+00:00</time>
        <ele>2267.0</ele>
      </trkpt>
      <trkpt lat="44.77700927294791" lon="6.463234154507518">
        <time>2022-01-25T12:30:47+00:00</time>
        <ele>2267.0</ele>
      </trkpt>
      <trkpt lat="44.777015056461096" lon="6.463234154507518">
        <time>2022-01-25T12:30:51+00:00</time>
        <ele>2267.0</ele>
      </trkpt>
      <trkpt lat="44.77702368982136" lon="6.463332390412688">
        <time>2022-01-25T12:31:02+00:00</time>
        <ele>2265.0</ele>
      </trkpt>
      <trkpt lat="44.77702938951552" lon="6.4635334722697735">
        <time>2022-01-25T12:31:05+00:00</time>
        <ele>2262.0</ele>
      </trkpt>
      <trkpt lat="44.77702846750617" lon="6.46361687220633">
        <time>2022-01-25T12:31:06+00:00</time>
        <ele>2262.0</ele>
      </trkpt>
      <trkpt lat="44.77702905423939" lon="6.463697422295809">
        <time>2022-01-25T12:31:07+00:00</time>
        <ele>2261.0</ele>
      </trkpt>
      <trkpt lat="44.77704196237028" lon="6.46382063627243">
        <time>2022-01-25T12:31:08+00:00</time>
        <ele>2261.0</ele>
      </trkpt>
      <trkpt lat="44.77706124074757" lon="6.463924488052726">
        <time>2022-01-25T12:31:09+00:00</time>
        <ele>2260.0</ele>
      </trkpt>
      <trkpt lat="44.777086805552244" lon="6.463999254629016">
        <time>2022-01-25T12:31:10+00:00</time>
        <ele>2260.0</ele>
      </trkpt>
      <trkpt lat="44.77713500149548" lon="6.4640971552580595">
        <time>2022-01-25T12:31:12+00:00</time>
        <ele>2258.0</ele>
      </trkpt>
      <trkpt lat="44.7771580517292" lon="6.464148201048374">
        <time>2022-01-25T12:31:13+00:00</time>
        <ele>2258.0</ele>
      </trkpt>
      <trkpt lat="44.777181185781956" lon="6.4642043597996235">
        <time>2022-01-25T12:31:14+00:00</time>
        <ele>2259.0</ele>
      </trkpt>
      <trkpt lat="44.77722577750683" lon="6.464337045326829">
        <time>2022-01-25T12:31:17+00:00</time>
        <ele>2264.0</ele>
      </trkpt>
      <trkpt lat="44.77724455296993" lon="6.4643822237849236">
        <time>2022-01-25T12:31:18+00:00</time>
        <ele>2265.0</ele>
      </trkpt>
      <trkpt lat="44.777301801368594" lon="6.464475430548191">
        <time>2022-01-25T12:31:20+00:00</time>
        <ele>2267.0</ele>
      </trkpt>
      <trkpt lat="44.77734932675958" lon="6.464523039758205">
        <time>2022-01-25T12:31:22+00:00</time>
        <ele>2267.0</ele>
      </trkpt>
      <trkpt lat="44.777419567108154" lon="6.464560506865382">
        <time>2022-01-25T12:31:26+00:00</time>
        <ele>2264.0</ele>
      </trkpt>
      <trkpt lat="44.777433313429356" lon="6.464565200731158">
        <time>2022-01-25T12:31:27+00:00</time>
        <ele>2263.0</ele>
      </trkpt>
      <trkpt lat="44.77746960707009" lon="6.4645598363131285">
        <time>2022-01-25T12:31:30+00:00</time>
        <ele>2261.0</ele>
      </trkpt>
      <trkpt lat="44.777481677010655" lon="6.4645586628466845">
        <time>2022-01-25T12:31:32+00:00</time>
        <ele>2260.0</ele>
      </trkpt>
      <trkpt lat="44.77748486213386" lon="6.464557321742177">
        <time>2022-01-25T12:31:33+00:00</time>
        <ele>2260.0</ele>
      </trkpt>
      <trkpt lat="44.7774947527796" lon="6.46455992013216">
        <time>2022-01-25T12:31:35+00:00</time>
        <ele>2259.0</ele>
      </trkpt>
      <trkpt lat="44.77749953046441" lon="6.464564949274063">
        <time>2022-01-25T12:31:38+00:00</time>
        <ele>2259.0</ele>
      </trkpt>
      <trkpt lat="44.777507074177265" lon="6.464581964537501">
        <time>2022-01-25T12:31:40+00:00</time>
        <ele>2260.0</ele>
      </trkpt>
      <trkpt lat="44.77750296704471" lon="6.464555226266384">
        <time>2022-01-25T12:31:45+00:00</time>
        <ele>2259.0</ele>
      </trkpt>
      <trkpt lat="44.7775121871382" lon="6.464551957324147">
        <time>2022-01-25T12:31:48+00:00</time>
        <ele>2258.0</ele>
      </trkpt>
      <trkpt lat="44.77751956321299" lon="6.464545167982578">
        <time>2022-01-25T12:31:49+00:00</time>
        <ele>2257.0</ele>
      </trkpt>
      <trkpt lat="44.77754361927509" lon="6.464535528793931">
        <time>2022-01-25T12:31:54+00:00</time>
        <ele>2255.0</ele>
      </trkpt>
      <trkpt lat="44.77754722349346" lon="6.464535193517804">
        <time>2022-01-25T12:31:57+00:00</time>
        <ele>2255.0</ele>
      </trkpt>
      <trkpt lat="44.77754135616124" lon="6.464513316750526">
        <time>2022-01-25T12:32:06+00:00</time>
        <ele>2254.0</ele>
      </trkpt>
      <trkpt lat="44.77754135616124" lon="6.464513316750526">
        <time>2022-01-25T12:32:07+00:00</time>
        <ele>2254.0</ele>
      </trkpt>
      <trkpt lat="44.77754135616124" lon="6.464513316750526">
        <time>2022-01-25T12:32:13+00:00</time>
        <ele>2254.0</ele>
      </trkpt>
      <trkpt lat="44.77755040861666" lon="6.464515747502446">
        <time>2022-01-25T12:32:17+00:00</time>
        <ele>2254.0</ele>
      </trkpt>
      <trkpt lat="44.777554934844375" lon="6.4645162504166365">
        <time>2022-01-25T12:32:19+00:00</time>
        <ele>2254.0</ele>
      </trkpt>
      <trkpt lat="44.777566250413656" lon="6.4645162504166365">
        <time>2022-01-25T12:32:30+00:00</time>
        <ele>2253.0</ele>
      </trkpt>
      <trkpt lat="44.77757764980197" lon="6.4645180106163025">
        <time>2022-01-25T12:32:37+00:00</time>
        <ele>2252.0</ele>
      </trkpt>
      <trkpt lat="44.77757848799229" lon="6.464518178254366">
        <time>2022-01-25T12:32:38+00:00</time>
        <ele>2252.0</ele>
      </trkpt>
      <trkpt lat="44.77758452296257" lon="6.4645191840827465">
        <time>2022-01-25T12:32:41+00:00</time>
        <ele>2252.0</ele>
      </trkpt>
      <trkpt lat="44.777585193514824" lon="6.464519686996937">
        <time>2022-01-25T12:32:44+00:00</time>
        <ele>2252.0</ele>
      </trkpt>
      <trkpt lat="44.777585193514824" lon="6.4645197708159685">
        <time>2022-01-25T12:32:46+00:00</time>
        <ele>2252.0</ele>
      </trkpt>
      <trkpt lat="44.77758611552417" lon="6.4645197708159685">
        <time>2022-01-25T12:32:47+00:00</time>
        <ele>2252.0</ele>
      </trkpt>
      <trkpt lat="44.77758678607643" lon="6.4645197708159685">
        <time>2022-01-25T12:32:49+00:00</time>
        <ele>2252.0</ele>
      </trkpt>
      <trkpt lat="44.777589635923505" lon="6.464524548500776">
        <time>2022-01-25T12:33:00+00:00</time>
        <ele>2252.0</ele>
      </trkpt>
      <trkpt lat="44.77759181521833" lon="6.46452865563333">
        <time>2022-01-25T12:33:08+00:00</time>
        <ele>2252.0</ele>
      </trkpt>
      <trkpt lat="44.7775951679796" lon="6.464530499652028">
        <time>2022-01-25T12:33:12+00:00</time>
        <ele>2252.0</ele>
      </trkpt>
      <trkpt lat="44.77759533561766" lon="6.464536031708121">
        <time>2022-01-25T12:33:19+00:00</time>
        <ele>2252.0</ele>
      </trkpt>
      <trkpt lat="44.777582259848714" lon="6.4645409770309925">
        <time>2022-01-25T12:33:36+00:00</time>
        <ele>2253.0</ele>
      </trkpt>
      <trkpt lat="44.77757563814521" lon="6.464543994516134">
        <time>2022-01-25T12:33:46+00:00</time>
        <ele>2254.0</ele>
      </trkpt>
      <trkpt lat="44.777575470507145" lon="6.464551202952862">
        <time>2022-01-25T12:33:59+00:00</time>
        <ele>2254.0</ele>
      </trkpt>
      <trkpt lat="44.777584271505475" lon="6.46454818546772">
        <time>2022-01-25T12:34:10+00:00</time>
        <ele>2253.0</ele>
      </trkpt>
      <trkpt lat="44.777586702257395" lon="6.464543072506785">
        <time>2022-01-25T12:34:18+00:00</time>
        <ele>2253.0</ele>
      </trkpt>
      <trkpt lat="44.77758728899062" lon="6.46454282104969">
        <time>2022-01-25T12:34:21+00:00</time>
        <ele>2253.0</ele>
      </trkpt>
      <trkpt lat="44.77758754044771" lon="6.464542653411627">
        <time>2022-01-25T12:34:23+00:00</time>
        <ele>2253.0</ele>
      </trkpt>
      <trkpt lat="44.77758795954287" lon="6.464542066678405">
        <time>2022-01-25T12:34:33+00:00</time>
        <ele>2253.0</ele>
      </trkpt>
      <trkpt lat="44.77758502587676" lon="6.464537540450692">
        <time>2022-01-25T12:34:43+00:00</time>
        <ele>2253.0</ele>
      </trkpt>
      <trkpt lat="44.777577398344874" lon="6.464535025879741">
        <time>2022-01-25T12:34:49+00:00</time>
        <ele>2253.0</ele>
      </trkpt>
      <trkpt lat="44.77757362648845" lon="6.46453351713717">
        <time>2022-01-25T12:35:02+00:00</time>
        <ele>2253.0</ele>
      </trkpt>
      <trkpt lat="44.7775692678988" lon="6.464508539065719">
        <time>2022-01-25T12:35:26+00:00</time>
        <ele>2252.0</ele>
      </trkpt>
      <trkpt lat="44.777569184079766" lon="6.464508539065719">
        <time>2022-01-25T12:35:27+00:00</time>
        <ele>2252.0</ele>
      </trkpt>
      <trkpt lat="44.777569184079766" lon="6.4645088743418455">
        <time>2022-01-25T12:35:31+00:00</time>
        <ele>2252.0</ele>
      </trkpt>
      <trkpt lat="44.77763917297125" lon="6.4645657036453485">
        <time>2022-01-25T12:35:36+00:00</time>
        <ele>2250.0</ele>
      </trkpt>
      <trkpt lat="44.777705473825336" lon="6.464601829648018">
        <time>2022-01-25T12:35:37+00:00</time>
        <ele>2247.0</ele>
      </trkpt>
      <trkpt lat="44.77777495980263" lon="6.46461951546371">
        <time>2022-01-25T12:35:38+00:00</time>
        <ele>2243.0</ele>
      </trkpt>
      <trkpt lat="44.77784578688443" lon="6.464628484100103">
        <time>2022-01-25T12:35:39+00:00</time>
        <ele>2240.0</ele>
      </trkpt>
      <trkpt lat="44.777918960899115" lon="6.464628400281072">
        <time>2022-01-25T12:35:40+00:00</time>
        <ele>2236.0</ele>
      </trkpt>
      <trkpt lat="44.77799255400896" lon="6.464635441079736">
        <time>2022-01-25T12:35:41+00:00</time>
        <ele>2233.0</ele>
      </trkpt>
      <trkpt lat="44.77806329727173" lon="6.464651869609952">
        <time>2022-01-25T12:35:42+00:00</time>
        <ele>2230.0</ele>
      </trkpt>
      <trkpt lat="44.778127167373896" lon="6.4646740816533566">
        <time>2022-01-25T12:35:43+00:00</time>
        <ele>2227.0</ele>
      </trkpt>
      <trkpt lat="44.778183829039335" lon="6.464701909571886">
        <time>2022-01-25T12:35:44+00:00</time>
        <ele>2225.0</ele>
      </trkpt>
      <trkpt lat="44.77823001332581" lon="6.46473485045135">
        <time>2022-01-25T12:35:45+00:00</time>
        <ele>2223.0</ele>
      </trkpt>
      <trkpt lat="44.778274185955524" lon="6.464742310345173">
        <time>2022-01-25T12:35:46+00:00</time>
        <ele>2220.0</ele>
      </trkpt>
      <trkpt lat="44.77831785567105" lon="6.4647094532847404">
        <time>2022-01-25T12:35:47+00:00</time>
        <ele>2216.0</ele>
      </trkpt>
      <trkpt lat="44.77835565805435" lon="6.464652456343174">
        <time>2022-01-25T12:35:48+00:00</time>
        <ele>2212.0</ele>
      </trkpt>
      <trkpt lat="44.778396813198924" lon="6.464587412774563">
        <time>2022-01-25T12:35:49+00:00</time>
        <ele>2208.0</ele>
      </trkpt>
      <trkpt lat="44.77844257839024" lon="6.4645530469715595">
        <time>2022-01-25T12:35:50+00:00</time>
        <ele>2205.0</ele>
      </trkpt>
      <trkpt lat="44.77849286980927" lon="6.46455598063767">
        <time>2022-01-25T12:35:51+00:00</time>
        <ele>2202.0</ele>
      </trkpt>
      <trkpt lat="44.778540981933475" lon="6.464591603726149">
        <time>2022-01-25T12:35:52+00:00</time>
        <ele>2198.0</ele>
      </trkpt>
      <trkpt lat="44.778568306937814" lon="6.464642733335495">
        <time>2022-01-25T12:35:53+00:00</time>
        <ele>2196.0</ele>
      </trkpt>
      <trkpt lat="44.77858046069741" lon="6.464687576517463">
        <time>2022-01-25T12:35:54+00:00</time>
        <ele>2196.0</ele>
      </trkpt>
      <trkpt lat="44.77858180180192" lon="6.464741975069046">
        <time>2022-01-25T12:35:55+00:00</time>
        <ele>2198.0</ele>
      </trkpt>
      <trkpt lat="44.77859294973314" lon="6.4648133888840675">
        <time>2022-01-25T12:35:56+00:00</time>
        <ele>2199.0</ele>
      </trkpt>
      <trkpt lat="44.77862237021327" lon="6.464892765507102">
        <time>2022-01-25T12:35:57+00:00</time>
        <ele>2200.0</ele>
      </trkpt>
      <trkpt lat="44.77869571186602" lon="6.464979853481054">
        <time>2022-01-25T12:35:58+00:00</time>
        <ele>2200.0</ele>
      </trkpt>
      <trkpt lat="44.77875413373113" lon="6.4650404546409845">
        <time>2022-01-25T12:35:59+00:00</time>
        <ele>2201.0</ele>
      </trkpt>
      <trkpt lat="44.7788227815181" lon="6.465088902041316">
        <time>2022-01-25T12:36:00+00:00</time>
        <ele>2200.0</ele>
      </trkpt>
      <trkpt lat="44.7788661159575" lon="6.465124022215605">
        <time>2022-01-25T12:36:01+00:00</time>
        <ele>2200.0</ele>
      </trkpt>
      <trkpt lat="44.77889369241893" lon="6.465141624212265">
        <time>2022-01-25T12:36:02+00:00</time>
        <ele>2200.0</ele>
      </trkpt>
      <trkpt lat="44.77890978567302" lon="6.465151933953166">
        <time>2022-01-25T12:36:03+00:00</time>
        <ele>2200.0</ele>
      </trkpt>
      <trkpt lat="44.77893015369773" lon="6.465165680274367">
        <time>2022-01-25T12:36:04+00:00</time>
        <ele>2201.0</ele>
      </trkpt>
      <trkpt lat="44.77897516451776" lon="6.4651962742209435">
        <time>2022-01-25T12:36:06+00:00</time>
        <ele>2202.0</ele>
      </trkpt>
      <trkpt lat="44.77898832410574" lon="6.465210942551494">
        <time>2022-01-25T12:36:07+00:00</time>
        <ele>2203.0</ele>
      </trkpt>
      <trkpt lat="44.77900114841759" lon="6.465197615325451">
        <time>2022-01-25T12:36:08+00:00</time>
        <ele>2201.0</ele>
      </trkpt>
      <trkpt lat="44.77899419143796" lon="6.465131649747491">
        <time>2022-01-25T12:36:10+00:00</time>
        <ele>2194.0</ele>
      </trkpt>
      <trkpt lat="44.779019923880696" lon="6.465097116306424">
        <time>2022-01-25T12:36:11+00:00</time>
        <ele>2190.0</ele>
      </trkpt>
      <trkpt lat="44.77907105349004" lon="6.465085716918111">
        <time>2022-01-25T12:36:12+00:00</time>
        <ele>2186.0</ele>
      </trkpt>
      <trkpt lat="44.77910659275949" lon="6.4650993794202805">
        <time>2022-01-25T12:36:13+00:00</time>
        <ele>2186.0</ele>
      </trkpt>
      <trkpt lat="44.77913844399154" lon="6.465122597292066">
        <time>2022-01-25T12:36:14+00:00</time>
        <ele>2187.0</ele>
      </trkpt>
      <trkpt lat="44.77915462106466" lon="6.465146066620946">
        <time>2022-01-25T12:36:15+00:00</time>
        <ele>2189.0</ele>
      </trkpt>
      <trkpt lat="44.77915587835014" lon="6.465163165703416">
        <time>2022-01-25T12:36:16+00:00</time>
        <ele>2190.0</ele>
      </trkpt>
      <trkpt lat="44.7791526094079" lon="6.465161489322782">
        <time>2022-01-25T12:36:17+00:00</time>
        <ele>2190.0</ele>
      </trkpt>
      <trkpt lat="44.77914908900857" lon="6.465155370533466">
        <time>2022-01-25T12:36:25+00:00</time>
        <ele>2190.0</ele>
      </trkpt>
      <trkpt lat="44.77915294468403" lon="6.465160064399242">
        <time>2022-01-25T12:36:26+00:00</time>
        <ele>2190.0</ele>
      </trkpt>
      <trkpt lat="44.77914950810373" lon="6.465167440474033">
        <time>2022-01-25T12:36:31+00:00</time>
        <ele>2191.0</ele>
      </trkpt>
      <trkpt lat="44.77914950810373" lon="6.465161237865686">
        <time>2022-01-25T12:36:40+00:00</time>
        <ele>2190.0</ele>
      </trkpt>
      <trkpt lat="44.77915160357952" lon="6.465161237865686">
        <time>2022-01-25T12:36:48+00:00</time>
        <ele>2190.0</ele>
      </trkpt>
      <trkpt lat="44.779152777045965" lon="6.465161992236972">
        <time>2022-01-25T12:36:51+00:00</time>
        <ele>2190.0</ele>
      </trkpt>
      <trkpt lat="44.7791993804276" lon="6.465192502364516">
        <time>2022-01-25T12:37:16+00:00</time>
        <ele>2191.0</ele>
      </trkpt>
      <trkpt lat="44.77921262383461" lon="6.4652015548199415">
        <time>2022-01-25T12:37:17+00:00</time>
        <ele>2192.0</ele>
      </trkpt>
      <trkpt lat="44.77923810482025" lon="6.46520733833313">
        <time>2022-01-25T12:37:19+00:00</time>
        <ele>2191.0</ele>
      </trkpt>
      <trkpt lat="44.7792527731508" lon="6.4651900716125965">
        <time>2022-01-25T12:37:20+00:00</time>
        <ele>2189.0</ele>
      </trkpt>
      <trkpt lat="44.779262663796544" lon="6.4651653449982405">
        <time>2022-01-25T12:37:21+00:00</time>
        <ele>2185.0</ele>
      </trkpt>
      <trkpt lat="44.779270542785525" lon="6.465142713859677">
        <time>2022-01-25T12:37:22+00:00</time>
        <ele>2183.0</ele>
      </trkpt>
      <trkpt lat="44.77929141372442" lon="6.465107509866357">
        <time>2022-01-25T12:37:23+00:00</time>
        <ele>2178.0</ele>
      </trkpt>
      <trkpt lat="44.77931882254779" lon="6.4650896564126015">
        <time>2022-01-25T12:37:24+00:00</time>
        <ele>2174.0</ele>
      </trkpt>
      <trkpt lat="44.77932142093778" lon="6.465106755495071">
        <time>2022-01-25T12:37:25+00:00</time>
        <ele>2175.0</ele>
      </trkpt>
      <trkpt lat="44.77932251058519" lon="6.465117819607258">
        <time>2022-01-25T12:37:26+00:00</time>
        <ele>2176.0</ele>
      </trkpt>
      <trkpt lat="44.77932393550873" lon="6.465114047750831">
        <time>2022-01-25T12:37:27+00:00</time>
        <ele>2176.0</ele>
      </trkpt>
      <trkpt lat="44.77932561188936" lon="6.465115807950497">
        <time>2022-01-25T12:37:29+00:00</time>
        <ele>2176.0</ele>
      </trkpt>
      <trkpt lat="44.779325695708394" lon="6.465116981416941">
        <time>2022-01-25T12:37:30+00:00</time>
        <ele>2176.0</ele>
      </trkpt>
      <trkpt lat="44.77932309731841" lon="6.465117651969194">
        <time>2022-01-25T12:37:31+00:00</time>
        <ele>2176.0</ele>
      </trkpt>
      <trkpt lat="44.7793666832149" lon="6.4651282131671906">
        <time>2022-01-25T12:37:37+00:00</time>
        <ele>2174.0</ele>
      </trkpt>
      <trkpt lat="44.779374143108726" lon="6.465130308642983">
        <time>2022-01-25T12:37:38+00:00</time>
        <ele>2174.0</ele>
      </trkpt>
      <trkpt lat="44.77944237180054" lon="6.465151682496071">
        <time>2022-01-25T12:37:42+00:00</time>
        <ele>2170.0</ele>
      </trkpt>
      <trkpt lat="44.779459135606885" lon="6.465185461565852">
        <time>2022-01-25T12:37:43+00:00</time>
        <ele>2172.0</ele>
      </trkpt>
      <trkpt lat="44.779522167518735" lon="6.46523566916585">
        <time>2022-01-25T12:37:45+00:00</time>
        <ele>2172.0</ele>
      </trkpt>
      <trkpt lat="44.77959232404828" lon="6.46524203941226">
        <time>2022-01-25T12:37:47+00:00</time>
        <ele>2166.0</ele>
      </trkpt>
      <trkpt lat="44.77964345365763" lon="6.465243799611926">
        <time>2022-01-25T12:37:49+00:00</time>
        <ele>2162.0</ele>
      </trkpt>
      <trkpt lat="44.779656613245606" lon="6.465234160423279">
        <time>2022-01-25T12:37:50+00:00</time>
        <ele>2160.0</ele>
      </trkpt>
      <trkpt lat="44.779668264091015" lon="6.465221336111426">
        <time>2022-01-25T12:37:51+00:00</time>
        <ele>2157.0</ele>
      </trkpt>
      <trkpt lat="44.77967823855579" lon="6.465201806277037">
        <time>2022-01-25T12:37:52+00:00</time>
        <ele>2155.0</ele>
      </trkpt>
      <trkpt lat="44.77968720719218" lon="6.465176912024617">
        <time>2022-01-25T12:37:53+00:00</time>
        <ele>2152.0</ele>
      </trkpt>
      <trkpt lat="44.77970606647432" lon="6.465146904811263">
        <time>2022-01-25T12:37:54+00:00</time>
        <ele>2147.0</ele>
      </trkpt>
      <trkpt lat="44.77974177338183" lon="6.465118573978543">
        <time>2022-01-25T12:37:55+00:00</time>
        <ele>2142.0</ele>
      </trkpt>
      <trkpt lat="44.77976188994944" lon="6.465115137398243">
        <time>2022-01-25T12:37:56+00:00</time>
        <ele>2140.0</ele>
      </trkpt>
      <trkpt lat="44.77976884692907" lon="6.465118154883385">
        <time>2022-01-25T12:37:57+00:00</time>
        <ele>2140.0</ele>
      </trkpt>
      <trkpt lat="44.77977018803358" lon="6.465119244530797">
        <time>2022-01-25T12:37:58+00:00</time>
        <ele>2140.0</ele>
      </trkpt>
      <trkpt lat="44.77976624853909" lon="6.4651241060346365">
        <time>2022-01-25T12:38:00+00:00</time>
        <ele>2141.0</ele>
      </trkpt>
      <trkpt lat="44.77975116111338" lon="6.465122094377875">
        <time>2022-01-25T12:38:03+00:00</time>
        <ele>2142.0</ele>
      </trkpt>
      <trkpt lat="44.77974462322891" lon="6.465121675282717">
        <time>2022-01-25T12:38:05+00:00</time>
        <ele>2142.0</ele>
      </trkpt>
      <trkpt lat="44.77973305620253" lon="6.465111533179879">
        <time>2022-01-25T12:38:09+00:00</time>
        <ele>2142.0</ele>
      </trkpt>
      <trkpt lat="44.77971930988133" lon="6.465096529573202">
        <time>2022-01-25T12:38:11+00:00</time>
        <ele>2142.0</ele>
      </trkpt>
      <trkpt lat="44.779680920764804" lon="6.465063588693738">
        <time>2022-01-25T12:38:14+00:00</time>
        <ele>2142.0</ele>
      </trkpt>
      <trkpt lat="44.7796568647027" lon="6.465047160163522">
        <time>2022-01-25T12:38:15+00:00</time>
        <ele>2142.0</ele>
      </trkpt>
      <trkpt lat="44.779635993763804" lon="6.4650466572493315">
        <time>2022-01-25T12:38:18+00:00</time>
        <ele>2144.0</ele>
      </trkpt>
      <trkpt lat="44.77964068762958" lon="6.465043807402253">
        <time>2022-01-25T12:38:19+00:00</time>
        <ele>2143.0</ele>
      </trkpt>
      <trkpt lat="44.77966809645295" lon="6.465037437155843">
        <time>2022-01-25T12:38:22+00:00</time>
        <ele>2140.0</ele>
      </trkpt>
      <trkpt lat="44.77968947030604" lon="6.465023439377546">
        <time>2022-01-25T12:38:24+00:00</time>
        <ele>2137.0</ele>
      </trkpt>
      <trkpt lat="44.77969299070537" lon="6.465018829330802">
        <time>2022-01-25T12:38:25+00:00</time>
        <ele>2137.0</ele>
      </trkpt>
      <trkpt lat="44.779686285182834" lon="6.465002819895744">
        <time>2022-01-25T12:38:28+00:00</time>
        <ele>2136.0</ele>
      </trkpt>
      <trkpt lat="44.779684441164136" lon="6.46499234251678">
        <time>2022-01-25T12:38:29+00:00</time>
        <ele>2135.0</ele>
      </trkpt>
      <trkpt lat="44.779688799753785" lon="6.464982535690069">
        <time>2022-01-25T12:38:30+00:00</time>
        <ele>2134.0</ele>
      </trkpt>
      <trkpt lat="44.77971629239619" lon="6.464977338910103">
        <time>2022-01-25T12:38:32+00:00</time>
        <ele>2131.0</ele>
      </trkpt>
      <trkpt lat="44.77972777560353" lon="6.464987061917782">
        <time>2022-01-25T12:38:33+00:00</time>
        <ele>2132.0</ele>
      </trkpt>
      <trkpt lat="44.7797416895628" lon="6.464998126029968">
        <time>2022-01-25T12:38:34+00:00</time>
        <ele>2132.0</ele>
      </trkpt>
      <trkpt lat="44.779763566330075" lon="6.464998377487063">
        <time>2022-01-25T12:38:37+00:00</time>
        <ele>2130.0</ele>
      </trkpt>
      <trkpt lat="44.77975459769368" lon="6.464985636994243">
        <time>2022-01-25T12:38:39+00:00</time>
        <ele>2130.0</ele>
      </trkpt>
      <trkpt lat="44.77978779003024" lon="6.464956384152174">
        <time>2022-01-25T12:38:43+00:00</time>
        <ele>2125.0</ele>
      </trkpt>
      <trkpt lat="44.779811426997185" lon="6.464946661144495">
        <time>2022-01-25T12:38:44+00:00</time>
        <ele>2123.0</ele>
      </trkpt>
      <trkpt lat="44.77982391603291" lon="6.464946577325463">
        <time>2022-01-25T12:38:45+00:00</time>
        <ele>2122.0</ele>
      </trkpt>
      <trkpt lat="44.77982676587999" lon="6.464945655316114">
        <time>2022-01-25T12:38:46+00:00</time>
        <ele>2122.0</ele>
      </trkpt>
      <trkpt lat="44.77983271703124" lon="6.464924868196249">
        <time>2022-01-25T12:38:48+00:00</time>
        <ele>2120.0</ele>
      </trkpt>
      <trkpt lat="44.77984730154276" lon="6.464922102168202">
        <time>2022-01-25T12:38:49+00:00</time>
        <ele>2119.0</ele>
      </trkpt>
      <trkpt lat="44.77986942976713" lon="6.464933166280389">
        <time>2022-01-25T12:38:51+00:00</time>
        <ele>2118.0</ele>
      </trkpt>
      <trkpt lat="44.779872447252274" lon="6.464922856539488">
        <time>2022-01-25T12:38:52+00:00</time>
        <ele>2118.0</ele>
      </trkpt>
      <trkpt lat="44.779913602396846" lon="6.46491464227438">
        <time>2022-01-25T12:38:54+00:00</time>
        <ele>2115.0</ele>
      </trkpt>
      <trkpt lat="44.7799383290112" lon="6.464931406080723">
        <time>2022-01-25T12:38:56+00:00</time>
        <ele>2114.0</ele>
      </trkpt>
      <trkpt lat="44.779941849410534" lon="6.464932831004262">
        <time>2022-01-25T12:38:58+00:00</time>
        <ele>2114.0</ele>
      </trkpt>
      <trkpt lat="44.779944363981485" lon="6.4649376925081015">
        <time>2022-01-25T12:39:00+00:00</time>
        <ele>2114.0</ele>
      </trkpt>
      <trkpt lat="44.779941849410534" lon="6.464957809075713">
        <time>2022-01-25T12:39:11+00:00</time>
        <ele>2116.0</ele>
      </trkpt>
      <trkpt lat="44.779941849410534" lon="6.464957809075713">
        <time>2022-01-25T12:39:12+00:00</time>
        <ele>2116.0</ele>
      </trkpt>
      <trkpt lat="44.779941849410534" lon="6.464957809075713">
        <time>2022-01-25T12:39:13+00:00</time>
        <ele>2116.0</ele>
      </trkpt>
      <trkpt lat="44.779941849410534" lon="6.464957809075713">
        <time>2022-01-25T12:39:14+00:00</time>
        <ele>2116.0</ele>
      </trkpt>
      <trkpt lat="44.779941849410534" lon="6.464957809075713">
        <time>2022-01-25T12:39:16+00:00</time>
        <ele>2116.0</ele>
      </trkpt>
      <trkpt lat="44.77996221743524" lon="6.464963927865028">
        <time>2022-01-25T12:39:29+00:00</time>
        <ele>2115.0</ele>
      </trkpt>
      <trkpt lat="44.78002265095711" lon="6.465002736076713">
        <time>2022-01-25T12:39:32+00:00</time>
        <ele>2115.0</ele>
      </trkpt>
      <trkpt lat="44.78005450218916" lon="6.465021260082722">
        <time>2022-01-25T12:39:33+00:00</time>
        <ele>2114.0</ele>
      </trkpt>
      <trkpt lat="44.780149133875966" lon="6.465065851807594">
        <time>2022-01-25T12:39:36+00:00</time>
        <ele>2113.0</ele>
      </trkpt>
      <trkpt lat="44.78017117828131" lon="6.465087560936809">
        <time>2022-01-25T12:39:37+00:00</time>
        <ele>2113.0</ele>
      </trkpt>
      <trkpt lat="44.780178889632225" lon="6.4651046600192785">
        <time>2022-01-25T12:39:38+00:00</time>
        <ele>2114.0</ele>
      </trkpt>
      <trkpt lat="44.78017344139516" lon="6.465121675282717">
        <time>2022-01-25T12:39:42+00:00</time>
        <ele>2116.0</ele>
      </trkpt>
      <trkpt lat="44.78017520159483" lon="6.465104827657342">
        <time>2022-01-25T12:39:51+00:00</time>
        <ele>2115.0</ele>
      </trkpt>
      <trkpt lat="44.78017520159483" lon="6.465104827657342">
        <time>2022-01-25T12:39:57+00:00</time>
        <ele>2115.0</ele>
      </trkpt>
      <trkpt lat="44.780156426131725" lon="6.46510667167604">
        <time>2022-01-25T12:40:22+00:00</time>
        <ele>2116.0</ele>
      </trkpt>
      <trkpt lat="44.78014117106795" lon="6.465108683332801">
        <time>2022-01-25T12:40:30+00:00</time>
        <ele>2117.0</ele>
      </trkpt>
      <trkpt lat="44.78013614192605" lon="6.465108683332801">
        <time>2022-01-25T12:40:37+00:00</time>
        <ele>2117.0</ele>
      </trkpt>
      <trkpt lat="44.780131950974464" lon="6.465093679726124">
        <time>2022-01-25T12:40:48+00:00</time>
        <ele>2116.0</ele>
      </trkpt>
      <trkpt lat="44.78013220243156" lon="6.465088734403253">
        <time>2022-01-25T12:40:51+00:00</time>
        <ele>2115.0</ele>
      </trkpt>
      <trkpt lat="44.78015039116144" lon="6.465074233710766">
        <time>2022-01-25T12:40:53+00:00</time>
        <ele>2113.0</ele>
      </trkpt>
      <trkpt lat="44.78014192543924" lon="6.465055458247662">
        <time>2022-01-25T12:40:54+00:00</time>
        <ele>2112.0</ele>
      </trkpt>
      <trkpt lat="44.78013622574508" lon="6.465047411620617">
        <time>2022-01-25T12:40:55+00:00</time>
        <ele>2112.0</ele>
      </trkpt>
      <trkpt lat="44.780134884640574" lon="6.465042466297746">
        <time>2022-01-25T12:40:58+00:00</time>
        <ele>2111.0</ele>
      </trkpt>
      <trkpt lat="44.780135387554765" lon="6.465040370821953">
        <time>2022-01-25T12:41:06+00:00</time>
        <ele>2111.0</ele>
      </trkpt>
      <trkpt lat="44.780148044228554" lon="6.465039029717445">
        <time>2022-01-25T12:41:14+00:00</time>
        <ele>2111.0</ele>
      </trkpt>
      <trkpt lat="44.78015131317079" lon="6.465039113536477">
        <time>2022-01-25T12:41:15+00:00</time>
        <ele>2110.0</ele>
      </trkpt>
      <trkpt lat="44.78016941808164" lon="6.465031486004591">
        <time>2022-01-25T12:41:31+00:00</time>
        <ele>2109.0</ele>
      </trkpt>
      <trkpt lat="44.78022783994675" lon="6.464960323646665">
        <time>2022-01-25T12:41:59+00:00</time>
        <ele>2100.0</ele>
      </trkpt>
      <trkpt lat="44.78020395152271" lon="6.46498940885067">
        <time>2022-01-25T12:42:24+00:00</time>
        <ele>2103.0</ele>
      </trkpt>
      <trkpt lat="44.78020646609366" lon="6.464990582317114">
        <time>2022-01-25T12:42:26+00:00</time>
        <ele>2103.0</ele>
      </trkpt>
      <trkpt lat="44.78020797483623" lon="6.465002568438649">
        <time>2022-01-25T12:42:32+00:00</time>
        <ele>2104.0</ele>
      </trkpt>
      <trkpt lat="44.78021048940718" lon="6.465024026110768">
        <time>2022-01-25T12:42:39+00:00</time>
        <ele>2106.0</ele>
      </trkpt>
      <trkpt lat="44.78021149523556" lon="6.465036682784557">
        <time>2022-01-25T12:42:42+00:00</time>
        <ele>2107.0</ele>
      </trkpt>
      <trkpt lat="44.78022063151002" lon="6.465052608400583">
        <time>2022-01-25T12:42:59+00:00</time>
        <ele>2108.0</ele>
      </trkpt>
      <trkpt lat="44.78022297844291" lon="6.4650661032646894">
        <time>2022-01-25T12:43:07+00:00</time>
        <ele>2109.0</ele>
      </trkpt>
      <trkpt lat="44.78023001924157" lon="6.46506660617888">
        <time>2022-01-25T12:43:16+00:00</time>
        <ele>2108.0</ele>
      </trkpt>
      <trkpt lat="44.78023303672671" lon="6.465062666684389">
        <time>2022-01-25T12:43:20+00:00</time>
        <ele>2108.0</ele>
      </trkpt>
      <trkpt lat="44.78023571893573" lon="6.465052105486393">
        <time>2022-01-25T12:43:24+00:00</time>
        <ele>2107.0</ele>
      </trkpt>
      <trkpt lat="44.78024644777179" lon="6.465049088001251">
        <time>2022-01-25T12:43:34+00:00</time>
        <ele>2106.0</ele>
      </trkpt>
      <trkpt lat="44.780247285962105" lon="6.465048752725124">
        <time>2022-01-25T12:43:35+00:00</time>
        <ele>2106.0</ele>
      </trkpt>
      <trkpt lat="44.78024887852371" lon="6.465048249810934">
        <time>2022-01-25T12:43:37+00:00</time>
        <ele>2106.0</ele>
      </trkpt>
      <trkpt lat="44.78025650605559" lon="6.465041460469365">
        <time>2022-01-25T12:43:53+00:00</time>
        <ele>2105.0</ele>
      </trkpt>
      <trkpt lat="44.78026019409299" lon="6.46501773968339">
        <time>2022-01-25T12:44:06+00:00</time>
        <ele>2103.0</ele>
      </trkpt>
      <trkpt lat="44.780261032283306" lon="6.46501581184566">
        <time>2022-01-25T12:44:10+00:00</time>
        <ele>2102.0</ele>
      </trkpt>
      <trkpt lat="44.78026513941586" lon="6.465014135465026">
        <time>2022-01-25T12:44:26+00:00</time>
        <ele>2102.0</ele>
      </trkpt>
      <trkpt lat="44.780265809968114" lon="6.4650151412934065">
        <time>2022-01-25T12:44:34+00:00</time>
        <ele>2102.0</ele>
      </trkpt>
      <trkpt lat="44.78026572614908" lon="6.465015392750502">
        <time>2022-01-25T12:44:37+00:00</time>
        <ele>2102.0</ele>
      </trkpt>
      <trkpt lat="44.780228761956096" lon="6.464985301718116">
        <time>2022-01-25T12:44:42+00:00</time>
        <ele>2102.0</ele>
      </trkpt>
      <trkpt lat="44.780197497457266" lon="6.464944230392575">
        <time>2022-01-25T12:44:47+00:00</time>
        <ele>2100.0</ele>
      </trkpt>
      <trkpt lat="44.78020504117012" lon="6.464935261756182">
        <time>2022-01-25T12:44:49+00:00</time>
        <ele>2099.0</ele>
      </trkpt>
      <trkpt lat="44.78018643334508" lon="6.464938446879387">
        <time>2022-01-25T12:44:58+00:00</time>
        <ele>2100.0</ele>
      </trkpt>
      <trkpt lat="44.7801904566586" lon="6.464934172108769">
        <time>2022-01-25T12:45:09+00:00</time>
        <ele>2100.0</ele>
      </trkpt>
      <trkpt lat="44.78019137866795" lon="6.4649239461869">
        <time>2022-01-25T12:45:18+00:00</time>
        <ele>2099.0</ele>
      </trkpt>
      <trkpt lat="44.7801923006773" lon="6.464918414130807">
        <time>2022-01-25T12:45:23+00:00</time>
        <ele>2099.0</ele>
      </trkpt>
      <trkpt lat="44.7801957372576" lon="6.464908607304096">
        <time>2022-01-25T12:45:29+00:00</time>
        <ele>2098.0</ele>
      </trkpt>
      <trkpt lat="44.78021183051169" lon="6.464887401089072">
        <time>2022-01-25T12:45:39+00:00</time>
        <ele>2096.0</ele>
      </trkpt>
      <trkpt lat="44.780242927372456" lon="6.464881869032979">
        <time>2022-01-25T12:45:45+00:00</time>
        <ele>2093.0</ele>
      </trkpt>
      <trkpt lat="44.780248794704676" lon="6.464881785213947">
        <time>2022-01-25T12:45:47+00:00</time>
        <ele>2093.0</ele>
      </trkpt>
      <trkpt lat="44.78026254102588" lon="6.464879270642996">
        <time>2022-01-25T12:45:52+00:00</time>
        <ele>2092.0</ele>
      </trkpt>
      <trkpt lat="44.78036220185459" lon="6.464866530150175">
        <time>2022-01-25T12:46:23+00:00</time>
        <ele>2085.0</ele>
      </trkpt>
      <trkpt lat="44.78036438114941" lon="6.464867200702429">
        <time>2022-01-25T12:46:26+00:00</time>
        <ele>2085.0</ele>
      </trkpt>
      <trkpt lat="44.78036471642554" lon="6.4648764207959175">
        <time>2022-01-25T12:46:32+00:00</time>
        <ele>2085.0</ele>
      </trkpt>
      <trkpt lat="44.780362620949745" lon="6.4648873172700405">
        <time>2022-01-25T12:46:43+00:00</time>
        <ele>2086.0</ele>
      </trkpt>
      <trkpt lat="44.78035407140851" lon="6.464887484908104">
        <time>2022-01-25T12:46:50+00:00</time>
        <ele>2087.0</ele>
      </trkpt>
      <trkpt lat="44.780360190197825" lon="6.464864769950509">
        <time>2022-01-25T12:47:12+00:00</time>
        <ele>2085.0</ele>
      </trkpt>
      <trkpt lat="44.78040327318013" lon="6.464859573170543">
        <time>2022-01-25T12:47:35+00:00</time>
        <ele>2082.0</ele>
      </trkpt>
      <trkpt lat="44.78041014634073" lon="6.4648558013141155">
        <time>2022-01-25T12:47:40+00:00</time>
        <ele>2081.0</ele>
      </trkpt>
      <trkpt lat="44.78041115216911" lon="6.46485504694283">
        <time>2022-01-25T12:47:41+00:00</time>
        <ele>2081.0</ele>
      </trkpt>
      <trkpt lat="44.780423725023866" lon="6.464814059436321">
        <time>2022-01-25T12:48:01+00:00</time>
        <ele>2077.0</ele>
      </trkpt>
      <trkpt lat="44.78042439557612" lon="6.4648122154176235">
        <time>2022-01-25T12:48:06+00:00</time>
        <ele>2077.0</ele>
      </trkpt>
      <trkpt lat="44.7804238088429" lon="6.46481255069375">
        <time>2022-01-25T12:48:17+00:00</time>
        <ele>2077.0</ele>
      </trkpt>
      <trkpt lat="44.7804238088429" lon="6.46481255069375">
        <time>2022-01-25T12:48:20+00:00</time>
        <ele>2077.0</ele>
      </trkpt>
      <trkpt lat="44.780423725023866" lon="6.464812466874719">
        <time>2022-01-25T12:48:41+00:00</time>
        <ele>2077.0</ele>
      </trkpt>
      <trkpt lat="44.780423725023866" lon="6.464812383055687">
        <time>2022-01-25T12:48:45+00:00</time>
        <ele>2077.0</ele>
      </trkpt>
      <trkpt lat="44.780423641204834" lon="6.4648122154176235">
        <time>2022-01-25T12:48:53+00:00</time>
        <ele>2077.0</ele>
      </trkpt>
      <trkpt lat="44.78040687739849" lon="6.464828308671713">
        <time>2022-01-25T12:49:00+00:00</time>
        <ele>2079.0</ele>
      </trkpt>
      <trkpt lat="44.78040595538914" lon="6.464829733595252">
        <time>2022-01-25T12:49:06+00:00</time>
        <ele>2080.0</ele>
      </trkpt>
      <trkpt lat="44.78040595538914" lon="6.464829733595252">
        <time>2022-01-25T12:49:11+00:00</time>
        <ele>2080.0</ele>
      </trkpt>
      <trkpt lat="44.78040595538914" lon="6.464829733595252">
        <time>2022-01-25T12:49:12+00:00</time>
        <ele>2080.0</ele>
      </trkpt>
      <trkpt lat="44.780406542122364" lon="6.464829482138157">
        <time>2022-01-25T12:49:13+00:00</time>
        <ele>2079.0</ele>
      </trkpt>
      <trkpt lat="44.78040964342654" lon="6.464826548472047">
        <time>2022-01-25T12:49:18+00:00</time>
        <ele>2079.0</ele>
      </trkpt>
      <trkpt lat="44.78042397648096" lon="6.464819675311446">
        <time>2022-01-25T12:49:27+00:00</time>
        <ele>2078.0</ele>
      </trkpt>
      <trkpt lat="44.78044199757278" lon="6.464819759130478">
        <time>2022-01-25T12:49:33+00:00</time>
        <ele>2076.0</ele>
      </trkpt>
      <trkpt lat="44.78044535033405" lon="6.464822189882398">
        <time>2022-01-25T12:49:39+00:00</time>
        <ele>2076.0</ele>
      </trkpt>
      <trkpt lat="44.78044702671468" lon="6.464849347248673">
        <time>2022-01-25T12:49:50+00:00</time>
        <ele>2078.0</ele>
      </trkpt>
      <trkpt lat="44.78044702671468" lon="6.464868206530809">
        <time>2022-01-25T12:50:00+00:00</time>
        <ele>2079.0</ele>
      </trkpt>
      <trkpt lat="44.780450128018856" lon="6.464870050549507">
        <time>2022-01-25T12:50:03+00:00</time>
        <ele>2079.0</ele>
      </trkpt>
      <trkpt lat="44.7804600186646" lon="6.464870218187571">
        <time>2022-01-25T12:50:07+00:00</time>
        <ele>2078.0</ele>
      </trkpt>
      <trkpt lat="44.78047778829932" lon="6.464870218187571">
        <time>2022-01-25T12:50:11+00:00</time>
        <ele>2077.0</ele>
      </trkpt>
      <trkpt lat="44.780530175194144" lon="6.464850269258022">
        <time>2022-01-25T12:50:28+00:00</time>
        <ele>2072.0</ele>
      </trkpt>
      <trkpt lat="44.7805308457464" lon="6.4648837968707085">
        <time>2022-01-25T12:50:53+00:00</time>
        <ele>2074.0</ele>
      </trkpt>
      <trkpt lat="44.78051399812102" lon="6.464911121875048">
        <time>2022-01-25T12:51:00+00:00</time>
        <ele>2077.0</ele>
      </trkpt>
      <trkpt lat="44.780511651188135" lon="6.464914977550507">
        <time>2022-01-25T12:51:04+00:00</time>
        <ele>2077.0</ele>
      </trkpt>
      <trkpt lat="44.78051131591201" lon="6.464913971722126">
        <time>2022-01-25T12:51:13+00:00</time>
        <ele>2077.0</ele>
      </trkpt>
      <trkpt lat="44.78051299229264" lon="6.464903745800257">
        <time>2022-01-25T12:51:29+00:00</time>
        <ele>2076.0</ele>
      </trkpt>
      <trkpt lat="44.78050595149398" lon="6.464881785213947">
        <time>2022-01-25T12:51:51+00:00</time>
        <ele>2076.0</ele>
      </trkpt>
      <trkpt lat="44.780502850189805" lon="6.46488044410944">
        <time>2022-01-25T12:51:53+00:00</time>
        <ele>2076.0</ele>
      </trkpt>
      <trkpt lat="44.78049228899181" lon="6.464880192652345">
        <time>2022-01-25T12:52:08+00:00</time>
        <ele>2077.0</ele>
      </trkpt>
      <trkpt lat="44.78049832396209" lon="6.464866865426302">
        <time>2022-01-25T12:52:15+00:00</time>
        <ele>2075.0</ele>
      </trkpt>
      <trkpt lat="44.78049715049565" lon="6.464860243722796">
        <time>2022-01-25T12:52:21+00:00</time>
        <ele>2075.0</ele>
      </trkpt>
      <trkpt lat="44.78050829842687" lon="6.464829482138157">
        <time>2022-01-25T12:52:49+00:00</time>
        <ele>2072.0</ele>
      </trkpt>
      <trkpt lat="44.78051148355007" lon="6.464818082749844">
        <time>2022-01-25T12:53:14+00:00</time>
        <ele>2071.0</ele>
      </trkpt>
      <trkpt lat="44.78051776997745" lon="6.464823363348842">
        <time>2022-01-25T12:53:18+00:00</time>
        <ele>2071.0</ele>
      </trkpt>
      <trkpt lat="44.78054517880082" lon="6.464828476309776">
        <time>2022-01-25T12:53:24+00:00</time>
        <ele>2069.0</ele>
      </trkpt>
      <trkpt lat="44.78055892512202" lon="6.4648351818323135">
        <time>2022-01-25T12:53:34+00:00</time>
        <ele>2068.0</ele>
      </trkpt>
      <trkpt lat="44.780579628422856" lon="6.464834259822965">
        <time>2022-01-25T12:53:57+00:00</time>
        <ele>2067.0</ele>
      </trkpt>
      <trkpt lat="44.78058130480349" lon="6.464846329763532">
        <time>2022-01-25T12:54:09+00:00</time>
        <ele>2067.0</ele>
      </trkpt>
      <trkpt lat="44.78058038279414" lon="6.464847670868039">
        <time>2022-01-25T12:54:13+00:00</time>
        <ele>2067.0</ele>
      </trkpt>
      <trkpt lat="44.78058373555541" lon="6.464837361127138">
        <time>2022-01-25T12:54:28+00:00</time>
        <ele>2066.0</ele>
      </trkpt>
      <trkpt lat="44.78058809414506" lon="6.464830571785569">
        <time>2022-01-25T12:54:33+00:00</time>
        <ele>2066.0</ele>
      </trkpt>
      <trkpt lat="44.78061047382653" lon="6.464798888191581">
        <time>2022-01-25T12:54:51+00:00</time>
        <ele>2062.0</ele>
      </trkpt>
      <trkpt lat="44.780603516846895" lon="6.4648013189435005">
        <time>2022-01-25T12:55:00+00:00</time>
        <ele>2062.0</ele>
      </trkpt>
      <trkpt lat="44.78060075081885" lon="6.464802157133818">
        <time>2022-01-25T12:55:07+00:00</time>
        <ele>2063.0</ele>
      </trkpt>
      <trkpt lat="44.78060083463788" lon="6.464800480753183">
        <time>2022-01-25T12:55:13+00:00</time>
        <ele>2063.0</ele>
      </trkpt>
      <trkpt lat="44.7806172631681" lon="6.4647812861949205">
        <time>2022-01-25T12:56:02+00:00</time>
        <ele>2060.0</ele>
      </trkpt>
      <trkpt lat="44.780617011711" lon="6.464782962575555">
        <time>2022-01-25T12:56:26+00:00</time>
        <ele>2060.0</ele>
      </trkpt>
      <trkpt lat="44.780616676434875" lon="6.464784136041999">
        <time>2022-01-25T12:56:36+00:00</time>
        <ele>2060.0</ele>
      </trkpt>
      <trkpt lat="44.78061659261584" lon="6.464784471318126">
        <time>2022-01-25T12:56:39+00:00</time>
        <ele>2060.0</ele>
      </trkpt>
      <trkpt lat="44.780619693920016" lon="6.464844485744834">
        <time>2022-01-25T12:56:56+00:00</time>
        <ele>2064.0</ele>
      </trkpt>
      <trkpt lat="44.78063855320215" lon="6.464856890961528">
        <time>2022-01-25T12:57:01+00:00</time>
        <ele>2064.0</ele>
      </trkpt>
      <trkpt lat="44.78064182214439" lon="6.464863512665033">
        <time>2022-01-25T12:57:06+00:00</time>
        <ele>2064.0</ele>
      </trkpt>
      <trkpt lat="44.78064626455307" lon="6.464813556522131">
        <time>2022-01-25T12:57:10+00:00</time>
        <ele>2060.0</ele>
      </trkpt>
      <trkpt lat="44.780647018924356" lon="6.464801151305437">
        <time>2022-01-25T12:57:13+00:00</time>
        <ele>2059.0</ele>
      </trkpt>
      <trkpt lat="44.780647018924356" lon="6.464801151305437">
        <time>2022-01-25T12:57:21+00:00</time>
        <ele>2059.0</ele>
      </trkpt>
      <trkpt lat="44.78065464645624" lon="6.464801486581564">
        <time>2022-01-25T12:57:23+00:00</time>
        <ele>2059.0</ele>
      </trkpt>
      <trkpt lat="44.78072723373771" lon="6.46484088152647">
        <time>2022-01-25T12:57:28+00:00</time>
        <ele>2057.0</ele>
      </trkpt>
      <trkpt lat="44.78073997423053" lon="6.464847670868039">
        <time>2022-01-25T12:57:31+00:00</time>
        <ele>2056.0</ele>
      </trkpt>
      <trkpt lat="44.78074165061116" lon="6.4648466650396585">
        <time>2022-01-25T12:57:32+00:00</time>
        <ele>2056.0</ele>
      </trkpt>
      <trkpt lat="44.780739303678274" lon="6.464834343641996">
        <time>2022-01-25T12:57:36+00:00</time>
        <ele>2055.0</ele>
      </trkpt>
      <trkpt lat="44.78073067031801" lon="6.464839288964868">
        <time>2022-01-25T12:57:38+00:00</time>
        <ele>2056.0</ele>
      </trkpt>
      <trkpt lat="44.78072446770966" lon="6.4648396242409945">
        <time>2022-01-25T12:57:41+00:00</time>
        <ele>2057.0</ele>
      </trkpt>
      <trkpt lat="44.780721701681614" lon="6.464810539036989">
        <time>2022-01-25T12:57:43+00:00</time>
        <ele>2055.0</ele>
      </trkpt>
      <trkpt lat="44.78071600198746" lon="6.464782040566206">
        <time>2022-01-25T12:57:44+00:00</time>
        <ele>2053.0</ele>
      </trkpt>
      <trkpt lat="44.78070552460849" lon="6.4647594932466745">
        <time>2022-01-25T12:57:46+00:00</time>
        <ele>2052.0</ele>
      </trkpt>
      <trkpt lat="44.78070292621851" lon="6.464761756360531">
        <time>2022-01-25T12:57:47+00:00</time>
        <ele>2053.0</ele>
      </trkpt>
      <trkpt lat="44.780749110504985" lon="6.46472898311913">
        <time>2022-01-25T12:57:52+00:00</time>
        <ele>2047.0</ele>
      </trkpt>
      <trkpt lat="44.78077383711934" lon="6.464732922613621">
        <time>2022-01-25T12:58:00+00:00</time>
        <ele>2046.0</ele>
      </trkpt>
      <trkpt lat="44.78077618405223" lon="6.464758068323135">
        <time>2022-01-25T12:58:03+00:00</time>
        <ele>2047.0</ele>
      </trkpt>
      <trkpt lat="44.780793534591794" lon="6.46476904861629">
        <time>2022-01-25T12:58:06+00:00</time>
        <ele>2047.0</ele>
      </trkpt>
      <trkpt lat="44.78080024011433" lon="6.464764354750514">
        <time>2022-01-25T12:58:08+00:00</time>
        <ele>2046.0</ele>
      </trkpt>
      <trkpt lat="44.7808088734746" lon="6.4647645223885775">
        <time>2022-01-25T12:58:12+00:00</time>
        <ele>2046.0</ele>
      </trkpt>
      <trkpt lat="44.78081490844488" lon="6.46476561203599">
        <time>2022-01-25T12:58:17+00:00</time>
        <ele>2045.0</ele>
      </trkpt>
      <trkpt lat="44.78081490844488" lon="6.46476561203599">
        <time>2022-01-25T12:58:19+00:00</time>
        <ele>2045.0</ele>
      </trkpt>
      <trkpt lat="44.78081490844488" lon="6.46476561203599">
        <time>2022-01-25T12:58:21+00:00</time>
        <ele>2045.0</ele>
      </trkpt>
      <trkpt lat="44.78081490844488" lon="6.46476561203599">
        <time>2022-01-25T12:58:29+00:00</time>
        <ele>2045.0</ele>
      </trkpt>
      <trkpt lat="44.78081490844488" lon="6.464767791330814">
        <time>2022-01-25T12:58:37+00:00</time>
        <ele>2045.0</ele>
      </trkpt>
      <trkpt lat="44.7808207757771" lon="6.46476904861629">
        <time>2022-01-25T12:58:44+00:00</time>
        <ele>2045.0</ele>
      </trkpt>
      <trkpt lat="44.78083376772702" lon="6.4647719822824">
        <time>2022-01-25T12:58:53+00:00</time>
        <ele>2044.0</ele>
      </trkpt>
      <trkpt lat="44.780839048326015" lon="6.464772904291749">
        <time>2022-01-25T12:58:57+00:00</time>
        <ele>2044.0</ele>
      </trkpt>
      <trkpt lat="44.78084013797343" lon="6.464777598157525">
        <time>2022-01-25T12:59:04+00:00</time>
        <ele>2044.0</ele>
      </trkpt>
      <trkpt lat="44.78084282018244" lon="6.464772233739495">
        <time>2022-01-25T12:59:06+00:00</time>
        <ele>2044.0</ele>
      </trkpt>
      <trkpt lat="44.78083787485957" lon="6.46467961370945">
        <time>2022-01-25T12:59:11+00:00</time>
        <ele>2037.0</ele>
      </trkpt>
      <trkpt lat="44.780813651159406" lon="6.464596381410956">
        <time>2022-01-25T12:59:12+00:00</time>
        <ele>2034.0</ele>
      </trkpt>
      <trkpt lat="44.78079579770565" lon="6.464501582086086">
        <time>2022-01-25T12:59:13+00:00</time>
        <ele>2030.0</ele>
      </trkpt>
      <trkpt lat="44.78078104555607" lon="6.464447099715471">
        <time>2022-01-25T12:59:14+00:00</time>
        <ele>2027.0</ele>
      </trkpt>
      <trkpt lat="44.78077199310064" lon="6.464428408071399">
        <time>2022-01-25T12:59:15+00:00</time>
        <ele>2027.0</ele>
      </trkpt>
      <trkpt lat="44.78076587431133" lon="6.464417343959212">
        <time>2022-01-25T12:59:16+00:00</time>
        <ele>2027.0</ele>
      </trkpt>
      <trkpt lat="44.78076201863587" lon="6.46440158598125">
        <time>2022-01-25T12:59:18+00:00</time>
        <ele>2026.0</ele>
      </trkpt>
      <trkpt lat="44.780750116333365" lon="6.464384570717812">
        <time>2022-01-25T12:59:21+00:00</time>
        <ele>2026.0</ele>
      </trkpt>
      <trkpt lat="44.780730502679944" lon="6.464389348402619">
        <time>2022-01-25T12:59:27+00:00</time>
        <ele>2028.0</ele>
      </trkpt>
      <trkpt lat="44.78071223013103" lon="6.464417008683085">
        <time>2022-01-25T12:59:33+00:00</time>
        <ele>2031.0</ele>
      </trkpt>
      <trkpt lat="44.780720779672265" lon="6.464423714205623">
        <time>2022-01-25T12:59:35+00:00</time>
        <ele>2030.0</ele>
      </trkpt>
      <trkpt lat="44.78072597645223" lon="6.464421031996608">
        <time>2022-01-25T12:59:48+00:00</time>
        <ele>2030.0</ele>
      </trkpt>
      <trkpt lat="44.780751792714" lon="6.4643869176507">
        <time>2022-01-25T13:00:05+00:00</time>
        <ele>2026.0</ele>
      </trkpt>
      <trkpt lat="44.78078490123153" lon="6.464366130530834">
        <time>2022-01-25T13:00:18+00:00</time>
        <ele>2022.0</ele>
      </trkpt>
      <trkpt lat="44.7807895950973" lon="6.464366130530834">
        <time>2022-01-25T13:00:24+00:00</time>
        <ele>2022.0</ele>
      </trkpt>
      <trkpt lat="44.7807895950973" lon="6.46436738781631">
        <time>2022-01-25T13:00:28+00:00</time>
        <ele>2022.0</ele>
      </trkpt>
      <trkpt lat="44.7807895950973" lon="6.46436738781631">
        <time>2022-01-25T13:00:31+00:00</time>
        <ele>2022.0</ele>
      </trkpt>
      <trkpt lat="44.78079043328762" lon="6.4643678907305">
        <time>2022-01-25T13:00:38+00:00</time>
        <ele>2022.0</ele>
      </trkpt>
      <trkpt lat="44.78077517822385" lon="6.464387504383922">
        <time>2022-01-25T13:01:09+00:00</time>
        <ele>2024.0</ele>
      </trkpt>
      <trkpt lat="44.78078590705991" lon="6.46438205614686">
        <time>2022-01-25T13:01:24+00:00</time>
        <ele>2023.0</ele>
      </trkpt>
      <trkpt lat="44.780803844332695" lon="6.464380295947194">
        <time>2022-01-25T13:01:36+00:00</time>
        <ele>2022.0</ele>
      </trkpt>
      <trkpt lat="44.78088456206024" lon="6.4643218740820885">
        <time>2022-01-25T13:01:38+00:00</time>
        <ele>2013.0</ele>
      </trkpt>
      <trkpt lat="44.78100677020848" lon="6.464367555454373">
        <time>2022-01-25T13:01:40+00:00</time>
        <ele>2008.0</ele>
      </trkpt>
      <trkpt lat="44.78105706162751" lon="6.46440451964736">
        <time>2022-01-25T13:01:41+00:00</time>
        <ele>2007.0</ele>
      </trkpt>
      <trkpt lat="44.78110324591398" lon="6.464430587366223">
        <time>2022-01-25T13:01:42+00:00</time>
        <ele>2005.0</ele>
      </trkpt>
      <trkpt lat="44.78116761893034" lon="6.464464198797941">
        <time>2022-01-25T13:01:44+00:00</time>
        <ele>2003.0</ele>
      </trkpt>
      <trkpt lat="44.78119678795338" lon="6.464445339515805">
        <time>2022-01-25T13:01:47+00:00</time>
        <ele>2001.0</ele>
      </trkpt>
      <trkpt lat="44.781191339716315" lon="6.464447937905788">
        <time>2022-01-25T13:01:50+00:00</time>
        <ele>2001.0</ele>
      </trkpt>
      <trkpt lat="44.78119150735438" lon="6.4644555654376745">
        <time>2022-01-25T13:01:52+00:00</time>
        <ele>2002.0</ele>
      </trkpt>
      <trkpt lat="44.781246073544025" lon="6.464414661750197">
        <time>2022-01-25T13:01:55+00:00</time>
        <ele>1997.0</ele>
      </trkpt>
      <trkpt lat="44.78129988536239" lon="6.464359760284424">
        <time>2022-01-25T13:01:56+00:00</time>
        <ele>1992.0</ele>
      </trkpt>
      <trkpt lat="44.78133768774569" lon="6.464324723929167">
        <time>2022-01-25T13:01:57+00:00</time>
        <ele>1989.0</ele>
      </trkpt>
      <trkpt lat="44.78139007464051" lon="6.464280383661389">
        <time>2022-01-25T13:01:58+00:00</time>
        <ele>1986.0</ele>
      </trkpt>
      <trkpt lat="44.78144304826856" lon="6.464227577671409">
        <time>2022-01-25T13:01:59+00:00</time>
        <ele>1981.0</ele>
      </trkpt>
      <trkpt lat="44.781494429335" lon="6.464188601821661">
        <time>2022-01-25T13:02:01+00:00</time>
        <ele>1978.0</ele>
      </trkpt>
      <trkpt lat="44.781515803188086" lon="6.464173262938857">
        <time>2022-01-25T13:02:02+00:00</time>
        <ele>1976.0</ele>
      </trkpt>
      <trkpt lat="44.78152175433934" lon="6.464172173291445">
        <time>2022-01-25T13:02:03+00:00</time>
        <ele>1976.0</ele>
      </trkpt>
      <trkpt lat="44.781523598358035" lon="6.464180974289775">
        <time>2022-01-25T13:02:04+00:00</time>
        <ele>1976.0</ele>
      </trkpt>
      <trkpt lat="44.781509432941675" lon="6.464194720610976">
        <time>2022-01-25T13:02:05+00:00</time>
        <ele>1977.0</ele>
      </trkpt>
      <trkpt lat="44.78150733746588" lon="6.46421492099762">
        <time>2022-01-25T13:02:10+00:00</time>
        <ele>1977.0</ele>
      </trkpt>
      <trkpt lat="44.78150423616171" lon="6.464212154969573">
        <time>2022-01-25T13:02:11+00:00</time>
        <ele>1978.0</ele>
      </trkpt>
      <trkpt lat="44.78149157948792" lon="6.464201007038355">
        <time>2022-01-25T13:02:17+00:00</time>
        <ele>1978.0</ele>
      </trkpt>
      <trkpt lat="44.781485544517636" lon="6.464183824136853">
        <time>2022-01-25T13:02:24+00:00</time>
        <ele>1978.0</ele>
      </trkpt>
      <trkpt lat="44.78148705326021" lon="6.464183824136853">
        <time>2022-01-25T13:02:34+00:00</time>
        <ele>1978.0</ele>
      </trkpt>
      <trkpt lat="44.78148705326021" lon="6.464183824136853">
        <time>2022-01-25T13:02:37+00:00</time>
        <ele>1978.0</ele>
      </trkpt>
      <trkpt lat="44.78148722089827" lon="6.464182902127504">
        <time>2022-01-25T13:02:43+00:00</time>
        <ele>1978.0</ele>
      </trkpt>
      <trkpt lat="44.78149300441146" lon="6.46417586132884">
        <time>2022-01-25T13:02:56+00:00</time>
        <ele>1978.0</ele>
      </trkpt>
      <trkpt lat="44.78149300441146" lon="6.46417586132884">
        <time>2022-01-25T13:02:57+00:00</time>
        <ele>1978.0</ele>
      </trkpt>
      <trkpt lat="44.78148965165019" lon="6.46417485550046">
        <time>2022-01-25T13:03:12+00:00</time>
        <ele>1978.0</ele>
      </trkpt>
      <trkpt lat="44.781561736017466" lon="6.464205281808972">
        <time>2022-01-25T13:03:19+00:00</time>
        <ele>1974.0</ele>
      </trkpt>
      <trkpt lat="44.78158042766154" lon="6.464220955967903">
        <time>2022-01-25T13:03:20+00:00</time>
        <ele>1973.0</ele>
      </trkpt>
      <trkpt lat="44.781598784029484" lon="6.464226907119155">
        <time>2022-01-25T13:03:21+00:00</time>
        <ele>1972.0</ele>
      </trkpt>
      <trkpt lat="44.781643794849515" lon="6.464246604591608">
        <time>2022-01-25T13:03:23+00:00</time>
        <ele>1970.0</ele>
      </trkpt>
      <trkpt lat="44.78166248649359" lon="6.464275270700455">
        <time>2022-01-25T13:03:24+00:00</time>
        <ele>1969.0</ele>
      </trkpt>
      <trkpt lat="44.78168327361345" lon="6.46431801840663">
        <time>2022-01-25T13:03:25+00:00</time>
        <ele>1968.0</ele>
      </trkpt>
      <trkpt lat="44.78174370713532" lon="6.464428743347526">
        <time>2022-01-25T13:03:27+00:00</time>
        <ele>1965.0</ele>
      </trkpt>
      <trkpt lat="44.7817690204829" lon="6.464484315365553">
        <time>2022-01-25T13:03:28+00:00</time>
        <ele>1964.0</ele>
      </trkpt>
      <trkpt lat="44.78180665522814" lon="6.464567631483078">
        <time>2022-01-25T13:03:30+00:00</time>
        <ele>1963.0</ele>
      </trkpt>
      <trkpt lat="44.781895503401756" lon="6.464575007557869">
        <time>2022-01-25T13:03:32+00:00</time>
        <ele>1957.0</ele>
      </trkpt>
      <trkpt lat="44.78191897273064" lon="6.464587245136499">
        <time>2022-01-25T13:03:33+00:00</time>
        <ele>1956.0</ele>
      </trkpt>
      <trkpt lat="44.7819640673697" lon="6.46457458846271">
        <time>2022-01-25T13:03:34+00:00</time>
        <ele>1953.0</ele>
      </trkpt>
      <trkpt lat="44.781982926651835" lon="6.464561764150858">
        <time>2022-01-25T13:03:35+00:00</time>
        <ele>1952.0</ele>
      </trkpt>
      <trkpt lat="44.78198954835534" lon="6.464555645361543">
        <time>2022-01-25T13:03:36+00:00</time>
        <ele>1951.0</ele>
      </trkpt>
      <trkpt lat="44.78199088945985" lon="6.464551202952862">
        <time>2022-01-25T13:03:38+00:00</time>
        <ele>1951.0</ele>
      </trkpt>
      <trkpt lat="44.78199667297304" lon="6.464464869350195">
        <time>2022-01-25T13:03:46+00:00</time>
        <ele>1950.0</ele>
      </trkpt>
      <trkpt lat="44.78201159276068" lon="6.464454056695104">
        <time>2022-01-25T13:04:05+00:00</time>
        <ele>1949.0</ele>
      </trkpt>
      <trkpt lat="44.78200279176235" lon="6.4644676353782415">
        <time>2022-01-25T13:04:17+00:00</time>
        <ele>1950.0</ele>
      </trkpt>
      <trkpt lat="44.782002456486225" lon="6.464470233768225">
        <time>2022-01-25T13:04:19+00:00</time>
        <ele>1950.0</ele>
      </trkpt>
      <trkpt lat="44.781972784549" lon="6.4644888415932655">
        <time>2022-01-25T13:04:41+00:00</time>
        <ele>1952.0</ele>
      </trkpt>
      <trkpt lat="44.781970186159015" lon="6.464490769430995">
        <time>2022-01-25T13:04:43+00:00</time>
        <ele>1952.0</ele>
      </trkpt>
      <trkpt lat="44.781967252492905" lon="6.464491859078407">
        <time>2022-01-25T13:04:46+00:00</time>
        <ele>1952.0</ele>
      </trkpt>
      <trkpt lat="44.781965827569366" lon="6.464492110535502">
        <time>2022-01-25T13:04:48+00:00</time>
        <ele>1952.0</ele>
      </trkpt>
      <trkpt lat="44.78197890333831" lon="6.464408375322819">
        <time>2022-01-25T13:04:52+00:00</time>
        <ele>1951.0</ele>
      </trkpt>
      <trkpt lat="44.78199725970626" lon="6.464359508827329">
        <time>2022-01-25T13:04:53+00:00</time>
        <ele>1950.0</ele>
      </trkpt>
      <trkpt lat="44.78202081285417" lon="6.464339895173907">
        <time>2022-01-25T13:04:54+00:00</time>
        <ele>1948.0</ele>
      </trkpt>
      <trkpt lat="44.78205987252295" lon="6.464338889345527">
        <time>2022-01-25T13:04:55+00:00</time>
        <ele>1946.0</ele>
      </trkpt>
      <trkpt lat="44.782075211405754" lon="6.464341236278415">
        <time>2022-01-25T13:04:56+00:00</time>
        <ele>1945.0</ele>
      </trkpt>
      <trkpt lat="44.78211209177971" lon="6.464335955679417">
        <time>2022-01-25T13:04:57+00:00</time>
        <ele>1943.0</ele>
      </trkpt>
      <trkpt lat="44.78215123526752" lon="6.4643436670303345">
        <time>2022-01-25T13:04:58+00:00</time>
        <ele>1941.0</ele>
      </trkpt>
      <trkpt lat="44.782184259966016" lon="6.464347941800952">
        <time>2022-01-25T13:04:59+00:00</time>
        <ele>1939.0</ele>
      </trkpt>
      <trkpt lat="44.7822249121964" lon="6.464350204914808">
        <time>2022-01-25T13:05:00+00:00</time>
        <ele>1936.0</ele>
      </trkpt>
      <trkpt lat="44.78226497769356" lon="6.464375602081418">
        <time>2022-01-25T13:05:01+00:00</time>
        <ele>1934.0</ele>
      </trkpt>
      <trkpt lat="44.7822801489383" lon="6.464429162442684">
        <time>2022-01-25T13:05:02+00:00</time>
        <ele>1933.0</ele>
      </trkpt>
      <trkpt lat="44.78229498490691" lon="6.464489595964551">
        <time>2022-01-25T13:05:03+00:00</time>
        <ele>1932.0</ele>
      </trkpt>
      <trkpt lat="44.78229724802077" lon="6.46451884880662">
        <time>2022-01-25T13:05:04+00:00</time>
        <ele>1932.0</ele>
      </trkpt>
      <trkpt lat="44.78229716420174" lon="6.464538546279073">
        <time>2022-01-25T13:05:05+00:00</time>
        <ele>1932.0</ele>
      </trkpt>
      <trkpt lat="44.78229238651693" lon="6.464561764150858">
        <time>2022-01-25T13:05:08+00:00</time>
        <ele>1932.0</ele>
      </trkpt>
      <trkpt lat="44.782316107302904" lon="6.464557992294431">
        <time>2022-01-25T13:05:10+00:00</time>
        <ele>1930.0</ele>
      </trkpt>
      <trkpt lat="44.782350808382034" lon="6.464518681168556">
        <time>2022-01-25T13:05:12+00:00</time>
        <ele>1928.0</ele>
      </trkpt>
      <trkpt lat="44.782360112294555" lon="6.464502085000277">
        <time>2022-01-25T13:05:13+00:00</time>
        <ele>1928.0</ele>
      </trkpt>
      <trkpt lat="44.78236421942711" lon="6.464493786916137">
        <time>2022-01-25T13:05:14+00:00</time>
        <ele>1927.0</ele>
      </trkpt>
      <trkpt lat="44.782355753704906" lon="6.464500240981579">
        <time>2022-01-25T13:05:15+00:00</time>
        <ele>1928.0</ele>
      </trkpt>
      <trkpt lat="44.78235743008554" lon="6.4645477663725615">
        <time>2022-01-25T13:05:18+00:00</time>
        <ele>1928.0</ele>
      </trkpt>
      <trkpt lat="44.782371846958995" lon="6.464622700586915">
        <time>2022-01-25T13:05:22+00:00</time>
        <ele>1926.0</ele>
      </trkpt>
      <trkpt lat="44.782378720119596" lon="6.464658994227648">
        <time>2022-01-25T13:05:23+00:00</time>
        <ele>1926.0</ele>
      </trkpt>
      <trkpt lat="44.78238768875599" lon="6.464715152978897">
        <time>2022-01-25T13:05:24+00:00</time>
        <ele>1926.0</ele>
      </trkpt>
      <trkpt lat="44.78238928131759" lon="6.464751111343503">
        <time>2022-01-25T13:05:25+00:00</time>
        <ele>1926.0</ele>
      </trkpt>
      <trkpt lat="44.78239615447819" lon="6.464828811585903">
        <time>2022-01-25T13:05:27+00:00</time>
        <ele>1926.0</ele>
      </trkpt>
      <trkpt lat="44.782396741211414" lon="6.464883042499423">
        <time>2022-01-25T13:05:29+00:00</time>
        <ele>1926.0</ele>
      </trkpt>
      <trkpt lat="44.78239883668721" lon="6.46488337777555">
        <time>2022-01-25T13:05:30+00:00</time>
        <ele>1926.0</ele>
      </trkpt>
      <trkpt lat="44.782414427027106" lon="6.464879689738154">
        <time>2022-01-25T13:05:32+00:00</time>
        <ele>1925.0</ele>
      </trkpt>
      <trkpt lat="44.782419707626104" lon="6.464877091348171">
        <time>2022-01-25T13:05:34+00:00</time>
        <ele>1924.0</ele>
      </trkpt>
      <trkpt lat="44.78243798017502" lon="6.464907769113779">
        <time>2022-01-25T13:05:37+00:00</time>
        <ele>1923.0</ele>
      </trkpt>
      <trkpt lat="44.78244544006884" lon="6.4649262093007565">
        <time>2022-01-25T13:05:38+00:00</time>
        <ele>1923.0</ele>
      </trkpt>
      <trkpt lat="44.782442757859826" lon="6.464954372495413">
        <time>2022-01-25T13:05:39+00:00</time>
        <ele>1924.0</ele>
      </trkpt>
      <trkpt lat="44.78244879283011" lon="6.464975578710437">
        <time>2022-01-25T13:05:41+00:00</time>
        <ele>1924.0</ele>
      </trkpt>
      <trkpt lat="44.78245181031525" lon="6.4649756625294685">
        <time>2022-01-25T13:05:42+00:00</time>
        <ele>1923.0</ele>
      </trkpt>
      <trkpt lat="44.78246354497969" lon="6.464976919814944">
        <time>2022-01-25T13:05:48+00:00</time>
        <ele>1923.0</ele>
      </trkpt>
      <trkpt lat="44.78246731683612" lon="6.464988570660353">
        <time>2022-01-25T13:05:52+00:00</time>
        <ele>1923.0</ele>
      </trkpt>
      <trkpt lat="44.78247276507318" lon="6.4649921748787165">
        <time>2022-01-25T13:05:53+00:00</time>
        <ele>1922.0</ele>
      </trkpt>
      <trkpt lat="44.782472932711244" lon="6.465006172657013">
        <time>2022-01-25T13:05:57+00:00</time>
        <ele>1923.0</ele>
      </trkpt>
      <trkpt lat="44.7825098130852" lon="6.465009860694408">
        <time>2022-01-25T13:06:02+00:00</time>
        <ele>1920.0</ele>
      </trkpt>
      <trkpt lat="44.78252590633929" lon="6.464999634772539">
        <time>2022-01-25T13:06:07+00:00</time>
        <ele>1919.0</ele>
      </trkpt>
      <trkpt lat="44.78252590633929" lon="6.464999634772539">
        <time>2022-01-25T13:06:11+00:00</time>
        <ele>1919.0</ele>
      </trkpt>
      <trkpt lat="44.78252590633929" lon="6.465000221505761">
        <time>2022-01-25T13:06:14+00:00</time>
        <ele>1919.0</ele>
      </trkpt>
      <trkpt lat="44.78252590633929" lon="6.465009693056345">
        <time>2022-01-25T13:06:19+00:00</time>
        <ele>1919.0</ele>
      </trkpt>
      <trkpt lat="44.78254753164947" lon="6.465043555945158">
        <time>2022-01-25T13:06:24+00:00</time>
        <ele>1918.0</ele>
      </trkpt>
      <trkpt lat="44.782579550519586" lon="6.465072389692068">
        <time>2022-01-25T13:06:25+00:00</time>
        <ele>1917.0</ele>
      </trkpt>
      <trkpt lat="44.782602014020085" lon="6.465106168761849">
        <time>2022-01-25T13:06:26+00:00</time>
        <ele>1916.0</ele>
      </trkpt>
      <trkpt lat="44.78262959048152" lon="6.46514187566936">
        <time>2022-01-25T13:06:28+00:00</time>
        <ele>1914.0</ele>
      </trkpt>
      <trkpt lat="44.7826356254518" lon="6.465163668617606">
        <time>2022-01-25T13:06:29+00:00</time>
        <ele>1914.0</ele>
      </trkpt>
      <trkpt lat="44.78265540674329" lon="6.465202393010259">
        <time>2022-01-25T13:06:31+00:00</time>
        <ele>1914.0</ele>
      </trkpt>
      <trkpt lat="44.782659597694874" lon="6.465215217322111">
        <time>2022-01-25T13:06:33+00:00</time>
        <ele>1913.0</ele>
      </trkpt>
      <trkpt lat="44.78271449916065" lon="6.465296521782875">
        <time>2022-01-25T13:06:36+00:00</time>
        <ele>1911.0</ele>
      </trkpt>
      <trkpt lat="44.782726066187024" lon="6.465329462662339">
        <time>2022-01-25T13:06:37+00:00</time>
        <ele>1910.0</ele>
      </trkpt>
      <trkpt lat="44.782740818336606" lon="6.465361816808581">
        <time>2022-01-25T13:06:39+00:00</time>
        <ele>1910.0</ele>
      </trkpt>
      <trkpt lat="44.7827394772321" lon="6.465367516502738">
        <time>2022-01-25T13:06:40+00:00</time>
        <ele>1910.0</ele>
      </trkpt>
      <trkpt lat="44.78276546113193" lon="6.465319823473692">
        <time>2022-01-25T13:06:43+00:00</time>
        <ele>1907.0</ele>
      </trkpt>
      <trkpt lat="44.78279228322208" lon="6.465294426307082">
        <time>2022-01-25T13:06:44+00:00</time>
        <ele>1905.0</ele>
      </trkpt>
      <trkpt lat="44.7827981505543" lon="6.465296354144812">
        <time>2022-01-25T13:06:45+00:00</time>
        <ele>1904.0</ele>
      </trkpt>
      <trkpt lat="44.78280762210488" lon="6.465322757139802">
        <time>2022-01-25T13:06:46+00:00</time>
        <ele>1904.0</ele>
      </trkpt>
      <trkpt lat="44.7828636970371" lon="6.465407498180866">
        <time>2022-01-25T13:06:48+00:00</time>
        <ele>1901.0</ele>
      </trkpt>
      <trkpt lat="44.78286855854094" lon="6.465468015521765">
        <time>2022-01-25T13:06:49+00:00</time>
        <ele>1902.0</ele>
      </trkpt>
      <trkpt lat="44.78286763653159" lon="6.465523084625602">
        <time>2022-01-25T13:06:50+00:00</time>
        <ele>1903.0</ele>
      </trkpt>
      <trkpt lat="44.78287719190121" lon="6.465556276962161">
        <time>2022-01-25T13:06:52+00:00</time>
        <ele>1902.0</ele>
      </trkpt>
      <trkpt lat="44.78288523852825" lon="6.4655564446002245">
        <time>2022-01-25T13:06:54+00:00</time>
        <ele>1902.0</ele>
      </trkpt>
      <trkpt lat="44.78290225379169" lon="6.465552086010575">
        <time>2022-01-25T13:06:56+00:00</time>
        <ele>1900.0</ele>
      </trkpt>
      <trkpt lat="44.78289043530822" lon="6.465574549511075">
        <time>2022-01-25T13:06:58+00:00</time>
        <ele>1902.0</ele>
      </trkpt>
      <trkpt lat="44.78292128071189" lon="6.465623332187533">
        <time>2022-01-25T13:07:03+00:00</time>
        <ele>1900.0</ele>
      </trkpt>
      <trkpt lat="44.782923543825746" lon="6.465624840930104">
        <time>2022-01-25T13:07:04+00:00</time>
        <ele>1899.0</ele>
      </trkpt>
      <trkpt lat="44.78292228654027" lon="6.465627020224929">
        <time>2022-01-25T13:07:05+00:00</time>
        <ele>1899.0</ele>
      </trkpt>
      <trkpt lat="44.78292807005346" lon="6.465633474290371">
        <time>2022-01-25T13:07:07+00:00</time>
        <ele>1899.0</ele>
      </trkpt>
      <trkpt lat="44.78294625878334" lon="6.465636910870671">
        <time>2022-01-25T13:07:09+00:00</time>
        <ele>1898.0</ele>
      </trkpt>
      <trkpt lat="44.78295841254294" lon="6.465644873678684">
        <time>2022-01-25T13:07:10+00:00</time>
        <ele>1897.0</ele>
      </trkpt>
      <trkpt lat="44.78296235203743" lon="6.4656574465334415">
        <time>2022-01-25T13:07:11+00:00</time>
        <ele>1897.0</ele>
      </trkpt>
      <trkpt lat="44.782975260168314" lon="6.4656654093414545">
        <time>2022-01-25T13:07:13+00:00</time>
        <ele>1896.0</ele>
      </trkpt>
      <trkpt lat="44.78298305533826" lon="6.465684100985527">
        <time>2022-01-25T13:07:14+00:00</time>
        <ele>1895.0</ele>
      </trkpt>
      <trkpt lat="44.78299210779369" lon="6.465712180361152">
        <time>2022-01-25T13:07:15+00:00</time>
        <ele>1895.0</ele>
      </trkpt>
      <trkpt lat="44.78300292044878" lon="6.465734895318747">
        <time>2022-01-25T13:07:16+00:00</time>
        <ele>1894.0</ele>
      </trkpt>
      <trkpt lat="44.78301281109452" lon="6.465749982744455">
        <time>2022-01-25T13:07:17+00:00</time>
        <ele>1894.0</ele>
      </trkpt>
      <trkpt lat="44.78301323018968" lon="6.465760795399547">
        <time>2022-01-25T13:07:20+00:00</time>
        <ele>1894.0</ele>
      </trkpt>
      <trkpt lat="44.783012978732586" lon="6.465759621933103">
        <time>2022-01-25T13:07:21+00:00</time>
        <ele>1894.0</ele>
      </trkpt>
      <trkpt lat="44.78301105089486" lon="6.465756939724088">
        <time>2022-01-25T13:07:29+00:00</time>
        <ele>1894.0</ele>
      </trkpt>
      <trkpt lat="44.78300862014294" lon="6.465765070170164">
        <time>2022-01-25T13:07:30+00:00</time>
        <ele>1894.0</ele>
      </trkpt>
      <trkpt lat="44.78301029652357" lon="6.465765070170164">
        <time>2022-01-25T13:07:44+00:00</time>
        <ele>1894.0</ele>
      </trkpt>
      <trkpt lat="44.783027060329914" lon="6.465783007442951">
        <time>2022-01-25T13:07:56+00:00</time>
        <ele>1893.0</ele>
      </trkpt>
      <trkpt lat="44.7830521222204" lon="6.465799771249294">
        <time>2022-01-25T13:07:58+00:00</time>
        <ele>1891.0</ele>
      </trkpt>
      <trkpt lat="44.78307123295963" lon="6.465829024091363">
        <time>2022-01-25T13:08:00+00:00</time>
        <ele>1890.0</ele>
      </trkpt>
      <trkpt lat="44.783079866319895" lon="6.465873867273331">
        <time>2022-01-25T13:08:02+00:00</time>
        <ele>1889.0</ele>
      </trkpt>
      <trkpt lat="44.78308447636664" lon="6.46590119227767">
        <time>2022-01-25T13:08:04+00:00</time>
        <ele>1889.0</ele>
      </trkpt>
      <trkpt lat="44.78308900259435" lon="6.46590705960989">
        <time>2022-01-25T13:08:06+00:00</time>
        <ele>1889.0</ele>
      </trkpt>
      <trkpt lat="44.78309637866914" lon="6.465910328552127">
        <time>2022-01-25T13:08:08+00:00</time>
        <ele>1888.0</ele>
      </trkpt>
      <trkpt lat="44.78311431594193" lon="6.465903203934431">
        <time>2022-01-25T13:08:11+00:00</time>
        <ele>1886.0</ele>
      </trkpt>
      <trkpt lat="44.7831174172461" lon="6.4659275114536285">
        <time>2022-01-25T13:08:14+00:00</time>
        <ele>1886.0</ele>
      </trkpt>
      <trkpt lat="44.78311758488417" lon="6.465939162299037">
        <time>2022-01-25T13:08:15+00:00</time>
        <ele>1886.0</ele>
      </trkpt>
      <trkpt lat="44.7831211052835" lon="6.465952405706048">
        <time>2022-01-25T13:08:16+00:00</time>
        <ele>1886.0</ele>
      </trkpt>
      <trkpt lat="44.78313518688083" lon="6.4659767132252455">
        <time>2022-01-25T13:08:18+00:00</time>
        <ele>1884.0</ele>
      </trkpt>
      <trkpt lat="44.78313585743308" lon="6.466009318828583">
        <time>2022-01-25T13:08:20+00:00</time>
        <ele>1884.0</ele>
      </trkpt>
      <trkpt lat="44.783150190487504" lon="6.466040080413222">
        <time>2022-01-25T13:08:22+00:00</time>
        <ele>1883.0</ele>
      </trkpt>
      <trkpt lat="44.7831660322845" lon="6.4661257434636354">
        <time>2022-01-25T13:08:24+00:00</time>
        <ele>1883.0</ele>
      </trkpt>
      <trkpt lat="44.78317148052156" lon="6.466148793697357">
        <time>2022-01-25T13:08:25+00:00</time>
        <ele>1883.0</ele>
      </trkpt>
      <trkpt lat="44.783176593482494" lon="6.46615038625896">
        <time>2022-01-25T13:08:26+00:00</time>
        <ele>1882.0</ele>
      </trkpt>
      <trkpt lat="44.78317676112056" lon="6.466146279126406">
        <time>2022-01-25T13:08:27+00:00</time>
        <ele>1882.0</ele>
      </trkpt>
      <trkpt lat="44.78317592293024" lon="6.4661389868706465">
        <time>2022-01-25T13:08:29+00:00</time>
        <ele>1882.0</ele>
      </trkpt>
      <trkpt lat="44.7832056786865" lon="6.4661396574229">
        <time>2022-01-25T13:08:32+00:00</time>
        <ele>1879.0</ele>
      </trkpt>
      <trkpt lat="44.7832141444087" lon="6.466136304661632">
        <time>2022-01-25T13:08:33+00:00</time>
        <ele>1878.0</ele>
      </trkpt>
      <trkpt lat="44.783242056146264" lon="6.466135382652283">
        <time>2022-01-25T13:08:35+00:00</time>
        <ele>1874.0</ele>
      </trkpt>
      <trkpt lat="44.7832556348294" lon="6.466154241934419">
        <time>2022-01-25T13:08:36+00:00</time>
        <ele>1873.0</ele>
      </trkpt>
      <trkpt lat="44.78327524848282" lon="6.466184500604868">
        <time>2022-01-25T13:08:37+00:00</time>
        <ele>1871.0</ele>
      </trkpt>
      <trkpt lat="44.78328354656696" lon="6.466205958276987">
        <time>2022-01-25T13:08:39+00:00</time>
        <ele>1870.0</ele>
      </trkpt>
      <trkpt lat="44.783289078623056" lon="6.466202521696687">
        <time>2022-01-25T13:08:41+00:00</time>
        <ele>1869.0</ele>
      </trkpt>
      <trkpt lat="44.7832868155092" lon="6.46622272208333">
        <time>2022-01-25T13:08:45+00:00</time>
        <ele>1870.0</ele>
      </trkpt>
      <trkpt lat="44.783307099714875" lon="6.466235043480992">
        <time>2022-01-25T13:08:49+00:00</time>
        <ele>1867.0</ele>
      </trkpt>
      <trkpt lat="44.78331715799868" lon="6.466229259967804">
        <time>2022-01-25T13:08:51+00:00</time>
        <ele>1866.0</ele>
      </trkpt>
      <trkpt lat="44.78334942832589" lon="6.466227835044265">
        <time>2022-01-25T13:08:54+00:00</time>
        <ele>1863.0</ele>
      </trkpt>
      <trkpt lat="44.78335571475327" lon="6.466242587193847">
        <time>2022-01-25T13:08:55+00:00</time>
        <ele>1863.0</ele>
      </trkpt>
      <trkpt lat="44.783363258466125" lon="6.466243928298354">
        <time>2022-01-25T13:08:57+00:00</time>
        <ele>1862.0</ele>
      </trkpt>
      <trkpt lat="44.78337876498699" lon="6.4662502985447645">
        <time>2022-01-25T13:09:00+00:00</time>
        <ele>1861.0</ele>
      </trkpt>
      <trkpt lat="44.78337876498699" lon="6.466256752610207">
        <time>2022-01-25T13:09:01+00:00</time>
        <ele>1861.0</ele>
      </trkpt>
      <trkpt lat="44.78338496759534" lon="6.466258596628904">
        <time>2022-01-25T13:09:03+00:00</time>
        <ele>1860.0</ele>
      </trkpt>
      <trkpt lat="44.783388739451766" lon="6.4662611950188875">
        <time>2022-01-25T13:09:05+00:00</time>
        <ele>1860.0</ele>
      </trkpt>
      <trkpt lat="44.78338588960469" lon="6.466262536123395">
        <time>2022-01-25T13:09:06+00:00</time>
        <ele>1860.0</ele>
      </trkpt>
      <trkpt lat="44.78343207389116" lon="6.466244095936418">
        <time>2022-01-25T13:09:12+00:00</time>
        <ele>1856.0</ele>
      </trkpt>
      <trkpt lat="44.783454621210694" lon="6.466245269402862">
        <time>2022-01-25T13:09:14+00:00</time>
        <ele>1854.0</ele>
      </trkpt>
      <trkpt lat="44.7834733966738" lon="6.4662417490035295">
        <time>2022-01-25T13:09:16+00:00</time>
        <ele>1852.0</ele>
      </trkpt>
      <trkpt lat="44.78348806500435" lon="6.466249879449606">
        <time>2022-01-25T13:09:17+00:00</time>
        <ele>1851.0</ele>
      </trkpt>
      <trkpt lat="44.7835080139339" lon="6.466287933290005">
        <time>2022-01-25T13:09:19+00:00</time>
        <ele>1850.0</ele>
      </trkpt>
      <trkpt lat="44.78349996730685" lon="6.466329926624894">
        <time>2022-01-25T13:09:21+00:00</time>
        <ele>1852.0</ele>
      </trkpt>
      <trkpt lat="44.783497704192996" lon="6.466347696259618">
        <time>2022-01-25T13:09:22+00:00</time>
        <ele>1852.0</ele>
      </trkpt>
      <trkpt lat="44.78349351324141" lon="6.466369740664959">
        <time>2022-01-25T13:09:23+00:00</time>
        <ele>1853.0</ele>
      </trkpt>
      <trkpt lat="44.78348412550986" lon="6.466397400945425">
        <time>2022-01-25T13:09:24+00:00</time>
        <ele>1855.0</ele>
      </trkpt>
      <trkpt lat="44.783476665616035" lon="6.466416092589498">
        <time>2022-01-25T13:09:25+00:00</time>
        <ele>1856.0</ele>
      </trkpt>
      <trkpt lat="44.783471720293164" lon="6.4664246421307325">
        <time>2022-01-25T13:09:26+00:00</time>
        <ele>1857.0</ele>
      </trkpt>
      <trkpt lat="44.78347146883607" lon="6.466451631858945">
        <time>2022-01-25T13:09:29+00:00</time>
        <ele>1858.0</ele>
      </trkpt>
      <trkpt lat="44.7835061699152" lon="6.466493960469961">
        <time>2022-01-25T13:09:33+00:00</time>
        <ele>1855.0</ele>
      </trkpt>
      <trkpt lat="44.783541122451425" lon="6.466506198048592">
        <time>2022-01-25T13:09:38+00:00</time>
        <ele>1852.0</ele>
      </trkpt>
      <trkpt lat="44.78355059400201" lon="6.466503264382482">
        <time>2022-01-25T13:09:42+00:00</time>
        <ele>1851.0</ele>
      </trkpt>
      <trkpt lat="44.7835545334965" lon="6.466508964076638">
        <time>2022-01-25T13:09:44+00:00</time>
        <ele>1850.0</ele>
      </trkpt>
      <trkpt lat="44.783561155200005" lon="6.4665047731250525">
        <time>2022-01-25T13:09:45+00:00</time>
        <ele>1850.0</ele>
      </trkpt>
      <trkpt lat="44.78356517851353" lon="6.466501755639911">
        <time>2022-01-25T13:09:46+00:00</time>
        <ele>1849.0</ele>
      </trkpt>
      <trkpt lat="44.783590994775295" lon="6.466506952419877">
        <time>2022-01-25T13:09:53+00:00</time>
        <ele>1846.0</ele>
      </trkpt>
      <trkpt lat="44.78358982130885" lon="6.466521453112364">
        <time>2022-01-25T13:09:56+00:00</time>
        <ele>1847.0</ele>
      </trkpt>
      <trkpt lat="44.78363189846277" lon="6.4665232971310616">
        <time>2022-01-25T13:09:59+00:00</time>
        <ele>1842.0</ele>
      </trkpt>
      <trkpt lat="44.783626701682806" lon="6.466526733711362">
        <time>2022-01-25T13:10:01+00:00</time>
        <ele>1843.0</ele>
      </trkpt>
      <trkpt lat="44.783623768016696" lon="6.4665271528065205">
        <time>2022-01-25T13:10:02+00:00</time>
        <ele>1843.0</ele>
      </trkpt>
      <trkpt lat="44.78361999616027" lon="6.46652078256011">
        <time>2022-01-25T13:10:10+00:00</time>
        <ele>1844.0</ele>
      </trkpt>
      <trkpt lat="44.78361999616027" lon="6.46652078256011">
        <time>2022-01-25T13:10:13+00:00</time>
        <ele>1844.0</ele>
      </trkpt>
      <trkpt lat="44.78359962813556" lon="6.466546766459942">
        <time>2022-01-25T13:10:25+00:00</time>
        <ele>1846.0</ele>
      </trkpt>
      <trkpt lat="44.78358881548047" lon="6.466558836400509">
        <time>2022-01-25T13:10:26+00:00</time>
        <ele>1848.0</ele>
      </trkpt>
      <trkpt lat="44.78358009830117" lon="6.4665645360946655">
        <time>2022-01-25T13:10:27+00:00</time>
        <ele>1849.0</ele>
      </trkpt>
      <trkpt lat="44.783555790781975" lon="6.466607619076967">
        <time>2022-01-25T13:10:33+00:00</time>
        <ele>1853.0</ele>
      </trkpt>
      <trkpt lat="44.78353257291019" lon="6.466627819463611">
        <time>2022-01-25T13:10:40+00:00</time>
        <ele>1857.0</ele>
      </trkpt>
      <trkpt lat="44.7835439722985" lon="6.466640392318368">
        <time>2022-01-25T13:10:47+00:00</time>
        <ele>1856.0</ele>
      </trkpt>
      <trkpt lat="44.7835439722985" lon="6.466640392318368">
        <time>2022-01-25T13:10:49+00:00</time>
        <ele>1856.0</ele>
      </trkpt>
      <trkpt lat="44.7835439722985" lon="6.466640392318368">
        <time>2022-01-25T13:10:53+00:00</time>
        <ele>1856.0</ele>
      </trkpt>
      <trkpt lat="44.7835439722985" lon="6.466640392318368">
        <time>2022-01-25T13:10:54+00:00</time>
        <ele>1856.0</ele>
      </trkpt>
      <trkpt lat="44.7835439722985" lon="6.466640392318368">
        <time>2022-01-25T13:10:59+00:00</time>
        <ele>1856.0</ele>
      </trkpt>
      <trkpt lat="44.78355252183974" lon="6.466647097840905">
        <time>2022-01-25T13:11:08+00:00</time>
        <ele>1855.0</ele>
      </trkpt>
      <trkpt lat="44.78355646133423" lon="6.4666476007550955">
        <time>2022-01-25T13:11:09+00:00</time>
        <ele>1855.0</ele>
      </trkpt>
      <trkpt lat="44.78357054293156" lon="6.466665454208851">
        <time>2022-01-25T13:11:18+00:00</time>
        <ele>1854.0</ele>
      </trkpt>
      <trkpt lat="44.78357230313122" lon="6.466674925759435">
        <time>2022-01-25T13:11:26+00:00</time>
        <ele>1854.0</ele>
      </trkpt>
      <trkpt lat="44.78359367698431" lon="6.4666773565113544">
        <time>2022-01-25T13:11:34+00:00</time>
        <ele>1851.0</ele>
      </trkpt>
      <trkpt lat="44.78359082713723" lon="6.466678027063608">
        <time>2022-01-25T13:11:39+00:00</time>
        <ele>1852.0</ele>
      </trkpt>
      <trkpt lat="44.783596778288484" lon="6.466670231893659">
        <time>2022-01-25T13:11:41+00:00</time>
        <ele>1851.0</ele>
      </trkpt>
      <trkpt lat="44.78359619155526" lon="6.4666584972292185">
        <time>2022-01-25T13:11:44+00:00</time>
        <ele>1851.0</ele>
      </trkpt>
      <trkpt lat="44.78358630090952" lon="6.46666394546628">
        <time>2022-01-25T13:11:51+00:00</time>
        <ele>1852.0</ele>
      </trkpt>
      <trkpt lat="44.78358504362404" lon="6.466655898839235">
        <time>2022-01-25T13:11:55+00:00</time>
        <ele>1852.0</ele>
      </trkpt>
      <trkpt lat="44.78360641747713" lon="6.466618180274963">
        <time>2022-01-25T13:11:57+00:00</time>
        <ele>1848.0</ele>
      </trkpt>
      <trkpt lat="44.783614883199334" lon="6.466600997373462">
        <time>2022-01-25T13:11:58+00:00</time>
        <ele>1846.0</ele>
      </trkpt>
      <trkpt lat="44.78361270390451" lon="6.466605858877301">
        <time>2022-01-25T13:11:59+00:00</time>
        <ele>1847.0</ele>
      </trkpt>
      <trkpt lat="44.78360926732421" lon="6.466607199981809">
        <time>2022-01-25T13:12:03+00:00</time>
        <ele>1847.0</ele>
      </trkpt>
      <trkpt lat="44.78362753987312" lon="6.466604098677635">
        <time>2022-01-25T13:12:05+00:00</time>
        <ele>1845.0</ele>
      </trkpt>
      <trkpt lat="44.783640867099166" lon="6.466603595763445">
        <time>2022-01-25T13:12:07+00:00</time>
        <ele>1844.0</ele>
      </trkpt>
      <trkpt lat="44.783655451610684" lon="6.466614492237568">
        <time>2022-01-25T13:12:09+00:00</time>
        <ele>1842.0</ele>
      </trkpt>
      <trkpt lat="44.78366123512387" lon="6.466617006808519">
        <time>2022-01-25T13:12:10+00:00</time>
        <ele>1842.0</ele>
      </trkpt>
      <trkpt lat="44.78366257622838" lon="6.466623293235898">
        <time>2022-01-25T13:12:13+00:00</time>
        <ele>1842.0</ele>
      </trkpt>
      <trkpt lat="44.78366266004741" lon="6.466620694845915">
        <time>2022-01-25T13:12:14+00:00</time>
        <ele>1842.0</ele>
      </trkpt>
      <trkpt lat="44.78366760537028" lon="6.466611055657268">
        <time>2022-01-25T13:12:15+00:00</time>
        <ele>1841.0</ele>
      </trkpt>
      <trkpt lat="44.783685794100165" lon="6.4665937051177025">
        <time>2022-01-25T13:12:21+00:00</time>
        <ele>1838.0</ele>
      </trkpt>
      <trkpt lat="44.78369107469916" lon="6.466587670147419">
        <time>2022-01-25T13:12:23+00:00</time>
        <ele>1837.0</ele>
      </trkpt>
      <trkpt lat="44.783706329762936" lon="6.466583563014865">
        <time>2022-01-25T13:12:28+00:00</time>
        <ele>1835.0</ele>
      </trkpt>
      <trkpt lat="44.783710185438395" lon="6.466573923826218">
        <time>2022-01-25T13:12:30+00:00</time>
        <ele>1835.0</ele>
      </trkpt>
      <trkpt lat="44.783710185438395" lon="6.466573923826218">
        <time>2022-01-25T13:12:35+00:00</time>
        <ele>1835.0</ele>
      </trkpt>
      <trkpt lat="44.783710185438395" lon="6.466573923826218">
        <time>2022-01-25T13:12:37+00:00</time>
        <ele>1835.0</ele>
      </trkpt>
      <trkpt lat="44.783710185438395" lon="6.466573923826218">
        <time>2022-01-25T13:12:39+00:00</time>
        <ele>1835.0</ele>
      </trkpt>
      <trkpt lat="44.78372066281736" lon="6.466568056493998">
        <time>2022-01-25T13:12:51+00:00</time>
        <ele>1833.0</ele>
      </trkpt>
      <trkpt lat="44.78372074663639" lon="6.466560596600175">
        <time>2022-01-25T13:12:53+00:00</time>
        <ele>1833.0</ele>
      </trkpt>
      <trkpt lat="44.78372074663639" lon="6.466551711782813">
        <time>2022-01-25T13:12:59+00:00</time>
        <ele>1833.0</ele>
      </trkpt>
      <trkpt lat="44.783711778" lon="6.466560596600175">
        <time>2022-01-25T13:13:13+00:00</time>
        <ele>1834.0</ele>
      </trkpt>
      <trkpt lat="44.78370884433389" lon="6.466557830572128">
        <time>2022-01-25T13:13:18+00:00</time>
        <ele>1834.0</ele>
      </trkpt>
      <trkpt lat="44.783707754686475" lon="6.466563614085317">
        <time>2022-01-25T13:13:24+00:00</time>
        <ele>1835.0</ele>
      </trkpt>
      <trkpt lat="44.783708257600665" lon="6.466569397598505">
        <time>2022-01-25T13:13:30+00:00</time>
        <ele>1835.0</ele>
      </trkpt>
      <trkpt lat="44.78372074663639" lon="6.466553388163447">
        <time>2022-01-25T13:13:34+00:00</time>
        <ele>1833.0</ele>
      </trkpt>
      <trkpt lat="44.78371881879866" lon="6.466556992381811">
        <time>2022-01-25T13:13:35+00:00</time>
        <ele>1833.0</ele>
      </trkpt>
      <trkpt lat="44.78370356373489" lon="6.466579791158438">
        <time>2022-01-25T13:13:44+00:00</time>
        <ele>1836.0</ele>
      </trkpt>
      <trkpt lat="44.78371303528547" lon="6.466552885249257">
        <time>2022-01-25T13:13:56+00:00</time>
        <ele>1834.0</ele>
      </trkpt>
      <trkpt lat="44.7837548609823" lon="6.466531679034233">
        <time>2022-01-25T13:14:01+00:00</time>
        <ele>1828.0</ele>
      </trkpt>
      <trkpt lat="44.78374865837395" lon="6.4665386360138655">
        <time>2022-01-25T13:14:06+00:00</time>
        <ele>1829.0</ele>
      </trkpt>
      <trkpt lat="44.78371546603739" lon="6.466555902734399">
        <time>2022-01-25T13:14:11+00:00</time>
        <ele>1833.0</ele>
      </trkpt>
      <trkpt lat="44.78370850905776" lon="6.466559758409858">
        <time>2022-01-25T13:14:14+00:00</time>
        <ele>1834.0</ele>
      </trkpt>
      <trkpt lat="44.78369367308915" lon="6.4665766060352325">
        <time>2022-01-25T13:14:20+00:00</time>
        <ele>1837.0</ele>
      </trkpt>
      <trkpt lat="44.783692080527544" lon="6.466586999595165">
        <time>2022-01-25T13:14:23+00:00</time>
        <ele>1837.0</ele>
      </trkpt>
      <trkpt lat="44.783692080527544" lon="6.466586999595165">
        <time>2022-01-25T13:14:27+00:00</time>
        <ele>1837.0</ele>
      </trkpt>
      <trkpt lat="44.78369384072721" lon="6.466586999595165">
        <time>2022-01-25T13:14:33+00:00</time>
        <ele>1837.0</ele>
      </trkpt>
      <trkpt lat="44.783697947859764" lon="6.466627735644579">
        <time>2022-01-25T13:14:45+00:00</time>
        <ele>1838.0</ele>
      </trkpt>
      <trkpt lat="44.783629551529884" lon="6.466626143082976">
        <time>2022-01-25T13:15:13+00:00</time>
        <ele>1846.0</ele>
      </trkpt>
      <trkpt lat="44.783617313951254" lon="6.466624466702342">
        <time>2022-01-25T13:15:25+00:00</time>
        <ele>1847.0</ele>
      </trkpt>
      <trkpt lat="44.783617313951254" lon="6.466622119769454">
        <time>2022-01-25T13:15:31+00:00</time>
        <ele>1847.0</ele>
      </trkpt>
      <trkpt lat="44.783615972846746" lon="6.466604266315699">
        <time>2022-01-25T13:15:42+00:00</time>
        <ele>1846.0</ele>
      </trkpt>
      <trkpt lat="44.7836150508374" lon="6.4665978122502565">
        <time>2022-01-25T13:15:47+00:00</time>
        <ele>1846.0</ele>
      </trkpt>
      <trkpt lat="44.7836150508374" lon="6.4665937051177025">
        <time>2022-01-25T13:15:50+00:00</time>
        <ele>1846.0</ele>
      </trkpt>
      <trkpt lat="44.78362142108381" lon="6.466577276587486">
        <time>2022-01-25T13:16:01+00:00</time>
        <ele>1845.0</ele>
      </trkpt>
      <trkpt lat="44.783625695854425" lon="6.466567888855934">
        <time>2022-01-25T13:16:04+00:00</time>
        <ele>1844.0</ele>
      </trkpt>
      <trkpt lat="44.7836269531399" lon="6.466561099514365">
        <time>2022-01-25T13:16:05+00:00</time>
        <ele>1844.0</ele>
      </trkpt>
      <trkpt lat="44.78363122791052" lon="6.4665530528873205">
        <time>2022-01-25T13:16:07+00:00</time>
        <ele>1843.0</ele>
      </trkpt>
      <trkpt lat="44.78364220820367" lon="6.466554142534733">
        <time>2022-01-25T13:16:12+00:00</time>
        <ele>1842.0</ele>
      </trkpt>
      <trkpt lat="44.78364530950785" lon="6.466553388163447">
        <time>2022-01-25T13:16:15+00:00</time>
        <ele>1841.0</ele>
      </trkpt>
      <trkpt lat="44.7837186511606" lon="6.466518687084317">
        <time>2022-01-25T13:16:58+00:00</time>
        <ele>1832.0</ele>
      </trkpt>
      <trkpt lat="44.78374890983105" lon="6.46649488247931">
        <time>2022-01-25T13:17:20+00:00</time>
        <ele>1828.0</ele>
      </trkpt>
      <trkpt lat="44.783751424402" lon="6.466499324887991">
        <time>2022-01-25T13:18:19+00:00</time>
        <ele>1828.0</ele>
      </trkpt>
      <trkpt lat="44.78376114740968" lon="6.46647141315043">
        <time>2022-01-25T13:18:30+00:00</time>
        <ele>1826.0</ele>
      </trkpt>
      <trkpt lat="44.78374505415559" lon="6.466477531939745">
        <time>2022-01-25T13:18:35+00:00</time>
        <ele>1828.0</ele>
      </trkpt>
      <trkpt lat="44.783837674185634" lon="6.466452889144421">
        <time>2022-01-25T13:18:38+00:00</time>
        <ele>1817.0</ele>
      </trkpt>
      <trkpt lat="44.78385427035391" lon="6.466443669050932">
        <time>2022-01-25T13:18:39+00:00</time>
        <ele>1815.0</ele>
      </trkpt>
      <trkpt lat="44.783855862915516" lon="6.466443333774805">
        <time>2022-01-25T13:18:40+00:00</time>
        <ele>1815.0</ele>
      </trkpt>
      <trkpt lat="44.783855360001326" lon="6.466438807547092">
        <time>2022-01-25T13:18:41+00:00</time>
        <ele>1815.0</ele>
      </trkpt>
      <trkpt lat="44.78383708745241" lon="6.466431012377143">
        <time>2022-01-25T13:18:46+00:00</time>
        <ele>1817.0</ele>
      </trkpt>
      <trkpt lat="44.78382124565542" lon="6.46643964573741">
        <time>2022-01-25T13:18:48+00:00</time>
        <ele>1819.0</ele>
      </trkpt>
      <trkpt lat="44.783800542354584" lon="6.466428749263287">
        <time>2022-01-25T13:18:53+00:00</time>
        <ele>1821.0</ele>
      </trkpt>
      <trkpt lat="44.78379660286009" lon="6.466389773413539">
        <time>2022-01-25T13:18:57+00:00</time>
        <ele>1821.0</ele>
      </trkpt>
      <trkpt lat="44.78378654457629" lon="6.466390276327729">
        <time>2022-01-25T13:18:58+00:00</time>
        <ele>1822.0</ele>
      </trkpt>
      <trkpt lat="44.78380423039198" lon="6.466396059840918">
        <time>2022-01-25T13:19:02+00:00</time>
        <ele>1820.0</ele>
      </trkpt>
      <trkpt lat="44.783807918429375" lon="6.466399664059281">
        <time>2022-01-25T13:19:03+00:00</time>
        <ele>1820.0</ele>
      </trkpt>
      <trkpt lat="44.78380473330617" lon="6.466395976021886">
        <time>2022-01-25T13:19:06+00:00</time>
        <ele>1820.0</ele>
      </trkpt>
      <trkpt lat="44.783790316432714" lon="6.4663828164339066">
        <time>2022-01-25T13:19:08+00:00</time>
        <ele>1822.0</ele>
      </trkpt>
      <trkpt lat="44.78380766697228" lon="6.466358341276646">
        <time>2022-01-25T13:19:10+00:00</time>
        <ele>1819.0</ele>
      </trkpt>
      <trkpt lat="44.78381152264774" lon="6.466351132839918">
        <time>2022-01-25T13:19:11+00:00</time>
        <ele>1819.0</ele>
      </trkpt>
      <trkpt lat="44.78380515240133" lon="6.466340236365795">
        <time>2022-01-25T13:19:15+00:00</time>
        <ele>1820.0</ele>
      </trkpt>
      <trkpt lat="44.78381604887545" lon="6.466329088434577">
        <time>2022-01-25T13:19:18+00:00</time>
        <ele>1818.0</ele>
      </trkpt>
      <trkpt lat="44.783814288675785" lon="6.466330345720053">
        <time>2022-01-25T13:19:19+00:00</time>
        <ele>1818.0</ele>
      </trkpt>
      <trkpt lat="44.78382032364607" lon="6.466343756765127">
        <time>2022-01-25T13:19:26+00:00</time>
        <ele>1818.0</ele>
      </trkpt>
      <trkpt lat="44.78381160646677" lon="6.466336799785495">
        <time>2022-01-25T13:19:31+00:00</time>
        <ele>1819.0</ele>
      </trkpt>
      <trkpt lat="44.783810433000326" lon="6.466336967423558">
        <time>2022-01-25T13:19:38+00:00</time>
        <ele>1819.0</ele>
      </trkpt>
      <trkpt lat="44.78383616544306" lon="6.466391198337078">
        <time>2022-01-25T13:19:41+00:00</time>
        <ele>1817.0</ele>
      </trkpt>
      <trkpt lat="44.78381973691285" lon="6.466450206935406">
        <time>2022-01-25T13:19:44+00:00</time>
        <ele>1819.0</ele>
      </trkpt>
      <trkpt lat="44.78381219319999" lon="6.466470742598176">
        <time>2022-01-25T13:19:46+00:00</time>
        <ele>1820.0</ele>
      </trkpt>
      <trkpt lat="44.783800626173615" lon="6.466512065380812">
        <time>2022-01-25T13:19:49+00:00</time>
        <ele>1822.0</ele>
      </trkpt>
      <trkpt lat="44.78380381129682" lon="6.466519273817539">
        <time>2022-01-25T13:19:50+00:00</time>
        <ele>1822.0</ele>
      </trkpt>
      <trkpt lat="44.783805990591645" lon="6.466530840843916">
        <time>2022-01-25T13:19:51+00:00</time>
        <ele>1822.0</ele>
      </trkpt>
      <trkpt lat="44.7837860416621" lon="6.466601584106684">
        <time>2022-01-25T13:19:54+00:00</time>
        <ele>1826.0</ele>
      </trkpt>
      <trkpt lat="44.783789813518524" lon="6.466618264093995">
        <time>2022-01-25T13:19:55+00:00</time>
        <ele>1826.0</ele>
      </trkpt>
      <trkpt lat="44.7838029731065" lon="6.466647181659937">
        <time>2022-01-25T13:19:57+00:00</time>
        <ele>1825.0</ele>
      </trkpt>
      <trkpt lat="44.783832309767604" lon="6.466645589098334">
        <time>2022-01-25T13:20:00+00:00</time>
        <ele>1821.0</ele>
      </trkpt>
      <trkpt lat="44.7838204074651" lon="6.466671321541071">
        <time>2022-01-25T13:20:01+00:00</time>
        <ele>1823.0</ele>
      </trkpt>
      <trkpt lat="44.78381370194256" lon="6.466683056205511">
        <time>2022-01-25T13:20:02+00:00</time>
        <ele>1824.0</ele>
      </trkpt>
      <trkpt lat="44.78379752486944" lon="6.4667176734656096">
        <time>2022-01-25T13:20:04+00:00</time>
        <ele>1827.0</ele>
      </trkpt>
      <trkpt lat="44.78379660286009" lon="6.466725720092654">
        <time>2022-01-25T13:20:05+00:00</time>
        <ele>1827.0</ele>
      </trkpt>
      <trkpt lat="44.78382560424507" lon="6.466705687344074">
        <time>2022-01-25T13:20:08+00:00</time>
        <ele>1823.0</ele>
      </trkpt>
      <trkpt lat="44.783880757167935" lon="6.466667465865612">
        <time>2022-01-25T13:20:13+00:00</time>
        <ele>1815.0</ele>
      </trkpt>
      <trkpt lat="44.783880254253745" lon="6.466671489179134">
        <time>2022-01-25T13:20:22+00:00</time>
        <ele>1815.0</ele>
      </trkpt>
      <trkpt lat="44.78386592119932" lon="6.4666820503771305">
        <time>2022-01-25T13:20:27+00:00</time>
        <ele>1817.0</ele>
      </trkpt>
      <trkpt lat="44.78386592119932" lon="6.4666820503771305">
        <time>2022-01-25T13:20:35+00:00</time>
        <ele>1817.0</ele>
      </trkpt>
      <trkpt lat="44.783879751339555" lon="6.466678446158767">
        <time>2022-01-25T13:20:55+00:00</time>
        <ele>1815.0</ele>
      </trkpt>
      <trkpt lat="44.78387966752052" lon="6.466678446158767">
        <time>2022-01-25T13:20:58+00:00</time>
        <ele>1815.0</ele>
      </trkpt>
      <trkpt lat="44.78388503193855" lon="6.466692863032222">
        <time>2022-01-25T13:21:22+00:00</time>
        <ele>1815.0</ele>
      </trkpt>
      <trkpt lat="44.78388888761401" lon="6.4666900131851435">
        <time>2022-01-25T13:21:28+00:00</time>
        <ele>1814.0</ele>
      </trkpt>
      <trkpt lat="44.783890061080456" lon="6.466684062033892">
        <time>2022-01-25T13:21:35+00:00</time>
        <ele>1814.0</ele>
      </trkpt>
      <trkpt lat="44.78388989344239" lon="6.466679871082306">
        <time>2022-01-25T13:21:49+00:00</time>
        <ele>1814.0</ele>
      </trkpt>
      <trkpt lat="44.78388922289014" lon="6.466678027063608">
        <time>2022-01-25T13:21:52+00:00</time>
        <ele>1814.0</ele>
      </trkpt>
      <trkpt lat="44.78387841023505" lon="6.466657156124711">
        <time>2022-01-25T13:22:40+00:00</time>
        <ele>1815.0</ele>
      </trkpt>
      <trkpt lat="44.783891066908836" lon="6.466659251600504">
        <time>2022-01-25T13:22:54+00:00</time>
        <ele>1813.0</ele>
      </trkpt>
      <trkpt lat="44.78389115072787" lon="6.466664029285312">
        <time>2022-01-25T13:22:58+00:00</time>
        <ele>1814.0</ele>
      </trkpt>
      <trkpt lat="44.78388302028179" lon="6.4666740875691175">
        <time>2022-01-25T13:23:04+00:00</time>
        <ele>1815.0</ele>
      </trkpt>
      <trkpt lat="44.783879332244396" lon="6.466677188873291">
        <time>2022-01-25T13:23:07+00:00</time>
        <ele>1815.0</ele>
      </trkpt>
      <trkpt lat="44.78386550210416" lon="6.466688672080636">
        <time>2022-01-25T13:23:17+00:00</time>
        <ele>1817.0</ele>
      </trkpt>
      <trkpt lat="44.783855276182294" lon="6.4666958805173635">
        <time>2022-01-25T13:23:28+00:00</time>
        <ele>1819.0</ele>
      </trkpt>
      <trkpt lat="44.78384890593588" lon="6.466701999306679">
        <time>2022-01-25T13:23:34+00:00</time>
        <ele>1820.0</ele>
      </trkpt>
      <trkpt lat="44.78384639136493" lon="6.466707363724709">
        <time>2022-01-25T13:23:39+00:00</time>
        <ele>1820.0</ele>
      </trkpt>
      <trkpt lat="44.783845134079456" lon="6.466713482514024">
        <time>2022-01-25T13:24:02+00:00</time>
        <ele>1820.0</ele>
      </trkpt>
      <trkpt lat="44.78384521789849" lon="6.466714488342404">
        <time>2022-01-25T13:24:14+00:00</time>
        <ele>1820.0</ele>
      </trkpt>
      <trkpt lat="44.783845134079456" lon="6.4667159132659435">
        <time>2022-01-25T13:24:31+00:00</time>
        <ele>1820.0</ele>
      </trkpt>
      <trkpt lat="44.783844044432044" lon="6.466721864417195">
        <time>2022-01-25T13:25:31+00:00</time>
        <ele>1821.0</ele>
      </trkpt>
      <trkpt lat="44.783844044432044" lon="6.466722618788481">
        <time>2022-01-25T13:25:43+00:00</time>
        <ele>1821.0</ele>
      </trkpt>
      <trkpt lat="44.783844128251076" lon="6.466722954064608">
        <time>2022-01-25T13:25:49+00:00</time>
        <ele>1821.0</ele>
      </trkpt>
      <trkpt lat="44.783844631165266" lon="6.466724127531052">
        <time>2022-01-25T13:26:25+00:00</time>
        <ele>1821.0</ele>
      </trkpt>
      <trkpt lat="44.78384488262236" lon="6.466724378988147">
        <time>2022-01-25T13:26:34+00:00</time>
        <ele>1821.0</ele>
      </trkpt>
      <trkpt lat="44.78384496644139" lon="6.46672454662621">
        <time>2022-01-25T13:26:40+00:00</time>
        <ele>1821.0</ele>
      </trkpt>
      <trkpt lat="44.783845134079456" lon="6.466725552454591">
        <time>2022-01-25T13:27:03+00:00</time>
        <ele>1821.0</ele>
      </trkpt>
      <trkpt lat="44.783845134079456" lon="6.466726055368781">
        <time>2022-01-25T13:27:17+00:00</time>
        <ele>1821.0</ele>
      </trkpt>
      <trkpt lat="44.783845050260425" lon="6.46672647446394">
        <time>2022-01-25T13:27:36+00:00</time>
        <ele>1821.0</ele>
      </trkpt>
      <trkpt lat="44.78384488262236" lon="6.4667268097400665">
        <time>2022-01-25T13:27:43+00:00</time>
        <ele>1821.0</ele>
      </trkpt>
      <trkpt lat="44.783844128251076" lon="6.466728067025542">
        <time>2022-01-25T13:28:04+00:00</time>
        <ele>1821.0</ele>
      </trkpt>
      <trkpt lat="44.78384329006076" lon="6.466729491949081">
        <time>2022-01-25T13:28:18+00:00</time>
        <ele>1821.0</ele>
      </trkpt>
      <trkpt lat="44.78384303860366" lon="6.466729994863272">
        <time>2022-01-25T13:28:22+00:00</time>
        <ele>1821.0</ele>
      </trkpt>
      <trkpt lat="44.78384278714657" lon="6.46673041395843">
        <time>2022-01-25T13:28:26+00:00</time>
        <ele>1821.0</ele>
      </trkpt>
      <trkpt lat="44.78384203277528" lon="6.4667318388819695">
        <time>2022-01-25T13:28:38+00:00</time>
        <ele>1821.0</ele>
      </trkpt>
      <trkpt lat="44.78384186513722" lon="6.466732257977128">
        <time>2022-01-25T13:28:42+00:00</time>
        <ele>1821.0</ele>
      </trkpt>
      <trkpt lat="44.78384178131819" lon="6.466732509434223">
        <time>2022-01-25T13:28:44+00:00</time>
        <ele>1821.0</ele>
      </trkpt>
      <trkpt lat="44.783841697499156" lon="6.466732677072287">
        <time>2022-01-25T13:28:46+00:00</time>
        <ele>1821.0</ele>
      </trkpt>
      <trkpt lat="44.7838410269469" lon="6.466734437271953">
        <time>2022-01-25T13:29:00+00:00</time>
        <ele>1821.0</ele>
      </trkpt>
      <trkpt lat="44.78384077548981" lon="6.4667353592813015">
        <time>2022-01-25T13:29:06+00:00</time>
        <ele>1821.0</ele>
      </trkpt>
      <trkpt lat="44.78384027257562" lon="6.466737957671285">
        <time>2022-01-25T13:29:21+00:00</time>
        <ele>1822.0</ele>
      </trkpt>
      <trkpt lat="44.78384010493755" lon="6.466738628223538">
        <time>2022-01-25T13:29:25+00:00</time>
        <ele>1822.0</ele>
      </trkpt>
      <trkpt lat="44.78383960202336" lon="6.466740388423204">
        <time>2022-01-25T13:29:37+00:00</time>
        <ele>1822.0</ele>
      </trkpt>
      <trkpt lat="44.78383859619498" lon="6.466743070632219">
        <time>2022-01-25T13:29:58+00:00</time>
        <ele>1822.0</ele>
      </trkpt>
      <trkpt lat="44.78383859619498" lon="6.466743238270283">
        <time>2022-01-25T13:29:59+00:00</time>
        <ele>1822.0</ele>
      </trkpt>
      <trkpt lat="44.78383842855692" lon="6.466743741184473">
        <time>2022-01-25T13:30:03+00:00</time>
        <ele>1822.0</ele>
      </trkpt>
      <trkpt lat="44.783838260918856" lon="6.4667444955557585">
        <time>2022-01-25T13:30:08+00:00</time>
        <ele>1822.0</ele>
      </trkpt>
      <trkpt lat="44.783838177099824" lon="6.466744914650917">
        <time>2022-01-25T13:30:11+00:00</time>
        <ele>1822.0</ele>
      </trkpt>
      <trkpt lat="44.783837674185634" lon="6.466747093945742">
        <time>2022-01-25T13:30:26+00:00</time>
        <ele>1822.0</ele>
      </trkpt>
      <trkpt lat="44.7838375903666" lon="6.4667475130409">
        <time>2022-01-25T13:30:29+00:00</time>
        <ele>1822.0</ele>
      </trkpt>
      <trkpt lat="44.78383700363338" lon="6.46674994379282">
        <time>2022-01-25T13:30:51+00:00</time>
        <ele>1822.0</ele>
      </trkpt>
      <trkpt lat="44.783836752176285" lon="6.466750530526042">
        <time>2022-01-25T13:30:57+00:00</time>
        <ele>1822.0</ele>
      </trkpt>
      <trkpt lat="44.78384303860366" lon="6.466819681227207">
        <time>2022-01-25T13:31:07+00:00</time>
        <ele>1823.0</ele>
      </trkpt>
      <trkpt lat="44.78384731337428" lon="6.466833343729377">
        <time>2022-01-25T13:31:08+00:00</time>
        <ele>1823.0</ele>
      </trkpt>
      <trkpt lat="44.78385946713388" lon="6.466874750331044">
        <time>2022-01-25T13:31:11+00:00</time>
        <ele>1823.0</ele>
      </trkpt>
      <trkpt lat="44.783869525417686" lon="6.466911379247904">
        <time>2022-01-25T13:31:15+00:00</time>
        <ele>1823.0</ele>
      </trkpt>
      <trkpt lat="44.783844631165266" lon="6.466914061456919">
        <time>2022-01-25T13:31:19+00:00</time>
        <ele>1827.0</ele>
      </trkpt>
      <trkpt lat="44.78384085930884" lon="6.466917498037219">
        <time>2022-01-25T13:31:24+00:00</time>
        <ele>1828.0</ele>
      </trkpt>
      <trkpt lat="44.78384085930884" lon="6.466917498037219">
        <time>2022-01-25T13:31:26+00:00</time>
        <ele>1828.0</ele>
      </trkpt>
      <trkpt lat="44.78384203277528" lon="6.466917498037219">
        <time>2022-01-25T13:31:31+00:00</time>
        <ele>1827.0</ele>
      </trkpt>
      <trkpt lat="44.783848486840725" lon="6.466917498037219">
        <time>2022-01-25T13:31:36+00:00</time>
        <ele>1827.0</ele>
      </trkpt>
      <trkpt lat="44.78385301306844" lon="6.466930406168103">
        <time>2022-01-25T13:31:45+00:00</time>
        <ele>1826.0</ele>
      </trkpt>
      <trkpt lat="44.783861646428704" lon="6.466936776414514">
        <time>2022-01-25T13:31:53+00:00</time>
        <ele>1825.0</ele>
      </trkpt>
      <trkpt lat="44.783880673348904" lon="6.466941051185131">
        <time>2022-01-25T13:32:00+00:00</time>
        <ele>1823.0</ele>
      </trkpt>
      <trkpt lat="44.78389525786042" lon="6.466943314298987">
        <time>2022-01-25T13:32:09+00:00</time>
        <ele>1821.0</ele>
      </trkpt>
      <trkpt lat="44.78393021039665" lon="6.466944823041558">
        <time>2022-01-25T13:32:23+00:00</time>
        <ele>1817.0</ele>
      </trkpt>
      <trkpt lat="44.78394680656493" lon="6.466947169974446">
        <time>2022-01-25T13:32:31+00:00</time>
        <ele>1815.0</ele>
      </trkpt>
      <trkpt lat="44.78394890204072" lon="6.466972315683961">
        <time>2022-01-25T13:32:47+00:00</time>
        <ele>1815.0</ele>
      </trkpt>
      <trkpt lat="44.783945214003325" lon="6.467037778347731">
        <time>2022-01-25T13:33:11+00:00</time>
        <ele>1818.0</ele>
      </trkpt>
      <trkpt lat="44.78394848294556" lon="6.467039790004492">
        <time>2022-01-25T13:33:17+00:00</time>
        <ele>1818.0</ele>
      </trkpt>
      <trkpt lat="44.7839499078691" lon="6.467040376737714">
        <time>2022-01-25T13:33:21+00:00</time>
        <ele>1818.0</ele>
      </trkpt>
      <trkpt lat="44.78395367972553" lon="6.46704020909965">
        <time>2022-01-25T13:33:24+00:00</time>
        <ele>1817.0</ele>
      </trkpt>
      <trkpt lat="44.78396792896092" lon="6.467039538547397">
        <time>2022-01-25T13:33:32+00:00</time>
        <ele>1815.0</ele>
      </trkpt>
      <trkpt lat="44.78398988954723" lon="6.467044483870268">
        <time>2022-01-25T13:33:59+00:00</time>
        <ele>1813.0</ele>
      </trkpt>
      <trkpt lat="44.783990224823356" lon="6.467044735327363">
        <time>2022-01-25T13:34:00+00:00</time>
        <ele>1813.0</ele>
      </trkpt>
      <trkpt lat="44.783993661403656" lon="6.467045405879617">
        <time>2022-01-25T13:34:07+00:00</time>
        <ele>1812.0</ele>
      </trkpt>
      <trkpt lat="44.7839948348701" lon="6.4670454896986485">
        <time>2022-01-25T13:34:09+00:00</time>
        <ele>1812.0</ele>
      </trkpt>
      <trkpt lat="44.784012185409665" lon="6.467047082260251">
        <time>2022-01-25T13:34:23+00:00</time>
        <ele>1810.0</ele>
      </trkpt>
      <trkpt lat="44.78401981294155" lon="6.467049932107329">
        <time>2022-01-25T13:34:40+00:00</time>
        <ele>1809.0</ele>
      </trkpt>
      <trkpt lat="44.784020064398646" lon="6.4670501835644245">
        <time>2022-01-25T13:34:51+00:00</time>
        <ele>1809.0</ele>
      </trkpt>
      <trkpt lat="44.78402031585574" lon="6.467050351202488">
        <time>2022-01-25T13:34:58+00:00</time>
        <ele>1809.0</ele>
      </trkpt>
      <trkpt lat="44.78402056731284" lon="6.467050602659583">
        <time>2022-01-25T13:35:06+00:00</time>
        <ele>1809.0</ele>
      </trkpt>
      <trkpt lat="44.78402090258896" lon="6.467051021754742">
        <time>2022-01-25T13:35:14+00:00</time>
        <ele>1809.0</ele>
      </trkpt>
      <trkpt lat="44.78402123786509" lon="6.4670513570308685">
        <time>2022-01-25T13:35:20+00:00</time>
        <ele>1809.0</ele>
      </trkpt>
      <trkpt lat="44.78402174077928" lon="6.4670519437640905">
        <time>2022-01-25T13:35:28+00:00</time>
        <ele>1808.0</ele>
      </trkpt>
      <trkpt lat="44.784021908417344" lon="6.467052195221186">
        <time>2022-01-25T13:35:31+00:00</time>
        <ele>1808.0</ele>
      </trkpt>
      <trkpt lat="44.784023920074105" lon="6.467053703963757">
        <time>2022-01-25T13:35:49+00:00</time>
        <ele>1808.0</ele>
      </trkpt>
      <trkpt lat="44.7840241715312" lon="6.467053955420852">
        <time>2022-01-25T13:35:51+00:00</time>
        <ele>1808.0</ele>
      </trkpt>
      <trkpt lat="44.78402475826442" lon="6.46705437451601">
        <time>2022-01-25T13:35:55+00:00</time>
        <ele>1808.0</ele>
      </trkpt>
      <trkpt lat="44.78402551263571" lon="6.467054877430201">
        <time>2022-01-25T13:36:00+00:00</time>
        <ele>1808.0</ele>
      </trkpt>
      <trkpt lat="44.784026350826025" lon="6.467055380344391">
        <time>2022-01-25T13:36:05+00:00</time>
        <ele>1808.0</ele>
      </trkpt>
      <trkpt lat="44.78402769193053" lon="6.4670563861727715">
        <time>2022-01-25T13:36:13+00:00</time>
        <ele>1808.0</ele>
      </trkpt>
      <trkpt lat="44.78403992950916" lon="6.467118579894304">
        <time>2022-01-25T13:36:19+00:00</time>
        <ele>1809.0</ele>
      </trkpt>
      <trkpt lat="44.78406968526542" lon="6.467178761959076">
        <time>2022-01-25T13:36:22+00:00</time>
        <ele>1810.0</ele>
      </trkpt>
      <trkpt lat="44.78409114293754" lon="6.4672071766108274">
        <time>2022-01-25T13:36:24+00:00</time>
        <ele>1809.0</ele>
      </trkpt>
      <trkpt lat="44.784143110737205" lon="6.467232573777437">
        <time>2022-01-25T13:36:31+00:00</time>
        <ele>1801.0</ele>
      </trkpt>
      <trkpt lat="44.78413615375757" lon="6.467236094176769">
        <time>2022-01-25T13:36:47+00:00</time>
        <ele>1803.0</ele>
      </trkpt>
      <trkpt lat="44.78413414210081" lon="6.467232657596469">
        <time>2022-01-25T13:36:53+00:00</time>
        <ele>1803.0</ele>
      </trkpt>
      <trkpt lat="44.78413414210081" lon="6.467231484130025">
        <time>2022-01-25T13:36:55+00:00</time>
        <ele>1803.0</ele>
      </trkpt>
      <trkpt lat="44.78413414210081" lon="6.467231400310993">
        <time>2022-01-25T13:36:58+00:00</time>
        <ele>1803.0</ele>
      </trkpt>
      <trkpt lat="44.784130454063416" lon="6.4672319032251835">
        <time>2022-01-25T13:37:03+00:00</time>
        <ele>1803.0</ele>
      </trkpt>
      <trkpt lat="44.784128023311496" lon="6.4672319032251835">
        <time>2022-01-25T13:37:06+00:00</time>
        <ele>1804.0</ele>
      </trkpt>
      <trkpt lat="44.784126011654735" lon="6.4672330766916275">
        <time>2022-01-25T13:37:09+00:00</time>
        <ele>1804.0</ele>
      </trkpt>
      <trkpt lat="44.78410958312452" lon="6.467257048934698">
        <time>2022-01-25T13:37:19+00:00</time>
        <ele>1809.0</ele>
      </trkpt>
      <trkpt lat="44.784101620316505" lon="6.467264508828521">
        <time>2022-01-25T13:37:25+00:00</time>
        <ele>1811.0</ele>
      </trkpt>
      <trkpt lat="44.78408619761467" lon="6.467271465808153">
        <time>2022-01-25T13:37:31+00:00</time>
        <ele>1815.0</ele>
      </trkpt>
      <trkpt lat="44.78406859561801" lon="6.467280434444547">
        <time>2022-01-25T13:37:34+00:00</time>
        <ele>1819.0</ele>
      </trkpt>
      <trkpt lat="44.78406339883804" lon="6.467282949015498">
        <time>2022-01-25T13:37:37+00:00</time>
        <ele>1820.0</ele>
      </trkpt>
      <trkpt lat="44.7840120177716" lon="6.467313040047884">
        <time>2022-01-25T13:37:42+00:00</time>
        <ele>1830.0</ele>
      </trkpt>
      <trkpt lat="44.78400028310716" lon="6.467316392809153">
        <time>2022-01-25T13:37:46+00:00</time>
        <ele>1832.0</ele>
      </trkpt>
      <trkpt lat="44.78397044353187" lon="6.467313459143043">
        <time>2022-01-25T13:37:52+00:00</time>
        <ele>1836.0</ele>
      </trkpt>
      <trkpt lat="44.78396499529481" lon="6.467312034219503">
        <time>2022-01-25T13:37:59+00:00</time>
        <ele>1836.0</ele>
      </trkpt>
      <trkpt lat="44.78396499529481" lon="6.467312034219503">
        <time>2022-01-25T13:38:00+00:00</time>
        <ele>1836.0</ele>
      </trkpt>
      <trkpt lat="44.78396499529481" lon="6.467312034219503">
        <time>2022-01-25T13:38:02+00:00</time>
        <ele>1836.0</ele>
      </trkpt>
      <trkpt lat="44.78397463448346" lon="6.467309771105647">
        <time>2022-01-25T13:38:11+00:00</time>
        <ele>1835.0</ele>
      </trkpt>
      <trkpt lat="44.783980417996645" lon="6.46732360124588">
        <time>2022-01-25T13:38:18+00:00</time>
        <ele>1835.0</ele>
      </trkpt>
      <trkpt lat="44.783968264237046" lon="6.467324355617166">
        <time>2022-01-25T13:38:25+00:00</time>
        <ele>1837.0</ele>
      </trkpt>
      <trkpt lat="44.78399047628045" lon="6.467311782762408">
        <time>2022-01-25T13:38:29+00:00</time>
        <ele>1833.0</ele>
      </trkpt>
      <trkpt lat="44.78399047628045" lon="6.467311782762408">
        <time>2022-01-25T13:38:34+00:00</time>
        <ele>1833.0</ele>
      </trkpt>
      <trkpt lat="44.78400405496359" lon="6.4672990422695875">
        <time>2022-01-25T13:38:44+00:00</time>
        <ele>1830.0</ele>
      </trkpt>
      <trkpt lat="44.78399491868913" lon="6.467304574325681">
        <time>2022-01-25T13:38:45+00:00</time>
        <ele>1832.0</ele>
      </trkpt>
      <trkpt lat="44.78399290703237" lon="6.467284793034196">
        <time>2022-01-25T13:38:49+00:00</time>
        <ele>1830.0</ele>
      </trkpt>
      <trkpt lat="44.78398846462369" lon="6.467285882681608">
        <time>2022-01-25T13:38:59+00:00</time>
        <ele>1831.0</ele>
      </trkpt>
      <trkpt lat="44.78394504636526" lon="6.467236513271928">
        <time>2022-01-25T13:39:53+00:00</time>
        <ele>1833.0</ele>
      </trkpt>
      <trkpt lat="44.78394890204072" lon="6.467229975387454">
        <time>2022-01-25T13:39:54+00:00</time>
        <ele>1832.0</ele>
      </trkpt>
      <trkpt lat="44.78396097198129" lon="6.467220252379775">
        <time>2022-01-25T13:39:58+00:00</time>
        <ele>1829.0</ele>
      </trkpt>
      <trkpt lat="44.78395435027778" lon="6.467219749465585">
        <time>2022-01-25T13:40:02+00:00</time>
        <ele>1830.0</ele>
      </trkpt>
      <trkpt lat="44.783952590078115" lon="6.467223856598139">
        <time>2022-01-25T13:40:04+00:00</time>
        <ele>1831.0</ele>
      </trkpt>
      <trkpt lat="44.78396315127611" lon="6.46721413359046">
        <time>2022-01-25T13:40:11+00:00</time>
        <ele>1828.0</ele>
      </trkpt>
      <trkpt lat="44.78396591730416" lon="6.467208517715335">
        <time>2022-01-25T13:40:15+00:00</time>
        <ele>1828.0</ele>
      </trkpt>
      <trkpt lat="44.78396591730416" lon="6.467208517715335">
        <time>2022-01-25T13:40:18+00:00</time>
        <ele>1828.0</ele>
      </trkpt>
      <trkpt lat="44.78395619429648" lon="6.467238022014499">
        <time>2022-01-25T13:40:48+00:00</time>
        <ele>1831.0</ele>
      </trkpt>
      <trkpt lat="44.78395619429648" lon="6.46724296733737">
        <time>2022-01-25T13:40:50+00:00</time>
        <ele>1832.0</ele>
      </trkpt>
      <trkpt lat="44.783952087163925" lon="6.467247828841209">
        <time>2022-01-25T13:40:55+00:00</time>
        <ele>1833.0</ele>
      </trkpt>
      <trkpt lat="44.78395041078329" lon="6.467248667031527">
        <time>2022-01-25T13:40:57+00:00</time>
        <ele>1833.0</ele>
      </trkpt>
      <trkpt lat="44.78394999168813" lon="6.467250259593129">
        <time>2022-01-25T13:40:59+00:00</time>
        <ele>1833.0</ele>
      </trkpt>
      <trkpt lat="44.783940771594644" lon="6.467289486899972">
        <time>2022-01-25T13:41:23+00:00</time>
        <ele>1838.0</ele>
      </trkpt>
      <trkpt lat="44.78397270664573" lon="6.467270795255899">
        <time>2022-01-25T13:41:34+00:00</time>
        <ele>1832.0</ele>
      </trkpt>
      <trkpt lat="44.78398075327277" lon="6.467269454151392">
        <time>2022-01-25T13:41:38+00:00</time>
        <ele>1831.0</ele>
      </trkpt>
      <trkpt lat="44.78397874161601" lon="6.467278925701976">
        <time>2022-01-25T13:41:40+00:00</time>
        <ele>1832.0</ele>
      </trkpt>
      <trkpt lat="44.78397815488279" lon="6.467304155230522">
        <time>2022-01-25T13:41:45+00:00</time>
        <ele>1834.0</ele>
      </trkpt>
      <trkpt lat="44.78397832252085" lon="6.467307340353727">
        <time>2022-01-25T13:41:47+00:00</time>
        <ele>1834.0</ele>
      </trkpt>
      <trkpt lat="44.78397832252085" lon="6.467307340353727">
        <time>2022-01-25T13:41:51+00:00</time>
        <ele>1834.0</ele>
      </trkpt>
      <trkpt lat="44.78397832252085" lon="6.467307340353727">
        <time>2022-01-25T13:41:52+00:00</time>
        <ele>1834.0</ele>
      </trkpt>
      <trkpt lat="44.78397790342569" lon="6.467307340353727">
        <time>2022-01-25T13:41:57+00:00</time>
        <ele>1834.0</ele>
      </trkpt>
      <trkpt lat="44.78397094644606" lon="6.467341957613826">
        <time>2022-01-25T13:42:15+00:00</time>
        <ele>1838.0</ele>
      </trkpt>
      <trkpt lat="44.78397094644606" lon="6.467341957613826">
        <time>2022-01-25T13:42:17+00:00</time>
        <ele>1838.0</ele>
      </trkpt>
      <trkpt lat="44.783993577584624" lon="6.467324020341039">
        <time>2022-01-25T13:42:19+00:00</time>
        <ele>1833.0</ele>
      </trkpt>
      <trkpt lat="44.784010760486126" lon="6.4673008024692535">
        <time>2022-01-25T13:42:21+00:00</time>
        <ele>1829.0</ele>
      </trkpt>
      <trkpt lat="44.78409441187978" lon="6.467244811356068">
        <time>2022-01-25T13:42:27+00:00</time>
        <ele>1811.0</ele>
      </trkpt>
      <trkpt lat="44.784099105745554" lon="6.467241374775767">
        <time>2022-01-25T13:42:28+00:00</time>
        <ele>1810.0</ele>
      </trkpt>
      <trkpt lat="44.78412123396993" lon="6.46724003367126">
        <time>2022-01-25T13:42:32+00:00</time>
        <ele>1806.0</ele>
      </trkpt>
      <trkpt lat="44.78414621204138" lon="6.4672404527664185">
        <time>2022-01-25T13:42:36+00:00</time>
        <ele>1801.0</ele>
      </trkpt>
      <trkpt lat="44.78418183512986" lon="6.467241793870926">
        <time>2022-01-25T13:42:39+00:00</time>
        <ele>1794.0</ele>
      </trkpt>
      <trkpt lat="44.78420723229647" lon="6.467254785820842">
        <time>2022-01-25T13:42:42+00:00</time>
        <ele>1790.0</ele>
      </trkpt>
      <trkpt lat="44.784184601157904" lon="6.467279260978103">
        <time>2022-01-25T13:42:48+00:00</time>
        <ele>1796.0</ele>
      </trkpt>
      <trkpt lat="44.784176303073764" lon="6.467292672023177">
        <time>2022-01-25T13:42:50+00:00</time>
        <ele>1799.0</ele>
      </trkpt>
      <trkpt lat="44.78417068719864" lon="6.46730650216341">
        <time>2022-01-25T13:42:53+00:00</time>
        <ele>1801.0</ele>
      </trkpt>
      <trkpt lat="44.784170016646385" lon="6.467332066968083">
        <time>2022-01-25T13:42:57+00:00</time>
        <ele>1803.0</ele>
      </trkpt>
      <trkpt lat="44.78415903635323" lon="6.467353273183107">
        <time>2022-01-25T13:43:01+00:00</time>
        <ele>1806.0</ele>
      </trkpt>
      <trkpt lat="44.78415031917393" lon="6.467363415285945">
        <time>2022-01-25T13:43:03+00:00</time>
        <ele>1809.0</ele>
      </trkpt>
      <trkpt lat="44.784147553145885" lon="6.467366265133023">
        <time>2022-01-25T13:43:05+00:00</time>
        <ele>1810.0</ele>
      </trkpt>
      <trkpt lat="44.78415031917393" lon="6.467382945120335">
        <time>2022-01-25T13:43:09+00:00</time>
        <ele>1811.0</ele>
      </trkpt>
      <trkpt lat="44.78416205383837" lon="6.4674002956599">
        <time>2022-01-25T13:43:14+00:00</time>
        <ele>1810.0</ele>
      </trkpt>
      <trkpt lat="44.784139171242714" lon="6.4674206636846066">
        <time>2022-01-25T13:43:20+00:00</time>
        <ele>1817.0</ele>
      </trkpt>
      <trkpt lat="44.78413070552051" lon="6.4674245193600655">
        <time>2022-01-25T13:43:21+00:00</time>
        <ele>1819.0</ele>
      </trkpt>
      <trkpt lat="44.78412827476859" lon="6.467439187690616">
        <time>2022-01-25T13:43:26+00:00</time>
        <ele>1821.0</ele>
      </trkpt>
      <trkpt lat="44.78413565084338" lon="6.4674424566328526">
        <time>2022-01-25T13:43:32+00:00</time>
        <ele>1819.0</ele>
      </trkpt>
      <trkpt lat="44.78413565084338" lon="6.4674424566328526">
        <time>2022-01-25T13:43:36+00:00</time>
        <ele>1819.0</ele>
      </trkpt>
      <trkpt lat="44.78413565084338" lon="6.4674424566328526">
        <time>2022-01-25T13:43:39+00:00</time>
        <ele>1819.0</ele>
      </trkpt>
      <trkpt lat="44.78413565084338" lon="6.4674424566328526">
        <time>2022-01-25T13:43:42+00:00</time>
        <ele>1819.0</ele>
      </trkpt>
      <trkpt lat="44.78413565084338" lon="6.4674424566328526">
        <time>2022-01-25T13:43:43+00:00</time>
        <ele>1819.0</ele>
      </trkpt>
      <trkpt lat="44.78413565084338" lon="6.467445557937026">
        <time>2022-01-25T13:43:46+00:00</time>
        <ele>1820.0</ele>
      </trkpt>
      <trkpt lat="44.78413640521467" lon="6.467446563765407">
        <time>2022-01-25T13:43:48+00:00</time>
        <ele>1820.0</ele>
      </trkpt>
      <trkpt lat="44.7841483913362" lon="6.467461232095957">
        <time>2022-01-25T13:43:57+00:00</time>
        <ele>1819.0</ele>
      </trkpt>
      <trkpt lat="44.78414881043136" lon="6.46746433340013">
        <time>2022-01-25T13:44:01+00:00</time>
        <ele>1819.0</ele>
      </trkpt>
      <trkpt lat="44.78415308520198" lon="6.467485288158059">
        <time>2022-01-25T13:44:06+00:00</time>
        <ele>1820.0</ele>
      </trkpt>
      <trkpt lat="44.784155851230025" lon="6.467491323128343">
        <time>2022-01-25T13:44:11+00:00</time>
        <ele>1820.0</ele>
      </trkpt>
      <trkpt lat="44.78415886871517" lon="6.467501884326339">
        <time>2022-01-25T13:44:16+00:00</time>
        <ele>1820.0</ele>
      </trkpt>
      <trkpt lat="44.78416473604739" lon="6.467528622597456">
        <time>2022-01-25T13:44:22+00:00</time>
        <ele>1821.0</ele>
      </trkpt>
      <trkpt lat="44.784168591722846" lon="6.4675426203757524">
        <time>2022-01-25T13:44:26+00:00</time>
        <ele>1822.0</ele>
      </trkpt>
      <trkpt lat="44.78417169302702" lon="6.467556785792112">
        <time>2022-01-25T13:44:31+00:00</time>
        <ele>1823.0</ele>
      </trkpt>
      <trkpt lat="44.78417353704572" lon="6.467561982572079">
        <time>2022-01-25T13:44:35+00:00</time>
        <ele>1823.0</ele>
      </trkpt>
      <trkpt lat="44.784174291417" lon="6.467562988400459">
        <time>2022-01-25T13:44:36+00:00</time>
        <ele>1823.0</ele>
      </trkpt>
      <trkpt lat="44.78417605161667" lon="6.467564329504967">
        <time>2022-01-25T13:44:37+00:00</time>
        <ele>1823.0</ele>
      </trkpt>
      <trkpt lat="44.7841917257756" lon="6.467571621760726">
        <time>2022-01-25T13:44:42+00:00</time>
        <ele>1820.0</ele>
      </trkpt>
      <trkpt lat="44.78419952094555" lon="6.467572124674916">
        <time>2022-01-25T13:44:45+00:00</time>
        <ele>1818.0</ele>
      </trkpt>
      <trkpt lat="44.784213937819004" lon="6.467572124674916">
        <time>2022-01-25T13:44:49+00:00</time>
        <ele>1816.0</ele>
      </trkpt>
      <trkpt lat="44.7842263430357" lon="6.467572124674916">
        <time>2022-01-25T13:44:53+00:00</time>
        <ele>1813.0</ele>
      </trkpt>
      <trkpt lat="44.78423380292952" lon="6.467572124674916">
        <time>2022-01-25T13:44:55+00:00</time>
        <ele>1812.0</ele>
      </trkpt>
      <trkpt lat="44.78424704633653" lon="6.4675644133239985">
        <time>2022-01-25T13:44:58+00:00</time>
        <ele>1808.0</ele>
      </trkpt>
      <trkpt lat="44.78426657617092" lon="6.467549577355385">
        <time>2022-01-25T13:45:02+00:00</time>
        <ele>1803.0</ele>
      </trkpt>
      <trkpt lat="44.78428853675723" lon="6.4675461407750845">
        <time>2022-01-25T13:45:06+00:00</time>
        <ele>1797.0</ele>
      </trkpt>
      <trkpt lat="44.784308318048716" lon="6.467543039470911">
        <time>2022-01-25T13:45:10+00:00</time>
        <ele>1793.0</ele>
      </trkpt>
      <trkpt lat="44.784330278635025" lon="6.467542788013816">
        <time>2022-01-25T13:45:15+00:00</time>
        <ele>1788.0</ele>
      </trkpt>
      <trkpt lat="44.78435064665973" lon="6.467542704194784">
        <time>2022-01-25T13:45:19+00:00</time>
        <ele>1784.0</ele>
      </trkpt>
      <trkpt lat="44.78435651399195" lon="6.467541279271245">
        <time>2022-01-25T13:45:21+00:00</time>
        <ele>1782.0</ele>
      </trkpt>
      <trkpt lat="44.78436338715255" lon="6.46754153072834">
        <time>2022-01-25T13:45:25+00:00</time>
        <ele>1781.0</ele>
      </trkpt>
      <trkpt lat="44.78438635356724" lon="6.467544799670577">
        <time>2022-01-25T13:45:29+00:00</time>
        <ele>1776.0</ele>
      </trkpt>
      <trkpt lat="44.78439540602267" lon="6.467546308413148">
        <time>2022-01-25T13:45:30+00:00</time>
        <ele>1774.0</ele>
      </trkpt>
      <trkpt lat="44.78444301523268" lon="6.467548152431846">
        <time>2022-01-25T13:45:34+00:00</time>
        <ele>1764.0</ele>
      </trkpt>
      <trkpt lat="44.784455839544535" lon="6.467542117461562">
        <time>2022-01-25T13:45:35+00:00</time>
        <ele>1761.0</ele>
      </trkpt>
      <trkpt lat="44.78446749038994" lon="6.4675443805754185">
        <time>2022-01-25T13:45:40+00:00</time>
        <ele>1759.0</ele>
      </trkpt>
      <trkpt lat="44.784485176205635" lon="6.467634150758386">
        <time>2022-01-25T13:45:45+00:00</time>
        <ele>1759.0</ele>
      </trkpt>
      <trkpt lat="44.784486684948206" lon="6.467654099687934">
        <time>2022-01-25T13:45:47+00:00</time>
        <ele>1760.0</ele>
      </trkpt>
      <trkpt lat="44.784493055194616" lon="6.467662733048201">
        <time>2022-01-25T13:45:49+00:00</time>
        <ele>1759.0</ele>
      </trkpt>
      <trkpt lat="44.784503197297454" lon="6.4676648285239935">
        <time>2022-01-25T13:45:55+00:00</time>
        <ele>1758.0</ele>
      </trkpt>
      <trkpt lat="44.78452046401799" lon="6.46762752905488">
        <time>2022-01-25T13:46:03+00:00</time>
        <ele>1753.0</ele>
      </trkpt>
      <trkpt lat="44.78451945818961" lon="6.467628367245197">
        <time>2022-01-25T13:46:04+00:00</time>
        <ele>1753.0</ele>
      </trkpt>
      <trkpt lat="44.78452750481665" lon="6.467714114114642">
        <time>2022-01-25T13:46:11+00:00</time>
        <ele>1755.0</ele>
      </trkpt>
      <trkpt lat="44.78450889699161" lon="6.467812852934003">
        <time>2022-01-25T13:46:20+00:00</time>
        <ele>1764.0</ele>
      </trkpt>
      <trkpt lat="44.7845300193876" lon="6.4678235817700624">
        <time>2022-01-25T13:46:25+00:00</time>
        <ele>1760.0</ele>
      </trkpt>
      <trkpt lat="44.784535551443696" lon="6.467814696952701">
        <time>2022-01-25T13:46:27+00:00</time>
        <ele>1758.0</ele>
      </trkpt>
      <trkpt lat="44.78452264331281" lon="6.467797011137009">
        <time>2022-01-25T13:46:30+00:00</time>
        <ele>1760.0</ele>
      </trkpt>
      <trkpt lat="44.78452264331281" lon="6.467797011137009">
        <time>2022-01-25T13:46:41+00:00</time>
        <ele>1760.0</ele>
      </trkpt>
      <trkpt lat="44.78453245013952" lon="6.467789132148027">
        <time>2022-01-25T13:46:48+00:00</time>
        <ele>1758.0</ele>
      </trkpt>
      <trkpt lat="44.78454795666039" lon="6.467800196260214">
        <time>2022-01-25T13:46:51+00:00</time>
        <ele>1755.0</ele>
      </trkpt>
      <trkpt lat="44.784537479281425" lon="6.467811176553369">
        <time>2022-01-25T13:46:56+00:00</time>
        <ele>1757.0</ele>
      </trkpt>
      <trkpt lat="44.78453831747174" lon="6.46780539304018">
        <time>2022-01-25T13:46:57+00:00</time>
        <ele>1757.0</ele>
      </trkpt>
      <trkpt lat="44.78453328832984" lon="6.467831628397107">
        <time>2022-01-25T13:47:03+00:00</time>
        <ele>1759.0</ele>
      </trkpt>
      <trkpt lat="44.78452943265438" lon="6.467843530699611">
        <time>2022-01-25T13:47:04+00:00</time>
        <ele>1761.0</ele>
      </trkpt>
      <trkpt lat="44.78452934883535" lon="6.4678561873734">
        <time>2022-01-25T13:47:05+00:00</time>
        <ele>1761.0</ele>
      </trkpt>
      <trkpt lat="44.784529684111476" lon="6.467862641438842">
        <time>2022-01-25T13:47:10+00:00</time>
        <ele>1761.0</ele>
      </trkpt>
      <trkpt lat="44.784527672454715" lon="6.467877812683582">
        <time>2022-01-25T13:47:13+00:00</time>
        <ele>1763.0</ele>
      </trkpt>
      <trkpt lat="44.784538485109806" lon="6.467888290062547">
        <time>2022-01-25T13:47:17+00:00</time>
        <ele>1761.0</ele>
      </trkpt>
      <trkpt lat="44.784557009115815" lon="6.467878734692931">
        <time>2022-01-25T13:47:21+00:00</time>
        <ele>1756.0</ele>
      </trkpt>
      <trkpt lat="44.784547705203295" lon="6.467852331697941">
        <time>2022-01-25T13:47:30+00:00</time>
        <ele>1757.0</ele>
      </trkpt>
      <trkpt lat="44.78456689976156" lon="6.467849733307958">
        <time>2022-01-25T13:47:47+00:00</time>
        <ele>1752.0</ele>
      </trkpt>
      <trkpt lat="44.7845699172467" lon="6.467849733307958">
        <time>2022-01-25T13:47:51+00:00</time>
        <ele>1752.0</ele>
      </trkpt>
      <trkpt lat="44.78457813151181" lon="6.46786255761981">
        <time>2022-01-25T13:48:00+00:00</time>
        <ele>1750.0</ele>
      </trkpt>
      <trkpt lat="44.784588692709804" lon="6.467890050262213">
        <time>2022-01-25T13:48:11+00:00</time>
        <ele>1748.0</ele>
      </trkpt>
      <trkpt lat="44.78461526334286" lon="6.467931875959039">
        <time>2022-01-25T13:48:17+00:00</time>
        <ele>1744.0</ele>
      </trkpt>
      <trkpt lat="44.784649796783924" lon="6.467949980869889">
        <time>2022-01-25T13:48:23+00:00</time>
        <ele>1736.0</ele>
      </trkpt>
      <trkpt lat="44.78466421365738" lon="6.467963894829154">
        <time>2022-01-25T13:48:26+00:00</time>
        <ele>1734.0</ele>
      </trkpt>
      <trkpt lat="44.78467410430312" lon="6.46797345019877">
        <time>2022-01-25T13:48:31+00:00</time>
        <ele>1732.0</ele>
      </trkpt>
      <trkpt lat="44.78465407155454" lon="6.467978898435831">
        <time>2022-01-25T13:48:33+00:00</time>
        <ele>1737.0</ele>
      </trkpt>
      <trkpt lat="44.784642085433006" lon="6.467998260632157">
        <time>2022-01-25T13:48:37+00:00</time>
        <ele>1740.0</ele>
      </trkpt>
      <trkpt lat="44.78463051840663" lon="6.468008402734995">
        <time>2022-01-25T13:48:39+00:00</time>
        <ele>1743.0</ele>
      </trkpt>
      <trkpt lat="44.78462481871247" lon="6.468012593686581">
        <time>2022-01-25T13:48:44+00:00</time>
        <ele>1745.0</ele>
      </trkpt>
      <trkpt lat="44.78462481871247" lon="6.468012593686581">
        <time>2022-01-25T13:48:50+00:00</time>
        <ele>1745.0</ele>
      </trkpt>
      <trkpt lat="44.784626411274076" lon="6.468012593686581">
        <time>2022-01-25T13:48:54+00:00</time>
        <ele>1744.0</ele>
      </trkpt>
      <trkpt lat="44.78462724946439" lon="6.468012593686581">
        <time>2022-01-25T13:48:55+00:00</time>
        <ele>1744.0</ele>
      </trkpt>
      <trkpt lat="44.7846304345876" lon="6.468012593686581">
        <time>2022-01-25T13:48:58+00:00</time>
        <ele>1744.0</ele>
      </trkpt>
      <trkpt lat="44.78463286533952" lon="6.468011252582073">
        <time>2022-01-25T13:49:02+00:00</time>
        <ele>1743.0</ele>
      </trkpt>
      <trkpt lat="44.78463294915855" lon="6.468008402734995">
        <time>2022-01-25T13:49:06+00:00</time>
        <ele>1743.0</ele>
      </trkpt>
      <trkpt lat="44.784635128453374" lon="6.468007480725646">
        <time>2022-01-25T13:49:09+00:00</time>
        <ele>1742.0</ele>
      </trkpt>
      <trkpt lat="44.78464510291815" lon="6.467997087165713">
        <time>2022-01-25T13:49:11+00:00</time>
        <ele>1739.0</ele>
      </trkpt>
      <trkpt lat="44.78466144762933" lon="6.467994321137667">
        <time>2022-01-25T13:49:14+00:00</time>
        <ele>1736.0</ele>
      </trkpt>
      <trkpt lat="44.784694723784924" lon="6.467987112700939">
        <time>2022-01-25T13:49:20+00:00</time>
        <ele>1729.0</ele>
      </trkpt>
      <trkpt lat="44.784695813432336" lon="6.467982167378068">
        <time>2022-01-25T13:49:22+00:00</time>
        <ele>1728.0</ele>
      </trkpt>
      <trkpt lat="44.78470000438392" lon="6.4679796528071165">
        <time>2022-01-25T13:49:26+00:00</time>
        <ele>1728.0</ele>
      </trkpt>
      <trkpt lat="44.78472925722599" lon="6.4679796528071165">
        <time>2022-01-25T13:49:36+00:00</time>
        <ele>1722.0</ele>
      </trkpt>
      <trkpt lat="44.78473076596856" lon="6.4679796528071165">
        <time>2022-01-25T13:49:37+00:00</time>
        <ele>1721.0</ele>
      </trkpt>
      <trkpt lat="44.784732861444354" lon="6.467994907870889">
        <time>2022-01-25T13:49:40+00:00</time>
        <ele>1721.0</ele>
      </trkpt>
      <trkpt lat="44.78473504073918" lon="6.468006810173392">
        <time>2022-01-25T13:49:42+00:00</time>
        <ele>1721.0</ele>
      </trkpt>
      <trkpt lat="44.78473738767207" lon="6.4680249989032745">
        <time>2022-01-25T13:49:43+00:00</time>
        <ele>1721.0</ele>
      </trkpt>
      <trkpt lat="44.784738812595606" lon="6.468051569536328">
        <time>2022-01-25T13:49:45+00:00</time>
        <ele>1722.0</ele>
      </trkpt>
      <trkpt lat="44.78473478928208" lon="6.468142932280898">
        <time>2022-01-25T13:49:54+00:00</time>
        <ele>1725.0</ele>
      </trkpt>
      <trkpt lat="44.78471257723868" lon="6.468173693865538">
        <time>2022-01-25T13:50:01+00:00</time>
        <ele>1731.0</ele>
      </trkpt>
      <trkpt lat="44.78470578789711" lon="6.468190709128976">
        <time>2022-01-25T13:50:04+00:00</time>
        <ele>1733.0</ele>
      </trkpt>
      <trkpt lat="44.784724144265056" lon="6.468203701078892">
        <time>2022-01-25T13:50:09+00:00</time>
        <ele>1729.0</ele>
      </trkpt>
      <trkpt lat="44.784724144265056" lon="6.468203701078892">
        <time>2022-01-25T13:50:17+00:00</time>
        <ele>1729.0</ele>
      </trkpt>
      <trkpt lat="44.784726994112134" lon="6.468203701078892">
        <time>2022-01-25T13:50:25+00:00</time>
        <ele>1728.0</ele>
      </trkpt>
      <trkpt lat="44.78473856113851" lon="6.468200935050845">
        <time>2022-01-25T13:50:36+00:00</time>
        <ele>1725.0</ele>
      </trkpt>
      <trkpt lat="44.78473453782499" lon="6.468125330284238">
        <time>2022-01-25T13:50:43+00:00</time>
        <ele>1724.0</ele>
      </trkpt>
      <trkpt lat="44.78475180454552" lon="6.468085767701268">
        <time>2022-01-25T13:50:52+00:00</time>
        <ele>1720.0</ele>
      </trkpt>
      <trkpt lat="44.78474669158459" lon="6.468085767701268">
        <time>2022-01-25T13:51:03+00:00</time>
        <ele>1721.0</ele>
      </trkpt>
      <trkpt lat="44.784743590280414" lon="6.468085767701268">
        <time>2022-01-25T13:51:07+00:00</time>
        <ele>1721.0</ele>
      </trkpt>
      <trkpt lat="44.78474157862365" lon="6.468093395233154">
        <time>2022-01-25T13:51:30+00:00</time>
        <ele>1722.0</ele>
      </trkpt>
      <trkpt lat="44.78474191389978" lon="6.468093730509281">
        <time>2022-01-25T13:51:32+00:00</time>
        <ele>1722.0</ele>
      </trkpt>
      <trkpt lat="44.78474258445203" lon="6.468102782964706">
        <time>2022-01-25T13:51:37+00:00</time>
        <ele>1722.0</ele>
      </trkpt>
      <trkpt lat="44.784741662442684" lon="6.4681442733854055">
        <time>2022-01-25T13:51:49+00:00</time>
        <ele>1723.0</ele>
      </trkpt>
      <trkpt lat="44.784736800938845" lon="6.46815475076437">
        <time>2022-01-25T13:51:52+00:00</time>
        <ele>1724.0</ele>
      </trkpt>
      <trkpt lat="44.78471567854285" lon="6.468202192336321">
        <time>2022-01-25T13:52:09+00:00</time>
        <ele>1731.0</ele>
      </trkpt>
      <trkpt lat="44.78471492417157" lon="6.46820311434567">
        <time>2022-01-25T13:52:11+00:00</time>
        <ele>1731.0</ele>
      </trkpt>
      <trkpt lat="44.78471408598125" lon="6.468203365802765">
        <time>2022-01-25T13:52:13+00:00</time>
        <ele>1731.0</ele>
      </trkpt>
      <trkpt lat="44.78471224196255" lon="6.468203449621797">
        <time>2022-01-25T13:52:24+00:00</time>
        <ele>1732.0</ele>
      </trkpt>
      <trkpt lat="44.78471274487674" lon="6.468203281983733">
        <time>2022-01-25T13:52:27+00:00</time>
        <ele>1731.0</ele>
      </trkpt>
      <trkpt lat="44.78471349924803" lon="6.468203030526638">
        <time>2022-01-25T13:52:29+00:00</time>
        <ele>1731.0</ele>
      </trkpt>
      <trkpt lat="44.78472230024636" lon="6.468188110738993">
        <time>2022-01-25T13:52:53+00:00</time>
        <ele>1729.0</ele>
      </trkpt>
      <trkpt lat="44.7847234737128" lon="6.468188110738993">
        <time>2022-01-25T13:52:55+00:00</time>
        <ele>1729.0</ele>
      </trkpt>
      <trkpt lat="44.7847253177315" lon="6.4681923016905785">
        <time>2022-01-25T13:53:20+00:00</time>
        <ele>1728.0</ele>
      </trkpt>
      <trkpt lat="44.784710397943854" lon="6.46818995475769">
        <time>2022-01-25T13:53:31+00:00</time>
        <ele>1732.0</ele>
      </trkpt>
      <trkpt lat="44.78470092639327" lon="6.468180315569043">
        <time>2022-01-25T13:54:03+00:00</time>
        <ele>1734.0</ele>
      </trkpt>
      <trkpt lat="44.784701680764556" lon="6.468180734664202">
        <time>2022-01-25T13:54:09+00:00</time>
        <ele>1733.0</ele>
      </trkpt>
      <trkpt lat="44.78470201604068" lon="6.468180734664202">
        <time>2022-01-25T13:54:17+00:00</time>
        <ele>1733.0</ele>
      </trkpt>
      <trkpt lat="44.78470235131681" lon="6.4681808184832335">
        <time>2022-01-25T13:54:23+00:00</time>
        <ele>1733.0</ele>
      </trkpt>
      <trkpt lat="44.784703105688095" lon="6.4681819919496775">
        <time>2022-01-25T13:54:56+00:00</time>
        <ele>1733.0</ele>
      </trkpt>
      <trkpt lat="44.78470251895487" lon="6.4681831654161215">
        <time>2022-01-25T13:55:13+00:00</time>
        <ele>1733.0</ele>
      </trkpt>
      <trkpt lat="44.784702183678746" lon="6.468185093253851">
        <time>2022-01-25T13:55:38+00:00</time>
        <ele>1734.0</ele>
      </trkpt>
      <trkpt lat="44.784702183678746" lon="6.468185260891914">
        <time>2022-01-25T13:55:40+00:00</time>
        <ele>1734.0</ele>
      </trkpt>
      <trkpt lat="44.78470193222165" lon="6.468186434358358">
        <time>2022-01-25T13:55:50+00:00</time>
        <ele>1734.0</ele>
      </trkpt>
      <trkpt lat="44.78470050729811" lon="6.468206383287907">
        <time>2022-01-25T13:56:00+00:00</time>
        <ele>1734.0</ele>
      </trkpt>
      <trkpt lat="44.78469204157591" lon="6.468223733827472">
        <time>2022-01-25T13:56:03+00:00</time>
        <ele>1737.0</ele>
      </trkpt>
      <trkpt lat="44.78468315675855" lon="6.4682370610535145">
        <time>2022-01-25T13:56:07+00:00</time>
        <ele>1739.0</ele>
      </trkpt>
      <trkpt lat="44.784677624702454" lon="6.468241671100259">
        <time>2022-01-25T13:56:11+00:00</time>
        <ele>1741.0</ele>
      </trkpt>
      <trkpt lat="44.784681564196944" lon="6.468241671100259">
        <time>2022-01-25T13:56:18+00:00</time>
        <ele>1740.0</ele>
      </trkpt>
      <trkpt lat="44.78468315675855" lon="6.468241671100259">
        <time>2022-01-25T13:56:22+00:00</time>
        <ele>1740.0</ele>
      </trkpt>
      <trkpt lat="44.78468315675855" lon="6.468241671100259">
        <time>2022-01-25T13:56:23+00:00</time>
        <ele>1740.0</ele>
      </trkpt>
      <trkpt lat="44.78468709625304" lon="6.468239910900593">
        <time>2022-01-25T13:56:28+00:00</time>
        <ele>1739.0</ele>
      </trkpt>
      <trkpt lat="44.78470955975354" lon="6.468233875930309">
        <time>2022-01-25T13:56:43+00:00</time>
        <ele>1733.0</ele>
      </trkpt>
      <trkpt lat="44.784721126779914" lon="6.468234211206436">
        <time>2022-01-25T13:56:54+00:00</time>
        <ele>1730.0</ele>
      </trkpt>
      <trkpt lat="44.78472305461764" lon="6.468234127387404">
        <time>2022-01-25T13:56:56+00:00</time>
        <ele>1729.0</ele>
      </trkpt>
      <trkpt lat="44.78472389280796" lon="6.468234211206436">
        <time>2022-01-25T13:56:58+00:00</time>
        <ele>1729.0</ele>
      </trkpt>
      <trkpt lat="44.784724144265056" lon="6.468234797939658">
        <time>2022-01-25T13:56:59+00:00</time>
        <ele>1729.0</ele>
      </trkpt>
      <trkpt lat="44.784724144265056" lon="6.468235133215785">
        <time>2022-01-25T13:57:00+00:00</time>
        <ele>1729.0</ele>
      </trkpt>
      <trkpt lat="44.78472481481731" lon="6.468236977234483">
        <time>2022-01-25T13:57:05+00:00</time>
        <ele>1729.0</ele>
      </trkpt>
      <trkpt lat="44.78472422808409" lon="6.46823488175869">
        <time>2022-01-25T13:57:14+00:00</time>
        <ele>1729.0</ele>
      </trkpt>
      <trkpt lat="44.78472397662699" lon="6.46823488175869">
        <time>2022-01-25T13:57:15+00:00</time>
        <ele>1729.0</ele>
      </trkpt>
      <trkpt lat="44.78471961803734" lon="6.46823002025485">
        <time>2022-01-25T13:57:21+00:00</time>
        <ele>1730.0</ele>
      </trkpt>
      <trkpt lat="44.78471903130412" lon="6.468227589502931">
        <time>2022-01-25T13:57:23+00:00</time>
        <ele>1730.0</ele>
      </trkpt>
      <trkpt lat="44.78471752256155" lon="6.468222141265869">
        <time>2022-01-25T13:57:30+00:00</time>
        <ele>1730.0</ele>
      </trkpt>
      <trkpt lat="44.7847200371325" lon="6.468222644180059">
        <time>2022-01-25T13:57:46+00:00</time>
        <ele>1730.0</ele>
      </trkpt>
      <trkpt lat="44.784724144265056" lon="6.468228762969375">
        <time>2022-01-25T13:58:21+00:00</time>
        <ele>1729.0</ele>
      </trkpt>
      <trkpt lat="44.784751972183585" lon="6.4681975822895765">
        <time>2022-01-25T13:58:34+00:00</time>
        <ele>1722.0</ele>
      </trkpt>
      <trkpt lat="44.784753480926156" lon="6.468191463500261">
        <time>2022-01-25T13:58:37+00:00</time>
        <ele>1721.0</ele>
      </trkpt>
      <trkpt lat="44.784753983840346" lon="6.468186769634485">
        <time>2022-01-25T13:58:39+00:00</time>
        <ele>1721.0</ele>
      </trkpt>
      <trkpt lat="44.784753397107124" lon="6.468181069940329">
        <time>2022-01-25T13:58:51+00:00</time>
        <ele>1721.0</ele>
      </trkpt>
      <trkpt lat="44.7847496252507" lon="6.468195989727974">
        <time>2022-01-25T13:59:08+00:00</time>
        <ele>1722.0</ele>
      </trkpt>
      <trkpt lat="44.78474836796522" lon="6.468198336660862">
        <time>2022-01-25T13:59:18+00:00</time>
        <ele>1723.0</ele>
      </trkpt>
      <trkpt lat="44.784747613593936" lon="6.468198336660862">
        <time>2022-01-25T13:59:26+00:00</time>
        <ele>1723.0</ele>
      </trkpt>
      <trkpt lat="44.78474685922265" lon="6.468198504298925">
        <time>2022-01-25T13:59:53+00:00</time>
        <ele>1723.0</ele>
      </trkpt>
      <trkpt lat="44.78474677540362" lon="6.468198671936989">
        <time>2022-01-25T13:59:58+00:00</time>
        <ele>1723.0</ele>
      </trkpt>
      <trkpt lat="44.78474644012749" lon="6.468199510127306">
        <time>2022-01-25T14:00:16+00:00</time>
        <ele>1723.0</ele>
      </trkpt>
      <trkpt lat="44.78474627248943" lon="6.468200096860528">
        <time>2022-01-25T14:00:28+00:00</time>
        <ele>1723.0</ele>
      </trkpt>
      <trkpt lat="44.7847461886704" lon="6.468200264498591">
        <time>2022-01-25T14:00:30+00:00</time>
        <ele>1723.0</ele>
      </trkpt>
      <trkpt lat="44.7847461886704" lon="6.468200348317623">
        <time>2022-01-25T14:00:31+00:00</time>
        <ele>1723.0</ele>
      </trkpt>
      <trkpt lat="44.784746104851365" lon="6.468200515955687">
        <time>2022-01-25T14:00:33+00:00</time>
        <ele>1723.0</ele>
      </trkpt>
      <trkpt lat="44.78474602103233" lon="6.468200935050845">
        <time>2022-01-25T14:00:38+00:00</time>
        <ele>1723.0</ele>
      </trkpt>
      <trkpt lat="44.784741662442684" lon="6.468204539269209">
        <time>2022-01-25T14:01:17+00:00</time>
        <ele>1724.0</ele>
      </trkpt>
      <trkpt lat="44.78474099189043" lon="6.468204874545336">
        <time>2022-01-25T14:01:21+00:00</time>
        <ele>1724.0</ele>
      </trkpt>
      <trkpt lat="44.784738812595606" lon="6.468205880373716">
        <time>2022-01-25T14:01:33+00:00</time>
        <ele>1725.0</ele>
      </trkpt>
      <trkpt lat="44.78473621420562" lon="6.468207137659192">
        <time>2022-01-25T14:01:49+00:00</time>
        <ele>1726.0</ele>
      </trkpt>
      <trkpt lat="44.78473604656756" lon="6.468207221478224">
        <time>2022-01-25T14:01:50+00:00</time>
        <ele>1726.0</ele>
      </trkpt>
      <trkpt lat="44.78473445400596" lon="6.468207975849509">
        <time>2022-01-25T14:02:00+00:00</time>
        <ele>1726.0</ele>
      </trkpt>
      <trkpt lat="44.78473428636789" lon="6.468208059668541">
        <time>2022-01-25T14:02:01+00:00</time>
        <ele>1726.0</ele>
      </trkpt>
      <trkpt lat="44.78473411872983" lon="6.468208143487573">
        <time>2022-01-25T14:02:02+00:00</time>
        <ele>1726.0</ele>
      </trkpt>
      <trkpt lat="44.7847337834537" lon="6.468208394944668">
        <time>2022-01-25T14:02:04+00:00</time>
        <ele>1726.0</ele>
      </trkpt>
      <trkpt lat="44.78473311290145" lon="6.468208730220795">
        <time>2022-01-25T14:02:08+00:00</time>
        <ele>1727.0</ele>
      </trkpt>
      <trkpt lat="44.784732442349195" lon="6.468209149315953">
        <time>2022-01-25T14:02:12+00:00</time>
        <ele>1727.0</ele>
      </trkpt>
      <trkpt lat="44.78472297079861" lon="6.468220883980393">
        <time>2022-01-25T14:02:17+00:00</time>
        <ele>1729.0</ele>
      </trkpt>
      <trkpt lat="44.78472732938826" lon="6.468330686911941">
        <time>2022-01-25T14:02:19+00:00</time>
        <ele>1730.0</ele>
      </trkpt>
      <trkpt lat="44.78474836796522" lon="6.468671495094895">
        <time>2022-01-25T14:02:26+00:00</time>
        <ele>1734.0</ele>
      </trkpt>
      <trkpt lat="44.78476060554385" lon="6.468698903918266">
        <time>2022-01-25T14:02:27+00:00</time>
        <ele>1732.0</ele>
      </trkpt>
      <trkpt lat="44.78479337878525" lon="6.468750201165676">
        <time>2022-01-25T14:02:29+00:00</time>
        <ele>1726.0</ele>
      </trkpt>
      <trkpt lat="44.78484249673784" lon="6.4688328467309475">
        <time>2022-01-25T14:02:31+00:00</time>
        <ele>1720.0</ele>
      </trkpt>
      <trkpt lat="44.78486839681864" lon="6.468863524496555">
        <time>2022-01-25T14:02:32+00:00</time>
        <ele>1719.0</ele>
      </trkpt>
      <trkpt lat="44.784884825348854" lon="6.468882467597723">
        <time>2022-01-25T14:02:33+00:00</time>
        <ele>1719.0</ele>
      </trkpt>
      <trkpt lat="44.7849118988961" lon="6.468899818137288">
        <time>2022-01-25T14:02:35+00:00</time>
        <ele>1717.0</ele>
      </trkpt>
      <trkpt lat="44.784935619682074" lon="6.468898896127939">
        <time>2022-01-25T14:02:37+00:00</time>
        <ele>1715.0</ele>
      </trkpt>
      <trkpt lat="44.78499513119459" lon="6.468918928876519">
        <time>2022-01-25T14:02:40+00:00</time>
        <ele>1710.0</ele>
      </trkpt>
      <trkpt lat="44.78502371348441" lon="6.468920689076185">
        <time>2022-01-25T14:02:41+00:00</time>
        <ele>1708.0</ele>
      </trkpt>
      <trkpt lat="44.785052044317126" lon="6.468924293294549">
        <time>2022-01-25T14:02:43+00:00</time>
        <ele>1706.0</ele>
      </trkpt>
      <trkpt lat="44.78507031686604" lon="6.468945499509573">
        <time>2022-01-25T14:02:45+00:00</time>
        <ele>1705.0</ele>
      </trkpt>
      <trkpt lat="44.78508691303432" lon="6.468954300507903">
        <time>2022-01-25T14:02:46+00:00</time>
        <ele>1704.0</ele>
      </trkpt>
      <trkpt lat="44.78509780950844" lon="6.468961928039789">
        <time>2022-01-25T14:02:47+00:00</time>
        <ele>1704.0</ele>
      </trkpt>
      <trkpt lat="44.785105772316456" lon="6.468975590541959">
        <time>2022-01-25T14:02:48+00:00</time>
        <ele>1704.0</ele>
      </trkpt>
      <trkpt lat="44.78511415421963" lon="6.468990007415414">
        <time>2022-01-25T14:02:49+00:00</time>
        <ele>1703.0</ele>
      </trkpt>
      <trkpt lat="44.78511583060026" lon="6.469002244994044">
        <time>2022-01-25T14:02:50+00:00</time>
        <ele>1703.0</ele>
      </trkpt>
      <trkpt lat="44.78512991219759" lon="6.469021607190371">
        <time>2022-01-25T14:02:51+00:00</time>
        <ele>1703.0</ele>
      </trkpt>
      <trkpt lat="44.78513720445335" lon="6.469035856425762">
        <time>2022-01-25T14:02:52+00:00</time>
        <ele>1703.0</ele>
      </trkpt>
      <trkpt lat="44.785143909975886" lon="6.469039628282189">
        <time>2022-01-25T14:02:53+00:00</time>
        <ele>1702.0</ele>
      </trkpt>
      <trkpt lat="44.78516151197255" lon="6.469042897224426">
        <time>2022-01-25T14:02:55+00:00</time>
        <ele>1701.0</ele>
      </trkpt>
      <trkpt lat="44.78518749587238" lon="6.469075251370668">
        <time>2022-01-25T14:02:57+00:00</time>
        <ele>1699.0</ele>
      </trkpt>
      <trkpt lat="44.78525647893548" lon="6.469134511426091">
        <time>2022-01-25T14:02:59+00:00</time>
        <ele>1695.0</ele>
      </trkpt>
      <trkpt lat="44.78528874926269" lon="6.4691453240811825">
        <time>2022-01-25T14:03:00+00:00</time>
        <ele>1692.0</ele>
      </trkpt>
      <trkpt lat="44.785352954640985" lon="6.469121016561985">
        <time>2022-01-25T14:03:02+00:00</time>
        <ele>1685.0</ele>
      </trkpt>
      <trkpt lat="44.78538706898689" lon="6.469110371544957">
        <time>2022-01-25T14:03:03+00:00</time>
        <ele>1681.0</ele>
      </trkpt>
      <trkpt lat="44.78541674092412" lon="6.46911833435297">
        <time>2022-01-25T14:03:04+00:00</time>
        <ele>1679.0</ele>
      </trkpt>
      <trkpt lat="44.78543392382562" lon="6.469119256362319">
        <time>2022-01-25T14:03:06+00:00</time>
        <ele>1678.0</ele>
      </trkpt>
      <trkpt lat="44.78541816584766" lon="6.469103833660483">
        <time>2022-01-25T14:03:14+00:00</time>
        <ele>1678.0</ele>
      </trkpt>
      <trkpt lat="44.78543140925467" lon="6.469093272462487">
        <time>2022-01-25T14:03:16+00:00</time>
        <ele>1677.0</ele>
      </trkpt>
      <trkpt lat="44.78545588441193" lon="6.469091344624758">
        <time>2022-01-25T14:03:19+00:00</time>
        <ele>1675.0</ele>
      </trkpt>
      <trkpt lat="44.78547918610275" lon="6.469100648537278">
        <time>2022-01-25T14:03:22+00:00</time>
        <ele>1674.0</ele>
      </trkpt>
      <trkpt lat="44.785483879968524" lon="6.469108192250133">
        <time>2022-01-25T14:03:26+00:00</time>
        <ele>1674.0</ele>
      </trkpt>
      <trkpt lat="44.78548362851143" lon="6.4691076055169106">
        <time>2022-01-25T14:03:27+00:00</time>
        <ele>1674.0</ele>
      </trkpt>
      <trkpt lat="44.785481952130795" lon="6.469109114259481">
        <time>2022-01-25T14:03:28+00:00</time>
        <ele>1674.0</ele>
      </trkpt>
      <trkpt lat="44.7854867298156" lon="6.4691076055169106">
        <time>2022-01-25T14:03:30+00:00</time>
        <ele>1674.0</ele>
      </trkpt>
      <trkpt lat="44.785487819463015" lon="6.469111377373338">
        <time>2022-01-25T14:03:35+00:00</time>
        <ele>1674.0</ele>
      </trkpt>
      <trkpt lat="44.785487819463015" lon="6.469111377373338">
        <time>2022-01-25T14:03:40+00:00</time>
        <ele>1674.0</ele>
      </trkpt>
      <trkpt lat="44.785487819463015" lon="6.469111377373338">
        <time>2022-01-25T14:03:46+00:00</time>
        <ele>1674.0</ele>
      </trkpt>
      <trkpt lat="44.785487819463015" lon="6.469114227220416">
        <time>2022-01-25T14:03:50+00:00</time>
        <ele>1674.0</ele>
      </trkpt>
      <trkpt lat="44.78550332598388" lon="6.4691247045993805">
        <time>2022-01-25T14:04:01+00:00</time>
        <ele>1673.0</ele>
      </trkpt>
      <trkpt lat="44.78552226908505" lon="6.4691271353513">
        <time>2022-01-25T14:04:12+00:00</time>
        <ele>1672.0</ele>
      </trkpt>
      <trkpt lat="44.78557742200792" lon="6.469162171706557">
        <time>2022-01-25T14:04:17+00:00</time>
        <ele>1670.0</ele>
      </trkpt>
      <trkpt lat="44.785598712041974" lon="6.469184216111898">
        <time>2022-01-25T14:04:18+00:00</time>
        <ele>1669.0</ele>
      </trkpt>
      <trkpt lat="44.78563500568271" lon="6.469219755381346">
        <time>2022-01-25T14:04:20+00:00</time>
        <ele>1668.0</ele>
      </trkpt>
      <trkpt lat="44.78564690798521" lon="6.469236770644784">
        <time>2022-01-25T14:04:21+00:00</time>
        <ele>1668.0</ele>
      </trkpt>
      <trkpt lat="44.78566157631576" lon="6.469246745109558">
        <time>2022-01-25T14:04:23+00:00</time>
        <ele>1667.0</ele>
      </trkpt>
      <trkpt lat="44.78568454273045" lon="6.469281697645783">
        <time>2022-01-25T14:04:30+00:00</time>
        <ele>1667.0</ele>
      </trkpt>
      <trkpt lat="44.7856854647398" lon="6.469283374026418">
        <time>2022-01-25T14:04:31+00:00</time>
        <ele>1667.0</ele>
      </trkpt>
      <trkpt lat="44.78569711558521" lon="6.469298042356968">
        <time>2022-01-25T14:04:37+00:00</time>
        <ele>1666.0</ele>
      </trkpt>
      <trkpt lat="44.78570750914514" lon="6.469314638525248">
        <time>2022-01-25T14:04:43+00:00</time>
        <ele>1666.0</ele>
      </trkpt>
      <trkpt lat="44.785712538287044" lon="6.469315476715565">
        <time>2022-01-25T14:04:47+00:00</time>
        <ele>1666.0</ele>
      </trkpt>
      <trkpt lat="44.78572561405599" lon="6.469320338219404">
        <time>2022-01-25T14:04:51+00:00</time>
        <ele>1665.0</ele>
      </trkpt>
      <trkpt lat="44.78574447333813" lon="6.469361912459135">
        <time>2022-01-25T14:04:56+00:00</time>
        <ele>1665.0</ele>
      </trkpt>
      <trkpt lat="44.785795183852315" lon="6.469447575509548">
        <time>2022-01-25T14:05:00+00:00</time>
        <ele>1664.0</ele>
      </trkpt>
      <trkpt lat="44.78579996153712" lon="6.469459645450115">
        <time>2022-01-25T14:05:01+00:00</time>
        <ele>1664.0</ele>
      </trkpt>
      <trkpt lat="44.78579727932811" lon="6.469461992383003">
        <time>2022-01-25T14:05:04+00:00</time>
        <ele>1664.0</ele>
      </trkpt>
      <trkpt lat="44.785796608775854" lon="6.469455705955625">
        <time>2022-01-25T14:05:05+00:00</time>
        <ele>1664.0</ele>
      </trkpt>
      <trkpt lat="44.785846481099725" lon="6.469416646286845">
        <time>2022-01-25T14:05:09+00:00</time>
        <ele>1660.0</ele>
      </trkpt>
      <trkpt lat="44.785864083096385" lon="6.469431146979332">
        <time>2022-01-25T14:05:10+00:00</time>
        <ele>1659.0</ele>
      </trkpt>
      <trkpt lat="44.78587933816016" lon="6.469434080645442">
        <time>2022-01-25T14:05:11+00:00</time>
        <ele>1658.0</ele>
      </trkpt>
      <trkpt lat="44.78589124046266" lon="6.469431230798364">
        <time>2022-01-25T14:05:12+00:00</time>
        <ele>1658.0</ele>
      </trkpt>
      <trkpt lat="44.78589652106166" lon="6.469414886087179">
        <time>2022-01-25T14:05:13+00:00</time>
        <ele>1657.0</ele>
      </trkpt>
      <trkpt lat="44.785903142765164" lon="6.469406085088849">
        <time>2022-01-25T14:05:14+00:00</time>
        <ele>1656.0</ele>
      </trkpt>
      <trkpt lat="44.785937927663326" lon="6.469404827803373">
        <time>2022-01-25T14:05:16+00:00</time>
        <ele>1654.0</ele>
      </trkpt>
      <trkpt lat="44.785960307344794" lon="6.469409354031086">
        <time>2022-01-25T14:05:18+00:00</time>
        <ele>1653.0</ele>
      </trkpt>
      <trkpt lat="44.78596449829638" lon="6.4693947695195675">
        <time>2022-01-25T14:05:19+00:00</time>
        <ele>1653.0</ele>
      </trkpt>
      <trkpt lat="44.785966174677014" lon="6.469383537769318">
        <time>2022-01-25T14:05:20+00:00</time>
        <ele>1652.0</ele>
      </trkpt>
      <trkpt lat="44.78596759960055" lon="6.469377754256129">
        <time>2022-01-25T14:05:21+00:00</time>
        <ele>1652.0</ele>
      </trkpt>
      <trkpt lat="44.78599634952843" lon="6.469354871660471">
        <time>2022-01-25T14:05:23+00:00</time>
        <ele>1650.0</ele>
      </trkpt>
      <trkpt lat="44.786006240174174" lon="6.469351602718234">
        <time>2022-01-25T14:05:24+00:00</time>
        <ele>1649.0</ele>
      </trkpt>
      <trkpt lat="44.786022417247295" lon="6.46934506483376">
        <time>2022-01-25T14:05:25+00:00</time>
        <ele>1648.0</ele>
      </trkpt>
      <trkpt lat="44.78603289462626" lon="6.46931815892458">
        <time>2022-01-25T14:05:26+00:00</time>
        <ele>1647.0</ele>
      </trkpt>
      <trkpt lat="44.78603582829237" lon="6.469292007386684">
        <time>2022-01-25T14:05:27+00:00</time>
        <ele>1646.0</ele>
      </trkpt>
      <trkpt lat="44.78603381663561" lon="6.469275830313563">
        <time>2022-01-25T14:05:28+00:00</time>
        <ele>1646.0</ele>
      </trkpt>
      <trkpt lat="44.786038510501385" lon="6.469272896647453">
        <time>2022-01-25T14:05:29+00:00</time>
        <ele>1646.0</ele>
      </trkpt>
      <trkpt lat="44.78604370728135" lon="6.4692725613713264">
        <time>2022-01-25T14:05:30+00:00</time>
        <ele>1645.0</ele>
      </trkpt>
      <trkpt lat="44.786044880747795" lon="6.469272477552295">
        <time>2022-01-25T14:05:34+00:00</time>
        <ele>1645.0</ele>
      </trkpt>
      <trkpt lat="44.78601965121925" lon="6.469257641583681">
        <time>2022-01-25T14:05:38+00:00</time>
        <ele>1647.0</ele>
      </trkpt>
      <trkpt lat="44.78602610528469" lon="6.469264179468155">
        <time>2022-01-25T14:05:47+00:00</time>
        <ele>1646.0</ele>
      </trkpt>
      <trkpt lat="44.78602610528469" lon="6.469263508915901">
        <time>2022-01-25T14:05:57+00:00</time>
        <ele>1646.0</ele>
      </trkpt>
      <trkpt lat="44.78602853603661" lon="6.469262503087521">
        <time>2022-01-25T14:06:11+00:00</time>
        <ele>1646.0</ele>
      </trkpt>
      <trkpt lat="44.7860308829695" lon="6.469263089820743">
        <time>2022-01-25T14:06:15+00:00</time>
        <ele>1646.0</ele>
      </trkpt>
      <trkpt lat="44.78603390045464" lon="6.469266023486853">
        <time>2022-01-25T14:06:20+00:00</time>
        <ele>1646.0</ele>
      </trkpt>
      <trkpt lat="44.7860377561301" lon="6.469264179468155">
        <time>2022-01-25T14:06:22+00:00</time>
        <ele>1646.0</ele>
      </trkpt>
      <trkpt lat="44.78605502285063" lon="6.4692507684230804">
        <time>2022-01-25T14:06:23+00:00</time>
        <ele>1644.0</ele>
      </trkpt>
      <trkpt lat="44.78608025237918" lon="6.469241213053465">
        <time>2022-01-25T14:06:25+00:00</time>
        <ele>1642.0</ele>
      </trkpt>
      <trkpt lat="44.78608813136816" lon="6.469231070950627">
        <time>2022-01-25T14:06:26+00:00</time>
        <ele>1642.0</ele>
      </trkpt>
      <trkpt lat="44.78611897677183" lon="6.469212966039777">
        <time>2022-01-25T14:06:28+00:00</time>
        <ele>1639.0</ele>
      </trkpt>
      <trkpt lat="44.78613741695881" lon="6.469206344336271">
        <time>2022-01-25T14:06:29+00:00</time>
        <ele>1638.0</ele>
      </trkpt>
      <trkpt lat="44.78615309111774" lon="6.469182539731264">
        <time>2022-01-25T14:06:30+00:00</time>
        <ele>1637.0</ele>
      </trkpt>
      <trkpt lat="44.78617622517049" lon="6.469132918864489">
        <time>2022-01-25T14:06:32+00:00</time>
        <ele>1634.0</ele>
      </trkpt>
      <trkpt lat="44.786184187978506" lon="6.469125961884856">
        <time>2022-01-25T14:06:33+00:00</time>
        <ele>1633.0</ele>
      </trkpt>
      <trkpt lat="44.786196844652295" lon="6.469096792861819">
        <time>2022-01-25T14:06:35+00:00</time>
        <ele>1632.0</ele>
      </trkpt>
      <trkpt lat="44.78619768284261" lon="6.469062594696879">
        <time>2022-01-25T14:06:37+00:00</time>
        <ele>1631.0</ele>
      </trkpt>
      <trkpt lat="44.78621503338218" lon="6.469044322147965">
        <time>2022-01-25T14:06:38+00:00</time>
        <ele>1630.0</ele>
      </trkpt>
      <trkpt lat="44.7862552665174" lon="6.469041723757982">
        <time>2022-01-25T14:06:40+00:00</time>
        <ele>1628.0</ele>
      </trkpt>
      <trkpt lat="44.78625426068902" lon="6.469033006578684">
        <time>2022-01-25T14:06:42+00:00</time>
        <ele>1628.0</ele>
      </trkpt>
      <trkpt lat="44.78625434450805" lon="6.469029989093542">
        <time>2022-01-25T14:06:43+00:00</time>
        <ele>1628.0</ele>
      </trkpt>
      <trkpt lat="44.78628544136882" lon="6.4690083637833595">
        <time>2022-01-25T14:06:46+00:00</time>
        <ele>1625.0</ele>
      </trkpt>
      <trkpt lat="44.786303294822574" lon="6.468998808413744">
        <time>2022-01-25T14:06:48+00:00</time>
        <ele>1624.0</ele>
      </trkpt>
      <trkpt lat="44.78631125763059" lon="6.468988163396716">
        <time>2022-01-25T14:06:49+00:00</time>
        <ele>1624.0</ele>
      </trkpt>
      <trkpt lat="44.78631176054478" lon="6.468979446217418">
        <time>2022-01-25T14:06:50+00:00</time>
        <ele>1623.0</ele>
      </trkpt>
      <trkpt lat="44.78632693178952" lon="6.468975841999054">
        <time>2022-01-25T14:06:51+00:00</time>
        <ele>1623.0</ele>
      </trkpt>
      <trkpt lat="44.78633933700621" lon="6.468972908332944">
        <time>2022-01-25T14:06:52+00:00</time>
        <ele>1622.0</ele>
      </trkpt>
      <trkpt lat="44.786337995901704" lon="6.468970058485866">
        <time>2022-01-25T14:06:53+00:00</time>
        <ele>1622.0</ele>
      </trkpt>
      <trkpt lat="44.78634553961456" lon="6.468946589156985">
        <time>2022-01-25T14:06:54+00:00</time>
        <ele>1621.0</ele>
      </trkpt>
      <trkpt lat="44.7863985132426" lon="6.468928987160325">
        <time>2022-01-25T14:06:56+00:00</time>
        <ele>1617.0</ele>
      </trkpt>
      <trkpt lat="44.78641318157315" lon="6.468929490074515">
        <time>2022-01-25T14:06:57+00:00</time>
        <ele>1617.0</ele>
      </trkpt>
      <trkpt lat="44.786427430808544" lon="6.468930831179023">
        <time>2022-01-25T14:06:58+00:00</time>
        <ele>1616.0</ele>
      </trkpt>
      <trkpt lat="44.78644662536681" lon="6.468927813693881">
        <time>2022-01-25T14:07:00+00:00</time>
        <ele>1615.0</ele>
      </trkpt>
      <trkpt lat="44.78646489791572" lon="6.468923706561327">
        <time>2022-01-25T14:07:03+00:00</time>
        <ele>1614.0</ele>
      </trkpt>
      <trkpt lat="44.78647369891405" lon="6.468915576115251">
        <time>2022-01-25T14:07:05+00:00</time>
        <ele>1613.0</ele>
      </trkpt>
      <trkpt lat="44.786472357809544" lon="6.468862853944302">
        <time>2022-01-25T14:07:07+00:00</time>
        <ele>1612.0</ele>
      </trkpt>
      <trkpt lat="44.78645224124193" lon="6.468784650787711">
        <time>2022-01-25T14:07:09+00:00</time>
        <ele>1611.0</ele>
      </trkpt>
      <trkpt lat="44.786468502134085" lon="6.468711141496897">
        <time>2022-01-25T14:07:11+00:00</time>
        <ele>1608.0</ele>
      </trkpt>
      <trkpt lat="44.78649306111038" lon="6.468686917796731">
        <time>2022-01-25T14:07:12+00:00</time>
        <ele>1606.0</ele>
      </trkpt>
      <trkpt lat="44.78651192039251" lon="6.468671327456832">
        <time>2022-01-25T14:07:13+00:00</time>
        <ele>1605.0</ele>
      </trkpt>
      <trkpt lat="44.78651862591505" lon="6.468643834814429">
        <time>2022-01-25T14:07:15+00:00</time>
        <ele>1604.0</ele>
      </trkpt>
      <trkpt lat="44.78652189485729" lon="6.468610391020775">
        <time>2022-01-25T14:07:16+00:00</time>
        <ele>1603.0</ele>
      </trkpt>
      <trkpt lat="44.78653974831104" lon="6.46859404630959">
        <time>2022-01-25T14:07:17+00:00</time>
        <ele>1602.0</ele>
      </trkpt>
      <trkpt lat="44.78657612577081" lon="6.468596728518605">
        <time>2022-01-25T14:07:19+00:00</time>
        <ele>1600.0</ele>
      </trkpt>
      <trkpt lat="44.786591632291675" lon="6.468578455969691">
        <time>2022-01-25T14:07:20+00:00</time>
        <ele>1599.0</ele>
      </trkpt>
      <trkpt lat="44.78661250323057" lon="6.468561859801412">
        <time>2022-01-25T14:07:21+00:00</time>
        <ele>1597.0</ele>
      </trkpt>
      <trkpt lat="44.78663295507431" lon="6.46855691447854">
        <time>2022-01-25T14:07:22+00:00</time>
        <ele>1596.0</ele>
      </trkpt>
      <trkpt lat="44.78663966059685" lon="6.468548700213432">
        <time>2022-01-25T14:07:23+00:00</time>
        <ele>1596.0</ele>
      </trkpt>
      <trkpt lat="44.78667402639985" lon="6.468523386865854">
        <time>2022-01-25T14:07:25+00:00</time>
        <ele>1593.0</ele>
      </trkpt>
      <trkpt lat="44.786692298948765" lon="6.468520704656839">
        <time>2022-01-25T14:07:26+00:00</time>
        <ele>1592.0</ele>
      </trkpt>
      <trkpt lat="44.786709398031235" lon="6.468520201742649">
        <time>2022-01-25T14:07:27+00:00</time>
        <ele>1591.0</ele>
      </trkpt>
      <trkpt lat="44.7867180313915" lon="6.46849924698472">
        <time>2022-01-25T14:07:28+00:00</time>
        <ele>1591.0</ele>
      </trkpt>
      <trkpt lat="44.78674778714776" lon="6.468474017456174">
        <time>2022-01-25T14:07:30+00:00</time>
        <ele>1588.0</ele>
      </trkpt>
      <trkpt lat="44.786759186536074" lon="6.4684688206762075">
        <time>2022-01-25T14:07:31+00:00</time>
        <ele>1588.0</ele>
      </trkpt>
      <trkpt lat="44.786806711927056" lon="6.46847041323781">
        <time>2022-01-25T14:07:33+00:00</time>
        <ele>1586.0</ele>
      </trkpt>
      <trkpt lat="44.78682733140886" lon="6.468489523977041">
        <time>2022-01-25T14:07:34+00:00</time>
        <ele>1585.0</ele>
      </trkpt>
      <trkpt lat="44.78684744797647" lon="6.46851634606719">
        <time>2022-01-25T14:07:35+00:00</time>
        <ele>1585.0</ele>
      </trkpt>
      <trkpt lat="44.78688516654074" lon="6.468551466241479">
        <time>2022-01-25T14:07:37+00:00</time>
        <ele>1584.0</ele>
      </trkpt>
      <trkpt lat="44.78692187927663" lon="6.468552555888891">
        <time>2022-01-25T14:07:40+00:00</time>
        <ele>1582.0</ele>
      </trkpt>
      <trkpt lat="44.786929255351424" lon="6.46853688172996">
        <time>2022-01-25T14:07:41+00:00</time>
        <ele>1582.0</ele>
      </trkpt>
      <trkpt lat="44.78694811463356" lon="6.468522883951664">
        <time>2022-01-25T14:07:42+00:00</time>
        <ele>1581.0</ele>
      </trkpt>
      <trkpt lat="44.78698491118848" lon="6.468521375209093">
        <time>2022-01-25T14:07:44+00:00</time>
        <ele>1579.0</ele>
      </trkpt>
      <trkpt lat="44.78699488565326" lon="6.468528835102916">
        <time>2022-01-25T14:07:45+00:00</time>
        <ele>1579.0</ele>
      </trkpt>
      <trkpt lat="44.786998741328716" lon="6.468534534797072">
        <time>2022-01-25T14:07:46+00:00</time>
        <ele>1579.0</ele>
      </trkpt>
      <trkpt lat="44.78699957951903" lon="6.468530930578709">
        <time>2022-01-25T14:07:48+00:00</time>
        <ele>1579.0</ele>
      </trkpt>
      <trkpt lat="44.78700812906027" lon="6.4685283321887255">
        <time>2022-01-25T14:07:55+00:00</time>
        <ele>1578.0</ele>
      </trkpt>
      <trkpt lat="44.78700561448932" lon="6.468526152893901">
        <time>2022-01-25T14:08:03+00:00</time>
        <ele>1578.0</ele>
      </trkpt>
      <trkpt lat="44.78701952844858" lon="6.46851534023881">
        <time>2022-01-25T14:08:48+00:00</time>
        <ele>1577.0</ele>
      </trkpt>
      <trkpt lat="44.78702330030501" lon="6.468515424057841">
        <time>2022-01-25T14:08:52+00:00</time>
        <ele>1577.0</ele>
      </trkpt>
      <trkpt lat="44.78703101165593" lon="6.468516429886222">
        <time>2022-01-25T14:08:55+00:00</time>
        <ele>1577.0</ele>
      </trkpt>
      <trkpt lat="44.787044087424874" lon="6.468517519533634">
        <time>2022-01-25T14:08:58+00:00</time>
        <ele>1576.0</ele>
      </trkpt>
      <trkpt lat="44.78705909103155" lon="6.468521039932966">
        <time>2022-01-25T14:09:15+00:00</time>
        <ele>1576.0</ele>
      </trkpt>
      <trkpt lat="44.78711080737412" lon="6.468551466241479">
        <time>2022-01-25T14:09:17+00:00</time>
        <ele>1574.0</ele>
      </trkpt>
      <trkpt lat="44.78714249096811" lon="6.4685913641005754">
        <time>2022-01-25T14:09:19+00:00</time>
        <ele>1573.0</ele>
      </trkpt>
      <trkpt lat="44.787205355241895" lon="6.468655234202743">
        <time>2022-01-25T14:09:22+00:00</time>
        <ele>1572.0</ele>
      </trkpt>
      <trkpt lat="44.78722714819014" lon="6.468678954988718">
        <time>2022-01-25T14:09:23+00:00</time>
        <ele>1572.0</ele>
      </trkpt>
      <trkpt lat="44.787282049655914" lon="6.468706531450152">
        <time>2022-01-25T14:09:26+00:00</time>
        <ele>1569.0</ele>
      </trkpt>
      <trkpt lat="44.78728481568396" lon="6.46870544180274">
        <time>2022-01-25T14:09:27+00:00</time>
        <ele>1569.0</ele>
      </trkpt>
      <trkpt lat="44.787279702723026" lon="6.4687020890414715">
        <time>2022-01-25T14:09:29+00:00</time>
        <ele>1569.0</ele>
      </trkpt>
      <trkpt lat="44.78728070855141" lon="6.468640398234129">
        <time>2022-01-25T14:09:32+00:00</time>
        <ele>1568.0</ele>
      </trkpt>
      <trkpt lat="44.787274338305" lon="6.468595806509256">
        <time>2022-01-25T14:09:33+00:00</time>
        <ele>1568.0</ele>
      </trkpt>
      <trkpt lat="44.787281546741724" lon="6.4685548190027475">
        <time>2022-01-25T14:09:34+00:00</time>
        <ele>1567.0</ele>
      </trkpt>
      <trkpt lat="44.78730199858546" lon="6.468537217006087">
        <time>2022-01-25T14:09:35+00:00</time>
        <ele>1566.0</ele>
      </trkpt>
      <trkpt lat="44.78733837604523" lon="6.468556076288223">
        <time>2022-01-25T14:09:37+00:00</time>
        <ele>1565.0</ele>
      </trkpt>
      <trkpt lat="44.78736142627895" lon="6.468575019389391">
        <time>2022-01-25T14:09:38+00:00</time>
        <ele>1564.0</ele>
      </trkpt>
      <trkpt lat="44.787376346066594" lon="6.468583904206753">
        <time>2022-01-25T14:09:39+00:00</time>
        <ele>1564.0</ele>
      </trkpt>
      <trkpt lat="44.787414986640215" lon="6.468595387414098">
        <time>2022-01-25T14:09:41+00:00</time>
        <ele>1562.0</ele>
      </trkpt>
      <trkpt lat="44.78742009960115" lon="6.468604858964682">
        <time>2022-01-25T14:09:42+00:00</time>
        <ele>1562.0</ele>
      </trkpt>
      <trkpt lat="44.78742403909564" lon="6.468607960268855">
        <time>2022-01-25T14:09:43+00:00</time>
        <ele>1562.0</ele>
      </trkpt>
      <trkpt lat="44.78741968050599" lon="6.46861357614398">
        <time>2022-01-25T14:09:44+00:00</time>
        <ele>1562.0</ele>
      </trkpt>
      <trkpt lat="44.78741817176342" lon="6.468604942783713">
        <time>2022-01-25T14:09:46+00:00</time>
        <ele>1562.0</ele>
      </trkpt>
      <trkpt lat="44.787457985803485" lon="6.468585915863514">
        <time>2022-01-25T14:09:49+00:00</time>
        <ele>1560.0</ele>
      </trkpt>
      <trkpt lat="44.78750450536609" lon="6.468568816781044">
        <time>2022-01-25T14:09:53+00:00</time>
        <ele>1558.0</ele>
      </trkpt>
      <trkpt lat="44.78752319701016" lon="6.468569654971361">
        <time>2022-01-25T14:09:55+00:00</time>
        <ele>1558.0</ele>
      </trkpt>
      <trkpt lat="44.787542475387454" lon="6.468563787639141">
        <time>2022-01-25T14:09:56+00:00</time>
        <ele>1557.0</ele>
      </trkpt>
      <trkpt lat="44.78755588643253" lon="6.468541407957673">
        <time>2022-01-25T14:09:57+00:00</time>
        <ele>1556.0</ele>
      </trkpt>
      <trkpt lat="44.78755823336542" lon="6.468504276126623">
        <time>2022-01-25T14:09:58+00:00</time>
        <ele>1555.0</ele>
      </trkpt>
      <trkpt lat="44.787557730451226" lon="6.4684688206762075">
        <time>2022-01-25T14:09:59+00:00</time>
        <ele>1555.0</ele>
      </trkpt>
      <trkpt lat="44.78754750452936" lon="6.468439232558012">
        <time>2022-01-25T14:10:00+00:00</time>
        <ele>1555.0</ele>
      </trkpt>
      <trkpt lat="44.787541972473264" lon="6.46842448040843">
        <time>2022-01-25T14:10:02+00:00</time>
        <ele>1555.0</ele>
      </trkpt>
      <trkpt lat="44.78758958168328" lon="6.46843914873898">
        <time>2022-01-25T14:10:09+00:00</time>
        <ele>1553.0</ele>
      </trkpt>
      <trkpt lat="44.78759218007326" lon="6.468440992757678">
        <time>2022-01-25T14:10:10+00:00</time>
        <ele>1553.0</ele>
      </trkpt>
      <trkpt lat="44.78759109042585" lon="6.46843277849257">
        <time>2022-01-25T14:10:16+00:00</time>
        <ele>1553.0</ele>
      </trkpt>
      <trkpt lat="44.78758094832301" lon="6.4684555772691965">
        <time>2022-01-25T14:10:19+00:00</time>
        <ele>1554.0</ele>
      </trkpt>
      <trkpt lat="44.78758094832301" lon="6.4684555772691965">
        <time>2022-01-25T14:10:21+00:00</time>
        <ele>1554.0</ele>
      </trkpt>
      <trkpt lat="44.78758094832301" lon="6.4684555772691965">
        <time>2022-01-25T14:10:23+00:00</time>
        <ele>1554.0</ele>
      </trkpt>
      <trkpt lat="44.78763182647526" lon="6.468552723526955">
        <time>2022-01-25T14:10:29+00:00</time>
        <ele>1553.0</ele>
      </trkpt>
      <trkpt lat="44.78765554726124" lon="6.468588346615434">
        <time>2022-01-25T14:10:30+00:00</time>
        <ele>1552.0</ele>
      </trkpt>
      <trkpt lat="44.78772209957242" lon="6.4687462616711855">
        <time>2022-01-25T14:10:34+00:00</time>
        <ele>1551.0</ele>
      </trkpt>
      <trkpt lat="44.78773039765656" lon="6.468787835910916">
        <time>2022-01-25T14:10:35+00:00</time>
        <ele>1551.0</ele>
      </trkpt>
      <trkpt lat="44.78774657472968" lon="6.4688805397599936">
        <time>2022-01-25T14:10:40+00:00</time>
        <ele>1551.0</ele>
      </trkpt>
      <trkpt lat="44.787736013531685" lon="6.468933094292879">
        <time>2022-01-25T14:10:47+00:00</time>
        <ele>1552.0</ele>
      </trkpt>
      <trkpt lat="44.78773718699813" lon="6.468981625512242">
        <time>2022-01-25T14:10:54+00:00</time>
        <ele>1552.0</ele>
      </trkpt>
      <trkpt lat="44.78773911483586" lon="6.468995874747634">
        <time>2022-01-25T14:10:56+00:00</time>
        <ele>1552.0</ele>
      </trkpt>
      <trkpt lat="44.7877558786422" lon="6.469081370159984">
        <time>2022-01-25T14:11:02+00:00</time>
        <ele>1552.0</ele>
      </trkpt>
      <trkpt lat="44.7878198325634" lon="6.469246242195368">
        <time>2022-01-25T14:11:08+00:00</time>
        <ele>1550.0</ele>
      </trkpt>
      <trkpt lat="44.78783408179879" lon="6.4692578092217445">
        <time>2022-01-25T14:11:10+00:00</time>
        <ele>1550.0</ele>
      </trkpt>
      <trkpt lat="44.787850426509976" lon="6.469295108690858">
        <time>2022-01-25T14:11:13+00:00</time>
        <ele>1549.0</ele>
      </trkpt>
      <trkpt lat="44.787844056263566" lon="6.469322768971324">
        <time>2022-01-25T14:11:17+00:00</time>
        <ele>1549.0</ele>
      </trkpt>
      <trkpt lat="44.787870878353715" lon="6.469369623810053">
        <time>2022-01-25T14:11:23+00:00</time>
        <ele>1549.0</ele>
      </trkpt>
      <trkpt lat="44.78794916532934" lon="6.4694206696003675">
        <time>2022-01-25T14:11:29+00:00</time>
        <ele>1547.0</ele>
      </trkpt>
      <trkpt lat="44.78795729577541" lon="6.4694500900805">
        <time>2022-01-25T14:11:33+00:00</time>
        <ele>1546.0</ele>
      </trkpt>
      <trkpt lat="44.78799099102616" lon="6.469477498903871">
        <time>2022-01-25T14:11:40+00:00</time>
        <ele>1546.0</ele>
      </trkpt>
      <trkpt lat="44.78801186196506" lon="6.469586296007037">
        <time>2022-01-25T14:11:46+00:00</time>
        <ele>1545.0</ele>
      </trkpt>
      <trkpt lat="44.788003731518984" lon="6.469675647094846">
        <time>2022-01-25T14:11:52+00:00</time>
        <ele>1546.0</ele>
      </trkpt>
      <trkpt lat="44.78801026940346" lon="6.46975695155561">
        <time>2022-01-25T14:11:58+00:00</time>
        <ele>1546.0</ele>
      </trkpt>
      <trkpt lat="44.78803482837975" lon="6.469813529402018">
        <time>2022-01-25T14:12:02+00:00</time>
        <ele>1545.0</ele>
      </trkpt>
      <trkpt lat="44.78803155943751" lon="6.469817887991667">
        <time>2022-01-25T14:12:03+00:00</time>
        <ele>1545.0</ele>
      </trkpt>
      <trkpt lat="44.78804170154035" lon="6.469877399504185">
        <time>2022-01-25T14:12:10+00:00</time>
        <ele>1546.0</ele>
      </trkpt>
      <trkpt lat="44.78802007623017" lon="6.469924338161945">
        <time>2022-01-25T14:12:16+00:00</time>
        <ele>1547.0</ele>
      </trkpt>
      <trkpt lat="44.78801622055471" lon="6.469960045069456">
        <time>2022-01-25T14:12:20+00:00</time>
        <ele>1547.0</ele>
      </trkpt>
      <trkpt lat="44.78801764547825" lon="6.469972198829055">
        <time>2022-01-25T14:12:22+00:00</time>
        <ele>1547.0</ele>
      </trkpt>
      <trkpt lat="44.78801395744085" lon="6.470012431964278">
        <time>2022-01-25T14:12:27+00:00</time>
        <ele>1547.0</ele>
      </trkpt>
      <trkpt lat="44.788018399849534" lon="6.470051994547248">
        <time>2022-01-25T14:12:33+00:00</time>
        <ele>1547.0</ele>
      </trkpt>
      <trkpt lat="44.78802812285721" lon="6.470073452219367">
        <time>2022-01-25T14:12:34+00:00</time>
        <ele>1547.0</ele>
      </trkpt>
      <trkpt lat="44.78807682171464" lon="6.470154924318194">
        <time>2022-01-25T14:12:37+00:00</time>
        <ele>1547.0</ele>
      </trkpt>
      <trkpt lat="44.78809534572065" lon="6.470231954008341">
        <time>2022-01-25T14:12:39+00:00</time>
        <ele>1547.0</ele>
      </trkpt>
      <trkpt lat="44.788138177245855" lon="6.4703436847776175">
        <time>2022-01-25T14:12:41+00:00</time>
        <ele>1546.0</ele>
      </trkpt>
      <trkpt lat="44.78814924135804" lon="6.470409315079451">
        <time>2022-01-25T14:12:42+00:00</time>
        <ele>1546.0</ele>
      </trkpt>
      <trkpt lat="44.78817061521113" lon="6.470481567084789">
        <time>2022-01-25T14:12:43+00:00</time>
        <ele>1546.0</ele>
      </trkpt>
      <trkpt lat="44.78820355609059" lon="6.470562620088458">
        <time>2022-01-25T14:12:44+00:00</time>
        <ele>1546.0</ele>
      </trkpt>
      <trkpt lat="44.78823012672365" lon="6.470651384443045">
        <time>2022-01-25T14:12:45+00:00</time>
        <ele>1546.0</ele>
      </trkpt>
      <trkpt lat="44.78824948891997" lon="6.470733359456062">
        <time>2022-01-25T14:12:46+00:00</time>
        <ele>1547.0</ele>
      </trkpt>
      <trkpt lat="44.7882738802582" lon="6.4708087127655745">
        <time>2022-01-25T14:12:47+00:00</time>
        <ele>1547.0</ele>
      </trkpt>
      <trkpt lat="44.78830497711897" lon="6.470878114923835">
        <time>2022-01-25T14:12:48+00:00</time>
        <ele>1547.0</ele>
      </trkpt>
      <trkpt lat="44.788332637399435" lon="6.470944499596953">
        <time>2022-01-25T14:12:49+00:00</time>
        <ele>1546.0</ele>
      </trkpt>
      <trkpt lat="44.78837890550494" lon="6.471063941717148">
        <time>2022-01-25T14:12:51+00:00</time>
        <ele>1546.0</ele>
      </trkpt>
      <trkpt lat="44.78838971816003" lon="6.4711108803749084">
        <time>2022-01-25T14:12:52+00:00</time>
        <ele>1546.0</ele>
      </trkpt>
      <trkpt lat="44.78840036317706" lon="6.471148682758212">
        <time>2022-01-25T14:12:53+00:00</time>
        <ele>1545.0</ele>
      </trkpt>
      <trkpt lat="44.78844369761646" lon="6.47121699526906">
        <time>2022-01-25T14:12:55+00:00</time>
        <ele>1544.0</ele>
      </trkpt>
      <trkpt lat="44.78847982361913" lon="6.471290420740843">
        <time>2022-01-25T14:12:57+00:00</time>
        <ele>1543.0</ele>
      </trkpt>
      <trkpt lat="44.788518799468875" lon="6.471358900889754">
        <time>2022-01-25T14:12:59+00:00</time>
        <ele>1542.0</ele>
      </trkpt>
      <trkpt lat="44.78861049748957" lon="6.471485048532486">
        <time>2022-01-25T14:13:02+00:00</time>
        <ele>1540.0</ele>
      </trkpt>
      <trkpt lat="44.78865617886186" lon="6.4715290535241365">
        <time>2022-01-25T14:13:03+00:00</time>
        <ele>1539.0</ele>
      </trkpt>
      <trkpt lat="44.78872809559107" lon="6.471621338278055">
        <time>2022-01-25T14:13:05+00:00</time>
        <ele>1538.0</ele>
      </trkpt>
      <trkpt lat="44.78875298984349" lon="6.471665594726801">
        <time>2022-01-25T14:13:06+00:00</time>
        <ele>1537.0</ele>
      </trkpt>
      <trkpt lat="44.788784673437476" lon="6.471728878095746">
        <time>2022-01-25T14:13:08+00:00</time>
        <ele>1537.0</ele>
      </trkpt>
      <trkpt lat="44.78879397735" lon="6.471744803711772">
        <time>2022-01-25T14:13:09+00:00</time>
        <ele>1537.0</ele>
      </trkpt>
      <trkpt lat="44.78882163763046" lon="6.471791826188564">
        <time>2022-01-25T14:13:14+00:00</time>
        <ele>1536.0</ele>
      </trkpt>
      <trkpt lat="44.78882281109691" lon="6.471826862543821">
        <time>2022-01-25T14:13:16+00:00</time>
        <ele>1536.0</ele>
      </trkpt>
      <trkpt lat="44.788834461942315" lon="6.471877992153168">
        <time>2022-01-25T14:13:21+00:00</time>
        <ele>1537.0</ele>
      </trkpt>
      <trkpt lat="44.78881669230759" lon="6.471914956346154">
        <time>2022-01-25T14:13:26+00:00</time>
        <ele>1537.0</ele>
      </trkpt>
      <trkpt lat="44.788812920451164" lon="6.471927696838975">
        <time>2022-01-25T14:13:27+00:00</time>
        <ele>1537.0</ele>
      </trkpt>
      <trkpt lat="44.7888489626348" lon="6.471970025449991">
        <time>2022-01-25T14:13:33+00:00</time>
        <ele>1537.0</ele>
      </trkpt>
      <trkpt lat="44.78885960765183" lon="6.472098184749484">
        <time>2022-01-25T14:13:38+00:00</time>
        <ele>1537.0</ele>
      </trkpt>
      <trkpt lat="44.7888751141727" lon="6.472182422876358">
        <time>2022-01-25T14:13:41+00:00</time>
        <ele>1537.0</ele>
      </trkpt>
      <trkpt lat="44.78888123296201" lon="6.472207233309746">
        <time>2022-01-25T14:13:42+00:00</time>
        <ele>1537.0</ele>
      </trkpt>
      <trkpt lat="44.78888944722712" lon="6.472231708467007">
        <time>2022-01-25T14:13:43+00:00</time>
        <ele>1537.0</ele>
      </trkpt>
      <trkpt lat="44.78890000842512" lon="6.47224947810173">
        <time>2022-01-25T14:13:44+00:00</time>
        <ele>1537.0</ele>
      </trkpt>
      <trkpt lat="44.78894283995032" lon="6.472280994057655">
        <time>2022-01-25T14:13:48+00:00</time>
        <ele>1536.0</ele>
      </trkpt>
      <trkpt lat="44.789001094177365" lon="6.472319550812244">
        <time>2022-01-25T14:13:50+00:00</time>
        <ele>1536.0</ele>
      </trkpt>
      <trkpt lat="44.78903470560908" lon="6.47234570235014">
        <time>2022-01-25T14:13:51+00:00</time>
        <ele>1535.0</ele>
      </trkpt>
      <trkpt lat="44.78910234756768" lon="6.472390461713076">
        <time>2022-01-25T14:13:53+00:00</time>
        <ele>1534.0</ele>
      </trkpt>
      <trkpt lat="44.78921106085181" lon="6.472442848607898">
        <time>2022-01-25T14:13:57+00:00</time>
        <ele>1532.0</ele>
      </trkpt>
      <trkpt lat="44.789231177419424" lon="6.472459025681019">
        <time>2022-01-25T14:13:58+00:00</time>
        <ele>1531.0</ele>
      </trkpt>
      <trkpt lat="44.78924601338804" lon="6.472481405362487">
        <time>2022-01-25T14:14:00+00:00</time>
        <ele>1531.0</ele>
      </trkpt>
      <trkpt lat="44.78924693539739" lon="6.472482243552804">
        <time>2022-01-25T14:14:01+00:00</time>
        <ele>1531.0</ele>
      </trkpt>
      <trkpt lat="44.78924173861742" lon="6.4725009351968765">
        <time>2022-01-25T14:14:08+00:00</time>
        <ele>1532.0</ele>
      </trkpt>
      <trkpt lat="44.78925984352827" lon="6.472533205524087">
        <time>2022-01-25T14:14:16+00:00</time>
        <ele>1531.0</ele>
      </trkpt>
      <trkpt lat="44.78926453739405" lon="6.472548544406891">
        <time>2022-01-25T14:14:20+00:00</time>
        <ele>1531.0</ele>
      </trkpt>
      <trkpt lat="44.78925975970924" lon="6.472562626004219">
        <time>2022-01-25T14:14:24+00:00</time>
        <ele>1532.0</ele>
      </trkpt>
      <trkpt lat="44.789259592071176" lon="6.4726258255541325">
        <time>2022-01-25T14:14:31+00:00</time>
        <ele>1532.0</ele>
      </trkpt>
      <trkpt lat="44.7892720811069" lon="6.4726540725678205">
        <time>2022-01-25T14:14:34+00:00</time>
        <ele>1532.0</ele>
      </trkpt>
      <trkpt lat="44.78927652351558" lon="6.472663879394531">
        <time>2022-01-25T14:14:35+00:00</time>
        <ele>1532.0</ele>
      </trkpt>
      <trkpt lat="44.78927652351558" lon="6.472672764211893">
        <time>2022-01-25T14:14:36+00:00</time>
        <ele>1532.0</ele>
      </trkpt>
      <trkpt lat="44.78928482159972" lon="6.472693299874663">
        <time>2022-01-25T14:14:38+00:00</time>
        <ele>1532.0</ele>
      </trkpt>
      <trkpt lat="44.7892945446074" lon="6.472743172198534">
        <time>2022-01-25T14:14:43+00:00</time>
        <ele>1532.0</ele>
      </trkpt>
      <trkpt lat="44.78929680772126" lon="6.472751135006547">
        <time>2022-01-25T14:14:44+00:00</time>
        <ele>1532.0</ele>
      </trkpt>
      <trkpt lat="44.789304938167334" lon="6.472793044522405">
        <time>2022-01-25T14:14:50+00:00</time>
        <ele>1533.0</ele>
      </trkpt>
      <trkpt lat="44.789318684488535" lon="6.4728260692209005">
        <time>2022-01-25T14:14:55+00:00</time>
        <ele>1533.0</ele>
      </trkpt>
      <trkpt lat="44.7893257252872" lon="6.472841072827578">
        <time>2022-01-25T14:14:58+00:00</time>
        <ele>1533.0</ele>
      </trkpt>
      <trkpt lat="44.789338717237115" lon="6.472888179123402">
        <time>2022-01-25T14:15:05+00:00</time>
        <ele>1534.0</ele>
      </trkpt>
      <trkpt lat="44.7893497813493" lon="6.472924891859293">
        <time>2022-01-25T14:15:12+00:00</time>
        <ele>1534.0</ele>
      </trkpt>
      <trkpt lat="44.78940149769187" lon="6.472944505512714">
        <time>2022-01-25T14:15:18+00:00</time>
        <ele>1533.0</ele>
      </trkpt>
      <trkpt lat="44.78940878994763" lon="6.472948528826237">
        <time>2022-01-25T14:15:19+00:00</time>
        <ele>1533.0</ele>
      </trkpt>
      <trkpt lat="44.78945095092058" lon="6.47299949079752">
        <time>2022-01-25T14:15:27+00:00</time>
        <ele>1533.0</ele>
      </trkpt>
      <trkpt lat="44.78947869502008" lon="6.473041987046599">
        <time>2022-01-25T14:15:33+00:00</time>
        <ele>1533.0</ele>
      </trkpt>
      <trkpt lat="44.789481125772" lon="6.47305179387331">
        <time>2022-01-25T14:15:34+00:00</time>
        <ele>1533.0</ele>
      </trkpt>
      <trkpt lat="44.7894895914942" lon="6.473093451932073">
        <time>2022-01-25T14:15:38+00:00</time>
        <ele>1533.0</ele>
      </trkpt>
      <trkpt lat="44.78949495591223" lon="6.473142737522721">
        <time>2022-01-25T14:15:43+00:00</time>
        <ele>1534.0</ele>
      </trkpt>
      <trkpt lat="44.78951976634562" lon="6.473213899880648">
        <time>2022-01-25T14:15:50+00:00</time>
        <ele>1534.0</ele>
      </trkpt>
      <trkpt lat="44.789514150470495" lon="6.473223203793168">
        <time>2022-01-25T14:15:52+00:00</time>
        <ele>1535.0</ele>
      </trkpt>
      <trkpt lat="44.78954122401774" lon="6.473254971206188">
        <time>2022-01-25T14:15:56+00:00</time>
        <ele>1535.0</ele>
      </trkpt>
      <trkpt lat="44.78952940553427" lon="6.473277769982815">
        <time>2022-01-25T14:16:03+00:00</time>
        <ele>1535.0</ele>
      </trkpt>
      <trkpt lat="44.78954524733126" lon="6.473302496597171">
        <time>2022-01-25T14:16:09+00:00</time>
        <ele>1535.0</ele>
      </trkpt>
      <trkpt lat="44.78954868391156" lon="6.4733081962913275">
        <time>2022-01-25T14:16:10+00:00</time>
        <ele>1535.0</ele>
      </trkpt>
      <trkpt lat="44.7895501088351" lon="6.473330911248922">
        <time>2022-01-25T14:16:15+00:00</time>
        <ele>1536.0</ele>
      </trkpt>
      <trkpt lat="44.78955488651991" lon="6.473341807723045">
        <time>2022-01-25T14:16:17+00:00</time>
        <ele>1536.0</ele>
      </trkpt>
      <trkpt lat="44.78956997394562" lon="6.4733712282031775">
        <time>2022-01-25T14:16:21+00:00</time>
        <ele>1536.0</ele>
      </trkpt>
      <trkpt lat="44.78957701474428" lon="6.473379358649254">
        <time>2022-01-25T14:16:23+00:00</time>
        <ele>1536.0</ele>
      </trkpt>
      <trkpt lat="44.789582965895534" lon="6.473393440246582">
        <time>2022-01-25T14:16:27+00:00</time>
        <ele>1536.0</ele>
      </trkpt>
      <trkpt lat="44.78958573192358" lon="6.473397044464946">
        <time>2022-01-25T14:16:28+00:00</time>
        <ele>1536.0</ele>
      </trkpt>
      <trkpt lat="44.789583468809724" lon="6.473408862948418">
        <time>2022-01-25T14:16:33+00:00</time>
        <ele>1536.0</ele>
      </trkpt>
      <trkpt lat="44.789579110220075" lon="6.473407270386815">
        <time>2022-01-25T14:16:34+00:00</time>
        <ele>1536.0</ele>
      </trkpt>
      <trkpt lat="44.789573242887855" lon="6.473416239023209">
        <time>2022-01-25T14:16:36+00:00</time>
        <ele>1536.0</ele>
      </trkpt>
      <trkpt lat="44.78957735002041" lon="6.473428979516029">
        <time>2022-01-25T14:16:42+00:00</time>
        <ele>1536.0</ele>
      </trkpt>
      <trkpt lat="44.78957123123109" lon="6.473463177680969">
        <time>2022-01-25T14:16:47+00:00</time>
        <ele>1537.0</ele>
      </trkpt>
      <trkpt lat="44.78957165032625" lon="6.473472900688648">
        <time>2022-01-25T14:16:48+00:00</time>
        <ele>1537.0</ele>
      </trkpt>
      <trkpt lat="44.78956972248852" lon="6.473500644788146">
        <time>2022-01-25T14:16:51+00:00</time>
        <ele>1538.0</ele>
      </trkpt>
      <trkpt lat="44.78957014158368" lon="6.473508523777127">
        <time>2022-01-25T14:16:52+00:00</time>
        <ele>1538.0</ele>
      </trkpt>
      <trkpt lat="44.78957433253527" lon="6.473525874316692">
        <time>2022-01-25T14:16:55+00:00</time>
        <ele>1538.0</ele>
      </trkpt>
      <trkpt lat="44.78957156650722" lon="6.473526544868946">
        <time>2022-01-25T14:16:56+00:00</time>
        <ele>1538.0</ele>
      </trkpt>
      <trkpt lat="44.78957793675363" lon="6.473550517112017">
        <time>2022-01-25T14:17:02+00:00</time>
        <ele>1538.0</ele>
      </trkpt>
      <trkpt lat="44.7895691357553" lon="6.473542302846909">
        <time>2022-01-25T14:17:08+00:00</time>
        <ele>1538.0</ele>
      </trkpt>
      <trkpt lat="44.7895691357553" lon="6.473542302846909">
        <time>2022-01-25T14:17:11+00:00</time>
        <ele>1538.0</ele>
      </trkpt>
      <trkpt lat="44.78957265615463" lon="6.473548421636224">
        <time>2022-01-25T14:17:15+00:00</time>
        <ele>1538.0</ele>
      </trkpt>
      <trkpt lat="44.78959050960839" lon="6.473636012524366">
        <time>2022-01-25T14:17:20+00:00</time>
        <ele>1539.0</ele>
      </trkpt>
      <trkpt lat="44.78962328284979" lon="6.473706839606166">
        <time>2022-01-25T14:17:25+00:00</time>
        <ele>1539.0</ele>
      </trkpt>
      <trkpt lat="44.789619259536266" lon="6.473745731636882">
        <time>2022-01-25T14:17:29+00:00</time>
        <ele>1540.0</ele>
      </trkpt>
      <trkpt lat="44.78964298032224" lon="6.473858384415507">
        <time>2022-01-25T14:17:36+00:00</time>
        <ele>1541.0</ele>
      </trkpt>
      <trkpt lat="44.789679357782006" lon="6.473960308358073">
        <time>2022-01-25T14:17:43+00:00</time>
        <ele>1541.0</ele>
      </trkpt>
      <trkpt lat="44.789704754948616" lon="6.473993249237537">
        <time>2022-01-25T14:17:48+00:00</time>
        <ele>1541.0</ele>
      </trkpt>
      <trkpt lat="44.789724703878164" lon="6.474007414653897">
        <time>2022-01-25T14:17:54+00:00</time>
        <ele>1541.0</ele>
      </trkpt>
      <trkpt lat="44.789721351116896" lon="6.47401780821383">
        <time>2022-01-25T14:17:57+00:00</time>
        <ele>1541.0</ele>
      </trkpt>
      <trkpt lat="44.78972948156297" lon="6.474027447402477">
        <time>2022-01-25T14:17:59+00:00</time>
        <ele>1541.0</ele>
      </trkpt>
      <trkpt lat="44.78973275050521" lon="6.474037589505315">
        <time>2022-01-25T14:18:01+00:00</time>
        <ele>1541.0</ele>
      </trkpt>
      <trkpt lat="44.789736941456795" lon="6.474037254229188">
        <time>2022-01-25T14:18:03+00:00</time>
        <ele>1541.0</ele>
      </trkpt>
      <trkpt lat="44.78974339552224" lon="6.474052928388119">
        <time>2022-01-25T14:18:06+00:00</time>
        <ele>1541.0</ele>
      </trkpt>
      <trkpt lat="44.78975320234895" lon="6.474070698022842">
        <time>2022-01-25T14:18:09+00:00</time>
        <ele>1541.0</ele>
      </trkpt>
      <trkpt lat="44.789760913699865" lon="6.474075810983777">
        <time>2022-01-25T14:18:12+00:00</time>
        <ele>1541.0</ele>
      </trkpt>
      <trkpt lat="44.78977767750621" lon="6.474102130159736">
        <time>2022-01-25T14:18:16+00:00</time>
        <ele>1541.0</ele>
      </trkpt>
      <trkpt lat="44.78977985680103" lon="6.474106404930353">
        <time>2022-01-25T14:18:17+00:00</time>
        <ele>1541.0</ele>
      </trkpt>
      <trkpt lat="44.789775582030416" lon="6.474110344424844">
        <time>2022-01-25T14:18:22+00:00</time>
        <ele>1541.0</ele>
      </trkpt>
      <trkpt lat="44.789774576202035" lon="6.474134400486946">
        <time>2022-01-25T14:18:29+00:00</time>
        <ele>1542.0</ele>
      </trkpt>
      <trkpt lat="44.78980718180537" lon="6.47420153953135">
        <time>2022-01-25T14:18:43+00:00</time>
        <ele>1541.0</ele>
      </trkpt>
      <trkpt lat="44.78986895643175" lon="6.4743260107934475">
        <time>2022-01-25T14:18:50+00:00</time>
        <ele>1541.0</ele>
      </trkpt>
      <trkpt lat="44.78993852622807" lon="6.47443950176239">
        <time>2022-01-25T14:18:54+00:00</time>
        <ele>1541.0</ele>
      </trkpt>
      <trkpt lat="44.78997280821204" lon="6.474520554766059">
        <time>2022-01-25T14:18:58+00:00</time>
        <ele>1541.0</ele>
      </trkpt>
      <trkpt lat="44.78999166749418" lon="6.474549388512969">
        <time>2022-01-25T14:19:03+00:00</time>
        <ele>1541.0</ele>
      </trkpt>
      <trkpt lat="44.789987560361624" lon="6.474564643576741">
        <time>2022-01-25T14:19:09+00:00</time>
        <ele>1541.0</ele>
      </trkpt>
      <trkpt lat="44.790005246177316" lon="6.474636644124985">
        <time>2022-01-25T14:19:19+00:00</time>
        <ele>1541.0</ele>
      </trkpt>
      <trkpt lat="44.79002536274493" lon="6.474717780947685">
        <time>2022-01-25T14:19:25+00:00</time>
        <ele>1541.0</ele>
      </trkpt>
      <trkpt lat="44.79004371911287" lon="6.4747456926852465">
        <time>2022-01-25T14:19:26+00:00</time>
        <ele>1541.0</ele>
      </trkpt>
      <trkpt lat="44.79007582180202" lon="6.474842252209783">
        <time>2022-01-25T14:19:31+00:00</time>
        <ele>1541.0</ele>
      </trkpt>
      <trkpt lat="44.790079928934574" lon="6.474893968552351">
        <time>2022-01-25T14:19:33+00:00</time>
        <ele>1541.0</ele>
      </trkpt>
      <trkpt lat="44.790084371343255" lon="6.474978290498257">
        <time>2022-01-25T14:19:36+00:00</time>
        <ele>1542.0</ele>
      </trkpt>
      <trkpt lat="44.79013851843774" lon="6.475069401785731">
        <time>2022-01-25T14:19:39+00:00</time>
        <ele>1541.0</ele>
      </trkpt>
      <trkpt lat="44.79016089811921" lon="6.475105611607432">
        <time>2022-01-25T14:19:40+00:00</time>
        <ele>1541.0</ele>
      </trkpt>
      <trkpt lat="44.790229042991996" lon="6.475179037079215">
        <time>2022-01-25T14:19:43+00:00</time>
        <ele>1539.0</ele>
      </trkpt>
      <trkpt lat="44.790271455422044" lon="6.475231423974037">
        <time>2022-01-25T14:19:45+00:00</time>
        <ele>1538.0</ele>
      </trkpt>
      <trkpt lat="44.79031822644174" lon="6.475360421463847">
        <time>2022-01-25T14:19:48+00:00</time>
        <ele>1537.0</ele>
      </trkpt>
      <trkpt lat="44.79035720229149" lon="6.47548321634531">
        <time>2022-01-25T14:19:50+00:00</time>
        <ele>1537.0</ele>
      </trkpt>
      <trkpt lat="44.79037974961102" lon="6.4755123015493155">
        <time>2022-01-25T14:19:51+00:00</time>
        <ele>1536.0</ele>
      </trkpt>
      <trkpt lat="44.790409840643406" lon="6.475546583533287">
        <time>2022-01-25T14:19:52+00:00</time>
        <ele>1535.0</ele>
      </trkpt>
      <trkpt lat="44.79045552201569" lon="6.475579608231783">
        <time>2022-01-25T14:19:53+00:00</time>
        <ele>1534.0</ele>
      </trkpt>
      <trkpt lat="44.790507489815354" lon="6.475621601566672">
        <time>2022-01-25T14:19:54+00:00</time>
        <ele>1532.0</ele>
      </trkpt>
      <trkpt lat="44.7905467171222" lon="6.475690584629774">
        <time>2022-01-25T14:19:55+00:00</time>
        <ele>1531.0</ele>
      </trkpt>
      <trkpt lat="44.79057680815458" lon="6.475760489702225">
        <time>2022-01-25T14:19:56+00:00</time>
        <ele>1531.0</ele>
      </trkpt>
      <trkpt lat="44.79060689918697" lon="6.475830813869834">
        <time>2022-01-25T14:19:57+00:00</time>
        <ele>1530.0</ele>
      </trkpt>
      <trkpt lat="44.790622321888804" lon="6.4758966118097305">
        <time>2022-01-25T14:19:58+00:00</time>
        <ele>1530.0</ele>
      </trkpt>
      <trkpt lat="44.79062198661268" lon="6.4759728871285915">
        <time>2022-01-25T14:19:59+00:00</time>
        <ele>1530.0</ele>
      </trkpt>
      <trkpt lat="44.790633637458086" lon="6.476014796644449">
        <time>2022-01-25T14:20:00+00:00</time>
        <ele>1530.0</ele>
      </trkpt>
      <trkpt lat="44.79066213592887" lon="6.476052515208721">
        <time>2022-01-25T14:20:03+00:00</time>
        <ele>1529.0</ele>
      </trkpt>
      <trkpt lat="44.79066372849047" lon="6.47605293430388">
        <time>2022-01-25T14:20:04+00:00</time>
        <ele>1529.0</ele>
      </trkpt>
      <trkpt lat="44.79066230356693" lon="6.4760444685816765">
        <time>2022-01-25T14:20:06+00:00</time>
        <ele>1529.0</ele>
      </trkpt>
      <trkpt lat="44.79066708125174" lon="6.4760456420481205">
        <time>2022-01-25T14:20:07+00:00</time>
        <ele>1529.0</ele>
      </trkpt>
      <trkpt lat="44.79067345149815" lon="6.476044971495867">
        <time>2022-01-25T14:20:09+00:00</time>
        <ele>1529.0</ele>
      </trkpt>
      <trkpt lat="44.79072567075491" lon="6.476123929023743">
        <time>2022-01-25T14:20:14+00:00</time>
        <ele>1527.0</ele>
      </trkpt>
      <trkpt lat="44.79078384116292" lon="6.476269941776991">
        <time>2022-01-25T14:20:17+00:00</time>
        <ele>1526.0</ele>
      </trkpt>
      <trkpt lat="44.79077814146876" lon="6.476311180740595">
        <time>2022-01-25T14:20:18+00:00</time>
        <ele>1526.0</ele>
      </trkpt>
      <trkpt lat="44.79078006930649" lon="6.476347558200359">
        <time>2022-01-25T14:20:19+00:00</time>
        <ele>1526.0</ele>
      </trkpt>
      <trkpt lat="44.79081368073821" lon="6.476411176845431">
        <time>2022-01-25T14:20:21+00:00</time>
        <ele>1525.0</ele>
      </trkpt>
      <trkpt lat="44.790926333516836" lon="6.4765748754143715">
        <time>2022-01-25T14:20:26+00:00</time>
        <ele>1522.0</ele>
      </trkpt>
      <trkpt lat="44.79102230630815" lon="6.476633045822382">
        <time>2022-01-25T14:20:29+00:00</time>
        <ele>1520.0</ele>
      </trkpt>
      <trkpt lat="44.7910644672811" lon="6.476649222895503">
        <time>2022-01-25T14:20:30+00:00</time>
        <ele>1519.0</ele>
      </trkpt>
      <trkpt lat="44.79110042564571" lon="6.476671686396003">
        <time>2022-01-25T14:20:31+00:00</time>
        <ele>1518.0</ele>
      </trkpt>
      <trkpt lat="44.79114350862801" lon="6.476712170988321">
        <time>2022-01-25T14:20:32+00:00</time>
        <ele>1517.0</ele>
      </trkpt>
      <trkpt lat="44.7911820653826" lon="6.476758606731892">
        <time>2022-01-25T14:20:33+00:00</time>
        <ele>1516.0</ele>
      </trkpt>
      <trkpt lat="44.79124803096056" lon="6.476816441863775">
        <time>2022-01-25T14:20:34+00:00</time>
        <ele>1514.0</ele>
      </trkpt>
      <trkpt lat="44.7913580853492" lon="6.4768964890390635">
        <time>2022-01-25T14:20:36+00:00</time>
        <ele>1511.0</ele>
      </trkpt>
      <trkpt lat="44.79141809977591" lon="6.47695004940033">
        <time>2022-01-25T14:20:37+00:00</time>
        <ele>1509.0</ele>
      </trkpt>
      <trkpt lat="44.79146939702332" lon="6.47701995447278">
        <time>2022-01-25T14:20:38+00:00</time>
        <ele>1508.0</ele>
      </trkpt>
      <trkpt lat="44.79149714112282" lon="6.477093296125531">
        <time>2022-01-25T14:20:39+00:00</time>
        <ele>1507.0</ele>
      </trkpt>
      <trkpt lat="44.79152471758425" lon="6.477161608636379">
        <time>2022-01-25T14:20:41+00:00</time>
        <ele>1507.0</ele>
      </trkpt>
      <trkpt lat="44.79153930209577" lon="6.477207709103823">
        <time>2022-01-25T14:20:44+00:00</time>
        <ele>1506.0</ele>
      </trkpt>
      <trkpt lat="44.791548270732164" lon="6.477237548679113">
        <time>2022-01-25T14:20:45+00:00</time>
        <ele>1506.0</ele>
      </trkpt>
      <trkpt lat="44.79156419634819" lon="6.477268561720848">
        <time>2022-01-25T14:20:46+00:00</time>
        <ele>1506.0</ele>
      </trkpt>
      <trkpt lat="44.791600070893764" lon="6.477336622774601">
        <time>2022-01-25T14:20:48+00:00</time>
        <ele>1505.0</ele>
      </trkpt>
      <trkpt lat="44.79162965901196" lon="6.477415161207318">
        <time>2022-01-25T14:20:49+00:00</time>
        <ele>1503.0</ele>
      </trkpt>
      <trkpt lat="44.79168229736388" lon="6.477501578629017">
        <time>2022-01-25T14:20:50+00:00</time>
        <ele>1502.0</ele>
      </trkpt>
      <trkpt lat="44.79172990657389" lon="6.477559665217996">
        <time>2022-01-25T14:20:51+00:00</time>
        <ele>1501.0</ele>
      </trkpt>
      <trkpt lat="44.79177324101329" lon="6.477599311619997">
        <time>2022-01-25T14:20:52+00:00</time>
        <ele>1499.0</ele>
      </trkpt>
      <trkpt lat="44.7918036673218" lon="6.477605849504471">
        <time>2022-01-25T14:20:53+00:00</time>
        <ele>1499.0</ele>
      </trkpt>
      <trkpt lat="44.79181909002364" lon="6.477601155638695">
        <time>2022-01-25T14:20:54+00:00</time>
        <ele>1499.0</ele>
      </trkpt>
      <trkpt lat="44.79181674309075" lon="6.477589504793286">
        <time>2022-01-25T14:20:55+00:00</time>
        <ele>1499.0</ele>
      </trkpt>
      <trkpt lat="44.791817581281066" lon="6.477573746815324">
        <time>2022-01-25T14:20:56+00:00</time>
        <ele>1499.0</ele>
      </trkpt>
      <trkpt lat="44.791814144700766" lon="6.477566622197628">
        <time>2022-01-25T14:20:57+00:00</time>
        <ele>1499.0</ele>
      </trkpt>
      <trkpt lat="44.79181959293783" lon="6.4775726571679115">
        <time>2022-01-25T14:20:58+00:00</time>
        <ele>1499.0</ele>
      </trkpt>
      <trkpt lat="44.79181867092848" lon="6.477574165910482">
        <time>2022-01-25T14:21:00+00:00</time>
        <ele>1499.0</ele>
      </trkpt>
      <trkpt lat="44.791793106123805" lon="6.477535776793957">
        <time>2022-01-25T14:21:07+00:00</time>
        <ele>1499.0</ele>
      </trkpt>
      <trkpt lat="44.79180986993015" lon="6.477539045736194">
        <time>2022-01-25T14:21:18+00:00</time>
        <ele>1499.0</ele>
      </trkpt>
      <trkpt lat="44.791811630129814" lon="6.477542817592621">
        <time>2022-01-25T14:21:25+00:00</time>
        <ele>1499.0</ele>
      </trkpt>
      <trkpt lat="44.79181330651045" lon="6.477543907240033">
        <time>2022-01-25T14:21:29+00:00</time>
        <ele>1499.0</ele>
      </trkpt>
      <trkpt lat="44.791817497462034" lon="6.477549523115158">
        <time>2022-01-25T14:21:33+00:00</time>
        <ele>1499.0</ele>
      </trkpt>
      <trkpt lat="44.7918208502233" lon="6.47755497135222">
        <time>2022-01-25T14:21:36+00:00</time>
        <ele>1499.0</ele>
      </trkpt>
      <trkpt lat="44.791844906285405" lon="6.477575758472085">
        <time>2022-01-25T14:21:51+00:00</time>
        <ele>1498.0</ele>
      </trkpt>
      <trkpt lat="44.79184557683766" lon="6.4775784406811">
        <time>2022-01-25T14:21:53+00:00</time>
        <ele>1498.0</ele>
      </trkpt>
      <trkpt lat="44.791845912113786" lon="6.4775794465094805">
        <time>2022-01-25T14:21:55+00:00</time>
        <ele>1498.0</ele>
      </trkpt>
      <trkpt lat="44.791909866034985" lon="6.477635940536857">
        <time>2022-01-25T14:21:59+00:00</time>
        <ele>1496.0</ele>
      </trkpt>
      <trkpt lat="44.79194104671478" lon="6.477657146751881">
        <time>2022-01-25T14:22:00+00:00</time>
        <ele>1496.0</ele>
      </trkpt>
      <trkpt lat="44.79205177165568" lon="6.4776751678436995">
        <time>2022-01-25T14:22:03+00:00</time>
        <ele>1493.0</ele>
      </trkpt>
      <trkpt lat="44.792106756940484" lon="6.477671228349209">
        <time>2022-01-25T14:22:04+00:00</time>
        <ele>1491.0</ele>
      </trkpt>
      <trkpt lat="44.79219996370375" lon="6.477722777053714">
        <time>2022-01-25T14:22:06+00:00</time>
        <ele>1489.0</ele>
      </trkpt>
      <trkpt lat="44.79221999645233" lon="6.477763680741191">
        <time>2022-01-25T14:22:07+00:00</time>
        <ele>1489.0</ele>
      </trkpt>
      <trkpt lat="44.79223592206836" lon="6.4778088591992855">
        <time>2022-01-25T14:22:08+00:00</time>
        <ele>1488.0</ele>
      </trkpt>
      <trkpt lat="44.7923544421792" lon="6.477911369875073">
        <time>2022-01-25T14:22:11+00:00</time>
        <ele>1485.0</ele>
      </trkpt>
      <trkpt lat="44.7923959325999" lon="6.477931821718812">
        <time>2022-01-25T14:22:12+00:00</time>
        <ele>1484.0</ele>
      </trkpt>
      <trkpt lat="44.792420072481036" lon="6.477961493656039">
        <time>2022-01-25T14:22:13+00:00</time>
        <ele>1484.0</ele>
      </trkpt>
      <trkpt lat="44.792449325323105" lon="6.478006253018975">
        <time>2022-01-25T14:22:14+00:00</time>
        <ele>1483.0</ele>
      </trkpt>
      <trkpt lat="44.79249014519155" lon="6.478048833087087">
        <time>2022-01-25T14:22:15+00:00</time>
        <ele>1482.0</ele>
      </trkpt>
      <trkpt lat="44.792540771886706" lon="6.4780933409929276">
        <time>2022-01-25T14:22:16+00:00</time>
        <ele>1481.0</ele>
      </trkpt>
      <trkpt lat="44.79260363616049" lon="6.478135669603944">
        <time>2022-01-25T14:22:17+00:00</time>
        <ele>1479.0</ele>
      </trkpt>
      <trkpt lat="44.79265635833144" lon="6.478180177509785">
        <time>2022-01-25T14:22:18+00:00</time>
        <ele>1478.0</ele>
      </trkpt>
      <trkpt lat="44.792696088552475" lon="6.478228624910116">
        <time>2022-01-25T14:22:19+00:00</time>
        <ele>1477.0</ele>
      </trkpt>
      <trkpt lat="44.792745960876346" lon="6.4782830234616995">
        <time>2022-01-25T14:22:20+00:00</time>
        <ele>1475.0</ele>
      </trkpt>
      <trkpt lat="44.79279491119087" lon="6.478316551074386">
        <time>2022-01-25T14:22:21+00:00</time>
        <ele>1474.0</ele>
      </trkpt>
      <trkpt lat="44.792852494865656" lon="6.4783348236233">
        <time>2022-01-25T14:22:22+00:00</time>
        <ele>1473.0</ele>
      </trkpt>
      <trkpt lat="44.792915023863316" lon="6.478348150849342">
        <time>2022-01-25T14:22:23+00:00</time>
        <ele>1472.0</ele>
      </trkpt>
      <trkpt lat="44.79297176934779" lon="6.4783628191798925">
        <time>2022-01-25T14:22:24+00:00</time>
        <ele>1471.0</ele>
      </trkpt>
      <trkpt lat="44.793071346357465" lon="6.478389222174883">
        <time>2022-01-25T14:22:26+00:00</time>
        <ele>1470.0</ele>
      </trkpt>
      <trkpt lat="44.79319673962891" lon="6.478410512208939">
        <time>2022-01-25T14:22:29+00:00</time>
        <ele>1470.0</ele>
      </trkpt>
      <trkpt lat="44.79327888227999" lon="6.478431969881058">
        <time>2022-01-25T14:22:31+00:00</time>
        <ele>1470.0</ele>
      </trkpt>
      <trkpt lat="44.793336633592844" lon="6.478445380926132">
        <time>2022-01-25T14:22:34+00:00</time>
        <ele>1471.0</ele>
      </trkpt>
      <trkpt lat="44.793322468176484" lon="6.478449907153845">
        <time>2022-01-25T14:22:39+00:00</time>
        <ele>1470.0</ele>
      </trkpt>
      <trkpt lat="44.79332506656647" lon="6.478447895497084">
        <time>2022-01-25T14:22:40+00:00</time>
        <ele>1470.0</ele>
      </trkpt>
      <trkpt lat="44.79335892945528" lon="6.47845015861094">
        <time>2022-01-25T14:22:46+00:00</time>
        <ele>1471.0</ele>
      </trkpt>
      <trkpt lat="44.79335851036012" lon="6.478455187752843">
        <time>2022-01-25T14:22:48+00:00</time>
        <ele>1471.0</ele>
      </trkpt>
      <trkpt lat="44.79338809847832" lon="6.478477818891406">
        <time>2022-01-25T14:22:54+00:00</time>
        <ele>1471.0</ele>
      </trkpt>
      <trkpt lat="44.793394384905696" lon="6.47848485969007">
        <time>2022-01-25T14:23:00+00:00</time>
        <ele>1471.0</ele>
      </trkpt>
      <trkpt lat="44.793416764587164" lon="6.478528026491404">
        <time>2022-01-25T14:23:04+00:00</time>
        <ele>1471.0</ele>
      </trkpt>
      <trkpt lat="44.79344484396279" lon="6.478579742833972">
        <time>2022-01-25T14:23:06+00:00</time>
        <ele>1471.0</ele>
      </trkpt>
      <trkpt lat="44.793528662994504" lon="6.4787583611905575">
        <time>2022-01-25T14:23:11+00:00</time>
        <ele>1471.0</ele>
      </trkpt>
      <trkpt lat="44.793554143980145" lon="6.478835474699736">
        <time>2022-01-25T14:23:13+00:00</time>
        <ele>1471.0</ele>
      </trkpt>
      <trkpt lat="44.7936187684536" lon="6.478993138298392">
        <time>2022-01-25T14:23:17+00:00</time>
        <ele>1471.0</ele>
      </trkpt>
      <trkpt lat="44.79363829828799" lon="6.479035969823599">
        <time>2022-01-25T14:23:18+00:00</time>
        <ele>1471.0</ele>
      </trkpt>
      <trkpt lat="44.793715327978134" lon="6.479226155206561">
        <time>2022-01-25T14:23:22+00:00</time>
        <ele>1471.0</ele>
      </trkpt>
      <trkpt lat="44.793736115098" lon="6.479276530444622">
        <time>2022-01-25T14:23:23+00:00</time>
        <ele>1471.0</ele>
      </trkpt>
      <trkpt lat="44.79377509094775" lon="6.47946453653276">
        <time>2022-01-25T14:23:27+00:00</time>
        <ele>1470.0</ele>
      </trkpt>
      <trkpt lat="44.79379185475409" lon="6.479654721915722">
        <time>2022-01-25T14:23:31+00:00</time>
        <ele>1469.0</ele>
      </trkpt>
      <trkpt lat="44.7937895078212" lon="6.479705348610878">
        <time>2022-01-25T14:23:32+00:00</time>
        <ele>1468.0</ele>
      </trkpt>
      <trkpt lat="44.7937345225364" lon="6.4798544626683">
        <time>2022-01-25T14:23:36+00:00</time>
        <ele>1467.0</ele>
      </trkpt>
      <trkpt lat="44.793623462319374" lon="6.48007633164525">
        <time>2022-01-25T14:23:43+00:00</time>
        <ele>1464.0</ele>
      </trkpt>
      <trkpt lat="44.79360284283757" lon="6.480196863412857">
        <time>2022-01-25T14:23:46+00:00</time>
        <ele>1463.0</ele>
      </trkpt>
      <trkpt lat="44.79358264245093" lon="6.480340780690312">
        <time>2022-01-25T14:23:49+00:00</time>
        <ele>1463.0</ele>
      </trkpt>
      <trkpt lat="44.79355908930302" lon="6.480384869500995">
        <time>2022-01-25T14:23:50+00:00</time>
        <ele>1462.0</ele>
      </trkpt>
      <trkpt lat="44.79354911483824" lon="6.48044228553772">
        <time>2022-01-25T14:23:51+00:00</time>
        <ele>1462.0</ele>
      </trkpt>
      <trkpt lat="44.793542409315705" lon="6.480560721829534">
        <time>2022-01-25T14:23:53+00:00</time>
        <ele>1461.0</ele>
      </trkpt>
      <trkpt lat="44.793547773733735" lon="6.48068661801517">
        <time>2022-01-25T14:23:55+00:00</time>
        <ele>1461.0</ele>
      </trkpt>
      <trkpt lat="44.79354936629534" lon="6.480877893045545">
        <time>2022-01-25T14:23:58+00:00</time>
        <ele>1460.0</ele>
      </trkpt>
      <trkpt lat="44.79354224167764" lon="6.481005717068911">
        <time>2022-01-25T14:24:00+00:00</time>
        <ele>1460.0</ele>
      </trkpt>
      <trkpt lat="44.793549282476306" lon="6.481076460331678">
        <time>2022-01-25T14:24:01+00:00</time>
        <ele>1459.0</ele>
      </trkpt>
      <trkpt lat="44.793556574732065" lon="6.481150556355715">
        <time>2022-01-25T14:24:02+00:00</time>
        <ele>1459.0</ele>
      </trkpt>
      <trkpt lat="44.793581049889326" lon="6.481378208845854">
        <time>2022-01-25T14:24:05+00:00</time>
        <ele>1458.0</ele>
      </trkpt>
      <trkpt lat="44.79358423501253" lon="6.4814545679837465">
        <time>2022-01-25T14:24:06+00:00</time>
        <ele>1457.0</ele>
      </trkpt>
      <trkpt lat="44.793585911393166" lon="6.481530508026481">
        <time>2022-01-25T14:24:07+00:00</time>
        <ele>1457.0</ele>
      </trkpt>
      <trkpt lat="44.79359135963023" lon="6.481685573235154">
        <time>2022-01-25T14:24:09+00:00</time>
        <ele>1455.0</ele>
      </trkpt>
      <trkpt lat="44.793626982718706" lon="6.481992602348328">
        <time>2022-01-25T14:24:13+00:00</time>
        <ele>1454.0</ele>
      </trkpt>
      <trkpt lat="44.79364584200084" lon="6.482066782191396">
        <time>2022-01-25T14:24:14+00:00</time>
        <ele>1453.0</ele>
      </trkpt>
      <trkpt lat="44.7936861589551" lon="6.482213884592056">
        <time>2022-01-25T14:24:16+00:00</time>
        <ele>1452.0</ele>
      </trkpt>
      <trkpt lat="44.793709460645914" lon="6.482285466045141">
        <time>2022-01-25T14:24:17+00:00</time>
        <ele>1452.0</ele>
      </trkpt>
      <trkpt lat="44.79377148672938" lon="6.482506999745965">
        <time>2022-01-25T14:24:20+00:00</time>
        <ele>1451.0</ele>
      </trkpt>
      <trkpt lat="44.79378875344992" lon="6.482585705816746">
        <time>2022-01-25T14:24:21+00:00</time>
        <ele>1450.0</ele>
      </trkpt>
      <trkpt lat="44.79380300268531" lon="6.482662232592702">
        <time>2022-01-25T14:24:22+00:00</time>
        <ele>1450.0</ele>
      </trkpt>
      <trkpt lat="44.79382588528097" lon="6.482785027474165">
        <time>2022-01-25T14:24:24+00:00</time>
        <ele>1449.0</ele>
      </trkpt>
      <trkpt lat="44.79386620223522" lon="6.482895081862807">
        <time>2022-01-25T14:24:26+00:00</time>
        <ele>1448.0</ele>
      </trkpt>
      <trkpt lat="44.79395563714206" lon="6.483068838715553">
        <time>2022-01-25T14:24:29+00:00</time>
        <ele>1447.0</ele>
      </trkpt>
      <trkpt lat="44.794060327112675" lon="6.483248630538583">
        <time>2022-01-25T14:24:32+00:00</time>
        <ele>1447.0</ele>
      </trkpt>
      <trkpt lat="44.79418370872736" lon="6.48341903463006">
        <time>2022-01-25T14:24:35+00:00</time>
        <ele>1448.0</ele>
      </trkpt>
      <trkpt lat="44.794269455596805" lon="6.483548115938902">
        <time>2022-01-25T14:24:37+00:00</time>
        <ele>1448.0</ele>
      </trkpt>
      <trkpt lat="44.79433324187994" lon="6.483699660748243">
        <time>2022-01-25T14:24:39+00:00</time>
        <ele>1447.0</ele>
      </trkpt>
      <trkpt lat="44.79440851137042" lon="6.4838495291769505">
        <time>2022-01-25T14:24:41+00:00</time>
        <ele>1446.0</ele>
      </trkpt>
      <trkpt lat="44.7944510076195" lon="6.483910381793976">
        <time>2022-01-25T14:24:42+00:00</time>
        <ele>1446.0</ele>
      </trkpt>
      <trkpt lat="44.79449501261115" lon="6.483967127278447">
        <time>2022-01-25T14:24:43+00:00</time>
        <ele>1447.0</ele>
      </trkpt>
      <trkpt lat="44.794563073664904" lon="6.484095873311162">
        <time>2022-01-25T14:24:45+00:00</time>
        <ele>1446.0</ele>
      </trkpt>
      <trkpt lat="44.79459383524954" lon="6.484171310439706">
        <time>2022-01-25T14:24:46+00:00</time>
        <ele>1445.0</ele>
      </trkpt>
      <trkpt lat="44.794623171910644" lon="6.484245741739869">
        <time>2022-01-25T14:24:47+00:00</time>
        <ele>1445.0</ele>
      </trkpt>
      <trkpt lat="44.794649071991444" lon="6.4843215979635715">
        <time>2022-01-25T14:24:48+00:00</time>
        <ele>1445.0</ele>
      </trkpt>
      <trkpt lat="44.79467270895839" lon="6.484395693987608">
        <time>2022-01-25T14:24:49+00:00</time>
        <ele>1445.0</ele>
      </trkpt>
      <trkpt lat="44.7947530914098" lon="6.484606247395277">
        <time>2022-01-25T14:24:52+00:00</time>
        <ele>1445.0</ele>
      </trkpt>
      <trkpt lat="44.79477874003351" lon="6.4846673514693975">
        <time>2022-01-25T14:24:53+00:00</time>
        <ele>1445.0</ele>
      </trkpt>
      <trkpt lat="44.794796174392104" lon="6.484724180772901">
        <time>2022-01-25T14:24:54+00:00</time>
        <ele>1445.0</ele>
      </trkpt>
      <trkpt lat="44.794825008139014" lon="6.484850579872727">
        <time>2022-01-25T14:24:56+00:00</time>
        <ele>1445.0</ele>
      </trkpt>
      <trkpt lat="44.794853338971734" lon="6.484951665624976">
        <time>2022-01-25T14:24:58+00:00</time>
        <ele>1445.0</ele>
      </trkpt>
      <trkpt lat="44.794861217960715" lon="6.484996592625976">
        <time>2022-01-25T14:24:59+00:00</time>
        <ele>1445.0</ele>
      </trkpt>
      <trkpt lat="44.79489524848759" lon="6.485125171020627">
        <time>2022-01-25T14:25:02+00:00</time>
        <ele>1445.0</ele>
      </trkpt>
      <trkpt lat="44.79491913691163" lon="6.485317032784224">
        <time>2022-01-25T14:25:07+00:00</time>
        <ele>1444.0</ele>
      </trkpt>
      <trkpt lat="44.794887034222484" lon="6.485510990023613">
        <time>2022-01-25T14:25:12+00:00</time>
        <ele>1442.0</ele>
      </trkpt>
      <trkpt lat="44.79487949050963" lon="6.485550720244646">
        <time>2022-01-25T14:25:13+00:00</time>
        <ele>1442.0</ele>
      </trkpt>
      <trkpt lat="44.794876305386424" lon="6.48588658310473">
        <time>2022-01-25T14:25:20+00:00</time>
        <ele>1439.0</ele>
      </trkpt>
      <trkpt lat="44.79491653852165" lon="6.486150110140443">
        <time>2022-01-25T14:25:25+00:00</time>
        <ele>1438.0</ele>
      </trkpt>
      <trkpt lat="44.794938415288925" lon="6.486235689371824">
        <time>2022-01-25T14:25:27+00:00</time>
        <ele>1437.0</ele>
      </trkpt>
      <trkpt lat="44.79498862288892" lon="6.486351527273655">
        <time>2022-01-25T14:25:30+00:00</time>
        <ele>1437.0</ele>
      </trkpt>
      <trkpt lat="44.79509289376438" lon="6.486523104831576">
        <time>2022-01-25T14:25:34+00:00</time>
        <ele>1438.0</ele>
      </trkpt>
      <trkpt lat="44.795149555429816" lon="6.486626621335745">
        <time>2022-01-25T14:25:36+00:00</time>
        <ele>1439.0</ele>
      </trkpt>
      <trkpt lat="44.79516581632197" lon="6.486680014058948">
        <time>2022-01-25T14:25:37+00:00</time>
        <ele>1438.0</ele>
      </trkpt>
      <trkpt lat="44.79519330896437" lon="6.486774897202849">
        <time>2022-01-25T14:25:39+00:00</time>
        <ele>1439.0</ele>
      </trkpt>
      <trkpt lat="44.795220801606774" lon="6.486924095079303">
        <time>2022-01-25T14:25:42+00:00</time>
        <ele>1438.0</ele>
      </trkpt>
      <trkpt lat="44.795256005600095" lon="6.487101456150413">
        <time>2022-01-25T14:25:46+00:00</time>
        <ele>1438.0</ele>
      </trkpt>
      <trkpt lat="44.79526405222714" lon="6.487144203856587">
        <time>2022-01-25T14:25:47+00:00</time>
        <ele>1437.0</ele>
      </trkpt>
      <trkpt lat="44.79533395729959" lon="6.487376801669598">
        <time>2022-01-25T14:25:53+00:00</time>
        <ele>1436.0</ele>
      </trkpt>
      <trkpt lat="44.795349799096584" lon="6.487414352595806">
        <time>2022-01-25T14:25:54+00:00</time>
        <ele>1436.0</ele>
      </trkpt>
      <trkpt lat="44.795454824343324" lon="6.487606801092625">
        <time>2022-01-25T14:25:59+00:00</time>
        <ele>1438.0</ele>
      </trkpt>
      <trkpt lat="44.795491034165025" lon="6.487761195749044">
        <time>2022-01-25T14:26:03+00:00</time>
        <ele>1438.0</ele>
      </trkpt>
      <trkpt lat="44.79549530893564" lon="6.487841075286269">
        <time>2022-01-25T14:26:05+00:00</time>
        <ele>1437.0</ele>
      </trkpt>
      <trkpt lat="44.79550000280142" lon="6.488024387508631">
        <time>2022-01-25T14:26:10+00:00</time>
        <ele>1435.0</ele>
      </trkpt>
      <trkpt lat="44.79555331170559" lon="6.488291267305613">
        <time>2022-01-25T14:26:17+00:00</time>
        <ele>1435.0</ele>
      </trkpt>
      <trkpt lat="44.79558801278472" lon="6.48847826756537">
        <time>2022-01-25T14:26:21+00:00</time>
        <ele>1435.0</ele>
      </trkpt>
      <trkpt lat="44.79559580795467" lon="6.488532079383731">
        <time>2022-01-25T14:26:22+00:00</time>
        <ele>1435.0</ele>
      </trkpt>
      <trkpt lat="44.795597987249494" lon="6.488693933933973">
        <time>2022-01-25T14:26:25+00:00</time>
        <ele>1434.0</ele>
      </trkpt>
      <trkpt lat="44.795593628659844" lon="6.48885210044682">
        <time>2022-01-25T14:26:28+00:00</time>
        <ele>1434.0</ele>
      </trkpt>
      <trkpt lat="44.79559153318405" lon="6.489006159827113">
        <time>2022-01-25T14:26:31+00:00</time>
        <ele>1433.0</ele>
      </trkpt>
      <trkpt lat="44.795594047755" lon="6.48914722725749">
        <time>2022-01-25T14:26:34+00:00</time>
        <ele>1431.0</ele>
      </trkpt>
      <trkpt lat="44.795661102980375" lon="6.489422908052802">
        <time>2022-01-25T14:26:40+00:00</time>
        <ele>1431.0</ele>
      </trkpt>
      <trkpt lat="44.7957359533757" lon="6.489647626876831">
        <time>2022-01-25T14:26:44+00:00</time>
        <ele>1432.0</ele>
      </trkpt>
      <trkpt lat="44.79573310352862" lon="6.4897069707512856">
        <time>2022-01-25T14:26:45+00:00</time>
        <ele>1431.0</ele>
      </trkpt>
      <trkpt lat="44.795721704140306" lon="6.489758770912886">
        <time>2022-01-25T14:26:46+00:00</time>
        <ele>1431.0</ele>
      </trkpt>
      <trkpt lat="44.79567585512996" lon="6.489939987659454">
        <time>2022-01-25T14:26:50+00:00</time>
        <ele>1429.0</ele>
      </trkpt>
      <trkpt lat="44.79569320566952" lon="6.490164119750261">
        <time>2022-01-25T14:26:55+00:00</time>
        <ele>1428.0</ele>
      </trkpt>
      <trkpt lat="44.7957066167146" lon="6.490277275443077">
        <time>2022-01-25T14:26:58+00:00</time>
        <ele>1428.0</ele>
      </trkpt>
      <trkpt lat="44.795739306136966" lon="6.490406608209014">
        <time>2022-01-25T14:27:01+00:00</time>
        <ele>1428.0</ele>
      </trkpt>
      <trkpt lat="44.79575917124748" lon="6.490614814683795">
        <time>2022-01-25T14:27:05+00:00</time>
        <ele>1427.0</ele>
      </trkpt>
      <trkpt lat="44.795774929225445" lon="6.490830145776272">
        <time>2022-01-25T14:27:09+00:00</time>
        <ele>1426.0</ele>
      </trkpt>
      <trkpt lat="44.79577484540641" lon="6.490880772471428">
        <time>2022-01-25T14:27:10+00:00</time>
        <ele>1425.0</ele>
      </trkpt>
      <trkpt lat="44.79577945545316" lon="6.490981103852391">
        <time>2022-01-25T14:27:12+00:00</time>
        <ele>1424.0</ele>
      </trkpt>
      <trkpt lat="44.795779036358" lon="6.491086632013321">
        <time>2022-01-25T14:27:14+00:00</time>
        <ele>1423.0</ele>
      </trkpt>
      <trkpt lat="44.795796889811754" lon="6.491254018619657">
        <time>2022-01-25T14:27:17+00:00</time>
        <ele>1422.0</ele>
      </trkpt>
      <trkpt lat="44.79580904357135" lon="6.491351583972573">
        <time>2022-01-25T14:27:19+00:00</time>
        <ele>1422.0</ele>
      </trkpt>
      <trkpt lat="44.795810552313924" lon="6.4914902206510305">
        <time>2022-01-25T14:27:22+00:00</time>
        <ele>1423.0</ele>
      </trkpt>
      <trkpt lat="44.7958067804575" lon="6.491542607545853">
        <time>2022-01-25T14:27:23+00:00</time>
        <ele>1423.0</ele>
      </trkpt>
      <trkpt lat="44.795784652233124" lon="6.491698008030653">
        <time>2022-01-25T14:27:26+00:00</time>
        <ele>1422.0</ele>
      </trkpt>
      <trkpt lat="44.79576981626451" lon="6.491952566429973">
        <time>2022-01-25T14:27:31+00:00</time>
        <ele>1420.0</ele>
      </trkpt>
      <trkpt lat="44.79577459394932" lon="6.492049293592572">
        <time>2022-01-25T14:27:33+00:00</time>
        <ele>1419.0</ele>
      </trkpt>
      <trkpt lat="44.79580116458237" lon="6.492253644391894">
        <time>2022-01-25T14:27:37+00:00</time>
        <ele>1418.0</ele>
      </trkpt>
      <trkpt lat="44.79580828920007" lon="6.49230619892478">
        <time>2022-01-25T14:27:38+00:00</time>
        <ele>1418.0</ele>
      </trkpt>
      <trkpt lat="44.7958567366004" lon="6.492568049579859">
        <time>2022-01-25T14:27:43+00:00</time>
        <ele>1417.0</ele>
      </trkpt>
      <trkpt lat="44.79588649235666" lon="6.4927454106509686">
        <time>2022-01-25T14:27:46+00:00</time>
        <ele>1416.0</ele>
      </trkpt>
      <trkpt lat="44.79589160531759" lon="6.492807436734438">
        <time>2022-01-25T14:27:47+00:00</time>
        <ele>1416.0</ele>
      </trkpt>
      <trkpt lat="44.79589730501175" lon="6.493125110864639">
        <time>2022-01-25T14:27:52+00:00</time>
        <ele>1414.0</ele>
      </trkpt>
      <trkpt lat="44.79590023867786" lon="6.493185963481665">
        <time>2022-01-25T14:27:53+00:00</time>
        <ele>1414.0</ele>
      </trkpt>
      <trkpt lat="44.7959101293236" lon="6.493331138044596">
        <time>2022-01-25T14:27:56+00:00</time>
        <ele>1414.0</ele>
      </trkpt>
      <trkpt lat="44.795914655551314" lon="6.49336407892406">
        <time>2022-01-25T14:27:57+00:00</time>
        <ele>1415.0</ele>
      </trkpt>
      <trkpt lat="44.79592530056834" lon="6.493417723104358">
        <time>2022-01-25T14:28:01+00:00</time>
        <ele>1415.0</ele>
      </trkpt>
      <trkpt lat="44.79591239243746" lon="6.4934086706489325">
        <time>2022-01-25T14:28:06+00:00</time>
        <ele>1415.0</ele>
      </trkpt>
      <trkpt lat="44.795911721885204" lon="6.493433648720384">
        <time>2022-01-25T14:28:13+00:00</time>
        <ele>1415.0</ele>
      </trkpt>
      <trkpt lat="44.79590971022844" lon="6.493447059765458">
        <time>2022-01-25T14:28:15+00:00</time>
        <ele>1415.0</ele>
      </trkpt>
      <trkpt lat="44.795921528711915" lon="6.493493998423219">
        <time>2022-01-25T14:28:18+00:00</time>
        <ele>1415.0</ele>
      </trkpt>
      <trkpt lat="44.79592672549188" lon="6.4935314655303955">
        <time>2022-01-25T14:28:20+00:00</time>
        <ele>1415.0</ele>
      </trkpt>
      <trkpt lat="44.79594508185983" lon="6.4936198107898235">
        <time>2022-01-25T14:28:29+00:00</time>
        <ele>1416.0</ele>
      </trkpt>
      <trkpt lat="44.79593561030924" lon="6.493621822446585">
        <time>2022-01-25T14:28:30+00:00</time>
        <ele>1416.0</ele>
      </trkpt>
      <trkpt lat="44.79593049734831" lon="6.493623498827219">
        <time>2022-01-25T14:28:31+00:00</time>
        <ele>1415.0</ele>
      </trkpt>
      <trkpt lat="44.79591239243746" lon="6.493624001741409">
        <time>2022-01-25T14:28:35+00:00</time>
        <ele>1415.0</ele>
      </trkpt>
      <trkpt lat="44.79591348208487" lon="6.493626683950424">
        <time>2022-01-25T14:28:41+00:00</time>
        <ele>1415.0</ele>
      </trkpt>
      <trkpt lat="44.79591348208487" lon="6.493626683950424">
        <time>2022-01-25T14:28:42+00:00</time>
        <ele>1415.0</ele>
      </trkpt>
      <trkpt lat="44.79591348208487" lon="6.493626683950424">
        <time>2022-01-25T14:28:48+00:00</time>
        <ele>1415.0</ele>
      </trkpt>
      <trkpt lat="44.79591348208487" lon="6.493627270683646">
        <time>2022-01-25T14:28:52+00:00</time>
        <ele>1415.0</ele>
      </trkpt>
      <trkpt lat="44.795916164293885" lon="6.493647387251258">
        <time>2022-01-25T14:28:58+00:00</time>
        <ele>1415.0</ele>
      </trkpt>
      <trkpt lat="44.79591649957001" lon="6.493667000904679">
        <time>2022-01-25T14:29:11+00:00</time>
        <ele>1415.0</ele>
      </trkpt>
      <trkpt lat="44.79592957533896" lon="6.493720812723041">
        <time>2022-01-25T14:29:19+00:00</time>
        <ele>1415.0</ele>
      </trkpt>
      <trkpt lat="44.79592991061509" lon="6.493780575692654">
        <time>2022-01-25T14:29:24+00:00</time>
        <ele>1415.0</ele>
      </trkpt>
      <trkpt lat="44.79592806659639" lon="6.493826173245907">
        <time>2022-01-25T14:29:29+00:00</time>
        <ele>1415.0</ele>
      </trkpt>
      <trkpt lat="44.795910716056824" lon="6.493927091360092">
        <time>2022-01-25T14:29:35+00:00</time>
        <ele>1414.0</ele>
      </trkpt>
      <trkpt lat="44.795887749642134" lon="6.494003534317017">
        <time>2022-01-25T14:29:39+00:00</time>
        <ele>1413.0</ele>
      </trkpt>
      <trkpt lat="44.79589185677469" lon="6.4940565917640924">
        <time>2022-01-25T14:29:41+00:00</time>
        <ele>1413.0</ele>
      </trkpt>
      <trkpt lat="44.795907782390714" lon="6.494246022775769">
        <time>2022-01-25T14:29:47+00:00</time>
        <ele>1412.0</ele>
      </trkpt>
      <trkpt lat="44.79595363140106" lon="6.494408380240202">
        <time>2022-01-25T14:29:51+00:00</time>
        <ele>1413.0</ele>
      </trkpt>
      <trkpt lat="44.79601104743779" lon="6.494562942534685">
        <time>2022-01-25T14:29:55+00:00</time>
        <ele>1415.0</ele>
      </trkpt>
      <trkpt lat="44.79609821923077" lon="6.494811046868563">
        <time>2022-01-25T14:30:01+00:00</time>
        <ele>1414.0</ele>
      </trkpt>
      <trkpt lat="44.79612696915865" lon="6.494895201176405">
        <time>2022-01-25T14:30:03+00:00</time>
        <ele>1414.0</ele>
      </trkpt>
      <trkpt lat="44.7961606644094" lon="6.495070718228817">
        <time>2022-01-25T14:30:07+00:00</time>
        <ele>1414.0</ele>
      </trkpt>
      <trkpt lat="44.79616301134229" lon="6.495106592774391">
        <time>2022-01-25T14:30:08+00:00</time>
        <ele>1414.0</ele>
      </trkpt>
      <trkpt lat="44.79616753757" lon="6.495184628292918">
        <time>2022-01-25T14:30:10+00:00</time>
        <ele>1414.0</ele>
      </trkpt>
      <trkpt lat="44.79616720229387" lon="6.495224442332983">
        <time>2022-01-25T14:30:11+00:00</time>
        <ele>1415.0</ele>
      </trkpt>
      <trkpt lat="44.79616493918002" lon="6.495297700166702">
        <time>2022-01-25T14:30:13+00:00</time>
        <ele>1415.0</ele>
      </trkpt>
      <trkpt lat="44.79615370742977" lon="6.495327036827803">
        <time>2022-01-25T14:30:14+00:00</time>
        <ele>1414.0</ele>
      </trkpt>
      <trkpt lat="44.79614842683077" lon="6.495362995192409">
        <time>2022-01-25T14:30:15+00:00</time>
        <ele>1414.0</ele>
      </trkpt>
      <trkpt lat="44.79613417759538" lon="6.495438516139984">
        <time>2022-01-25T14:30:17+00:00</time>
        <ele>1414.0</ele>
      </trkpt>
      <trkpt lat="44.79612956754863" lon="6.49547204375267">
        <time>2022-01-25T14:30:18+00:00</time>
        <ele>1414.0</ele>
      </trkpt>
      <trkpt lat="44.79610584676266" lon="6.495697097852826">
        <time>2022-01-25T14:30:23+00:00</time>
        <ele>1413.0</ele>
      </trkpt>
      <trkpt lat="44.796086149290204" lon="6.495805224403739">
        <time>2022-01-25T14:30:25+00:00</time>
        <ele>1413.0</ele>
      </trkpt>
      <trkpt lat="44.79603376239538" lon="6.495960960164666">
        <time>2022-01-25T14:30:28+00:00</time>
        <ele>1412.0</ele>
      </trkpt>
      <trkpt lat="44.79593502357602" lon="6.496273186057806">
        <time>2022-01-25T14:30:34+00:00</time>
        <ele>1409.0</ele>
      </trkpt>
      <trkpt lat="44.79586008936167" lon="6.496564205735922">
        <time>2022-01-25T14:30:39+00:00</time>
        <ele>1407.0</ele>
      </trkpt>
      <trkpt lat="44.79584307409823" lon="6.49662422016263">
        <time>2022-01-25T14:30:40+00:00</time>
        <ele>1406.0</ele>
      </trkpt>
      <trkpt lat="44.795833602547646" lon="6.496686330065131">
        <time>2022-01-25T14:30:41+00:00</time>
        <ele>1406.0</ele>
      </trkpt>
      <trkpt lat="44.79580200277269" lon="6.496871570125222">
        <time>2022-01-25T14:30:44+00:00</time>
        <ele>1404.0</ele>
      </trkpt>
      <trkpt lat="44.79579521343112" lon="6.496926387771964">
        <time>2022-01-25T14:30:45+00:00</time>
        <ele>1404.0</ele>
      </trkpt>
      <trkpt lat="44.795794459059834" lon="6.497035268694162">
        <time>2022-01-25T14:30:47+00:00</time>
        <ele>1404.0</ele>
      </trkpt>
      <trkpt lat="44.79580594226718" lon="6.4971403777599335">
        <time>2022-01-25T14:30:49+00:00</time>
        <ele>1404.0</ele>
      </trkpt>
      <trkpt lat="44.79580502025783" lon="6.497185220941901">
        <time>2022-01-25T14:30:50+00:00</time>
        <ele>1404.0</ele>
      </trkpt>
      <trkpt lat="44.79580954648554" lon="6.497459812089801">
        <time>2022-01-25T14:30:56+00:00</time>
        <ele>1403.0</ele>
      </trkpt>
      <trkpt lat="44.79581172578037" lon="6.49749493226409">
        <time>2022-01-25T14:30:57+00:00</time>
        <ele>1403.0</ele>
      </trkpt>
      <trkpt lat="44.795830165967345" lon="6.497669778764248">
        <time>2022-01-25T14:31:02+00:00</time>
        <ele>1403.0</ele>
      </trkpt>
      <trkpt lat="44.79584491811693" lon="6.497773127630353">
        <time>2022-01-25T14:31:05+00:00</time>
        <ele>1403.0</ele>
      </trkpt>
      <trkpt lat="44.795848270878196" lon="6.497812606394291">
        <time>2022-01-25T14:31:06+00:00</time>
        <ele>1403.0</ele>
      </trkpt>
      <trkpt lat="44.795874087139964" lon="6.4979929849505424">
        <time>2022-01-25T14:31:10+00:00</time>
        <ele>1403.0</ele>
      </trkpt>
      <trkpt lat="44.79587635025382" lon="6.498039588332176">
        <time>2022-01-25T14:31:11+00:00</time>
        <ele>1403.0</ele>
      </trkpt>
      <trkpt lat="44.79588112793863" lon="6.498139081522822">
        <time>2022-01-25T14:31:13+00:00</time>
        <ele>1403.0</ele>
      </trkpt>
      <trkpt lat="44.795899065211415" lon="6.498242262750864">
        <time>2022-01-25T14:31:15+00:00</time>
        <ele>1404.0</ele>
      </trkpt>
      <trkpt lat="44.79589847847819" lon="6.498293727636337">
        <time>2022-01-25T14:31:16+00:00</time>
        <ele>1404.0</ele>
      </trkpt>
      <trkpt lat="44.79588649235666" lon="6.498443596065044">
        <time>2022-01-25T14:31:19+00:00</time>
        <ele>1404.0</ele>
      </trkpt>
      <trkpt lat="44.795882385224104" lon="6.4984936360269785">
        <time>2022-01-25T14:31:20+00:00</time>
        <ele>1404.0</ele>
      </trkpt>
      <trkpt lat="44.79584022425115" lon="6.498652053996921">
        <time>2022-01-25T14:31:24+00:00</time>
        <ele>1404.0</ele>
      </trkpt>
      <trkpt lat="44.79581030085683" lon="6.498723803088069">
        <time>2022-01-25T14:31:26+00:00</time>
        <ele>1403.0</ele>
      </trkpt>
      <trkpt lat="44.79579856619239" lon="6.49878884665668">
        <time>2022-01-25T14:31:28+00:00</time>
        <ele>1403.0</ele>
      </trkpt>
      <trkpt lat="44.795789597555995" lon="6.498820027336478">
        <time>2022-01-25T14:31:29+00:00</time>
        <ele>1402.0</ele>
      </trkpt>
      <trkpt lat="44.79577970691025" lon="6.4988473523408175">
        <time>2022-01-25T14:31:30+00:00</time>
        <ele>1402.0</ele>
      </trkpt>
      <trkpt lat="44.795759255066514" lon="6.498911641538143">
        <time>2022-01-25T14:31:33+00:00</time>
        <ele>1401.0</ele>
      </trkpt>
      <trkpt lat="44.79574500583112" lon="6.498944917693734">
        <time>2022-01-25T14:31:35+00:00</time>
        <ele>1401.0</ele>
      </trkpt>
      <trkpt lat="44.79574676603079" lon="6.498970817774534">
        <time>2022-01-25T14:31:37+00:00</time>
        <ele>1401.0</ele>
      </trkpt>
      <trkpt lat="44.7957581654191" lon="6.498989760875702">
        <time>2022-01-25T14:31:38+00:00</time>
        <ele>1401.0</ele>
      </trkpt>
      <trkpt lat="44.79574081487954" lon="6.499039968475699">
        <time>2022-01-25T14:31:42+00:00</time>
        <ele>1401.0</ele>
      </trkpt>
      <trkpt lat="44.795751459896564" lon="6.499075759202242">
        <time>2022-01-25T14:31:44+00:00</time>
        <ele>1401.0</ele>
      </trkpt>
      <trkpt lat="44.795777359977365" lon="6.499228058382869">
        <time>2022-01-25T14:31:50+00:00</time>
        <ele>1402.0</ele>
      </trkpt>
      <trkpt lat="44.79578440077603" lon="6.499256975948811">
        <time>2022-01-25T14:31:51+00:00</time>
        <ele>1402.0</ele>
      </trkpt>
      <trkpt lat="44.79579948820174" lon="6.499371975660324">
        <time>2022-01-25T14:31:56+00:00</time>
        <ele>1402.0</ele>
      </trkpt>
      <trkpt lat="44.795800326392055" lon="6.49939133785665">
        <time>2022-01-25T14:31:57+00:00</time>
        <ele>1402.0</ele>
      </trkpt>
      <trkpt lat="44.795811641961336" lon="6.499441042542458">
        <time>2022-01-25T14:32:00+00:00</time>
        <ele>1403.0</ele>
      </trkpt>
      <trkpt lat="44.79582262225449" lon="6.499474989250302">
        <time>2022-01-25T14:32:02+00:00</time>
        <ele>1403.0</ele>
      </trkpt>
      <trkpt lat="44.7958273999393" lon="6.499512204900384">
        <time>2022-01-25T14:32:05+00:00</time>
        <ele>1403.0</ele>
      </trkpt>
      <trkpt lat="44.79584592394531" lon="6.499610189348459">
        <time>2022-01-25T14:32:10+00:00</time>
        <ele>1404.0</ele>
      </trkpt>
      <trkpt lat="44.795842906460166" lon="6.499654948711395">
        <time>2022-01-25T14:32:12+00:00</time>
        <ele>1404.0</ele>
      </trkpt>
      <trkpt lat="44.795842319726944" lon="6.499678753316402">
        <time>2022-01-25T14:32:13+00:00</time>
        <ele>1404.0</ele>
      </trkpt>
      <trkpt lat="44.79583913460374" lon="6.4997626561671495">
        <time>2022-01-25T14:32:17+00:00</time>
        <ele>1404.0</ele>
      </trkpt>
      <trkpt lat="44.79582614265382" lon="6.499838763847947">
        <time>2022-01-25T14:32:21+00:00</time>
        <ele>1403.0</ele>
      </trkpt>
      <trkpt lat="44.79582538828254" lon="6.4998754765838385">
        <time>2022-01-25T14:32:23+00:00</time>
        <ele>1403.0</ele>
      </trkpt>
      <trkpt lat="44.79582404717803" lon="6.4999075792729855">
        <time>2022-01-25T14:32:25+00:00</time>
        <ele>1403.0</ele>
      </trkpt>
      <trkpt lat="44.795816503465176" lon="6.499921744689345">
        <time>2022-01-25T14:32:26+00:00</time>
        <ele>1403.0</ele>
      </trkpt>
      <trkpt lat="44.7958136536181" lon="6.499960720539093">
        <time>2022-01-25T14:32:29+00:00</time>
        <ele>1403.0</ele>
      </trkpt>
      <trkpt lat="44.79582128114998" lon="6.499979496002197">
        <time>2022-01-25T14:32:30+00:00</time>
        <ele>1403.0</ele>
      </trkpt>
      <trkpt lat="44.79582932777703" lon="6.5000704396516085">
        <time>2022-01-25T14:32:35+00:00</time>
        <ele>1403.0</ele>
      </trkpt>
      <trkpt lat="44.79582203552127" lon="6.5002047177404165">
        <time>2022-01-25T14:32:43+00:00</time>
        <ele>1403.0</ele>
      </trkpt>
      <trkpt lat="44.795854557305574" lon="6.500291638076305">
        <time>2022-01-25T14:32:48+00:00</time>
        <ele>1404.0</ele>
      </trkpt>
      <trkpt lat="44.79585153982043" lon="6.500324662774801">
        <time>2022-01-25T14:32:50+00:00</time>
        <ele>1403.0</ele>
      </trkpt>
      <trkpt lat="44.795847684144974" lon="6.500376462936401">
        <time>2022-01-25T14:32:53+00:00</time>
        <ele>1403.0</ele>
      </trkpt>
      <trkpt lat="44.79585874825716" lon="6.500419797375798">
        <time>2022-01-25T14:32:55+00:00</time>
        <ele>1404.0</ele>
      </trkpt>
      <trkpt lat="44.79585388675332" lon="6.500472519546747">
        <time>2022-01-25T14:32:58+00:00</time>
        <ele>1403.0</ele>
      </trkpt>
      <trkpt lat="44.79584709741175" lon="6.500608306378126">
        <time>2022-01-25T14:33:04+00:00</time>
        <ele>1403.0</ele>
      </trkpt>
      <trkpt lat="44.79583343490958" lon="6.500659938901663">
        <time>2022-01-25T14:33:06+00:00</time>
        <ele>1403.0</ele>
      </trkpt>
      <trkpt lat="44.79582882486284" lon="6.500718109309673">
        <time>2022-01-25T14:33:08+00:00</time>
        <ele>1403.0</ele>
      </trkpt>
      <trkpt lat="44.795804768800735" lon="6.500833611935377">
        <time>2022-01-25T14:33:12+00:00</time>
        <ele>1402.0</ele>
      </trkpt>
      <trkpt lat="44.79579580016434" lon="6.500857165083289">
        <time>2022-01-25T14:33:13+00:00</time>
        <ele>1401.0</ele>
      </trkpt>
      <trkpt lat="44.79573645628989" lon="6.501103760674596">
        <time>2022-01-25T14:33:22+00:00</time>
        <ele>1398.0</ele>
      </trkpt>
      <trkpt lat="44.79574726894498" lon="6.501169810071588">
        <time>2022-01-25T14:33:24+00:00</time>
        <ele>1398.0</ele>
      </trkpt>
      <trkpt lat="44.79573352262378" lon="6.501299645751715">
        <time>2022-01-25T14:33:27+00:00</time>
        <ele>1396.0</ele>
      </trkpt>
      <trkpt lat="44.79572740383446" lon="6.501346919685602">
        <time>2022-01-25T14:33:28+00:00</time>
        <ele>1396.0</ele>
      </trkpt>
      <trkpt lat="44.7957047726959" lon="6.501436857506633">
        <time>2022-01-25T14:33:30+00:00</time>
        <ele>1396.0</ele>
      </trkpt>
      <trkpt lat="44.79567904025316" lon="6.50161019526422">
        <time>2022-01-25T14:33:34+00:00</time>
        <ele>1395.0</ele>
      </trkpt>
      <trkpt lat="44.795673843473196" lon="6.501655960455537">
        <time>2022-01-25T14:33:35+00:00</time>
        <ele>1394.0</ele>
      </trkpt>
      <trkpt lat="44.79564115405083" lon="6.501838602125645">
        <time>2022-01-25T14:33:39+00:00</time>
        <ele>1393.0</ele>
      </trkpt>
      <trkpt lat="44.79560058563948" lon="6.50194538757205">
        <time>2022-01-25T14:33:41+00:00</time>
        <ele>1393.0</ele>
      </trkpt>
      <trkpt lat="44.79557887651026" lon="6.502004815265536">
        <time>2022-01-25T14:33:42+00:00</time>
        <ele>1392.0</ele>
      </trkpt>
      <trkpt lat="44.79554015211761" lon="6.502130962908268">
        <time>2022-01-25T14:33:44+00:00</time>
        <ele>1391.0</ele>
      </trkpt>
      <trkpt lat="44.795515928417444" lon="6.502197096124291">
        <time>2022-01-25T14:33:45+00:00</time>
        <ele>1391.0</ele>
      </trkpt>
      <trkpt lat="44.79545524343848" lon="6.5023313742130995">
        <time>2022-01-25T14:33:47+00:00</time>
        <ele>1390.0</ele>
      </trkpt>
      <trkpt lat="44.795430181548" lon="6.502403123304248">
        <time>2022-01-25T14:33:48+00:00</time>
        <ele>1390.0</ele>
      </trkpt>
      <trkpt lat="44.79541014879942" lon="6.5024815779179335">
        <time>2022-01-25T14:33:49+00:00</time>
        <ele>1390.0</ele>
      </trkpt>
      <trkpt lat="44.79539070278406" lon="6.502560116350651">
        <time>2022-01-25T14:33:50+00:00</time>
        <ele>1389.0</ele>
      </trkpt>
      <trkpt lat="44.79534267447889" lon="6.502720797434449">
        <time>2022-01-25T14:33:52+00:00</time>
        <ele>1388.0</ele>
      </trkpt>
      <trkpt lat="44.79530084878206" lon="6.5029071271419525">
        <time>2022-01-25T14:33:54+00:00</time>
        <ele>1387.0</ele>
      </trkpt>
      <trkpt lat="44.79528718627989" lon="6.503010643646121">
        <time>2022-01-25T14:33:55+00:00</time>
        <ele>1386.0</ele>
      </trkpt>
      <trkpt lat="44.79527763091028" lon="6.503117261454463">
        <time>2022-01-25T14:33:56+00:00</time>
        <ele>1386.0</ele>
      </trkpt>
      <trkpt lat="44.79525902308524" lon="6.5033412259072065">
        <time>2022-01-25T14:33:58+00:00</time>
        <ele>1386.0</ele>
      </trkpt>
      <trkpt lat="44.79524997062981" lon="6.503455890342593">
        <time>2022-01-25T14:33:59+00:00</time>
        <ele>1386.0</ele>
      </trkpt>
      <trkpt lat="44.795236978679895" lon="6.503565525636077">
        <time>2022-01-25T14:34:00+00:00</time>
        <ele>1387.0</ele>
      </trkpt>
      <trkpt lat="44.7952005174011" lon="6.503758812323213">
        <time>2022-01-25T14:34:02+00:00</time>
        <ele>1387.0</ele>
      </trkpt>
      <trkpt lat="44.795177802443504" lon="6.503841541707516">
        <time>2022-01-25T14:34:03+00:00</time>
        <ele>1387.0</ele>
      </trkpt>
      <trkpt lat="44.79512717574835" lon="6.5039776638150215">
        <time>2022-01-25T14:34:05+00:00</time>
        <ele>1387.0</ele>
      </trkpt>
      <trkpt lat="44.79509809054434" lon="6.504032397642732">
        <time>2022-01-25T14:34:06+00:00</time>
        <ele>1386.0</ele>
      </trkpt>
      <trkpt lat="44.79503598064184" lon="6.50416960939765">
        <time>2022-01-25T14:34:09+00:00</time>
        <ele>1385.0</ele>
      </trkpt>
      <trkpt lat="44.79501536116004" lon="6.504209423437715">
        <time>2022-01-25T14:34:10+00:00</time>
        <ele>1385.0</ele>
      </trkpt>
      <trkpt lat="44.79494931176305" lon="6.5043914783746">
        <time>2022-01-25T14:34:15+00:00</time>
        <ele>1383.0</ele>
      </trkpt>
      <trkpt lat="44.79493573307991" lon="6.50441880337894">
        <time>2022-01-25T14:34:16+00:00</time>
        <ele>1383.0</ele>
      </trkpt>
      <trkpt lat="44.79490497149527" lon="6.504488959908485">
        <time>2022-01-25T14:34:21+00:00</time>
        <ele>1383.0</ele>
      </trkpt>
      <trkpt lat="44.79487278498709" lon="6.504535730928183">
        <time>2022-01-25T14:34:28+00:00</time>
        <ele>1382.0</ele>
      </trkpt>
      <trkpt lat="44.79487027041614" lon="6.504571018740535">
        <time>2022-01-25T14:34:32+00:00</time>
        <ele>1382.0</ele>
      </trkpt>
      <trkpt lat="44.79486918076873" lon="6.5045796521008015">
        <time>2022-01-25T14:34:33+00:00</time>
        <ele>1382.0</ele>
      </trkpt>
      <trkpt lat="44.794867252931" lon="6.50459373369813">
        <time>2022-01-25T14:34:34+00:00</time>
        <ele>1382.0</ele>
      </trkpt>
      <trkpt lat="44.79486817494035" lon="6.504655005410314">
        <time>2022-01-25T14:34:39+00:00</time>
        <ele>1383.0</ele>
      </trkpt>
      <trkpt lat="44.794877814128995" lon="6.504713511094451">
        <time>2022-01-25T14:34:45+00:00</time>
        <ele>1383.0</ele>
      </trkpt>
      <trkpt lat="44.79486046358943" lon="6.504745613783598">
        <time>2022-01-25T14:34:47+00:00</time>
        <ele>1383.0</ele>
      </trkpt>
      <trkpt lat="44.79484093375504" lon="6.504780231043696">
        <time>2022-01-25T14:34:49+00:00</time>
        <ele>1383.0</ele>
      </trkpt>
      <trkpt lat="44.79483121074736" lon="6.5047964081168175">
        <time>2022-01-25T14:34:50+00:00</time>
        <ele>1383.0</ele>
      </trkpt>
      <trkpt lat="44.79476574808359" lon="6.504923142492771">
        <time>2022-01-25T14:34:56+00:00</time>
        <ele>1382.0</ele>
      </trkpt>
      <trkpt lat="44.7947567794472" lon="6.504954742267728">
        <time>2022-01-25T14:34:57+00:00</time>
        <ele>1382.0</ele>
      </trkpt>
      <trkpt lat="44.79471822269261" lon="6.505168732255697">
        <time>2022-01-25T14:35:03+00:00</time>
        <ele>1383.0</ele>
      </trkpt>
      <trkpt lat="44.794699447229505" lon="6.505287168547511">
        <time>2022-01-25T14:35:06+00:00</time>
        <ele>1383.0</ele>
      </trkpt>
      <trkpt lat="44.79469089768827" lon="6.505326312035322">
        <time>2022-01-25T14:35:07+00:00</time>
        <ele>1383.0</ele>
      </trkpt>
      <trkpt lat="44.7946598008275" lon="6.505561508238316">
        <time>2022-01-25T14:35:12+00:00</time>
        <ele>1383.0</ele>
      </trkpt>
      <trkpt lat="44.79465510696173" lon="6.505701821297407">
        <time>2022-01-25T14:35:14+00:00</time>
        <ele>1383.0</ele>
      </trkpt>
      <trkpt lat="44.794651083648205" lon="6.505868369713426">
        <time>2022-01-25T14:35:16+00:00</time>
        <ele>1382.0</ele>
      </trkpt>
      <trkpt lat="44.79463582858443" lon="6.505954284220934">
        <time>2022-01-25T14:35:17+00:00</time>
        <ele>1381.0</ele>
      </trkpt>
      <trkpt lat="44.794607078656554" lon="6.506033493205905">
        <time>2022-01-25T14:35:18+00:00</time>
        <ele>1379.0</ele>
      </trkpt>
      <trkpt lat="44.79457061737776" lon="6.506101805716753">
        <time>2022-01-25T14:35:19+00:00</time>
        <ele>1378.0</ele>
      </trkpt>
      <trkpt lat="44.79452678002417" lon="6.506156204268336">
        <time>2022-01-25T14:35:20+00:00</time>
        <ele>1377.0</ele>
      </trkpt>
      <trkpt lat="44.79448243975639" lon="6.506200125440955">
        <time>2022-01-25T14:35:21+00:00</time>
        <ele>1377.0</ele>
      </trkpt>
      <trkpt lat="44.79439468123019" lon="6.506272880360484">
        <time>2022-01-25T14:35:23+00:00</time>
        <ele>1377.0</ele>
      </trkpt>
      <trkpt lat="44.794330978766084" lon="6.506342031061649">
        <time>2022-01-25T14:35:25+00:00</time>
        <ele>1380.0</ele>
      </trkpt>
      <trkpt lat="44.794283704832196" lon="6.506408667191863">
        <time>2022-01-25T14:35:27+00:00</time>
        <ele>1382.0</ele>
      </trkpt>
      <trkpt lat="44.79428697377443" lon="6.506445966660976">
        <time>2022-01-25T14:35:28+00:00</time>
        <ele>1382.0</ele>
      </trkpt>
      <trkpt lat="44.79430683888495" lon="6.506524253636599">
        <time>2022-01-25T14:35:30+00:00</time>
        <ele>1381.0</ele>
      </trkpt>
      <trkpt lat="44.794337432831526" lon="6.506624920293689">
        <time>2022-01-25T14:35:33+00:00</time>
        <ele>1380.0</ele>
      </trkpt>
      <trkpt lat="44.79434019885957" lon="6.506680157035589">
        <time>2022-01-25T14:35:35+00:00</time>
        <ele>1379.0</ele>
      </trkpt>
      <trkpt lat="44.794352101162076" lon="6.506872605532408">
        <time>2022-01-25T14:35:41+00:00</time>
        <ele>1378.0</ele>
      </trkpt>
      <trkpt lat="44.79438604786992" lon="6.50705206207931">
        <time>2022-01-25T14:35:46+00:00</time>
        <ele>1376.0</ele>
      </trkpt>
      <trkpt lat="44.794335504993796" lon="6.507178880274296">
        <time>2022-01-25T14:35:51+00:00</time>
        <ele>1377.0</ele>
      </trkpt>
      <trkpt lat="44.7942868899554" lon="6.507307626307011">
        <time>2022-01-25T14:35:56+00:00</time>
        <ele>1377.0</ele>
      </trkpt>
      <trkpt lat="44.794272892177105" lon="6.50733302347362">
        <time>2022-01-25T14:35:57+00:00</time>
        <ele>1377.0</ele>
      </trkpt>
      <trkpt lat="44.7942231874913" lon="6.507452884688973">
        <time>2022-01-25T14:36:01+00:00</time>
        <ele>1376.0</ele>
      </trkpt>
      <trkpt lat="44.794154204428196" lon="6.507574589923024">
        <time>2022-01-25T14:36:05+00:00</time>
        <ele>1377.0</ele>
      </trkpt>
      <trkpt lat="44.79410408064723" lon="6.507780449464917">
        <time>2022-01-25T14:36:10+00:00</time>
        <ele>1375.0</ele>
      </trkpt>
      <trkpt lat="44.794085305184126" lon="6.5078510250896215">
        <time>2022-01-25T14:36:12+00:00</time>
        <ele>1374.0</ele>
      </trkpt>
      <trkpt lat="44.79407977312803" lon="6.5079323295503855">
        <time>2022-01-25T14:36:14+00:00</time>
        <ele>1373.0</ele>
      </trkpt>
      <trkpt lat="44.79407767765224" lon="6.507977340370417">
        <time>2022-01-25T14:36:15+00:00</time>
        <ele>1373.0</ele>
      </trkpt>
      <trkpt lat="44.794064266607165" lon="6.508141625672579">
        <time>2022-01-25T14:36:19+00:00</time>
        <ele>1371.0</ele>
      </trkpt>
      <trkpt lat="44.79406896047294" lon="6.508182864636183">
        <time>2022-01-25T14:36:20+00:00</time>
        <ele>1371.0</ele>
      </trkpt>
      <trkpt lat="44.79407340288162" lon="6.508223181590438">
        <time>2022-01-25T14:36:21+00:00</time>
        <ele>1371.0</ele>
      </trkpt>
      <trkpt lat="44.794081868603826" lon="6.508263917639852">
        <time>2022-01-25T14:36:22+00:00</time>
        <ele>1371.0</ele>
      </trkpt>
      <trkpt lat="44.79400936514139" lon="6.508434908464551">
        <time>2022-01-25T14:36:27+00:00</time>
        <ele>1369.0</ele>
      </trkpt>
      <trkpt lat="44.793935185298324" lon="6.508570443838835">
        <time>2022-01-25T14:36:32+00:00</time>
        <ele>1369.0</ele>
      </trkpt>
      <trkpt lat="44.79384549893439" lon="6.508730789646506">
        <time>2022-01-25T14:36:38+00:00</time>
        <ele>1368.0</ele>
      </trkpt>
      <trkpt lat="44.793827226385474" lon="6.50876515544951">
        <time>2022-01-25T14:36:39+00:00</time>
        <ele>1368.0</ele>
      </trkpt>
      <trkpt lat="44.79369998909533" lon="6.508994568139315">
        <time>2022-01-25T14:36:45+00:00</time>
        <ele>1369.0</ele>
      </trkpt>
      <trkpt lat="44.79368037544191" lon="6.509031699970365">
        <time>2022-01-25T14:36:46+00:00</time>
        <ele>1368.0</ele>
      </trkpt>
      <trkpt lat="44.79356428608298" lon="6.509126164019108">
        <time>2022-01-25T14:36:50+00:00</time>
        <ele>1371.0</ele>
      </trkpt>
      <trkpt lat="44.793546348810196" lon="6.509145945310593">
        <time>2022-01-25T14:36:51+00:00</time>
        <ele>1372.0</ele>
      </trkpt>
      <trkpt lat="44.79349144734442" lon="6.509222304448485">
        <time>2022-01-25T14:36:55+00:00</time>
        <ele>1373.0</ele>
      </trkpt>
      <trkpt lat="44.793414333835244" lon="6.509351301938295">
        <time>2022-01-25T14:37:01+00:00</time>
        <ele>1374.0</ele>
      </trkpt>
      <trkpt lat="44.793411400169134" lon="6.50938524864614">
        <time>2022-01-25T14:37:02+00:00</time>
        <ele>1373.0</ele>
      </trkpt>
      <trkpt lat="44.79340335354209" lon="6.509455991908908">
        <time>2022-01-25T14:37:04+00:00</time>
        <ele>1372.0</ele>
      </trkpt>
      <trkpt lat="44.79340150952339" lon="6.509524472057819">
        <time>2022-01-25T14:37:06+00:00</time>
        <ele>1371.0</ele>
      </trkpt>
      <trkpt lat="44.79338860139251" lon="6.509643159806728">
        <time>2022-01-25T14:37:10+00:00</time>
        <ele>1369.0</ele>
      </trkpt>
      <trkpt lat="44.79338130913675" lon="6.509676435962319">
        <time>2022-01-25T14:37:11+00:00</time>
        <ele>1369.0</ele>
      </trkpt>
      <trkpt lat="44.79335708543658" lon="6.509744664654136">
        <time>2022-01-25T14:37:13+00:00</time>
        <ele>1369.0</ele>
      </trkpt>
      <trkpt lat="44.79333235882223" lon="6.509775845333934">
        <time>2022-01-25T14:37:14+00:00</time>
        <ele>1369.0</ele>
      </trkpt>
      <trkpt lat="44.79327435605228" lon="6.509925881400704">
        <time>2022-01-25T14:37:18+00:00</time>
        <ele>1369.0</ele>
      </trkpt>
      <trkpt lat="44.793255999684334" lon="6.510057896375656">
        <time>2022-01-25T14:37:21+00:00</time>
        <ele>1367.0</ele>
      </trkpt>
      <trkpt lat="44.79324124753475" lon="6.5100998897105455">
        <time>2022-01-25T14:37:22+00:00</time>
        <ele>1367.0</ele>
      </trkpt>
      <trkpt lat="44.79319975711405" lon="6.510268282145262">
        <time>2022-01-25T14:37:26+00:00</time>
        <ele>1366.0</ele>
      </trkpt>
      <trkpt lat="44.79319045320153" lon="6.510312957689166">
        <time>2022-01-25T14:37:27+00:00</time>
        <ele>1366.0</ele>
      </trkpt>
      <trkpt lat="44.79317519813776" lon="6.510476069524884">
        <time>2022-01-25T14:37:30+00:00</time>
        <ele>1363.0</ele>
      </trkpt>
      <trkpt lat="44.79315751232207" lon="6.510534407570958">
        <time>2022-01-25T14:37:31+00:00</time>
        <ele>1363.0</ele>
      </trkpt>
      <trkpt lat="44.7931110765785" lon="6.510731214657426">
        <time>2022-01-25T14:37:34+00:00</time>
        <ele>1363.0</ele>
      </trkpt>
      <trkpt lat="44.79308668524027" lon="6.510868761688471">
        <time>2022-01-25T14:37:36+00:00</time>
        <ele>1361.0</ele>
      </trkpt>
      <trkpt lat="44.79306665249169" lon="6.510935062542558">
        <time>2022-01-25T14:37:37+00:00</time>
        <ele>1360.0</ele>
      </trkpt>
      <trkpt lat="44.79301979765296" lon="6.511073028668761">
        <time>2022-01-25T14:37:39+00:00</time>
        <ele>1359.0</ele>
      </trkpt>
      <trkpt lat="44.79299054481089" lon="6.511139161884785">
        <time>2022-01-25T14:37:40+00:00</time>
        <ele>1359.0</ele>
      </trkpt>
      <trkpt lat="44.79295928031206" lon="6.511204540729523">
        <time>2022-01-25T14:37:41+00:00</time>
        <ele>1359.0</ele>
      </trkpt>
      <trkpt lat="44.79289708659053" lon="6.5113383159041405">
        <time>2022-01-25T14:37:43+00:00</time>
        <ele>1358.0</ele>
      </trkpt>
      <trkpt lat="44.792855428531766" lon="6.511405035853386">
        <time>2022-01-25T14:37:44+00:00</time>
        <ele>1358.0</ele>
      </trkpt>
      <trkpt lat="44.79278921149671" lon="6.5115527249872684">
        <time>2022-01-25T14:37:46+00:00</time>
        <ele>1357.0</ele>
      </trkpt>
      <trkpt lat="44.792674547061324" lon="6.511766044422984">
        <time>2022-01-25T14:37:49+00:00</time>
        <ele>1356.0</ele>
      </trkpt>
      <trkpt lat="44.79257815517485" lon="6.5119603369385">
        <time>2022-01-25T14:37:52+00:00</time>
        <ele>1357.0</ele>
      </trkpt>
      <trkpt lat="44.79253716766834" lon="6.51201456785202">
        <time>2022-01-25T14:37:53+00:00</time>
        <ele>1358.0</ele>
      </trkpt>
      <trkpt lat="44.792501125484705" lon="6.512063266709447">
        <time>2022-01-25T14:37:54+00:00</time>
        <ele>1359.0</ele>
      </trkpt>
      <trkpt lat="44.792428789660335" lon="6.512159742414951">
        <time>2022-01-25T14:37:56+00:00</time>
        <ele>1360.0</ele>
      </trkpt>
      <trkpt lat="44.79239760898054" lon="6.512209782376885">
        <time>2022-01-25T14:37:57+00:00</time>
        <ele>1361.0</ele>
      </trkpt>
      <trkpt lat="44.79237489402294" lon="6.512263678014278">
        <time>2022-01-25T14:37:58+00:00</time>
        <ele>1361.0</ele>
      </trkpt>
      <trkpt lat="44.79234195314348" lon="6.5123899932950735">
        <time>2022-01-25T14:38:00+00:00</time>
        <ele>1359.0</ele>
      </trkpt>
      <trkpt lat="44.79232217185199" lon="6.512457216158509">
        <time>2022-01-25T14:38:01+00:00</time>
        <ele>1359.0</ele>
      </trkpt>
      <trkpt lat="44.79229325428605" lon="6.512524271383882">
        <time>2022-01-25T14:38:02+00:00</time>
        <ele>1358.0</ele>
      </trkpt>
      <trkpt lat="44.79224036447704" lon="6.512665254995227">
        <time>2022-01-25T14:38:04+00:00</time>
        <ele>1359.0</ele>
      </trkpt>
      <trkpt lat="44.792220164090395" lon="6.512741278856993">
        <time>2022-01-25T14:38:05+00:00</time>
        <ele>1358.0</ele>
      </trkpt>
      <trkpt lat="44.79219359345734" lon="6.512810681015253">
        <time>2022-01-25T14:38:06+00:00</time>
        <ele>1358.0</ele>
      </trkpt>
      <trkpt lat="44.792170794680715" lon="6.5128836035728455">
        <time>2022-01-25T14:38:07+00:00</time>
        <ele>1358.0</ele>
      </trkpt>
      <trkpt lat="44.79215654544532" lon="6.512962142005563">
        <time>2022-01-25T14:38:08+00:00</time>
        <ele>1357.0</ele>
      </trkpt>
      <trkpt lat="44.79214372113347" lon="6.513047134503722">
        <time>2022-01-25T14:38:09+00:00</time>
        <ele>1356.0</ele>
      </trkpt>
      <trkpt lat="44.79209342971444" lon="6.5131996013224125">
        <time>2022-01-25T14:38:11+00:00</time>
        <ele>1355.0</ele>
      </trkpt>
      <trkpt lat="44.79204246774316" lon="6.513336561620235">
        <time>2022-01-25T14:38:13+00:00</time>
        <ele>1357.0</ele>
      </trkpt>
      <trkpt lat="44.792040372267365" lon="6.513409903272986">
        <time>2022-01-25T14:38:14+00:00</time>
        <ele>1356.0</ele>
      </trkpt>
      <trkpt lat="44.79205872863531" lon="6.513486597687006">
        <time>2022-01-25T14:38:15+00:00</time>
        <ele>1353.0</ele>
      </trkpt>
      <trkpt lat="44.79212108999491" lon="6.5136045310646296">
        <time>2022-01-25T14:38:17+00:00</time>
        <ele>1348.0</ele>
      </trkpt>
      <trkpt lat="44.79220323264599" lon="6.513667227700353">
        <time>2022-01-25T14:38:19+00:00</time>
        <ele>1345.0</ele>
      </trkpt>
      <trkpt lat="44.792242711409926" lon="6.513697151094675">
        <time>2022-01-25T14:38:20+00:00</time>
        <ele>1343.0</ele>
      </trkpt>
      <trkpt lat="44.792312029749155" lon="6.513757752254605">
        <time>2022-01-25T14:38:22+00:00</time>
        <ele>1342.0</ele>
      </trkpt>
      <trkpt lat="44.79234044440091" lon="6.513790944591165">
        <time>2022-01-25T14:38:23+00:00</time>
        <ele>1343.0</ele>
      </trkpt>
      <trkpt lat="44.79236106388271" lon="6.513825310394168">
        <time>2022-01-25T14:38:24+00:00</time>
        <ele>1344.0</ele>
      </trkpt>
      <trkpt lat="44.79237380437553" lon="6.513862693682313">
        <time>2022-01-25T14:38:25+00:00</time>
        <ele>1344.0</ele>
      </trkpt>
      <trkpt lat="44.792396100237966" lon="6.514085819944739">
        <time>2022-01-25T14:38:31+00:00</time>
        <ele>1345.0</ele>
      </trkpt>
      <trkpt lat="44.792399536818266" lon="6.5141599997878075">
        <time>2022-01-25T14:38:33+00:00</time>
        <ele>1345.0</ele>
      </trkpt>
      <trkpt lat="44.7924062423408" lon="6.514325877651572">
        <time>2022-01-25T14:38:37+00:00</time>
        <ele>1345.0</ele>
      </trkpt>
      <trkpt lat="44.79240892454982" lon="6.514369715005159">
        <time>2022-01-25T14:38:38+00:00</time>
        <ele>1345.0</ele>
      </trkpt>
      <trkpt lat="44.79244337417185" lon="6.514583034440875">
        <time>2022-01-25T14:38:43+00:00</time>
        <ele>1345.0</ele>
      </trkpt>
      <trkpt lat="44.79246223345399" lon="6.514652855694294">
        <time>2022-01-25T14:38:45+00:00</time>
        <ele>1345.0</ele>
      </trkpt>
      <trkpt lat="44.79247103445232" lon="6.514687892049551">
        <time>2022-01-25T14:38:46+00:00</time>
        <ele>1345.0</ele>
      </trkpt>
      <trkpt lat="44.79250187985599" lon="6.514763664454222">
        <time>2022-01-25T14:38:48+00:00</time>
        <ele>1346.0</ele>
      </trkpt>
      <trkpt lat="44.79250766336918" lon="6.514846310019493">
        <time>2022-01-25T14:38:50+00:00</time>
        <ele>1345.0</ele>
      </trkpt>
      <trkpt lat="44.79249743744731" lon="6.514936750754714">
        <time>2022-01-25T14:38:52+00:00</time>
        <ele>1344.0</ele>
      </trkpt>
      <trkpt lat="44.792443457990885" lon="6.515139006078243">
        <time>2022-01-25T14:38:56+00:00</time>
        <ele>1342.0</ele>
      </trkpt>
      <trkpt lat="44.792403895407915" lon="6.515241265296936">
        <time>2022-01-25T14:38:58+00:00</time>
        <ele>1340.0</ele>
      </trkpt>
      <trkpt lat="44.79233072139323" lon="6.515401359647512">
        <time>2022-01-25T14:39:01+00:00</time>
        <ele>1337.0</ele>
      </trkpt>
      <trkpt lat="44.79230138473213" lon="6.515453075990081">
        <time>2022-01-25T14:39:02+00:00</time>
        <ele>1336.0</ele>
      </trkpt>
      <trkpt lat="44.79225218296051" lon="6.515563046559691">
        <time>2022-01-25T14:39:04+00:00</time>
        <ele>1335.0</ele>
      </trkpt>
      <trkpt lat="44.79222670197487" lon="6.5156192891299725">
        <time>2022-01-25T14:39:05+00:00</time>
        <ele>1335.0</ele>
      </trkpt>
      <trkpt lat="44.79218730702996" lon="6.515736551955342">
        <time>2022-01-25T14:39:07+00:00</time>
        <ele>1333.0</ele>
      </trkpt>
      <trkpt lat="44.792156713083386" lon="6.515859849750996">
        <time>2022-01-25T14:39:09+00:00</time>
        <ele>1332.0</ele>
      </trkpt>
      <trkpt lat="44.792149756103754" lon="6.5159261506050825">
        <time>2022-01-25T14:39:10+00:00</time>
        <ele>1332.0</ele>
      </trkpt>
      <trkpt lat="44.792150761932135" lon="6.515993792563677">
        <time>2022-01-25T14:39:11+00:00</time>
        <ele>1332.0</ele>
      </trkpt>
      <trkpt lat="44.7921578027308" lon="6.516135614365339">
        <time>2022-01-25T14:39:13+00:00</time>
        <ele>1332.0</ele>
      </trkpt>
      <trkpt lat="44.79216911830008" lon="6.516287578269839">
        <time>2022-01-25T14:39:15+00:00</time>
        <ele>1333.0</ele>
      </trkpt>
      <trkpt lat="44.79217347688973" lon="6.516371900215745">
        <time>2022-01-25T14:39:16+00:00</time>
        <ele>1333.0</ele>
      </trkpt>
      <trkpt lat="44.792172303423285" lon="6.516454881057143">
        <time>2022-01-25T14:39:17+00:00</time>
        <ele>1333.0</ele>
      </trkpt>
      <trkpt lat="44.79214422404766" lon="6.516618747264147">
        <time>2022-01-25T14:39:19+00:00</time>
        <ele>1333.0</ele>
      </trkpt>
      <trkpt lat="44.792113211005926" lon="6.5166962798684835">
        <time>2022-01-25T14:39:20+00:00</time>
        <ele>1332.0</ele>
      </trkpt>
      <trkpt lat="44.79203827679157" lon="6.516849752515554">
        <time>2022-01-25T14:39:22+00:00</time>
        <ele>1330.0</ele>
      </trkpt>
      <trkpt lat="44.79196636006236" lon="6.517012612894177">
        <time>2022-01-25T14:39:24+00:00</time>
        <ele>1328.0</ele>
      </trkpt>
      <trkpt lat="44.79188580997288" lon="6.517172707244754">
        <time>2022-01-25T14:39:26+00:00</time>
        <ele>1326.0</ele>
      </trkpt>
      <trkpt lat="44.791808780282736" lon="6.517348559573293">
        <time>2022-01-25T14:39:28+00:00</time>
        <ele>1325.0</ele>
      </trkpt>
      <trkpt lat="44.791724206879735" lon="6.517532542347908">
        <time>2022-01-25T14:39:30+00:00</time>
        <ele>1323.0</ele>
      </trkpt>
      <trkpt lat="44.79166670702398" lon="6.5176136791706085">
        <time>2022-01-25T14:39:31+00:00</time>
        <ele>1322.0</ele>
      </trkpt>
      <trkpt lat="44.79160166345537" lon="6.517680734395981">
        <time>2022-01-25T14:39:32+00:00</time>
        <ele>1321.0</ele>
      </trkpt>
      <trkpt lat="44.7915359493345" lon="6.517739575356245">
        <time>2022-01-25T14:39:33+00:00</time>
        <ele>1320.0</ele>
      </trkpt>
      <trkpt lat="44.791476018726826" lon="6.517792297527194">
        <time>2022-01-25T14:39:34+00:00</time>
        <ele>1320.0</ele>
      </trkpt>
      <trkpt lat="44.79141994379461" lon="6.517839403823018">
        <time>2022-01-25T14:39:35+00:00</time>
        <ele>1321.0</ele>
      </trkpt>
      <trkpt lat="44.79133126325905" lon="6.517929257825017">
        <time>2022-01-25T14:39:37+00:00</time>
        <ele>1321.0</ele>
      </trkpt>
      <trkpt lat="44.791263369843364" lon="6.518007544800639">
        <time>2022-01-25T14:39:39+00:00</time>
        <ele>1321.0</ele>
      </trkpt>
      <trkpt lat="44.791202349588275" lon="6.518067475408316">
        <time>2022-01-25T14:39:41+00:00</time>
        <ele>1322.0</ele>
      </trkpt>
      <trkpt lat="44.79108198545873" lon="6.518142409622669">
        <time>2022-01-25T14:39:45+00:00</time>
        <ele>1325.0</ele>
      </trkpt>
      <trkpt lat="44.790928764268756" lon="6.518274927511811">
        <time>2022-01-25T14:39:51+00:00</time>
        <ele>1327.0</ele>
      </trkpt>
      <trkpt lat="44.79079364798963" lon="6.518415240570903">
        <time>2022-01-25T14:39:57+00:00</time>
        <ele>1328.0</ele>
      </trkpt>
      <trkpt lat="44.7907211445272" lon="6.51850744150579">
        <time>2022-01-25T14:40:01+00:00</time>
        <ele>1327.0</ele>
      </trkpt>
      <trkpt lat="44.79067529551685" lon="6.518600061535835">
        <time>2022-01-25T14:40:04+00:00</time>
        <ele>1326.0</ele>
      </trkpt>
      <trkpt lat="44.79063296690583" lon="6.518666697666049">
        <time>2022-01-25T14:40:06+00:00</time>
        <ele>1326.0</ele>
      </trkpt>
      <trkpt lat="44.790614107623696" lon="6.5187054220587015">
        <time>2022-01-25T14:40:07+00:00</time>
        <ele>1325.0</ele>
      </trkpt>
      <trkpt lat="44.79055920615792" lon="6.518838526681066">
        <time>2022-01-25T14:40:10+00:00</time>
        <ele>1323.0</ele>
      </trkpt>
      <trkpt lat="44.790543699637055" lon="6.51888906955719">
        <time>2022-01-25T14:40:11+00:00</time>
        <ele>1323.0</ele>
      </trkpt>
      <trkpt lat="44.790497682988644" lon="6.519127786159515">
        <time>2022-01-25T14:40:15+00:00</time>
        <ele>1320.0</ele>
      </trkpt>
      <trkpt lat="44.790490390732884" lon="6.519189644604921">
        <time>2022-01-25T14:40:16+00:00</time>
        <ele>1319.0</ele>
      </trkpt>
      <trkpt lat="44.79047781787813" lon="6.519307494163513">
        <time>2022-01-25T14:40:18+00:00</time>
        <ele>1317.0</ele>
      </trkpt>
      <trkpt lat="44.79047614149749" lon="6.519413441419601">
        <time>2022-01-25T14:40:20+00:00</time>
        <ele>1316.0</ele>
      </trkpt>
      <trkpt lat="44.79046666994691" lon="6.51945929042995">
        <time>2022-01-25T14:40:21+00:00</time>
        <ele>1316.0</ele>
      </trkpt>
      <trkpt lat="44.79046440683305" lon="6.519501954317093">
        <time>2022-01-25T14:40:22+00:00</time>
        <ele>1316.0</ele>
      </trkpt>
      <trkpt lat="44.79047974571586" lon="6.519575379788876">
        <time>2022-01-25T14:40:24+00:00</time>
        <ele>1315.0</ele>
      </trkpt>
      <trkpt lat="44.79048569686711" lon="6.519603710621595">
        <time>2022-01-25T14:40:25+00:00</time>
        <ele>1315.0</ele>
      </trkpt>
      <trkpt lat="44.79049642570317" lon="6.519695743918419">
        <time>2022-01-25T14:40:30+00:00</time>
        <ele>1314.0</ele>
      </trkpt>
      <trkpt lat="44.79049500077963" lon="6.519693480804563">
        <time>2022-01-25T14:40:31+00:00</time>
        <ele>1314.0</ele>
      </trkpt>
      <trkpt lat="44.79048712179065" lon="6.519720386713743">
        <time>2022-01-25T14:40:38+00:00</time>
        <ele>1314.0</ele>
      </trkpt>
      <trkpt lat="44.790466921404004" lon="6.519710998982191">
        <time>2022-01-25T14:40:51+00:00</time>
        <ele>1315.0</ele>
      </trkpt>
      <trkpt lat="44.790466921404004" lon="6.519710998982191">
        <time>2022-01-25T14:40:54+00:00</time>
        <ele>1315.0</ele>
      </trkpt>
      <trkpt lat="44.790466921404004" lon="6.519710998982191">
        <time>2022-01-25T14:40:55+00:00</time>
        <ele>1315.0</ele>
      </trkpt>
      <trkpt lat="44.790466921404004" lon="6.519710998982191">
        <time>2022-01-25T14:40:58+00:00</time>
        <ele>1315.0</ele>
      </trkpt>
      <trkpt lat="44.790466921404004" lon="6.519708735868335">
        <time>2022-01-25T14:41:01+00:00</time>
        <ele>1315.0</ele>
      </trkpt>
      <trkpt lat="44.79046633467078" lon="6.519707981497049">
        <time>2022-01-25T14:41:03+00:00</time>
        <ele>1315.0</ele>
      </trkpt>
    </trkseg>
  </trk>
</gpx>
